<?xml version='1.0' encoding='UTF-8'?><gpx version="1.1" creator="JPX - https://github.com/jenetics/jpx" xmlns="http://www.topografix.com/GPX/1/1"><trk><trkseg><trkpt lat="43.3471464" lon="11.3007013"><ele>324.8</ele><time>2026-04-25T07:50:07.289Z</time></trkpt><trkpt lat="43.3472239" lon="11.3007423"><ele>324.6</ele><time>2026-04-25T07:50:08.288Z</time></trkpt><trkpt lat="43.3472893" lon="11.3007864"><ele>324.4</ele><time>2026-04-25T07:50:09.279Z</time></trkpt><trkpt lat="43.3474469" lon="11.3008589"><ele>324.2</ele><time>2026-04-25T07:50:11.277Z</time></trkpt><trkpt lat="43.3475381" lon="11.3008926"><ele>324.0</ele><time>2026-04-25T07:50:12.28Z</time></trkpt><trkpt lat="43.3476403" lon="11.3009264"><ele>324.0</ele><time>2026-04-25T07:50:13.292Z</time></trkpt><trkpt lat="43.3477545" lon="11.3009677"><ele>324.0</ele><time>2026-04-25T07:50:14.305Z</time></trkpt><trkpt lat="43.3478756" lon="11.3010048"><ele>324.0</ele><time>2026-04-25T07:50:15.285Z</time></trkpt><trkpt lat="43.3480111" lon="11.3010758"><ele>324.0</ele><time>2026-04-25T07:50:16.295Z</time></trkpt><trkpt lat="43.348165" lon="11.3011707"><ele>324.6666666666667</ele><time>2026-04-25T07:50:17.283Z</time></trkpt><trkpt lat="43.3483331" lon="11.3012654"><ele>325.33333333333337</ele><time>2026-04-25T07:50:18.287Z</time></trkpt><trkpt lat="43.3485171" lon="11.301362"><ele>326.0</ele><time>2026-04-25T07:50:19.288Z</time></trkpt><trkpt lat="43.348706" lon="11.3014755"><ele>321.0</ele><time>2026-04-25T07:50:20.277Z</time></trkpt><trkpt lat="43.3489001" lon="11.3015836"><ele>316.0</ele><time>2026-04-25T07:50:21.284Z</time></trkpt><trkpt lat="43.3490941" lon="11.3016993"><ele>311.0</ele><time>2026-04-25T07:50:22.289Z</time></trkpt><trkpt lat="43.349292" lon="11.3018152"><ele>311.0</ele><time>2026-04-25T07:50:23.285Z</time></trkpt><trkpt lat="43.3494888" lon="11.3019334"><ele>311.0</ele><time>2026-04-25T07:50:24.287Z</time></trkpt><trkpt lat="43.3496818" lon="11.3020474"><ele>311.0</ele><time>2026-04-25T07:50:25.308Z</time></trkpt><trkpt lat="43.3498727" lon="11.3021629"><ele>312.33333333333337</ele><time>2026-04-25T07:50:26.287Z</time></trkpt><trkpt lat="43.3500721" lon="11.3022768"><ele>313.6666666666667</ele><time>2026-04-25T07:50:27.284Z</time></trkpt><trkpt lat="43.3502739" lon="11.3023939"><ele>315.0</ele><time>2026-04-25T07:50:28.286Z</time></trkpt><trkpt lat="43.3504858" lon="11.3025135"><ele>313.0</ele><time>2026-04-25T07:50:29.282Z</time></trkpt><trkpt lat="43.350709" lon="11.3026382"><ele>311.0</ele><time>2026-04-25T07:50:30.297Z</time></trkpt><trkpt lat="43.3509349" lon="11.3027674"><ele>311.0</ele><time>2026-04-25T07:50:31.285Z</time></trkpt><trkpt lat="43.3511672" lon="11.3028963"><ele>311.0</ele><time>2026-04-25T07:50:32.285Z</time></trkpt><trkpt lat="43.3514013" lon="11.3030305"><ele>303.5</ele><time>2026-04-25T07:50:33.286Z</time></trkpt><trkpt lat="43.351637" lon="11.3031613"><ele>296.0</ele><time>2026-04-25T07:50:34.288Z</time></trkpt><trkpt lat="43.3518721" lon="11.303297"><ele>296.0</ele><time>2026-04-25T07:50:35.295Z</time></trkpt><trkpt lat="43.3521134" lon="11.3034342"><ele>296.0</ele><time>2026-04-25T07:50:36.287Z</time></trkpt><trkpt lat="43.3523558" lon="11.3035708"><ele>297.5</ele><time>2026-04-25T07:50:37.304Z</time></trkpt><trkpt lat="43.3526001" lon="11.3037123"><ele>299.0</ele><time>2026-04-25T07:50:38.29Z</time></trkpt><trkpt lat="43.3528401" lon="11.3038441"><ele>296.5</ele><time>2026-04-25T07:50:39.287Z</time></trkpt><trkpt lat="43.3530783" lon="11.3039862"><ele>294.0</ele><time>2026-04-25T07:50:40.291Z</time></trkpt><trkpt lat="43.353313" lon="11.3041175"><ele>294.0</ele><time>2026-04-25T07:50:41.286Z</time></trkpt><trkpt lat="43.353541" lon="11.3042509"><ele>294.0</ele><time>2026-04-25T07:50:42.304Z</time></trkpt><trkpt lat="43.3537692" lon="11.3043737"><ele>292.0</ele><time>2026-04-25T07:50:43.292Z</time></trkpt><trkpt lat="43.3539975" lon="11.3044905"><ele>290.0</ele><time>2026-04-25T07:50:44.28Z</time></trkpt><trkpt lat="43.3542264" lon="11.304602"><ele>290.0</ele><time>2026-04-25T07:50:45.287Z</time></trkpt><trkpt lat="43.3544569" lon="11.3047026"><ele>290.0</ele><time>2026-04-25T07:50:46.291Z</time></trkpt><trkpt lat="43.3546896" lon="11.3047879"><ele>293.5</ele><time>2026-04-25T07:50:47.279Z</time></trkpt><trkpt lat="43.3549248" lon="11.3048653"><ele>297.0</ele><time>2026-04-25T07:50:48.3Z</time></trkpt><trkpt lat="43.3551585" lon="11.3049293"><ele>297.0</ele><time>2026-04-25T07:50:49.289Z</time></trkpt><trkpt lat="43.355394" lon="11.3049758"><ele>297.0</ele><time>2026-04-25T07:50:50.286Z</time></trkpt><trkpt lat="43.3556267" lon="11.3050154"><ele>298.0</ele><time>2026-04-25T07:50:51.285Z</time></trkpt><trkpt lat="43.355864" lon="11.3050448"><ele>299.0</ele><time>2026-04-25T07:50:52.293Z</time></trkpt><trkpt lat="43.3561015" lon="11.3050492"><ele>299.0</ele><time>2026-04-25T07:50:53.286Z</time></trkpt><trkpt lat="43.3563429" lon="11.3050451"><ele>299.0</ele><time>2026-04-25T07:50:54.286Z</time></trkpt><trkpt lat="43.3565808" lon="11.3050328"><ele>300.5</ele><time>2026-04-25T07:50:55.287Z</time></trkpt><trkpt lat="43.3568169" lon="11.3050146"><ele>302.0</ele><time>2026-04-25T07:50:56.285Z</time></trkpt><trkpt lat="43.3570499" lon="11.3049764"><ele>299.5</ele><time>2026-04-25T07:50:57.29Z</time></trkpt><trkpt lat="43.3572845" lon="11.3049272"><ele>297.0</ele><time>2026-04-25T07:50:58.286Z</time></trkpt><trkpt lat="43.3575174" lon="11.304863"><ele>297.0</ele><time>2026-04-25T07:50:59.312Z</time></trkpt><trkpt lat="43.3577589" lon="11.3048032"><ele>297.0</ele><time>2026-04-25T07:51:00.288Z</time></trkpt><trkpt lat="43.3580021" lon="11.3047421"><ele>292.0</ele><time>2026-04-25T07:51:01.292Z</time></trkpt><trkpt lat="43.3582473" lon="11.3046837"><ele>287.0</ele><time>2026-04-25T07:51:02.289Z</time></trkpt><trkpt lat="43.3584927" lon="11.3046238"><ele>287.0</ele><time>2026-04-25T07:51:03.294Z</time></trkpt><trkpt lat="43.3587361" lon="11.3045669"><ele>287.0</ele><time>2026-04-25T07:51:04.298Z</time></trkpt><trkpt lat="43.3589824" lon="11.3045072"><ele>287.5</ele><time>2026-04-25T07:51:05.286Z</time></trkpt><trkpt lat="43.3592298" lon="11.3044448"><ele>288.0</ele><time>2026-04-25T07:51:06.294Z</time></trkpt><trkpt lat="43.3594736" lon="11.3043861"><ele>288.0</ele><time>2026-04-25T07:51:07.286Z</time></trkpt><trkpt lat="43.3597189" lon="11.3043327"><ele>288.0</ele><time>2026-04-25T07:51:08.289Z</time></trkpt><trkpt lat="43.3599641" lon="11.3042786"><ele>288.0</ele><time>2026-04-25T07:51:09.285Z</time></trkpt><trkpt lat="43.3602111" lon="11.3042183"><ele>288.0</ele><time>2026-04-25T07:51:10.287Z</time></trkpt><trkpt lat="43.3604614" lon="11.3041623"><ele>290.0</ele><time>2026-04-25T07:51:11.289Z</time></trkpt><trkpt lat="43.3607057" lon="11.3040951"><ele>292.0</ele><time>2026-04-25T07:51:12.287Z</time></trkpt><trkpt lat="43.3609476" lon="11.3040284"><ele>292.0</ele><time>2026-04-25T07:51:13.305Z</time></trkpt><trkpt lat="43.3611871" lon="11.3039679"><ele>292.0</ele><time>2026-04-25T07:51:14.281Z</time></trkpt><trkpt lat="43.3614278" lon="11.3039112"><ele>286.5</ele><time>2026-04-25T07:51:15.288Z</time></trkpt><trkpt lat="43.3616688" lon="11.3038568"><ele>281.0</ele><time>2026-04-25T07:51:16.292Z</time></trkpt><trkpt lat="43.3619074" lon="11.3037944"><ele>281.0</ele><time>2026-04-25T07:51:17.297Z</time></trkpt><trkpt lat="43.3621443" lon="11.3037372"><ele>281.0</ele><time>2026-04-25T07:51:18.292Z</time></trkpt><trkpt lat="43.3623744" lon="11.303682"><ele>282.5</ele><time>2026-04-25T07:51:19.282Z</time></trkpt><trkpt lat="43.3626039" lon="11.3036204"><ele>284.0</ele><time>2026-04-25T07:51:20.28Z</time></trkpt><trkpt lat="43.362831" lon="11.3035434"><ele>288.5</ele><time>2026-04-25T07:51:21.285Z</time></trkpt><trkpt lat="43.3630555" lon="11.3034628"><ele>293.0</ele><time>2026-04-25T07:51:22.286Z</time></trkpt><trkpt lat="43.3632792" lon="11.3033749"><ele>293.0</ele><time>2026-04-25T07:51:23.315Z</time></trkpt><trkpt lat="43.363499" lon="11.3032786"><ele>293.0</ele><time>2026-04-25T07:51:24.296Z</time></trkpt><trkpt lat="43.3637173" lon="11.3031578"><ele>291.5</ele><time>2026-04-25T07:51:25.292Z</time></trkpt><trkpt lat="43.3639286" lon="11.3030277"><ele>290.0</ele><time>2026-04-25T07:51:26.277Z</time></trkpt><trkpt lat="43.3641429" lon="11.3028864"><ele>290.0</ele><time>2026-04-25T07:51:27.288Z</time></trkpt><trkpt lat="43.364356" lon="11.3027431"><ele>290.0</ele><time>2026-04-25T07:51:28.29Z</time></trkpt><trkpt lat="43.3645581" lon="11.3025819"><ele>289.0</ele><time>2026-04-25T07:51:29.298Z</time></trkpt><trkpt lat="43.3647594" lon="11.3024135"><ele>288.0</ele><time>2026-04-25T07:51:30.283Z</time></trkpt><trkpt lat="43.3649602" lon="11.3022366"><ele>285.5</ele><time>2026-04-25T07:51:31.296Z</time></trkpt><trkpt lat="43.3651592" lon="11.3020464"><ele>283.0</ele><time>2026-04-25T07:51:32.294Z</time></trkpt><trkpt lat="43.3653474" lon="11.3018395"><ele>285.5</ele><time>2026-04-25T07:51:33.289Z</time></trkpt><trkpt lat="43.3655293" lon="11.3016266"><ele>288.0</ele><time>2026-04-25T07:51:34.304Z</time></trkpt><trkpt lat="43.3657024" lon="11.3013904"><ele>288.0</ele><time>2026-04-25T07:51:35.287Z</time></trkpt><trkpt lat="43.3658632" lon="11.3011468"><ele>288.0</ele><time>2026-04-25T07:51:36.288Z</time></trkpt><trkpt lat="43.3660178" lon="11.3008862"><ele>288.0</ele><time>2026-04-25T07:51:37.295Z</time></trkpt><trkpt lat="43.3661702" lon="11.3006219"><ele>288.0</ele><time>2026-04-25T07:51:38.289Z</time></trkpt><trkpt lat="43.3663194" lon="11.3003539"><ele>291.5</ele><time>2026-04-25T07:51:39.291Z</time></trkpt><trkpt lat="43.3664623" lon="11.300088"><ele>295.0</ele><time>2026-04-25T07:51:40.294Z</time></trkpt><trkpt lat="43.3666004" lon="11.2998162"><ele>290.5</ele><time>2026-04-25T07:51:41.287Z</time></trkpt><trkpt lat="43.3667349" lon="11.2995421"><ele>286.0</ele><time>2026-04-25T07:51:42.296Z</time></trkpt><trkpt lat="43.3668582" lon="11.2992594"><ele>286.0</ele><time>2026-04-25T07:51:43.288Z</time></trkpt><trkpt lat="43.3669774" lon="11.2989758"><ele>286.0</ele><time>2026-04-25T07:51:44.291Z</time></trkpt><trkpt lat="43.3670905" lon="11.2986914"><ele>282.5</ele><time>2026-04-25T07:51:45.291Z</time></trkpt><trkpt lat="43.3672003" lon="11.2983927"><ele>279.0</ele><time>2026-04-25T07:51:46.297Z</time></trkpt><trkpt lat="43.3672963" lon="11.2980973"><ele>276.0</ele><time>2026-04-25T07:51:47.288Z</time></trkpt><trkpt lat="43.367377" lon="11.2978066"><ele>273.0</ele><time>2026-04-25T07:51:48.284Z</time></trkpt><trkpt lat="43.3674431" lon="11.2975131"><ele>271.0</ele><time>2026-04-25T07:51:49.291Z</time></trkpt><trkpt lat="43.3674985" lon="11.2972053"><ele>269.0</ele><time>2026-04-25T07:51:50.281Z</time></trkpt><trkpt lat="43.3675511" lon="11.2969016"><ele>269.0</ele><time>2026-04-25T07:51:51.292Z</time></trkpt><trkpt lat="43.3676061" lon="11.2965915"><ele>269.0</ele><time>2026-04-25T07:51:52.29Z</time></trkpt><trkpt lat="43.3676575" lon="11.2962823"><ele>268.0</ele><time>2026-04-25T07:51:53.305Z</time></trkpt><trkpt lat="43.3677055" lon="11.2959723"><ele>267.0</ele><time>2026-04-25T07:51:54.296Z</time></trkpt><trkpt lat="43.3677549" lon="11.2956708"><ele>267.6666666666667</ele><time>2026-04-25T07:51:55.295Z</time></trkpt><trkpt lat="43.3677971" lon="11.2953712"><ele>268.33333333333337</ele><time>2026-04-25T07:51:56.293Z</time></trkpt><trkpt lat="43.3678455" lon="11.295073"><ele>269.0</ele><time>2026-04-25T07:51:57.286Z</time></trkpt><trkpt lat="43.367893" lon="11.2947646"><ele>271.5</ele><time>2026-04-25T07:51:58.301Z</time></trkpt><trkpt lat="43.3679381" lon="11.2944482"><ele>274.0</ele><time>2026-04-25T07:51:59.293Z</time></trkpt><trkpt lat="43.3679791" lon="11.2941203"><ele>276.5</ele><time>2026-04-25T07:52:00.293Z</time></trkpt><trkpt lat="43.3680321" lon="11.2937966"><ele>279.0</ele><time>2026-04-25T07:52:01.289Z</time></trkpt><trkpt lat="43.3680892" lon="11.2934752"><ele>279.0</ele><time>2026-04-25T07:52:02.29Z</time></trkpt><trkpt lat="43.3681499" lon="11.2931536"><ele>279.0</ele><time>2026-04-25T07:52:03.283Z</time></trkpt><trkpt lat="43.3682173" lon="11.2928319"><ele>276.5</ele><time>2026-04-25T07:52:04.291Z</time></trkpt><trkpt lat="43.3682859" lon="11.2925107"><ele>274.0</ele><time>2026-04-25T07:52:05.293Z</time></trkpt><trkpt lat="43.3683622" lon="11.2921892"><ele>269.0</ele><time>2026-04-25T07:52:06.307Z</time></trkpt><trkpt lat="43.3684445" lon="11.2918626"><ele>264.0</ele><time>2026-04-25T07:52:07.296Z</time></trkpt><trkpt lat="43.3685385" lon="11.2915548"><ele>260.5</ele><time>2026-04-25T07:52:08.294Z</time></trkpt><trkpt lat="43.3686503" lon="11.2912455"><ele>257.0</ele><time>2026-04-25T07:52:09.287Z</time></trkpt><trkpt lat="43.3687673" lon="11.2909391"><ele>260.5</ele><time>2026-04-25T07:52:10.291Z</time></trkpt><trkpt lat="43.3688903" lon="11.2906432"><ele>264.0</ele><time>2026-04-25T07:52:11.293Z</time></trkpt><trkpt lat="43.3690264" lon="11.2903578"><ele>264.0</ele><time>2026-04-25T07:52:12.29Z</time></trkpt><trkpt lat="43.3691735" lon="11.290075"><ele>264.0</ele><time>2026-04-25T07:52:13.31Z</time></trkpt><trkpt lat="43.3693264" lon="11.2898031"><ele>262.0</ele><time>2026-04-25T07:52:14.296Z</time></trkpt><trkpt lat="43.3694853" lon="11.2895441"><ele>260.0</ele><time>2026-04-25T07:52:15.293Z</time></trkpt><trkpt lat="43.3696507" lon="11.2892942"><ele>259.5</ele><time>2026-04-25T07:52:16.286Z</time></trkpt><trkpt lat="43.3698237" lon="11.2890563"><ele>259.0</ele><time>2026-04-25T07:52:17.29Z</time></trkpt><trkpt lat="43.370003" lon="11.2888267"><ele>259.0</ele><time>2026-04-25T07:52:18.282Z</time></trkpt><trkpt lat="43.370188" lon="11.2885993"><ele>259.0</ele><time>2026-04-25T07:52:19.29Z</time></trkpt><trkpt lat="43.370382" lon="11.288384"><ele>257.5</ele><time>2026-04-25T07:52:20.286Z</time></trkpt><trkpt lat="43.3705817" lon="11.2881799"><ele>256.0</ele><time>2026-04-25T07:52:21.286Z</time></trkpt><trkpt lat="43.3707982" lon="11.2879911"><ele>256.0</ele><time>2026-04-25T07:52:22.287Z</time></trkpt><trkpt lat="43.3710195" lon="11.2878144"><ele>256.0</ele><time>2026-04-25T07:52:23.292Z</time></trkpt><trkpt lat="43.3712402" lon="11.2876444"><ele>260.5</ele><time>2026-04-25T07:52:24.284Z</time></trkpt><trkpt lat="43.3714708" lon="11.287486"><ele>265.0</ele><time>2026-04-25T07:52:25.31Z</time></trkpt><trkpt lat="43.3717082" lon="11.2873489"><ele>258.0</ele><time>2026-04-25T07:52:26.295Z</time></trkpt><trkpt lat="43.3719545" lon="11.2872343"><ele>251.0</ele><time>2026-04-25T07:52:27.287Z</time></trkpt><trkpt lat="43.372206" lon="11.2871376"><ele>251.0</ele><time>2026-04-25T07:52:28.29Z</time></trkpt><trkpt lat="43.3724508" lon="11.2870525"><ele>251.0</ele><time>2026-04-25T07:52:29.288Z</time></trkpt><trkpt lat="43.3727016" lon="11.2869789"><ele>251.0</ele><time>2026-04-25T07:52:30.285Z</time></trkpt><trkpt lat="43.3729505" lon="11.2869043"><ele>251.0</ele><time>2026-04-25T07:52:31.294Z</time></trkpt><trkpt lat="43.3731997" lon="11.2868273"><ele>252.5</ele><time>2026-04-25T07:52:32.306Z</time></trkpt><trkpt lat="43.3734534" lon="11.2867553"><ele>254.0</ele><time>2026-04-25T07:52:33.297Z</time></trkpt><trkpt lat="43.3737073" lon="11.2866778"><ele>255.0</ele><time>2026-04-25T07:52:34.291Z</time></trkpt><trkpt lat="43.37396" lon="11.286594"><ele>256.0</ele><time>2026-04-25T07:52:35.287Z</time></trkpt><trkpt lat="43.3742141" lon="11.2865149"><ele>256.0</ele><time>2026-04-25T07:52:36.295Z</time></trkpt><trkpt lat="43.3744659" lon="11.2864313"><ele>256.0</ele><time>2026-04-25T07:52:37.29Z</time></trkpt><trkpt lat="43.3747209" lon="11.2863525"><ele>253.0</ele><time>2026-04-25T07:52:38.286Z</time></trkpt><trkpt lat="43.3749764" lon="11.2862764"><ele>250.0</ele><time>2026-04-25T07:52:39.291Z</time></trkpt><trkpt lat="43.3752276" lon="11.2861972"><ele>250.0</ele><time>2026-04-25T07:52:40.296Z</time></trkpt><trkpt lat="43.3754785" lon="11.2861263"><ele>250.0</ele><time>2026-04-25T07:52:41.291Z</time></trkpt><trkpt lat="43.3757271" lon="11.2860624"><ele>250.5</ele><time>2026-04-25T07:52:42.287Z</time></trkpt><trkpt lat="43.3759783" lon="11.2859936"><ele>251.0</ele><time>2026-04-25T07:52:43.305Z</time></trkpt><trkpt lat="43.3762275" lon="11.2859225"><ele>252.0</ele><time>2026-04-25T07:52:44.282Z</time></trkpt><trkpt lat="43.3764759" lon="11.2858501"><ele>253.0</ele><time>2026-04-25T07:52:45.286Z</time></trkpt><trkpt lat="43.3767226" lon="11.285778"><ele>253.0</ele><time>2026-04-25T07:52:46.284Z</time></trkpt><trkpt lat="43.3769644" lon="11.2857041"><ele>253.0</ele><time>2026-04-25T07:52:47.29Z</time></trkpt><trkpt lat="43.3772113" lon="11.2856263"><ele>244.5</ele><time>2026-04-25T07:52:48.286Z</time></trkpt><trkpt lat="43.377449" lon="11.285537"><ele>236.0</ele><time>2026-04-25T07:52:49.295Z</time></trkpt><trkpt lat="43.3776816" lon="11.2854357"><ele>236.0</ele><time>2026-04-25T07:52:50.304Z</time></trkpt><trkpt lat="43.3779175" lon="11.2853078"><ele>236.0</ele><time>2026-04-25T07:52:51.289Z</time></trkpt><trkpt lat="43.3781372" lon="11.2851611"><ele>238.5</ele><time>2026-04-25T07:52:52.286Z</time></trkpt><trkpt lat="43.378355" lon="11.2850094"><ele>241.0</ele><time>2026-04-25T07:52:53.302Z</time></trkpt><trkpt lat="43.3785702" lon="11.2848334"><ele>239.0</ele><time>2026-04-25T07:52:54.284Z</time></trkpt><trkpt lat="43.3787795" lon="11.2846453"><ele>237.0</ele><time>2026-04-25T07:52:55.305Z</time></trkpt><trkpt lat="43.3789768" lon="11.2844412"><ele>241.5</ele><time>2026-04-25T07:52:56.296Z</time></trkpt><trkpt lat="43.3791678" lon="11.2842219"><ele>246.0</ele><time>2026-04-25T07:52:57.294Z</time></trkpt><trkpt lat="43.3793459" lon="11.2839892"><ele>242.5</ele><time>2026-04-25T07:52:58.294Z</time></trkpt><trkpt lat="43.3795134" lon="11.2837441"><ele>239.0</ele><time>2026-04-25T07:52:59.279Z</time></trkpt><trkpt lat="43.3796794" lon="11.2834917"><ele>240.5</ele><time>2026-04-25T07:53:00.321Z</time></trkpt><trkpt lat="43.3798311" lon="11.2832301"><ele>242.0</ele><time>2026-04-25T07:53:01.319Z</time></trkpt><trkpt lat="43.3799797" lon="11.282961"><ele>242.0</ele><time>2026-04-25T07:53:02.335Z</time></trkpt><trkpt lat="43.3801185" lon="11.282679"><ele>242.0</ele><time>2026-04-25T07:53:03.329Z</time></trkpt><trkpt lat="43.3802549" lon="11.2823808"><ele>243.5</ele><time>2026-04-25T07:53:04.328Z</time></trkpt><trkpt lat="43.3803899" lon="11.2820781"><ele>245.0</ele><time>2026-04-25T07:53:05.328Z</time></trkpt><trkpt lat="43.3805256" lon="11.2817921"><ele>245.0</ele><time>2026-04-25T07:53:06.329Z</time></trkpt><trkpt lat="43.3806639" lon="11.2815058"><ele>245.0</ele><time>2026-04-25T07:53:07.323Z</time></trkpt><trkpt lat="43.3808028" lon="11.2812171"><ele>241.0</ele><time>2026-04-25T07:53:08.332Z</time></trkpt><trkpt lat="43.3809366" lon="11.2809319"><ele>237.0</ele><time>2026-04-25T07:53:09.306Z</time></trkpt><trkpt lat="43.3810737" lon="11.2806519"><ele>235.0</ele><time>2026-04-25T07:53:10.309Z</time></trkpt><trkpt lat="43.3812089" lon="11.2803779"><ele>233.0</ele><time>2026-04-25T07:53:11.33Z</time></trkpt><trkpt lat="43.3813436" lon="11.2801006"><ele>238.5</ele><time>2026-04-25T07:53:12.33Z</time></trkpt><trkpt lat="43.3814786" lon="11.2798265"><ele>244.0</ele><time>2026-04-25T07:53:13.326Z</time></trkpt><trkpt lat="43.3816153" lon="11.2795563"><ele>244.0</ele><time>2026-04-25T07:53:14.315Z</time></trkpt><trkpt lat="43.3817522" lon="11.2792797"><ele>244.0</ele><time>2026-04-25T07:53:15.292Z</time></trkpt><trkpt lat="43.3818888" lon="11.2790067"><ele>239.0</ele><time>2026-04-25T07:53:16.305Z</time></trkpt><trkpt lat="43.3820223" lon="11.2787255"><ele>234.0</ele><time>2026-04-25T07:53:17.327Z</time></trkpt><trkpt lat="43.3821519" lon="11.2784472"><ele>235.5</ele><time>2026-04-25T07:53:18.333Z</time></trkpt><trkpt lat="43.3822849" lon="11.2781749"><ele>237.0</ele><time>2026-04-25T07:53:19.316Z</time></trkpt><trkpt lat="43.3824199" lon="11.2778984"><ele>237.0</ele><time>2026-04-25T07:53:20.315Z</time></trkpt><trkpt lat="43.3825593" lon="11.277623"><ele>237.0</ele><time>2026-04-25T07:53:21.316Z</time></trkpt><trkpt lat="43.3826911" lon="11.277341"><ele>234.5</ele><time>2026-04-25T07:53:22.327Z</time></trkpt><trkpt lat="43.3828242" lon="11.2770606"><ele>232.0</ele><time>2026-04-25T07:53:23.325Z</time></trkpt><trkpt lat="43.3829617" lon="11.2767734"><ele>232.5</ele><time>2026-04-25T07:53:24.302Z</time></trkpt><trkpt lat="43.3831019" lon="11.2764918"><ele>233.0</ele><time>2026-04-25T07:53:25.321Z</time></trkpt><trkpt lat="43.3832562" lon="11.2762159"><ele>233.0</ele><time>2026-04-25T07:53:26.293Z</time></trkpt><trkpt lat="43.3834151" lon="11.2759426"><ele>233.0</ele><time>2026-04-25T07:53:27.329Z</time></trkpt><trkpt lat="43.3835836" lon="11.275684"><ele>233.5</ele><time>2026-04-25T07:53:28.33Z</time></trkpt><trkpt lat="43.383764" lon="11.2754252"><ele>234.0</ele><time>2026-04-25T07:53:29.322Z</time></trkpt><trkpt lat="43.3839509" lon="11.275171"><ele>234.0</ele><time>2026-04-25T07:53:30.328Z</time></trkpt><trkpt lat="43.3841462" lon="11.2749287"><ele>234.0</ele><time>2026-04-25T07:53:31.315Z</time></trkpt><trkpt lat="43.3843493" lon="11.2747037"><ele>231.5</ele><time>2026-04-25T07:53:32.324Z</time></trkpt><trkpt lat="43.384552" lon="11.2744944"><ele>229.0</ele><time>2026-04-25T07:53:33.33Z</time></trkpt><trkpt lat="43.3847661" lon="11.2742961"><ele>229.0</ele><time>2026-04-25T07:53:34.321Z</time></trkpt><trkpt lat="43.3849828" lon="11.274116"><ele>229.0</ele><time>2026-04-25T07:53:35.324Z</time></trkpt><trkpt lat="43.3851988" lon="11.2739411"><ele>226.5</ele><time>2026-04-25T07:53:36.336Z</time></trkpt><trkpt lat="43.3854222" lon="11.2737785"><ele>224.0</ele><time>2026-04-25T07:53:37.289Z</time></trkpt><trkpt lat="43.3856402" lon="11.2736194"><ele>223.5</ele><time>2026-04-25T07:53:38.319Z</time></trkpt><trkpt lat="43.3858712" lon="11.2734753"><ele>223.0</ele><time>2026-04-25T07:53:39.332Z</time></trkpt><trkpt lat="43.386097" lon="11.2733247"><ele>223.0</ele><time>2026-04-25T07:53:40.324Z</time></trkpt><trkpt lat="43.3863154" lon="11.2731632"><ele>223.0</ele><time>2026-04-25T07:53:41.324Z</time></trkpt><trkpt lat="43.3865316" lon="11.2729927"><ele>223.5</ele><time>2026-04-25T07:53:42.3Z</time></trkpt><trkpt lat="43.3867416" lon="11.2728148"><ele>224.0</ele><time>2026-04-25T07:53:43.294Z</time></trkpt><trkpt lat="43.3869438" lon="11.2726247"><ele>224.0</ele><time>2026-04-25T07:53:44.319Z</time></trkpt><trkpt lat="43.3871418" lon="11.2724244"><ele>224.0</ele><time>2026-04-25T07:53:45.324Z</time></trkpt><trkpt lat="43.3873347" lon="11.2722099"><ele>223.5</ele><time>2026-04-25T07:53:46.329Z</time></trkpt><trkpt lat="43.3875196" lon="11.2719891"><ele>223.0</ele><time>2026-04-25T07:53:47.325Z</time></trkpt><trkpt lat="43.3876924" lon="11.2717509"><ele>223.0</ele><time>2026-04-25T07:53:48.318Z</time></trkpt><trkpt lat="43.38786" lon="11.2714985"><ele>223.0</ele><time>2026-04-25T07:53:49.306Z</time></trkpt><trkpt lat="43.3880182" lon="11.2712425"><ele>225.5</ele><time>2026-04-25T07:53:50.315Z</time></trkpt><trkpt lat="43.388171" lon="11.2709735"><ele>228.0</ele><time>2026-04-25T07:53:51.328Z</time></trkpt><trkpt lat="43.3883142" lon="11.2707035"><ele>225.0</ele><time>2026-04-25T07:53:52.321Z</time></trkpt><trkpt lat="43.3884476" lon="11.2704241"><ele>222.0</ele><time>2026-04-25T07:53:53.323Z</time></trkpt><trkpt lat="43.3885698" lon="11.2701401"><ele>222.0</ele><time>2026-04-25T07:53:54.285Z</time></trkpt><trkpt lat="43.3886877" lon="11.2698562"><ele>222.0</ele><time>2026-04-25T07:53:55.31Z</time></trkpt><trkpt lat="43.3888018" lon="11.2695639"><ele>221.5</ele><time>2026-04-25T07:53:56.295Z</time></trkpt><trkpt lat="43.3889101" lon="11.2692676"><ele>221.0</ele><time>2026-04-25T07:53:57.299Z</time></trkpt><trkpt lat="43.3890118" lon="11.2689693"><ele>221.0</ele><time>2026-04-25T07:53:58.318Z</time></trkpt><trkpt lat="43.3891052" lon="11.2686552"><ele>221.0</ele><time>2026-04-25T07:53:59.315Z</time></trkpt><trkpt lat="43.3891824" lon="11.2683351"><ele>221.0</ele><time>2026-04-25T07:54:00.31Z</time></trkpt><trkpt lat="43.3892485" lon="11.2680134"><ele>221.0</ele><time>2026-04-25T07:54:01.321Z</time></trkpt><trkpt lat="43.3892994" lon="11.2676818"><ele>221.0</ele><time>2026-04-25T07:54:02.324Z</time></trkpt><trkpt lat="43.3893474" lon="11.267354"><ele>221.0</ele><time>2026-04-25T07:54:03.322Z</time></trkpt><trkpt lat="43.3893868" lon="11.2670238"><ele>222.0</ele><time>2026-04-25T07:54:04.308Z</time></trkpt><trkpt lat="43.389417" lon="11.266686"><ele>223.0</ele><time>2026-04-25T07:54:05.329Z</time></trkpt><trkpt lat="43.3894411" lon="11.2663506"><ele>223.5</ele><time>2026-04-25T07:54:06.325Z</time></trkpt><trkpt lat="43.3894608" lon="11.2660144"><ele>224.0</ele><time>2026-04-25T07:54:07.315Z</time></trkpt><trkpt lat="43.3894766" lon="11.2656749"><ele>224.5</ele><time>2026-04-25T07:54:08.326Z</time></trkpt><trkpt lat="43.3894971" lon="11.2653356"><ele>225.0</ele><time>2026-04-25T07:54:09.299Z</time></trkpt><trkpt lat="43.3895211" lon="11.2649974"><ele>226.0</ele><time>2026-04-25T07:54:10.323Z</time></trkpt><trkpt lat="43.3895469" lon="11.2646672"><ele>227.0</ele><time>2026-04-25T07:54:11.313Z</time></trkpt><trkpt lat="43.3895787" lon="11.2643336"><ele>227.0</ele><time>2026-04-25T07:54:12.319Z</time></trkpt><trkpt lat="43.3896055" lon="11.2640001"><ele>227.0</ele><time>2026-04-25T07:54:13.309Z</time></trkpt><trkpt lat="43.3896347" lon="11.2636694"><ele>227.0</ele><time>2026-04-25T07:54:14.315Z</time></trkpt><trkpt lat="43.3896584" lon="11.2633382"><ele>227.0</ele><time>2026-04-25T07:54:15.326Z</time></trkpt><trkpt lat="43.3896819" lon="11.2630121"><ele>231.0</ele><time>2026-04-25T07:54:16.322Z</time></trkpt><trkpt lat="43.3897053" lon="11.2626878"><ele>235.0</ele><time>2026-04-25T07:54:17.323Z</time></trkpt><trkpt lat="43.3897279" lon="11.2623582"><ele>234.0</ele><time>2026-04-25T07:54:18.313Z</time></trkpt><trkpt lat="43.3897524" lon="11.2620297"><ele>233.0</ele><time>2026-04-25T07:54:19.333Z</time></trkpt><trkpt lat="43.3897758" lon="11.2617016"><ele>235.5</ele><time>2026-04-25T07:54:20.319Z</time></trkpt><trkpt lat="43.3897988" lon="11.2613756"><ele>238.0</ele><time>2026-04-25T07:54:21.321Z</time></trkpt><trkpt lat="43.3898179" lon="11.2610438"><ele>238.0</ele><time>2026-04-25T07:54:22.312Z</time></trkpt><trkpt lat="43.3898393" lon="11.2607112"><ele>238.0</ele><time>2026-04-25T07:54:23.332Z</time></trkpt><trkpt lat="43.3898605" lon="11.260383"><ele>238.0</ele><time>2026-04-25T07:54:24.318Z</time></trkpt><trkpt lat="43.3898807" lon="11.2600577"><ele>238.0</ele><time>2026-04-25T07:54:25.319Z</time></trkpt><trkpt lat="43.3899085" lon="11.2597278"><ele>237.5</ele><time>2026-04-25T07:54:26.336Z</time></trkpt><trkpt lat="43.3899343" lon="11.2594031"><ele>237.0</ele><time>2026-04-25T07:54:27.292Z</time></trkpt><trkpt lat="43.3899582" lon="11.2590771"><ele>235.0</ele><time>2026-04-25T07:54:28.317Z</time></trkpt><trkpt lat="43.3899807" lon="11.25875"><ele>233.0</ele><time>2026-04-25T07:54:29.314Z</time></trkpt><trkpt lat="43.3900079" lon="11.2584252"><ele>231.0</ele><time>2026-04-25T07:54:30.317Z</time></trkpt><trkpt lat="43.3900301" lon="11.2580994"><ele>229.0</ele><time>2026-04-25T07:54:31.297Z</time></trkpt><trkpt lat="43.3900471" lon="11.2577792"><ele>229.0</ele><time>2026-04-25T07:54:32.321Z</time></trkpt><trkpt lat="43.390065" lon="11.2574529"><ele>229.0</ele><time>2026-04-25T07:54:33.318Z</time></trkpt><trkpt lat="43.3900851" lon="11.2571202"><ele>226.0</ele><time>2026-04-25T07:54:34.316Z</time></trkpt><trkpt lat="43.3901036" lon="11.2567897"><ele>223.0</ele><time>2026-04-25T07:54:35.319Z</time></trkpt><trkpt lat="43.390128" lon="11.2564625"><ele>222.5</ele><time>2026-04-25T07:54:36.331Z</time></trkpt><trkpt lat="43.3901515" lon="11.2561338"><ele>222.0</ele><time>2026-04-25T07:54:37.31Z</time></trkpt><trkpt lat="43.3901778" lon="11.255803"><ele>221.5</ele><time>2026-04-25T07:54:38.328Z</time></trkpt><trkpt lat="43.3902045" lon="11.2554806"><ele>221.0</ele><time>2026-04-25T07:54:39.302Z</time></trkpt><trkpt lat="43.3902352" lon="11.2551561"><ele>221.0</ele><time>2026-04-25T07:54:40.302Z</time></trkpt><trkpt lat="43.390263" lon="11.254827"><ele>221.0</ele><time>2026-04-25T07:54:41.321Z</time></trkpt><trkpt lat="43.390284" lon="11.254495"><ele>221.0</ele><time>2026-04-25T07:54:42.318Z</time></trkpt><trkpt lat="43.3903066" lon="11.2541664"><ele>221.0</ele><time>2026-04-25T07:54:43.311Z</time></trkpt><trkpt lat="43.3903308" lon="11.2538355"><ele>222.5</ele><time>2026-04-25T07:54:44.327Z</time></trkpt><trkpt lat="43.3903572" lon="11.2534984"><ele>224.0</ele><time>2026-04-25T07:54:45.328Z</time></trkpt><trkpt lat="43.3903854" lon="11.25317"><ele>222.5</ele><time>2026-04-25T07:54:46.329Z</time></trkpt><trkpt lat="43.390411" lon="11.2528469"><ele>221.0</ele><time>2026-04-25T07:54:47.324Z</time></trkpt><trkpt lat="43.390442" lon="11.2525189"><ele>223.0</ele><time>2026-04-25T07:54:48.331Z</time></trkpt><trkpt lat="43.3904734" lon="11.2521904"><ele>225.0</ele><time>2026-04-25T07:54:49.327Z</time></trkpt><trkpt lat="43.3904986" lon="11.2518722"><ele>228.0</ele><time>2026-04-25T07:54:50.326Z</time></trkpt><trkpt lat="43.3905283" lon="11.2515496"><ele>231.0</ele><time>2026-04-25T07:54:51.324Z</time></trkpt><trkpt lat="43.3905547" lon="11.2512307"><ele>232.0</ele><time>2026-04-25T07:54:52.309Z</time></trkpt><trkpt lat="43.3905767" lon="11.2509068"><ele>233.0</ele><time>2026-04-25T07:54:53.327Z</time></trkpt><trkpt lat="43.390597" lon="11.2505846"><ele>230.5</ele><time>2026-04-25T07:54:54.311Z</time></trkpt><trkpt lat="43.390618" lon="11.250261"><ele>228.0</ele><time>2026-04-25T07:54:55.316Z</time></trkpt><trkpt lat="43.3906397" lon="11.2499316"><ele>226.0</ele><time>2026-04-25T07:54:56.333Z</time></trkpt><trkpt lat="43.3906676" lon="11.249606"><ele>224.0</ele><time>2026-04-25T07:54:57.308Z</time></trkpt><trkpt lat="43.3906974" lon="11.2492782"><ele>222.5</ele><time>2026-04-25T07:54:58.325Z</time></trkpt><trkpt lat="43.3907396" lon="11.2489513"><ele>221.0</ele><time>2026-04-25T07:54:59.317Z</time></trkpt><trkpt lat="43.3907981" lon="11.2486264"><ele>221.0</ele><time>2026-04-25T07:55:00.332Z</time></trkpt><trkpt lat="43.3908683" lon="11.2483083"><ele>221.0</ele><time>2026-04-25T07:55:01.315Z</time></trkpt><trkpt lat="43.3909574" lon="11.2479933"><ele>219.0</ele><time>2026-04-25T07:55:02.326Z</time></trkpt><trkpt lat="43.3910526" lon="11.2476882"><ele>217.0</ele><time>2026-04-25T07:55:03.318Z</time></trkpt><trkpt lat="43.3911586" lon="11.2473843"><ele>215.5</ele><time>2026-04-25T07:55:04.315Z</time></trkpt><trkpt lat="43.3912768" lon="11.2470891"><ele>214.0</ele><time>2026-04-25T07:55:05.314Z</time></trkpt><trkpt lat="43.3913998" lon="11.2468039"><ele>216.0</ele><time>2026-04-25T07:55:06.328Z</time></trkpt><trkpt lat="43.3915263" lon="11.2465146"><ele>218.0</ele><time>2026-04-25T07:55:07.317Z</time></trkpt><trkpt lat="43.3916525" lon="11.2462286"><ele>218.0</ele><time>2026-04-25T07:55:08.338Z</time></trkpt><trkpt lat="43.3917713" lon="11.2459366"><ele>218.0</ele><time>2026-04-25T07:55:09.316Z</time></trkpt><trkpt lat="43.3918779" lon="11.245645"><ele>214.5</ele><time>2026-04-25T07:55:10.321Z</time></trkpt><trkpt lat="43.3919799" lon="11.2453518"><ele>211.0</ele><time>2026-04-25T07:55:11.324Z</time></trkpt><trkpt lat="43.3920701" lon="11.245056"><ele>211.5</ele><time>2026-04-25T07:55:12.32Z</time></trkpt><trkpt lat="43.3921442" lon="11.2447461"><ele>212.0</ele><time>2026-04-25T07:55:13.323Z</time></trkpt><trkpt lat="43.3922037" lon="11.2444312"><ele>212.0</ele><time>2026-04-25T07:55:14.309Z</time></trkpt><trkpt lat="43.3922531" lon="11.2441139"><ele>212.0</ele><time>2026-04-25T07:55:15.323Z</time></trkpt><trkpt lat="43.3922889" lon="11.2437945"><ele>211.0</ele><time>2026-04-25T07:55:16.329Z</time></trkpt><trkpt lat="43.3923184" lon="11.2434804"><ele>210.0</ele><time>2026-04-25T07:55:17.316Z</time></trkpt><trkpt lat="43.3923274" lon="11.2431569"><ele>211.0</ele><time>2026-04-25T07:55:18.305Z</time></trkpt><trkpt lat="43.3923223" lon="11.2428397"><ele>212.0</ele><time>2026-04-25T07:55:19.326Z</time></trkpt><trkpt lat="43.3923101" lon="11.2425144"><ele>211.0</ele><time>2026-04-25T07:55:20.328Z</time></trkpt><trkpt lat="43.3922902" lon="11.2421876"><ele>210.0</ele><time>2026-04-25T07:55:21.318Z</time></trkpt><trkpt lat="43.3922595" lon="11.2418622"><ele>210.0</ele><time>2026-04-25T07:55:22.327Z</time></trkpt><trkpt lat="43.3922177" lon="11.2415277"><ele>210.0</ele><time>2026-04-25T07:55:23.337Z</time></trkpt><trkpt lat="43.3921788" lon="11.2411984"><ele>219.0</ele><time>2026-04-25T07:55:24.325Z</time></trkpt><trkpt lat="43.3921366" lon="11.2408637"><ele>228.0</ele><time>2026-04-25T07:55:25.329Z</time></trkpt><trkpt lat="43.3920915" lon="11.2405279"><ele>228.0</ele><time>2026-04-25T07:55:26.329Z</time></trkpt><trkpt lat="43.3920508" lon="11.2401884"><ele>228.0</ele><time>2026-04-25T07:55:27.327Z</time></trkpt><trkpt lat="43.3920155" lon="11.2398529"><ele>227.5</ele><time>2026-04-25T07:55:28.328Z</time></trkpt><trkpt lat="43.3919965" lon="11.2395091"><ele>227.0</ele><time>2026-04-25T07:55:29.316Z</time></trkpt><trkpt lat="43.3919896" lon="11.2391659"><ele>227.5</ele><time>2026-04-25T07:55:30.323Z</time></trkpt><trkpt lat="43.3919965" lon="11.2388312"><ele>228.0</ele><time>2026-04-25T07:55:31.316Z</time></trkpt><trkpt lat="43.3920159" lon="11.238494"><ele>228.0</ele><time>2026-04-25T07:55:32.322Z</time></trkpt><trkpt lat="43.3920417" lon="11.2381624"><ele>228.0</ele><time>2026-04-25T07:55:33.313Z</time></trkpt><trkpt lat="43.3920839" lon="11.2378292"><ele>226.0</ele><time>2026-04-25T07:55:34.348Z</time></trkpt><trkpt lat="43.3921295" lon="11.2374955"><ele>224.0</ele><time>2026-04-25T07:55:35.315Z</time></trkpt><trkpt lat="43.3921857" lon="11.2371681"><ele>217.5</ele><time>2026-04-25T07:55:36.342Z</time></trkpt><trkpt lat="43.3922613" lon="11.236846"><ele>211.0</ele><time>2026-04-25T07:55:37.299Z</time></trkpt><trkpt lat="43.3923442" lon="11.2365226"><ele>210.5</ele><time>2026-04-25T07:55:38.319Z</time></trkpt><trkpt lat="43.3924313" lon="11.236204"><ele>210.0</ele><time>2026-04-25T07:55:39.308Z</time></trkpt><trkpt lat="43.3925263" lon="11.2358908"><ele>212.0</ele><time>2026-04-25T07:55:40.338Z</time></trkpt><trkpt lat="43.3926274" lon="11.2355865"><ele>214.0</ele><time>2026-04-25T07:55:41.324Z</time></trkpt><trkpt lat="43.3927286" lon="11.2352835"><ele>214.0</ele><time>2026-04-25T07:55:42.33Z</time></trkpt><trkpt lat="43.3928318" lon="11.2349787"><ele>214.0</ele><time>2026-04-25T07:55:43.326Z</time></trkpt><trkpt lat="43.3929348" lon="11.2346733"><ele>210.0</ele><time>2026-04-25T07:55:44.321Z</time></trkpt><trkpt lat="43.3930395" lon="11.2343705"><ele>206.0</ele><time>2026-04-25T07:55:45.318Z</time></trkpt><trkpt lat="43.3931387" lon="11.2340694"><ele>209.5</ele><time>2026-04-25T07:55:46.327Z</time></trkpt><trkpt lat="43.3932419" lon="11.2337592"><ele>213.0</ele><time>2026-04-25T07:55:47.327Z</time></trkpt><trkpt lat="43.3933514" lon="11.2334575"><ele>213.0</ele><time>2026-04-25T07:55:48.296Z</time></trkpt><trkpt lat="43.3934542" lon="11.2331548"><ele>213.0</ele><time>2026-04-25T07:55:49.318Z</time></trkpt><trkpt lat="43.3935546" lon="11.232849"><ele>215.0</ele><time>2026-04-25T07:55:50.326Z</time></trkpt><trkpt lat="43.3936623" lon="11.2325486"><ele>217.0</ele><time>2026-04-25T07:55:51.326Z</time></trkpt><trkpt lat="43.3937633" lon="11.2322511"><ele>214.0</ele><time>2026-04-25T07:55:52.32Z</time></trkpt><trkpt lat="43.3938615" lon="11.2319552"><ele>211.0</ele><time>2026-04-25T07:55:53.34Z</time></trkpt><trkpt lat="43.3939566" lon="11.2316569"><ele>213.5</ele><time>2026-04-25T07:55:54.313Z</time></trkpt><trkpt lat="43.3940539" lon="11.2313595"><ele>216.0</ele><time>2026-04-25T07:55:55.295Z</time></trkpt><trkpt lat="43.3941494" lon="11.2310607"><ele>216.0</ele><time>2026-04-25T07:55:56.325Z</time></trkpt><trkpt lat="43.3942365" lon="11.2307611"><ele>216.0</ele><time>2026-04-25T07:55:57.319Z</time></trkpt><trkpt lat="43.3943133" lon="11.2304501"><ele>219.5</ele><time>2026-04-25T07:55:58.314Z</time></trkpt><trkpt lat="43.3943804" lon="11.230133"><ele>223.0</ele><time>2026-04-25T07:55:59.311Z</time></trkpt><trkpt lat="43.3944385" lon="11.2298099"><ele>224.5</ele><time>2026-04-25T07:56:00.333Z</time></trkpt><trkpt lat="43.3944875" lon="11.2294827"><ele>226.0</ele><time>2026-04-25T07:56:01.315Z</time></trkpt><trkpt lat="43.3945232" lon="11.2291458"><ele>222.0</ele><time>2026-04-25T07:56:02.307Z</time></trkpt><trkpt lat="43.3945445" lon="11.2288085"><ele>218.0</ele><time>2026-04-25T07:56:03.313Z</time></trkpt><trkpt lat="43.3945478" lon="11.228471"><ele>215.0</ele><time>2026-04-25T07:56:04.333Z</time></trkpt><trkpt lat="43.3945326" lon="11.228134"><ele>212.0</ele><time>2026-04-25T07:56:05.319Z</time></trkpt><trkpt lat="43.3945056" lon="11.2277928"><ele>212.0</ele><time>2026-04-25T07:56:06.331Z</time></trkpt><trkpt lat="43.3944666" lon="11.2274449"><ele>212.0</ele><time>2026-04-25T07:56:07.318Z</time></trkpt><trkpt lat="43.3944231" lon="11.2271027"><ele>211.0</ele><time>2026-04-25T07:56:08.328Z</time></trkpt><trkpt lat="43.3943731" lon="11.2267535"><ele>210.0</ele><time>2026-04-25T07:56:09.288Z</time></trkpt><trkpt lat="43.3943264" lon="11.2264111"><ele>208.5</ele><time>2026-04-25T07:56:10.322Z</time></trkpt><trkpt lat="43.3942803" lon="11.2260631"><ele>207.0</ele><time>2026-04-25T07:56:11.313Z</time></trkpt><trkpt lat="43.3942398" lon="11.2257154"><ele>207.0</ele><time>2026-04-25T07:56:12.32Z</time></trkpt><trkpt lat="43.394199" lon="11.225375"><ele>207.0</ele><time>2026-04-25T07:56:13.32Z</time></trkpt><trkpt lat="43.3941596" lon="11.2250348"><ele>207.0</ele><time>2026-04-25T07:56:14.325Z</time></trkpt><trkpt lat="43.3941224" lon="11.224694"><ele>207.0</ele><time>2026-04-25T07:56:15.324Z</time></trkpt><trkpt lat="43.3940847" lon="11.2243556"><ele>207.0</ele><time>2026-04-25T07:56:16.326Z</time></trkpt><trkpt lat="43.394045" lon="11.2240174"><ele>207.0</ele><time>2026-04-25T07:56:17.324Z</time></trkpt><trkpt lat="43.3940028" lon="11.2236705"><ele>206.0</ele><time>2026-04-25T07:56:18.328Z</time></trkpt><trkpt lat="43.3939614" lon="11.2233221"><ele>205.0</ele><time>2026-04-25T07:56:19.333Z</time></trkpt><trkpt lat="43.3939242" lon="11.2229771"><ele>204.0</ele><time>2026-04-25T07:56:20.33Z</time></trkpt><trkpt lat="43.3938894" lon="11.2226309"><ele>203.0</ele><time>2026-04-25T07:56:21.328Z</time></trkpt><trkpt lat="43.3938516" lon="11.2222863"><ele>212.5</ele><time>2026-04-25T07:56:22.327Z</time></trkpt><trkpt lat="43.3938158" lon="11.2219389"><ele>222.0</ele><time>2026-04-25T07:56:23.333Z</time></trkpt><trkpt lat="43.3937885" lon="11.2216"><ele>220.5</ele><time>2026-04-25T07:56:24.328Z</time></trkpt><trkpt lat="43.3937749" lon="11.2212478"><ele>219.0</ele><time>2026-04-25T07:56:25.328Z</time></trkpt><trkpt lat="43.3937679" lon="11.2208989"><ele>214.5</ele><time>2026-04-25T07:56:26.304Z</time></trkpt><trkpt lat="43.3937653" lon="11.2205449"><ele>210.0</ele><time>2026-04-25T07:56:27.321Z</time></trkpt><trkpt lat="43.3937748" lon="11.2202007"><ele>210.0</ele><time>2026-04-25T07:56:28.313Z</time></trkpt><trkpt lat="43.3937831" lon="11.2198562"><ele>210.0</ele><time>2026-04-25T07:56:29.314Z</time></trkpt><trkpt lat="43.3937992" lon="11.2195133"><ele>207.0</ele><time>2026-04-25T07:56:30.327Z</time></trkpt><trkpt lat="43.3938181" lon="11.2191704"><ele>204.0</ele><time>2026-04-25T07:56:31.312Z</time></trkpt><trkpt lat="43.3938495" lon="11.2188245"><ele>201.5</ele><time>2026-04-25T07:56:32.321Z</time></trkpt><trkpt lat="43.3938739" lon="11.2184819"><ele>199.0</ele><time>2026-04-25T07:56:33.306Z</time></trkpt><trkpt lat="43.3938969" lon="11.2181372"><ele>198.0</ele><time>2026-04-25T07:56:34.325Z</time></trkpt><trkpt lat="43.3939288" lon="11.2177982"><ele>197.0</ele><time>2026-04-25T07:56:35.319Z</time></trkpt><trkpt lat="43.3939562" lon="11.2174627"><ele>196.5</ele><time>2026-04-25T07:56:36.312Z</time></trkpt><trkpt lat="43.3939818" lon="11.2171273"><ele>196.0</ele><time>2026-04-25T07:56:37.323Z</time></trkpt><trkpt lat="43.3940107" lon="11.2167871"><ele>196.5</ele><time>2026-04-25T07:56:38.308Z</time></trkpt><trkpt lat="43.3940426" lon="11.2164382"><ele>197.0</ele><time>2026-04-25T07:56:39.335Z</time></trkpt><trkpt lat="43.394074" lon="11.2160895"><ele>197.0</ele><time>2026-04-25T07:56:40.321Z</time></trkpt><trkpt lat="43.3941038" lon="11.2157428"><ele>197.0</ele><time>2026-04-25T07:56:41.312Z</time></trkpt><trkpt lat="43.3941329" lon="11.2153969"><ele>197.5</ele><time>2026-04-25T07:56:42.333Z</time></trkpt><trkpt lat="43.3941654" lon="11.2150546"><ele>198.0</ele><time>2026-04-25T07:56:43.321Z</time></trkpt><trkpt lat="43.3941952" lon="11.2147106"><ele>197.0</ele><time>2026-04-25T07:56:44.321Z</time></trkpt><trkpt lat="43.3942224" lon="11.214369"><ele>196.0</ele><time>2026-04-25T07:56:45.324Z</time></trkpt><trkpt lat="43.3942476" lon="11.2140226"><ele>196.0</ele><time>2026-04-25T07:56:46.319Z</time></trkpt><trkpt lat="43.3942771" lon="11.2136789"><ele>196.0</ele><time>2026-04-25T07:56:47.333Z</time></trkpt><trkpt lat="43.3943025" lon="11.2133287"><ele>196.0</ele><time>2026-04-25T07:56:48.323Z</time></trkpt><trkpt lat="43.3943304" lon="11.2129942"><ele>196.0</ele><time>2026-04-25T07:56:49.293Z</time></trkpt><trkpt lat="43.3943572" lon="11.21265"><ele>195.0</ele><time>2026-04-25T07:56:50.335Z</time></trkpt><trkpt lat="43.3943869" lon="11.2123081"><ele>194.0</ele><time>2026-04-25T07:56:51.322Z</time></trkpt><trkpt lat="43.394421" lon="11.2119569"><ele>194.0</ele><time>2026-04-25T07:56:52.326Z</time></trkpt><trkpt lat="43.3944515" lon="11.2116067"><ele>194.0</ele><time>2026-04-25T07:56:53.322Z</time></trkpt><trkpt lat="43.3944781" lon="11.2112624"><ele>194.0</ele><time>2026-04-25T07:56:54.331Z</time></trkpt><trkpt lat="43.3945024" lon="11.2109148"><ele>194.0</ele><time>2026-04-25T07:56:55.325Z</time></trkpt><trkpt lat="43.3945328" lon="11.2105664"><ele>195.0</ele><time>2026-04-25T07:56:56.33Z</time></trkpt><trkpt lat="43.3945674" lon="11.2102202"><ele>196.0</ele><time>2026-04-25T07:56:57.327Z</time></trkpt><trkpt lat="43.3945937" lon="11.2098714"><ele>197.5</ele><time>2026-04-25T07:56:58.325Z</time></trkpt><trkpt lat="43.3946194" lon="11.2095238"><ele>199.0</ele><time>2026-04-25T07:56:59.319Z</time></trkpt><trkpt lat="43.3946501" lon="11.2091723"><ele>203.5</ele><time>2026-04-25T07:57:00.289Z</time></trkpt><trkpt lat="43.3946857" lon="11.2088236"><ele>208.0</ele><time>2026-04-25T07:57:01.322Z</time></trkpt><trkpt lat="43.3947115" lon="11.2084771"><ele>208.0</ele><time>2026-04-25T07:57:02.321Z</time></trkpt><trkpt lat="43.3947422" lon="11.2081324"><ele>208.0</ele><time>2026-04-25T07:57:03.313Z</time></trkpt><trkpt lat="43.3947771" lon="11.2077918"><ele>208.0</ele><time>2026-04-25T07:57:04.33Z</time></trkpt><trkpt lat="43.3948026" lon="11.2074547"><ele>208.0</ele><time>2026-04-25T07:57:05.322Z</time></trkpt><trkpt lat="43.394833" lon="11.2071134"><ele>209.0</ele><time>2026-04-25T07:57:06.304Z</time></trkpt><trkpt lat="43.3948562" lon="11.206775"><ele>210.0</ele><time>2026-04-25T07:57:07.32Z</time></trkpt><trkpt lat="43.3948793" lon="11.2064325"><ele>211.5</ele><time>2026-04-25T07:57:08.317Z</time></trkpt><trkpt lat="43.3949058" lon="11.2060849"><ele>213.0</ele><time>2026-04-25T07:57:09.312Z</time></trkpt><trkpt lat="43.3949334" lon="11.2057438"><ele>213.0</ele><time>2026-04-25T07:57:10.334Z</time></trkpt><trkpt lat="43.3949683" lon="11.2054028"><ele>213.0</ele><time>2026-04-25T07:57:11.315Z</time></trkpt><trkpt lat="43.3950017" lon="11.2050569"><ele>214.5</ele><time>2026-04-25T07:57:12.326Z</time></trkpt><trkpt lat="43.3950426" lon="11.2047164"><ele>216.0</ele><time>2026-04-25T07:57:13.313Z</time></trkpt><trkpt lat="43.3950997" lon="11.2043797"><ele>216.0</ele><time>2026-04-25T07:57:14.332Z</time></trkpt><trkpt lat="43.3951741" lon="11.204036"><ele>216.0</ele><time>2026-04-25T07:57:15.332Z</time></trkpt><trkpt lat="43.3952515" lon="11.2036995"><ele>216.0</ele><time>2026-04-25T07:57:16.321Z</time></trkpt><trkpt lat="43.3953474" lon="11.2033712"><ele>216.0</ele><time>2026-04-25T07:57:17.315Z</time></trkpt><trkpt lat="43.3954553" lon="11.2030473"><ele>216.0</ele><time>2026-04-25T07:57:18.309Z</time></trkpt><trkpt lat="43.3955742" lon="11.2027367"><ele>216.0</ele><time>2026-04-25T07:57:19.331Z</time></trkpt><trkpt lat="43.3957001" lon="11.2024309"><ele>215.5</ele><time>2026-04-25T07:57:20.323Z</time></trkpt><trkpt lat="43.395835" lon="11.2021266"><ele>215.0</ele><time>2026-04-25T07:57:21.326Z</time></trkpt><trkpt lat="43.3959758" lon="11.2018375"><ele>215.0</ele><time>2026-04-25T07:57:22.287Z</time></trkpt><trkpt lat="43.3961209" lon="11.2015438"><ele>215.0</ele><time>2026-04-25T07:57:23.321Z</time></trkpt><trkpt lat="43.3962642" lon="11.2012534"><ele>216.0</ele><time>2026-04-25T07:57:24.293Z</time></trkpt><trkpt lat="43.3964082" lon="11.2009552"><ele>217.0</ele><time>2026-04-25T07:57:25.326Z</time></trkpt><trkpt lat="43.3965492" lon="11.2006584"><ele>217.0</ele><time>2026-04-25T07:57:26.323Z</time></trkpt><trkpt lat="43.3966917" lon="11.2003666"><ele>217.0</ele><time>2026-04-25T07:57:27.321Z</time></trkpt><trkpt lat="43.396831" lon="11.2000817"><ele>214.0</ele><time>2026-04-25T07:57:28.287Z</time></trkpt><trkpt lat="43.3969699" lon="11.1998036"><ele>211.0</ele><time>2026-04-25T07:57:29.323Z</time></trkpt><trkpt lat="43.3971067" lon="11.1995306"><ele>212.0</ele><time>2026-04-25T07:57:30.308Z</time></trkpt><trkpt lat="43.3972382" lon="11.1992584"><ele>213.0</ele><time>2026-04-25T07:57:31.323Z</time></trkpt><trkpt lat="43.3973714" lon="11.1989929"><ele>213.0</ele><time>2026-04-25T07:57:32.332Z</time></trkpt><trkpt lat="43.3975031" lon="11.1987345"><ele>213.0</ele><time>2026-04-25T07:57:33.332Z</time></trkpt><trkpt lat="43.3976296" lon="11.1984698"><ele>213.0</ele><time>2026-04-25T07:57:34.331Z</time></trkpt><trkpt lat="43.3977573" lon="11.1982079"><ele>213.0</ele><time>2026-04-25T07:57:35.312Z</time></trkpt><trkpt lat="43.3978853" lon="11.1979397"><ele>212.5</ele><time>2026-04-25T07:57:36.317Z</time></trkpt><trkpt lat="43.3980187" lon="11.1976579"><ele>212.0</ele><time>2026-04-25T07:57:37.292Z</time></trkpt><trkpt lat="43.3981512" lon="11.1973818"><ele>210.5</ele><time>2026-04-25T07:57:38.323Z</time></trkpt><trkpt lat="43.3982854" lon="11.1971065"><ele>209.0</ele><time>2026-04-25T07:57:39.32Z</time></trkpt><trkpt lat="43.3984212" lon="11.1968302"><ele>209.0</ele><time>2026-04-25T07:57:40.334Z</time></trkpt><trkpt lat="43.3985533" lon="11.1965578"><ele>209.0</ele><time>2026-04-25T07:57:41.327Z</time></trkpt><trkpt lat="43.3986901" lon="11.1962722"><ele>209.0</ele><time>2026-04-25T07:57:42.319Z</time></trkpt><trkpt lat="43.3988208" lon="11.1959919"><ele>209.0</ele><time>2026-04-25T07:57:43.33Z</time></trkpt><trkpt lat="43.3989531" lon="11.1957127"><ele>209.5</ele><time>2026-04-25T07:57:44.33Z</time></trkpt><trkpt lat="43.3990767" lon="11.1954512"><ele>210.0</ele><time>2026-04-25T07:57:45.328Z</time></trkpt><trkpt lat="43.3991981" lon="11.1951939"><ele>210.0</ele><time>2026-04-25T07:57:46.326Z</time></trkpt><trkpt lat="43.3993166" lon="11.1949555"><ele>210.0</ele><time>2026-04-25T07:57:47.316Z</time></trkpt><trkpt lat="43.3994288" lon="11.1947196"><ele>210.0</ele><time>2026-04-25T07:57:48.326Z</time></trkpt><trkpt lat="43.3995473" lon="11.194479"><ele>210.0</ele><time>2026-04-25T07:57:49.316Z</time></trkpt><trkpt lat="43.3996726" lon="11.1942296"><ele>210.0</ele><time>2026-04-25T07:57:50.342Z</time></trkpt><trkpt lat="43.3997988" lon="11.1939796"><ele>210.0</ele><time>2026-04-25T07:57:51.321Z</time></trkpt><trkpt lat="43.399926" lon="11.1937171"><ele>210.0</ele><time>2026-04-25T07:57:52.328Z</time></trkpt><trkpt lat="43.4000546" lon="11.1934512"><ele>210.0</ele><time>2026-04-25T07:57:53.322Z</time></trkpt><trkpt lat="43.4001821" lon="11.1931831"><ele>209.5</ele><time>2026-04-25T07:57:54.328Z</time></trkpt><trkpt lat="43.4003139" lon="11.1929024"><ele>209.0</ele><time>2026-04-25T07:57:55.297Z</time></trkpt><trkpt lat="43.4004471" lon="11.192617"><ele>209.5</ele><time>2026-04-25T07:57:56.316Z</time></trkpt><trkpt lat="43.4005821" lon="11.1923214"><ele>210.0</ele><time>2026-04-25T07:57:57.32Z</time></trkpt><trkpt lat="43.4007186" lon="11.1920275"><ele>210.0</ele><time>2026-04-25T07:57:58.339Z</time></trkpt><trkpt lat="43.4008608" lon="11.1917318"><ele>210.0</ele><time>2026-04-25T07:57:59.324Z</time></trkpt><trkpt lat="43.4010001" lon="11.191437"><ele>210.0</ele><time>2026-04-25T07:58:00.316Z</time></trkpt><trkpt lat="43.4011468" lon="11.1911418"><ele>210.0</ele><time>2026-04-25T07:58:01.327Z</time></trkpt><trkpt lat="43.4012875" lon="11.190848"><ele>209.5</ele><time>2026-04-25T07:58:02.334Z</time></trkpt><trkpt lat="43.4014319" lon="11.1905567"><ele>209.0</ele><time>2026-04-25T07:58:03.318Z</time></trkpt><trkpt lat="43.4015776" lon="11.1902638"><ele>209.0</ele><time>2026-04-25T07:58:04.315Z</time></trkpt><trkpt lat="43.4017228" lon="11.1899712"><ele>209.0</ele><time>2026-04-25T07:58:05.328Z</time></trkpt><trkpt lat="43.4018705" lon="11.1896834"><ele>209.0</ele><time>2026-04-25T07:58:06.321Z</time></trkpt><trkpt lat="43.402015" lon="11.189388"><ele>209.0</ele><time>2026-04-25T07:58:07.323Z</time></trkpt><trkpt lat="43.4021551" lon="11.1890978"><ele>210.0</ele><time>2026-04-25T07:58:08.317Z</time></trkpt><trkpt lat="43.4022933" lon="11.1888104"><ele>211.0</ele><time>2026-04-25T07:58:09.328Z</time></trkpt><trkpt lat="43.402439" lon="11.1885273"><ele>211.0</ele><time>2026-04-25T07:58:10.331Z</time></trkpt><trkpt lat="43.4025777" lon="11.1882369"><ele>211.0</ele><time>2026-04-25T07:58:11.325Z</time></trkpt><trkpt lat="43.4027186" lon="11.187951"><ele>210.5</ele><time>2026-04-25T07:58:12.31Z</time></trkpt><trkpt lat="43.4028605" lon="11.1876612"><ele>210.0</ele><time>2026-04-25T07:58:13.333Z</time></trkpt><trkpt lat="43.4029968" lon="11.1873769"><ele>211.0</ele><time>2026-04-25T07:58:14.331Z</time></trkpt><trkpt lat="43.4031327" lon="11.1870921"><ele>212.0</ele><time>2026-04-25T07:58:15.328Z</time></trkpt><trkpt lat="43.403271" lon="11.1868016"><ele>212.5</ele><time>2026-04-25T07:58:16.319Z</time></trkpt><trkpt lat="43.4034123" lon="11.1865096"><ele>213.0</ele><time>2026-04-25T07:58:17.32Z</time></trkpt><trkpt lat="43.4035551" lon="11.1862202"><ele>213.0</ele><time>2026-04-25T07:58:18.319Z</time></trkpt><trkpt lat="43.4036976" lon="11.1859329"><ele>213.0</ele><time>2026-04-25T07:58:19.323Z</time></trkpt><trkpt lat="43.403838" lon="11.1856388"><ele>213.5</ele><time>2026-04-25T07:58:20.328Z</time></trkpt><trkpt lat="43.4039871" lon="11.185322"><ele>214.0</ele><time>2026-04-25T07:58:21.308Z</time></trkpt><trkpt lat="43.4041435" lon="11.1849959"><ele>215.5</ele><time>2026-04-25T07:58:22.319Z</time></trkpt><trkpt lat="43.4042959" lon="11.1846749"><ele>217.0</ele><time>2026-04-25T07:58:23.333Z</time></trkpt><trkpt lat="43.4044494" lon="11.1843614"><ele>217.0</ele><time>2026-04-25T07:58:24.32Z</time></trkpt><trkpt lat="43.4046026" lon="11.1840542"><ele>217.0</ele><time>2026-04-25T07:58:25.312Z</time></trkpt><trkpt lat="43.4047554" lon="11.1837439"><ele>218.0</ele><time>2026-04-25T07:58:26.31Z</time></trkpt><trkpt lat="43.4049081" lon="11.1834344"><ele>219.0</ele><time>2026-04-25T07:58:27.327Z</time></trkpt><trkpt lat="43.4050568" lon="11.1831235"><ele>220.5</ele><time>2026-04-25T07:58:28.309Z</time></trkpt><trkpt lat="43.4052071" lon="11.1828153"><ele>222.0</ele><time>2026-04-25T07:58:29.335Z</time></trkpt><trkpt lat="43.4053537" lon="11.182507"><ele>223.0</ele><time>2026-04-25T07:58:30.327Z</time></trkpt><trkpt lat="43.4055005" lon="11.1822063"><ele>224.0</ele><time>2026-04-25T07:58:31.317Z</time></trkpt><trkpt lat="43.4056456" lon="11.1819037"><ele>224.0</ele><time>2026-04-25T07:58:32.33Z</time></trkpt><trkpt lat="43.4057911" lon="11.1816026"><ele>224.0</ele><time>2026-04-25T07:58:33.321Z</time></trkpt><trkpt lat="43.4059367" lon="11.1813023"><ele>223.5</ele><time>2026-04-25T07:58:34.326Z</time></trkpt><trkpt lat="43.4060849" lon="11.181003"><ele>223.0</ele><time>2026-04-25T07:58:35.313Z</time></trkpt><trkpt lat="43.4062307" lon="11.1806998"><ele>222.0</ele><time>2026-04-25T07:58:36.308Z</time></trkpt><trkpt lat="43.4063735" lon="11.1803937"><ele>221.0</ele><time>2026-04-25T07:58:37.312Z</time></trkpt><trkpt lat="43.4065146" lon="11.1800889"><ele>219.5</ele><time>2026-04-25T07:58:38.321Z</time></trkpt><trkpt lat="43.4066485" lon="11.1797887"><ele>218.0</ele><time>2026-04-25T07:58:39.323Z</time></trkpt><trkpt lat="43.4067747" lon="11.1794813"><ele>218.0</ele><time>2026-04-25T07:58:40.296Z</time></trkpt><trkpt lat="43.4069045" lon="11.1791786"><ele>218.0</ele><time>2026-04-25T07:58:41.306Z</time></trkpt><trkpt lat="43.4070248" lon="11.1788735"><ele>217.0</ele><time>2026-04-25T07:58:42.328Z</time></trkpt><trkpt lat="43.4071427" lon="11.1785668"><ele>216.0</ele><time>2026-04-25T07:58:43.327Z</time></trkpt><trkpt lat="43.4072584" lon="11.1782618"><ele>219.0</ele><time>2026-04-25T07:58:44.318Z</time></trkpt><trkpt lat="43.4073674" lon="11.1779594"><ele>222.0</ele><time>2026-04-25T07:58:45.327Z</time></trkpt><trkpt lat="43.4074723" lon="11.1776519"><ele>220.5</ele><time>2026-04-25T07:58:46.327Z</time></trkpt><trkpt lat="43.4075754" lon="11.1773395"><ele>219.0</ele><time>2026-04-25T07:58:47.322Z</time></trkpt><trkpt lat="43.4076678" lon="11.1770288"><ele>219.0</ele><time>2026-04-25T07:58:48.328Z</time></trkpt><trkpt lat="43.4077604" lon="11.1767146"><ele>219.0</ele><time>2026-04-25T07:58:49.321Z</time></trkpt><trkpt lat="43.4078501" lon="11.1764024"><ele>218.0</ele><time>2026-04-25T07:58:50.299Z</time></trkpt><trkpt lat="43.407941" lon="11.1760817"><ele>217.0</ele><time>2026-04-25T07:58:51.321Z</time></trkpt><trkpt lat="43.4080357" lon="11.1757606"><ele>222.0</ele><time>2026-04-25T07:58:52.323Z</time></trkpt><trkpt lat="43.4081277" lon="11.1754399"><ele>227.0</ele><time>2026-04-25T07:58:53.326Z</time></trkpt><trkpt lat="43.4082244" lon="11.1751168"><ele>226.0</ele><time>2026-04-25T07:58:54.322Z</time></trkpt><trkpt lat="43.4083245" lon="11.1747944"><ele>225.0</ele><time>2026-04-25T07:58:55.333Z</time></trkpt><trkpt lat="43.4084172" lon="11.1744734"><ele>225.0</ele><time>2026-04-25T07:58:56.327Z</time></trkpt><trkpt lat="43.4085106" lon="11.1741489"><ele>225.0</ele><time>2026-04-25T07:58:57.328Z</time></trkpt><trkpt lat="43.408596" lon="11.1738324"><ele>224.0</ele><time>2026-04-25T07:58:58.323Z</time></trkpt><trkpt lat="43.4086896" lon="11.1735161"><ele>223.0</ele><time>2026-04-25T07:58:59.33Z</time></trkpt><trkpt lat="43.4087821" lon="11.1731874"><ele>223.0</ele><time>2026-04-25T07:59:00.321Z</time></trkpt><trkpt lat="43.4088778" lon="11.1728647"><ele>223.0</ele><time>2026-04-25T07:59:01.319Z</time></trkpt><trkpt lat="43.4089694" lon="11.1725345"><ele>223.5</ele><time>2026-04-25T07:59:02.319Z</time></trkpt><trkpt lat="43.4090616" lon="11.172205"><ele>224.0</ele><time>2026-04-25T07:59:03.338Z</time></trkpt><trkpt lat="43.4091606" lon="11.1718839"><ele>224.0</ele><time>2026-04-25T07:59:04.293Z</time></trkpt><trkpt lat="43.4092564" lon="11.1715635"><ele>224.0</ele><time>2026-04-25T07:59:05.312Z</time></trkpt><trkpt lat="43.4093546" lon="11.1712406"><ele>224.0</ele><time>2026-04-25T07:59:06.328Z</time></trkpt><trkpt lat="43.4094485" lon="11.1709127"><ele>224.0</ele><time>2026-04-25T07:59:07.324Z</time></trkpt><trkpt lat="43.4095463" lon="11.1705888"><ele>224.0</ele><time>2026-04-25T07:59:08.333Z</time></trkpt><trkpt lat="43.4096421" lon="11.1702679"><ele>224.0</ele><time>2026-04-25T07:59:09.325Z</time></trkpt><trkpt lat="43.4097383" lon="11.1699477"><ele>224.0</ele><time>2026-04-25T07:59:10.321Z</time></trkpt><trkpt lat="43.4098314" lon="11.169622"><ele>224.0</ele><time>2026-04-25T07:59:11.318Z</time></trkpt><trkpt lat="43.4099295" lon="11.1692966"><ele>224.5</ele><time>2026-04-25T07:59:12.329Z</time></trkpt><trkpt lat="43.4100277" lon="11.1689697"><ele>225.0</ele><time>2026-04-25T07:59:13.309Z</time></trkpt><trkpt lat="43.410125" lon="11.1686447"><ele>225.0</ele><time>2026-04-25T07:59:14.334Z</time></trkpt><trkpt lat="43.4102222" lon="11.1683178"><ele>225.0</ele><time>2026-04-25T07:59:15.326Z</time></trkpt><trkpt lat="43.4103156" lon="11.1679915"><ele>225.5</ele><time>2026-04-25T07:59:16.323Z</time></trkpt><trkpt lat="43.4104097" lon="11.1676647"><ele>226.0</ele><time>2026-04-25T07:59:17.322Z</time></trkpt><trkpt lat="43.4105142" lon="11.1673388"><ele>226.0</ele><time>2026-04-25T07:59:18.305Z</time></trkpt><trkpt lat="43.4106226" lon="11.16702"><ele>226.0</ele><time>2026-04-25T07:59:19.327Z</time></trkpt><trkpt lat="43.4107356" lon="11.1666986"><ele>226.5</ele><time>2026-04-25T07:59:20.327Z</time></trkpt><trkpt lat="43.4108557" lon="11.1663807"><ele>227.0</ele><time>2026-04-25T07:59:21.314Z</time></trkpt><trkpt lat="43.4109824" lon="11.1660669"><ele>227.0</ele><time>2026-04-25T07:59:22.312Z</time></trkpt><trkpt lat="43.4111175" lon="11.1657615"><ele>227.0</ele><time>2026-04-25T07:59:23.332Z</time></trkpt><trkpt lat="43.411261" lon="11.1654631"><ele>227.0</ele><time>2026-04-25T07:59:24.334Z</time></trkpt><trkpt lat="43.4114027" lon="11.1651738"><ele>227.0</ele><time>2026-04-25T07:59:25.322Z</time></trkpt><trkpt lat="43.4115543" lon="11.1648879"><ele>226.5</ele><time>2026-04-25T07:59:26.315Z</time></trkpt><trkpt lat="43.4117109" lon="11.1646027"><ele>226.0</ele><time>2026-04-25T07:59:27.309Z</time></trkpt><trkpt lat="43.4118703" lon="11.1643312"><ele>226.0</ele><time>2026-04-25T07:59:28.333Z</time></trkpt><trkpt lat="43.4120373" lon="11.1640648"><ele>226.0</ele><time>2026-04-25T07:59:29.314Z</time></trkpt><trkpt lat="43.4122074" lon="11.1638069"><ele>225.5</ele><time>2026-04-25T07:59:30.326Z</time></trkpt><trkpt lat="43.4123819" lon="11.1635508"><ele>225.0</ele><time>2026-04-25T07:59:31.324Z</time></trkpt><trkpt lat="43.4125558" lon="11.1633063"><ele>226.0</ele><time>2026-04-25T07:59:32.313Z</time></trkpt><trkpt lat="43.4127318" lon="11.163062"><ele>227.0</ele><time>2026-04-25T07:59:33.324Z</time></trkpt><trkpt lat="43.4129077" lon="11.1628175"><ele>226.5</ele><time>2026-04-25T07:59:34.325Z</time></trkpt><trkpt lat="43.4130826" lon="11.1625719"><ele>226.0</ele><time>2026-04-25T07:59:35.323Z</time></trkpt><trkpt lat="43.4132556" lon="11.1623234"><ele>227.0</ele><time>2026-04-25T07:59:36.32Z</time></trkpt><trkpt lat="43.4134301" lon="11.162077"><ele>228.0</ele><time>2026-04-25T07:59:37.299Z</time></trkpt><trkpt lat="43.4136042" lon="11.1618299"><ele>228.0</ele><time>2026-04-25T07:59:38.325Z</time></trkpt><trkpt lat="43.4137786" lon="11.1615796"><ele>228.0</ele><time>2026-04-25T07:59:39.34Z</time></trkpt><trkpt lat="43.4139549" lon="11.1613234"><ele>229.5</ele><time>2026-04-25T07:59:40.324Z</time></trkpt><trkpt lat="43.4141312" lon="11.1610669"><ele>231.0</ele><time>2026-04-25T07:59:41.322Z</time></trkpt><trkpt lat="43.4143086" lon="11.1608095"><ele>230.0</ele><time>2026-04-25T07:59:42.317Z</time></trkpt><trkpt lat="43.4144888" lon="11.1605583"><ele>229.0</ele><time>2026-04-25T07:59:43.324Z</time></trkpt><trkpt lat="43.4146659" lon="11.1603041"><ele>229.0</ele><time>2026-04-25T07:59:44.324Z</time></trkpt><trkpt lat="43.4148476" lon="11.1600465"><ele>229.0</ele><time>2026-04-25T07:59:45.332Z</time></trkpt><trkpt lat="43.4150247" lon="11.1597887"><ele>229.5</ele><time>2026-04-25T07:59:46.322Z</time></trkpt><trkpt lat="43.4152011" lon="11.1595306"><ele>230.0</ele><time>2026-04-25T07:59:47.337Z</time></trkpt><trkpt lat="43.4153784" lon="11.1592809"><ele>230.5</ele><time>2026-04-25T07:59:48.331Z</time></trkpt><trkpt lat="43.4155568" lon="11.1590248"><ele>231.0</ele><time>2026-04-25T07:59:49.317Z</time></trkpt><trkpt lat="43.4157339" lon="11.1587701"><ele>231.0</ele><time>2026-04-25T07:59:50.336Z</time></trkpt><trkpt lat="43.4159111" lon="11.1585162"><ele>231.0</ele><time>2026-04-25T07:59:51.319Z</time></trkpt><trkpt lat="43.4160882" lon="11.1582642"><ele>231.5</ele><time>2026-04-25T07:59:52.324Z</time></trkpt><trkpt lat="43.4162689" lon="11.1580049"><ele>232.0</ele><time>2026-04-25T07:59:53.298Z</time></trkpt><trkpt lat="43.4164446" lon="11.1577508"><ele>232.0</ele><time>2026-04-25T07:59:54.339Z</time></trkpt><trkpt lat="43.4166207" lon="11.1574959"><ele>232.0</ele><time>2026-04-25T07:59:55.328Z</time></trkpt><trkpt lat="43.4167964" lon="11.1572346"><ele>233.0</ele><time>2026-04-25T07:59:56.326Z</time></trkpt><trkpt lat="43.416971" lon="11.1569764"><ele>234.0</ele><time>2026-04-25T07:59:57.331Z</time></trkpt><trkpt lat="43.4171472" lon="11.1567169"><ele>233.0</ele><time>2026-04-25T07:59:58.323Z</time></trkpt><trkpt lat="43.4173234" lon="11.1564664"><ele>232.0</ele><time>2026-04-25T07:59:59.286Z</time></trkpt><trkpt lat="43.4174981" lon="11.1562079"><ele>232.0</ele><time>2026-04-25T08:00:00.293Z</time></trkpt><trkpt lat="43.4176749" lon="11.1559495"><ele>232.0</ele><time>2026-04-25T08:00:01.31Z</time></trkpt><trkpt lat="43.4178552" lon="11.1556952"><ele>230.5</ele><time>2026-04-25T08:00:02.282Z</time></trkpt><trkpt lat="43.4180364" lon="11.1554418"><ele>229.0</ele><time>2026-04-25T08:00:03.292Z</time></trkpt><trkpt lat="43.418212" lon="11.1551876"><ele>229.0</ele><time>2026-04-25T08:00:04.285Z</time></trkpt><trkpt lat="43.4183867" lon="11.1549334"><ele>229.0</ele><time>2026-04-25T08:00:05.284Z</time></trkpt><trkpt lat="43.4185643" lon="11.1546829"><ele>228.5</ele><time>2026-04-25T08:00:06.306Z</time></trkpt><trkpt lat="43.4187272" lon="11.1544456"><ele>228.0</ele><time>2026-04-25T08:00:07.302Z</time></trkpt><trkpt lat="43.4188882" lon="11.1542189"><ele>225.0</ele><time>2026-04-25T08:00:08.326Z</time></trkpt><trkpt lat="43.4190495" lon="11.1539914"><ele>222.0</ele><time>2026-04-25T08:00:09.321Z</time></trkpt><trkpt lat="43.4192173" lon="11.153757"><ele>222.0</ele><time>2026-04-25T08:00:10.321Z</time></trkpt><trkpt lat="43.4193821" lon="11.1535136"><ele>222.0</ele><time>2026-04-25T08:00:11.317Z</time></trkpt><trkpt lat="43.4195565" lon="11.1532666"><ele>218.5</ele><time>2026-04-25T08:00:12.326Z</time></trkpt><trkpt lat="43.4197338" lon="11.1530118"><ele>215.0</ele><time>2026-04-25T08:00:13.321Z</time></trkpt><trkpt lat="43.4199092" lon="11.1527541"><ele>215.0</ele><time>2026-04-25T08:00:14.319Z</time></trkpt><trkpt lat="43.4200876" lon="11.1524963"><ele>215.0</ele><time>2026-04-25T08:00:15.316Z</time></trkpt><trkpt lat="43.4202622" lon="11.1522383"><ele>215.5</ele><time>2026-04-25T08:00:16.316Z</time></trkpt><trkpt lat="43.4204355" lon="11.1519802"><ele>216.0</ele><time>2026-04-25T08:00:17.318Z</time></trkpt><trkpt lat="43.420609" lon="11.1517301"><ele>212.0</ele><time>2026-04-25T08:00:18.314Z</time></trkpt><trkpt lat="43.4207806" lon="11.1514887"><ele>208.0</ele><time>2026-04-25T08:00:19.338Z</time></trkpt><trkpt lat="43.4209447" lon="11.1512446"><ele>208.0</ele><time>2026-04-25T08:00:20.334Z</time></trkpt><trkpt lat="43.4211181" lon="11.1510019"><ele>208.0</ele><time>2026-04-25T08:00:21.313Z</time></trkpt><trkpt lat="43.4212887" lon="11.1507557"><ele>204.0</ele><time>2026-04-25T08:00:22.319Z</time></trkpt><trkpt lat="43.4214624" lon="11.1505164"><ele>200.0</ele><time>2026-04-25T08:00:23.328Z</time></trkpt><trkpt lat="43.4216331" lon="11.1502646"><ele>200.0</ele><time>2026-04-25T08:00:24.317Z</time></trkpt><trkpt lat="43.4218063" lon="11.1500187"><ele>200.0</ele><time>2026-04-25T08:00:25.305Z</time></trkpt><trkpt lat="43.4219756" lon="11.1497719"><ele>199.5</ele><time>2026-04-25T08:00:26.308Z</time></trkpt><trkpt lat="43.4221429" lon="11.1495275"><ele>199.0</ele><time>2026-04-25T08:00:27.304Z</time></trkpt><trkpt lat="43.4223154" lon="11.1492821"><ele>194.0</ele><time>2026-04-25T08:00:28.317Z</time></trkpt><trkpt lat="43.4224863" lon="11.1490335"><ele>189.0</ele><time>2026-04-25T08:00:29.334Z</time></trkpt><trkpt lat="43.4226617" lon="11.1487848"><ele>189.0</ele><time>2026-04-25T08:00:30.299Z</time></trkpt><trkpt lat="43.422836" lon="11.1485311"><ele>189.0</ele><time>2026-04-25T08:00:31.317Z</time></trkpt><trkpt lat="43.4230165" lon="11.1482781"><ele>184.5</ele><time>2026-04-25T08:00:32.294Z</time></trkpt><trkpt lat="43.4231937" lon="11.1480233"><ele>180.0</ele><time>2026-04-25T08:00:33.32Z</time></trkpt><trkpt lat="43.4233724" lon="11.1477664"><ele>180.0</ele><time>2026-04-25T08:00:34.325Z</time></trkpt><trkpt lat="43.4235486" lon="11.1475092"><ele>180.0</ele><time>2026-04-25T08:00:35.32Z</time></trkpt><trkpt lat="43.423721" lon="11.1472587"><ele>176.5</ele><time>2026-04-25T08:00:36.319Z</time></trkpt><trkpt lat="43.4238914" lon="11.1470097"><ele>173.0</ele><time>2026-04-25T08:00:37.316Z</time></trkpt><trkpt lat="43.4240631" lon="11.1467685"><ele>174.0</ele><time>2026-04-25T08:00:38.32Z</time></trkpt><trkpt lat="43.4242321" lon="11.1465287"><ele>175.0</ele><time>2026-04-25T08:00:39.327Z</time></trkpt><trkpt lat="43.4244192" lon="11.1463006"><ele>175.0</ele><time>2026-04-25T08:00:40.325Z</time></trkpt><trkpt lat="43.4246128" lon="11.1460748"><ele>175.0</ele><time>2026-04-25T08:00:41.319Z</time></trkpt><trkpt lat="43.4248138" lon="11.1458651"><ele>172.5</ele><time>2026-04-25T08:00:42.318Z</time></trkpt><trkpt lat="43.4250237" lon="11.1456627"><ele>170.0</ele><time>2026-04-25T08:00:43.335Z</time></trkpt><trkpt lat="43.4252433" lon="11.1454737"><ele>170.0</ele><time>2026-04-25T08:00:44.315Z</time></trkpt><trkpt lat="43.4254709" lon="11.1452995"><ele>170.0</ele><time>2026-04-25T08:00:45.328Z</time></trkpt><trkpt lat="43.425706" lon="11.1451394"><ele>170.0</ele><time>2026-04-25T08:00:46.324Z</time></trkpt><trkpt lat="43.4259351" lon="11.1449935"><ele>170.0</ele><time>2026-04-25T08:00:47.309Z</time></trkpt><trkpt lat="43.4261733" lon="11.1448611"><ele>167.5</ele><time>2026-04-25T08:00:48.328Z</time></trkpt><trkpt lat="43.426419" lon="11.1447552"><ele>165.0</ele><time>2026-04-25T08:00:49.318Z</time></trkpt><trkpt lat="43.4266662" lon="11.1446629"><ele>165.0</ele><time>2026-04-25T08:00:50.328Z</time></trkpt><trkpt lat="43.4269169" lon="11.1445896"><ele>165.0</ele><time>2026-04-25T08:00:51.33Z</time></trkpt><trkpt lat="43.4271659" lon="11.1445271"><ele>163.5</ele><time>2026-04-25T08:00:52.3Z</time></trkpt><trkpt lat="43.4274109" lon="11.1444822"><ele>162.0</ele><time>2026-04-25T08:00:53.325Z</time></trkpt><trkpt lat="43.427655" lon="11.1444457"><ele>162.0</ele><time>2026-04-25T08:00:54.308Z</time></trkpt><trkpt lat="43.4278998" lon="11.1444241"><ele>162.0</ele><time>2026-04-25T08:00:55.316Z</time></trkpt><trkpt lat="43.4281413" lon="11.1444053"><ele>161.0</ele><time>2026-04-25T08:00:56.315Z</time></trkpt><trkpt lat="43.4283774" lon="11.1444044"><ele>160.0</ele><time>2026-04-25T08:00:57.322Z</time></trkpt><trkpt lat="43.4286112" lon="11.1444009"><ele>158.5</ele><time>2026-04-25T08:00:58.316Z</time></trkpt><trkpt lat="43.4288422" lon="11.1444019"><ele>157.0</ele><time>2026-04-25T08:00:59.326Z</time></trkpt><trkpt lat="43.4290754" lon="11.1444045"><ele>157.0</ele><time>2026-04-25T08:01:00.316Z</time></trkpt><trkpt lat="43.429315" lon="11.144405"><ele>157.0</ele><time>2026-04-25T08:01:01.317Z</time></trkpt><trkpt lat="43.4295628" lon="11.1444029"><ele>155.0</ele><time>2026-04-25T08:01:02.317Z</time></trkpt><trkpt lat="43.4298114" lon="11.1444034"><ele>153.0</ele><time>2026-04-25T08:01:03.319Z</time></trkpt><trkpt lat="43.4300609" lon="11.1444"><ele>153.0</ele><time>2026-04-25T08:01:04.319Z</time></trkpt><trkpt lat="43.430311" lon="11.1444025"><ele>153.0</ele><time>2026-04-25T08:01:05.31Z</time></trkpt><trkpt lat="43.4305652" lon="11.1444012"><ele>150.0</ele><time>2026-04-25T08:01:06.324Z</time></trkpt><trkpt lat="43.43082" lon="11.1444059"><ele>147.0</ele><time>2026-04-25T08:01:07.321Z</time></trkpt><trkpt lat="43.4310584" lon="11.1444163"><ele>147.0</ele><time>2026-04-25T08:01:08.321Z</time></trkpt><trkpt lat="43.431299" lon="11.1444455"><ele>147.0</ele><time>2026-04-25T08:01:09.3Z</time></trkpt><trkpt lat="43.4315347" lon="11.1444768"><ele>145.5</ele><time>2026-04-25T08:01:10.327Z</time></trkpt><trkpt lat="43.4317711" lon="11.1445298"><ele>144.0</ele><time>2026-04-25T08:01:11.327Z</time></trkpt><trkpt lat="43.4320003" lon="11.1446096"><ele>144.0</ele><time>2026-04-25T08:01:12.314Z</time></trkpt><trkpt lat="43.4322265" lon="11.144707"><ele>144.0</ele><time>2026-04-25T08:01:13.327Z</time></trkpt><trkpt lat="43.4324505" lon="11.1448084"><ele>142.5</ele><time>2026-04-25T08:01:14.328Z</time></trkpt><trkpt lat="43.4326731" lon="11.1449187"><ele>141.0</ele><time>2026-04-25T08:01:15.315Z</time></trkpt><trkpt lat="43.432898" lon="11.1450297"><ele>137.5</ele><time>2026-04-25T08:01:16.327Z</time></trkpt><trkpt lat="43.4331199" lon="11.1451438"><ele>134.0</ele><time>2026-04-25T08:01:17.317Z</time></trkpt><trkpt lat="43.4333344" lon="11.145255"><ele>134.0</ele><time>2026-04-25T08:01:18.335Z</time></trkpt><trkpt lat="43.4335537" lon="11.1453673"><ele>134.0</ele><time>2026-04-25T08:01:19.314Z</time></trkpt><trkpt lat="43.4337766" lon="11.1454793"><ele>136.5</ele><time>2026-04-25T08:01:20.328Z</time></trkpt><trkpt lat="43.4340041" lon="11.1455994"><ele>139.0</ele><time>2026-04-25T08:01:21.334Z</time></trkpt><trkpt lat="43.43424" lon="11.1457221"><ele>139.0</ele><time>2026-04-25T08:01:22.336Z</time></trkpt><trkpt lat="43.4344849" lon="11.1458358"><ele>139.0</ele><time>2026-04-25T08:01:23.317Z</time></trkpt><trkpt lat="43.4347389" lon="11.1459558"><ele>139.5</ele><time>2026-04-25T08:01:24.31Z</time></trkpt><trkpt lat="43.4350008" lon="11.1460762"><ele>140.0</ele><time>2026-04-25T08:01:25.325Z</time></trkpt><trkpt lat="43.4352654" lon="11.1462084"><ele>142.0</ele><time>2026-04-25T08:01:26.334Z</time></trkpt><trkpt lat="43.435528" lon="11.1463386"><ele>144.0</ele><time>2026-04-25T08:01:27.324Z</time></trkpt><trkpt lat="43.4357896" lon="11.1464744"><ele>147.5</ele><time>2026-04-25T08:01:28.323Z</time></trkpt><trkpt lat="43.4360496" lon="11.1466086"><ele>151.0</ele><time>2026-04-25T08:01:29.326Z</time></trkpt><trkpt lat="43.4363011" lon="11.1467362"><ele>152.0</ele><time>2026-04-25T08:01:30.329Z</time></trkpt><trkpt lat="43.4365532" lon="11.1468697"><ele>153.0</ele><time>2026-04-25T08:01:31.321Z</time></trkpt><trkpt lat="43.4368007" lon="11.1470085"><ele>153.0</ele><time>2026-04-25T08:01:32.315Z</time></trkpt><trkpt lat="43.4370384" lon="11.1471511"><ele>153.0</ele><time>2026-04-25T08:01:33.333Z</time></trkpt><trkpt lat="43.4372688" lon="11.1473043"><ele>157.0</ele><time>2026-04-25T08:01:34.325Z</time></trkpt><trkpt lat="43.4374907" lon="11.1474812"><ele>161.0</ele><time>2026-04-25T08:01:35.3Z</time></trkpt><trkpt lat="43.437701" lon="11.1476749"><ele>161.0</ele><time>2026-04-25T08:01:36.322Z</time></trkpt><trkpt lat="43.4379042" lon="11.1478856"><ele>161.0</ele><time>2026-04-25T08:01:37.316Z</time></trkpt><trkpt lat="43.4380917" lon="11.148102"><ele>161.5</ele><time>2026-04-25T08:01:38.323Z</time></trkpt><trkpt lat="43.4382713" lon="11.1483124"><ele>162.0</ele><time>2026-04-25T08:01:39.297Z</time></trkpt><trkpt lat="43.4384406" lon="11.1485112"><ele>162.0</ele><time>2026-04-25T08:01:40.314Z</time></trkpt><trkpt lat="43.438608" lon="11.1486987"><ele>162.0</ele><time>2026-04-25T08:01:41.324Z</time></trkpt><trkpt lat="43.4387764" lon="11.1488733"><ele>162.0</ele><time>2026-04-25T08:01:42.321Z</time></trkpt><trkpt lat="43.4389584" lon="11.1490419"><ele>161.0</ele><time>2026-04-25T08:01:43.315Z</time></trkpt><trkpt lat="43.43915" lon="11.1491982"><ele>160.0</ele><time>2026-04-25T08:01:44.312Z</time></trkpt><trkpt lat="43.4393543" lon="11.1493462"><ele>160.0</ele><time>2026-04-25T08:01:45.314Z</time></trkpt><trkpt lat="43.439561" lon="11.1494862"><ele>160.0</ele><time>2026-04-25T08:01:46.31Z</time></trkpt><trkpt lat="43.4397745" lon="11.1496038"><ele>160.0</ele><time>2026-04-25T08:01:47.315Z</time></trkpt><trkpt lat="43.4399912" lon="11.1497162"><ele>160.0</ele><time>2026-04-25T08:01:48.321Z</time></trkpt><trkpt lat="43.4402074" lon="11.1498167"><ele>154.0</ele><time>2026-04-25T08:01:49.318Z</time></trkpt><trkpt lat="43.4404312" lon="11.1498976"><ele>148.0</ele><time>2026-04-25T08:01:50.328Z</time></trkpt><trkpt lat="43.4406555" lon="11.1499585"><ele>147.0</ele><time>2026-04-25T08:01:51.333Z</time></trkpt><trkpt lat="43.4408793" lon="11.1500037"><ele>146.0</ele><time>2026-04-25T08:01:52.312Z</time></trkpt><trkpt lat="43.4411068" lon="11.1500384"><ele>144.5</ele><time>2026-04-25T08:01:53.32Z</time></trkpt><trkpt lat="43.4413402" lon="11.150057"><ele>143.0</ele><time>2026-04-25T08:01:54.32Z</time></trkpt><trkpt lat="43.4415672" lon="11.1500576"><ele>143.0</ele><time>2026-04-25T08:01:55.323Z</time></trkpt><trkpt lat="43.441799" lon="11.1500456"><ele>143.0</ele><time>2026-04-25T08:01:56.29Z</time></trkpt><trkpt lat="43.442019" lon="11.1500323"><ele>141.0</ele><time>2026-04-25T08:01:57.32Z</time></trkpt><trkpt lat="43.4422367" lon="11.1500262"><ele>139.0</ele><time>2026-04-25T08:01:58.325Z</time></trkpt><trkpt lat="43.4424597" lon="11.1500237"><ele>137.0</ele><time>2026-04-25T08:01:59.32Z</time></trkpt><trkpt lat="43.4426832" lon="11.1500243"><ele>137.0</ele><time>2026-04-25T08:02:00.333Z</time></trkpt><trkpt lat="43.4428999" lon="11.1500219"><ele>137.0</ele><time>2026-04-25T08:02:01.314Z</time></trkpt><trkpt lat="43.4431196" lon="11.1500197"><ele>137.0</ele><time>2026-04-25T08:02:02.321Z</time></trkpt><trkpt lat="43.4433398" lon="11.1500143"><ele>135.33333333333331</ele><time>2026-04-25T08:02:03.319Z</time></trkpt><trkpt lat="43.443562" lon="11.1500036"><ele>133.66666666666666</ele><time>2026-04-25T08:02:04.324Z</time></trkpt><trkpt lat="43.443788" lon="11.1499952"><ele>132.0</ele><time>2026-04-25T08:02:05.326Z</time></trkpt><trkpt lat="43.4440134" lon="11.1499861"><ele>130.0</ele><time>2026-04-25T08:02:06.297Z</time></trkpt><trkpt lat="43.4442433" lon="11.1499864"><ele>128.0</ele><time>2026-04-25T08:02:07.305Z</time></trkpt><trkpt lat="43.4444754" lon="11.150001"><ele>127.0</ele><time>2026-04-25T08:02:08.272Z</time></trkpt><trkpt lat="43.4447034" lon="11.150029"><ele>126.0</ele><time>2026-04-25T08:02:09.289Z</time></trkpt><trkpt lat="43.4449319" lon="11.1500613"><ele>126.0</ele><time>2026-04-25T08:02:10.282Z</time></trkpt><trkpt lat="43.4451546" lon="11.150114"><ele>126.0</ele><time>2026-04-25T08:02:11.273Z</time></trkpt><trkpt lat="43.4453781" lon="11.1501885"><ele>127.5</ele><time>2026-04-25T08:02:12.279Z</time></trkpt><trkpt lat="43.4455972" lon="11.1502843"><ele>129.0</ele><time>2026-04-25T08:02:13.302Z</time></trkpt><trkpt lat="43.4458172" lon="11.1503945"><ele>129.0</ele><time>2026-04-25T08:02:14.292Z</time></trkpt><trkpt lat="43.4460307" lon="11.150519"><ele>129.0</ele><time>2026-04-25T08:02:15.295Z</time></trkpt><trkpt lat="43.4462402" lon="11.1506542"><ele>125.0</ele><time>2026-04-25T08:02:16.288Z</time></trkpt><trkpt lat="43.4464435" lon="11.150807"><ele>121.0</ele><time>2026-04-25T08:02:17.288Z</time></trkpt><trkpt lat="43.4466346" lon="11.1509631"><ele>121.0</ele><time>2026-04-25T08:02:18.293Z</time></trkpt><trkpt lat="43.4468185" lon="11.1511387"><ele>121.0</ele><time>2026-04-25T08:02:19.303Z</time></trkpt><trkpt lat="43.4469917" lon="11.1513154"><ele>121.0</ele><time>2026-04-25T08:02:20.299Z</time></trkpt><trkpt lat="43.4471615" lon="11.1514963"><ele>119.66666666666667</ele><time>2026-04-25T08:02:21.304Z</time></trkpt><trkpt lat="43.4473355" lon="11.1516871"><ele>118.33333333333334</ele><time>2026-04-25T08:02:22.296Z</time></trkpt><trkpt lat="43.4475096" lon="11.1518736"><ele>117.0</ele><time>2026-04-25T08:02:23.304Z</time></trkpt><trkpt lat="43.4476827" lon="11.152058"><ele>117.0</ele><time>2026-04-25T08:02:24.288Z</time></trkpt><trkpt lat="43.4478521" lon="11.1522337"><ele>117.0</ele><time>2026-04-25T08:02:25.301Z</time></trkpt><trkpt lat="43.4480242" lon="11.1524094"><ele>117.0</ele><time>2026-04-25T08:02:26.298Z</time></trkpt><trkpt lat="43.448199" lon="11.1525879"><ele>116.0</ele><time>2026-04-25T08:02:27.3Z</time></trkpt><trkpt lat="43.4483858" lon="11.1527553"><ele>115.0</ele><time>2026-04-25T08:02:28.298Z</time></trkpt><trkpt lat="43.4485772" lon="11.1529026"><ele>114.0</ele><time>2026-04-25T08:02:29.305Z</time></trkpt><trkpt lat="43.448766" lon="11.1530537"><ele>113.33333333333334</ele><time>2026-04-25T08:02:30.309Z</time></trkpt><trkpt lat="43.448952" lon="11.153194"><ele>112.66666666666667</ele><time>2026-04-25T08:02:31.301Z</time></trkpt><trkpt lat="43.4491449" lon="11.1533307"><ele>112.0</ele><time>2026-04-25T08:02:32.304Z</time></trkpt><trkpt lat="43.449344" lon="11.1534616"><ele>115.0</ele><time>2026-04-25T08:02:33.303Z</time></trkpt><trkpt lat="43.4495429" lon="11.1535882"><ele>118.0</ele><time>2026-04-25T08:02:34.307Z</time></trkpt><trkpt lat="43.4497432" lon="11.1537038"><ele>121.0</ele><time>2026-04-25T08:02:35.303Z</time></trkpt><trkpt lat="43.4499412" lon="11.1538152"><ele>121.0</ele><time>2026-04-25T08:02:36.302Z</time></trkpt><trkpt lat="43.4501398" lon="11.153922"><ele>121.0</ele><time>2026-04-25T08:02:37.292Z</time></trkpt><trkpt lat="43.4503354" lon="11.1540303"><ele>121.0</ele><time>2026-04-25T08:02:38.288Z</time></trkpt><trkpt lat="43.450534" lon="11.1541365"><ele>121.0</ele><time>2026-04-25T08:02:39.306Z</time></trkpt><trkpt lat="43.4507289" lon="11.154252"><ele>121.0</ele><time>2026-04-25T08:02:40.307Z</time></trkpt><trkpt lat="43.4509301" lon="11.1543611"><ele>121.0</ele><time>2026-04-25T08:02:41.302Z</time></trkpt><trkpt lat="43.4511387" lon="11.1544726"><ele>117.66666666666667</ele><time>2026-04-25T08:02:42.304Z</time></trkpt><trkpt lat="43.4513475" lon="11.154581"><ele>114.33333333333334</ele><time>2026-04-25T08:02:43.288Z</time></trkpt><trkpt lat="43.4515576" lon="11.154687"><ele>111.0</ele><time>2026-04-25T08:02:44.306Z</time></trkpt><trkpt lat="43.4517727" lon="11.1548016"><ele>111.0</ele><time>2026-04-25T08:02:45.299Z</time></trkpt><trkpt lat="43.4519911" lon="11.1549153"><ele>111.0</ele><time>2026-04-25T08:02:46.306Z</time></trkpt><trkpt lat="43.4522084" lon="11.1550294"><ele>111.0</ele><time>2026-04-25T08:02:47.302Z</time></trkpt><trkpt lat="43.4524172" lon="11.1551473"><ele>111.0</ele><time>2026-04-25T08:02:48.303Z</time></trkpt><trkpt lat="43.4526272" lon="11.1552832"><ele>111.0</ele><time>2026-04-25T08:02:49.305Z</time></trkpt><trkpt lat="43.45283" lon="11.1554313"><ele>111.0</ele><time>2026-04-25T08:02:50.304Z</time></trkpt><trkpt lat="43.453025" lon="11.155595"><ele>111.0</ele><time>2026-04-25T08:02:51.306Z</time></trkpt><trkpt lat="43.4532135" lon="11.155767"><ele>111.0</ele><time>2026-04-25T08:02:52.287Z</time></trkpt><trkpt lat="43.4533871" lon="11.155955"><ele>111.0</ele><time>2026-04-25T08:02:53.287Z</time></trkpt><trkpt lat="43.4535557" lon="11.1561462"><ele>111.0</ele><time>2026-04-25T08:02:54.284Z</time></trkpt><trkpt lat="43.4537201" lon="11.1563406"><ele>111.0</ele><time>2026-04-25T08:02:55.285Z</time></trkpt><trkpt lat="43.4538816" lon="11.1565387"><ele>111.0</ele><time>2026-04-25T08:02:56.29Z</time></trkpt><trkpt lat="43.4540375" lon="11.1567533"><ele>110.66666666666666</ele><time>2026-04-25T08:02:57.285Z</time></trkpt><trkpt lat="43.4541937" lon="11.1569714"><ele>110.33333333333333</ele><time>2026-04-25T08:02:58.303Z</time></trkpt><trkpt lat="43.4543474" lon="11.1571812"><ele>110.0</ele><time>2026-04-25T08:02:59.291Z</time></trkpt><trkpt lat="43.4544975" lon="11.1573847"><ele>109.33333333333333</ele><time>2026-04-25T08:03:00.288Z</time></trkpt><trkpt lat="43.4546421" lon="11.1575862"><ele>108.66666666666666</ele><time>2026-04-25T08:03:01.314Z</time></trkpt><trkpt lat="43.4547811" lon="11.1577902"><ele>108.0</ele><time>2026-04-25T08:03:02.306Z</time></trkpt><trkpt lat="43.4549256" lon="11.1579968"><ele>108.0</ele><time>2026-04-25T08:03:03.292Z</time></trkpt><trkpt lat="43.4550712" lon="11.1582011"><ele>108.0</ele><time>2026-04-25T08:03:04.301Z</time></trkpt><trkpt lat="43.4552155" lon="11.1583897"><ele>108.0</ele><time>2026-04-25T08:03:05.3Z</time></trkpt><trkpt lat="43.4553532" lon="11.1585628"><ele>108.33333333333334</ele><time>2026-04-25T08:03:06.318Z</time></trkpt><trkpt lat="43.4554834" lon="11.1587398"><ele>108.66666666666667</ele><time>2026-04-25T08:03:07.301Z</time></trkpt><trkpt lat="43.4556065" lon="11.1589114"><ele>109.0</ele><time>2026-04-25T08:03:08.333Z</time></trkpt><trkpt lat="43.4557249" lon="11.1590652"><ele>110.0</ele><time>2026-04-25T08:03:09.309Z</time></trkpt><trkpt lat="43.4558385" lon="11.1592138"><ele>111.0</ele><time>2026-04-25T08:03:10.318Z</time></trkpt><trkpt lat="43.4559421" lon="11.1593552"><ele>112.0</ele><time>2026-04-25T08:03:11.309Z</time></trkpt><trkpt lat="43.4560282" lon="11.1594847"><ele>113.0</ele><time>2026-04-25T08:03:12.309Z</time></trkpt><trkpt lat="43.4560912" lon="11.1595973"><ele>112.99999999999999</ele><time>2026-04-25T08:03:13.314Z</time></trkpt><trkpt lat="43.4561286" lon="11.1596728"><ele>113.0</ele><time>2026-04-25T08:03:14.311Z</time></trkpt><trkpt lat="43.4561805" lon="11.1597251"><ele>113.0</ele><time>2026-04-25T08:03:40.329Z</time></trkpt><trkpt lat="43.456234" lon="11.1598046"><ele>113.0</ele><time>2026-04-25T08:03:42.307Z</time></trkpt><trkpt lat="43.4562941" lon="11.1598831"><ele>112.99999999999999</ele><time>2026-04-25T08:03:43.303Z</time></trkpt><trkpt lat="43.4563741" lon="11.1599835"><ele>113.0</ele><time>2026-04-25T08:03:44.304Z</time></trkpt><trkpt lat="43.4564637" lon="11.1600823"><ele>111.66666666666666</ele><time>2026-04-25T08:03:45.324Z</time></trkpt><trkpt lat="43.4565592" lon="11.1602054"><ele>110.33333333333334</ele><time>2026-04-25T08:03:46.32Z</time></trkpt><trkpt lat="43.45667" lon="11.1603518"><ele>109.0</ele><time>2026-04-25T08:03:47.326Z</time></trkpt><trkpt lat="43.4567889" lon="11.1605311"><ele>109.33333333333334</ele><time>2026-04-25T08:03:48.327Z</time></trkpt><trkpt lat="43.4569302" lon="11.1607198"><ele>109.66666666666666</ele><time>2026-04-25T08:03:49.334Z</time></trkpt><trkpt lat="43.4570817" lon="11.1609233"><ele>110.0</ele><time>2026-04-25T08:03:50.328Z</time></trkpt><trkpt lat="43.4572406" lon="11.1611332"><ele>109.5</ele><time>2026-04-25T08:03:51.324Z</time></trkpt><trkpt lat="43.457407" lon="11.1613635"><ele>109.0</ele><time>2026-04-25T08:03:52.276Z</time></trkpt><trkpt lat="43.4575788" lon="11.1616033"><ele>109.0</ele><time>2026-04-25T08:03:53.305Z</time></trkpt><trkpt lat="43.4577572" lon="11.1618445"><ele>109.0</ele><time>2026-04-25T08:03:54.33Z</time></trkpt><trkpt lat="43.4579373" lon="11.1620796"><ele>107.0</ele><time>2026-04-25T08:03:55.308Z</time></trkpt><trkpt lat="43.4581345" lon="11.1623057"><ele>105.0</ele><time>2026-04-25T08:03:56.313Z</time></trkpt><trkpt lat="43.4583385" lon="11.1625099"><ele>104.5</ele><time>2026-04-25T08:03:57.318Z</time></trkpt><trkpt lat="43.4585554" lon="11.1627022"><ele>104.0</ele><time>2026-04-25T08:03:58.324Z</time></trkpt><trkpt lat="43.4587864" lon="11.1628698"><ele>106.0</ele><time>2026-04-25T08:03:59.311Z</time></trkpt><trkpt lat="43.4590252" lon="11.1630206"><ele>108.0</ele><time>2026-04-25T08:04:00.323Z</time></trkpt><trkpt lat="43.4592655" lon="11.1631585"><ele>108.5</ele><time>2026-04-25T08:04:01.316Z</time></trkpt><trkpt lat="43.4595132" lon="11.1632648"><ele>109.0</ele><time>2026-04-25T08:04:02.318Z</time></trkpt><trkpt lat="43.4597643" lon="11.1633569"><ele>108.0</ele><time>2026-04-25T08:04:03.329Z</time></trkpt><trkpt lat="43.4600172" lon="11.1634307"><ele>107.0</ele><time>2026-04-25T08:04:04.326Z</time></trkpt><trkpt lat="43.460274" lon="11.1634977"><ele>108.0</ele><time>2026-04-25T08:04:05.319Z</time></trkpt><trkpt lat="43.4605317" lon="11.1635461"><ele>109.0</ele><time>2026-04-25T08:04:06.326Z</time></trkpt><trkpt lat="43.4607971" lon="11.1635815"><ele>109.0</ele><time>2026-04-25T08:04:07.332Z</time></trkpt><trkpt lat="43.4610529" lon="11.1635977"><ele>109.0</ele><time>2026-04-25T08:04:08.304Z</time></trkpt><trkpt lat="43.461317" lon="11.1635905"><ele>107.5</ele><time>2026-04-25T08:04:09.308Z</time></trkpt><trkpt lat="43.4615749" lon="11.1635686"><ele>106.0</ele><time>2026-04-25T08:04:10.329Z</time></trkpt><trkpt lat="43.4618338" lon="11.1635416"><ele>106.0</ele><time>2026-04-25T08:04:11.339Z</time></trkpt><trkpt lat="43.4620985" lon="11.1635216"><ele>106.0</ele><time>2026-04-25T08:04:12.302Z</time></trkpt><trkpt lat="43.4623617" lon="11.1635056"><ele>107.5</ele><time>2026-04-25T08:04:13.317Z</time></trkpt><trkpt lat="43.4626189" lon="11.1634822"><ele>109.0</ele><time>2026-04-25T08:04:14.327Z</time></trkpt><trkpt lat="43.4628737" lon="11.1634393"><ele>109.0</ele><time>2026-04-25T08:04:15.322Z</time></trkpt><trkpt lat="43.4631229" lon="11.1633794"><ele>109.0</ele><time>2026-04-25T08:04:16.32Z</time></trkpt><trkpt lat="43.4633718" lon="11.1633014"><ele>109.0</ele><time>2026-04-25T08:04:17.325Z</time></trkpt><trkpt lat="43.4636199" lon="11.1632168"><ele>109.0</ele><time>2026-04-25T08:04:18.319Z</time></trkpt><trkpt lat="43.4638588" lon="11.1631116"><ele>108.0</ele><time>2026-04-25T08:04:19.307Z</time></trkpt><trkpt lat="43.4640964" lon="11.1629941"><ele>107.0</ele><time>2026-04-25T08:04:20.317Z</time></trkpt><trkpt lat="43.4643295" lon="11.1628679"><ele>107.0</ele><time>2026-04-25T08:04:21.316Z</time></trkpt><trkpt lat="43.4645621" lon="11.1627281"><ele>107.0</ele><time>2026-04-25T08:04:22.327Z</time></trkpt><trkpt lat="43.4647928" lon="11.162579"><ele>107.5</ele><time>2026-04-25T08:04:23.301Z</time></trkpt><trkpt lat="43.46502" lon="11.1624197"><ele>108.0</ele><time>2026-04-25T08:04:24.321Z</time></trkpt><trkpt lat="43.4652479" lon="11.1622486"><ele>108.5</ele><time>2026-04-25T08:04:25.331Z</time></trkpt><trkpt lat="43.4654684" lon="11.1620701"><ele>109.0</ele><time>2026-04-25T08:04:26.317Z</time></trkpt><trkpt lat="43.4656866" lon="11.1618785"><ele>109.0</ele><time>2026-04-25T08:04:27.318Z</time></trkpt><trkpt lat="43.4658988" lon="11.1616692"><ele>109.0</ele><time>2026-04-25T08:04:28.284Z</time></trkpt><trkpt lat="43.4661077" lon="11.1614434"><ele>107.0</ele><time>2026-04-25T08:04:29.301Z</time></trkpt><trkpt lat="43.4663052" lon="11.1612169"><ele>105.0</ele><time>2026-04-25T08:04:30.319Z</time></trkpt><trkpt lat="43.4664921" lon="11.1609673"><ele>105.0</ele><time>2026-04-25T08:04:31.301Z</time></trkpt><trkpt lat="43.4666692" lon="11.1607151"><ele>105.0</ele><time>2026-04-25T08:04:32.312Z</time></trkpt><trkpt lat="43.4668408" lon="11.1604493"><ele>104.5</ele><time>2026-04-25T08:04:33.317Z</time></trkpt><trkpt lat="43.467001" lon="11.1601737"><ele>104.0</ele><time>2026-04-25T08:04:34.325Z</time></trkpt><trkpt lat="43.467149" lon="11.1598829"><ele>102.5</ele><time>2026-04-25T08:04:35.323Z</time></trkpt><trkpt lat="43.4672931" lon="11.1595893"><ele>101.0</ele><time>2026-04-25T08:04:36.318Z</time></trkpt><trkpt lat="43.4674351" lon="11.1592963"><ele>101.0</ele><time>2026-04-25T08:04:37.326Z</time></trkpt><trkpt lat="43.4675734" lon="11.1589951"><ele>101.0</ele><time>2026-04-25T08:04:38.341Z</time></trkpt><trkpt lat="43.4677148" lon="11.1586874"><ele>101.0</ele><time>2026-04-25T08:04:39.329Z</time></trkpt><trkpt lat="43.4678504" lon="11.158391"><ele>101.0</ele><time>2026-04-25T08:04:40.319Z</time></trkpt><trkpt lat="43.4679889" lon="11.1580949"><ele>103.0</ele><time>2026-04-25T08:04:41.318Z</time></trkpt><trkpt lat="43.4681259" lon="11.1577997"><ele>105.0</ele><time>2026-04-25T08:04:42.332Z</time></trkpt><trkpt lat="43.4682686" lon="11.1575016"><ele>104.0</ele><time>2026-04-25T08:04:43.326Z</time></trkpt><trkpt lat="43.4684139" lon="11.1572039"><ele>103.0</ele><time>2026-04-25T08:04:44.314Z</time></trkpt><trkpt lat="43.4685568" lon="11.156909"><ele>103.0</ele><time>2026-04-25T08:04:45.325Z</time></trkpt><trkpt lat="43.4687014" lon="11.1566194"><ele>103.0</ele><time>2026-04-25T08:04:46.325Z</time></trkpt><trkpt lat="43.4688541" lon="11.1563312"><ele>103.0</ele><time>2026-04-25T08:04:47.32Z</time></trkpt><trkpt lat="43.4690211" lon="11.1560496"><ele>103.0</ele><time>2026-04-25T08:04:48.325Z</time></trkpt><trkpt lat="43.4691978" lon="11.1557737"><ele>103.0</ele><time>2026-04-25T08:04:49.333Z</time></trkpt><trkpt lat="43.4693865" lon="11.1555203"><ele>103.0</ele><time>2026-04-25T08:04:50.329Z</time></trkpt><trkpt lat="43.4695942" lon="11.1552762"><ele>103.0</ele><time>2026-04-25T08:04:51.318Z</time></trkpt><trkpt lat="43.4697998" lon="11.1550327"><ele>103.0</ele><time>2026-04-25T08:04:52.322Z</time></trkpt><trkpt lat="43.470015" lon="11.154807"><ele>103.5</ele><time>2026-04-25T08:04:53.325Z</time></trkpt><trkpt lat="43.4702357" lon="11.1545919"><ele>104.0</ele><time>2026-04-25T08:04:54.295Z</time></trkpt><trkpt lat="43.4704661" lon="11.1543945"><ele>105.0</ele><time>2026-04-25T08:04:55.321Z</time></trkpt><trkpt lat="43.4707108" lon="11.1542157"><ele>106.0</ele><time>2026-04-25T08:04:56.328Z</time></trkpt><trkpt lat="43.4709503" lon="11.1540507"><ele>106.0</ele><time>2026-04-25T08:04:57.324Z</time></trkpt><trkpt lat="43.4711876" lon="11.1538937"><ele>106.0</ele><time>2026-04-25T08:04:58.319Z</time></trkpt><trkpt lat="43.471434" lon="11.1537607"><ele>106.0</ele><time>2026-04-25T08:04:59.317Z</time></trkpt><trkpt lat="43.4716819" lon="11.1536323"><ele>106.0</ele><time>2026-04-25T08:05:00.324Z</time></trkpt><trkpt lat="43.4719378" lon="11.1535053"><ele>108.0</ele><time>2026-04-25T08:05:01.327Z</time></trkpt><trkpt lat="43.4721927" lon="11.1533753"><ele>110.0</ele><time>2026-04-25T08:05:02.315Z</time></trkpt><trkpt lat="43.4724437" lon="11.1532504"><ele>109.0</ele><time>2026-04-25T08:05:03.328Z</time></trkpt><trkpt lat="43.4726946" lon="11.1531282"><ele>108.0</ele><time>2026-04-25T08:05:04.321Z</time></trkpt><trkpt lat="43.4729412" lon="11.1530115"><ele>108.0</ele><time>2026-04-25T08:05:05.329Z</time></trkpt><trkpt lat="43.4731911" lon="11.1528946"><ele>108.0</ele><time>2026-04-25T08:05:06.331Z</time></trkpt><trkpt lat="43.4734454" lon="11.1527778"><ele>108.0</ele><time>2026-04-25T08:05:07.339Z</time></trkpt><trkpt lat="43.4736973" lon="11.1526589"><ele>108.0</ele><time>2026-04-25T08:05:08.321Z</time></trkpt><trkpt lat="43.4739479" lon="11.1525386"><ele>107.0</ele><time>2026-04-25T08:05:09.324Z</time></trkpt><trkpt lat="43.4742013" lon="11.1524225"><ele>106.0</ele><time>2026-04-25T08:05:10.34Z</time></trkpt><trkpt lat="43.4744678" lon="11.1523178"><ele>112.0</ele><time>2026-04-25T08:05:11.304Z</time></trkpt><trkpt lat="43.4747331" lon="11.1522341"><ele>118.0</ele><time>2026-04-25T08:05:12.291Z</time></trkpt><trkpt lat="43.4750025" lon="11.1521696"><ele>118.0</ele><time>2026-04-25T08:05:13.321Z</time></trkpt><trkpt lat="43.4752596" lon="11.1521001"><ele>118.0</ele><time>2026-04-25T08:05:14.307Z</time></trkpt><trkpt lat="43.4755133" lon="11.1520388"><ele>121.0</ele><time>2026-04-25T08:05:15.31Z</time></trkpt><trkpt lat="43.4757598" lon="11.1519679"><ele>124.0</ele><time>2026-04-25T08:05:16.316Z</time></trkpt><trkpt lat="43.4760008" lon="11.1518804"><ele>124.0</ele><time>2026-04-25T08:05:17.321Z</time></trkpt><trkpt lat="43.4762406" lon="11.1517745"><ele>124.0</ele><time>2026-04-25T08:05:18.329Z</time></trkpt><trkpt lat="43.4764771" lon="11.1516578"><ele>128.5</ele><time>2026-04-25T08:05:19.341Z</time></trkpt><trkpt lat="43.476718" lon="11.1515224"><ele>133.0</ele><time>2026-04-25T08:05:20.325Z</time></trkpt><trkpt lat="43.4769568" lon="11.1513821"><ele>133.0</ele><time>2026-04-25T08:05:21.317Z</time></trkpt><trkpt lat="43.4772016" lon="11.151244"><ele>133.0</ele><time>2026-04-25T08:05:22.325Z</time></trkpt><trkpt lat="43.4774424" lon="11.1511085"><ele>133.0</ele><time>2026-04-25T08:05:23.33Z</time></trkpt><trkpt lat="43.4776788" lon="11.150973"><ele>133.0</ele><time>2026-04-25T08:05:24.312Z</time></trkpt><trkpt lat="43.4779207" lon="11.1508371"><ele>130.0</ele><time>2026-04-25T08:05:25.317Z</time></trkpt><trkpt lat="43.4781679" lon="11.150706"><ele>127.0</ele><time>2026-04-25T08:05:26.319Z</time></trkpt><trkpt lat="43.4784148" lon="11.1505675"><ele>127.0</ele><time>2026-04-25T08:05:27.315Z</time></trkpt><trkpt lat="43.4786611" lon="11.1504325"><ele>127.0</ele><time>2026-04-25T08:05:28.334Z</time></trkpt><trkpt lat="43.4789123" lon="11.1503017"><ele>123.5</ele><time>2026-04-25T08:05:29.323Z</time></trkpt><trkpt lat="43.4791644" lon="11.1501754"><ele>120.0</ele><time>2026-04-25T08:05:30.318Z</time></trkpt><trkpt lat="43.4794246" lon="11.1500548"><ele>118.5</ele><time>2026-04-25T08:05:31.327Z</time></trkpt><trkpt lat="43.479686" lon="11.1499482"><ele>117.0</ele><time>2026-04-25T08:05:32.32Z</time></trkpt><trkpt lat="43.4799446" lon="11.1498632"><ele>117.0</ele><time>2026-04-25T08:05:33.325Z</time></trkpt><trkpt lat="43.4802139" lon="11.1498293"><ele>117.0</ele><time>2026-04-25T08:05:34.32Z</time></trkpt><trkpt lat="43.4804889" lon="11.149833"><ele>121.0</ele><time>2026-04-25T08:05:35.322Z</time></trkpt><trkpt lat="43.4807547" lon="11.1498513"><ele>125.0</ele><time>2026-04-25T08:05:36.334Z</time></trkpt><trkpt lat="43.4810201" lon="11.1498781"><ele>125.5</ele><time>2026-04-25T08:05:37.312Z</time></trkpt><trkpt lat="43.4812887" lon="11.1499268"><ele>126.0</ele><time>2026-04-25T08:05:38.317Z</time></trkpt><trkpt lat="43.4815558" lon="11.1499988"><ele>126.0</ele><time>2026-04-25T08:05:39.321Z</time></trkpt><trkpt lat="43.4818168" lon="11.1500944"><ele>126.0</ele><time>2026-04-25T08:05:40.302Z</time></trkpt><trkpt lat="43.4820824" lon="11.1501976"><ele>124.0</ele><time>2026-04-25T08:05:41.285Z</time></trkpt><trkpt lat="43.48234" lon="11.150326"><ele>122.0</ele><time>2026-04-25T08:05:42.313Z</time></trkpt><trkpt lat="43.4825873" lon="11.1504821"><ele>122.0</ele><time>2026-04-25T08:05:43.312Z</time></trkpt><trkpt lat="43.4828205" lon="11.1506668"><ele>122.0</ele><time>2026-04-25T08:05:44.304Z</time></trkpt><trkpt lat="43.4830474" lon="11.1508737"><ele>120.5</ele><time>2026-04-25T08:05:45.315Z</time></trkpt><trkpt lat="43.4832666" lon="11.1510877"><ele>119.0</ele><time>2026-04-25T08:05:46.332Z</time></trkpt><trkpt lat="43.4834828" lon="11.1513155"><ele>119.0</ele><time>2026-04-25T08:05:47.311Z</time></trkpt><trkpt lat="43.483703" lon="11.1515348"><ele>119.0</ele><time>2026-04-25T08:05:48.32Z</time></trkpt><trkpt lat="43.4839257" lon="11.1517514"><ele>115.0</ele><time>2026-04-25T08:05:49.302Z</time></trkpt><trkpt lat="43.4841488" lon="11.1519731"><ele>111.0</ele><time>2026-04-25T08:05:50.305Z</time></trkpt><trkpt lat="43.4843698" lon="11.1521907"><ele>111.0</ele><time>2026-04-25T08:05:51.316Z</time></trkpt><trkpt lat="43.48459" lon="11.1524081"><ele>111.0</ele><time>2026-04-25T08:05:52.323Z</time></trkpt><trkpt lat="43.4848107" lon="11.1526196"><ele>110.5</ele><time>2026-04-25T08:05:53.325Z</time></trkpt><trkpt lat="43.4850226" lon="11.1528254"><ele>110.0</ele><time>2026-04-25T08:05:54.31Z</time></trkpt><trkpt lat="43.4852238" lon="11.1530438"><ele>110.5</ele><time>2026-04-25T08:05:55.319Z</time></trkpt><trkpt lat="43.4854185" lon="11.1532778"><ele>111.0</ele><time>2026-04-25T08:05:56.317Z</time></trkpt><trkpt lat="43.4856" lon="11.1535257"><ele>112.0</ele><time>2026-04-25T08:05:57.306Z</time></trkpt><trkpt lat="43.4857749" lon="11.1537911"><ele>113.0</ele><time>2026-04-25T08:05:58.321Z</time></trkpt><trkpt lat="43.4859377" lon="11.1540688"><ele>113.0</ele><time>2026-04-25T08:05:59.283Z</time></trkpt><trkpt lat="43.4860928" lon="11.1543544"><ele>113.0</ele><time>2026-04-25T08:06:00.298Z</time></trkpt><trkpt lat="43.4862335" lon="11.1546638"><ele>115.0</ele><time>2026-04-25T08:06:01.317Z</time></trkpt><trkpt lat="43.4863573" lon="11.1549862"><ele>117.0</ele><time>2026-04-25T08:06:02.313Z</time></trkpt><trkpt lat="43.486466" lon="11.1553163"><ele>117.0</ele><time>2026-04-25T08:06:03.314Z</time></trkpt><trkpt lat="43.486555" lon="11.155658"><ele>117.0</ele><time>2026-04-25T08:06:04.328Z</time></trkpt><trkpt lat="43.4866311" lon="11.1560049"><ele>118.5</ele><time>2026-04-25T08:06:05.312Z</time></trkpt><trkpt lat="43.4866936" lon="11.1563513"><ele>120.0</ele><time>2026-04-25T08:06:06.336Z</time></trkpt><trkpt lat="43.4867499" lon="11.1566964"><ele>120.5</ele><time>2026-04-25T08:06:07.324Z</time></trkpt><trkpt lat="43.486804" lon="11.1570542"><ele>121.0</ele><time>2026-04-25T08:06:08.331Z</time></trkpt><trkpt lat="43.4868563" lon="11.157412"><ele>121.0</ele><time>2026-04-25T08:06:09.313Z</time></trkpt><trkpt lat="43.4869048" lon="11.1577683"><ele>121.0</ele><time>2026-04-25T08:06:10.33Z</time></trkpt><trkpt lat="43.4869506" lon="11.1581176"><ele>120.5</ele><time>2026-04-25T08:06:11.316Z</time></trkpt><trkpt lat="43.4869967" lon="11.1584717"><ele>120.0</ele><time>2026-04-25T08:06:12.319Z</time></trkpt><trkpt lat="43.4870464" lon="11.1588234"><ele>118.5</ele><time>2026-04-25T08:06:13.326Z</time></trkpt><trkpt lat="43.4870902" lon="11.1591815"><ele>117.0</ele><time>2026-04-25T08:06:14.327Z</time></trkpt><trkpt lat="43.4871371" lon="11.1595371"><ele>121.5</ele><time>2026-04-25T08:06:15.319Z</time></trkpt><trkpt lat="43.4871865" lon="11.1598897"><ele>126.0</ele><time>2026-04-25T08:06:16.322Z</time></trkpt><trkpt lat="43.4872347" lon="11.1602452"><ele>126.0</ele><time>2026-04-25T08:06:17.318Z</time></trkpt><trkpt lat="43.4872828" lon="11.1605947"><ele>126.0</ele><time>2026-04-25T08:06:18.324Z</time></trkpt><trkpt lat="43.487331" lon="11.1609518"><ele>126.5</ele><time>2026-04-25T08:06:19.318Z</time></trkpt><trkpt lat="43.4873803" lon="11.1613075"><ele>127.0</ele><time>2026-04-25T08:06:20.322Z</time></trkpt><trkpt lat="43.4874324" lon="11.1616623"><ele>126.0</ele><time>2026-04-25T08:06:21.32Z</time></trkpt><trkpt lat="43.4874822" lon="11.1620116"><ele>125.0</ele><time>2026-04-25T08:06:22.321Z</time></trkpt><trkpt lat="43.487524" lon="11.1623639"><ele>125.0</ele><time>2026-04-25T08:06:23.318Z</time></trkpt><trkpt lat="43.4875666" lon="11.1627176"><ele>125.0</ele><time>2026-04-25T08:06:24.344Z</time></trkpt><trkpt lat="43.4876064" lon="11.1630649"><ele>124.0</ele><time>2026-04-25T08:06:25.324Z</time></trkpt><trkpt lat="43.4876442" lon="11.1634087"><ele>123.0</ele><time>2026-04-25T08:06:26.319Z</time></trkpt><trkpt lat="43.4876805" lon="11.1637469"><ele>123.5</ele><time>2026-04-25T08:06:27.325Z</time></trkpt><trkpt lat="43.4877182" lon="11.1640859"><ele>124.0</ele><time>2026-04-25T08:06:28.32Z</time></trkpt><trkpt lat="43.4877599" lon="11.1644315"><ele>124.0</ele><time>2026-04-25T08:06:29.315Z</time></trkpt><trkpt lat="43.487806" lon="11.1647739"><ele>124.0</ele><time>2026-04-25T08:06:30.327Z</time></trkpt><trkpt lat="43.4878478" lon="11.1651142"><ele>124.0</ele><time>2026-04-25T08:06:31.324Z</time></trkpt><trkpt lat="43.4878983" lon="11.1654543"><ele>124.0</ele><time>2026-04-25T08:06:32.32Z</time></trkpt><trkpt lat="43.4879468" lon="11.1657901"><ele>126.0</ele><time>2026-04-25T08:06:33.318Z</time></trkpt><trkpt lat="43.488002" lon="11.1661308"><ele>128.0</ele><time>2026-04-25T08:06:34.325Z</time></trkpt><trkpt lat="43.4880596" lon="11.1664618"><ele>130.0</ele><time>2026-04-25T08:06:35.328Z</time></trkpt><trkpt lat="43.4881224" lon="11.1667975"><ele>132.0</ele><time>2026-04-25T08:06:36.275Z</time></trkpt><trkpt lat="43.4881875" lon="11.1671356"><ele>131.5</ele><time>2026-04-25T08:06:37.312Z</time></trkpt><trkpt lat="43.4882588" lon="11.167474"><ele>131.0</ele><time>2026-04-25T08:06:38.329Z</time></trkpt><trkpt lat="43.4883329" lon="11.1678102"><ele>131.0</ele><time>2026-04-25T08:06:39.322Z</time></trkpt><trkpt lat="43.4884155" lon="11.1681412"><ele>131.0</ele><time>2026-04-25T08:06:40.333Z</time></trkpt><trkpt lat="43.4885024" lon="11.168467"><ele>131.0</ele><time>2026-04-25T08:06:41.321Z</time></trkpt><trkpt lat="43.4885964" lon="11.1687965"><ele>131.0</ele><time>2026-04-25T08:06:42.303Z</time></trkpt><trkpt lat="43.4886898" lon="11.1691206"><ele>135.0</ele><time>2026-04-25T08:06:43.318Z</time></trkpt><trkpt lat="43.4887919" lon="11.1694456"><ele>139.0</ele><time>2026-04-25T08:06:44.293Z</time></trkpt><trkpt lat="43.488902" lon="11.169766"><ele>138.5</ele><time>2026-04-25T08:06:45.325Z</time></trkpt><trkpt lat="43.4890164" lon="11.1700831"><ele>138.0</ele><time>2026-04-25T08:06:46.317Z</time></trkpt><trkpt lat="43.489135" lon="11.1703995"><ele>137.5</ele><time>2026-04-25T08:06:47.305Z</time></trkpt><trkpt lat="43.4892528" lon="11.1707088"><ele>137.0</ele><time>2026-04-25T08:06:48.321Z</time></trkpt><trkpt lat="43.4893787" lon="11.1710194"><ele>137.0</ele><time>2026-04-25T08:06:49.325Z</time></trkpt><trkpt lat="43.4895047" lon="11.1713279"><ele>137.0</ele><time>2026-04-25T08:06:50.322Z</time></trkpt><trkpt lat="43.4896395" lon="11.1716347"><ele>139.0</ele><time>2026-04-25T08:06:51.322Z</time></trkpt><trkpt lat="43.4897768" lon="11.1719405"><ele>141.0</ele><time>2026-04-25T08:06:52.319Z</time></trkpt><trkpt lat="43.4899185" lon="11.1722481"><ele>139.5</ele><time>2026-04-25T08:06:53.329Z</time></trkpt><trkpt lat="43.4900638" lon="11.1725521"><ele>138.0</ele><time>2026-04-25T08:06:54.297Z</time></trkpt><trkpt lat="43.4902103" lon="11.1728474"><ele>138.0</ele><time>2026-04-25T08:06:55.327Z</time></trkpt><trkpt lat="43.4903667" lon="11.1731431"><ele>138.0</ele><time>2026-04-25T08:06:56.313Z</time></trkpt><trkpt lat="43.4905218" lon="11.173433"><ele>139.5</ele><time>2026-04-25T08:06:57.314Z</time></trkpt><trkpt lat="43.4906768" lon="11.173728"><ele>141.0</ele><time>2026-04-25T08:06:58.322Z</time></trkpt><trkpt lat="43.4908298" lon="11.1740153"><ele>141.5</ele><time>2026-04-25T08:06:59.318Z</time></trkpt><trkpt lat="43.4909831" lon="11.174305"><ele>142.0</ele><time>2026-04-25T08:07:00.31Z</time></trkpt><trkpt lat="43.491134" lon="11.1745983"><ele>145.5</ele><time>2026-04-25T08:07:01.321Z</time></trkpt><trkpt lat="43.4912913" lon="11.1749026"><ele>149.0</ele><time>2026-04-25T08:07:02.326Z</time></trkpt><trkpt lat="43.4914438" lon="11.1751972"><ele>149.0</ele><time>2026-04-25T08:07:03.318Z</time></trkpt><trkpt lat="43.4915997" lon="11.1754925"><ele>149.0</ele><time>2026-04-25T08:07:04.304Z</time></trkpt><trkpt lat="43.4917577" lon="11.1757866"><ele>149.0</ele><time>2026-04-25T08:07:05.316Z</time></trkpt><trkpt lat="43.4919175" lon="11.1760725"><ele>149.0</ele><time>2026-04-25T08:07:06.324Z</time></trkpt><trkpt lat="43.4920797" lon="11.1763588"><ele>153.5</ele><time>2026-04-25T08:07:07.333Z</time></trkpt><trkpt lat="43.4922392" lon="11.1766394"><ele>158.0</ele><time>2026-04-25T08:07:08.323Z</time></trkpt><trkpt lat="43.4924067" lon="11.1769147"><ele>158.0</ele><time>2026-04-25T08:07:09.322Z</time></trkpt><trkpt lat="43.492585" lon="11.1771708"><ele>158.0</ele><time>2026-04-25T08:07:10.324Z</time></trkpt><trkpt lat="43.4927758" lon="11.1774077"><ele>156.5</ele><time>2026-04-25T08:07:11.337Z</time></trkpt><trkpt lat="43.4929746" lon="11.1776291"><ele>155.0</ele><time>2026-04-25T08:07:12.329Z</time></trkpt><trkpt lat="43.4931797" lon="11.177839"><ele>155.0</ele><time>2026-04-25T08:07:13.343Z</time></trkpt><trkpt lat="43.4933956" lon="11.1780312"><ele>155.0</ele><time>2026-04-25T08:07:14.322Z</time></trkpt><trkpt lat="43.4936147" lon="11.1782101"><ele>155.0</ele><time>2026-04-25T08:07:15.314Z</time></trkpt><trkpt lat="43.4938339" lon="11.1783838"><ele>155.0</ele><time>2026-04-25T08:07:16.321Z</time></trkpt><trkpt lat="43.4940647" lon="11.178531"><ele>155.0</ele><time>2026-04-25T08:07:17.319Z</time></trkpt><trkpt lat="43.494302" lon="11.1786703"><ele>155.0</ele><time>2026-04-25T08:07:18.309Z</time></trkpt><trkpt lat="43.4945378" lon="11.1788127"><ele>157.5</ele><time>2026-04-25T08:07:19.313Z</time></trkpt><trkpt lat="43.4947788" lon="11.1789455"><ele>160.0</ele><time>2026-04-25T08:07:20.329Z</time></trkpt><trkpt lat="43.4950225" lon="11.179078"><ele>161.0</ele><time>2026-04-25T08:07:21.32Z</time></trkpt><trkpt lat="43.495268" lon="11.1792182"><ele>162.0</ele><time>2026-04-25T08:07:22.316Z</time></trkpt><trkpt lat="43.4955097" lon="11.1793672"><ele>162.0</ele><time>2026-04-25T08:07:23.326Z</time></trkpt><trkpt lat="43.4957444" lon="11.179526"><ele>162.0</ele><time>2026-04-25T08:07:24.321Z</time></trkpt><trkpt lat="43.4959748" lon="11.1796934"><ele>164.5</ele><time>2026-04-25T08:07:25.324Z</time></trkpt><trkpt lat="43.4962072" lon="11.1798777"><ele>167.0</ele><time>2026-04-25T08:07:26.317Z</time></trkpt><trkpt lat="43.4964341" lon="11.1800731"><ele>167.0</ele><time>2026-04-25T08:07:27.318Z</time></trkpt><trkpt lat="43.4966588" lon="11.1802723"><ele>167.0</ele><time>2026-04-25T08:07:28.328Z</time></trkpt><trkpt lat="43.4968766" lon="11.1804776"><ele>168.0</ele><time>2026-04-25T08:07:29.308Z</time></trkpt><trkpt lat="43.4970842" lon="11.1807023"><ele>169.0</ele><time>2026-04-25T08:07:30.327Z</time></trkpt><trkpt lat="43.4972866" lon="11.1809274"><ele>169.0</ele><time>2026-04-25T08:07:31.322Z</time></trkpt><trkpt lat="43.4974827" lon="11.1811604"><ele>169.0</ele><time>2026-04-25T08:07:32.335Z</time></trkpt><trkpt lat="43.4976775" lon="11.181395"><ele>172.5</ele><time>2026-04-25T08:07:33.317Z</time></trkpt><trkpt lat="43.497862" lon="11.1816431"><ele>176.0</ele><time>2026-04-25T08:07:34.321Z</time></trkpt><trkpt lat="43.4980433" lon="11.1818945"><ele>176.0</ele><time>2026-04-25T08:07:35.321Z</time></trkpt><trkpt lat="43.498215" lon="11.182162"><ele>176.0</ele><time>2026-04-25T08:07:36.328Z</time></trkpt><trkpt lat="43.4983814" lon="11.1824333"><ele>177.5</ele><time>2026-04-25T08:07:37.317Z</time></trkpt><trkpt lat="43.4985423" lon="11.1827141"><ele>179.0</ele><time>2026-04-25T08:07:38.322Z</time></trkpt><trkpt lat="43.498699" lon="11.182996"><ele>178.5</ele><time>2026-04-25T08:07:39.321Z</time></trkpt><trkpt lat="43.4988464" lon="11.1832868"><ele>178.0</ele><time>2026-04-25T08:07:40.321Z</time></trkpt><trkpt lat="43.4989919" lon="11.1835777"><ele>178.0</ele><time>2026-04-25T08:07:41.314Z</time></trkpt><trkpt lat="43.4991401" lon="11.1838669"><ele>178.0</ele><time>2026-04-25T08:07:42.316Z</time></trkpt><trkpt lat="43.4992888" lon="11.1841627"><ele>180.5</ele><time>2026-04-25T08:07:43.319Z</time></trkpt><trkpt lat="43.4994412" lon="11.1844614"><ele>183.0</ele><time>2026-04-25T08:07:44.322Z</time></trkpt><trkpt lat="43.4995861" lon="11.1847556"><ele>182.5</ele><time>2026-04-25T08:07:45.285Z</time></trkpt><trkpt lat="43.4997354" lon="11.185047"><ele>182.0</ele><time>2026-04-25T08:07:46.31Z</time></trkpt><trkpt lat="43.4998834" lon="11.1853351"><ele>182.0</ele><time>2026-04-25T08:07:47.308Z</time></trkpt><trkpt lat="43.5000427" lon="11.1856188"><ele>182.0</ele><time>2026-04-25T08:07:48.321Z</time></trkpt><trkpt lat="43.5002157" lon="11.1858872"><ele>182.5</ele><time>2026-04-25T08:07:49.324Z</time></trkpt><trkpt lat="43.500402" lon="11.1861363"><ele>183.0</ele><time>2026-04-25T08:07:50.319Z</time></trkpt><trkpt lat="43.5005998" lon="11.1863727"><ele>185.5</ele><time>2026-04-25T08:07:51.332Z</time></trkpt><trkpt lat="43.500807" lon="11.1865951"><ele>188.0</ele><time>2026-04-25T08:07:52.321Z</time></trkpt><trkpt lat="43.5010216" lon="11.1867963"><ele>188.0</ele><time>2026-04-25T08:07:53.309Z</time></trkpt><trkpt lat="43.5012378" lon="11.186985"><ele>188.0</ele><time>2026-04-25T08:07:54.322Z</time></trkpt><trkpt lat="43.5014622" lon="11.1871562"><ele>185.5</ele><time>2026-04-25T08:07:55.33Z</time></trkpt><trkpt lat="43.5016955" lon="11.1872983"><ele>183.0</ele><time>2026-04-25T08:07:56.326Z</time></trkpt><trkpt lat="43.5019283" lon="11.1874364"><ele>188.5</ele><time>2026-04-25T08:07:57.317Z</time></trkpt><trkpt lat="43.502179" lon="11.1875574"><ele>194.0</ele><time>2026-04-25T08:07:58.314Z</time></trkpt><trkpt lat="43.5024253" lon="11.1876792"><ele>194.0</ele><time>2026-04-25T08:07:59.308Z</time></trkpt><trkpt lat="43.5026776" lon="11.1877842"><ele>194.0</ele><time>2026-04-25T08:08:00.312Z</time></trkpt><trkpt lat="43.5029222" lon="11.1878949"><ele>192.5</ele><time>2026-04-25T08:08:01.289Z</time></trkpt><trkpt lat="43.5031695" lon="11.1880092"><ele>191.0</ele><time>2026-04-25T08:08:02.322Z</time></trkpt><trkpt lat="43.5034137" lon="11.1881205"><ele>194.0</ele><time>2026-04-25T08:08:03.327Z</time></trkpt><trkpt lat="43.5036579" lon="11.1882349"><ele>197.0</ele><time>2026-04-25T08:08:04.31Z</time></trkpt><trkpt lat="43.5039019" lon="11.188345"><ele>197.0</ele><time>2026-04-25T08:08:05.323Z</time></trkpt><trkpt lat="43.5041404" lon="11.1884569"><ele>197.0</ele><time>2026-04-25T08:08:06.317Z</time></trkpt><trkpt lat="43.5043847" lon="11.1885684"><ele>195.5</ele><time>2026-04-25T08:08:07.312Z</time></trkpt><trkpt lat="43.5046279" lon="11.1886828"><ele>194.0</ele><time>2026-04-25T08:08:08.297Z</time></trkpt><trkpt lat="43.5048781" lon="11.1887912"><ele>194.0</ele><time>2026-04-25T08:08:09.302Z</time></trkpt><trkpt lat="43.5051288" lon="11.1889024"><ele>194.0</ele><time>2026-04-25T08:08:10.319Z</time></trkpt><trkpt lat="43.5053775" lon="11.1890126"><ele>200.5</ele><time>2026-04-25T08:08:11.314Z</time></trkpt><trkpt lat="43.505624" lon="11.1891133"><ele>207.0</ele><time>2026-04-25T08:08:12.298Z</time></trkpt><trkpt lat="43.5058739" lon="11.1891978"><ele>207.0</ele><time>2026-04-25T08:08:13.325Z</time></trkpt><trkpt lat="43.5061273" lon="11.1892792"><ele>207.0</ele><time>2026-04-25T08:08:14.312Z</time></trkpt><trkpt lat="43.5063772" lon="11.1893598"><ele>205.5</ele><time>2026-04-25T08:08:15.32Z</time></trkpt><trkpt lat="43.5066238" lon="11.1894309"><ele>204.0</ele><time>2026-04-25T08:08:16.314Z</time></trkpt><trkpt lat="43.5068669" lon="11.1895045"><ele>204.5</ele><time>2026-04-25T08:08:17.304Z</time></trkpt><trkpt lat="43.507114" lon="11.1895839"><ele>205.0</ele><time>2026-04-25T08:08:18.313Z</time></trkpt><trkpt lat="43.5073612" lon="11.1896573"><ele>205.0</ele><time>2026-04-25T08:08:19.317Z</time></trkpt><trkpt lat="43.5076101" lon="11.1897352"><ele>205.0</ele><time>2026-04-25T08:08:20.32Z</time></trkpt><trkpt lat="43.5078588" lon="11.1898124"><ele>209.0</ele><time>2026-04-25T08:08:21.324Z</time></trkpt><trkpt lat="43.508107" lon="11.1898891"><ele>213.0</ele><time>2026-04-25T08:08:22.323Z</time></trkpt><trkpt lat="43.5083616" lon="11.1899651"><ele>213.0</ele><time>2026-04-25T08:08:23.316Z</time></trkpt><trkpt lat="43.5086166" lon="11.1900482"><ele>213.0</ele><time>2026-04-25T08:08:24.317Z</time></trkpt><trkpt lat="43.5088684" lon="11.1901254"><ele>213.0</ele><time>2026-04-25T08:08:25.321Z</time></trkpt><trkpt lat="43.5091222" lon="11.1902113"><ele>213.0</ele><time>2026-04-25T08:08:26.315Z</time></trkpt><trkpt lat="43.5093765" lon="11.1902882"><ele>211.0</ele><time>2026-04-25T08:08:27.314Z</time></trkpt><trkpt lat="43.5096334" lon="11.1903912"><ele>209.0</ele><time>2026-04-25T08:08:28.321Z</time></trkpt><trkpt lat="43.5098831" lon="11.1905042"><ele>209.0</ele><time>2026-04-25T08:08:29.324Z</time></trkpt><trkpt lat="43.5101294" lon="11.1906284"><ele>209.0</ele><time>2026-04-25T08:08:30.325Z</time></trkpt><trkpt lat="43.5103682" lon="11.1907646"><ele>212.5</ele><time>2026-04-25T08:08:31.321Z</time></trkpt><trkpt lat="43.5106059" lon="11.1909186"><ele>216.0</ele><time>2026-04-25T08:08:32.317Z</time></trkpt><trkpt lat="43.5108345" lon="11.1910813"><ele>216.0</ele><time>2026-04-25T08:08:33.328Z</time></trkpt><trkpt lat="43.5110565" lon="11.1912607"><ele>216.0</ele><time>2026-04-25T08:08:34.317Z</time></trkpt><trkpt lat="43.5112745" lon="11.1914438"><ele>220.0</ele><time>2026-04-25T08:08:35.318Z</time></trkpt><trkpt lat="43.5114882" lon="11.191639"><ele>224.0</ele><time>2026-04-25T08:08:36.313Z</time></trkpt><trkpt lat="43.5117009" lon="11.1918377"><ele>224.0</ele><time>2026-04-25T08:08:37.337Z</time></trkpt><trkpt lat="43.5119112" lon="11.1920299"><ele>224.0</ele><time>2026-04-25T08:08:38.329Z</time></trkpt><trkpt lat="43.5121182" lon="11.1922282"><ele>226.0</ele><time>2026-04-25T08:08:39.334Z</time></trkpt><trkpt lat="43.5123188" lon="11.1924421"><ele>228.0</ele><time>2026-04-25T08:08:40.33Z</time></trkpt><trkpt lat="43.5125056" lon="11.1926822"><ele>228.0</ele><time>2026-04-25T08:08:41.321Z</time></trkpt><trkpt lat="43.5126781" lon="11.1929388"><ele>228.0</ele><time>2026-04-25T08:08:42.321Z</time></trkpt><trkpt lat="43.5128461" lon="11.1932132"><ele>228.0</ele><time>2026-04-25T08:08:43.324Z</time></trkpt><trkpt lat="43.5129915" lon="11.1935018"><ele>228.0</ele><time>2026-04-25T08:08:44.319Z</time></trkpt><trkpt lat="43.5131351" lon="11.1937985"><ele>233.0</ele><time>2026-04-25T08:08:45.328Z</time></trkpt><trkpt lat="43.5132748" lon="11.1940977"><ele>238.0</ele><time>2026-04-25T08:08:46.329Z</time></trkpt><trkpt lat="43.5134024" lon="11.1943982"><ele>238.0</ele><time>2026-04-25T08:08:47.326Z</time></trkpt><trkpt lat="43.5135302" lon="11.1946916"><ele>238.0</ele><time>2026-04-25T08:08:48.317Z</time></trkpt><trkpt lat="43.5136681" lon="11.1949734"><ele>237.5</ele><time>2026-04-25T08:08:49.313Z</time></trkpt><trkpt lat="43.5138295" lon="11.1952497"><ele>237.0</ele><time>2026-04-25T08:08:50.327Z</time></trkpt><trkpt lat="43.5140024" lon="11.19551"><ele>239.5</ele><time>2026-04-25T08:08:51.33Z</time></trkpt><trkpt lat="43.5141825" lon="11.1957552"><ele>242.0</ele><time>2026-04-25T08:08:52.325Z</time></trkpt><trkpt lat="43.5143699" lon="11.195978"><ele>235.0</ele><time>2026-04-25T08:08:53.321Z</time></trkpt><trkpt lat="43.5145811" lon="11.1961823"><ele>228.0</ele><time>2026-04-25T08:08:54.326Z</time></trkpt><trkpt lat="43.5148036" lon="11.196364"><ele>229.5</ele><time>2026-04-25T08:08:55.33Z</time></trkpt><trkpt lat="43.5150317" lon="11.1965273"><ele>231.0</ele><time>2026-04-25T08:08:56.328Z</time></trkpt><trkpt lat="43.5152695" lon="11.1966722"><ele>232.5</ele><time>2026-04-25T08:08:57.314Z</time></trkpt><trkpt lat="43.5155133" lon="11.1968055"><ele>234.0</ele><time>2026-04-25T08:08:58.321Z</time></trkpt><trkpt lat="43.5157603" lon="11.1969125"><ele>234.0</ele><time>2026-04-25T08:08:59.319Z</time></trkpt><trkpt lat="43.5160048" lon="11.1969888"><ele>234.0</ele><time>2026-04-25T08:09:00.323Z</time></trkpt><trkpt lat="43.5162594" lon="11.1970288"><ele>240.0</ele><time>2026-04-25T08:09:01.333Z</time></trkpt><trkpt lat="43.5165226" lon="11.1970539"><ele>246.0</ele><time>2026-04-25T08:09:02.306Z</time></trkpt><trkpt lat="43.5167846" lon="11.1970657"><ele>246.0</ele><time>2026-04-25T08:09:03.322Z</time></trkpt><trkpt lat="43.5170419" lon="11.1970819"><ele>246.0</ele><time>2026-04-25T08:09:04.319Z</time></trkpt><trkpt lat="43.5173003" lon="11.1971079"><ele>249.5</ele><time>2026-04-25T08:09:05.324Z</time></trkpt><trkpt lat="43.5175557" lon="11.197118"><ele>253.0</ele><time>2026-04-25T08:09:06.325Z</time></trkpt><trkpt lat="43.5178079" lon="11.1971334"><ele>254.0</ele><time>2026-04-25T08:09:07.318Z</time></trkpt><trkpt lat="43.518062" lon="11.1971446"><ele>255.0</ele><time>2026-04-25T08:09:08.325Z</time></trkpt><trkpt lat="43.5183145" lon="11.1971604"><ele>255.0</ele><time>2026-04-25T08:09:09.313Z</time></trkpt><trkpt lat="43.5185685" lon="11.1971824"><ele>255.0</ele><time>2026-04-25T08:09:10.321Z</time></trkpt><trkpt lat="43.5188173" lon="11.1972155"><ele>255.5</ele><time>2026-04-25T08:09:11.311Z</time></trkpt><trkpt lat="43.5190682" lon="11.1972662"><ele>256.0</ele><time>2026-04-25T08:09:12.326Z</time></trkpt><trkpt lat="43.5193198" lon="11.1973259"><ele>261.5</ele><time>2026-04-25T08:09:13.304Z</time></trkpt><trkpt lat="43.5195729" lon="11.1973979"><ele>267.0</ele><time>2026-04-25T08:09:14.323Z</time></trkpt><trkpt lat="43.5198233" lon="11.197488"><ele>267.0</ele><time>2026-04-25T08:09:15.317Z</time></trkpt><trkpt lat="43.5200704" lon="11.1975957"><ele>267.0</ele><time>2026-04-25T08:09:16.332Z</time></trkpt><trkpt lat="43.5203163" lon="11.1977192"><ele>264.5</ele><time>2026-04-25T08:09:17.322Z</time></trkpt><trkpt lat="43.5205555" lon="11.197845"><ele>262.0</ele><time>2026-04-25T08:09:18.331Z</time></trkpt><trkpt lat="43.5207914" lon="11.1979745"><ele>262.0</ele><time>2026-04-25T08:09:19.321Z</time></trkpt><trkpt lat="43.5210312" lon="11.1980972"><ele>262.0</ele><time>2026-04-25T08:09:20.3Z</time></trkpt><trkpt lat="43.5212726" lon="11.1982231"><ele>266.5</ele><time>2026-04-25T08:09:21.32Z</time></trkpt><trkpt lat="43.5215106" lon="11.1983503"><ele>271.0</ele><time>2026-04-25T08:09:22.323Z</time></trkpt><trkpt lat="43.5217479" lon="11.198478"><ele>271.0</ele><time>2026-04-25T08:09:23.325Z</time></trkpt><trkpt lat="43.52199" lon="11.1986054"><ele>271.0</ele><time>2026-04-25T08:09:24.321Z</time></trkpt><trkpt lat="43.522233" lon="11.1987379"><ele>269.5</ele><time>2026-04-25T08:09:25.332Z</time></trkpt><trkpt lat="43.522469" lon="11.1988797"><ele>268.0</ele><time>2026-04-25T08:09:26.324Z</time></trkpt><trkpt lat="43.5227056" lon="11.1990239"><ele>270.0</ele><time>2026-04-25T08:09:27.314Z</time></trkpt><trkpt lat="43.522941" lon="11.1991809"><ele>272.0</ele><time>2026-04-25T08:09:28.287Z</time></trkpt><trkpt lat="43.5231707" lon="11.1993436"><ele>272.0</ele><time>2026-04-25T08:09:29.331Z</time></trkpt><trkpt lat="43.5233962" lon="11.1995104"><ele>272.0</ele><time>2026-04-25T08:09:30.304Z</time></trkpt><trkpt lat="43.5236165" lon="11.1996807"><ele>275.0</ele><time>2026-04-25T08:09:31.321Z</time></trkpt><trkpt lat="43.5238409" lon="11.1998713"><ele>278.0</ele><time>2026-04-25T08:09:32.33Z</time></trkpt><trkpt lat="43.5240608" lon="11.2000661"><ele>278.0</ele><time>2026-04-25T08:09:33.321Z</time></trkpt><trkpt lat="43.5242739" lon="11.2002677"><ele>278.0</ele><time>2026-04-25T08:09:34.33Z</time></trkpt><trkpt lat="43.5244817" lon="11.2004725"><ele>280.0</ele><time>2026-04-25T08:09:35.299Z</time></trkpt><trkpt lat="43.5246882" lon="11.2006879"><ele>282.0</ele><time>2026-04-25T08:09:36.322Z</time></trkpt><trkpt lat="43.5248876" lon="11.2009196"><ele>282.0</ele><time>2026-04-25T08:09:37.321Z</time></trkpt><trkpt lat="43.5250772" lon="11.2011511"><ele>282.0</ele><time>2026-04-25T08:09:38.334Z</time></trkpt><trkpt lat="43.5252614" lon="11.2013881"><ele>286.5</ele><time>2026-04-25T08:09:39.319Z</time></trkpt><trkpt lat="43.5254429" lon="11.2016238"><ele>291.0</ele><time>2026-04-25T08:09:40.317Z</time></trkpt><trkpt lat="43.5256148" lon="11.2018806"><ele>291.0</ele><time>2026-04-25T08:09:41.325Z</time></trkpt><trkpt lat="43.5257842" lon="11.2021448"><ele>291.0</ele><time>2026-04-25T08:09:42.334Z</time></trkpt><trkpt lat="43.5259492" lon="11.2024128"><ele>290.5</ele><time>2026-04-25T08:09:43.327Z</time></trkpt><trkpt lat="43.5261052" lon="11.2026887"><ele>290.0</ele><time>2026-04-25T08:09:44.318Z</time></trkpt><trkpt lat="43.5262538" lon="11.2029605"><ele>289.5</ele><time>2026-04-25T08:09:45.312Z</time></trkpt><trkpt lat="43.5263948" lon="11.2032448"><ele>289.0</ele><time>2026-04-25T08:09:46.315Z</time></trkpt><trkpt lat="43.5265289" lon="11.2035262"><ele>289.0</ele><time>2026-04-25T08:09:47.312Z</time></trkpt><trkpt lat="43.5266716" lon="11.2038176"><ele>289.0</ele><time>2026-04-25T08:09:48.323Z</time></trkpt><trkpt lat="43.526809" lon="11.2041115"><ele>290.5</ele><time>2026-04-25T08:09:49.31Z</time></trkpt><trkpt lat="43.526942" lon="11.2044143"><ele>292.0</ele><time>2026-04-25T08:09:50.331Z</time></trkpt><trkpt lat="43.5270703" lon="11.2047189"><ele>288.5</ele><time>2026-04-25T08:09:51.311Z</time></trkpt><trkpt lat="43.5272002" lon="11.2050294"><ele>285.0</ele><time>2026-04-25T08:09:52.311Z</time></trkpt><trkpt lat="43.5273294" lon="11.2053382"><ele>285.0</ele><time>2026-04-25T08:09:53.313Z</time></trkpt><trkpt lat="43.5274606" lon="11.2056487"><ele>285.0</ele><time>2026-04-25T08:09:54.32Z</time></trkpt><trkpt lat="43.5275925" lon="11.2059609"><ele>289.5</ele><time>2026-04-25T08:09:55.31Z</time></trkpt><trkpt lat="43.5277261" lon="11.2062637"><ele>294.0</ele><time>2026-04-25T08:09:56.31Z</time></trkpt><trkpt lat="43.5278629" lon="11.2065677"><ele>294.0</ele><time>2026-04-25T08:09:57.335Z</time></trkpt><trkpt lat="43.527997" lon="11.2068744"><ele>294.0</ele><time>2026-04-25T08:09:58.32Z</time></trkpt><trkpt lat="43.5281289" lon="11.2071739"><ele>292.5</ele><time>2026-04-25T08:09:59.333Z</time></trkpt><trkpt lat="43.5282567" lon="11.2074746"><ele>291.0</ele><time>2026-04-25T08:10:00.328Z</time></trkpt><trkpt lat="43.5283818" lon="11.2077717"><ele>291.0</ele><time>2026-04-25T08:10:01.338Z</time></trkpt><trkpt lat="43.5285112" lon="11.20806"><ele>291.0</ele><time>2026-04-25T08:10:02.323Z</time></trkpt><trkpt lat="43.5286544" lon="11.2083294"><ele>288.0</ele><time>2026-04-25T08:10:03.326Z</time></trkpt><trkpt lat="43.5288094" lon="11.2085936"><ele>285.0</ele><time>2026-04-25T08:10:04.286Z</time></trkpt><trkpt lat="43.5289644" lon="11.2088405"><ele>289.5</ele><time>2026-04-25T08:10:05.33Z</time></trkpt><trkpt lat="43.5291307" lon="11.2090863"><ele>294.0</ele><time>2026-04-25T08:10:06.317Z</time></trkpt><trkpt lat="43.5293089" lon="11.2093249"><ele>294.0</ele><time>2026-04-25T08:10:07.306Z</time></trkpt><trkpt lat="43.5294798" lon="11.2095639"><ele>294.0</ele><time>2026-04-25T08:10:08.316Z</time></trkpt><trkpt lat="43.529647" lon="11.2097955"><ele>292.0</ele><time>2026-04-25T08:10:09.3Z</time></trkpt><trkpt lat="43.5298142" lon="11.2100345"><ele>290.0</ele><time>2026-04-25T08:10:10.312Z</time></trkpt><trkpt lat="43.5299762" lon="11.2102846"><ele>290.0</ele><time>2026-04-25T08:10:11.314Z</time></trkpt><trkpt lat="43.5301209" lon="11.2105541"><ele>290.0</ele><time>2026-04-25T08:10:12.316Z</time></trkpt><trkpt lat="43.5302524" lon="11.2108387"><ele>286.0</ele><time>2026-04-25T08:10:13.325Z</time></trkpt><trkpt lat="43.5303791" lon="11.2111271"><ele>282.0</ele><time>2026-04-25T08:10:14.295Z</time></trkpt><trkpt lat="43.5304966" lon="11.2114355"><ele>285.0</ele><time>2026-04-25T08:10:15.32Z</time></trkpt><trkpt lat="43.5305913" lon="11.2117497"><ele>288.0</ele><time>2026-04-25T08:10:16.33Z</time></trkpt><trkpt lat="43.5306753" lon="11.2120688"><ele>290.0</ele><time>2026-04-25T08:10:17.316Z</time></trkpt><trkpt lat="43.5307612" lon="11.2123867"><ele>292.0</ele><time>2026-04-25T08:10:18.318Z</time></trkpt><trkpt lat="43.5308507" lon="11.2126981"><ele>292.0</ele><time>2026-04-25T08:10:19.321Z</time></trkpt><trkpt lat="43.5309416" lon="11.2130118"><ele>292.0</ele><time>2026-04-25T08:10:20.313Z</time></trkpt><trkpt lat="43.5310393" lon="11.2133221"><ele>292.5</ele><time>2026-04-25T08:10:21.289Z</time></trkpt><trkpt lat="43.5311345" lon="11.2136263"><ele>293.0</ele><time>2026-04-25T08:10:22.318Z</time></trkpt><trkpt lat="43.5312362" lon="11.2139272"><ele>285.0</ele><time>2026-04-25T08:10:23.322Z</time></trkpt><trkpt lat="43.5313586" lon="11.2142135"><ele>277.0</ele><time>2026-04-25T08:10:24.331Z</time></trkpt><trkpt lat="43.5314912" lon="11.2144866"><ele>277.0</ele><time>2026-04-25T08:10:25.322Z</time></trkpt><trkpt lat="43.5316396" lon="11.2147451"><ele>277.0</ele><time>2026-04-25T08:10:26.323Z</time></trkpt><trkpt lat="43.5317947" lon="11.214998"><ele>278.0</ele><time>2026-04-25T08:10:27.32Z</time></trkpt><trkpt lat="43.5319544" lon="11.2152468"><ele>279.0</ele><time>2026-04-25T08:10:28.318Z</time></trkpt><trkpt lat="43.5321184" lon="11.2155029"><ele>288.5</ele><time>2026-04-25T08:10:29.305Z</time></trkpt><trkpt lat="43.5322803" lon="11.2157578"><ele>298.0</ele><time>2026-04-25T08:10:30.324Z</time></trkpt><trkpt lat="43.5324471" lon="11.216024"><ele>298.0</ele><time>2026-04-25T08:10:31.324Z</time></trkpt><trkpt lat="43.5326183" lon="11.2163006"><ele>298.0</ele><time>2026-04-25T08:10:32.327Z</time></trkpt><trkpt lat="43.5327982" lon="11.21659"><ele>303.0</ele><time>2026-04-25T08:10:33.315Z</time></trkpt><trkpt lat="43.5329781" lon="11.2168831"><ele>308.0</ele><time>2026-04-25T08:10:34.316Z</time></trkpt><trkpt lat="43.5331585" lon="11.2171703"><ele>306.5</ele><time>2026-04-25T08:10:35.333Z</time></trkpt><trkpt lat="43.5333379" lon="11.2174626"><ele>305.0</ele><time>2026-04-25T08:10:36.324Z</time></trkpt><trkpt lat="43.533513" lon="11.2177441"><ele>305.0</ele><time>2026-04-25T08:10:37.312Z</time></trkpt><trkpt lat="43.5336909" lon="11.2180213"><ele>305.0</ele><time>2026-04-25T08:10:38.325Z</time></trkpt><trkpt lat="43.5338721" lon="11.218282"><ele>307.5</ele><time>2026-04-25T08:10:39.313Z</time></trkpt><trkpt lat="43.5340577" lon="11.2185347"><ele>310.0</ele><time>2026-04-25T08:10:40.313Z</time></trkpt><trkpt lat="43.5342533" lon="11.2187782"><ele>312.5</ele><time>2026-04-25T08:10:41.323Z</time></trkpt><trkpt lat="43.5344606" lon="11.2190086"><ele>315.0</ele><time>2026-04-25T08:10:42.327Z</time></trkpt><trkpt lat="43.5346759" lon="11.2192275"><ele>315.0</ele><time>2026-04-25T08:10:43.316Z</time></trkpt><trkpt lat="43.5348948" lon="11.2194253"><ele>315.0</ele><time>2026-04-25T08:10:44.326Z</time></trkpt><trkpt lat="43.5351227" lon="11.2196112"><ele>315.0</ele><time>2026-04-25T08:10:45.31Z</time></trkpt><trkpt lat="43.5353563" lon="11.2197882"><ele>315.0</ele><time>2026-04-25T08:10:46.321Z</time></trkpt><trkpt lat="43.5355977" lon="11.2199417"><ele>316.5</ele><time>2026-04-25T08:10:47.322Z</time></trkpt><trkpt lat="43.5358535" lon="11.2200846"><ele>318.0</ele><time>2026-04-25T08:10:48.323Z</time></trkpt><trkpt lat="43.5361068" lon="11.2202089"><ele>320.0</ele><time>2026-04-25T08:10:49.337Z</time></trkpt><trkpt lat="43.5363641" lon="11.2203231"><ele>322.0</ele><time>2026-04-25T08:10:50.291Z</time></trkpt><trkpt lat="43.5366262" lon="11.2204275"><ele>322.0</ele><time>2026-04-25T08:10:51.313Z</time></trkpt><trkpt lat="43.5368905" lon="11.2204963"><ele>322.0</ele><time>2026-04-25T08:10:52.318Z</time></trkpt><trkpt lat="43.5371565" lon="11.2205467"><ele>320.0</ele><time>2026-04-25T08:10:53.324Z</time></trkpt><trkpt lat="43.5374242" lon="11.2205885"><ele>318.0</ele><time>2026-04-25T08:10:54.33Z</time></trkpt><trkpt lat="43.5376858" lon="11.2206057"><ele>315.0</ele><time>2026-04-25T08:10:55.319Z</time></trkpt><trkpt lat="43.5379529" lon="11.2206086"><ele>312.0</ele><time>2026-04-25T08:10:56.334Z</time></trkpt><trkpt lat="43.5382206" lon="11.2205934"><ele>312.0</ele><time>2026-04-25T08:10:57.327Z</time></trkpt><trkpt lat="43.5384897" lon="11.2205541"><ele>312.0</ele><time>2026-04-25T08:10:58.326Z</time></trkpt><trkpt lat="43.5387503" lon="11.2204944"><ele>311.5</ele><time>2026-04-25T08:10:59.315Z</time></trkpt><trkpt lat="43.5390048" lon="11.2204162"><ele>311.0</ele><time>2026-04-25T08:11:00.315Z</time></trkpt><trkpt lat="43.5392665" lon="11.2203307"><ele>311.0</ele><time>2026-04-25T08:11:01.316Z</time></trkpt><trkpt lat="43.5395232" lon="11.2202236"><ele>311.0</ele><time>2026-04-25T08:11:02.328Z</time></trkpt><trkpt lat="43.5397722" lon="11.220095"><ele>310.0</ele><time>2026-04-25T08:11:03.315Z</time></trkpt><trkpt lat="43.5400189" lon="11.2199565"><ele>309.0</ele><time>2026-04-25T08:11:04.319Z</time></trkpt><trkpt lat="43.5402615" lon="11.2197953"><ele>309.0</ele><time>2026-04-25T08:11:05.32Z</time></trkpt><trkpt lat="43.5405004" lon="11.2196216"><ele>309.0</ele><time>2026-04-25T08:11:06.321Z</time></trkpt><trkpt lat="43.5407297" lon="11.219436"><ele>309.0</ele><time>2026-04-25T08:11:07.317Z</time></trkpt><trkpt lat="43.5409551" lon="11.2192278"><ele>309.0</ele><time>2026-04-25T08:11:08.325Z</time></trkpt><trkpt lat="43.5411711" lon="11.2190121"><ele>306.0</ele><time>2026-04-25T08:11:09.321Z</time></trkpt><trkpt lat="43.5413751" lon="11.218771"><ele>303.0</ele><time>2026-04-25T08:11:10.317Z</time></trkpt><trkpt lat="43.541576" lon="11.2185177"><ele>303.0</ele><time>2026-04-25T08:11:11.325Z</time></trkpt><trkpt lat="43.5417714" lon="11.2182551"><ele>303.0</ele><time>2026-04-25T08:11:12.322Z</time></trkpt><trkpt lat="43.5419631" lon="11.2179784"><ele>303.0</ele><time>2026-04-25T08:11:13.313Z</time></trkpt><trkpt lat="43.5421442" lon="11.2176924"><ele>303.0</ele><time>2026-04-25T08:11:14.325Z</time></trkpt><trkpt lat="43.5423225" lon="11.2174001"><ele>299.0</ele><time>2026-04-25T08:11:15.3Z</time></trkpt><trkpt lat="43.5425038" lon="11.2171158"><ele>295.0</ele><time>2026-04-25T08:11:16.316Z</time></trkpt><trkpt lat="43.5426862" lon="11.2168275"><ele>295.0</ele><time>2026-04-25T08:11:17.325Z</time></trkpt><trkpt lat="43.5428661" lon="11.2165472"><ele>295.0</ele><time>2026-04-25T08:11:18.323Z</time></trkpt><trkpt lat="43.5430459" lon="11.2162664"><ele>293.5</ele><time>2026-04-25T08:11:19.315Z</time></trkpt><trkpt lat="43.5432237" lon="11.2159894"><ele>292.0</ele><time>2026-04-25T08:11:20.325Z</time></trkpt><trkpt lat="43.5433953" lon="11.2157103"><ele>290.5</ele><time>2026-04-25T08:11:21.317Z</time></trkpt><trkpt lat="43.5435723" lon="11.2154283"><ele>289.0</ele><time>2026-04-25T08:11:22.323Z</time></trkpt><trkpt lat="43.5437516" lon="11.215154"><ele>292.5</ele><time>2026-04-25T08:11:23.318Z</time></trkpt><trkpt lat="43.543933" lon="11.2148863"><ele>296.0</ele><time>2026-04-25T08:11:24.318Z</time></trkpt><trkpt lat="43.5441153" lon="11.2146171"><ele>296.0</ele><time>2026-04-25T08:11:25.317Z</time></trkpt><trkpt lat="43.5442997" lon="11.2143491"><ele>296.0</ele><time>2026-04-25T08:11:26.33Z</time></trkpt><trkpt lat="43.5444908" lon="11.2140814"><ele>296.0</ele><time>2026-04-25T08:11:27.326Z</time></trkpt><trkpt lat="43.5446828" lon="11.2138186"><ele>296.0</ele><time>2026-04-25T08:11:28.328Z</time></trkpt><trkpt lat="43.5448706" lon="11.2135604"><ele>296.0</ele><time>2026-04-25T08:11:29.323Z</time></trkpt><trkpt lat="43.5450633" lon="11.2133081"><ele>296.0</ele><time>2026-04-25T08:11:30.285Z</time></trkpt><trkpt lat="43.5452552" lon="11.2130664"><ele>295.0</ele><time>2026-04-25T08:11:31.313Z</time></trkpt><trkpt lat="43.5454461" lon="11.2128299"><ele>294.0</ele><time>2026-04-25T08:11:32.296Z</time></trkpt><trkpt lat="43.5456423" lon="11.2125996"><ele>294.0</ele><time>2026-04-25T08:11:33.286Z</time></trkpt><trkpt lat="43.5458392" lon="11.2123752"><ele>294.0</ele><time>2026-04-25T08:11:34.278Z</time></trkpt><trkpt lat="43.5460367" lon="11.2121562"><ele>294.5</ele><time>2026-04-25T08:11:35.284Z</time></trkpt><trkpt lat="43.5462276" lon="11.2119387"><ele>295.0</ele><time>2026-04-25T08:11:36.28Z</time></trkpt><trkpt lat="43.5464248" lon="11.2117158"><ele>295.0</ele><time>2026-04-25T08:11:37.31Z</time></trkpt><trkpt lat="43.5466258" lon="11.2115095"><ele>295.0</ele><time>2026-04-25T08:11:38.329Z</time></trkpt><trkpt lat="43.5468425" lon="11.2113178"><ele>301.5</ele><time>2026-04-25T08:11:39.32Z</time></trkpt><trkpt lat="43.5470686" lon="11.2111347"><ele>308.0</ele><time>2026-04-25T08:11:40.321Z</time></trkpt><trkpt lat="43.5473054" lon="11.2109739"><ele>308.0</ele><time>2026-04-25T08:11:41.316Z</time></trkpt><trkpt lat="43.5475494" lon="11.2108246"><ele>308.0</ele><time>2026-04-25T08:11:42.321Z</time></trkpt><trkpt lat="43.5477984" lon="11.2106926"><ele>305.5</ele><time>2026-04-25T08:11:43.305Z</time></trkpt><trkpt lat="43.5480524" lon="11.2105897"><ele>303.0</ele><time>2026-04-25T08:11:44.325Z</time></trkpt><trkpt lat="43.5483089" lon="11.2104967"><ele>303.0</ele><time>2026-04-25T08:11:45.301Z</time></trkpt><trkpt lat="43.5485659" lon="11.2104305"><ele>303.0</ele><time>2026-04-25T08:11:46.307Z</time></trkpt><trkpt lat="43.5488283" lon="11.2103783"><ele>307.0</ele><time>2026-04-25T08:11:47.324Z</time></trkpt><trkpt lat="43.5490935" lon="11.2103538"><ele>311.0</ele><time>2026-04-25T08:11:48.329Z</time></trkpt><trkpt lat="43.5493578" lon="11.2103466"><ele>310.5</ele><time>2026-04-25T08:11:49.305Z</time></trkpt><trkpt lat="43.549617" lon="11.210355"><ele>310.0</ele><time>2026-04-25T08:11:50.325Z</time></trkpt><trkpt lat="43.5498773" lon="11.2103594"><ele>310.0</ele><time>2026-04-25T08:11:51.302Z</time></trkpt><trkpt lat="43.5501395" lon="11.2103538"><ele>310.0</ele><time>2026-04-25T08:11:52.313Z</time></trkpt><trkpt lat="43.550398" lon="11.2103426"><ele>305.0</ele><time>2026-04-25T08:11:53.32Z</time></trkpt><trkpt lat="43.5506572" lon="11.2103381"><ele>300.0</ele><time>2026-04-25T08:11:54.318Z</time></trkpt><trkpt lat="43.5509151" lon="11.2103348"><ele>300.0</ele><time>2026-04-25T08:11:55.323Z</time></trkpt><trkpt lat="43.5511749" lon="11.2103311"><ele>300.0</ele><time>2026-04-25T08:11:56.307Z</time></trkpt><trkpt lat="43.5514326" lon="11.2103264"><ele>303.0</ele><time>2026-04-25T08:11:57.324Z</time></trkpt><trkpt lat="43.5516907" lon="11.21032"><ele>306.0</ele><time>2026-04-25T08:11:58.307Z</time></trkpt><trkpt lat="43.5519533" lon="11.2103143"><ele>310.0</ele><time>2026-04-25T08:11:59.323Z</time></trkpt><trkpt lat="43.5522154" lon="11.210311"><ele>314.0</ele><time>2026-04-25T08:12:00.321Z</time></trkpt><trkpt lat="43.5524738" lon="11.2103079"><ele>314.0</ele><time>2026-04-25T08:12:01.311Z</time></trkpt><trkpt lat="43.5527337" lon="11.2103015"><ele>314.0</ele><time>2026-04-25T08:12:02.313Z</time></trkpt><trkpt lat="43.5530028" lon="11.2102924"><ele>314.5</ele><time>2026-04-25T08:12:03.315Z</time></trkpt><trkpt lat="43.5532832" lon="11.2102841"><ele>315.0</ele><time>2026-04-25T08:12:04.319Z</time></trkpt><trkpt lat="43.5535564" lon="11.2102795"><ele>316.5</ele><time>2026-04-25T08:12:05.32Z</time></trkpt><trkpt lat="43.553825" lon="11.2102698"><ele>318.0</ele><time>2026-04-25T08:12:06.321Z</time></trkpt><trkpt lat="43.5540868" lon="11.2102678"><ele>318.0</ele><time>2026-04-25T08:12:07.336Z</time></trkpt><trkpt lat="43.5543467" lon="11.2102768"><ele>318.0</ele><time>2026-04-25T08:12:08.319Z</time></trkpt><trkpt lat="43.5546061" lon="11.2103077"><ele>315.0</ele><time>2026-04-25T08:12:09.329Z</time></trkpt><trkpt lat="43.5548589" lon="11.2103507"><ele>312.0</ele><time>2026-04-25T08:12:10.323Z</time></trkpt><trkpt lat="43.5551147" lon="11.210418"><ele>312.0</ele><time>2026-04-25T08:12:11.318Z</time></trkpt><trkpt lat="43.5553652" lon="11.210503"><ele>312.0</ele><time>2026-04-25T08:12:12.29Z</time></trkpt><trkpt lat="43.5556203" lon="11.2106015"><ele>307.5</ele><time>2026-04-25T08:12:13.313Z</time></trkpt><trkpt lat="43.5558681" lon="11.2107287"><ele>303.0</ele><time>2026-04-25T08:12:14.324Z</time></trkpt><trkpt lat="43.5561069" lon="11.2108845"><ele>300.5</ele><time>2026-04-25T08:12:15.314Z</time></trkpt><trkpt lat="43.5563504" lon="11.2110501"><ele>298.0</ele><time>2026-04-25T08:12:16.307Z</time></trkpt><trkpt lat="43.5565813" lon="11.211237"><ele>298.0</ele><time>2026-04-25T08:12:17.311Z</time></trkpt><trkpt lat="43.5568076" lon="11.2114289"><ele>298.0</ele><time>2026-04-25T08:12:18.293Z</time></trkpt><trkpt lat="43.557027" lon="11.2116141"><ele>292.5</ele><time>2026-04-25T08:12:19.317Z</time></trkpt><trkpt lat="43.5572491" lon="11.2118028"><ele>287.0</ele><time>2026-04-25T08:12:20.328Z</time></trkpt><trkpt lat="43.5574708" lon="11.2119759"><ele>287.0</ele><time>2026-04-25T08:12:21.321Z</time></trkpt><trkpt lat="43.5577003" lon="11.2121358"><ele>287.0</ele><time>2026-04-25T08:12:22.312Z</time></trkpt><trkpt lat="43.5579348" lon="11.2122824"><ele>287.5</ele><time>2026-04-25T08:12:23.314Z</time></trkpt><trkpt lat="43.5581835" lon="11.2124109"><ele>288.0</ele><time>2026-04-25T08:12:24.312Z</time></trkpt><trkpt lat="43.558428" lon="11.2125243"><ele>288.0</ele><time>2026-04-25T08:12:25.323Z</time></trkpt><trkpt lat="43.5586814" lon="11.212615"><ele>288.0</ele><time>2026-04-25T08:12:26.313Z</time></trkpt><trkpt lat="43.5589374" lon="11.2126789"><ele>288.0</ele><time>2026-04-25T08:12:27.314Z</time></trkpt><trkpt lat="43.5591945" lon="11.2127249"><ele>288.0</ele><time>2026-04-25T08:12:28.321Z</time></trkpt><trkpt lat="43.5594567" lon="11.2127678"><ele>287.0</ele><time>2026-04-25T08:12:29.333Z</time></trkpt><trkpt lat="43.5597257" lon="11.2128009"><ele>286.0</ele><time>2026-04-25T08:12:30.31Z</time></trkpt><trkpt lat="43.559996" lon="11.2128351"><ele>286.0</ele><time>2026-04-25T08:12:31.312Z</time></trkpt><trkpt lat="43.5602596" lon="11.2128644"><ele>286.0</ele><time>2026-04-25T08:12:32.281Z</time></trkpt><trkpt lat="43.5605236" lon="11.2128997"><ele>282.0</ele><time>2026-04-25T08:12:33.338Z</time></trkpt><trkpt lat="43.5607864" lon="11.2129325"><ele>278.0</ele><time>2026-04-25T08:12:34.307Z</time></trkpt><trkpt lat="43.56105" lon="11.2129669"><ele>277.0</ele><time>2026-04-25T08:12:35.309Z</time></trkpt><trkpt lat="43.5613142" lon="11.2130002"><ele>276.0</ele><time>2026-04-25T08:12:36.311Z</time></trkpt><trkpt lat="43.5615762" lon="11.2130294"><ele>276.0</ele><time>2026-04-25T08:12:37.312Z</time></trkpt><trkpt lat="43.5618354" lon="11.2130572"><ele>276.0</ele><time>2026-04-25T08:12:38.324Z</time></trkpt><trkpt lat="43.5620901" lon="11.2130849"><ele>276.0</ele><time>2026-04-25T08:12:39.321Z</time></trkpt><trkpt lat="43.5623483" lon="11.2131134"><ele>276.0</ele><time>2026-04-25T08:12:40.306Z</time></trkpt><trkpt lat="43.5626089" lon="11.2131438"><ele>268.0</ele><time>2026-04-25T08:12:41.313Z</time></trkpt><trkpt lat="43.5628716" lon="11.2131749"><ele>260.0</ele><time>2026-04-25T08:12:42.323Z</time></trkpt><trkpt lat="43.5631277" lon="11.2132055"><ele>260.0</ele><time>2026-04-25T08:12:43.307Z</time></trkpt><trkpt lat="43.563391" lon="11.2132435"><ele>260.0</ele><time>2026-04-25T08:12:44.322Z</time></trkpt><trkpt lat="43.5636495" lon="11.2132814"><ele>263.0</ele><time>2026-04-25T08:12:45.297Z</time></trkpt><trkpt lat="43.5639094" lon="11.2133092"><ele>266.0</ele><time>2026-04-25T08:12:46.326Z</time></trkpt><trkpt lat="43.5641683" lon="11.213335"><ele>266.0</ele><time>2026-04-25T08:12:47.311Z</time></trkpt><trkpt lat="43.5644289" lon="11.2133465"><ele>266.0</ele><time>2026-04-25T08:12:48.307Z</time></trkpt><trkpt lat="43.5646847" lon="11.2133369"><ele>267.5</ele><time>2026-04-25T08:12:49.305Z</time></trkpt><trkpt lat="43.5649448" lon="11.2133112"><ele>269.0</ele><time>2026-04-25T08:12:50.339Z</time></trkpt><trkpt lat="43.5651985" lon="11.2132604"><ele>266.0</ele><time>2026-04-25T08:12:51.295Z</time></trkpt><trkpt lat="43.5654519" lon="11.2131822"><ele>263.0</ele><time>2026-04-25T08:12:52.317Z</time></trkpt><trkpt lat="43.5656993" lon="11.2130949"><ele>269.0</ele><time>2026-04-25T08:12:53.324Z</time></trkpt><trkpt lat="43.5659449" lon="11.2129878"><ele>275.0</ele><time>2026-04-25T08:12:54.326Z</time></trkpt><trkpt lat="43.5661915" lon="11.2128619"><ele>268.5</ele><time>2026-04-25T08:12:55.313Z</time></trkpt><trkpt lat="43.5664336" lon="11.2127134"><ele>262.0</ele><time>2026-04-25T08:12:56.304Z</time></trkpt><trkpt lat="43.5666577" lon="11.2125468"><ele>262.0</ele><time>2026-04-25T08:12:57.314Z</time></trkpt><trkpt lat="43.5668796" lon="11.2123568"><ele>262.0</ele><time>2026-04-25T08:12:58.315Z</time></trkpt><trkpt lat="43.5670904" lon="11.2121424"><ele>251.0</ele><time>2026-04-25T08:12:59.324Z</time></trkpt><trkpt lat="43.5672978" lon="11.2119231"><ele>240.0</ele><time>2026-04-25T08:13:00.327Z</time></trkpt><trkpt lat="43.5675048" lon="11.2116986"><ele>239.5</ele><time>2026-04-25T08:13:01.309Z</time></trkpt><trkpt lat="43.5677089" lon="11.2114764"><ele>239.0</ele><time>2026-04-25T08:13:02.329Z</time></trkpt><trkpt lat="43.567907" lon="11.2112563"><ele>239.0</ele><time>2026-04-25T08:13:03.302Z</time></trkpt><trkpt lat="43.568105" lon="11.211035"><ele>239.0</ele><time>2026-04-25T08:13:04.317Z</time></trkpt><trkpt lat="43.5683066" lon="11.2108141"><ele>238.0</ele><time>2026-04-25T08:13:05.307Z</time></trkpt><trkpt lat="43.5685057" lon="11.2105927"><ele>237.0</ele><time>2026-04-25T08:13:06.315Z</time></trkpt><trkpt lat="43.5687063" lon="11.2103746"><ele>237.0</ele><time>2026-04-25T08:13:07.322Z</time></trkpt><trkpt lat="43.5689073" lon="11.2101554"><ele>237.0</ele><time>2026-04-25T08:13:08.323Z</time></trkpt><trkpt lat="43.5691084" lon="11.2099333"><ele>243.0</ele><time>2026-04-25T08:13:09.325Z</time></trkpt><trkpt lat="43.5693074" lon="11.2097182"><ele>249.0</ele><time>2026-04-25T08:13:10.322Z</time></trkpt><trkpt lat="43.5695136" lon="11.2094937"><ele>240.0</ele><time>2026-04-25T08:13:11.319Z</time></trkpt><trkpt lat="43.5697177" lon="11.2092664"><ele>231.0</ele><time>2026-04-25T08:13:12.318Z</time></trkpt><trkpt lat="43.5699269" lon="11.2090443"><ele>236.0</ele><time>2026-04-25T08:13:13.326Z</time></trkpt><trkpt lat="43.5701381" lon="11.2088216"><ele>241.0</ele><time>2026-04-25T08:13:14.319Z</time></trkpt><trkpt lat="43.5703549" lon="11.2085937"><ele>234.5</ele><time>2026-04-25T08:13:15.323Z</time></trkpt><trkpt lat="43.5705739" lon="11.2083673"><ele>228.0</ele><time>2026-04-25T08:13:16.317Z</time></trkpt><trkpt lat="43.5708036" lon="11.208171"><ele>223.5</ele><time>2026-04-25T08:13:17.328Z</time></trkpt><trkpt lat="43.5710327" lon="11.2079945"><ele>219.0</ele><time>2026-04-25T08:13:18.305Z</time></trkpt><trkpt lat="43.5712705" lon="11.2078398"><ele>219.0</ele><time>2026-04-25T08:13:19.318Z</time></trkpt><trkpt lat="43.5715156" lon="11.2076921"><ele>219.0</ele><time>2026-04-25T08:13:20.318Z</time></trkpt><trkpt lat="43.5717556" lon="11.2075425"><ele>219.0</ele><time>2026-04-25T08:13:21.318Z</time></trkpt><trkpt lat="43.5720003" lon="11.2074047"><ele>219.0</ele><time>2026-04-25T08:13:22.314Z</time></trkpt><trkpt lat="43.5722436" lon="11.207267"><ele>217.0</ele><time>2026-04-25T08:13:23.322Z</time></trkpt><trkpt lat="43.5724924" lon="11.2071269"><ele>215.0</ele><time>2026-04-25T08:13:24.331Z</time></trkpt><trkpt lat="43.5727392" lon="11.2069913"><ele>217.0</ele><time>2026-04-25T08:13:25.313Z</time></trkpt><trkpt lat="43.5729856" lon="11.2068543"><ele>219.0</ele><time>2026-04-25T08:13:26.323Z</time></trkpt><trkpt lat="43.5732313" lon="11.2067142"><ele>219.0</ele><time>2026-04-25T08:13:27.314Z</time></trkpt><trkpt lat="43.573476" lon="11.2065794"><ele>219.0</ele><time>2026-04-25T08:13:28.313Z</time></trkpt><trkpt lat="43.5737226" lon="11.2064384"><ele>224.5</ele><time>2026-04-25T08:13:29.323Z</time></trkpt><trkpt lat="43.5739685" lon="11.2062963"><ele>230.0</ele><time>2026-04-25T08:13:30.329Z</time></trkpt><trkpt lat="43.5742167" lon="11.2061522"><ele>230.0</ele><time>2026-04-25T08:13:31.304Z</time></trkpt><trkpt lat="43.5744608" lon="11.2060057"><ele>230.0</ele><time>2026-04-25T08:13:32.338Z</time></trkpt><trkpt lat="43.5747056" lon="11.2058653"><ele>224.0</ele><time>2026-04-25T08:13:33.326Z</time></trkpt><trkpt lat="43.5749576" lon="11.2057269"><ele>218.0</ele><time>2026-04-25T08:13:34.318Z</time></trkpt><trkpt lat="43.5752112" lon="11.2055936"><ele>213.5</ele><time>2026-04-25T08:13:35.287Z</time></trkpt><trkpt lat="43.5754636" lon="11.2054595"><ele>209.0</ele><time>2026-04-25T08:13:36.304Z</time></trkpt><trkpt lat="43.5757162" lon="11.2053206"><ele>209.0</ele><time>2026-04-25T08:13:37.307Z</time></trkpt><trkpt lat="43.5759797" lon="11.2051878"><ele>209.0</ele><time>2026-04-25T08:13:38.312Z</time></trkpt><trkpt lat="43.5762477" lon="11.2050571"><ele>208.5</ele><time>2026-04-25T08:13:39.306Z</time></trkpt><trkpt lat="43.5765206" lon="11.2049293"><ele>208.0</ele><time>2026-04-25T08:13:40.321Z</time></trkpt><trkpt lat="43.5767923" lon="11.2048094"><ele>205.0</ele><time>2026-04-25T08:13:41.315Z</time></trkpt><trkpt lat="43.5770662" lon="11.2046985"><ele>202.0</ele><time>2026-04-25T08:13:42.297Z</time></trkpt><trkpt lat="43.5773372" lon="11.2045922"><ele>202.0</ele><time>2026-04-25T08:13:43.301Z</time></trkpt><trkpt lat="43.5776098" lon="11.2044847"><ele>202.0</ele><time>2026-04-25T08:13:44.323Z</time></trkpt><trkpt lat="43.5778794" lon="11.2043863"><ele>199.0</ele><time>2026-04-25T08:13:45.327Z</time></trkpt><trkpt lat="43.5781521" lon="11.2042962"><ele>196.0</ele><time>2026-04-25T08:13:46.311Z</time></trkpt><trkpt lat="43.5784182" lon="11.20421"><ele>191.5</ele><time>2026-04-25T08:13:47.332Z</time></trkpt><trkpt lat="43.5786871" lon="11.204131"><ele>187.0</ele><time>2026-04-25T08:13:48.309Z</time></trkpt><trkpt lat="43.5789585" lon="11.2040496"><ele>196.0</ele><time>2026-04-25T08:13:49.316Z</time></trkpt><trkpt lat="43.5792302" lon="11.2039667"><ele>205.0</ele><time>2026-04-25T08:13:50.315Z</time></trkpt><trkpt lat="43.5794999" lon="11.2038881"><ele>199.5</ele><time>2026-04-25T08:13:51.311Z</time></trkpt><trkpt lat="43.5797688" lon="11.2038062"><ele>194.0</ele><time>2026-04-25T08:13:52.32Z</time></trkpt><trkpt lat="43.5800409" lon="11.2037247"><ele>194.0</ele><time>2026-04-25T08:13:53.325Z</time></trkpt><trkpt lat="43.5803141" lon="11.2036424"><ele>194.0</ele><time>2026-04-25T08:13:54.321Z</time></trkpt><trkpt lat="43.5805903" lon="11.2035565"><ele>189.5</ele><time>2026-04-25T08:13:55.323Z</time></trkpt><trkpt lat="43.580863" lon="11.2034656"><ele>185.0</ele><time>2026-04-25T08:13:56.325Z</time></trkpt><trkpt lat="43.5811347" lon="11.2033781"><ele>182.5</ele><time>2026-04-25T08:13:57.325Z</time></trkpt><trkpt lat="43.5814059" lon="11.2032944"><ele>180.0</ele><time>2026-04-25T08:13:58.319Z</time></trkpt><trkpt lat="43.581675" lon="11.2032108"><ele>181.0</ele><time>2026-04-25T08:13:59.314Z</time></trkpt><trkpt lat="43.5819387" lon="11.2031283"><ele>182.0</ele><time>2026-04-25T08:14:00.326Z</time></trkpt><trkpt lat="43.5822059" lon="11.20304"><ele>182.0</ele><time>2026-04-25T08:14:01.321Z</time></trkpt><trkpt lat="43.5824773" lon="11.2029607"><ele>182.0</ele><time>2026-04-25T08:14:02.329Z</time></trkpt><trkpt lat="43.5827512" lon="11.2028839"><ele>179.0</ele><time>2026-04-25T08:14:03.335Z</time></trkpt><trkpt lat="43.5830217" lon="11.2028024"><ele>176.0</ele><time>2026-04-25T08:14:04.32Z</time></trkpt><trkpt lat="43.583293" lon="11.202718"><ele>176.0</ele><time>2026-04-25T08:14:05.323Z</time></trkpt><trkpt lat="43.5835638" lon="11.2026327"><ele>176.0</ele><time>2026-04-25T08:14:06.328Z</time></trkpt><trkpt lat="43.5838381" lon="11.2025462"><ele>175.0</ele><time>2026-04-25T08:14:07.319Z</time></trkpt><trkpt lat="43.5841069" lon="11.2024609"><ele>174.0</ele><time>2026-04-25T08:14:08.309Z</time></trkpt><trkpt lat="43.5843758" lon="11.2023843"><ele>174.5</ele><time>2026-04-25T08:14:09.319Z</time></trkpt><trkpt lat="43.5846438" lon="11.2023054"><ele>175.0</ele><time>2026-04-25T08:14:10.324Z</time></trkpt><trkpt lat="43.5849122" lon="11.2022248"><ele>175.0</ele><time>2026-04-25T08:14:11.296Z</time></trkpt><trkpt lat="43.5851776" lon="11.2021446"><ele>175.0</ele><time>2026-04-25T08:14:12.325Z</time></trkpt><trkpt lat="43.5854468" lon="11.2020654"><ele>175.0</ele><time>2026-04-25T08:14:13.329Z</time></trkpt><trkpt lat="43.5857159" lon="11.2019851"><ele>175.0</ele><time>2026-04-25T08:14:14.326Z</time></trkpt><trkpt lat="43.5859863" lon="11.2019105"><ele>172.5</ele><time>2026-04-25T08:14:15.321Z</time></trkpt><trkpt lat="43.5862566" lon="11.20183"><ele>170.0</ele><time>2026-04-25T08:14:16.295Z</time></trkpt><trkpt lat="43.5865289" lon="11.2017488"><ele>170.0</ele><time>2026-04-25T08:14:17.306Z</time></trkpt><trkpt lat="43.5868064" lon="11.2016591"><ele>170.0</ele><time>2026-04-25T08:14:18.322Z</time></trkpt><trkpt lat="43.5870808" lon="11.2015762"><ele>169.5</ele><time>2026-04-25T08:14:19.315Z</time></trkpt><trkpt lat="43.5873553" lon="11.201486"><ele>169.0</ele><time>2026-04-25T08:14:20.32Z</time></trkpt><trkpt lat="43.5876243" lon="11.2013925"><ele>167.0</ele><time>2026-04-25T08:14:21.312Z</time></trkpt><trkpt lat="43.5878984" lon="11.2012915"><ele>165.0</ele><time>2026-04-25T08:14:22.311Z</time></trkpt><trkpt lat="43.5881692" lon="11.2011819"><ele>165.0</ele><time>2026-04-25T08:14:23.305Z</time></trkpt><trkpt lat="43.5884343" lon="11.201058"><ele>165.0</ele><time>2026-04-25T08:14:24.323Z</time></trkpt><trkpt lat="43.5886998" lon="11.2009218"><ele>165.0</ele><time>2026-04-25T08:14:25.31Z</time></trkpt><trkpt lat="43.5889628" lon="11.2007843"><ele>165.0</ele><time>2026-04-25T08:14:26.316Z</time></trkpt><trkpt lat="43.5892264" lon="11.2006418"><ele>165.0</ele><time>2026-04-25T08:14:27.329Z</time></trkpt><trkpt lat="43.5894907" lon="11.2005144"><ele>165.0</ele><time>2026-04-25T08:14:28.315Z</time></trkpt><trkpt lat="43.5897503" lon="11.2003866"><ele>163.0</ele><time>2026-04-25T08:14:29.319Z</time></trkpt><trkpt lat="43.5900148" lon="11.2002614"><ele>161.0</ele><time>2026-04-25T08:14:30.332Z</time></trkpt><trkpt lat="43.5902775" lon="11.2001301"><ele>160.5</ele><time>2026-04-25T08:14:31.309Z</time></trkpt><trkpt lat="43.5905376" lon="11.2000035"><ele>160.0</ele><time>2026-04-25T08:14:32.292Z</time></trkpt><trkpt lat="43.590795" lon="11.1998707"><ele>160.5</ele><time>2026-04-25T08:14:33.316Z</time></trkpt><trkpt lat="43.5910538" lon="11.1997443"><ele>161.0</ele><time>2026-04-25T08:14:34.324Z</time></trkpt><trkpt lat="43.5913095" lon="11.1996142"><ele>161.0</ele><time>2026-04-25T08:14:35.307Z</time></trkpt><trkpt lat="43.5915663" lon="11.1994896"><ele>161.0</ele><time>2026-04-25T08:14:36.317Z</time></trkpt><trkpt lat="43.591823" lon="11.1993585"><ele>161.0</ele><time>2026-04-25T08:14:37.323Z</time></trkpt><trkpt lat="43.5920782" lon="11.199235"><ele>161.0</ele><time>2026-04-25T08:14:38.322Z</time></trkpt><trkpt lat="43.5923303" lon="11.1991014"><ele>163.5</ele><time>2026-04-25T08:14:39.324Z</time></trkpt><trkpt lat="43.5925768" lon="11.1989628"><ele>166.0</ele><time>2026-04-25T08:14:40.335Z</time></trkpt><trkpt lat="43.5928188" lon="11.1988198"><ele>164.5</ele><time>2026-04-25T08:14:41.323Z</time></trkpt><trkpt lat="43.5930464" lon="11.1986724"><ele>163.0</ele><time>2026-04-25T08:14:42.327Z</time></trkpt><trkpt lat="43.5932712" lon="11.1985255"><ele>163.0</ele><time>2026-04-25T08:14:43.327Z</time></trkpt><trkpt lat="43.5934884" lon="11.1983727"><ele>163.0</ele><time>2026-04-25T08:14:44.325Z</time></trkpt><trkpt lat="43.5936951" lon="11.1982122"><ele>162.5</ele><time>2026-04-25T08:14:45.322Z</time></trkpt><trkpt lat="43.5938932" lon="11.198043"><ele>162.0</ele><time>2026-04-25T08:14:46.329Z</time></trkpt><trkpt lat="43.5940857" lon="11.1978725"><ele>162.0</ele><time>2026-04-25T08:14:47.319Z</time></trkpt><trkpt lat="43.5942712" lon="11.1977024"><ele>162.0</ele><time>2026-04-25T08:14:48.323Z</time></trkpt><trkpt lat="43.5944559" lon="11.1975291"><ele>162.0</ele><time>2026-04-25T08:14:49.325Z</time></trkpt><trkpt lat="43.5946342" lon="11.1973511"><ele>161.33333333333334</ele><time>2026-04-25T08:14:50.324Z</time></trkpt><trkpt lat="43.5948141" lon="11.1971875"><ele>160.66666666666669</ele><time>2026-04-25T08:14:51.324Z</time></trkpt><trkpt lat="43.5949932" lon="11.197013"><ele>160.0</ele><time>2026-04-25T08:14:52.325Z</time></trkpt><trkpt lat="43.5951738" lon="11.1968456"><ele>160.5</ele><time>2026-04-25T08:14:53.319Z</time></trkpt><trkpt lat="43.5953632" lon="11.196665"><ele>161.0</ele><time>2026-04-25T08:14:54.319Z</time></trkpt><trkpt lat="43.5955538" lon="11.1964815"><ele>161.0</ele><time>2026-04-25T08:14:55.312Z</time></trkpt><trkpt lat="43.5957531" lon="11.1963033"><ele>161.0</ele><time>2026-04-25T08:14:56.293Z</time></trkpt><trkpt lat="43.5959508" lon="11.1961229"><ele>161.0</ele><time>2026-04-25T08:14:57.316Z</time></trkpt><trkpt lat="43.5961524" lon="11.1959436"><ele>161.0</ele><time>2026-04-25T08:14:58.324Z</time></trkpt><trkpt lat="43.5963508" lon="11.1957576"><ele>162.0</ele><time>2026-04-25T08:14:59.326Z</time></trkpt><trkpt lat="43.5965539" lon="11.1955623"><ele>163.0</ele><time>2026-04-25T08:15:00.313Z</time></trkpt><trkpt lat="43.5967602" lon="11.1953707"><ele>163.0</ele><time>2026-04-25T08:15:01.32Z</time></trkpt><trkpt lat="43.5969635" lon="11.1951806"><ele>163.0</ele><time>2026-04-25T08:15:02.324Z</time></trkpt><trkpt lat="43.5971753" lon="11.1949936"><ele>160.5</ele><time>2026-04-25T08:15:03.315Z</time></trkpt><trkpt lat="43.5973937" lon="11.1948246"><ele>158.0</ele><time>2026-04-25T08:15:04.288Z</time></trkpt><trkpt lat="43.5976114" lon="11.1946643"><ele>155.5</ele><time>2026-04-25T08:15:05.326Z</time></trkpt><trkpt lat="43.5978358" lon="11.1945053"><ele>153.0</ele><time>2026-04-25T08:15:06.334Z</time></trkpt><trkpt lat="43.5980629" lon="11.1943515"><ele>153.0</ele><time>2026-04-25T08:15:07.327Z</time></trkpt><trkpt lat="43.5983016" lon="11.1942157"><ele>153.0</ele><time>2026-04-25T08:15:08.313Z</time></trkpt><trkpt lat="43.5985448" lon="11.1940859"><ele>152.0</ele><time>2026-04-25T08:15:09.336Z</time></trkpt><trkpt lat="43.5987956" lon="11.19396"><ele>151.0</ele><time>2026-04-25T08:15:10.319Z</time></trkpt><trkpt lat="43.5990478" lon="11.193848"><ele>151.0</ele><time>2026-04-25T08:15:11.303Z</time></trkpt><trkpt lat="43.5993036" lon="11.1937366"><ele>151.0</ele><time>2026-04-25T08:15:12.324Z</time></trkpt><trkpt lat="43.5995571" lon="11.1936283"><ele>151.5</ele><time>2026-04-25T08:15:13.322Z</time></trkpt><trkpt lat="43.5998132" lon="11.1935237"><ele>152.0</ele><time>2026-04-25T08:15:14.32Z</time></trkpt><trkpt lat="43.6000732" lon="11.1934258"><ele>152.0</ele><time>2026-04-25T08:15:15.326Z</time></trkpt><trkpt lat="43.6003256" lon="11.1933222"><ele>152.0</ele><time>2026-04-25T08:15:16.323Z</time></trkpt><trkpt lat="43.6005793" lon="11.1932187"><ele>152.0</ele><time>2026-04-25T08:15:17.33Z</time></trkpt><trkpt lat="43.6008307" lon="11.1931146"><ele>152.0</ele><time>2026-04-25T08:15:18.315Z</time></trkpt><trkpt lat="43.6010834" lon="11.1930131"><ele>151.5</ele><time>2026-04-25T08:15:19.321Z</time></trkpt><trkpt lat="43.6013352" lon="11.1929075"><ele>151.0</ele><time>2026-04-25T08:15:20.309Z</time></trkpt><trkpt lat="43.601587" lon="11.1928064"><ele>151.0</ele><time>2026-04-25T08:15:21.285Z</time></trkpt><trkpt lat="43.6018364" lon="11.1927058"><ele>151.0</ele><time>2026-04-25T08:15:22.327Z</time></trkpt><trkpt lat="43.6020913" lon="11.1926019"><ele>150.0</ele><time>2026-04-25T08:15:23.312Z</time></trkpt><trkpt lat="43.6023445" lon="11.1925027"><ele>149.0</ele><time>2026-04-25T08:15:24.32Z</time></trkpt><trkpt lat="43.6025993" lon="11.1924027"><ele>150.0</ele><time>2026-04-25T08:15:25.325Z</time></trkpt><trkpt lat="43.6028538" lon="11.1923025"><ele>151.0</ele><time>2026-04-25T08:15:26.317Z</time></trkpt><trkpt lat="43.6031066" lon="11.1921991"><ele>151.0</ele><time>2026-04-25T08:15:27.315Z</time></trkpt><trkpt lat="43.6033585" lon="11.1920965"><ele>151.0</ele><time>2026-04-25T08:15:28.328Z</time></trkpt><trkpt lat="43.6036106" lon="11.1919926"><ele>151.0</ele><time>2026-04-25T08:15:29.314Z</time></trkpt><trkpt lat="43.6038644" lon="11.191892"><ele>151.0</ele><time>2026-04-25T08:15:30.318Z</time></trkpt><trkpt lat="43.6041215" lon="11.1917961"><ele>151.0</ele><time>2026-04-25T08:15:31.314Z</time></trkpt><trkpt lat="43.6043849" lon="11.1917167"><ele>151.0</ele><time>2026-04-25T08:15:32.32Z</time></trkpt><trkpt lat="43.6046485" lon="11.191645"><ele>151.0</ele><time>2026-04-25T08:15:33.316Z</time></trkpt><trkpt lat="43.6049109" lon="11.191593"><ele>151.0</ele><time>2026-04-25T08:15:34.308Z</time></trkpt><trkpt lat="43.6051794" lon="11.1915431"><ele>149.0</ele><time>2026-04-25T08:15:35.32Z</time></trkpt><trkpt lat="43.6054432" lon="11.191506"><ele>147.0</ele><time>2026-04-25T08:15:36.305Z</time></trkpt><trkpt lat="43.6057053" lon="11.1914744"><ele>147.0</ele><time>2026-04-25T08:15:37.335Z</time></trkpt><trkpt lat="43.605968" lon="11.1914452"><ele>147.0</ele><time>2026-04-25T08:15:38.311Z</time></trkpt><trkpt lat="43.6062327" lon="11.191422"><ele>146.5</ele><time>2026-04-25T08:15:39.326Z</time></trkpt><trkpt lat="43.6064998" lon="11.1913946"><ele>146.0</ele><time>2026-04-25T08:15:40.324Z</time></trkpt><trkpt lat="43.6067688" lon="11.1913618"><ele>145.5</ele><time>2026-04-25T08:15:41.321Z</time></trkpt><trkpt lat="43.6070393" lon="11.1913315"><ele>145.0</ele><time>2026-04-25T08:15:42.311Z</time></trkpt><trkpt lat="43.6073145" lon="11.1912983"><ele>145.0</ele><time>2026-04-25T08:15:43.312Z</time></trkpt><trkpt lat="43.6075943" lon="11.1912704"><ele>145.0</ele><time>2026-04-25T08:15:44.321Z</time></trkpt><trkpt lat="43.6078732" lon="11.1912403"><ele>146.0</ele><time>2026-04-25T08:15:45.326Z</time></trkpt><trkpt lat="43.6081532" lon="11.1912038"><ele>147.0</ele><time>2026-04-25T08:15:46.317Z</time></trkpt><trkpt lat="43.6084315" lon="11.1911688"><ele>147.0</ele><time>2026-04-25T08:15:47.313Z</time></trkpt><trkpt lat="43.6087113" lon="11.1911327"><ele>147.0</ele><time>2026-04-25T08:15:48.327Z</time></trkpt><trkpt lat="43.6089886" lon="11.191099"><ele>147.0</ele><time>2026-04-25T08:15:49.331Z</time></trkpt><trkpt lat="43.6092634" lon="11.191068"><ele>147.0</ele><time>2026-04-25T08:15:50.329Z</time></trkpt><trkpt lat="43.6095374" lon="11.1910343"><ele>145.5</ele><time>2026-04-25T08:15:51.33Z</time></trkpt><trkpt lat="43.6098096" lon="11.1910096"><ele>144.0</ele><time>2026-04-25T08:15:52.32Z</time></trkpt><trkpt lat="43.6100813" lon="11.1909799"><ele>143.5</ele><time>2026-04-25T08:15:53.335Z</time></trkpt><trkpt lat="43.6103547" lon="11.1909542"><ele>143.0</ele><time>2026-04-25T08:15:54.336Z</time></trkpt><trkpt lat="43.610626" lon="11.1909217"><ele>143.0</ele><time>2026-04-25T08:15:55.322Z</time></trkpt><trkpt lat="43.6108934" lon="11.1908862"><ele>143.0</ele><time>2026-04-25T08:15:56.309Z</time></trkpt><trkpt lat="43.6111588" lon="11.1908621"><ele>143.5</ele><time>2026-04-25T08:15:57.318Z</time></trkpt><trkpt lat="43.6114247" lon="11.1908241"><ele>144.0</ele><time>2026-04-25T08:15:58.32Z</time></trkpt><trkpt lat="43.6116872" lon="11.190775"><ele>144.0</ele><time>2026-04-25T08:15:59.328Z</time></trkpt><trkpt lat="43.6119531" lon="11.190724"><ele>144.0</ele><time>2026-04-25T08:16:00.3Z</time></trkpt><trkpt lat="43.6122182" lon="11.1906596"><ele>143.5</ele><time>2026-04-25T08:16:01.33Z</time></trkpt><trkpt lat="43.6124781" lon="11.1905835"><ele>143.0</ele><time>2026-04-25T08:16:02.319Z</time></trkpt><trkpt lat="43.6127367" lon="11.1905041"><ele>143.5</ele><time>2026-04-25T08:16:03.323Z</time></trkpt><trkpt lat="43.6129946" lon="11.1904138"><ele>144.0</ele><time>2026-04-25T08:16:04.325Z</time></trkpt><trkpt lat="43.6132498" lon="11.1903162"><ele>144.0</ele><time>2026-04-25T08:16:05.319Z</time></trkpt><trkpt lat="43.6134988" lon="11.1902017"><ele>144.0</ele><time>2026-04-25T08:16:06.333Z</time></trkpt><trkpt lat="43.6137442" lon="11.1900817"><ele>144.0</ele><time>2026-04-25T08:16:07.325Z</time></trkpt><trkpt lat="43.6139907" lon="11.1899383"><ele>144.0</ele><time>2026-04-25T08:16:08.311Z</time></trkpt><trkpt lat="43.6142381" lon="11.1897879"><ele>142.5</ele><time>2026-04-25T08:16:09.325Z</time></trkpt><trkpt lat="43.6144844" lon="11.1896389"><ele>141.0</ele><time>2026-04-25T08:16:10.33Z</time></trkpt><trkpt lat="43.6147303" lon="11.1894922"><ele>141.0</ele><time>2026-04-25T08:16:11.327Z</time></trkpt><trkpt lat="43.6149714" lon="11.1893516"><ele>141.0</ele><time>2026-04-25T08:16:12.335Z</time></trkpt><trkpt lat="43.6152122" lon="11.1892078"><ele>141.5</ele><time>2026-04-25T08:16:13.335Z</time></trkpt><trkpt lat="43.6154564" lon="11.1890668"><ele>142.0</ele><time>2026-04-25T08:16:14.328Z</time></trkpt><trkpt lat="43.6157001" lon="11.1889244"><ele>142.0</ele><time>2026-04-25T08:16:15.334Z</time></trkpt><trkpt lat="43.6159419" lon="11.1887858"><ele>142.0</ele><time>2026-04-25T08:16:16.325Z</time></trkpt><trkpt lat="43.6161818" lon="11.188645"><ele>143.0</ele><time>2026-04-25T08:16:17.328Z</time></trkpt><trkpt lat="43.6164252" lon="11.1885039"><ele>144.0</ele><time>2026-04-25T08:16:18.323Z</time></trkpt><trkpt lat="43.6166687" lon="11.1883635"><ele>144.0</ele><time>2026-04-25T08:16:19.324Z</time></trkpt><trkpt lat="43.6169128" lon="11.188216"><ele>144.0</ele><time>2026-04-25T08:16:20.333Z</time></trkpt><trkpt lat="43.617155" lon="11.1880784"><ele>142.5</ele><time>2026-04-25T08:16:21.326Z</time></trkpt><trkpt lat="43.6173982" lon="11.1879344"><ele>141.0</ele><time>2026-04-25T08:16:22.323Z</time></trkpt><trkpt lat="43.617642" lon="11.1877874"><ele>140.5</ele><time>2026-04-25T08:16:23.321Z</time></trkpt><trkpt lat="43.617881" lon="11.1876507"><ele>140.0</ele><time>2026-04-25T08:16:24.324Z</time></trkpt><trkpt lat="43.6181224" lon="11.1875051"><ele>140.0</ele><time>2026-04-25T08:16:25.32Z</time></trkpt><trkpt lat="43.6183612" lon="11.1873644"><ele>140.0</ele><time>2026-04-25T08:16:26.32Z</time></trkpt><trkpt lat="43.6185981" lon="11.1872311"><ele>138.5</ele><time>2026-04-25T08:16:27.304Z</time></trkpt><trkpt lat="43.6188344" lon="11.1870949"><ele>137.0</ele><time>2026-04-25T08:16:28.326Z</time></trkpt><trkpt lat="43.6190707" lon="11.1869555"><ele>137.0</ele><time>2026-04-25T08:16:29.294Z</time></trkpt><trkpt lat="43.6193109" lon="11.1868164"><ele>137.0</ele><time>2026-04-25T08:16:30.327Z</time></trkpt><trkpt lat="43.6195511" lon="11.186672"><ele>137.5</ele><time>2026-04-25T08:16:31.323Z</time></trkpt><trkpt lat="43.6197991" lon="11.1865195"><ele>138.0</ele><time>2026-04-25T08:16:32.321Z</time></trkpt><trkpt lat="43.6200502" lon="11.1863752"><ele>137.0</ele><time>2026-04-25T08:16:33.311Z</time></trkpt><trkpt lat="43.620302" lon="11.1862297"><ele>136.0</ele><time>2026-04-25T08:16:34.318Z</time></trkpt><trkpt lat="43.6205495" lon="11.1860794"><ele>136.0</ele><time>2026-04-25T08:16:35.315Z</time></trkpt><trkpt lat="43.6207995" lon="11.1859385"><ele>136.0</ele><time>2026-04-25T08:16:36.311Z</time></trkpt><trkpt lat="43.6210532" lon="11.1857906"><ele>135.5</ele><time>2026-04-25T08:16:37.317Z</time></trkpt><trkpt lat="43.6213072" lon="11.1856508"><ele>135.0</ele><time>2026-04-25T08:16:38.318Z</time></trkpt><trkpt lat="43.6215573" lon="11.185507"><ele>135.0</ele><time>2026-04-25T08:16:39.328Z</time></trkpt><trkpt lat="43.6218085" lon="11.1853637"><ele>135.0</ele><time>2026-04-25T08:16:40.333Z</time></trkpt><trkpt lat="43.62206" lon="11.1852218"><ele>135.0</ele><time>2026-04-25T08:16:41.321Z</time></trkpt><trkpt lat="43.6223136" lon="11.1850735"><ele>135.0</ele><time>2026-04-25T08:16:42.325Z</time></trkpt><trkpt lat="43.6225675" lon="11.184927"><ele>136.0</ele><time>2026-04-25T08:16:43.317Z</time></trkpt><trkpt lat="43.6228172" lon="11.1847774"><ele>137.0</ele><time>2026-04-25T08:16:44.328Z</time></trkpt><trkpt lat="43.6230677" lon="11.18463"><ele>137.0</ele><time>2026-04-25T08:16:45.322Z</time></trkpt><trkpt lat="43.6233185" lon="11.1844807"><ele>137.0</ele><time>2026-04-25T08:16:46.323Z</time></trkpt><trkpt lat="43.6235702" lon="11.1843312"><ele>138.5</ele><time>2026-04-25T08:16:47.326Z</time></trkpt><trkpt lat="43.6238226" lon="11.184184"><ele>140.0</ele><time>2026-04-25T08:16:48.323Z</time></trkpt><trkpt lat="43.6240739" lon="11.1840414"><ele>139.0</ele><time>2026-04-25T08:16:49.335Z</time></trkpt><trkpt lat="43.6243272" lon="11.1838923"><ele>138.0</ele><time>2026-04-25T08:16:50.325Z</time></trkpt><trkpt lat="43.6245798" lon="11.1837622"><ele>138.0</ele><time>2026-04-25T08:16:51.33Z</time></trkpt><trkpt lat="43.6248387" lon="11.1836546"><ele>138.0</ele><time>2026-04-25T08:16:52.312Z</time></trkpt><trkpt lat="43.625102" lon="11.1835601"><ele>139.0</ele><time>2026-04-25T08:16:53.314Z</time></trkpt><trkpt lat="43.6253613" lon="11.183474"><ele>140.0</ele><time>2026-04-25T08:16:54.324Z</time></trkpt><trkpt lat="43.6256229" lon="11.183398"><ele>140.0</ele><time>2026-04-25T08:16:55.334Z</time></trkpt><trkpt lat="43.6258856" lon="11.1833269"><ele>140.0</ele><time>2026-04-25T08:16:56.298Z</time></trkpt><trkpt lat="43.6261498" lon="11.1832658"><ele>139.0</ele><time>2026-04-25T08:16:57.309Z</time></trkpt><trkpt lat="43.6264092" lon="11.1832212"><ele>138.0</ele><time>2026-04-25T08:16:58.327Z</time></trkpt><trkpt lat="43.6266714" lon="11.183184"><ele>136.5</ele><time>2026-04-25T08:16:59.334Z</time></trkpt><trkpt lat="43.626934" lon="11.1831608"><ele>135.0</ele><time>2026-04-25T08:17:00.325Z</time></trkpt><trkpt lat="43.6271953" lon="11.1831467"><ele>134.0</ele><time>2026-04-25T08:17:01.316Z</time></trkpt><trkpt lat="43.6274533" lon="11.1831392"><ele>133.0</ele><time>2026-04-25T08:17:02.317Z</time></trkpt><trkpt lat="43.6277105" lon="11.1831398"><ele>133.0</ele><time>2026-04-25T08:17:03.328Z</time></trkpt><trkpt lat="43.6279665" lon="11.1831493"><ele>133.0</ele><time>2026-04-25T08:17:04.336Z</time></trkpt><trkpt lat="43.6282262" lon="11.1831683"><ele>135.5</ele><time>2026-04-25T08:17:05.318Z</time></trkpt><trkpt lat="43.6284857" lon="11.1831882"><ele>138.0</ele><time>2026-04-25T08:17:06.327Z</time></trkpt><trkpt lat="43.6287467" lon="11.1832077"><ele>139.0</ele><time>2026-04-25T08:17:07.319Z</time></trkpt><trkpt lat="43.629006" lon="11.1832178"><ele>140.0</ele><time>2026-04-25T08:17:08.318Z</time></trkpt><trkpt lat="43.6292651" lon="11.183225"><ele>141.5</ele><time>2026-04-25T08:17:09.323Z</time></trkpt><trkpt lat="43.6295297" lon="11.1832324"><ele>143.0</ele><time>2026-04-25T08:17:10.328Z</time></trkpt><trkpt lat="43.6297916" lon="11.1832394"><ele>143.0</ele><time>2026-04-25T08:17:11.327Z</time></trkpt><trkpt lat="43.6300539" lon="11.1832474"><ele>143.0</ele><time>2026-04-25T08:17:12.312Z</time></trkpt><trkpt lat="43.6303202" lon="11.1832566"><ele>145.0</ele><time>2026-04-25T08:17:13.313Z</time></trkpt><trkpt lat="43.6305817" lon="11.1832422"><ele>147.0</ele><time>2026-04-25T08:17:14.326Z</time></trkpt><trkpt lat="43.6308428" lon="11.1832174"><ele>142.0</ele><time>2026-04-25T08:17:15.333Z</time></trkpt><trkpt lat="43.6311038" lon="11.1831754"><ele>137.0</ele><time>2026-04-25T08:17:16.326Z</time></trkpt><trkpt lat="43.6313629" lon="11.1831319"><ele>137.0</ele><time>2026-04-25T08:17:17.311Z</time></trkpt><trkpt lat="43.631617" lon="11.1830651"><ele>137.0</ele><time>2026-04-25T08:17:18.317Z</time></trkpt><trkpt lat="43.6318779" lon="11.1829906"><ele>141.0</ele><time>2026-04-25T08:17:19.329Z</time></trkpt><trkpt lat="43.6321362" lon="11.1829046"><ele>145.0</ele><time>2026-04-25T08:17:20.334Z</time></trkpt><trkpt lat="43.632393" lon="11.1828069"><ele>145.0</ele><time>2026-04-25T08:17:21.322Z</time></trkpt><trkpt lat="43.6326421" lon="11.1826871"><ele>145.0</ele><time>2026-04-25T08:17:22.316Z</time></trkpt><trkpt lat="43.6328885" lon="11.18256"><ele>146.0</ele><time>2026-04-25T08:17:23.306Z</time></trkpt><trkpt lat="43.6331341" lon="11.182415"><ele>147.0</ele><time>2026-04-25T08:17:24.307Z</time></trkpt><trkpt lat="43.6333744" lon="11.1822595"><ele>144.0</ele><time>2026-04-25T08:17:25.312Z</time></trkpt><trkpt lat="43.6336169" lon="11.1820985"><ele>141.0</ele><time>2026-04-25T08:17:26.32Z</time></trkpt><trkpt lat="43.6338601" lon="11.1819429"><ele>138.5</ele><time>2026-04-25T08:17:27.323Z</time></trkpt><trkpt lat="43.6340979" lon="11.181785"><ele>136.0</ele><time>2026-04-25T08:17:28.328Z</time></trkpt><trkpt lat="43.6343376" lon="11.1816317"><ele>138.0</ele><time>2026-04-25T08:17:29.327Z</time></trkpt><trkpt lat="43.6345845" lon="11.181475"><ele>140.0</ele><time>2026-04-25T08:17:30.307Z</time></trkpt><trkpt lat="43.634837" lon="11.181308"><ele>140.0</ele><time>2026-04-25T08:17:31.321Z</time></trkpt><trkpt lat="43.6350869" lon="11.1811435"><ele>140.0</ele><time>2026-04-25T08:17:32.321Z</time></trkpt><trkpt lat="43.6353402" lon="11.1809772"><ele>141.0</ele><time>2026-04-25T08:17:33.322Z</time></trkpt><trkpt lat="43.6355972" lon="11.1808166"><ele>142.0</ele><time>2026-04-25T08:17:34.314Z</time></trkpt><trkpt lat="43.6358494" lon="11.1806574"><ele>142.0</ele><time>2026-04-25T08:17:35.32Z</time></trkpt><trkpt lat="43.6361036" lon="11.180508"><ele>142.0</ele><time>2026-04-25T08:17:36.325Z</time></trkpt><trkpt lat="43.6363644" lon="11.180375"><ele>150.0</ele><time>2026-04-25T08:17:37.32Z</time></trkpt><trkpt lat="43.6366243" lon="11.180241"><ele>158.0</ele><time>2026-04-25T08:17:38.32Z</time></trkpt><trkpt lat="43.6368798" lon="11.1801113"><ele>163.5</ele><time>2026-04-25T08:17:39.333Z</time></trkpt><trkpt lat="43.6371344" lon="11.1799946"><ele>169.0</ele><time>2026-04-25T08:17:40.324Z</time></trkpt><trkpt lat="43.6373869" lon="11.1798812"><ele>168.0</ele><time>2026-04-25T08:17:41.32Z</time></trkpt><trkpt lat="43.6376402" lon="11.1797744"><ele>167.0</ele><time>2026-04-25T08:17:42.325Z</time></trkpt><trkpt lat="43.6378937" lon="11.1796815"><ele>167.0</ele><time>2026-04-25T08:17:43.324Z</time></trkpt><trkpt lat="43.6381463" lon="11.1795804"><ele>167.0</ele><time>2026-04-25T08:17:44.321Z</time></trkpt><trkpt lat="43.6384017" lon="11.1794853"><ele>171.5</ele><time>2026-04-25T08:17:45.328Z</time></trkpt><trkpt lat="43.6386595" lon="11.1793927"><ele>176.0</ele><time>2026-04-25T08:17:46.321Z</time></trkpt><trkpt lat="43.638919" lon="11.1793052"><ele>176.0</ele><time>2026-04-25T08:17:47.323Z</time></trkpt><trkpt lat="43.6391764" lon="11.1792109"><ele>176.0</ele><time>2026-04-25T08:17:48.317Z</time></trkpt><trkpt lat="43.6394359" lon="11.1791127"><ele>179.5</ele><time>2026-04-25T08:17:49.326Z</time></trkpt><trkpt lat="43.6396879" lon="11.1790163"><ele>183.0</ele><time>2026-04-25T08:17:50.32Z</time></trkpt><trkpt lat="43.639938" lon="11.1789215"><ele>183.0</ele><time>2026-04-25T08:17:51.319Z</time></trkpt><trkpt lat="43.6401863" lon="11.1788222"><ele>183.0</ele><time>2026-04-25T08:17:52.327Z</time></trkpt><trkpt lat="43.6404364" lon="11.1787215"><ele>178.5</ele><time>2026-04-25T08:17:53.323Z</time></trkpt><trkpt lat="43.6406878" lon="11.1786247"><ele>174.0</ele><time>2026-04-25T08:17:54.327Z</time></trkpt><trkpt lat="43.6409319" lon="11.1785278"><ele>180.0</ele><time>2026-04-25T08:17:55.347Z</time></trkpt><trkpt lat="43.6411812" lon="11.1784336"><ele>186.0</ele><time>2026-04-25T08:17:56.285Z</time></trkpt><trkpt lat="43.641425" lon="11.1783459"><ele>186.0</ele><time>2026-04-25T08:17:57.314Z</time></trkpt><trkpt lat="43.6416694" lon="11.1782648"><ele>186.0</ele><time>2026-04-25T08:17:58.315Z</time></trkpt><trkpt lat="43.6419159" lon="11.1781889"><ele>186.0</ele><time>2026-04-25T08:17:59.334Z</time></trkpt><trkpt lat="43.6421711" lon="11.1781373"><ele>186.0</ele><time>2026-04-25T08:18:00.331Z</time></trkpt><trkpt lat="43.6424245" lon="11.1781076"><ele>186.0</ele><time>2026-04-25T08:18:01.338Z</time></trkpt><trkpt lat="43.6426773" lon="11.1781025"><ele>186.0</ele><time>2026-04-25T08:18:02.324Z</time></trkpt><trkpt lat="43.6429343" lon="11.1781371"><ele>184.0</ele><time>2026-04-25T08:18:03.315Z</time></trkpt><trkpt lat="43.6431902" lon="11.1781792"><ele>182.0</ele><time>2026-04-25T08:18:04.327Z</time></trkpt><trkpt lat="43.6434448" lon="11.1782484"><ele>184.0</ele><time>2026-04-25T08:18:05.304Z</time></trkpt><trkpt lat="43.6437012" lon="11.1783326"><ele>186.0</ele><time>2026-04-25T08:18:06.329Z</time></trkpt><trkpt lat="43.6439635" lon="11.1784285"><ele>186.0</ele><time>2026-04-25T08:18:07.328Z</time></trkpt><trkpt lat="43.6442304" lon="11.1785615"><ele>186.0</ele><time>2026-04-25T08:18:08.323Z</time></trkpt><trkpt lat="43.6444912" lon="11.178717"><ele>189.5</ele><time>2026-04-25T08:18:09.299Z</time></trkpt><trkpt lat="43.6447318" lon="11.1788993"><ele>193.0</ele><time>2026-04-25T08:18:10.314Z</time></trkpt><trkpt lat="43.6449666" lon="11.1790992"><ele>193.0</ele><time>2026-04-25T08:18:11.316Z</time></trkpt><trkpt lat="43.6451921" lon="11.1793153"><ele>193.0</ele><time>2026-04-25T08:18:12.304Z</time></trkpt><trkpt lat="43.6454101" lon="11.1795455"><ele>194.5</ele><time>2026-04-25T08:18:13.333Z</time></trkpt><trkpt lat="43.6456294" lon="11.1797796"><ele>196.0</ele><time>2026-04-25T08:18:14.318Z</time></trkpt><trkpt lat="43.645844" lon="11.1800057"><ele>196.0</ele><time>2026-04-25T08:18:15.328Z</time></trkpt><trkpt lat="43.646057" lon="11.1802324"><ele>196.0</ele><time>2026-04-25T08:18:16.324Z</time></trkpt><trkpt lat="43.6462736" lon="11.1804554"><ele>199.0</ele><time>2026-04-25T08:18:17.326Z</time></trkpt><trkpt lat="43.6464953" lon="11.1806852"><ele>202.0</ele><time>2026-04-25T08:18:18.327Z</time></trkpt><trkpt lat="43.6467176" lon="11.1809165"><ele>202.0</ele><time>2026-04-25T08:18:19.324Z</time></trkpt><trkpt lat="43.646946" lon="11.1811642"><ele>202.0</ele><time>2026-04-25T08:18:20.322Z</time></trkpt><trkpt lat="43.6471683" lon="11.1814226"><ele>204.0</ele><time>2026-04-25T08:18:21.317Z</time></trkpt><trkpt lat="43.6473948" lon="11.1817055"><ele>206.0</ele><time>2026-04-25T08:18:22.326Z</time></trkpt><trkpt lat="43.6476194" lon="11.1819962"><ele>206.0</ele><time>2026-04-25T08:18:23.319Z</time></trkpt><trkpt lat="43.6478333" lon="11.1823088"><ele>206.0</ele><time>2026-04-25T08:18:24.319Z</time></trkpt><trkpt lat="43.6480282" lon="11.1826201"><ele>206.0</ele><time>2026-04-25T08:18:25.318Z</time></trkpt><trkpt lat="43.6482152" lon="11.1829459"><ele>206.0</ele><time>2026-04-25T08:18:26.327Z</time></trkpt><trkpt lat="43.648389" lon="11.1832749"><ele>208.5</ele><time>2026-04-25T08:18:27.337Z</time></trkpt><trkpt lat="43.648562" lon="11.1836135"><ele>211.0</ele><time>2026-04-25T08:18:28.316Z</time></trkpt><trkpt lat="43.6487287" lon="11.1839612"><ele>213.5</ele><time>2026-04-25T08:18:29.33Z</time></trkpt><trkpt lat="43.6488878" lon="11.184312"><ele>216.0</ele><time>2026-04-25T08:18:30.318Z</time></trkpt><trkpt lat="43.6490477" lon="11.1846606"><ele>221.5</ele><time>2026-04-25T08:18:31.314Z</time></trkpt><trkpt lat="43.6492088" lon="11.1850076"><ele>227.0</ele><time>2026-04-25T08:18:32.33Z</time></trkpt><trkpt lat="43.6493749" lon="11.1853606"><ele>224.0</ele><time>2026-04-25T08:18:33.322Z</time></trkpt><trkpt lat="43.6495404" lon="11.1857125"><ele>221.0</ele><time>2026-04-25T08:18:34.344Z</time></trkpt><trkpt lat="43.6497041" lon="11.1860646"><ele>221.0</ele><time>2026-04-25T08:18:35.322Z</time></trkpt><trkpt lat="43.6498655" lon="11.18642"><ele>221.0</ele><time>2026-04-25T08:18:36.334Z</time></trkpt><trkpt lat="43.6500255" lon="11.1867719"><ele>223.0</ele><time>2026-04-25T08:18:37.326Z</time></trkpt><trkpt lat="43.6501908" lon="11.1871201"><ele>225.0</ele><time>2026-04-25T08:18:38.331Z</time></trkpt><trkpt lat="43.6503536" lon="11.1874611"><ele>230.5</ele><time>2026-04-25T08:18:39.313Z</time></trkpt><trkpt lat="43.6505154" lon="11.1878065"><ele>236.0</ele><time>2026-04-25T08:18:40.298Z</time></trkpt><trkpt lat="43.6506761" lon="11.188154"><ele>236.0</ele><time>2026-04-25T08:18:41.312Z</time></trkpt><trkpt lat="43.6508326" lon="11.1884977"><ele>236.0</ele><time>2026-04-25T08:18:42.315Z</time></trkpt><trkpt lat="43.650996" lon="11.1888475"><ele>243.0</ele><time>2026-04-25T08:18:43.325Z</time></trkpt><trkpt lat="43.6511587" lon="11.1891967"><ele>250.0</ele><time>2026-04-25T08:18:44.322Z</time></trkpt><trkpt lat="43.6513237" lon="11.1895455"><ele>246.5</ele><time>2026-04-25T08:18:45.336Z</time></trkpt><trkpt lat="43.6514986" lon="11.1898925"><ele>243.0</ele><time>2026-04-25T08:18:46.316Z</time></trkpt><trkpt lat="43.6516863" lon="11.1902343"><ele>243.0</ele><time>2026-04-25T08:18:47.296Z</time></trkpt><trkpt lat="43.6518907" lon="11.1905748"><ele>243.0</ele><time>2026-04-25T08:18:48.33Z</time></trkpt><trkpt lat="43.6521144" lon="11.1909083"><ele>247.5</ele><time>2026-04-25T08:18:49.327Z</time></trkpt><trkpt lat="43.652345" lon="11.1912343"><ele>252.0</ele><time>2026-04-25T08:18:50.329Z</time></trkpt><trkpt lat="43.6525683" lon="11.1915454"><ele>253.0</ele><time>2026-04-25T08:18:51.327Z</time></trkpt><trkpt lat="43.652789" lon="11.1918557"><ele>254.0</ele><time>2026-04-25T08:18:52.32Z</time></trkpt><trkpt lat="43.6529959" lon="11.1921723"><ele>246.0</ele><time>2026-04-25T08:18:53.308Z</time></trkpt><trkpt lat="43.6556624" lon="11.1960906"><ele>246.0</ele><time>2026-04-25T08:19:05.306Z</time></trkpt><trkpt lat="43.6558678" lon="11.1964087"><ele>246.0</ele><time>2026-04-25T08:19:06.311Z</time></trkpt><trkpt lat="43.6560638" lon="11.1967072"><ele>237.5</ele><time>2026-04-25T08:19:07.318Z</time></trkpt><trkpt lat="43.6562625" lon="11.1970042"><ele>229.0</ele><time>2026-04-25T08:19:08.311Z</time></trkpt><trkpt lat="43.6564513" lon="11.1973021"><ele>231.0</ele><time>2026-04-25T08:19:09.314Z</time></trkpt><trkpt lat="43.6566491" lon="11.1976046"><ele>233.0</ele><time>2026-04-25T08:19:10.3Z</time></trkpt><trkpt lat="43.6568317" lon="11.1979138"><ele>229.0</ele><time>2026-04-25T08:19:11.309Z</time></trkpt><trkpt lat="43.6570036" lon="11.1982409"><ele>225.0</ele><time>2026-04-25T08:19:12.334Z</time></trkpt><trkpt lat="43.6571628" lon="11.198565"><ele>225.0</ele><time>2026-04-25T08:19:13.322Z</time></trkpt><trkpt lat="43.6573082" lon="11.1988837"><ele>225.0</ele><time>2026-04-25T08:19:14.311Z</time></trkpt><trkpt lat="43.6574507" lon="11.1992042"><ele>222.5</ele><time>2026-04-25T08:19:15.309Z</time></trkpt><trkpt lat="43.6575823" lon="11.1995383"><ele>220.0</ele><time>2026-04-25T08:19:16.312Z</time></trkpt><trkpt lat="43.6577156" lon="11.1998741"><ele>224.5</ele><time>2026-04-25T08:19:17.31Z</time></trkpt><trkpt lat="43.6578444" lon="11.200212"><ele>229.0</ele><time>2026-04-25T08:19:18.323Z</time></trkpt><trkpt lat="43.657967" lon="11.2005558"><ele>225.5</ele><time>2026-04-25T08:19:19.326Z</time></trkpt><trkpt lat="43.6580781" lon="11.2009088"><ele>222.0</ele><time>2026-04-25T08:19:20.322Z</time></trkpt><trkpt lat="43.658188" lon="11.2012619"><ele>218.0</ele><time>2026-04-25T08:19:21.291Z</time></trkpt><trkpt lat="43.6583051" lon="11.2016098"><ele>214.0</ele><time>2026-04-25T08:19:22.313Z</time></trkpt><trkpt lat="43.6584274" lon="11.2019464"><ele>214.0</ele><time>2026-04-25T08:19:23.32Z</time></trkpt><trkpt lat="43.6585624" lon="11.2022858"><ele>214.0</ele><time>2026-04-25T08:19:24.332Z</time></trkpt><trkpt lat="43.6587114" lon="11.2026184"><ele>211.0</ele><time>2026-04-25T08:19:25.318Z</time></trkpt><trkpt lat="43.6588841" lon="11.2029291"><ele>208.0</ele><time>2026-04-25T08:19:26.322Z</time></trkpt><trkpt lat="43.6590756" lon="11.203219"><ele>208.0</ele><time>2026-04-25T08:19:27.319Z</time></trkpt><trkpt lat="43.6592915" lon="11.2035088"><ele>208.0</ele><time>2026-04-25T08:19:28.289Z</time></trkpt><trkpt lat="43.6595203" lon="11.2037752"><ele>208.5</ele><time>2026-04-25T08:19:29.301Z</time></trkpt><trkpt lat="43.6597577" lon="11.2040257"><ele>209.0</ele><time>2026-04-25T08:19:30.303Z</time></trkpt><trkpt lat="43.659998" lon="11.2042521"><ele>209.0</ele><time>2026-04-25T08:19:31.313Z</time></trkpt><trkpt lat="43.6602316" lon="11.2044606"><ele>209.0</ele><time>2026-04-25T08:19:32.326Z</time></trkpt><trkpt lat="43.6604662" lon="11.2046594"><ele>203.0</ele><time>2026-04-25T08:19:33.322Z</time></trkpt><trkpt lat="43.6607001" lon="11.2048588"><ele>197.0</ele><time>2026-04-25T08:19:34.31Z</time></trkpt><trkpt lat="43.6609173" lon="11.2050479"><ele>201.5</ele><time>2026-04-25T08:19:35.314Z</time></trkpt><trkpt lat="43.6611275" lon="11.205231"><ele>206.0</ele><time>2026-04-25T08:19:36.334Z</time></trkpt><trkpt lat="43.6613284" lon="11.2054095"><ele>206.0</ele><time>2026-04-25T08:19:37.313Z</time></trkpt><trkpt lat="43.6615298" lon="11.2055841"><ele>206.0</ele><time>2026-04-25T08:19:38.324Z</time></trkpt><trkpt lat="43.661729" lon="11.2057639"><ele>199.5</ele><time>2026-04-25T08:19:39.31Z</time></trkpt><trkpt lat="43.6619323" lon="11.2059469"><ele>193.0</ele><time>2026-04-25T08:19:40.321Z</time></trkpt><trkpt lat="43.6621334" lon="11.2061267"><ele>193.0</ele><time>2026-04-25T08:19:41.332Z</time></trkpt><trkpt lat="43.662336" lon="11.2063032"><ele>193.0</ele><time>2026-04-25T08:19:42.322Z</time></trkpt><trkpt lat="43.6625401" lon="11.2064791"><ele>184.5</ele><time>2026-04-25T08:19:43.325Z</time></trkpt><trkpt lat="43.6627417" lon="11.2066604"><ele>176.0</ele><time>2026-04-25T08:19:44.336Z</time></trkpt><trkpt lat="43.662945" lon="11.2068464"><ele>172.5</ele><time>2026-04-25T08:19:45.325Z</time></trkpt><trkpt lat="43.6631543" lon="11.2070236"><ele>169.0</ele><time>2026-04-25T08:19:46.327Z</time></trkpt><trkpt lat="43.6633592" lon="11.2072003"><ele>165.5</ele><time>2026-04-25T08:19:47.323Z</time></trkpt><trkpt lat="43.6635637" lon="11.207377"><ele>162.0</ele><time>2026-04-25T08:19:48.336Z</time></trkpt><trkpt lat="43.6637745" lon="11.2075558"><ele>169.0</ele><time>2026-04-25T08:19:49.328Z</time></trkpt><trkpt lat="43.6639775" lon="11.2077327"><ele>176.0</ele><time>2026-04-25T08:19:50.329Z</time></trkpt><trkpt lat="43.6641773" lon="11.2079051"><ele>176.0</ele><time>2026-04-25T08:19:51.338Z</time></trkpt><trkpt lat="43.6643794" lon="11.2080813"><ele>176.0</ele><time>2026-04-25T08:19:52.327Z</time></trkpt><trkpt lat="43.6645791" lon="11.2082566"><ele>177.5</ele><time>2026-04-25T08:19:53.318Z</time></trkpt><trkpt lat="43.6647783" lon="11.2084248"><ele>179.0</ele><time>2026-04-25T08:19:54.33Z</time></trkpt><trkpt lat="43.66498" lon="11.2085881"><ele>179.0</ele><time>2026-04-25T08:19:55.327Z</time></trkpt><trkpt lat="43.6651787" lon="11.208748"><ele>179.0</ele><time>2026-04-25T08:19:56.328Z</time></trkpt><trkpt lat="43.6653892" lon="11.2088986"><ele>176.0</ele><time>2026-04-25T08:19:57.325Z</time></trkpt><trkpt lat="43.665601" lon="11.209049"><ele>173.0</ele><time>2026-04-25T08:19:58.322Z</time></trkpt><trkpt lat="43.6658178" lon="11.209177"><ele>173.0</ele><time>2026-04-25T08:19:59.316Z</time></trkpt><trkpt lat="43.6660496" lon="11.2092934"><ele>173.0</ele><time>2026-04-25T08:20:00.323Z</time></trkpt><trkpt lat="43.6662859" lon="11.2093821"><ele>173.5</ele><time>2026-04-25T08:20:01.313Z</time></trkpt><trkpt lat="43.6665166" lon="11.2094582"><ele>174.0</ele><time>2026-04-25T08:20:02.325Z</time></trkpt><trkpt lat="43.6667477" lon="11.2095142"><ele>172.33333333333334</ele><time>2026-04-25T08:20:03.324Z</time></trkpt><trkpt lat="43.6669692" lon="11.2095578"><ele>170.66666666666669</ele><time>2026-04-25T08:20:04.334Z</time></trkpt><trkpt lat="43.6671835" lon="11.2096027"><ele>169.0</ele><time>2026-04-25T08:20:05.302Z</time></trkpt><trkpt lat="43.6673919" lon="11.2096473"><ele>169.0</ele><time>2026-04-25T08:20:06.318Z</time></trkpt><trkpt lat="43.6675897" lon="11.2096898"><ele>169.0</ele><time>2026-04-25T08:20:07.337Z</time></trkpt><trkpt lat="43.6677844" lon="11.2097337"><ele>169.0</ele><time>2026-04-25T08:20:08.329Z</time></trkpt><trkpt lat="43.6679784" lon="11.2097715"><ele>167.33333333333334</ele><time>2026-04-25T08:20:09.33Z</time></trkpt><trkpt lat="43.6681775" lon="11.2098103"><ele>165.66666666666666</ele><time>2026-04-25T08:20:10.322Z</time></trkpt><trkpt lat="43.6683844" lon="11.2098505"><ele>164.0</ele><time>2026-04-25T08:20:11.318Z</time></trkpt><trkpt lat="43.6685925" lon="11.2098874"><ele>161.0</ele><time>2026-04-25T08:20:12.319Z</time></trkpt><trkpt lat="43.6687979" lon="11.2099255"><ele>158.0</ele><time>2026-04-25T08:20:13.326Z</time></trkpt><trkpt lat="43.6690033" lon="11.2099654"><ele>155.0</ele><time>2026-04-25T08:20:14.323Z</time></trkpt><trkpt lat="43.6692047" lon="11.2100068"><ele>155.0</ele><time>2026-04-25T08:20:15.34Z</time></trkpt><trkpt lat="43.6694047" lon="11.2100449"><ele>155.0</ele><time>2026-04-25T08:20:16.338Z</time></trkpt><trkpt lat="43.6696052" lon="11.2100826"><ele>155.0</ele><time>2026-04-25T08:20:17.326Z</time></trkpt><trkpt lat="43.6698083" lon="11.2101204"><ele>154.66666666666666</ele><time>2026-04-25T08:20:18.329Z</time></trkpt><trkpt lat="43.6700153" lon="11.2101565"><ele>154.33333333333334</ele><time>2026-04-25T08:20:19.326Z</time></trkpt><trkpt lat="43.6702269" lon="11.2101946"><ele>154.0</ele><time>2026-04-25T08:20:20.328Z</time></trkpt><trkpt lat="43.670444" lon="11.2102328"><ele>154.0</ele><time>2026-04-25T08:20:21.331Z</time></trkpt><trkpt lat="43.6706607" lon="11.2102807"><ele>154.0</ele><time>2026-04-25T08:20:22.32Z</time></trkpt><trkpt lat="43.670878" lon="11.2103218"><ele>154.0</ele><time>2026-04-25T08:20:23.322Z</time></trkpt><trkpt lat="43.6710853" lon="11.2103634"><ele>154.66666666666669</ele><time>2026-04-25T08:20:24.322Z</time></trkpt><trkpt lat="43.6712949" lon="11.2103952"><ele>155.33333333333334</ele><time>2026-04-25T08:20:25.312Z</time></trkpt><trkpt lat="43.6715046" lon="11.2104206"><ele>156.0</ele><time>2026-04-25T08:20:26.331Z</time></trkpt><trkpt lat="43.6717035" lon="11.210429"><ele>156.0</ele><time>2026-04-25T08:20:27.316Z</time></trkpt><trkpt lat="43.6718947" lon="11.2104251"><ele>156.0</ele><time>2026-04-25T08:20:28.329Z</time></trkpt><trkpt lat="43.672084" lon="11.2104155"><ele>156.0</ele><time>2026-04-25T08:20:29.327Z</time></trkpt><trkpt lat="43.6722712" lon="11.2104038"><ele>153.0</ele><time>2026-04-25T08:20:30.325Z</time></trkpt><trkpt lat="43.6724566" lon="11.2103891"><ele>150.0</ele><time>2026-04-25T08:20:31.309Z</time></trkpt><trkpt lat="43.6726445" lon="11.2103755"><ele>147.0</ele><time>2026-04-25T08:20:32.33Z</time></trkpt><trkpt lat="43.6728261" lon="11.2103729"><ele>147.0</ele><time>2026-04-25T08:20:33.319Z</time></trkpt><trkpt lat="43.6730037" lon="11.2103671"><ele>147.0</ele><time>2026-04-25T08:20:34.315Z</time></trkpt><trkpt lat="43.6731782" lon="11.210356"><ele>147.0</ele><time>2026-04-25T08:20:35.302Z</time></trkpt><trkpt lat="43.673349" lon="11.2103453"><ele>147.0</ele><time>2026-04-25T08:20:36.317Z</time></trkpt><trkpt lat="43.673526" lon="11.2103405"><ele>147.0</ele><time>2026-04-25T08:20:37.335Z</time></trkpt><trkpt lat="43.6737059" lon="11.2103254"><ele>147.0</ele><time>2026-04-25T08:20:38.324Z</time></trkpt><trkpt lat="43.6738799" lon="11.2103129"><ele>146.33333333333334</ele><time>2026-04-25T08:20:39.327Z</time></trkpt><trkpt lat="43.674042" lon="11.2102997"><ele>145.66666666666669</ele><time>2026-04-25T08:20:40.331Z</time></trkpt><trkpt lat="43.6742071" lon="11.2102938"><ele>145.0</ele><time>2026-04-25T08:20:41.324Z</time></trkpt><trkpt lat="43.6743736" lon="11.2102891"><ele>138.33333333333334</ele><time>2026-04-25T08:20:42.327Z</time></trkpt><trkpt lat="43.6745371" lon="11.2102778"><ele>131.66666666666666</ele><time>2026-04-25T08:20:43.288Z</time></trkpt><trkpt lat="43.6747005" lon="11.2102628"><ele>125.0</ele><time>2026-04-25T08:20:44.29Z</time></trkpt><trkpt lat="43.6748709" lon="11.210252"><ele>125.0</ele><time>2026-04-25T08:20:45.316Z</time></trkpt><trkpt lat="43.6750443" lon="11.210244"><ele>125.0</ele><time>2026-04-25T08:20:46.314Z</time></trkpt><trkpt lat="43.6752189" lon="11.2102341"><ele>125.0</ele><time>2026-04-25T08:20:47.331Z</time></trkpt><trkpt lat="43.6754028" lon="11.2102283"><ele>117.66666666666666</ele><time>2026-04-25T08:20:48.315Z</time></trkpt><trkpt lat="43.6755865" lon="11.2102171"><ele>110.33333333333334</ele><time>2026-04-25T08:20:49.316Z</time></trkpt><trkpt lat="43.6757634" lon="11.2102068"><ele>103.0</ele><time>2026-04-25T08:20:50.322Z</time></trkpt><trkpt lat="43.6759297" lon="11.2101913"><ele>103.0</ele><time>2026-04-25T08:20:51.344Z</time></trkpt><trkpt lat="43.6760973" lon="11.2101904"><ele>103.0</ele><time>2026-04-25T08:20:52.329Z</time></trkpt><trkpt lat="43.6762569" lon="11.2102071"><ele>103.0</ele><time>2026-04-25T08:20:53.295Z</time></trkpt><trkpt lat="43.6764253" lon="11.2102309"><ele>103.33333333333334</ele><time>2026-04-25T08:20:54.321Z</time></trkpt><trkpt lat="43.6765994" lon="11.2102632"><ele>103.66666666666666</ele><time>2026-04-25T08:20:55.321Z</time></trkpt><trkpt lat="43.6767764" lon="11.2103036"><ele>104.0</ele><time>2026-04-25T08:20:56.301Z</time></trkpt><trkpt lat="43.6769541" lon="11.210349"><ele>104.66666666666666</ele><time>2026-04-25T08:20:57.322Z</time></trkpt><trkpt lat="43.6771374" lon="11.2104123"><ele>105.33333333333334</ele><time>2026-04-25T08:20:58.301Z</time></trkpt><trkpt lat="43.6773222" lon="11.2104865"><ele>106.0</ele><time>2026-04-25T08:20:59.314Z</time></trkpt><trkpt lat="43.6775097" lon="11.2105707"><ele>107.0</ele><time>2026-04-25T08:21:00.327Z</time></trkpt><trkpt lat="43.6777055" lon="11.2106831"><ele>108.0</ele><time>2026-04-25T08:21:01.327Z</time></trkpt><trkpt lat="43.6779062" lon="11.2108101"><ele>109.0</ele><time>2026-04-25T08:21:02.326Z</time></trkpt><trkpt lat="43.678107" lon="11.2109461"><ele>109.0</ele><time>2026-04-25T08:21:03.323Z</time></trkpt><trkpt lat="43.6783074" lon="11.2110841"><ele>109.0</ele><time>2026-04-25T08:21:04.319Z</time></trkpt><trkpt lat="43.6785047" lon="11.2112265"><ele>109.0</ele><time>2026-04-25T08:21:05.309Z</time></trkpt><trkpt lat="43.6786927" lon="11.2113612"><ele>109.0</ele><time>2026-04-25T08:21:06.313Z</time></trkpt><trkpt lat="43.6788821" lon="11.211492"><ele>109.0</ele><time>2026-04-25T08:21:07.333Z</time></trkpt><trkpt lat="43.6790805" lon="11.2116219"><ele>109.0</ele><time>2026-04-25T08:21:08.334Z</time></trkpt><trkpt lat="43.679275" lon="11.2117386"><ele>105.66666666666667</ele><time>2026-04-25T08:21:09.325Z</time></trkpt><trkpt lat="43.6794649" lon="11.2118421"><ele>102.33333333333334</ele><time>2026-04-25T08:21:10.328Z</time></trkpt><trkpt lat="43.679646" lon="11.2119257"><ele>99.0</ele><time>2026-04-25T08:21:11.326Z</time></trkpt><trkpt lat="43.6798229" lon="11.2120047"><ele>99.0</ele><time>2026-04-25T08:21:12.329Z</time></trkpt><trkpt lat="43.6800015" lon="11.2120738"><ele>99.0</ele><time>2026-04-25T08:21:13.306Z</time></trkpt><trkpt lat="43.6801811" lon="11.2121276"><ele>99.0</ele><time>2026-04-25T08:21:14.315Z</time></trkpt><trkpt lat="43.6803564" lon="11.2121668"><ele>98.0</ele><time>2026-04-25T08:21:15.312Z</time></trkpt><trkpt lat="43.6805348" lon="11.2121964"><ele>97.0</ele><time>2026-04-25T08:21:16.326Z</time></trkpt><trkpt lat="43.6807203" lon="11.2122184"><ele>96.0</ele><time>2026-04-25T08:21:17.329Z</time></trkpt><trkpt lat="43.6809" lon="11.2122269"><ele>96.0</ele><time>2026-04-25T08:21:18.323Z</time></trkpt><trkpt lat="43.6810733" lon="11.2122291"><ele>96.0</ele><time>2026-04-25T08:21:19.326Z</time></trkpt><trkpt lat="43.6812429" lon="11.2122171"><ele>96.0</ele><time>2026-04-25T08:21:20.322Z</time></trkpt><trkpt lat="43.6814161" lon="11.2122023"><ele>96.0</ele><time>2026-04-25T08:21:21.321Z</time></trkpt><trkpt lat="43.6815912" lon="11.2121831"><ele>96.0</ele><time>2026-04-25T08:21:22.326Z</time></trkpt><trkpt lat="43.681765" lon="11.2121535"><ele>96.0</ele><time>2026-04-25T08:21:23.331Z</time></trkpt><trkpt lat="43.6819428" lon="11.212124"><ele>96.0</ele><time>2026-04-25T08:21:24.338Z</time></trkpt><trkpt lat="43.6821248" lon="11.2120864"><ele>96.0</ele><time>2026-04-25T08:21:25.32Z</time></trkpt><trkpt lat="43.6823061" lon="11.2120526"><ele>96.0</ele><time>2026-04-25T08:21:26.33Z</time></trkpt><trkpt lat="43.6824952" lon="11.2120183"><ele>96.0</ele><time>2026-04-25T08:21:27.312Z</time></trkpt><trkpt lat="43.6826899" lon="11.2119804"><ele>96.0</ele><time>2026-04-25T08:21:28.332Z</time></trkpt><trkpt lat="43.6828916" lon="11.211939"><ele>96.0</ele><time>2026-04-25T08:21:29.317Z</time></trkpt><trkpt lat="43.683106" lon="11.2118944"><ele>98.0</ele><time>2026-04-25T08:21:30.315Z</time></trkpt><trkpt lat="43.6833292" lon="11.2118469"><ele>100.0</ele><time>2026-04-25T08:21:31.325Z</time></trkpt><trkpt lat="43.6835613" lon="11.2117974"><ele>106.0</ele><time>2026-04-25T08:21:32.329Z</time></trkpt><trkpt lat="43.6838036" lon="11.2117485"><ele>112.0</ele><time>2026-04-25T08:21:33.306Z</time></trkpt><trkpt lat="43.6840523" lon="11.2116914"><ele>112.0</ele><time>2026-04-25T08:21:34.317Z</time></trkpt><trkpt lat="43.6843152" lon="11.2116358"><ele>112.0</ele><time>2026-04-25T08:21:35.324Z</time></trkpt><trkpt lat="43.6845836" lon="11.2115785"><ele>112.0</ele><time>2026-04-25T08:21:36.314Z</time></trkpt><trkpt lat="43.6848585" lon="11.2115234"><ele>112.0</ele><time>2026-04-25T08:21:37.319Z</time></trkpt><trkpt lat="43.6851316" lon="11.2114673"><ele>121.0</ele><time>2026-04-25T08:21:38.329Z</time></trkpt><trkpt lat="43.6854067" lon="11.2114061"><ele>130.0</ele><time>2026-04-25T08:21:39.293Z</time></trkpt><trkpt lat="43.6856784" lon="11.2113536"><ele>130.0</ele><time>2026-04-25T08:21:40.317Z</time></trkpt><trkpt lat="43.6859484" lon="11.2113038"><ele>130.0</ele><time>2026-04-25T08:21:41.328Z</time></trkpt><trkpt lat="43.6862208" lon="11.2112567"><ele>123.5</ele><time>2026-04-25T08:21:42.326Z</time></trkpt><trkpt lat="43.6864851" lon="11.211205"><ele>117.0</ele><time>2026-04-25T08:21:43.303Z</time></trkpt><trkpt lat="43.6867514" lon="11.2111561"><ele>112.5</ele><time>2026-04-25T08:21:44.328Z</time></trkpt><trkpt lat="43.6870142" lon="11.2111084"><ele>108.0</ele><time>2026-04-25T08:21:45.323Z</time></trkpt><trkpt lat="43.6872757" lon="11.2110756"><ele>108.0</ele><time>2026-04-25T08:21:46.324Z</time></trkpt><trkpt lat="43.6875373" lon="11.2110806"><ele>108.0</ele><time>2026-04-25T08:21:47.331Z</time></trkpt><trkpt lat="43.6877937" lon="11.211128"><ele>101.5</ele><time>2026-04-25T08:21:48.325Z</time></trkpt><trkpt lat="43.6880498" lon="11.2111745"><ele>95.0</ele><time>2026-04-25T08:21:49.33Z</time></trkpt><trkpt lat="43.6883035" lon="11.2112497"><ele>95.0</ele><time>2026-04-25T08:21:50.328Z</time></trkpt><trkpt lat="43.6885554" lon="11.2113494"><ele>95.0</ele><time>2026-04-25T08:21:51.331Z</time></trkpt><trkpt lat="43.6887994" lon="11.2114749"><ele>94.0</ele><time>2026-04-25T08:21:52.329Z</time></trkpt><trkpt lat="43.6890387" lon="11.2116338"><ele>93.0</ele><time>2026-04-25T08:21:53.328Z</time></trkpt><trkpt lat="43.6892745" lon="11.2118023"><ele>92.5</ele><time>2026-04-25T08:21:54.336Z</time></trkpt><trkpt lat="43.6895004" lon="11.2119778"><ele>92.0</ele><time>2026-04-25T08:21:55.326Z</time></trkpt><trkpt lat="43.6897214" lon="11.212155"><ele>95.0</ele><time>2026-04-25T08:21:56.329Z</time></trkpt><trkpt lat="43.689949" lon="11.2123273"><ele>98.0</ele><time>2026-04-25T08:21:57.331Z</time></trkpt><trkpt lat="43.6901799" lon="11.2124861"><ele>96.0</ele><time>2026-04-25T08:21:58.309Z</time></trkpt><trkpt lat="43.6904126" lon="11.2126311"><ele>94.0</ele><time>2026-04-25T08:21:59.297Z</time></trkpt><trkpt lat="43.690643" lon="11.2127603"><ele>94.0</ele><time>2026-04-25T08:22:00.308Z</time></trkpt><trkpt lat="43.6908755" lon="11.212871"><ele>94.0</ele><time>2026-04-25T08:22:01.313Z</time></trkpt><trkpt lat="43.6911155" lon="11.2129529"><ele>93.0</ele><time>2026-04-25T08:22:02.309Z</time></trkpt><trkpt lat="43.6913645" lon="11.2130187"><ele>92.0</ele><time>2026-04-25T08:22:03.311Z</time></trkpt><trkpt lat="43.6916156" lon="11.213062"><ele>92.0</ele><time>2026-04-25T08:22:04.324Z</time></trkpt><trkpt lat="43.6918689" lon="11.2130823"><ele>92.0</ele><time>2026-04-25T08:22:05.325Z</time></trkpt><trkpt lat="43.6921235" lon="11.213077"><ele>91.5</ele><time>2026-04-25T08:22:06.332Z</time></trkpt><trkpt lat="43.6923707" lon="11.2130532"><ele>91.0</ele><time>2026-04-25T08:22:07.321Z</time></trkpt><trkpt lat="43.6926148" lon="11.2130024"><ele>94.0</ele><time>2026-04-25T08:22:08.325Z</time></trkpt><trkpt lat="43.6928591" lon="11.2129345"><ele>97.0</ele><time>2026-04-25T08:22:09.314Z</time></trkpt><trkpt lat="43.6930998" lon="11.2128491"><ele>97.0</ele><time>2026-04-25T08:22:10.32Z</time></trkpt><trkpt lat="43.6933433" lon="11.2127476"><ele>97.0</ele><time>2026-04-25T08:22:11.329Z</time></trkpt><trkpt lat="43.6935864" lon="11.2126372"><ele>97.5</ele><time>2026-04-25T08:22:12.325Z</time></trkpt><trkpt lat="43.6938284" lon="11.2125202"><ele>98.0</ele><time>2026-04-25T08:22:13.324Z</time></trkpt><trkpt lat="43.6940748" lon="11.2124031"><ele>95.0</ele><time>2026-04-25T08:22:14.325Z</time></trkpt><trkpt lat="43.6943152" lon="11.2122985"><ele>92.0</ele><time>2026-04-25T08:22:15.326Z</time></trkpt><trkpt lat="43.6945551" lon="11.2121884"><ele>92.0</ele><time>2026-04-25T08:22:16.299Z</time></trkpt><trkpt lat="43.6947908" lon="11.2120783"><ele>92.0</ele><time>2026-04-25T08:22:17.287Z</time></trkpt><trkpt lat="43.6950285" lon="11.2119682"><ele>95.5</ele><time>2026-04-25T08:22:18.31Z</time></trkpt><trkpt lat="43.6952683" lon="11.211855"><ele>99.0</ele><time>2026-04-25T08:22:19.297Z</time></trkpt><trkpt lat="43.6955155" lon="11.2117461"><ele>99.0</ele><time>2026-04-25T08:22:20.315Z</time></trkpt><trkpt lat="43.6957586" lon="11.2116477"><ele>99.0</ele><time>2026-04-25T08:22:21.279Z</time></trkpt><trkpt lat="43.6960036" lon="11.2115706"><ele>98.0</ele><time>2026-04-25T08:22:22.314Z</time></trkpt><trkpt lat="43.6962558" lon="11.2115114"><ele>97.0</ele><time>2026-04-25T08:22:23.324Z</time></trkpt><trkpt lat="43.6965211" lon="11.2114976"><ele>97.0</ele><time>2026-04-25T08:22:24.332Z</time></trkpt><trkpt lat="43.6967909" lon="11.2115152"><ele>97.0</ele><time>2026-04-25T08:22:25.332Z</time></trkpt><trkpt lat="43.6970609" lon="11.2115458"><ele>95.0</ele><time>2026-04-25T08:22:26.323Z</time></trkpt><trkpt lat="43.6973203" lon="11.2116017"><ele>93.0</ele><time>2026-04-25T08:22:27.326Z</time></trkpt><trkpt lat="43.6975756" lon="11.2116747"><ele>91.0</ele><time>2026-04-25T08:22:28.337Z</time></trkpt><trkpt lat="43.6978183" lon="11.2117612"><ele>89.0</ele><time>2026-04-25T08:22:29.321Z</time></trkpt><trkpt lat="43.6980532" lon="11.2118877"><ele>89.0</ele><time>2026-04-25T08:22:30.319Z</time></trkpt><trkpt lat="43.6982849" lon="11.2120413"><ele>89.0</ele><time>2026-04-25T08:22:31.324Z</time></trkpt><trkpt lat="43.6985122" lon="11.2122084"><ele>89.0</ele><time>2026-04-25T08:22:32.325Z</time></trkpt><trkpt lat="43.6987449" lon="11.2123833"><ele>89.0</ele><time>2026-04-25T08:22:33.338Z</time></trkpt><trkpt lat="43.6989679" lon="11.2125659"><ele>89.0</ele><time>2026-04-25T08:22:34.317Z</time></trkpt><trkpt lat="43.6991907" lon="11.2127496"><ele>89.0</ele><time>2026-04-25T08:22:35.324Z</time></trkpt><trkpt lat="43.6994063" lon="11.2129341"><ele>87.5</ele><time>2026-04-25T08:22:36.338Z</time></trkpt><trkpt lat="43.6996232" lon="11.2131166"><ele>86.0</ele><time>2026-04-25T08:22:37.319Z</time></trkpt><trkpt lat="43.699844" lon="11.2132872"><ele>86.0</ele><time>2026-04-25T08:22:38.325Z</time></trkpt><trkpt lat="43.7000681" lon="11.2134458"><ele>86.0</ele><time>2026-04-25T08:22:39.324Z</time></trkpt><trkpt lat="43.7003008" lon="11.2135835"><ele>86.0</ele><time>2026-04-25T08:22:40.313Z</time></trkpt><trkpt lat="43.7005388" lon="11.2137099"><ele>86.0</ele><time>2026-04-25T08:22:41.332Z</time></trkpt><trkpt lat="43.700787" lon="11.2138167"><ele>86.0</ele><time>2026-04-25T08:22:42.335Z</time></trkpt><trkpt lat="43.70104" lon="11.2139071"><ele>86.0</ele><time>2026-04-25T08:22:43.317Z</time></trkpt><trkpt lat="43.7012973" lon="11.213981"><ele>85.0</ele><time>2026-04-25T08:22:44.325Z</time></trkpt><trkpt lat="43.7015531" lon="11.2140447"><ele>84.0</ele><time>2026-04-25T08:22:45.314Z</time></trkpt><trkpt lat="43.7018032" lon="11.2140802"><ele>85.5</ele><time>2026-04-25T08:22:46.323Z</time></trkpt><trkpt lat="43.7020569" lon="11.2140842"><ele>87.0</ele><time>2026-04-25T08:22:47.314Z</time></trkpt><trkpt lat="43.7023146" lon="11.2140701"><ele>87.0</ele><time>2026-04-25T08:22:48.342Z</time></trkpt><trkpt lat="43.702584" lon="11.2140397"><ele>87.0</ele><time>2026-04-25T08:22:49.314Z</time></trkpt><trkpt lat="43.7028548" lon="11.2140016"><ele>92.0</ele><time>2026-04-25T08:22:50.329Z</time></trkpt><trkpt lat="43.7031257" lon="11.2139543"><ele>97.0</ele><time>2026-04-25T08:22:51.334Z</time></trkpt><trkpt lat="43.7034104" lon="11.2139022"><ele>123.0</ele><time>2026-04-25T08:22:52.313Z</time></trkpt><trkpt lat="43.7036955" lon="11.2138485"><ele>149.0</ele><time>2026-04-25T08:22:53.31Z</time></trkpt><trkpt lat="43.7039845" lon="11.2137955"><ele>83.0</ele><time>2026-04-25T08:22:54.314Z</time></trkpt><trkpt lat="43.707498" lon="11.2131863"><ele>79.0</ele><time>2026-04-25T08:23:06.285Z</time></trkpt><trkpt lat="43.7078047" lon="11.2131335"><ele>75.0</ele><time>2026-04-25T08:23:07.327Z</time></trkpt><trkpt lat="43.7080535" lon="11.2131319"><ele>75.0</ele><time>2026-04-25T08:23:08.322Z</time></trkpt><trkpt lat="43.7083036" lon="11.2131171"><ele>75.0</ele><time>2026-04-25T08:23:09.312Z</time></trkpt><trkpt lat="43.7085734" lon="11.2131356"><ele>74.0</ele><time>2026-04-25T08:23:10.32Z</time></trkpt><trkpt lat="43.7088407" lon="11.2131681"><ele>73.0</ele><time>2026-04-25T08:23:11.321Z</time></trkpt><trkpt lat="43.7091025" lon="11.2132144"><ele>73.0</ele><time>2026-04-25T08:23:12.326Z</time></trkpt><trkpt lat="43.709367" lon="11.2132775"><ele>73.0</ele><time>2026-04-25T08:23:13.338Z</time></trkpt><trkpt lat="43.7096334" lon="11.2133666"><ele>73.0</ele><time>2026-04-25T08:23:14.307Z</time></trkpt><trkpt lat="43.7098997" lon="11.2134842"><ele>73.0</ele><time>2026-04-25T08:23:15.333Z</time></trkpt><trkpt lat="43.7101671" lon="11.2136216"><ele>72.5</ele><time>2026-04-25T08:23:16.327Z</time></trkpt><trkpt lat="43.7104239" lon="11.2137726"><ele>72.0</ele><time>2026-04-25T08:23:17.334Z</time></trkpt><trkpt lat="43.7106766" lon="11.2139265"><ele>72.0</ele><time>2026-04-25T08:23:18.322Z</time></trkpt><trkpt lat="43.7109263" lon="11.2140825"><ele>72.0</ele><time>2026-04-25T08:23:19.339Z</time></trkpt><trkpt lat="43.7111728" lon="11.2142371"><ele>73.5</ele><time>2026-04-25T08:23:20.325Z</time></trkpt><trkpt lat="43.7114142" lon="11.2143858"><ele>75.0</ele><time>2026-04-25T08:23:21.319Z</time></trkpt><trkpt lat="43.7116512" lon="11.2145369"><ele>75.0</ele><time>2026-04-25T08:23:22.336Z</time></trkpt><trkpt lat="43.7118848" lon="11.2146932"><ele>75.0</ele><time>2026-04-25T08:23:23.322Z</time></trkpt><trkpt lat="43.7121168" lon="11.2148489"><ele>74.0</ele><time>2026-04-25T08:23:24.327Z</time></trkpt><trkpt lat="43.7123476" lon="11.2150064"><ele>73.0</ele><time>2026-04-25T08:23:25.325Z</time></trkpt><trkpt lat="43.7125732" lon="11.2151796"><ele>77.0</ele><time>2026-04-25T08:23:26.323Z</time></trkpt><trkpt lat="43.7127942" lon="11.2153696"><ele>81.0</ele><time>2026-04-25T08:23:27.322Z</time></trkpt><trkpt lat="43.7129994" lon="11.2155854"><ele>75.5</ele><time>2026-04-25T08:23:28.334Z</time></trkpt><trkpt lat="43.7131961" lon="11.2158079"><ele>70.0</ele><time>2026-04-25T08:23:29.322Z</time></trkpt><trkpt lat="43.7133792" lon="11.2160446"><ele>70.0</ele><time>2026-04-25T08:23:30.335Z</time></trkpt><trkpt lat="43.7135512" lon="11.2162954"><ele>70.0</ele><time>2026-04-25T08:23:31.337Z</time></trkpt><trkpt lat="43.7137157" lon="11.2165555"><ele>72.5</ele><time>2026-04-25T08:23:32.323Z</time></trkpt><trkpt lat="43.7138666" lon="11.2168321"><ele>75.0</ele><time>2026-04-25T08:23:33.327Z</time></trkpt><trkpt lat="43.7140031" lon="11.217119"><ele>73.5</ele><time>2026-04-25T08:23:34.327Z</time></trkpt><trkpt lat="43.7141348" lon="11.2174129"><ele>72.0</ele><time>2026-04-25T08:23:35.31Z</time></trkpt><trkpt lat="43.7142617" lon="11.2177115"><ele>72.0</ele><time>2026-04-25T08:23:36.305Z</time></trkpt><trkpt lat="43.7143881" lon="11.2180004"><ele>72.0</ele><time>2026-04-25T08:23:37.335Z</time></trkpt><trkpt lat="43.7145203" lon="11.2182879"><ele>77.5</ele><time>2026-04-25T08:23:38.332Z</time></trkpt><trkpt lat="43.7146675" lon="11.2185482"><ele>83.0</ele><time>2026-04-25T08:23:39.332Z</time></trkpt><trkpt lat="43.7148216" lon="11.2187877"><ele>79.0</ele><time>2026-04-25T08:23:40.332Z</time></trkpt><trkpt lat="43.7149788" lon="11.2190107"><ele>75.0</ele><time>2026-04-25T08:23:41.338Z</time></trkpt><trkpt lat="43.7151469" lon="11.2192305"><ele>80.5</ele><time>2026-04-25T08:23:42.327Z</time></trkpt><trkpt lat="43.7153334" lon="11.2194353"><ele>86.0</ele><time>2026-04-25T08:23:43.328Z</time></trkpt><trkpt lat="43.7155233" lon="11.2196257"><ele>86.0</ele><time>2026-04-25T08:23:44.329Z</time></trkpt><trkpt lat="43.7157224" lon="11.2197977"><ele>86.0</ele><time>2026-04-25T08:23:45.327Z</time></trkpt><trkpt lat="43.7159288" lon="11.219951"><ele>83.5</ele><time>2026-04-25T08:23:46.331Z</time></trkpt><trkpt lat="43.7161377" lon="11.2200793"><ele>81.0</ele><time>2026-04-25T08:23:47.338Z</time></trkpt><trkpt lat="43.7163435" lon="11.2201925"><ele>81.0</ele><time>2026-04-25T08:23:48.296Z</time></trkpt><trkpt lat="43.7165446" lon="11.2202686"><ele>81.0</ele><time>2026-04-25T08:23:49.316Z</time></trkpt><trkpt lat="43.7167401" lon="11.2203272"><ele>81.0</ele><time>2026-04-25T08:23:50.323Z</time></trkpt><trkpt lat="43.7169245" lon="11.220381"><ele>82.33333333333333</ele><time>2026-04-25T08:23:51.322Z</time></trkpt><trkpt lat="43.7171079" lon="11.2204255"><ele>83.66666666666666</ele><time>2026-04-25T08:23:52.326Z</time></trkpt><trkpt lat="43.717274" lon="11.2204607"><ele>85.0</ele><time>2026-04-25T08:23:53.317Z</time></trkpt><trkpt lat="43.717431" lon="11.2204919"><ele>85.0</ele><time>2026-04-25T08:23:54.328Z</time></trkpt><trkpt lat="43.7175914" lon="11.2205135"><ele>85.0</ele><time>2026-04-25T08:23:55.33Z</time></trkpt><trkpt lat="43.7177472" lon="11.2205367"><ele>85.0</ele><time>2026-04-25T08:23:56.329Z</time></trkpt><trkpt lat="43.7179136" lon="11.2205719"><ele>84.33333333333333</ele><time>2026-04-25T08:23:57.327Z</time></trkpt><trkpt lat="43.7180887" lon="11.2205985"><ele>83.66666666666667</ele><time>2026-04-25T08:23:58.317Z</time></trkpt><trkpt lat="43.7182639" lon="11.2206285"><ele>83.0</ele><time>2026-04-25T08:23:59.321Z</time></trkpt><trkpt lat="43.7184473" lon="11.2206576"><ele>79.33333333333334</ele><time>2026-04-25T08:24:00.322Z</time></trkpt><trkpt lat="43.7186387" lon="11.2206667"><ele>75.66666666666667</ele><time>2026-04-25T08:24:01.318Z</time></trkpt><trkpt lat="43.7188213" lon="11.2206726"><ele>72.0</ele><time>2026-04-25T08:24:02.337Z</time></trkpt><trkpt lat="43.7189942" lon="11.2206718"><ele>72.0</ele><time>2026-04-25T08:24:03.333Z</time></trkpt><trkpt lat="43.719158" lon="11.2206594"><ele>72.0</ele><time>2026-04-25T08:24:04.33Z</time></trkpt><trkpt lat="43.7193121" lon="11.2206457"><ele>72.0</ele><time>2026-04-25T08:24:05.334Z</time></trkpt><trkpt lat="43.7194608" lon="11.2206291"><ele>72.66666666666667</ele><time>2026-04-25T08:24:06.328Z</time></trkpt><trkpt lat="43.7196065" lon="11.2205999"><ele>73.33333333333334</ele><time>2026-04-25T08:24:07.321Z</time></trkpt><trkpt lat="43.7197538" lon="11.2205528"><ele>74.0</ele><time>2026-04-25T08:24:08.338Z</time></trkpt><trkpt lat="43.7199007" lon="11.2204828"><ele>74.0</ele><time>2026-04-25T08:24:09.327Z</time></trkpt><trkpt lat="43.720051" lon="11.2203955"><ele>74.0</ele><time>2026-04-25T08:24:10.341Z</time></trkpt><trkpt lat="43.7202133" lon="11.2202731"><ele>74.0</ele><time>2026-04-25T08:24:11.333Z</time></trkpt><trkpt lat="43.7203713" lon="11.2201304"><ele>73.33333333333334</ele><time>2026-04-25T08:24:12.331Z</time></trkpt><trkpt lat="43.7205296" lon="11.2199869"><ele>72.66666666666667</ele><time>2026-04-25T08:24:13.329Z</time></trkpt><trkpt lat="43.7206951" lon="11.2198396"><ele>72.0</ele><time>2026-04-25T08:24:14.325Z</time></trkpt><trkpt lat="43.7208684" lon="11.2196882"><ele>74.0</ele><time>2026-04-25T08:24:15.322Z</time></trkpt><trkpt lat="43.7210333" lon="11.2195361"><ele>76.0</ele><time>2026-04-25T08:24:16.326Z</time></trkpt><trkpt lat="43.7211862" lon="11.2194106"><ele>78.0</ele><time>2026-04-25T08:24:17.315Z</time></trkpt><trkpt lat="43.7272773" lon="11.2183115"><ele>78.0</ele><time>2026-04-25T08:24:55.345Z</time></trkpt><trkpt lat="43.7274091" lon="11.2182362"><ele>78.0</ele><time>2026-04-25T08:24:56.321Z</time></trkpt><trkpt lat="43.7275546" lon="11.2181605"><ele>78.0</ele><time>2026-04-25T08:24:57.307Z</time></trkpt><trkpt lat="43.7277024" lon="11.2180916"><ele>85.5</ele><time>2026-04-25T08:24:58.31Z</time></trkpt><trkpt lat="43.7278607" lon="11.2180158"><ele>93.0</ele><time>2026-04-25T08:24:59.294Z</time></trkpt><trkpt lat="43.7378075" lon="11.2136772"><ele>80.66666666666667</ele><time>2026-04-25T08:26:04.318Z</time></trkpt><trkpt lat="43.7379861" lon="11.2137349"><ele>68.33333333333334</ele><time>2026-04-25T08:26:05.288Z</time></trkpt><trkpt lat="43.7381945" lon="11.2137755"><ele>56.0</ele><time>2026-04-25T08:26:06.32Z</time></trkpt><trkpt lat="43.7383748" lon="11.213816"><ele>55.0</ele><time>2026-04-25T08:26:07.314Z</time></trkpt><trkpt lat="43.7385582" lon="11.2138595"><ele>54.0</ele><time>2026-04-25T08:26:08.328Z</time></trkpt><trkpt lat="43.7387419" lon="11.2139035"><ele>53.0</ele><time>2026-04-25T08:26:09.325Z</time></trkpt><trkpt lat="43.738926" lon="11.2139483"><ele>53.66666666666667</ele><time>2026-04-25T08:26:10.325Z</time></trkpt><trkpt lat="43.7391118" lon="11.2139948"><ele>54.33333333333333</ele><time>2026-04-25T08:26:11.31Z</time></trkpt><trkpt lat="43.7393012" lon="11.2140419"><ele>55.0</ele><time>2026-04-25T08:26:12.296Z</time></trkpt><trkpt lat="43.7394912" lon="11.2140872"><ele>58.0</ele><time>2026-04-25T08:26:13.331Z</time></trkpt><trkpt lat="43.7396836" lon="11.2141287"><ele>61.0</ele><time>2026-04-25T08:26:14.326Z</time></trkpt><trkpt lat="43.7398806" lon="11.2141714"><ele>64.0</ele><time>2026-04-25T08:26:15.326Z</time></trkpt><trkpt lat="43.7400643" lon="11.2142161"><ele>62.666666666666664</ele><time>2026-04-25T08:26:16.286Z</time></trkpt><trkpt lat="43.740242" lon="11.214254"><ele>61.33333333333333</ele><time>2026-04-25T08:26:17.318Z</time></trkpt><trkpt lat="43.7404135" lon="11.2142891"><ele>60.0</ele><time>2026-04-25T08:26:18.337Z</time></trkpt><trkpt lat="43.7405812" lon="11.2143277"><ele>60.0</ele><time>2026-04-25T08:26:19.325Z</time></trkpt><trkpt lat="43.7407483" lon="11.2143723"><ele>60.0</ele><time>2026-04-25T08:26:20.317Z</time></trkpt><trkpt lat="43.7409196" lon="11.2144213"><ele>60.0</ele><time>2026-04-25T08:26:21.329Z</time></trkpt><trkpt lat="43.7410873" lon="11.2144731"><ele>58.66666666666667</ele><time>2026-04-25T08:26:22.291Z</time></trkpt><trkpt lat="43.7412518" lon="11.2145454"><ele>57.333333333333336</ele><time>2026-04-25T08:26:23.31Z</time></trkpt><trkpt lat="43.7414126" lon="11.21463"><ele>56.0</ele><time>2026-04-25T08:26:24.344Z</time></trkpt><trkpt lat="43.741563" lon="11.2147213"><ele>56.333333333333336</ele><time>2026-04-25T08:26:25.324Z</time></trkpt><trkpt lat="43.7417064" lon="11.2148274"><ele>56.66666666666667</ele><time>2026-04-25T08:26:26.331Z</time></trkpt><trkpt lat="43.7418381" lon="11.214939"><ele>57.0</ele><time>2026-04-25T08:26:27.336Z</time></trkpt><trkpt lat="43.7419612" lon="11.2150595"><ele>57.0</ele><time>2026-04-25T08:26:28.31Z</time></trkpt><trkpt lat="43.7420866" lon="11.2152039"><ele>57.0</ele><time>2026-04-25T08:26:29.333Z</time></trkpt><trkpt lat="43.7422037" lon="11.2153718"><ele>57.0</ele><time>2026-04-25T08:26:30.323Z</time></trkpt><trkpt lat="43.7423069" lon="11.2155501"><ele>61.0</ele><time>2026-04-25T08:26:31.317Z</time></trkpt><trkpt lat="43.7423984" lon="11.2157357"><ele>65.0</ele><time>2026-04-25T08:26:32.33Z</time></trkpt><trkpt lat="43.7424791" lon="11.2159332"><ele>69.0</ele><time>2026-04-25T08:26:33.331Z</time></trkpt><trkpt lat="43.7425441" lon="11.2161416"><ele>69.0</ele><time>2026-04-25T08:26:34.324Z</time></trkpt><trkpt lat="43.7425984" lon="11.2163533"><ele>69.0</ele><time>2026-04-25T08:26:35.326Z</time></trkpt><trkpt lat="43.7426367" lon="11.2165704"><ele>69.0</ele><time>2026-04-25T08:26:36.354Z</time></trkpt><trkpt lat="43.7426597" lon="11.2167856"><ele>71.33333333333333</ele><time>2026-04-25T08:26:37.333Z</time></trkpt><trkpt lat="43.7426756" lon="11.2170085"><ele>73.66666666666666</ele><time>2026-04-25T08:26:38.317Z</time></trkpt><trkpt lat="43.742685" lon="11.2172329"><ele>76.0</ele><time>2026-04-25T08:26:39.328Z</time></trkpt><trkpt lat="43.7426895" lon="11.2174672"><ele>76.0</ele><time>2026-04-25T08:26:40.334Z</time></trkpt><trkpt lat="43.7426854" lon="11.217711"><ele>76.0</ele><time>2026-04-25T08:26:41.312Z</time></trkpt><trkpt lat="43.7426747" lon="11.2179696"><ele>76.0</ele><time>2026-04-25T08:26:42.349Z</time></trkpt><trkpt lat="43.7426609" lon="11.2182179"><ele>76.0</ele><time>2026-04-25T08:26:43.314Z</time></trkpt><trkpt lat="43.7426455" lon="11.2184625"><ele>76.0</ele><time>2026-04-25T08:26:44.353Z</time></trkpt><trkpt lat="43.7426259" lon="11.2186816"><ele>76.0</ele><time>2026-04-25T08:26:45.31Z</time></trkpt><trkpt lat="43.7426038" lon="11.2188738"><ele>75.39999999999999</ele><time>2026-04-25T08:26:46.335Z</time></trkpt><trkpt lat="43.7425707" lon="11.2190213"><ele>74.8</ele><time>2026-04-25T08:26:47.33Z</time></trkpt><trkpt lat="43.7425161" lon="11.2191389"><ele>74.19999999999999</ele><time>2026-04-25T08:26:48.35Z</time></trkpt><trkpt lat="43.7424484" lon="11.2192484"><ele>73.6</ele><time>2026-04-25T08:26:49.335Z</time></trkpt><trkpt lat="43.7423955" lon="11.2193741"><ele>73.0</ele><time>2026-04-25T08:26:50.34Z</time></trkpt><trkpt lat="43.7423823" lon="11.2195332"><ele>73.0</ele><time>2026-04-25T08:26:51.33Z</time></trkpt><trkpt lat="43.7424045" lon="11.2197049"><ele>73.0</ele><time>2026-04-25T08:26:52.332Z</time></trkpt><trkpt lat="43.742444" lon="11.219882"><ele>73.0</ele><time>2026-04-25T08:26:53.328Z</time></trkpt><trkpt lat="43.7424659" lon="11.220055"><ele>73.0</ele><time>2026-04-25T08:26:54.325Z</time></trkpt><trkpt lat="43.7424647" lon="11.2202207"><ele>73.25</ele><time>2026-04-25T08:26:55.326Z</time></trkpt><trkpt lat="43.7424641" lon="11.2203904"><ele>73.5</ele><time>2026-04-25T08:26:56.323Z</time></trkpt><trkpt lat="43.7424539" lon="11.220569"><ele>73.75</ele><time>2026-04-25T08:26:57.332Z</time></trkpt><trkpt lat="43.7424458" lon="11.2207451"><ele>74.0</ele><time>2026-04-25T08:26:58.309Z</time></trkpt><trkpt lat="43.7424338" lon="11.2209164"><ele>74.0</ele><time>2026-04-25T08:26:59.313Z</time></trkpt><trkpt lat="43.7424196" lon="11.2210731"><ele>74.0</ele><time>2026-04-25T08:27:00.311Z</time></trkpt><trkpt lat="43.7422939" lon="11.2242985"><ele>74.4</ele><time>2026-04-25T08:27:22.314Z</time></trkpt><trkpt lat="43.7422973" lon="11.2244037"><ele>74.80000000000001</ele><time>2026-04-25T08:27:23.326Z</time></trkpt><trkpt lat="43.7422759" lon="11.2245574"><ele>75.19999999999999</ele><time>2026-04-25T08:27:25.314Z</time></trkpt><trkpt lat="43.7422179" lon="11.2246965"><ele>75.6</ele><time>2026-04-25T08:27:27.328Z</time></trkpt><trkpt lat="43.7421622" lon="11.2247762"><ele>76.0</ele><time>2026-04-25T08:27:28.321Z</time></trkpt><trkpt lat="43.7421096" lon="11.2248701"><ele>75.16666666666666</ele><time>2026-04-25T08:27:29.33Z</time></trkpt><trkpt lat="43.7420835" lon="11.2249746"><ele>74.33333333333333</ele><time>2026-04-25T08:27:30.31Z</time></trkpt><trkpt lat="43.7421005" lon="11.2250824"><ele>73.5</ele><time>2026-04-25T08:27:31.327Z</time></trkpt><trkpt lat="43.7421416" lon="11.2251861"><ele>72.66666666666667</ele><time>2026-04-25T08:27:32.331Z</time></trkpt><trkpt lat="43.7422225" lon="11.2252508"><ele>71.83333333333334</ele><time>2026-04-25T08:27:33.344Z</time></trkpt><trkpt lat="43.7423233" lon="11.2253109"><ele>71.0</ele><time>2026-04-25T08:27:34.33Z</time></trkpt><trkpt lat="43.7424115" lon="11.2253666"><ele>71.0</ele><time>2026-04-25T08:27:35.337Z</time></trkpt><trkpt lat="43.7424848" lon="11.2254507"><ele>71.0</ele><time>2026-04-25T08:27:36.346Z</time></trkpt><trkpt lat="43.7425577" lon="11.2255498"><ele>71.0</ele><time>2026-04-25T08:27:37.341Z</time></trkpt><trkpt lat="43.7426334" lon="11.2256441"><ele>71.0</ele><time>2026-04-25T08:27:38.334Z</time></trkpt><trkpt lat="43.7427258" lon="11.2257396"><ele>71.0</ele><time>2026-04-25T08:27:39.331Z</time></trkpt><trkpt lat="43.7428271" lon="11.2258262"><ele>71.66666666666667</ele><time>2026-04-25T08:27:40.343Z</time></trkpt><trkpt lat="43.7429381" lon="11.2259303"><ele>72.33333333333333</ele><time>2026-04-25T08:27:41.312Z</time></trkpt><trkpt lat="43.7430767" lon="11.2260606"><ele>73.0</ele><time>2026-04-25T08:27:42.333Z</time></trkpt><trkpt lat="43.743231" lon="11.2261905"><ele>73.0</ele><time>2026-04-25T08:27:43.318Z</time></trkpt><trkpt lat="43.7433831" lon="11.2263343"><ele>73.0</ele><time>2026-04-25T08:27:44.302Z</time></trkpt><trkpt lat="43.7435308" lon="11.2264655"><ele>73.0</ele><time>2026-04-25T08:27:45.329Z</time></trkpt><trkpt lat="43.7436814" lon="11.2266033"><ele>73.0</ele><time>2026-04-25T08:27:46.329Z</time></trkpt><trkpt lat="43.7438306" lon="11.2267466"><ele>73.0</ele><time>2026-04-25T08:27:47.334Z</time></trkpt><trkpt lat="43.7439748" lon="11.2268887"><ele>73.0</ele><time>2026-04-25T08:27:48.313Z</time></trkpt><trkpt lat="43.744123" lon="11.2270239"><ele>73.0</ele><time>2026-04-25T08:27:49.293Z</time></trkpt><trkpt lat="43.7442653" lon="11.2271524"><ele>73.0</ele><time>2026-04-25T08:27:50.322Z</time></trkpt><trkpt lat="43.7444083" lon="11.2272704"><ele>73.0</ele><time>2026-04-25T08:27:51.32Z</time></trkpt><trkpt lat="43.7445392" lon="11.2273907"><ele>73.66666666666666</ele><time>2026-04-25T08:27:52.342Z</time></trkpt><trkpt lat="43.7446662" lon="11.2275093"><ele>74.33333333333333</ele><time>2026-04-25T08:27:53.333Z</time></trkpt><trkpt lat="43.744794" lon="11.2276223"><ele>75.0</ele><time>2026-04-25T08:27:54.336Z</time></trkpt><trkpt lat="43.744917" lon="11.2277336"><ele>75.0</ele><time>2026-04-25T08:27:55.331Z</time></trkpt><trkpt lat="43.7450275" lon="11.2278372"><ele>75.0</ele><time>2026-04-25T08:27:56.342Z</time></trkpt><trkpt lat="43.7451379" lon="11.227934"><ele>75.0</ele><time>2026-04-25T08:27:57.294Z</time></trkpt><trkpt lat="43.7452394" lon="11.2280309"><ele>75.0</ele><time>2026-04-25T08:27:58.323Z</time></trkpt><trkpt lat="43.7453437" lon="11.2281425"><ele>75.0</ele><time>2026-04-25T08:27:59.296Z</time></trkpt><trkpt lat="43.7454406" lon="11.228262"><ele>75.0</ele><time>2026-04-25T08:28:00.289Z</time></trkpt><trkpt lat="43.7455391" lon="11.2283825"><ele>75.0</ele><time>2026-04-25T08:28:01.293Z</time></trkpt><trkpt lat="43.7456358" lon="11.2284998"><ele>75.0</ele><time>2026-04-25T08:28:02.303Z</time></trkpt><trkpt lat="43.7457301" lon="11.2286218"><ele>75.0</ele><time>2026-04-25T08:28:03.291Z</time></trkpt><trkpt lat="43.745829" lon="11.2287448"><ele>75.0</ele><time>2026-04-25T08:28:04.317Z</time></trkpt><trkpt lat="43.7459199" lon="11.2288716"><ele>75.0</ele><time>2026-04-25T08:28:05.338Z</time></trkpt><trkpt lat="43.7460077" lon="11.2289954"><ele>75.0</ele><time>2026-04-25T08:28:06.351Z</time></trkpt><trkpt lat="43.7461006" lon="11.2291179"><ele>75.0</ele><time>2026-04-25T08:28:07.315Z</time></trkpt><trkpt lat="43.7462014" lon="11.2292431"><ele>75.0</ele><time>2026-04-25T08:28:08.34Z</time></trkpt><trkpt lat="43.7463121" lon="11.229369"><ele>75.0</ele><time>2026-04-25T08:28:09.354Z</time></trkpt><trkpt lat="43.7464154" lon="11.2294882"><ele>75.0</ele><time>2026-04-25T08:28:10.334Z</time></trkpt><trkpt lat="43.7465118" lon="11.2296114"><ele>75.0</ele><time>2026-04-25T08:28:11.305Z</time></trkpt><trkpt lat="43.7466074" lon="11.2297331"><ele>75.0</ele><time>2026-04-25T08:28:12.339Z</time></trkpt><trkpt lat="43.7466963" lon="11.2298538"><ele>75.0</ele><time>2026-04-25T08:28:13.334Z</time></trkpt><trkpt lat="43.7467858" lon="11.2299717"><ele>75.0</ele><time>2026-04-25T08:28:14.339Z</time></trkpt><trkpt lat="43.7468804" lon="11.2300851"><ele>76.25</ele><time>2026-04-25T08:28:15.332Z</time></trkpt><trkpt lat="43.7469695" lon="11.2301983"><ele>77.5</ele><time>2026-04-25T08:28:16.335Z</time></trkpt><trkpt lat="43.7470534" lon="11.2303191"><ele>78.75</ele><time>2026-04-25T08:28:17.326Z</time></trkpt><trkpt lat="43.7471315" lon="11.2304372"><ele>80.0</ele><time>2026-04-25T08:28:18.344Z</time></trkpt><trkpt lat="43.7472063" lon="11.2305633"><ele>79.25</ele><time>2026-04-25T08:28:19.323Z</time></trkpt><trkpt lat="43.7472743" lon="11.2306898"><ele>78.5</ele><time>2026-04-25T08:28:20.325Z</time></trkpt><trkpt lat="43.7473366" lon="11.2308191"><ele>77.75</ele><time>2026-04-25T08:28:21.335Z</time></trkpt><trkpt lat="43.7473962" lon="11.2309572"><ele>77.0</ele><time>2026-04-25T08:28:22.347Z</time></trkpt><trkpt lat="43.7474602" lon="11.2310979"><ele>77.0</ele><time>2026-04-25T08:28:23.34Z</time></trkpt><trkpt lat="43.7475328" lon="11.2312459"><ele>77.0</ele><time>2026-04-25T08:28:24.341Z</time></trkpt><trkpt lat="43.7476091" lon="11.2313985"><ele>77.0</ele><time>2026-04-25T08:28:25.332Z</time></trkpt><trkpt lat="43.7476825" lon="11.2315534"><ele>77.0</ele><time>2026-04-25T08:28:26.349Z</time></trkpt><trkpt lat="43.7477515" lon="11.2316957"><ele>77.8</ele><time>2026-04-25T08:28:27.325Z</time></trkpt><trkpt lat="43.7478123" lon="11.2318334"><ele>78.6</ele><time>2026-04-25T08:28:28.338Z</time></trkpt><trkpt lat="43.7478766" lon="11.231961"><ele>79.39999999999999</ele><time>2026-04-25T08:28:29.321Z</time></trkpt><trkpt lat="43.7479384" lon="11.2320919"><ele>80.2</ele><time>2026-04-25T08:28:30.348Z</time></trkpt><trkpt lat="43.7479956" lon="11.2322173"><ele>81.0</ele><time>2026-04-25T08:28:31.326Z</time></trkpt><trkpt lat="43.7480541" lon="11.232332"><ele>81.0</ele><time>2026-04-25T08:28:32.347Z</time></trkpt><trkpt lat="43.7481048" lon="11.2324423"><ele>81.0</ele><time>2026-04-25T08:28:33.331Z</time></trkpt><trkpt lat="43.748155" lon="11.2325615"><ele>81.0</ele><time>2026-04-25T08:28:34.336Z</time></trkpt><trkpt lat="43.7482044" lon="11.2326817"><ele>81.0</ele><time>2026-04-25T08:28:35.331Z</time></trkpt><trkpt lat="43.7482631" lon="11.232806"><ele>81.0</ele><time>2026-04-25T08:28:36.346Z</time></trkpt><trkpt lat="43.748323" lon="11.2329313"><ele>81.0</ele><time>2026-04-25T08:28:37.303Z</time></trkpt><trkpt lat="43.7483803" lon="11.2330603"><ele>81.0</ele><time>2026-04-25T08:28:38.333Z</time></trkpt><trkpt lat="43.7484388" lon="11.2331789"><ele>81.0</ele><time>2026-04-25T08:28:39.325Z</time></trkpt><trkpt lat="43.7485005" lon="11.2332842"><ele>81.0</ele><time>2026-04-25T08:28:40.336Z</time></trkpt><trkpt lat="43.7485505" lon="11.2333941"><ele>81.0</ele><time>2026-04-25T08:28:41.314Z</time></trkpt><trkpt lat="43.7486005" lon="11.233495"><ele>81.19999999999999</ele><time>2026-04-25T08:28:42.323Z</time></trkpt><trkpt lat="43.748649" lon="11.2336068"><ele>81.39999999999999</ele><time>2026-04-25T08:28:43.33Z</time></trkpt><trkpt lat="43.7487065" lon="11.2337233"><ele>81.6</ele><time>2026-04-25T08:28:44.342Z</time></trkpt><trkpt lat="43.7487619" lon="11.233848"><ele>81.8</ele><time>2026-04-25T08:28:45.333Z</time></trkpt><trkpt lat="43.7488165" lon="11.2339566"><ele>82.0</ele><time>2026-04-25T08:28:46.331Z</time></trkpt><trkpt lat="43.7488604" lon="11.2340545"><ele>82.0</ele><time>2026-04-25T08:28:47.341Z</time></trkpt><trkpt lat="43.7489044" lon="11.2341444"><ele>82.0</ele><time>2026-04-25T08:28:48.341Z</time></trkpt><trkpt lat="43.7489418" lon="11.2342262"><ele>82.0</ele><time>2026-04-25T08:28:49.323Z</time></trkpt><trkpt lat="43.7489898" lon="11.2343207"><ele>82.0</ele><time>2026-04-25T08:28:51.33Z</time></trkpt><trkpt lat="43.7490429" lon="11.2344097"><ele>82.0</ele><time>2026-04-25T08:28:54.332Z</time></trkpt><trkpt lat="43.7491287" lon="11.234412"><ele>82.0</ele><time>2026-04-25T08:28:56.334Z</time></trkpt><trkpt lat="43.7492232" lon="11.2343958"><ele>82.0</ele><time>2026-04-25T08:28:58.354Z</time></trkpt><trkpt lat="43.7492843" lon="11.2344366"><ele>82.0</ele><time>2026-04-25T08:29:00.328Z</time></trkpt><trkpt lat="43.7493371" lon="11.2344993"><ele>82.0</ele><time>2026-04-25T08:29:02.339Z</time></trkpt><trkpt lat="43.7493902" lon="11.2344416"><ele>82.0</ele><time>2026-04-25T08:29:47.29Z</time></trkpt><trkpt lat="43.749493" lon="11.2344844"><ele>82.0</ele><time>2026-04-25T08:32:51.456Z</time></trkpt><trkpt lat="43.7494894" lon="11.2343139"><ele>82.0</ele><time>2026-04-25T08:42:52.295Z</time></trkpt><trkpt lat="43.7494021" lon="11.2342974"><ele>82.0</ele><time>2026-04-25T08:43:06.213Z</time></trkpt><trkpt lat="43.749519" lon="11.2343374"><ele>82.0</ele><time>2026-04-25T08:44:39.988Z</time></trkpt><trkpt lat="43.7494673" lon="11.2344078"><ele>82.0</ele><time>2026-04-25T08:44:59.329Z</time></trkpt><trkpt lat="43.7493991" lon="11.2344385"><ele>82.0</ele><time>2026-04-25T08:45:03.34Z</time></trkpt><trkpt lat="43.7493854" lon="11.2345304"><ele>82.0</ele><time>2026-04-25T08:47:14.308Z</time></trkpt><trkpt lat="43.7493008" lon="11.2343959"><ele>81.99999999999999</ele><time>2026-04-25T08:47:23.299Z</time></trkpt><trkpt lat="43.7492183" lon="11.2343823"><ele>82.0</ele><time>2026-04-25T08:47:25.305Z</time></trkpt><trkpt lat="43.7491428" lon="11.2343788"><ele>82.0</ele><time>2026-04-25T08:47:27.31Z</time></trkpt><trkpt lat="43.7490738" lon="11.2343981"><ele>82.0</ele><time>2026-04-25T08:47:45.32Z</time></trkpt><trkpt lat="43.7491055" lon="11.2344977"><ele>82.0</ele><time>2026-04-25T08:47:47.311Z</time></trkpt><trkpt lat="43.7491365" lon="11.234576"><ele>81.99999999999999</ele><time>2026-04-25T08:47:48.302Z</time></trkpt><trkpt lat="43.7491735" lon="11.2346595"><ele>82.0</ele><time>2026-04-25T08:47:49.312Z</time></trkpt><trkpt lat="43.7492072" lon="11.234751"><ele>82.28571428571428</ele><time>2026-04-25T08:47:50.311Z</time></trkpt><trkpt lat="43.7492398" lon="11.2348299"><ele>82.57142857142857</ele><time>2026-04-25T08:47:51.32Z</time></trkpt><trkpt lat="43.7492792" lon="11.2349137"><ele>82.85714285714286</ele><time>2026-04-25T08:47:52.323Z</time></trkpt><trkpt lat="43.7493168" lon="11.2349976"><ele>83.14285714285714</ele><time>2026-04-25T08:47:53.309Z</time></trkpt><trkpt lat="43.7493531" lon="11.2350904"><ele>83.42857142857143</ele><time>2026-04-25T08:47:54.322Z</time></trkpt><trkpt lat="43.7493866" lon="11.2351693"><ele>83.71428571428571</ele><time>2026-04-25T08:47:55.304Z</time></trkpt><trkpt lat="43.749419" lon="11.2352466"><ele>84.0</ele><time>2026-04-25T08:47:56.301Z</time></trkpt><trkpt lat="43.7494565" lon="11.2353166"><ele>84.33333333333333</ele><time>2026-04-25T08:47:57.317Z</time></trkpt><trkpt lat="43.7495261" lon="11.2354561"><ele>84.66666666666667</ele><time>2026-04-25T08:47:59.305Z</time></trkpt><trkpt lat="43.7495692" lon="11.2355223"><ele>85.0</ele><time>2026-04-25T08:48:00.301Z</time></trkpt><trkpt lat="43.7496153" lon="11.235584"><ele>85.33333333333334</ele><time>2026-04-25T08:48:01.334Z</time></trkpt><trkpt lat="43.7496648" lon="11.2356479"><ele>85.66666666666667</ele><time>2026-04-25T08:48:02.314Z</time></trkpt><trkpt lat="43.7497193" lon="11.2357005"><ele>86.0</ele><time>2026-04-25T08:48:03.327Z</time></trkpt><trkpt lat="43.7497803" lon="11.2357494"><ele>86.00000000000001</ele><time>2026-04-25T08:48:04.331Z</time></trkpt><trkpt lat="43.7498398" lon="11.2357991"><ele>86.0</ele><time>2026-04-25T08:48:05.315Z</time></trkpt><trkpt lat="43.7498988" lon="11.2358511"><ele>86.0</ele><time>2026-04-25T08:48:06.309Z</time></trkpt><trkpt lat="43.7499589" lon="11.2359082"><ele>86.0</ele><time>2026-04-25T08:48:07.309Z</time></trkpt><trkpt lat="43.7500169" lon="11.2359612"><ele>86.0</ele><time>2026-04-25T08:48:08.324Z</time></trkpt><trkpt lat="43.7500719" lon="11.2360292"><ele>86.00000000000001</ele><time>2026-04-25T08:48:09.311Z</time></trkpt><trkpt lat="43.7501257" lon="11.2360912"><ele>86.0</ele><time>2026-04-25T08:48:10.322Z</time></trkpt><trkpt lat="43.7501829" lon="11.2361583"><ele>87.0</ele><time>2026-04-25T08:48:11.327Z</time></trkpt><trkpt lat="43.7502326" lon="11.2362394"><ele>88.0</ele><time>2026-04-25T08:48:12.318Z</time></trkpt><trkpt lat="43.750269" lon="11.2363124"><ele>89.0</ele><time>2026-04-25T08:48:13.319Z</time></trkpt><trkpt lat="43.7502954" lon="11.2364655"><ele>90.0</ele><time>2026-04-25T08:48:15.304Z</time></trkpt><trkpt lat="43.7503108" lon="11.2366615"><ele>91.0</ele><time>2026-04-25T08:48:17.328Z</time></trkpt><trkpt lat="43.750313" lon="11.2367795"><ele>91.0</ele><time>2026-04-25T08:48:18.311Z</time></trkpt><trkpt lat="43.7503084" lon="11.2368909"><ele>91.0</ele><time>2026-04-25T08:48:19.328Z</time></trkpt><trkpt lat="43.7502988" lon="11.2369931"><ele>91.0</ele><time>2026-04-25T08:48:20.326Z</time></trkpt><trkpt lat="43.7502881" lon="11.2370912"><ele>91.0</ele><time>2026-04-25T08:48:21.317Z</time></trkpt><trkpt lat="43.750283" lon="11.2371856"><ele>91.0</ele><time>2026-04-25T08:48:22.339Z</time></trkpt><trkpt lat="43.7502811" lon="11.2373589"><ele>91.0</ele><time>2026-04-25T08:48:24.329Z</time></trkpt><trkpt lat="43.7502742" lon="11.2375379"><ele>91.16666666666666</ele><time>2026-04-25T08:48:26.322Z</time></trkpt><trkpt lat="43.7502787" lon="11.237645"><ele>91.33333333333333</ele><time>2026-04-25T08:48:27.316Z</time></trkpt><trkpt lat="43.7502731" lon="11.2377592"><ele>91.5</ele><time>2026-04-25T08:48:28.305Z</time></trkpt><trkpt lat="43.7502686" lon="11.2378781"><ele>91.66666666666667</ele><time>2026-04-25T08:48:29.275Z</time></trkpt><trkpt lat="43.7502664" lon="11.2379897"><ele>91.83333333333334</ele><time>2026-04-25T08:48:30.311Z</time></trkpt><trkpt lat="43.7502649" lon="11.2381176"><ele>92.0</ele><time>2026-04-25T08:48:31.313Z</time></trkpt><trkpt lat="43.7502628" lon="11.2382556"><ele>92.19999999999999</ele><time>2026-04-25T08:48:32.312Z</time></trkpt><trkpt lat="43.7502598" lon="11.2384061"><ele>92.4</ele><time>2026-04-25T08:48:33.317Z</time></trkpt><trkpt lat="43.7502635" lon="11.2385609"><ele>92.6</ele><time>2026-04-25T08:48:34.315Z</time></trkpt><trkpt lat="43.7502716" lon="11.2387154"><ele>92.80000000000001</ele><time>2026-04-25T08:48:35.299Z</time></trkpt><trkpt lat="43.750275" lon="11.238869"><ele>93.0</ele><time>2026-04-25T08:48:36.301Z</time></trkpt><trkpt lat="43.7502861" lon="11.2390221"><ele>93.4</ele><time>2026-04-25T08:48:37.319Z</time></trkpt><trkpt lat="43.7503028" lon="11.2391751"><ele>93.80000000000001</ele><time>2026-04-25T08:48:38.32Z</time></trkpt><trkpt lat="43.7503251" lon="11.2393192"><ele>94.2</ele><time>2026-04-25T08:48:39.32Z</time></trkpt><trkpt lat="43.7503423" lon="11.2394626"><ele>94.6</ele><time>2026-04-25T08:48:40.303Z</time></trkpt><trkpt lat="43.7503635" lon="11.2395991"><ele>95.0</ele><time>2026-04-25T08:48:41.317Z</time></trkpt><trkpt lat="43.7503856" lon="11.2397306"><ele>95.2</ele><time>2026-04-25T08:48:42.311Z</time></trkpt><trkpt lat="43.7504067" lon="11.2398742"><ele>95.4</ele><time>2026-04-25T08:48:43.328Z</time></trkpt><trkpt lat="43.7504327" lon="11.2400185"><ele>95.6</ele><time>2026-04-25T08:48:44.312Z</time></trkpt><trkpt lat="43.7504554" lon="11.2401493"><ele>95.8</ele><time>2026-04-25T08:48:45.303Z</time></trkpt><trkpt lat="43.7504866" lon="11.2402682"><ele>96.0</ele><time>2026-04-25T08:48:46.302Z</time></trkpt><trkpt lat="43.7505182" lon="11.2403909"><ele>96.0</ele><time>2026-04-25T08:48:47.298Z</time></trkpt><trkpt lat="43.7505535" lon="11.2405181"><ele>96.0</ele><time>2026-04-25T08:48:48.318Z</time></trkpt><trkpt lat="43.7505828" lon="11.2406427"><ele>96.0</ele><time>2026-04-25T08:48:49.323Z</time></trkpt><trkpt lat="43.7506152" lon="11.2407613"><ele>96.0</ele><time>2026-04-25T08:48:50.306Z</time></trkpt><trkpt lat="43.7506515" lon="11.2408816"><ele>96.0</ele><time>2026-04-25T08:48:51.309Z</time></trkpt><trkpt lat="43.7506849" lon="11.240997"><ele>95.83333333333333</ele><time>2026-04-25T08:48:52.308Z</time></trkpt><trkpt lat="43.750719" lon="11.2410983"><ele>95.66666666666667</ele><time>2026-04-25T08:48:53.314Z</time></trkpt><trkpt lat="43.7507501" lon="11.2412005"><ele>95.5</ele><time>2026-04-25T08:48:54.287Z</time></trkpt><trkpt lat="43.750778" lon="11.2413032"><ele>95.33333333333334</ele><time>2026-04-25T08:48:55.298Z</time></trkpt><trkpt lat="43.7508105" lon="11.2414118"><ele>95.16666666666667</ele><time>2026-04-25T08:48:56.315Z</time></trkpt><trkpt lat="43.7508479" lon="11.2415193"><ele>95.0</ele><time>2026-04-25T08:48:57.298Z</time></trkpt><trkpt lat="43.7508811" lon="11.2416233"><ele>95.0</ele><time>2026-04-25T08:48:58.301Z</time></trkpt><trkpt lat="43.7509151" lon="11.2417255"><ele>95.0</ele><time>2026-04-25T08:48:59.289Z</time></trkpt><trkpt lat="43.7509596" lon="11.2418266"><ele>95.0</ele><time>2026-04-25T08:49:00.311Z</time></trkpt><trkpt lat="43.7510085" lon="11.2419385"><ele>95.0</ele><time>2026-04-25T08:49:01.313Z</time></trkpt><trkpt lat="43.7510546" lon="11.242062"><ele>95.0</ele><time>2026-04-25T08:49:02.305Z</time></trkpt><trkpt lat="43.7510923" lon="11.2421837"><ele>96.4</ele><time>2026-04-25T08:49:03.314Z</time></trkpt><trkpt lat="43.7511318" lon="11.2423003"><ele>97.8</ele><time>2026-04-25T08:49:04.324Z</time></trkpt><trkpt lat="43.7511743" lon="11.2424345"><ele>99.19999999999999</ele><time>2026-04-25T08:49:05.312Z</time></trkpt><trkpt lat="43.751222" lon="11.2425736"><ele>100.6</ele><time>2026-04-25T08:49:06.315Z</time></trkpt><trkpt lat="43.7512733" lon="11.2427144"><ele>102.0</ele><time>2026-04-25T08:49:07.301Z</time></trkpt><trkpt lat="43.7513293" lon="11.2428479"><ele>102.0</ele><time>2026-04-25T08:49:08.31Z</time></trkpt><trkpt lat="43.7513793" lon="11.2429787"><ele>102.0</ele><time>2026-04-25T08:49:09.309Z</time></trkpt><trkpt lat="43.7514178" lon="11.2431043"><ele>102.0</ele><time>2026-04-25T08:49:10.3Z</time></trkpt><trkpt lat="43.7514594" lon="11.2432304"><ele>102.0</ele><time>2026-04-25T08:49:11.314Z</time></trkpt><trkpt lat="43.7515014" lon="11.2433454"><ele>102.0</ele><time>2026-04-25T08:49:12.32Z</time></trkpt><trkpt lat="43.7515545" lon="11.2434628"><ele>101.39999999999999</ele><time>2026-04-25T08:49:13.304Z</time></trkpt><trkpt lat="43.7516164" lon="11.243573"><ele>100.8</ele><time>2026-04-25T08:49:14.312Z</time></trkpt><trkpt lat="43.7516798" lon="11.2436719"><ele>100.2</ele><time>2026-04-25T08:49:15.311Z</time></trkpt><trkpt lat="43.7517437" lon="11.2437615"><ele>99.6</ele><time>2026-04-25T08:49:16.311Z</time></trkpt><trkpt lat="43.7518145" lon="11.2438549"><ele>99.0</ele><time>2026-04-25T08:49:17.304Z</time></trkpt><trkpt lat="43.7519049" lon="11.243959"><ele>99.5</ele><time>2026-04-25T08:49:18.322Z</time></trkpt><trkpt lat="43.752008" lon="11.2440646"><ele>100.0</ele><time>2026-04-25T08:49:19.317Z</time></trkpt><trkpt lat="43.752116" lon="11.2441695"><ele>100.5</ele><time>2026-04-25T08:49:20.308Z</time></trkpt><trkpt lat="43.7522052" lon="11.2442756"><ele>101.0</ele><time>2026-04-25T08:49:21.304Z</time></trkpt><trkpt lat="43.7522897" lon="11.2443721"><ele>101.0</ele><time>2026-04-25T08:49:22.326Z</time></trkpt><trkpt lat="43.75237" lon="11.2444656"><ele>101.0</ele><time>2026-04-25T08:49:23.31Z</time></trkpt><trkpt lat="43.7524463" lon="11.2445604"><ele>101.0</ele><time>2026-04-25T08:49:24.317Z</time></trkpt><trkpt lat="43.7525236" lon="11.2446598"><ele>101.0</ele><time>2026-04-25T08:49:25.322Z</time></trkpt><trkpt lat="43.7526034" lon="11.2447638"><ele>101.0</ele><time>2026-04-25T08:49:26.311Z</time></trkpt><trkpt lat="43.7526693" lon="11.2448696"><ele>101.83333333333333</ele><time>2026-04-25T08:49:27.309Z</time></trkpt><trkpt lat="43.7527103" lon="11.2449412"><ele>102.66666666666666</ele><time>2026-04-25T08:49:28.303Z</time></trkpt><trkpt lat="43.7527508" lon="11.2450114"><ele>103.5</ele><time>2026-04-25T08:49:30.294Z</time></trkpt><trkpt lat="43.7527861" lon="11.2450861"><ele>104.33333333333334</ele><time>2026-04-25T08:50:38.326Z</time></trkpt><trkpt lat="43.7528283" lon="11.2451804"><ele>105.16666666666667</ele><time>2026-04-25T08:50:43.308Z</time></trkpt><trkpt lat="43.7528903" lon="11.2452804"><ele>106.0</ele><time>2026-04-25T08:50:45.314Z</time></trkpt><trkpt lat="43.7529481" lon="11.2454029"><ele>106.0</ele><time>2026-04-25T08:50:47.32Z</time></trkpt><trkpt lat="43.7530139" lon="11.2455183"><ele>106.0</ele><time>2026-04-25T08:50:49.308Z</time></trkpt><trkpt lat="43.7531113" lon="11.2455925"><ele>106.0</ele><time>2026-04-25T08:50:51.319Z</time></trkpt><trkpt lat="43.7532339" lon="11.2455614"><ele>106.0</ele><time>2026-04-25T08:50:53.317Z</time></trkpt><trkpt lat="43.7533055" lon="11.2455287"><ele>106.0</ele><time>2026-04-25T08:50:54.315Z</time></trkpt><trkpt lat="43.7533918" lon="11.2454899"><ele>106.0</ele><time>2026-04-25T08:50:55.316Z</time></trkpt><trkpt lat="43.7534819" lon="11.2454439"><ele>106.0</ele><time>2026-04-25T08:50:56.291Z</time></trkpt><trkpt lat="43.7535796" lon="11.2453879"><ele>106.0</ele><time>2026-04-25T08:50:57.324Z</time></trkpt><trkpt lat="43.7536741" lon="11.2453321"><ele>106.0</ele><time>2026-04-25T08:50:58.306Z</time></trkpt><trkpt lat="43.7537645" lon="11.2452766"><ele>106.0</ele><time>2026-04-25T08:50:59.341Z</time></trkpt><trkpt lat="43.753857" lon="11.2452285"><ele>106.5</ele><time>2026-04-25T08:51:00.322Z</time></trkpt><trkpt lat="43.7539584" lon="11.2451762"><ele>107.0</ele><time>2026-04-25T08:51:01.297Z</time></trkpt><trkpt lat="43.754063" lon="11.2451177"><ele>107.5</ele><time>2026-04-25T08:51:02.334Z</time></trkpt><trkpt lat="43.7541718" lon="11.2450538"><ele>108.0</ele><time>2026-04-25T08:51:03.325Z</time></trkpt><trkpt lat="43.7542949" lon="11.2449853"><ele>107.0</ele><time>2026-04-25T08:51:04.305Z</time></trkpt><trkpt lat="43.7544166" lon="11.2449175"><ele>106.0</ele><time>2026-04-25T08:51:05.314Z</time></trkpt><trkpt lat="43.7545443" lon="11.2448493"><ele>105.0</ele><time>2026-04-25T08:51:06.327Z</time></trkpt><trkpt lat="43.7546733" lon="11.244795"><ele>104.0</ele><time>2026-04-25T08:51:07.303Z</time></trkpt><trkpt lat="43.7547939" lon="11.2447383"><ele>103.5</ele><time>2026-04-25T08:51:08.31Z</time></trkpt><trkpt lat="43.7549107" lon="11.2446817"><ele>103.0</ele><time>2026-04-25T08:51:09.32Z</time></trkpt><trkpt lat="43.755022" lon="11.2446228"><ele>102.5</ele><time>2026-04-25T08:51:10.316Z</time></trkpt><trkpt lat="43.7551235" lon="11.2445715"><ele>102.0</ele><time>2026-04-25T08:51:11.311Z</time></trkpt><trkpt lat="43.7552251" lon="11.2445143"><ele>100.19999999999999</ele><time>2026-04-25T08:51:12.319Z</time></trkpt><trkpt lat="43.7553266" lon="11.2444586"><ele>98.4</ele><time>2026-04-25T08:51:13.312Z</time></trkpt><trkpt lat="43.7554328" lon="11.2444079"><ele>96.6</ele><time>2026-04-25T08:51:14.326Z</time></trkpt><trkpt lat="43.7555325" lon="11.2443559"><ele>94.80000000000001</ele><time>2026-04-25T08:51:15.318Z</time></trkpt><trkpt lat="43.755632" lon="11.2443067"><ele>93.0</ele><time>2026-04-25T08:51:16.321Z</time></trkpt><trkpt lat="43.7557297" lon="11.2442514"><ele>93.0</ele><time>2026-04-25T08:51:17.307Z</time></trkpt><trkpt lat="43.7558318" lon="11.2441877"><ele>93.0</ele><time>2026-04-25T08:51:18.307Z</time></trkpt><trkpt lat="43.7559385" lon="11.2441214"><ele>93.0</ele><time>2026-04-25T08:51:19.317Z</time></trkpt><trkpt lat="43.7560414" lon="11.2440597"><ele>93.0</ele><time>2026-04-25T08:51:20.324Z</time></trkpt><trkpt lat="43.7561435" lon="11.2439989"><ele>89.75</ele><time>2026-04-25T08:51:21.326Z</time></trkpt><trkpt lat="43.7562435" lon="11.2439414"><ele>86.5</ele><time>2026-04-25T08:51:22.304Z</time></trkpt><trkpt lat="43.75635" lon="11.2438833"><ele>83.25</ele><time>2026-04-25T08:51:23.311Z</time></trkpt><trkpt lat="43.7564634" lon="11.2438271"><ele>80.0</ele><time>2026-04-25T08:51:24.323Z</time></trkpt><trkpt lat="43.7565789" lon="11.2437655"><ele>80.0</ele><time>2026-04-25T08:51:25.296Z</time></trkpt><trkpt lat="43.7566947" lon="11.2437106"><ele>80.0</ele><time>2026-04-25T08:51:26.308Z</time></trkpt><trkpt lat="43.7568232" lon="11.2436422"><ele>80.0</ele><time>2026-04-25T08:51:27.314Z</time></trkpt><trkpt lat="43.7569601" lon="11.243566"><ele>80.0</ele><time>2026-04-25T08:51:28.321Z</time></trkpt><trkpt lat="43.7570943" lon="11.2434999"><ele>78.5</ele><time>2026-04-25T08:51:29.326Z</time></trkpt><trkpt lat="43.7572271" lon="11.2434427"><ele>77.0</ele><time>2026-04-25T08:51:30.305Z</time></trkpt><trkpt lat="43.7573516" lon="11.2433841"><ele>75.5</ele><time>2026-04-25T08:51:31.307Z</time></trkpt><trkpt lat="43.7574793" lon="11.2433216"><ele>74.0</ele><time>2026-04-25T08:51:32.313Z</time></trkpt><trkpt lat="43.7576022" lon="11.2432499"><ele>73.25</ele><time>2026-04-25T08:51:33.311Z</time></trkpt><trkpt lat="43.7577196" lon="11.2431781"><ele>72.5</ele><time>2026-04-25T08:51:34.319Z</time></trkpt><trkpt lat="43.7578418" lon="11.2431169"><ele>71.75</ele><time>2026-04-25T08:51:35.328Z</time></trkpt><trkpt lat="43.7579662" lon="11.2430562"><ele>71.0</ele><time>2026-04-25T08:51:36.318Z</time></trkpt><trkpt lat="43.7580903" lon="11.2429928"><ele>70.5</ele><time>2026-04-25T08:51:37.315Z</time></trkpt><trkpt lat="43.7582191" lon="11.2429295"><ele>70.0</ele><time>2026-04-25T08:51:38.302Z</time></trkpt><trkpt lat="43.7583448" lon="11.2428586"><ele>69.5</ele><time>2026-04-25T08:51:39.328Z</time></trkpt><trkpt lat="43.7584681" lon="11.2427863"><ele>69.0</ele><time>2026-04-25T08:51:40.33Z</time></trkpt><trkpt lat="43.7585894" lon="11.2427222"><ele>67.75</ele><time>2026-04-25T08:51:41.316Z</time></trkpt><trkpt lat="43.7587042" lon="11.242653"><ele>66.5</ele><time>2026-04-25T08:51:42.304Z</time></trkpt><trkpt lat="43.758818" lon="11.2425976"><ele>65.25</ele><time>2026-04-25T08:51:43.324Z</time></trkpt><trkpt lat="43.758933" lon="11.2425348"><ele>64.0</ele><time>2026-04-25T08:51:44.329Z</time></trkpt><trkpt lat="43.7590549" lon="11.2424743"><ele>64.0</ele><time>2026-04-25T08:51:45.322Z</time></trkpt><trkpt lat="43.7591727" lon="11.2424123"><ele>64.0</ele><time>2026-04-25T08:51:46.328Z</time></trkpt><trkpt lat="43.7592866" lon="11.2423529"><ele>64.0</ele><time>2026-04-25T08:51:47.31Z</time></trkpt><trkpt lat="43.7593971" lon="11.2422961"><ele>64.0</ele><time>2026-04-25T08:51:48.307Z</time></trkpt><trkpt lat="43.7594843" lon="11.2422522"><ele>62.83333333333333</ele><time>2026-04-25T08:51:49.319Z</time></trkpt><trkpt lat="43.7595583" lon="11.2422158"><ele>61.666666666666664</ele><time>2026-04-25T08:51:50.316Z</time></trkpt><trkpt lat="43.7596264" lon="11.2421697"><ele>60.5</ele><time>2026-04-25T08:51:51.331Z</time></trkpt><trkpt lat="43.7596973" lon="11.2421299"><ele>59.33333333333333</ele><time>2026-04-25T08:51:52.321Z</time></trkpt><trkpt lat="43.7597753" lon="11.2420839"><ele>58.166666666666664</ele><time>2026-04-25T08:51:53.311Z</time></trkpt><trkpt lat="43.7598517" lon="11.2420447"><ele>57.0</ele><time>2026-04-25T08:51:54.316Z</time></trkpt><trkpt lat="43.7599338" lon="11.2420057"><ele>57.0</ele><time>2026-04-25T08:51:55.341Z</time></trkpt><trkpt lat="43.7600144" lon="11.2419739"><ele>57.0</ele><time>2026-04-25T08:51:56.321Z</time></trkpt><trkpt lat="43.7600895" lon="11.2419451"><ele>57.0</ele><time>2026-04-25T08:51:57.308Z</time></trkpt><trkpt lat="43.7601544" lon="11.241926"><ele>57.0</ele><time>2026-04-25T08:51:58.316Z</time></trkpt><trkpt lat="43.760219" lon="11.2419283"><ele>57.0</ele><time>2026-04-25T08:51:59.325Z</time></trkpt><trkpt lat="43.7603273" lon="11.2419871"><ele>57.0</ele><time>2026-04-25T08:52:01.319Z</time></trkpt><trkpt lat="43.7603941" lon="11.2420011"><ele>57.0</ele><time>2026-04-25T08:52:02.304Z</time></trkpt><trkpt lat="43.7604678" lon="11.241959"><ele>57.0</ele><time>2026-04-25T08:52:03.322Z</time></trkpt><trkpt lat="43.760544" lon="11.241887"><ele>57.0</ele><time>2026-04-25T08:52:04.311Z</time></trkpt><trkpt lat="43.7606026" lon="11.2418108"><ele>57.0</ele><time>2026-04-25T08:52:05.309Z</time></trkpt><trkpt lat="43.7606487" lon="11.2417382"><ele>57.0</ele><time>2026-04-25T08:52:06.314Z</time></trkpt><trkpt lat="43.7607066" lon="11.2416784"><ele>57.0</ele><time>2026-04-25T08:52:07.323Z</time></trkpt><trkpt lat="43.7607644" lon="11.2415952"><ele>57.0</ele><time>2026-04-25T08:52:08.306Z</time></trkpt><trkpt lat="43.7608396" lon="11.2415279"><ele>57.0</ele><time>2026-04-25T08:52:09.306Z</time></trkpt><trkpt lat="43.7609381" lon="11.2414615"><ele>57.0</ele><time>2026-04-25T08:52:10.309Z</time></trkpt><trkpt lat="43.7610475" lon="11.2414009"><ele>57.0</ele><time>2026-04-25T08:52:11.319Z</time></trkpt><trkpt lat="43.7611705" lon="11.2413579"><ele>57.0</ele><time>2026-04-25T08:52:12.306Z</time></trkpt><trkpt lat="43.7613173" lon="11.2413206"><ele>57.0</ele><time>2026-04-25T08:52:13.312Z</time></trkpt><trkpt lat="43.7614715" lon="11.2413004"><ele>57.0</ele><time>2026-04-25T08:52:14.293Z</time></trkpt><trkpt lat="43.7616328" lon="11.2412785"><ele>57.0</ele><time>2026-04-25T08:52:15.312Z</time></trkpt><trkpt lat="43.7617877" lon="11.2412569"><ele>56.25</ele><time>2026-04-25T08:52:16.296Z</time></trkpt><trkpt lat="43.7619422" lon="11.2412386"><ele>55.5</ele><time>2026-04-25T08:52:17.304Z</time></trkpt><trkpt lat="43.7620849" lon="11.241228"><ele>54.75</ele><time>2026-04-25T08:52:18.312Z</time></trkpt><trkpt lat="43.7622163" lon="11.2412187"><ele>54.0</ele><time>2026-04-25T08:52:19.309Z</time></trkpt><trkpt lat="43.7623325" lon="11.2412075"><ele>54.0</ele><time>2026-04-25T08:52:20.302Z</time></trkpt><trkpt lat="43.7624477" lon="11.2412003"><ele>54.0</ele><time>2026-04-25T08:52:21.319Z</time></trkpt><trkpt lat="43.7625738" lon="11.2411817"><ele>54.0</ele><time>2026-04-25T08:52:22.31Z</time></trkpt><trkpt lat="43.7627003" lon="11.2411651"><ele>54.0</ele><time>2026-04-25T08:52:23.318Z</time></trkpt><trkpt lat="43.7628363" lon="11.2411583"><ele>53.75</ele><time>2026-04-25T08:52:24.311Z</time></trkpt><trkpt lat="43.7629709" lon="11.2411545"><ele>53.5</ele><time>2026-04-25T08:52:25.324Z</time></trkpt><trkpt lat="43.7631069" lon="11.2411361"><ele>53.25</ele><time>2026-04-25T08:52:26.317Z</time></trkpt><trkpt lat="43.7632376" lon="11.2411219"><ele>53.0</ele><time>2026-04-25T08:52:27.333Z</time></trkpt><trkpt lat="43.7633667" lon="11.2411052"><ele>53.0</ele><time>2026-04-25T08:52:28.325Z</time></trkpt><trkpt lat="43.7634809" lon="11.2410832"><ele>53.0</ele><time>2026-04-25T08:52:29.318Z</time></trkpt><trkpt lat="43.7635903" lon="11.241061"><ele>53.0</ele><time>2026-04-25T08:52:30.312Z</time></trkpt><trkpt lat="43.7636981" lon="11.2410532"><ele>53.0</ele><time>2026-04-25T08:52:31.308Z</time></trkpt><trkpt lat="43.7638034" lon="11.241048"><ele>53.0</ele><time>2026-04-25T08:52:32.317Z</time></trkpt><trkpt lat="43.7639129" lon="11.2410441"><ele>53.25</ele><time>2026-04-25T08:52:33.317Z</time></trkpt><trkpt lat="43.7640225" lon="11.2410324"><ele>53.5</ele><time>2026-04-25T08:52:34.322Z</time></trkpt><trkpt lat="43.7641381" lon="11.2410195"><ele>53.75</ele><time>2026-04-25T08:52:35.318Z</time></trkpt><trkpt lat="43.76426" lon="11.2410048"><ele>54.0</ele><time>2026-04-25T08:52:36.328Z</time></trkpt><trkpt lat="43.7643793" lon="11.24099"><ele>54.0</ele><time>2026-04-25T08:52:37.309Z</time></trkpt><trkpt lat="43.7644932" lon="11.2409765"><ele>54.00000000000001</ele><time>2026-04-25T08:52:38.321Z</time></trkpt><trkpt lat="43.7645903" lon="11.2409618"><ele>54.00000000000001</ele><time>2026-04-25T08:52:39.334Z</time></trkpt><trkpt lat="43.7646679" lon="11.2409468"><ele>54.0</ele><time>2026-04-25T08:52:40.317Z</time></trkpt><trkpt lat="43.7647419" lon="11.2409286"><ele>54.0</ele><time>2026-04-25T08:52:41.319Z</time></trkpt><trkpt lat="43.7648264" lon="11.2409162"><ele>54.0</ele><time>2026-04-25T08:52:42.298Z</time></trkpt><trkpt lat="43.7649251" lon="11.2409066"><ele>54.00000000000001</ele><time>2026-04-25T08:52:43.318Z</time></trkpt><trkpt lat="43.7650382" lon="11.2408944"><ele>54.00000000000001</ele><time>2026-04-25T08:52:44.325Z</time></trkpt><trkpt lat="43.7651528" lon="11.2408802"><ele>54.0</ele><time>2026-04-25T08:52:45.331Z</time></trkpt><trkpt lat="43.7652704" lon="11.2408589"><ele>54.0</ele><time>2026-04-25T08:52:46.309Z</time></trkpt><trkpt lat="43.7653827" lon="11.2408315"><ele>53.800000000000004</ele><time>2026-04-25T08:52:47.304Z</time></trkpt><trkpt lat="43.7654854" lon="11.2408122"><ele>53.60000000000001</ele><time>2026-04-25T08:52:48.338Z</time></trkpt><trkpt lat="43.7655852" lon="11.2407973"><ele>53.4</ele><time>2026-04-25T08:52:49.302Z</time></trkpt><trkpt lat="43.7656925" lon="11.2407759"><ele>53.2</ele><time>2026-04-25T08:52:50.322Z</time></trkpt><trkpt lat="43.7658003" lon="11.2407502"><ele>53.0</ele><time>2026-04-25T08:52:51.309Z</time></trkpt><trkpt lat="43.7659026" lon="11.2407347"><ele>53.0</ele><time>2026-04-25T08:52:52.331Z</time></trkpt><trkpt lat="43.7660008" lon="11.2407222"><ele>53.0</ele><time>2026-04-25T08:52:53.326Z</time></trkpt><trkpt lat="43.766094" lon="11.2407164"><ele>53.0</ele><time>2026-04-25T08:52:54.314Z</time></trkpt><trkpt lat="43.7661821" lon="11.2407144"><ele>53.0</ele><time>2026-04-25T08:52:55.329Z</time></trkpt><trkpt lat="43.7662701" lon="11.2407101"><ele>53.0</ele><time>2026-04-25T08:52:56.314Z</time></trkpt><trkpt lat="43.7663525" lon="11.2406976"><ele>52.50000000000001</ele><time>2026-04-25T08:52:57.302Z</time></trkpt><trkpt lat="43.7664273" lon="11.2406742"><ele>52.0</ele><time>2026-04-25T08:52:58.322Z</time></trkpt><trkpt lat="43.7664948" lon="11.240654"><ele>51.5</ele><time>2026-04-25T08:52:59.306Z</time></trkpt><trkpt lat="43.7665568" lon="11.2406301"><ele>51.0</ele><time>2026-04-25T08:53:00.32Z</time></trkpt><trkpt lat="43.7666651" lon="11.240591"><ele>50.50000000000001</ele><time>2026-04-25T08:53:02.318Z</time></trkpt><trkpt lat="43.7667306" lon="11.2405499"><ele>50.0</ele><time>2026-04-25T08:53:04.3Z</time></trkpt><trkpt lat="43.7668084" lon="11.2404916"><ele>49.6</ele><time>2026-04-25T08:53:07.317Z</time></trkpt><trkpt lat="43.7668895" lon="11.2404278"><ele>49.2</ele><time>2026-04-25T08:53:27.323Z</time></trkpt><trkpt lat="43.7669506" lon="11.2403669"><ele>48.8</ele><time>2026-04-25T08:53:28.315Z</time></trkpt><trkpt lat="43.7670308" lon="11.240279"><ele>48.4</ele><time>2026-04-25T08:53:29.32Z</time></trkpt><trkpt lat="43.7671199" lon="11.2401588"><ele>48.0</ele><time>2026-04-25T08:53:30.334Z</time></trkpt><trkpt lat="43.7672142" lon="11.2400343"><ele>48.0</ele><time>2026-04-25T08:53:31.286Z</time></trkpt><trkpt lat="43.7673085" lon="11.2399006"><ele>48.0</ele><time>2026-04-25T08:53:32.316Z</time></trkpt><trkpt lat="43.7674084" lon="11.2397556"><ele>48.0</ele><time>2026-04-25T08:53:33.339Z</time></trkpt><trkpt lat="43.7675146" lon="11.2396175"><ele>48.0</ele><time>2026-04-25T08:53:34.305Z</time></trkpt><trkpt lat="43.7676256" lon="11.2394852"><ele>48.0</ele><time>2026-04-25T08:53:35.305Z</time></trkpt><trkpt lat="43.7677308" lon="11.2393569"><ele>48.0</ele><time>2026-04-25T08:53:36.307Z</time></trkpt><trkpt lat="43.7678309" lon="11.2392244"><ele>48.0</ele><time>2026-04-25T08:53:37.309Z</time></trkpt><trkpt lat="43.7679293" lon="11.2390787"><ele>48.0</ele><time>2026-04-25T08:53:38.308Z</time></trkpt><trkpt lat="43.7680172" lon="11.2389502"><ele>48.5</ele><time>2026-04-25T08:53:39.318Z</time></trkpt><trkpt lat="43.7680993" lon="11.2388229"><ele>49.0</ele><time>2026-04-25T08:53:40.321Z</time></trkpt><trkpt lat="43.768174" lon="11.2386655"><ele>49.5</ele><time>2026-04-25T08:53:41.311Z</time></trkpt><trkpt lat="43.768247" lon="11.2384816"><ele>50.0</ele><time>2026-04-25T08:53:42.325Z</time></trkpt><trkpt lat="43.7683253" lon="11.238291"><ele>49.66666666666667</ele><time>2026-04-25T08:53:43.312Z</time></trkpt><trkpt lat="43.7684043" lon="11.2381064"><ele>49.33333333333333</ele><time>2026-04-25T08:53:44.3Z</time></trkpt><trkpt lat="43.7684793" lon="11.2379245"><ele>49.0</ele><time>2026-04-25T08:53:45.316Z</time></trkpt><trkpt lat="43.7685473" lon="11.2377452"><ele>49.0</ele><time>2026-04-25T08:53:46.325Z</time></trkpt><trkpt lat="43.768613" lon="11.2375734"><ele>49.0</ele><time>2026-04-25T08:53:47.326Z</time></trkpt><trkpt lat="43.7686838" lon="11.2373974"><ele>49.0</ele><time>2026-04-25T08:53:48.306Z</time></trkpt><trkpt lat="43.7687498" lon="11.2372109"><ele>49.0</ele><time>2026-04-25T08:53:49.305Z</time></trkpt><trkpt lat="43.7688208" lon="11.2370198"><ele>48.666666666666664</ele><time>2026-04-25T08:53:50.296Z</time></trkpt><trkpt lat="43.7688951" lon="11.2368231"><ele>48.33333333333333</ele><time>2026-04-25T08:53:51.312Z</time></trkpt><trkpt lat="43.7689728" lon="11.2366155"><ele>48.0</ele><time>2026-04-25T08:53:52.317Z</time></trkpt><trkpt lat="43.7690553" lon="11.2363999"><ele>47.666666666666664</ele><time>2026-04-25T08:53:53.319Z</time></trkpt><trkpt lat="43.7691453" lon="11.2361886"><ele>47.33333333333333</ele><time>2026-04-25T08:53:54.311Z</time></trkpt><trkpt lat="43.7692333" lon="11.2359753"><ele>47.0</ele><time>2026-04-25T08:53:55.302Z</time></trkpt><trkpt lat="43.7693169" lon="11.2357625"><ele>48.0</ele><time>2026-04-25T08:53:56.294Z</time></trkpt><trkpt lat="43.7693978" lon="11.2355581"><ele>49.0</ele><time>2026-04-25T08:53:57.307Z</time></trkpt><trkpt lat="43.7694725" lon="11.2353485"><ele>50.0</ele><time>2026-04-25T08:53:58.311Z</time></trkpt><trkpt lat="43.769545" lon="11.2351354"><ele>50.0</ele><time>2026-04-25T08:53:59.308Z</time></trkpt><trkpt lat="43.769623" lon="11.2349448"><ele>50.0</ele><time>2026-04-25T08:54:00.322Z</time></trkpt><trkpt lat="43.7696971" lon="11.23477"><ele>50.0</ele><time>2026-04-25T08:54:01.29Z</time></trkpt><trkpt lat="43.7697703" lon="11.234601"><ele>50.0</ele><time>2026-04-25T08:54:02.307Z</time></trkpt><trkpt lat="43.7698448" lon="11.2344366"><ele>50.0</ele><time>2026-04-25T08:54:03.314Z</time></trkpt><trkpt lat="43.7699169" lon="11.2342859"><ele>50.0</ele><time>2026-04-25T08:54:04.31Z</time></trkpt><trkpt lat="43.7700007" lon="11.2341384"><ele>50.0</ele><time>2026-04-25T08:54:05.315Z</time></trkpt><trkpt lat="43.7700901" lon="11.2339891"><ele>50.0</ele><time>2026-04-25T08:54:06.323Z</time></trkpt><trkpt lat="43.7701955" lon="11.2338424"><ele>49.25</ele><time>2026-04-25T08:54:07.302Z</time></trkpt><trkpt lat="43.7703034" lon="11.233716"><ele>48.5</ele><time>2026-04-25T08:54:08.312Z</time></trkpt><trkpt lat="43.7704253" lon="11.2336031"><ele>47.75</ele><time>2026-04-25T08:54:09.302Z</time></trkpt><trkpt lat="43.770549" lon="11.233507"><ele>47.0</ele><time>2026-04-25T08:54:10.304Z</time></trkpt><trkpt lat="43.7706706" lon="11.2334187"><ele>47.0</ele><time>2026-04-25T08:54:11.302Z</time></trkpt><trkpt lat="43.7707981" lon="11.2333592"><ele>47.0</ele><time>2026-04-25T08:54:12.318Z</time></trkpt><trkpt lat="43.7709212" lon="11.2332959"><ele>47.0</ele><time>2026-04-25T08:54:13.321Z</time></trkpt><trkpt lat="43.7710319" lon="11.2332681"><ele>47.0</ele><time>2026-04-25T08:54:14.305Z</time></trkpt><trkpt lat="43.7711267" lon="11.2332531"><ele>46.6</ele><time>2026-04-25T08:54:15.325Z</time></trkpt><trkpt lat="43.7712073" lon="11.233253"><ele>46.2</ele><time>2026-04-25T08:54:16.307Z</time></trkpt><trkpt lat="43.7712736" lon="11.2332797"><ele>45.8</ele><time>2026-04-25T08:54:17.306Z</time></trkpt><trkpt lat="43.7713445" lon="11.2334367"><ele>45.4</ele><time>2026-04-25T08:54:19.306Z</time></trkpt><trkpt lat="43.7713539" lon="11.2335706"><ele>45.0</ele><time>2026-04-25T08:54:20.306Z</time></trkpt><trkpt lat="43.7713561" lon="11.2336985"><ele>45.0</ele><time>2026-04-25T08:54:21.297Z</time></trkpt><trkpt lat="43.77137" lon="11.2338089"><ele>45.0</ele><time>2026-04-25T08:54:22.311Z</time></trkpt><trkpt lat="43.7713999" lon="11.233903"><ele>45.0</ele><time>2026-04-25T08:54:23.316Z</time></trkpt><trkpt lat="43.7714461" lon="11.2340209"><ele>45.0</ele><time>2026-04-25T08:54:25.31Z</time></trkpt><trkpt lat="43.7714981" lon="11.2341093"><ele>45.0</ele><time>2026-04-25T08:54:27.308Z</time></trkpt><trkpt lat="43.7715841" lon="11.2341095"><ele>45.0</ele><time>2026-04-25T08:54:29.302Z</time></trkpt><trkpt lat="43.7716369" lon="11.2340213"><ele>45.0</ele><time>2026-04-25T08:54:30.312Z</time></trkpt><trkpt lat="43.7716804" lon="11.2339093"><ele>45.0</ele><time>2026-04-25T08:54:31.302Z</time></trkpt><trkpt lat="43.7717034" lon="11.2338083"><ele>45.0</ele><time>2026-04-25T08:54:32.292Z</time></trkpt><trkpt lat="43.7717168" lon="11.2336973"><ele>45.0</ele><time>2026-04-25T08:54:33.299Z</time></trkpt><trkpt lat="43.7717408" lon="11.2336029"><ele>45.0</ele><time>2026-04-25T08:54:34.315Z</time></trkpt><trkpt lat="43.7717941" lon="11.2334457"><ele>45.0</ele><time>2026-04-25T08:54:36.301Z</time></trkpt><trkpt lat="43.7718682" lon="11.2334081"><ele>45.0</ele><time>2026-04-25T08:54:37.307Z</time></trkpt><trkpt lat="43.7719851" lon="11.233407"><ele>45.0</ele><time>2026-04-25T08:54:38.314Z</time></trkpt><trkpt lat="43.7721159" lon="11.2334293"><ele>45.0</ele><time>2026-04-25T08:54:39.306Z</time></trkpt><trkpt lat="43.772267" lon="11.2334752"><ele>45.0</ele><time>2026-04-25T08:54:40.289Z</time></trkpt><trkpt lat="43.7724265" lon="11.2335353"><ele>45.0</ele><time>2026-04-25T08:54:41.305Z</time></trkpt><trkpt lat="43.7725725" lon="11.2335773"><ele>45.0</ele><time>2026-04-25T08:54:42.313Z</time></trkpt><trkpt lat="43.7727201" lon="11.2335998"><ele>45.0</ele><time>2026-04-25T08:54:43.309Z</time></trkpt><trkpt lat="43.7728638" lon="11.2336357"><ele>45.0</ele><time>2026-04-25T08:54:44.299Z</time></trkpt><trkpt lat="43.7729994" lon="11.2336669"><ele>45.0</ele><time>2026-04-25T08:54:45.312Z</time></trkpt><trkpt lat="43.7731235" lon="11.2336859"><ele>45.0</ele><time>2026-04-25T08:54:46.309Z</time></trkpt><trkpt lat="43.7732425" lon="11.2337219"><ele>45.0</ele><time>2026-04-25T08:54:47.323Z</time></trkpt><trkpt lat="43.773355" lon="11.2337499"><ele>45.0</ele><time>2026-04-25T08:54:48.32Z</time></trkpt><trkpt lat="43.7734554" lon="11.2337774"><ele>44.8</ele><time>2026-04-25T08:54:49.314Z</time></trkpt><trkpt lat="43.7735427" lon="11.2338011"><ele>44.6</ele><time>2026-04-25T08:54:50.305Z</time></trkpt><trkpt lat="43.7736102" lon="11.233834"><ele>44.400000000000006</ele><time>2026-04-25T08:54:51.311Z</time></trkpt><trkpt lat="43.7736938" lon="11.2339326"><ele>44.2</ele><time>2026-04-25T08:54:53.311Z</time></trkpt><trkpt lat="43.773737" lon="11.2340362"><ele>44.0</ele><time>2026-04-25T08:54:54.318Z</time></trkpt><trkpt lat="43.7737914" lon="11.2341428"><ele>43.800000000000004</ele><time>2026-04-25T08:54:55.31Z</time></trkpt><trkpt lat="43.773844" lon="11.2342111"><ele>43.6</ele><time>2026-04-25T08:54:56.305Z</time></trkpt><trkpt lat="43.7739062" lon="11.2342447"><ele>43.4</ele><time>2026-04-25T08:54:57.319Z</time></trkpt><trkpt lat="43.7740392" lon="11.234261"><ele>43.2</ele><time>2026-04-25T08:54:59.299Z</time></trkpt><trkpt lat="43.7741442" lon="11.2342543"><ele>43.0</ele><time>2026-04-25T08:55:00.318Z</time></trkpt><trkpt lat="43.7742465" lon="11.2342467"><ele>42.199999999999996</ele><time>2026-04-25T08:55:01.309Z</time></trkpt><trkpt lat="43.7743673" lon="11.2342789"><ele>41.4</ele><time>2026-04-25T08:55:02.304Z</time></trkpt><trkpt lat="43.7744806" lon="11.2343439"><ele>40.599999999999994</ele><time>2026-04-25T08:55:03.319Z</time></trkpt><trkpt lat="43.7745694" lon="11.2343923"><ele>39.8</ele><time>2026-04-25T08:55:04.303Z</time></trkpt><trkpt lat="43.7746383" lon="11.2344353"><ele>39.0</ele><time>2026-04-25T08:55:05.314Z</time></trkpt><trkpt lat="43.7747157" lon="11.2344757"><ele>39.0</ele><time>2026-04-25T08:55:06.334Z</time></trkpt><trkpt lat="43.774802" lon="11.234527"><ele>39.0</ele><time>2026-04-25T08:55:07.324Z</time></trkpt><trkpt lat="43.7748947" lon="11.2345879"><ele>39.0</ele><time>2026-04-25T08:55:08.322Z</time></trkpt><trkpt lat="43.7749943" lon="11.2346413"><ele>39.0</ele><time>2026-04-25T08:55:09.308Z</time></trkpt><trkpt lat="43.7750856" lon="11.2346888"><ele>39.0</ele><time>2026-04-25T08:55:10.335Z</time></trkpt><trkpt lat="43.775175" lon="11.2347353"><ele>40.25</ele><time>2026-04-25T08:55:11.317Z</time></trkpt><trkpt lat="43.7752633" lon="11.2347925"><ele>41.5</ele><time>2026-04-25T08:55:12.32Z</time></trkpt><trkpt lat="43.7753502" lon="11.2348869"><ele>42.75</ele><time>2026-04-25T08:55:13.305Z</time></trkpt><trkpt lat="43.7754237" lon="11.2350257"><ele>44.0</ele><time>2026-04-25T08:55:14.299Z</time></trkpt><trkpt lat="43.7754989" lon="11.2352183"><ele>44.33333333333333</ele><time>2026-04-25T08:55:15.325Z</time></trkpt><trkpt lat="43.7755681" lon="11.2354269"><ele>44.666666666666664</ele><time>2026-04-25T08:55:16.323Z</time></trkpt><trkpt lat="43.7756386" lon="11.2356517"><ele>45.0</ele><time>2026-04-25T08:55:17.311Z</time></trkpt><trkpt lat="43.7757129" lon="11.2358629"><ele>45.333333333333336</ele><time>2026-04-25T08:55:18.32Z</time></trkpt><trkpt lat="43.7757849" lon="11.2360513"><ele>45.66666666666667</ele><time>2026-04-25T08:55:19.327Z</time></trkpt><trkpt lat="43.7758709" lon="11.2362347"><ele>46.0</ele><time>2026-04-25T08:55:20.287Z</time></trkpt><trkpt lat="43.7759644" lon="11.2363993"><ele>46.0</ele><time>2026-04-25T08:55:21.312Z</time></trkpt><trkpt lat="43.776089" lon="11.236517"><ele>46.0</ele><time>2026-04-25T08:55:22.299Z</time></trkpt><trkpt lat="43.7762275" lon="11.2366083"><ele>46.0</ele><time>2026-04-25T08:55:23.302Z</time></trkpt><trkpt lat="43.7763493" lon="11.2367182"><ele>46.0</ele><time>2026-04-25T08:55:24.319Z</time></trkpt><trkpt lat="43.7764753" lon="11.2368216"><ele>46.0</ele><time>2026-04-25T08:55:25.3Z</time></trkpt><trkpt lat="43.7766036" lon="11.2369031"><ele>46.0</ele><time>2026-04-25T08:55:26.318Z</time></trkpt><trkpt lat="43.7767193" lon="11.2369943"><ele>46.0</ele><time>2026-04-25T08:55:27.317Z</time></trkpt><trkpt lat="43.7768189" lon="11.2371018"><ele>46.0</ele><time>2026-04-25T08:55:28.321Z</time></trkpt><trkpt lat="43.7769069" lon="11.2372358"><ele>46.0</ele><time>2026-04-25T08:55:29.308Z</time></trkpt><trkpt lat="43.7769993" lon="11.2374038"><ele>46.0</ele><time>2026-04-25T08:55:30.304Z</time></trkpt><trkpt lat="43.7770763" lon="11.2375691"><ele>46.0</ele><time>2026-04-25T08:55:31.31Z</time></trkpt><trkpt lat="43.7771505" lon="11.2377239"><ele>46.0</ele><time>2026-04-25T08:55:32.327Z</time></trkpt><trkpt lat="43.777217" lon="11.2378633"><ele>46.0</ele><time>2026-04-25T08:55:33.307Z</time></trkpt><trkpt lat="43.7772826" lon="11.2379897"><ele>46.0</ele><time>2026-04-25T08:55:34.305Z</time></trkpt><trkpt lat="43.7773366" lon="11.2380967"><ele>46.0</ele><time>2026-04-25T08:55:35.315Z</time></trkpt><trkpt lat="43.7773792" lon="11.2381786"><ele>46.0</ele><time>2026-04-25T08:55:36.317Z</time></trkpt><trkpt lat="43.7774333" lon="11.2383045"><ele>46.0</ele><time>2026-04-25T08:55:38.323Z</time></trkpt><trkpt lat="43.7774712" lon="11.2383917"><ele>46.0</ele><time>2026-04-25T08:55:40.296Z</time></trkpt><trkpt lat="43.777496" lon="11.2384756"><ele>46.0</ele><time>2026-04-25T08:55:43.315Z</time></trkpt><trkpt lat="43.7775287" lon="11.2385898"><ele>46.0</ele><time>2026-04-25T08:56:07.301Z</time></trkpt><trkpt lat="43.7775682" lon="11.2386893"><ele>46.0</ele><time>2026-04-25T08:56:08.307Z</time></trkpt><trkpt lat="43.7776034" lon="11.2387994"><ele>46.0</ele><time>2026-04-25T08:56:09.302Z</time></trkpt><trkpt lat="43.777642" lon="11.2389316"><ele>46.4</ele><time>2026-04-25T08:56:10.314Z</time></trkpt><trkpt lat="43.7776777" lon="11.2390624"><ele>46.8</ele><time>2026-04-25T08:56:11.319Z</time></trkpt><trkpt lat="43.7777157" lon="11.2391951"><ele>47.199999999999996</ele><time>2026-04-25T08:56:12.317Z</time></trkpt><trkpt lat="43.7777629" lon="11.2393275"><ele>47.599999999999994</ele><time>2026-04-25T08:56:13.325Z</time></trkpt><trkpt lat="43.7778096" lon="11.2394604"><ele>48.0</ele><time>2026-04-25T08:56:14.315Z</time></trkpt><trkpt lat="43.7778544" lon="11.2395729"><ele>48.0</ele><time>2026-04-25T08:56:15.321Z</time></trkpt><trkpt lat="43.777905" lon="11.2396878"><ele>48.0</ele><time>2026-04-25T08:56:16.312Z</time></trkpt><trkpt lat="43.7779572" lon="11.2398054"><ele>48.0</ele><time>2026-04-25T08:56:17.281Z</time></trkpt><trkpt lat="43.778018" lon="11.2399271"><ele>48.0</ele><time>2026-04-25T08:56:18.31Z</time></trkpt><trkpt lat="43.7780815" lon="11.2400585"><ele>48.0</ele><time>2026-04-25T08:56:19.314Z</time></trkpt><trkpt lat="43.7781307" lon="11.2402078"><ele>48.0</ele><time>2026-04-25T08:56:20.299Z</time></trkpt><trkpt lat="43.7781774" lon="11.2403493"><ele>48.0</ele><time>2026-04-25T08:56:21.292Z</time></trkpt><trkpt lat="43.7782167" lon="11.2404865"><ele>48.0</ele><time>2026-04-25T08:56:22.319Z</time></trkpt><trkpt lat="43.7782599" lon="11.2406106"><ele>48.0</ele><time>2026-04-25T08:56:23.323Z</time></trkpt><trkpt lat="43.7783029" lon="11.240734"><ele>48.0</ele><time>2026-04-25T08:56:24.291Z</time></trkpt><trkpt lat="43.7783429" lon="11.2408517"><ele>47.666666666666664</ele><time>2026-04-25T08:56:25.312Z</time></trkpt><trkpt lat="43.7783762" lon="11.2409556"><ele>47.333333333333336</ele><time>2026-04-25T08:56:26.322Z</time></trkpt><trkpt lat="43.7784064" lon="11.2410361"><ele>47.0</ele><time>2026-04-25T08:56:27.332Z</time></trkpt><trkpt lat="43.7784274" lon="11.2411345"><ele>46.66666666666667</ele><time>2026-04-25T08:56:29.315Z</time></trkpt><trkpt lat="43.778459" lon="11.2412314"><ele>46.333333333333336</ele><time>2026-04-25T08:57:28.309Z</time></trkpt><trkpt lat="43.7784792" lon="11.241332"><ele>46.0</ele><time>2026-04-25T08:57:29.309Z</time></trkpt><trkpt lat="43.7785034" lon="11.2414497"><ele>46.0</ele><time>2026-04-25T08:57:30.318Z</time></trkpt><trkpt lat="43.7785441" lon="11.241588"><ele>46.0</ele><time>2026-04-25T08:57:31.317Z</time></trkpt><trkpt lat="43.7785921" lon="11.2417364"><ele>46.0</ele><time>2026-04-25T08:57:32.316Z</time></trkpt><trkpt lat="43.7786388" lon="11.2419026"><ele>46.0</ele><time>2026-04-25T08:57:33.301Z</time></trkpt><trkpt lat="43.7786959" lon="11.242069"><ele>46.0</ele><time>2026-04-25T08:57:34.301Z</time></trkpt><trkpt lat="43.7787546" lon="11.2422344"><ele>46.0</ele><time>2026-04-25T08:57:35.321Z</time></trkpt><trkpt lat="43.778812" lon="11.2424093"><ele>46.0</ele><time>2026-04-25T08:57:36.325Z</time></trkpt><trkpt lat="43.7788532" lon="11.2425852"><ele>46.0</ele><time>2026-04-25T08:57:37.301Z</time></trkpt><trkpt lat="43.7788882" lon="11.2427673"><ele>46.5</ele><time>2026-04-25T08:57:38.304Z</time></trkpt><trkpt lat="43.7789325" lon="11.2429487"><ele>47.0</ele><time>2026-04-25T08:57:39.322Z</time></trkpt><trkpt lat="43.7789846" lon="11.2431331"><ele>47.5</ele><time>2026-04-25T08:57:40.32Z</time></trkpt><trkpt lat="43.7790421" lon="11.243312"><ele>48.0</ele><time>2026-04-25T08:57:41.308Z</time></trkpt><trkpt lat="43.779097" lon="11.2434849"><ele>48.0</ele><time>2026-04-25T08:57:42.317Z</time></trkpt><trkpt lat="43.779148" lon="11.2436456"><ele>48.0</ele><time>2026-04-25T08:57:43.323Z</time></trkpt><trkpt lat="43.7791966" lon="11.2437959"><ele>48.0</ele><time>2026-04-25T08:57:44.315Z</time></trkpt><trkpt lat="43.7792437" lon="11.2439297"><ele>48.0</ele><time>2026-04-25T08:57:45.31Z</time></trkpt><trkpt lat="43.7792834" lon="11.2440451"><ele>48.0</ele><time>2026-04-25T08:57:46.311Z</time></trkpt><trkpt lat="43.7793148" lon="11.244144"><ele>48.0</ele><time>2026-04-25T08:57:47.291Z</time></trkpt><trkpt lat="43.7793443" lon="11.244245"><ele>48.0</ele><time>2026-04-25T08:57:48.314Z</time></trkpt><trkpt lat="43.7793817" lon="11.2443317"><ele>48.0</ele><time>2026-04-25T08:57:49.298Z</time></trkpt><trkpt lat="43.7794058" lon="11.2444196"><ele>48.0</ele><time>2026-04-25T08:57:50.327Z</time></trkpt><trkpt lat="43.779429" lon="11.2445191"><ele>48.0</ele><time>2026-04-25T08:57:52.318Z</time></trkpt><trkpt lat="43.779467" lon="11.2446394"><ele>48.0</ele><time>2026-04-25T08:58:20.324Z</time></trkpt><trkpt lat="43.7794997" lon="11.244758"><ele>48.5</ele><time>2026-04-25T08:58:21.305Z</time></trkpt><trkpt lat="43.7795173" lon="11.2448892"><ele>49.0</ele><time>2026-04-25T08:58:22.321Z</time></trkpt><trkpt lat="43.7795668" lon="11.2450565"><ele>49.5</ele><time>2026-04-25T08:58:23.313Z</time></trkpt><trkpt lat="43.7796241" lon="11.2452644"><ele>50.0</ele><time>2026-04-25T08:58:24.318Z</time></trkpt><trkpt lat="43.7796575" lon="11.2454758"><ele>49.5</ele><time>2026-04-25T08:58:25.317Z</time></trkpt><trkpt lat="43.7796717" lon="11.2456958"><ele>49.0</ele><time>2026-04-25T08:58:26.308Z</time></trkpt><trkpt lat="43.7797702" lon="11.2473607"><ele>48.99999999999999</ele><time>2026-04-25T08:58:33.317Z</time></trkpt><trkpt lat="43.7797834" lon="11.2475376"><ele>49.0</ele><time>2026-04-25T08:58:34.306Z</time></trkpt><trkpt lat="43.7798084" lon="11.247634"><ele>49.0</ele><time>2026-04-25T08:58:35.31Z</time></trkpt><trkpt lat="43.7798472" lon="11.2477269"><ele>49.0</ele><time>2026-04-25T08:58:36.334Z</time></trkpt><trkpt lat="43.7798795" lon="11.2478033"><ele>48.99999999999999</ele><time>2026-04-25T08:58:37.309Z</time></trkpt><trkpt lat="43.7799098" lon="11.2478946"><ele>49.0</ele><time>2026-04-25T08:58:38.31Z</time></trkpt><trkpt lat="43.7799586" lon="11.2480111"><ele>49.25</ele><time>2026-04-25T08:58:39.293Z</time></trkpt><trkpt lat="43.78001" lon="11.2481537"><ele>49.5</ele><time>2026-04-25T08:58:40.321Z</time></trkpt><trkpt lat="43.7800648" lon="11.2483266"><ele>49.75</ele><time>2026-04-25T08:58:41.316Z</time></trkpt><trkpt lat="43.7801269" lon="11.248488"><ele>50.0</ele><time>2026-04-25T08:58:42.309Z</time></trkpt><trkpt lat="43.7801783" lon="11.2486675"><ele>50.0</ele><time>2026-04-25T08:58:43.307Z</time></trkpt><trkpt lat="43.7802316" lon="11.248871"><ele>50.0</ele><time>2026-04-25T08:58:44.308Z</time></trkpt><trkpt lat="43.7802945" lon="11.2490937"><ele>50.0</ele><time>2026-04-25T08:58:45.3Z</time></trkpt><trkpt lat="43.7803476" lon="11.2492864"><ele>51.0</ele><time>2026-04-25T08:58:46.306Z</time></trkpt><trkpt lat="43.7807132" lon="11.2505162"><ele>50.75</ele><time>2026-04-25T08:58:52.294Z</time></trkpt><trkpt lat="43.7807599" lon="11.2507128"><ele>50.5</ele><time>2026-04-25T08:58:53.299Z</time></trkpt><trkpt lat="43.7807943" lon="11.250894"><ele>50.25</ele><time>2026-04-25T08:58:54.297Z</time></trkpt><trkpt lat="43.7808172" lon="11.2510544"><ele>50.0</ele><time>2026-04-25T08:58:55.324Z</time></trkpt><trkpt lat="43.7808353" lon="11.2512217"><ele>50.00000000000001</ele><time>2026-04-25T08:58:56.318Z</time></trkpt><trkpt lat="43.7808549" lon="11.2513659"><ele>50.0</ele><time>2026-04-25T08:58:57.309Z</time></trkpt><trkpt lat="43.780878" lon="11.2514981"><ele>50.0</ele><time>2026-04-25T08:58:58.304Z</time></trkpt><trkpt lat="43.7808968" lon="11.2516191"><ele>50.0</ele><time>2026-04-25T08:58:59.31Z</time></trkpt><trkpt lat="43.7809171" lon="11.25173"><ele>50.00000000000001</ele><time>2026-04-25T08:59:00.309Z</time></trkpt><trkpt lat="43.780943" lon="11.2518122"><ele>50.0</ele><time>2026-04-25T08:59:01.307Z</time></trkpt><trkpt lat="43.7809636" lon="11.2518951"><ele>50.333333333333336</ele><time>2026-04-25T08:59:02.314Z</time></trkpt><trkpt lat="43.7810122" lon="11.2520274"><ele>50.66666666666667</ele><time>2026-04-25T08:59:04.317Z</time></trkpt><trkpt lat="43.7810502" lon="11.2520972"><ele>51.0</ele><time>2026-04-25T08:59:05.304Z</time></trkpt><trkpt lat="43.781098" lon="11.2521711"><ele>51.33333333333333</ele><time>2026-04-25T08:59:06.302Z</time></trkpt><trkpt lat="43.78117" lon="11.2522459"><ele>51.666666666666664</ele><time>2026-04-25T08:59:07.303Z</time></trkpt><trkpt lat="43.78126" lon="11.2523205"><ele>52.0</ele><time>2026-04-25T08:59:08.293Z</time></trkpt><trkpt lat="43.7813534" lon="11.2523979"><ele>52.400000000000006</ele><time>2026-04-25T08:59:09.307Z</time></trkpt><trkpt lat="43.7814299" lon="11.2524748"><ele>52.800000000000004</ele><time>2026-04-25T08:59:10.301Z</time></trkpt><trkpt lat="43.7814991" lon="11.2525392"><ele>53.2</ele><time>2026-04-25T08:59:11.309Z</time></trkpt><trkpt lat="43.7815653" lon="11.2525992"><ele>53.6</ele><time>2026-04-25T08:59:12.305Z</time></trkpt><trkpt lat="43.7816272" lon="11.2526576"><ele>54.0</ele><time>2026-04-25T08:59:13.306Z</time></trkpt><trkpt lat="43.7817406" lon="11.2527419"><ele>53.800000000000004</ele><time>2026-04-25T08:59:15.308Z</time></trkpt><trkpt lat="43.7818806" lon="11.2527425"><ele>53.60000000000001</ele><time>2026-04-25T08:59:17.301Z</time></trkpt><trkpt lat="43.7819576" lon="11.2527095"><ele>53.4</ele><time>2026-04-25T08:59:18.295Z</time></trkpt><trkpt lat="43.7820375" lon="11.2526665"><ele>53.2</ele><time>2026-04-25T08:59:19.293Z</time></trkpt><trkpt lat="43.7821276" lon="11.2526134"><ele>53.0</ele><time>2026-04-25T08:59:20.315Z</time></trkpt><trkpt lat="43.7822322" lon="11.2525625"><ele>53.0</ele><time>2026-04-25T08:59:21.308Z</time></trkpt><trkpt lat="43.7823546" lon="11.2525197"><ele>53.0</ele><time>2026-04-25T08:59:22.314Z</time></trkpt><trkpt lat="43.7824704" lon="11.2524603"><ele>53.0</ele><time>2026-04-25T08:59:23.312Z</time></trkpt><trkpt lat="43.7825846" lon="11.2523997"><ele>53.0</ele><time>2026-04-25T08:59:24.319Z</time></trkpt><trkpt lat="43.7826949" lon="11.2523475"><ele>53.0</ele><time>2026-04-25T08:59:25.315Z</time></trkpt><trkpt lat="43.7827996" lon="11.2523006"><ele>53.0</ele><time>2026-04-25T08:59:26.313Z</time></trkpt><trkpt lat="43.7829125" lon="11.2522489"><ele>53.0</ele><time>2026-04-25T08:59:27.322Z</time></trkpt><trkpt lat="43.7830214" lon="11.2522095"><ele>53.0</ele><time>2026-04-25T08:59:28.304Z</time></trkpt><trkpt lat="43.7831277" lon="11.2521627"><ele>53.0</ele><time>2026-04-25T08:59:29.309Z</time></trkpt><trkpt lat="43.7832341" lon="11.2521175"><ele>53.0</ele><time>2026-04-25T08:59:30.315Z</time></trkpt><trkpt lat="43.7835504" lon="11.2509388"><ele>53.0</ele><time>2026-04-25T08:59:37.292Z</time></trkpt><trkpt lat="43.7835502" lon="11.250849"><ele>53.0</ele><time>2026-04-25T08:59:38.305Z</time></trkpt><trkpt lat="43.783577" lon="11.2506992"><ele>53.0</ele><time>2026-04-25T08:59:39.305Z</time></trkpt><trkpt lat="43.7835888" lon="11.2505374"><ele>53.0</ele><time>2026-04-25T08:59:40.309Z</time></trkpt><trkpt lat="43.7835659" lon="11.250384"><ele>53.0</ele><time>2026-04-25T08:59:41.314Z</time></trkpt><trkpt lat="43.7835635" lon="11.2502204"><ele>53.2</ele><time>2026-04-25T08:59:42.317Z</time></trkpt><trkpt lat="43.7835644" lon="11.2500541"><ele>53.4</ele><time>2026-04-25T08:59:43.305Z</time></trkpt><trkpt lat="43.7835609" lon="11.2499076"><ele>53.60000000000001</ele><time>2026-04-25T08:59:44.312Z</time></trkpt><trkpt lat="43.7835507" lon="11.2497778"><ele>53.800000000000004</ele><time>2026-04-25T08:59:45.297Z</time></trkpt><trkpt lat="43.783543" lon="11.2496444"><ele>54.0</ele><time>2026-04-25T08:59:46.31Z</time></trkpt><trkpt lat="43.7835352" lon="11.2495041"><ele>54.0</ele><time>2026-04-25T08:59:47.314Z</time></trkpt><trkpt lat="43.7835204" lon="11.2493633"><ele>54.00000000000001</ele><time>2026-04-25T08:59:48.3Z</time></trkpt><trkpt lat="43.7835214" lon="11.2492133"><ele>54.00000000000001</ele><time>2026-04-25T08:59:49.316Z</time></trkpt><trkpt lat="43.7835209" lon="11.2490679"><ele>54.0</ele><time>2026-04-25T08:59:50.315Z</time></trkpt><trkpt lat="43.7835236" lon="11.2489249"><ele>54.0</ele><time>2026-04-25T08:59:51.323Z</time></trkpt><trkpt lat="43.7835311" lon="11.2487668"><ele>53.5</ele><time>2026-04-25T08:59:52.317Z</time></trkpt><trkpt lat="43.7835344" lon="11.2486078"><ele>53.0</ele><time>2026-04-25T08:59:53.313Z</time></trkpt><trkpt lat="43.7835366" lon="11.2484377"><ele>52.5</ele><time>2026-04-25T08:59:54.313Z</time></trkpt><trkpt lat="43.7835385" lon="11.2482748"><ele>52.0</ele><time>2026-04-25T08:59:55.307Z</time></trkpt><trkpt lat="43.7835385" lon="11.2481161"><ele>52.0</ele><time>2026-04-25T08:59:56.299Z</time></trkpt><trkpt lat="43.7835376" lon="11.2479557"><ele>52.0</ele><time>2026-04-25T08:59:57.318Z</time></trkpt><trkpt lat="43.7835356" lon="11.2477928"><ele>52.0</ele><time>2026-04-25T08:59:58.31Z</time></trkpt><trkpt lat="43.7835294" lon="11.2476313"><ele>52.0</ele><time>2026-04-25T08:59:59.321Z</time></trkpt><trkpt lat="43.7835142" lon="11.2474756"><ele>51.2</ele><time>2026-04-25T09:00:00.313Z</time></trkpt><trkpt lat="43.7835084" lon="11.2473247"><ele>50.400000000000006</ele><time>2026-04-25T09:00:01.311Z</time></trkpt><trkpt lat="43.7834945" lon="11.247181"><ele>49.599999999999994</ele><time>2026-04-25T09:00:02.299Z</time></trkpt><trkpt lat="43.7834761" lon="11.2470497"><ele>48.8</ele><time>2026-04-25T09:00:03.307Z</time></trkpt><trkpt lat="43.7834585" lon="11.2469208"><ele>48.0</ele><time>2026-04-25T09:00:04.309Z</time></trkpt><trkpt lat="43.7834347" lon="11.2467931"><ele>47.8</ele><time>2026-04-25T09:00:05.301Z</time></trkpt><trkpt lat="43.7834037" lon="11.2466622"><ele>47.599999999999994</ele><time>2026-04-25T09:00:06.336Z</time></trkpt><trkpt lat="43.7833736" lon="11.2465328"><ele>47.400000000000006</ele><time>2026-04-25T09:00:07.297Z</time></trkpt><trkpt lat="43.7833413" lon="11.2463959"><ele>47.2</ele><time>2026-04-25T09:00:08.312Z</time></trkpt><trkpt lat="43.7833025" lon="11.2462571"><ele>47.0</ele><time>2026-04-25T09:00:09.307Z</time></trkpt><trkpt lat="43.7832587" lon="11.2461245"><ele>46.83333333333333</ele><time>2026-04-25T09:00:10.318Z</time></trkpt><trkpt lat="43.7832018" lon="11.2460114"><ele>46.666666666666664</ele><time>2026-04-25T09:00:11.297Z</time></trkpt><trkpt lat="43.7831412" lon="11.2459138"><ele>46.5</ele><time>2026-04-25T09:00:12.308Z</time></trkpt><trkpt lat="43.7830691" lon="11.2458415"><ele>46.333333333333336</ele><time>2026-04-25T09:00:13.301Z</time></trkpt><trkpt lat="43.7829982" lon="11.2457883"><ele>46.16666666666667</ele><time>2026-04-25T09:00:14.302Z</time></trkpt><trkpt lat="43.7829296" lon="11.245735"><ele>46.0</ele><time>2026-04-25T09:00:15.308Z</time></trkpt><trkpt lat="43.7828599" lon="11.2457155"><ele>46.0</ele><time>2026-04-25T09:00:16.302Z</time></trkpt><trkpt lat="43.7827867" lon="11.2456926"><ele>46.0</ele><time>2026-04-25T09:00:17.314Z</time></trkpt><trkpt lat="43.7826941" lon="11.2456789"><ele>46.0</ele><time>2026-04-25T09:00:18.293Z</time></trkpt><trkpt lat="43.782599" lon="11.2456678"><ele>46.0</ele><time>2026-04-25T09:00:19.314Z</time></trkpt><trkpt lat="43.7824953" lon="11.2456626"><ele>46.0</ele><time>2026-04-25T09:00:20.312Z</time></trkpt><trkpt lat="43.7824014" lon="11.2456818"><ele>45.8</ele><time>2026-04-25T09:00:21.289Z</time></trkpt><trkpt lat="43.7823131" lon="11.2457157"><ele>45.599999999999994</ele><time>2026-04-25T09:00:22.329Z</time></trkpt><trkpt lat="43.7822104" lon="11.2457605"><ele>45.4</ele><time>2026-04-25T09:00:23.329Z</time></trkpt><trkpt lat="43.782103" lon="11.2458121"><ele>45.2</ele><time>2026-04-25T09:00:24.298Z</time></trkpt><trkpt lat="43.7819917" lon="11.2458624"><ele>45.0</ele><time>2026-04-25T09:00:25.321Z</time></trkpt><trkpt lat="43.7818829" lon="11.2459247"><ele>45.75</ele><time>2026-04-25T09:00:26.317Z</time></trkpt><trkpt lat="43.7817664" lon="11.2459966"><ele>46.5</ele><time>2026-04-25T09:00:27.322Z</time></trkpt><trkpt lat="43.7816596" lon="11.2460525"><ele>47.25</ele><time>2026-04-25T09:00:28.311Z</time></trkpt><trkpt lat="43.7815473" lon="11.2461242"><ele>48.0</ele><time>2026-04-25T09:00:29.317Z</time></trkpt><trkpt lat="43.7814368" lon="11.2461996"><ele>48.0</ele><time>2026-04-25T09:00:30.32Z</time></trkpt><trkpt lat="43.781322" lon="11.2462658"><ele>48.0</ele><time>2026-04-25T09:00:31.311Z</time></trkpt><trkpt lat="43.7812002" lon="11.246336"><ele>48.0</ele><time>2026-04-25T09:00:32.318Z</time></trkpt><trkpt lat="43.7810927" lon="11.2464074"><ele>48.0</ele><time>2026-04-25T09:00:33.322Z</time></trkpt><trkpt lat="43.7809819" lon="11.2464774"><ele>47.5</ele><time>2026-04-25T09:00:34.314Z</time></trkpt><trkpt lat="43.7808677" lon="11.2465467"><ele>47.0</ele><time>2026-04-25T09:00:35.306Z</time></trkpt><trkpt lat="43.7807576" lon="11.2466066"><ele>46.5</ele><time>2026-04-25T09:00:36.328Z</time></trkpt><trkpt lat="43.7806502" lon="11.2466735"><ele>46.0</ele><time>2026-04-25T09:00:37.302Z</time></trkpt><trkpt lat="43.7805439" lon="11.2467407"><ele>46.0</ele><time>2026-04-25T09:00:38.312Z</time></trkpt><trkpt lat="43.7804336" lon="11.2468065"><ele>46.0</ele><time>2026-04-25T09:00:39.325Z</time></trkpt><trkpt lat="43.780327" lon="11.2468632"><ele>46.0</ele><time>2026-04-25T09:00:40.331Z</time></trkpt><trkpt lat="43.78022" lon="11.246922"><ele>46.0</ele><time>2026-04-25T09:00:41.329Z</time></trkpt><trkpt lat="43.7801179" lon="11.2469834"><ele>46.199999999999996</ele><time>2026-04-25T09:00:42.302Z</time></trkpt><trkpt lat="43.7800214" lon="11.2470411"><ele>46.4</ele><time>2026-04-25T09:00:43.321Z</time></trkpt><trkpt lat="43.7799293" lon="11.2470882"><ele>46.6</ele><time>2026-04-25T09:00:44.319Z</time></trkpt><trkpt lat="43.779848" lon="11.2471416"><ele>46.8</ele><time>2026-04-25T09:00:45.299Z</time></trkpt><trkpt lat="43.7797916" lon="11.2471896"><ele>47.0</ele><time>2026-04-25T09:00:46.304Z</time></trkpt><trkpt lat="43.7797738" lon="11.2473288"><ele>47.400000000000006</ele><time>2026-04-25T09:00:48.328Z</time></trkpt><trkpt lat="43.7797993" lon="11.247422"><ele>47.800000000000004</ele><time>2026-04-25T09:00:49.301Z</time></trkpt><trkpt lat="43.7798453" lon="11.2475208"><ele>48.2</ele><time>2026-04-25T09:00:50.324Z</time></trkpt><trkpt lat="43.779901" lon="11.2476522"><ele>48.6</ele><time>2026-04-25T09:00:52.321Z</time></trkpt><trkpt lat="43.7799393" lon="11.2477392"><ele>49.0</ele><time>2026-04-25T09:00:55.31Z</time></trkpt><trkpt lat="43.7799803" lon="11.2478863"><ele>49.0</ele><time>2026-04-25T09:01:04.303Z</time></trkpt><trkpt lat="43.7800353" lon="11.2480903"><ele>49.0</ele><time>2026-04-25T09:01:06.322Z</time></trkpt><trkpt lat="43.7800754" lon="11.2482516"><ele>49.0</ele><time>2026-04-25T09:01:07.295Z</time></trkpt><trkpt lat="43.7801274" lon="11.2483989"><ele>49.0</ele><time>2026-04-25T09:01:08.309Z</time></trkpt><trkpt lat="43.7801804" lon="11.2485586"><ele>49.33333333333333</ele><time>2026-04-25T09:01:09.317Z</time></trkpt><trkpt lat="43.7802346" lon="11.2487349"><ele>49.66666666666667</ele><time>2026-04-25T09:01:10.32Z</time></trkpt><trkpt lat="43.7803006" lon="11.2489464"><ele>50.0</ele><time>2026-04-25T09:01:11.301Z</time></trkpt><trkpt lat="43.7803736" lon="11.2491906"><ele>50.5</ele><time>2026-04-25T09:01:12.308Z</time></trkpt><trkpt lat="43.7804367" lon="11.2494269"><ele>51.0</ele><time>2026-04-25T09:01:13.304Z</time></trkpt><trkpt lat="43.780782" lon="11.250593"><ele>50.75</ele><time>2026-04-25T09:01:18.305Z</time></trkpt><trkpt lat="43.78081" lon="11.2508128"><ele>50.5</ele><time>2026-04-25T09:01:19.31Z</time></trkpt><trkpt lat="43.7808518" lon="11.2509936"><ele>50.25</ele><time>2026-04-25T09:01:20.325Z</time></trkpt><trkpt lat="43.7808811" lon="11.2511673"><ele>50.0</ele><time>2026-04-25T09:01:21.306Z</time></trkpt><trkpt lat="43.7808973" lon="11.2513307"><ele>50.333333333333336</ele><time>2026-04-25T09:01:22.315Z</time></trkpt><trkpt lat="43.7809249" lon="11.2514697"><ele>50.66666666666667</ele><time>2026-04-25T09:01:23.318Z</time></trkpt><trkpt lat="43.780943" lon="11.2516065"><ele>51.0</ele><time>2026-04-25T09:01:24.325Z</time></trkpt><trkpt lat="43.7809634" lon="11.2517281"><ele>51.33333333333333</ele><time>2026-04-25T09:01:25.312Z</time></trkpt><trkpt lat="43.7809792" lon="11.2518389"><ele>51.666666666666664</ele><time>2026-04-25T09:01:26.309Z</time></trkpt><trkpt lat="43.7809975" lon="11.251927"><ele>52.0</ele><time>2026-04-25T09:01:27.31Z</time></trkpt><trkpt lat="43.7810531" lon="11.252007"><ele>52.0</ele><time>2026-04-25T09:01:30.31Z</time></trkpt><trkpt lat="43.7810979" lon="11.2520867"><ele>52.0</ele><time>2026-04-25T09:01:32.305Z</time></trkpt><trkpt lat="43.7811539" lon="11.2521856"><ele>52.0</ele><time>2026-04-25T09:01:34.302Z</time></trkpt><trkpt lat="43.7811803" lon="11.2522765"><ele>52.0</ele><time>2026-04-25T09:01:39.295Z</time></trkpt><trkpt lat="43.7812326" lon="11.2523389"><ele>52.0</ele><time>2026-04-25T09:01:41.312Z</time></trkpt><trkpt lat="43.7812932" lon="11.25238"><ele>52.0</ele><time>2026-04-25T09:01:42.323Z</time></trkpt><trkpt lat="43.7813536" lon="11.2524288"><ele>52.0</ele><time>2026-04-25T09:01:43.315Z</time></trkpt><trkpt lat="43.7814116" lon="11.25248"><ele>52.2</ele><time>2026-04-25T09:01:44.3Z</time></trkpt><trkpt lat="43.7815086" lon="11.2525622"><ele>52.400000000000006</ele><time>2026-04-25T09:01:46.306Z</time></trkpt><trkpt lat="43.7815885" lon="11.2526423"><ele>52.599999999999994</ele><time>2026-04-25T09:01:48.318Z</time></trkpt><trkpt lat="43.7816819" lon="11.2527258"><ele>52.8</ele><time>2026-04-25T09:01:50.319Z</time></trkpt><trkpt lat="43.781761" lon="11.2527862"><ele>53.0</ele><time>2026-04-25T09:01:52.33Z</time></trkpt><trkpt lat="43.781856" lon="11.2528219"><ele>53.00000000000001</ele><time>2026-04-25T09:01:54.31Z</time></trkpt><trkpt lat="43.7819513" lon="11.2528156"><ele>53.0</ele><time>2026-04-25T09:01:56.302Z</time></trkpt><trkpt lat="43.7820177" lon="11.2527792"><ele>53.0</ele><time>2026-04-25T09:01:57.311Z</time></trkpt><trkpt lat="43.7820807" lon="11.2527452"><ele>53.0</ele><time>2026-04-25T09:01:58.302Z</time></trkpt><trkpt lat="43.7821469" lon="11.2527176"><ele>53.00000000000001</ele><time>2026-04-25T09:01:59.319Z</time></trkpt><trkpt lat="43.7822235" lon="11.2526948"><ele>53.0</ele><time>2026-04-25T09:02:00.31Z</time></trkpt><trkpt lat="43.7823002" lon="11.2526599"><ele>53.00000000000001</ele><time>2026-04-25T09:02:01.305Z</time></trkpt><trkpt lat="43.7823748" lon="11.252627"><ele>53.0</ele><time>2026-04-25T09:02:02.314Z</time></trkpt><trkpt lat="43.782454" lon="11.2525988"><ele>53.0</ele><time>2026-04-25T09:02:03.322Z</time></trkpt><trkpt lat="43.7825251" lon="11.2525676"><ele>53.0</ele><time>2026-04-25T09:02:04.321Z</time></trkpt><trkpt lat="43.7826007" lon="11.2525267"><ele>53.00000000000001</ele><time>2026-04-25T09:02:05.306Z</time></trkpt><trkpt lat="43.7826706" lon="11.2524765"><ele>53.0</ele><time>2026-04-25T09:02:06.309Z</time></trkpt><trkpt lat="43.7827383" lon="11.2524301"><ele>53.00000000000001</ele><time>2026-04-25T09:02:07.3Z</time></trkpt><trkpt lat="43.7828021" lon="11.2523943"><ele>53.0</ele><time>2026-04-25T09:02:08.316Z</time></trkpt><trkpt lat="43.7828817" lon="11.2523451"><ele>53.0</ele><time>2026-04-25T09:02:10.308Z</time></trkpt><trkpt lat="43.7829488" lon="11.2523105"><ele>53.0</ele><time>2026-04-25T09:02:13.307Z</time></trkpt><trkpt lat="43.7830347" lon="11.2522707"><ele>53.00000000000001</ele><time>2026-04-25T09:02:16.314Z</time></trkpt><trkpt lat="43.7831463" lon="11.2522191"><ele>53.0</ele><time>2026-04-25T09:02:18.305Z</time></trkpt><trkpt lat="43.7832134" lon="11.2521861"><ele>53.00000000000001</ele><time>2026-04-25T09:02:19.301Z</time></trkpt><trkpt lat="43.7832775" lon="11.2521566"><ele>53.0</ele><time>2026-04-25T09:02:20.304Z</time></trkpt><trkpt lat="43.7833472" lon="11.2521207"><ele>53.0</ele><time>2026-04-25T09:02:21.303Z</time></trkpt><trkpt lat="43.7834174" lon="11.2520912"><ele>53.0</ele><time>2026-04-25T09:02:22.342Z</time></trkpt><trkpt lat="43.7834862" lon="11.2520573"><ele>53.00000000000001</ele><time>2026-04-25T09:02:23.311Z</time></trkpt><trkpt lat="43.7835952" lon="11.251985"><ele>53.0</ele><time>2026-04-25T09:02:25.328Z</time></trkpt><trkpt lat="43.7836548" lon="11.2519354"><ele>53.00000000000001</ele><time>2026-04-25T09:02:26.323Z</time></trkpt><trkpt lat="43.7837089" lon="11.2518886"><ele>53.0</ele><time>2026-04-25T09:02:27.304Z</time></trkpt><trkpt lat="43.7837754" lon="11.2518172"><ele>53.0</ele><time>2026-04-25T09:02:29.311Z</time></trkpt><trkpt lat="43.7838644" lon="11.2517613"><ele>53.0</ele><time>2026-04-25T09:02:31.316Z</time></trkpt><trkpt lat="43.7839396" lon="11.2517294"><ele>53.00000000000001</ele><time>2026-04-25T09:02:33.293Z</time></trkpt><trkpt lat="43.7839992" lon="11.2516992"><ele>53.0</ele><time>2026-04-25T09:02:35.307Z</time></trkpt><trkpt lat="43.7840608" lon="11.2516527"><ele>53.00000000000001</ele><time>2026-04-25T09:03:08.31Z</time></trkpt><trkpt lat="43.7841442" lon="11.2516071"><ele>53.0</ele><time>2026-04-25T09:03:10.309Z</time></trkpt><trkpt lat="43.7842106" lon="11.2515792"><ele>53.0</ele><time>2026-04-25T09:03:11.313Z</time></trkpt><trkpt lat="43.7842951" lon="11.2515499"><ele>53.0</ele><time>2026-04-25T09:03:12.316Z</time></trkpt><trkpt lat="43.7843859" lon="11.2515233"><ele>53.00000000000001</ele><time>2026-04-25T09:03:13.316Z</time></trkpt><trkpt lat="43.7844758" lon="11.2514807"><ele>53.0</ele><time>2026-04-25T09:03:14.31Z</time></trkpt><trkpt lat="43.7845669" lon="11.2514345"><ele>53.4</ele><time>2026-04-25T09:03:15.311Z</time></trkpt><trkpt lat="43.7846626" lon="11.2513868"><ele>53.8</ele><time>2026-04-25T09:03:16.312Z</time></trkpt><trkpt lat="43.7847551" lon="11.2513423"><ele>54.2</ele><time>2026-04-25T09:03:17.324Z</time></trkpt><trkpt lat="43.7848506" lon="11.2513017"><ele>54.6</ele><time>2026-04-25T09:03:18.289Z</time></trkpt><trkpt lat="43.7849406" lon="11.2512533"><ele>55.0</ele><time>2026-04-25T09:03:19.296Z</time></trkpt><trkpt lat="43.7850315" lon="11.2512021"><ele>55.0</ele><time>2026-04-25T09:03:20.319Z</time></trkpt><trkpt lat="43.7851153" lon="11.2511492"><ele>55.0</ele><time>2026-04-25T09:03:21.315Z</time></trkpt><trkpt lat="43.7852086" lon="11.2511013"><ele>55.0</ele><time>2026-04-25T09:03:22.325Z</time></trkpt><trkpt lat="43.785303" lon="11.2510495"><ele>55.0</ele><time>2026-04-25T09:03:23.305Z</time></trkpt><trkpt lat="43.7853998" lon="11.2510159"><ele>55.0</ele><time>2026-04-25T09:03:24.309Z</time></trkpt><trkpt lat="43.7854921" lon="11.2509571"><ele>54.6</ele><time>2026-04-25T09:03:25.299Z</time></trkpt><trkpt lat="43.7855833" lon="11.2509037"><ele>54.2</ele><time>2026-04-25T09:03:26.309Z</time></trkpt><trkpt lat="43.7856727" lon="11.2508636"><ele>53.8</ele><time>2026-04-25T09:03:27.313Z</time></trkpt><trkpt lat="43.7857607" lon="11.2508312"><ele>53.4</ele><time>2026-04-25T09:03:28.307Z</time></trkpt><trkpt lat="43.7858494" lon="11.2507899"><ele>53.0</ele><time>2026-04-25T09:03:29.305Z</time></trkpt><trkpt lat="43.7859277" lon="11.2507477"><ele>53.00000000000001</ele><time>2026-04-25T09:03:30.31Z</time></trkpt><trkpt lat="43.7860085" lon="11.250716"><ele>53.0</ele><time>2026-04-25T09:03:31.304Z</time></trkpt><trkpt lat="43.7860902" lon="11.2506757"><ele>53.0</ele><time>2026-04-25T09:03:32.302Z</time></trkpt><trkpt lat="43.7861635" lon="11.2506325"><ele>53.0</ele><time>2026-04-25T09:03:33.3Z</time></trkpt><trkpt lat="43.786236" lon="11.2505924"><ele>53.00000000000001</ele><time>2026-04-25T09:03:34.309Z</time></trkpt><trkpt lat="43.7862995" lon="11.2505582"><ele>53.0</ele><time>2026-04-25T09:03:35.331Z</time></trkpt><trkpt lat="43.7864207" lon="11.2505149"><ele>53.0</ele><time>2026-04-25T09:03:37.305Z</time></trkpt><trkpt lat="43.7864823" lon="11.2504908"><ele>53.0</ele><time>2026-04-25T09:03:38.304Z</time></trkpt><trkpt lat="43.7865481" lon="11.2504634"><ele>53.0</ele><time>2026-04-25T09:03:39.311Z</time></trkpt><trkpt lat="43.7866118" lon="11.2504242"><ele>53.0</ele><time>2026-04-25T09:03:40.307Z</time></trkpt><trkpt lat="43.7866812" lon="11.2503851"><ele>53.0</ele><time>2026-04-25T09:03:41.299Z</time></trkpt><trkpt lat="43.7867558" lon="11.2503354"><ele>53.0</ele><time>2026-04-25T09:03:42.304Z</time></trkpt><trkpt lat="43.7868303" lon="11.2502813"><ele>53.0</ele><time>2026-04-25T09:03:43.311Z</time></trkpt><trkpt lat="43.7869113" lon="11.2502371"><ele>53.0</ele><time>2026-04-25T09:03:44.318Z</time></trkpt><trkpt lat="43.7869921" lon="11.2502178"><ele>53.0</ele><time>2026-04-25T09:03:45.306Z</time></trkpt><trkpt lat="43.7870805" lon="11.2502003"><ele>53.0</ele><time>2026-04-25T09:03:46.302Z</time></trkpt><trkpt lat="43.7871626" lon="11.2501881"><ele>53.0</ele><time>2026-04-25T09:03:47.306Z</time></trkpt><trkpt lat="43.7872987" lon="11.2500799"><ele>53.0</ele><time>2026-04-25T09:03:49.311Z</time></trkpt><trkpt lat="43.7873635" lon="11.2500481"><ele>53.00000000000001</ele><time>2026-04-25T09:03:50.293Z</time></trkpt><trkpt lat="43.787441" lon="11.2500183"><ele>53.0</ele><time>2026-04-25T09:03:51.302Z</time></trkpt><trkpt lat="43.7875063" lon="11.2500021"><ele>53.0</ele><time>2026-04-25T09:03:52.313Z</time></trkpt><trkpt lat="43.7875858" lon="11.2499654"><ele>53.0</ele><time>2026-04-25T09:03:54.3Z</time></trkpt><trkpt lat="43.7876806" lon="11.2499403"><ele>53.00000000000001</ele><time>2026-04-25T09:03:56.3Z</time></trkpt><trkpt lat="43.7877494" lon="11.2498833"><ele>53.0</ele><time>2026-04-25T09:03:59.293Z</time></trkpt><trkpt lat="43.7878187" lon="11.2498402"><ele>53.16666666666667</ele><time>2026-04-25T09:04:11.32Z</time></trkpt><trkpt lat="43.7878799" lon="11.2498094"><ele>53.333333333333336</ele><time>2026-04-25T09:04:12.312Z</time></trkpt><trkpt lat="43.7879435" lon="11.2497819"><ele>53.5</ele><time>2026-04-25T09:04:13.318Z</time></trkpt><trkpt lat="43.7880438" lon="11.2497977"><ele>53.66666666666667</ele><time>2026-04-25T09:04:15.307Z</time></trkpt><trkpt lat="43.788133" lon="11.2498646"><ele>53.833333333333336</ele><time>2026-04-25T09:04:17.321Z</time></trkpt><trkpt lat="43.7882011" lon="11.2499432"><ele>54.0</ele><time>2026-04-25T09:04:19.308Z</time></trkpt><trkpt lat="43.7882749" lon="11.250006"><ele>54.0</ele><time>2026-04-25T09:04:21.302Z</time></trkpt><trkpt lat="43.7883476" lon="11.2500634"><ele>54.0</ele><time>2026-04-25T09:04:23.31Z</time></trkpt><trkpt lat="43.7884096" lon="11.2501252"><ele>54.0</ele><time>2026-04-25T09:04:25.323Z</time></trkpt><trkpt lat="43.7884745" lon="11.2501728"><ele>54.0</ele><time>2026-04-25T09:04:27.314Z</time></trkpt><trkpt lat="43.7885323" lon="11.250222"><ele>54.0</ele><time>2026-04-25T09:04:30.306Z</time></trkpt><trkpt lat="43.7885885" lon="11.2502727"><ele>54.0</ele><time>2026-04-25T09:04:33.305Z</time></trkpt><trkpt lat="43.788679" lon="11.2503398"><ele>53.857142857142854</ele><time>2026-04-25T09:04:35.313Z</time></trkpt><trkpt lat="43.7887372" lon="11.2503876"><ele>53.71428571428571</ele><time>2026-04-25T09:04:36.293Z</time></trkpt><trkpt lat="43.7887982" lon="11.2504478"><ele>53.57142857142857</ele><time>2026-04-25T09:04:37.3Z</time></trkpt><trkpt lat="43.7888658" lon="11.2504991"><ele>53.42857142857143</ele><time>2026-04-25T09:04:38.309Z</time></trkpt><trkpt lat="43.7889217" lon="11.2505558"><ele>53.285714285714285</ele><time>2026-04-25T09:04:39.29Z</time></trkpt><trkpt lat="43.788981" lon="11.2506029"><ele>53.142857142857146</ele><time>2026-04-25T09:04:40.322Z</time></trkpt><trkpt lat="43.7890336" lon="11.2506561"><ele>53.0</ele><time>2026-04-25T09:04:41.303Z</time></trkpt><trkpt lat="43.7890691" lon="11.2507285"><ele>53.00000000000001</ele><time>2026-04-25T09:04:42.291Z</time></trkpt><trkpt lat="43.7891485" lon="11.2508416"><ele>53.0</ele><time>2026-04-25T09:04:44.298Z</time></trkpt><trkpt lat="43.7892074" lon="11.2508918"><ele>53.0</ele><time>2026-04-25T09:04:45.303Z</time></trkpt><trkpt lat="43.7892732" lon="11.250945"><ele>53.0</ele><time>2026-04-25T09:04:46.311Z</time></trkpt><trkpt lat="43.7893483" lon="11.2510057"><ele>53.00000000000001</ele><time>2026-04-25T09:04:47.305Z</time></trkpt><trkpt lat="43.7894331" lon="11.2510808"><ele>53.0</ele><time>2026-04-25T09:04:48.31Z</time></trkpt><trkpt lat="43.7895227" lon="11.251151"><ele>53.2</ele><time>2026-04-25T09:04:49.298Z</time></trkpt><trkpt lat="43.7896218" lon="11.2512125"><ele>53.4</ele><time>2026-04-25T09:04:50.307Z</time></trkpt><trkpt lat="43.7897159" lon="11.2512668"><ele>53.60000000000001</ele><time>2026-04-25T09:04:51.32Z</time></trkpt><trkpt lat="43.7897976" lon="11.2513347"><ele>53.800000000000004</ele><time>2026-04-25T09:04:52.31Z</time></trkpt><trkpt lat="43.7898779" lon="11.2513916"><ele>54.0</ele><time>2026-04-25T09:04:53.313Z</time></trkpt><trkpt lat="43.7899496" lon="11.2514499"><ele>54.166666666666664</ele><time>2026-04-25T09:04:54.308Z</time></trkpt><trkpt lat="43.790009" lon="11.2514992"><ele>54.33333333333333</ele><time>2026-04-25T09:04:55.332Z</time></trkpt><trkpt lat="43.7900866" lon="11.251555"><ele>54.5</ele><time>2026-04-25T09:04:57.313Z</time></trkpt><trkpt lat="43.7901377" lon="11.2516407"><ele>54.666666666666664</ele><time>2026-04-25T09:05:00.323Z</time></trkpt><trkpt lat="43.7901588" lon="11.25177"><ele>54.83333333333333</ele><time>2026-04-25T09:05:02.296Z</time></trkpt><trkpt lat="43.7901697" lon="11.2518573"><ele>55.0</ele><time>2026-04-25T09:05:03.304Z</time></trkpt><trkpt lat="43.7901627" lon="11.2519542"><ele>55.0</ele><time>2026-04-25T09:05:04.294Z</time></trkpt><trkpt lat="43.7901436" lon="11.2520503"><ele>55.0</ele><time>2026-04-25T09:05:05.319Z</time></trkpt><trkpt lat="43.7900936" lon="11.2522115"><ele>55.0</ele><time>2026-04-25T09:05:07.329Z</time></trkpt><trkpt lat="43.790069" lon="11.2522945"><ele>55.0</ele><time>2026-04-25T09:05:08.3Z</time></trkpt><trkpt lat="43.7900293" lon="11.252456"><ele>55.0</ele><time>2026-04-25T09:05:10.316Z</time></trkpt><trkpt lat="43.7900113" lon="11.2525433"><ele>55.0</ele><time>2026-04-25T09:05:11.314Z</time></trkpt><trkpt lat="43.7899646" lon="11.2526898"><ele>55.0</ele><time>2026-04-25T09:05:13.313Z</time></trkpt><trkpt lat="43.7899289" lon="11.2528243"><ele>55.0</ele><time>2026-04-25T09:05:15.312Z</time></trkpt><trkpt lat="43.7898854" lon="11.252947"><ele>55.0</ele><time>2026-04-25T09:05:17.307Z</time></trkpt><trkpt lat="43.7898314" lon="11.2530396"><ele>55.0</ele><time>2026-04-25T09:05:19.302Z</time></trkpt><trkpt lat="43.7898257" lon="11.2531321"><ele>54.99999999999999</ele><time>2026-04-25T09:05:21.298Z</time></trkpt><trkpt lat="43.7898348" lon="11.2532204"><ele>55.0</ele><time>2026-04-25T09:05:23.331Z</time></trkpt><trkpt lat="43.7898256" lon="11.2533214"><ele>55.0</ele><time>2026-04-25T09:05:27.321Z</time></trkpt><trkpt lat="43.7898125" lon="11.2534167"><ele>55.0</ele><time>2026-04-25T09:05:29.323Z</time></trkpt><trkpt lat="43.789786" lon="11.253546"><ele>54.99999999999999</ele><time>2026-04-25T09:05:31.324Z</time></trkpt><trkpt lat="43.7897634" lon="11.2537098"><ele>55.0</ele><time>2026-04-25T09:05:33.291Z</time></trkpt><trkpt lat="43.7897382" lon="11.253793"><ele>55.0</ele><time>2026-04-25T09:05:34.324Z</time></trkpt><trkpt lat="43.789696" lon="11.2539434"><ele>55.0</ele><time>2026-04-25T09:05:36.313Z</time></trkpt><trkpt lat="43.7896566" lon="11.2541269"><ele>55.0</ele><time>2026-04-25T09:05:38.316Z</time></trkpt><trkpt lat="43.7896425" lon="11.2542417"><ele>55.0</ele><time>2026-04-25T09:05:39.309Z</time></trkpt><trkpt lat="43.7896246" lon="11.2543527"><ele>55.0</ele><time>2026-04-25T09:05:40.312Z</time></trkpt><trkpt lat="43.7895995" lon="11.2544545"><ele>54.99999999999999</ele><time>2026-04-25T09:05:41.31Z</time></trkpt><trkpt lat="43.7895827" lon="11.2545637"><ele>55.0</ele><time>2026-04-25T09:05:42.309Z</time></trkpt><trkpt lat="43.7895705" lon="11.2546763"><ele>55.0</ele><time>2026-04-25T09:05:43.299Z</time></trkpt><trkpt lat="43.7895592" lon="11.2547744"><ele>55.0</ele><time>2026-04-25T09:05:44.3Z</time></trkpt><trkpt lat="43.789546" lon="11.254867"><ele>54.99999999999999</ele><time>2026-04-25T09:05:45.306Z</time></trkpt><trkpt lat="43.7895352" lon="11.2549589"><ele>55.0</ele><time>2026-04-25T09:05:46.321Z</time></trkpt><trkpt lat="43.789528" lon="11.2550701"><ele>55.166666666666664</ele><time>2026-04-25T09:05:47.316Z</time></trkpt><trkpt lat="43.7895168" lon="11.2551994"><ele>55.33333333333333</ele><time>2026-04-25T09:05:48.298Z</time></trkpt><trkpt lat="43.789507" lon="11.2553269"><ele>55.5</ele><time>2026-04-25T09:05:49.3Z</time></trkpt><trkpt lat="43.7894948" lon="11.2554426"><ele>55.66666666666667</ele><time>2026-04-25T09:05:50.312Z</time></trkpt><trkpt lat="43.7894838" lon="11.2555452"><ele>55.833333333333336</ele><time>2026-04-25T09:05:51.309Z</time></trkpt><trkpt lat="43.7894766" lon="11.2556335"><ele>56.0</ele><time>2026-04-25T09:05:52.302Z</time></trkpt><trkpt lat="43.7894697" lon="11.2557288"><ele>56.16666666666667</ele><time>2026-04-25T09:05:54.307Z</time></trkpt><trkpt lat="43.7894618" lon="11.2558171"><ele>56.333333333333336</ele><time>2026-04-25T09:05:57.305Z</time></trkpt><trkpt lat="43.7894543" lon="11.2559352"><ele>56.5</ele><time>2026-04-25T09:05:59.306Z</time></trkpt><trkpt lat="43.7894448" lon="11.2560662"><ele>56.66666666666667</ele><time>2026-04-25T09:06:01.326Z</time></trkpt><trkpt lat="43.7894159" lon="11.2561909"><ele>56.833333333333336</ele><time>2026-04-25T09:06:03.299Z</time></trkpt><trkpt lat="43.7893399" lon="11.2562972"><ele>57.0</ele><time>2026-04-25T09:06:05.311Z</time></trkpt><trkpt lat="43.7892672" lon="11.256424"><ele>56.6</ele><time>2026-04-25T09:06:07.312Z</time></trkpt><trkpt lat="43.7892172" lon="11.2564956"><ele>56.2</ele><time>2026-04-25T09:06:08.298Z</time></trkpt><trkpt lat="43.789135" lon="11.2566217"><ele>55.8</ele><time>2026-04-25T09:06:10.306Z</time></trkpt><trkpt lat="43.7890529" lon="11.256738"><ele>55.4</ele><time>2026-04-25T09:06:12.302Z</time></trkpt><trkpt lat="43.7889764" lon="11.2568469"><ele>55.0</ele><time>2026-04-25T09:06:14.296Z</time></trkpt><trkpt lat="43.7889064" lon="11.2569397"><ele>55.0</ele><time>2026-04-25T09:06:16.311Z</time></trkpt><trkpt lat="43.7888451" lon="11.2570366"><ele>55.0</ele><time>2026-04-25T09:06:18.311Z</time></trkpt><trkpt lat="43.7887742" lon="11.2571344"><ele>55.0</ele><time>2026-04-25T09:06:20.317Z</time></trkpt><trkpt lat="43.7887214" lon="11.257238"><ele>55.0</ele><time>2026-04-25T09:06:22.32Z</time></trkpt><trkpt lat="43.7887784" lon="11.2573764"><ele>55.0</ele><time>2026-04-25T09:06:24.298Z</time></trkpt><trkpt lat="43.7888345" lon="11.2574509"><ele>55.666666666666664</ele><time>2026-04-25T09:06:25.295Z</time></trkpt><trkpt lat="43.7888822" lon="11.2575191"><ele>56.33333333333333</ele><time>2026-04-25T09:06:26.328Z</time></trkpt><trkpt lat="43.7889274" lon="11.2575808"><ele>57.0</ele><time>2026-04-25T09:06:27.31Z</time></trkpt><trkpt lat="43.7890113" lon="11.2576959"><ele>57.66666666666667</ele><time>2026-04-25T09:06:29.305Z</time></trkpt><trkpt lat="43.7891019" lon="11.2578142"><ele>58.333333333333336</ele><time>2026-04-25T09:06:31.302Z</time></trkpt><trkpt lat="43.7891439" lon="11.2578797"><ele>59.0</ele><time>2026-04-25T09:06:32.321Z</time></trkpt><trkpt lat="43.7891898" lon="11.2579449"><ele>59.0</ele><time>2026-04-25T09:06:33.313Z</time></trkpt><trkpt lat="43.7892866" lon="11.2580734"><ele>59.00000000000001</ele><time>2026-04-25T09:06:35.305Z</time></trkpt><trkpt lat="43.7893364" lon="11.2581454"><ele>59.00000000000001</ele><time>2026-04-25T09:06:36.309Z</time></trkpt><trkpt lat="43.789387" lon="11.2582248"><ele>59.0</ele><time>2026-04-25T09:06:37.313Z</time></trkpt><trkpt lat="43.7894353" lon="11.2582922"><ele>59.0</ele><time>2026-04-25T09:06:38.306Z</time></trkpt><trkpt lat="43.7895178" lon="11.2584212"><ele>60.66666666666667</ele><time>2026-04-25T09:06:40.323Z</time></trkpt><trkpt lat="43.7895482" lon="11.258504"><ele>62.333333333333336</ele><time>2026-04-25T09:06:41.309Z</time></trkpt><trkpt lat="43.7895727" lon="11.2585907"><ele>64.0</ele><time>2026-04-25T09:06:42.299Z</time></trkpt><trkpt lat="43.7895718" lon="11.2587252"><ele>65.66666666666667</ele><time>2026-04-25T09:06:44.293Z</time></trkpt><trkpt lat="43.7895286" lon="11.2588814"><ele>67.33333333333333</ele><time>2026-04-25T09:06:46.304Z</time></trkpt><trkpt lat="43.7895058" lon="11.2589653"><ele>69.0</ele><time>2026-04-25T09:06:47.31Z</time></trkpt><trkpt lat="43.7894739" lon="11.2591217"><ele>70.0</ele><time>2026-04-25T09:06:49.316Z</time></trkpt><trkpt lat="43.7894477" lon="11.2592033"><ele>71.0</ele><time>2026-04-25T09:06:50.297Z</time></trkpt><trkpt lat="43.7894016" lon="11.2593523"><ele>72.0</ele><time>2026-04-25T09:06:52.309Z</time></trkpt><trkpt lat="43.7893947" lon="11.2595047"><ele>73.0</ele><time>2026-04-25T09:06:54.308Z</time></trkpt><trkpt lat="43.7894566" lon="11.2596123"><ele>74.0</ele><time>2026-04-25T09:06:56.302Z</time></trkpt><trkpt lat="43.7895345" lon="11.259663"><ele>74.0</ele><time>2026-04-25T09:06:58.291Z</time></trkpt><trkpt lat="43.7896086" lon="11.259714"><ele>74.0</ele><time>2026-04-25T09:07:01.3Z</time></trkpt><trkpt lat="43.7896727" lon="11.2597699"><ele>74.0</ele><time>2026-04-25T09:07:03.31Z</time></trkpt><trkpt lat="43.789755" lon="11.2598492"><ele>74.0</ele><time>2026-04-25T09:07:05.297Z</time></trkpt><trkpt lat="43.7898467" lon="11.2599237"><ele>74.0</ele><time>2026-04-25T09:07:07.31Z</time></trkpt><trkpt lat="43.7899471" lon="11.2600033"><ele>75.4</ele><time>2026-04-25T09:07:09.303Z</time></trkpt><trkpt lat="43.7900515" lon="11.2600929"><ele>76.80000000000001</ele><time>2026-04-25T09:07:11.308Z</time></trkpt><trkpt lat="43.7901577" lon="11.260176"><ele>78.19999999999999</ele><time>2026-04-25T09:07:13.318Z</time></trkpt><trkpt lat="43.7902142" lon="11.2602197"><ele>79.6</ele><time>2026-04-25T09:07:14.317Z</time></trkpt><trkpt lat="43.7902933" lon="11.2602886"><ele>81.0</ele><time>2026-04-25T09:07:15.313Z</time></trkpt><trkpt lat="43.7904033" lon="11.2603781"><ele>81.19999999999999</ele><time>2026-04-25T09:07:16.326Z</time></trkpt><trkpt lat="43.7904972" lon="11.2604619"><ele>81.39999999999999</ele><time>2026-04-25T09:07:17.316Z</time></trkpt><trkpt lat="43.7905737" lon="11.2605471"><ele>81.6</ele><time>2026-04-25T09:07:18.303Z</time></trkpt><trkpt lat="43.7906602" lon="11.260612"><ele>81.8</ele><time>2026-04-25T09:07:19.304Z</time></trkpt><trkpt lat="43.7907479" lon="11.2606671"><ele>82.0</ele><time>2026-04-25T09:07:20.305Z</time></trkpt><trkpt lat="43.7908278" lon="11.2606999"><ele>83.16666666666666</ele><time>2026-04-25T09:07:21.308Z</time></trkpt><trkpt lat="43.7909054" lon="11.260722"><ele>84.33333333333333</ele><time>2026-04-25T09:07:22.312Z</time></trkpt><trkpt lat="43.7909864" lon="11.2607051"><ele>85.5</ele><time>2026-04-25T09:07:23.311Z</time></trkpt><trkpt lat="43.7910689" lon="11.2606885"><ele>86.66666666666667</ele><time>2026-04-25T09:07:24.315Z</time></trkpt><trkpt lat="43.7911623" lon="11.2606602"><ele>87.83333333333334</ele><time>2026-04-25T09:07:25.313Z</time></trkpt><trkpt lat="43.7912488" lon="11.2606485"><ele>89.0</ele><time>2026-04-25T09:07:26.302Z</time></trkpt><trkpt lat="43.7913198" lon="11.2606325"><ele>88.80000000000001</ele><time>2026-04-25T09:07:27.31Z</time></trkpt><trkpt lat="43.791435" lon="11.2606083"><ele>88.60000000000001</ele><time>2026-04-25T09:07:29.309Z</time></trkpt><trkpt lat="43.7915749" lon="11.2605854"><ele>88.4</ele><time>2026-04-25T09:07:31.311Z</time></trkpt><trkpt lat="43.7916516" lon="11.2605801"><ele>88.2</ele><time>2026-04-25T09:07:32.319Z</time></trkpt><trkpt lat="43.7917326" lon="11.2605898"><ele>88.0</ele><time>2026-04-25T09:07:33.319Z</time></trkpt><trkpt lat="43.7917922" lon="11.2606423"><ele>89.5</ele><time>2026-04-25T09:07:34.311Z</time></trkpt><trkpt lat="43.7918516" lon="11.2607048"><ele>91.0</ele><time>2026-04-25T09:07:35.322Z</time></trkpt><trkpt lat="43.7918914" lon="11.2607827"><ele>92.5</ele><time>2026-04-25T09:07:36.315Z</time></trkpt><trkpt lat="43.7919271" lon="11.260864"><ele>94.0</ele><time>2026-04-25T09:07:37.303Z</time></trkpt><trkpt lat="43.7919805" lon="11.2610033"><ele>95.50000000000001</ele><time>2026-04-25T09:07:39.325Z</time></trkpt><trkpt lat="43.7920206" lon="11.2610996"><ele>97.0</ele><time>2026-04-25T09:07:41.325Z</time></trkpt><trkpt lat="43.7920596" lon="11.2611869"><ele>97.00000000000001</ele><time>2026-04-25T09:07:43.296Z</time></trkpt><trkpt lat="43.7920613" lon="11.2612773"><ele>97.0</ele><time>2026-04-25T09:07:45.303Z</time></trkpt><trkpt lat="43.7921256" lon="11.261322"><ele>97.0</ele><time>2026-04-25T09:07:47.313Z</time></trkpt><trkpt lat="43.7922501" lon="11.2613431"><ele>97.0</ele><time>2026-04-25T09:07:49.29Z</time></trkpt><trkpt lat="43.7923332" lon="11.2613501"><ele>97.00000000000001</ele><time>2026-04-25T09:07:50.295Z</time></trkpt><trkpt lat="43.792418" lon="11.2613575"><ele>97.0</ele><time>2026-04-25T09:07:51.327Z</time></trkpt><trkpt lat="43.7925177" lon="11.2613728"><ele>97.0</ele><time>2026-04-25T09:07:52.331Z</time></trkpt><trkpt lat="43.7926495" lon="11.2613819"><ele>97.0</ele><time>2026-04-25T09:07:53.316Z</time></trkpt><trkpt lat="43.7927938" lon="11.2613765"><ele>97.0</ele><time>2026-04-25T09:07:54.324Z</time></trkpt><trkpt lat="43.7929598" lon="11.261368"><ele>97.0</ele><time>2026-04-25T09:07:55.308Z</time></trkpt><trkpt lat="43.7931427" lon="11.2613594"><ele>98.33333333333334</ele><time>2026-04-25T09:07:56.315Z</time></trkpt><trkpt lat="43.7933176" lon="11.2613495"><ele>99.66666666666666</ele><time>2026-04-25T09:07:57.314Z</time></trkpt><trkpt lat="43.7934805" lon="11.2613564"><ele>101.0</ele><time>2026-04-25T09:07:58.321Z</time></trkpt><trkpt lat="43.7936296" lon="11.2613573"><ele>101.0</ele><time>2026-04-25T09:07:59.317Z</time></trkpt><trkpt lat="43.7937866" lon="11.261354"><ele>101.0</ele><time>2026-04-25T09:08:00.323Z</time></trkpt><trkpt lat="43.7939253" lon="11.2613456"><ele>101.0</ele><time>2026-04-25T09:08:01.323Z</time></trkpt><trkpt lat="43.7940554" lon="11.2613279"><ele>101.0</ele><time>2026-04-25T09:08:02.313Z</time></trkpt><trkpt lat="43.7941771" lon="11.2613252"><ele>101.0</ele><time>2026-04-25T09:08:03.308Z</time></trkpt><trkpt lat="43.7942921" lon="11.2613199"><ele>101.0</ele><time>2026-04-25T09:08:04.326Z</time></trkpt><trkpt lat="43.7943973" lon="11.2612933"><ele>101.0</ele><time>2026-04-25T09:08:05.323Z</time></trkpt><trkpt lat="43.7944887" lon="11.2612756"><ele>101.0</ele><time>2026-04-25T09:08:06.31Z</time></trkpt><trkpt lat="43.7945691" lon="11.2612569"><ele>101.0</ele><time>2026-04-25T09:08:07.303Z</time></trkpt><trkpt lat="43.7946444" lon="11.2612409"><ele>101.0</ele><time>2026-04-25T09:08:08.297Z</time></trkpt><trkpt lat="43.7947258" lon="11.2612244"><ele>101.0</ele><time>2026-04-25T09:08:09.31Z</time></trkpt><trkpt lat="43.7948247" lon="11.2611958"><ele>101.0</ele><time>2026-04-25T09:08:10.307Z</time></trkpt><trkpt lat="43.7949369" lon="11.2611551"><ele>101.0</ele><time>2026-04-25T09:08:11.318Z</time></trkpt><trkpt lat="43.7950531" lon="11.2611344"><ele>101.0</ele><time>2026-04-25T09:08:12.296Z</time></trkpt><trkpt lat="43.7951805" lon="11.2611588"><ele>100.75</ele><time>2026-04-25T09:08:13.305Z</time></trkpt><trkpt lat="43.795307" lon="11.2612198"><ele>100.5</ele><time>2026-04-25T09:08:14.309Z</time></trkpt><trkpt lat="43.7954227" lon="11.2613146"><ele>100.25</ele><time>2026-04-25T09:08:15.308Z</time></trkpt><trkpt lat="43.7955403" lon="11.2614404"><ele>100.0</ele><time>2026-04-25T09:08:16.298Z</time></trkpt><trkpt lat="43.795654" lon="11.2615659"><ele>101.5</ele><time>2026-04-25T09:08:17.291Z</time></trkpt><trkpt lat="43.7957711" lon="11.2616837"><ele>103.0</ele><time>2026-04-25T09:08:18.297Z</time></trkpt><trkpt lat="43.7958967" lon="11.2617733"><ele>104.5</ele><time>2026-04-25T09:08:19.312Z</time></trkpt><trkpt lat="43.7960354" lon="11.2618566"><ele>106.0</ele><time>2026-04-25T09:08:20.307Z</time></trkpt><trkpt lat="43.7961826" lon="11.2619253"><ele>106.75</ele><time>2026-04-25T09:08:21.314Z</time></trkpt><trkpt lat="43.7963285" lon="11.2619939"><ele>107.5</ele><time>2026-04-25T09:08:22.307Z</time></trkpt><trkpt lat="43.7964633" lon="11.2620559"><ele>108.25</ele><time>2026-04-25T09:08:23.327Z</time></trkpt><trkpt lat="43.7965957" lon="11.2621054"><ele>109.0</ele><time>2026-04-25T09:08:24.313Z</time></trkpt><trkpt lat="43.7967396" lon="11.2621557"><ele>110.25</ele><time>2026-04-25T09:08:25.304Z</time></trkpt><trkpt lat="43.7968886" lon="11.262188"><ele>111.5</ele><time>2026-04-25T09:08:26.308Z</time></trkpt><trkpt lat="43.7970383" lon="11.2622018"><ele>112.75</ele><time>2026-04-25T09:08:27.307Z</time></trkpt><trkpt lat="43.7971787" lon="11.2622201"><ele>114.0</ele><time>2026-04-25T09:08:28.317Z</time></trkpt><trkpt lat="43.7973054" lon="11.262216"><ele>114.0</ele><time>2026-04-25T09:08:29.329Z</time></trkpt><trkpt lat="43.7974201" lon="11.2622268"><ele>114.0</ele><time>2026-04-25T09:08:30.314Z</time></trkpt><trkpt lat="43.7975283" lon="11.262232"><ele>114.0</ele><time>2026-04-25T09:08:31.314Z</time></trkpt><trkpt lat="43.7976269" lon="11.2622435"><ele>114.0</ele><time>2026-04-25T09:08:32.322Z</time></trkpt><trkpt lat="43.7977164" lon="11.2622543"><ele>114.0</ele><time>2026-04-25T09:08:33.312Z</time></trkpt><trkpt lat="43.7978052" lon="11.2622635"><ele>114.0</ele><time>2026-04-25T09:08:34.3Z</time></trkpt><trkpt lat="43.7978927" lon="11.262276"><ele>114.0</ele><time>2026-04-25T09:08:35.317Z</time></trkpt><trkpt lat="43.7979776" lon="11.2622812"><ele>114.0</ele><time>2026-04-25T09:08:36.32Z</time></trkpt><trkpt lat="43.7980573" lon="11.2622951"><ele>114.0</ele><time>2026-04-25T09:08:37.311Z</time></trkpt><trkpt lat="43.7981261" lon="11.2623368"><ele>114.0</ele><time>2026-04-25T09:08:38.325Z</time></trkpt><trkpt lat="43.7981803" lon="11.2623964"><ele>114.0</ele><time>2026-04-25T09:08:39.318Z</time></trkpt><trkpt lat="43.7982285" lon="11.2624843"><ele>114.0</ele><time>2026-04-25T09:08:40.312Z</time></trkpt><trkpt lat="43.7982655" lon="11.2625579"><ele>114.0</ele><time>2026-04-25T09:08:41.324Z</time></trkpt><trkpt lat="43.7983003" lon="11.2627018"><ele>114.0</ele><time>2026-04-25T09:08:43.311Z</time></trkpt><trkpt lat="43.7983336" lon="11.2628168"><ele>114.0</ele><time>2026-04-25T09:08:45.303Z</time></trkpt><trkpt lat="43.7983586" lon="11.2629091"><ele>114.0</ele><time>2026-04-25T09:08:46.307Z</time></trkpt><trkpt lat="43.7983838" lon="11.263011"><ele>114.0</ele><time>2026-04-25T09:08:47.306Z</time></trkpt><trkpt lat="43.7984163" lon="11.2631222"><ele>114.4</ele><time>2026-04-25T09:08:48.299Z</time></trkpt><trkpt lat="43.7984568" lon="11.2632441"><ele>114.80000000000001</ele><time>2026-04-25T09:08:49.305Z</time></trkpt><trkpt lat="43.7984985" lon="11.2633494"><ele>115.19999999999999</ele><time>2026-04-25T09:08:50.307Z</time></trkpt><trkpt lat="43.7985623" lon="11.2634333"><ele>115.6</ele><time>2026-04-25T09:08:51.319Z</time></trkpt><trkpt lat="43.7986428" lon="11.2635229"><ele>116.0</ele><time>2026-04-25T09:08:52.323Z</time></trkpt><trkpt lat="43.7987295" lon="11.2636179"><ele>116.5</ele><time>2026-04-25T09:08:53.323Z</time></trkpt><trkpt lat="43.798817" lon="11.2637172"><ele>117.0</ele><time>2026-04-25T09:08:54.313Z</time></trkpt><trkpt lat="43.7988955" lon="11.2638172"><ele>117.5</ele><time>2026-04-25T09:08:55.31Z</time></trkpt><trkpt lat="43.7989828" lon="11.2639476"><ele>118.0</ele><time>2026-04-25T09:08:56.306Z</time></trkpt><trkpt lat="43.799092" lon="11.2640974"><ele>118.0</ele><time>2026-04-25T09:08:57.321Z</time></trkpt><trkpt lat="43.7992075" lon="11.2642529"><ele>118.0</ele><time>2026-04-25T09:08:58.314Z</time></trkpt><trkpt lat="43.7993192" lon="11.2644115"><ele>118.0</ele><time>2026-04-25T09:08:59.321Z</time></trkpt><trkpt lat="43.7994271" lon="11.2645888"><ele>118.33333333333334</ele><time>2026-04-25T09:09:00.297Z</time></trkpt><trkpt lat="43.7995354" lon="11.2647682"><ele>118.66666666666666</ele><time>2026-04-25T09:09:01.315Z</time></trkpt><trkpt lat="43.7996376" lon="11.2649635"><ele>119.0</ele><time>2026-04-25T09:09:02.31Z</time></trkpt><trkpt lat="43.7997385" lon="11.2651566"><ele>119.0</ele><time>2026-04-25T09:09:03.305Z</time></trkpt><trkpt lat="43.7998392" lon="11.2653483"><ele>119.0</ele><time>2026-04-25T09:09:04.324Z</time></trkpt><trkpt lat="43.7999368" lon="11.2655393"><ele>119.0</ele><time>2026-04-25T09:09:05.319Z</time></trkpt><trkpt lat="43.8000328" lon="11.2657364"><ele>119.66666666666666</ele><time>2026-04-25T09:09:06.308Z</time></trkpt><trkpt lat="43.8001328" lon="11.2659376"><ele>120.33333333333334</ele><time>2026-04-25T09:09:07.307Z</time></trkpt><trkpt lat="43.8002303" lon="11.2661316"><ele>121.0</ele><time>2026-04-25T09:09:08.309Z</time></trkpt><trkpt lat="43.8003219" lon="11.2663199"><ele>122.0</ele><time>2026-04-25T09:09:09.315Z</time></trkpt><trkpt lat="43.800407" lon="11.2664929"><ele>123.0</ele><time>2026-04-25T09:09:10.319Z</time></trkpt><trkpt lat="43.8004845" lon="11.2666546"><ele>124.0</ele><time>2026-04-25T09:09:11.311Z</time></trkpt><trkpt lat="43.8005802" lon="11.2667945"><ele>125.0</ele><time>2026-04-25T09:09:12.302Z</time></trkpt><trkpt lat="43.8006886" lon="11.2669175"><ele>125.0</ele><time>2026-04-25T09:09:13.315Z</time></trkpt><trkpt lat="43.8008248" lon="11.2670263"><ele>125.0</ele><time>2026-04-25T09:09:14.323Z</time></trkpt><trkpt lat="43.8009835" lon="11.2671246"><ele>125.0</ele><time>2026-04-25T09:09:15.32Z</time></trkpt><trkpt lat="43.80114" lon="11.2672336"><ele>126.0</ele><time>2026-04-25T09:09:16.293Z</time></trkpt><trkpt lat="43.8012931" lon="11.2673401"><ele>127.0</ele><time>2026-04-25T09:09:17.311Z</time></trkpt><trkpt lat="43.8014443" lon="11.2674538"><ele>128.0</ele><time>2026-04-25T09:09:18.31Z</time></trkpt><trkpt lat="43.8015931" lon="11.2675642"><ele>128.0</ele><time>2026-04-25T09:09:19.322Z</time></trkpt><trkpt lat="43.8017315" lon="11.2676619"><ele>128.0</ele><time>2026-04-25T09:09:20.313Z</time></trkpt><trkpt lat="43.801866" lon="11.2677593"><ele>128.0</ele><time>2026-04-25T09:09:21.329Z</time></trkpt><trkpt lat="43.8019996" lon="11.2678545"><ele>129.5</ele><time>2026-04-25T09:09:22.313Z</time></trkpt><trkpt lat="43.8021301" lon="11.2679492"><ele>131.0</ele><time>2026-04-25T09:09:23.324Z</time></trkpt><trkpt lat="43.8022634" lon="11.2680421"><ele>132.5</ele><time>2026-04-25T09:09:24.321Z</time></trkpt><trkpt lat="43.8023992" lon="11.2681257"><ele>134.0</ele><time>2026-04-25T09:09:25.319Z</time></trkpt><trkpt lat="43.8025361" lon="11.2682068"><ele>134.75</ele><time>2026-04-25T09:09:26.313Z</time></trkpt><trkpt lat="43.8026751" lon="11.2682802"><ele>135.5</ele><time>2026-04-25T09:09:27.308Z</time></trkpt><trkpt lat="43.8028099" lon="11.2683532"><ele>136.25</ele><time>2026-04-25T09:09:28.316Z</time></trkpt><trkpt lat="43.8029332" lon="11.2684316"><ele>137.0</ele><time>2026-04-25T09:09:29.293Z</time></trkpt><trkpt lat="43.8030571" lon="11.2685049"><ele>137.0</ele><time>2026-04-25T09:09:30.314Z</time></trkpt><trkpt lat="43.8031792" lon="11.2685914"><ele>137.0</ele><time>2026-04-25T09:09:31.313Z</time></trkpt><trkpt lat="43.8032919" lon="11.268695"><ele>137.0</ele><time>2026-04-25T09:09:32.322Z</time></trkpt><trkpt lat="43.8033939" lon="11.2688062"><ele>137.0</ele><time>2026-04-25T09:09:33.326Z</time></trkpt><trkpt lat="43.8034852" lon="11.268946"><ele>134.66666666666666</ele><time>2026-04-25T09:09:34.321Z</time></trkpt><trkpt lat="43.8035685" lon="11.2691117"><ele>132.33333333333334</ele><time>2026-04-25T09:09:35.299Z</time></trkpt><trkpt lat="43.8036385" lon="11.2692968"><ele>130.0</ele><time>2026-04-25T09:09:36.316Z</time></trkpt><trkpt lat="43.8037054" lon="11.2694914"><ele>130.0</ele><time>2026-04-25T09:09:37.322Z</time></trkpt><trkpt lat="43.8037637" lon="11.2696815"><ele>130.0</ele><time>2026-04-25T09:09:38.289Z</time></trkpt><trkpt lat="43.8038168" lon="11.2698671"><ele>130.0</ele><time>2026-04-25T09:09:39.279Z</time></trkpt><trkpt lat="43.8038631" lon="11.2700438"><ele>130.0</ele><time>2026-04-25T09:09:40.289Z</time></trkpt><trkpt lat="43.8039082" lon="11.2702212"><ele>131.6</ele><time>2026-04-25T09:09:41.288Z</time></trkpt><trkpt lat="43.8039493" lon="11.2703895"><ele>133.2</ele><time>2026-04-25T09:09:42.315Z</time></trkpt><trkpt lat="43.8039846" lon="11.2705433"><ele>134.8</ele><time>2026-04-25T09:09:43.301Z</time></trkpt><trkpt lat="43.8040136" lon="11.2706836"><ele>136.4</ele><time>2026-04-25T09:09:44.3Z</time></trkpt><trkpt lat="43.8040438" lon="11.2708105"><ele>138.0</ele><time>2026-04-25T09:09:45.287Z</time></trkpt><trkpt lat="43.8040787" lon="11.2709348"><ele>138.5</ele><time>2026-04-25T09:09:46.28Z</time></trkpt><trkpt lat="43.8041304" lon="11.2710412"><ele>139.0</ele><time>2026-04-25T09:09:47.292Z</time></trkpt><trkpt lat="43.8042049" lon="11.2711264"><ele>139.5</ele><time>2026-04-25T09:09:48.292Z</time></trkpt><trkpt lat="43.8042763" lon="11.2711777"><ele>140.0</ele><time>2026-04-25T09:09:49.321Z</time></trkpt><trkpt lat="43.8043622" lon="11.2712339"><ele>140.5</ele><time>2026-04-25T09:09:51.28Z</time></trkpt><trkpt lat="43.8044335" lon="11.2712828"><ele>141.0</ele><time>2026-04-25T09:09:55.324Z</time></trkpt><trkpt lat="43.8045175" lon="11.2713538"><ele>141.0</ele><time>2026-04-25T09:09:57.313Z</time></trkpt><trkpt lat="43.8045683" lon="11.2714064"><ele>141.0</ele><time>2026-04-25T09:09:58.313Z</time></trkpt><trkpt lat="43.8046712" lon="11.2715134"><ele>141.0</ele><time>2026-04-25T09:10:00.312Z</time></trkpt><trkpt lat="43.804725" lon="11.2715733"><ele>141.0</ele><time>2026-04-25T09:10:01.295Z</time></trkpt><trkpt lat="43.8047841" lon="11.2716318"><ele>141.0</ele><time>2026-04-25T09:10:02.318Z</time></trkpt><trkpt lat="43.8048464" lon="11.2716909"><ele>141.0</ele><time>2026-04-25T09:10:03.309Z</time></trkpt><trkpt lat="43.8049218" lon="11.2717677"><ele>140.5</ele><time>2026-04-25T09:10:04.337Z</time></trkpt><trkpt lat="43.8050109" lon="11.2718441"><ele>140.0</ele><time>2026-04-25T09:10:05.288Z</time></trkpt><trkpt lat="43.8050885" lon="11.2719568"><ele>139.5</ele><time>2026-04-25T09:10:06.332Z</time></trkpt><trkpt lat="43.8051766" lon="11.27208"><ele>139.0</ele><time>2026-04-25T09:10:07.307Z</time></trkpt><trkpt lat="43.8052556" lon="11.2722112"><ele>140.75</ele><time>2026-04-25T09:10:08.314Z</time></trkpt><trkpt lat="43.8053389" lon="11.272349"><ele>142.5</ele><time>2026-04-25T09:10:09.322Z</time></trkpt><trkpt lat="43.805429" lon="11.2725016"><ele>144.25</ele><time>2026-04-25T09:10:10.311Z</time></trkpt><trkpt lat="43.8055293" lon="11.2726591"><ele>146.0</ele><time>2026-04-25T09:10:11.317Z</time></trkpt><trkpt lat="43.8056234" lon="11.2728233"><ele>146.0</ele><time>2026-04-25T09:10:12.301Z</time></trkpt><trkpt lat="43.8057047" lon="11.2729932"><ele>146.0</ele><time>2026-04-25T09:10:13.302Z</time></trkpt><trkpt lat="43.8057839" lon="11.2731594"><ele>146.0</ele><time>2026-04-25T09:10:14.296Z</time></trkpt><trkpt lat="43.8058583" lon="11.2733164"><ele>146.0</ele><time>2026-04-25T09:10:15.312Z</time></trkpt><trkpt lat="43.8059277" lon="11.273462"><ele>145.75</ele><time>2026-04-25T09:10:16.317Z</time></trkpt><trkpt lat="43.8059896" lon="11.2736014"><ele>145.5</ele><time>2026-04-25T09:10:17.311Z</time></trkpt><trkpt lat="43.8060559" lon="11.2737419"><ele>145.25</ele><time>2026-04-25T09:10:18.305Z</time></trkpt><trkpt lat="43.8061235" lon="11.273876"><ele>145.0</ele><time>2026-04-25T09:10:19.322Z</time></trkpt><trkpt lat="43.8061888" lon="11.2740118"><ele>145.5</ele><time>2026-04-25T09:10:20.295Z</time></trkpt><trkpt lat="43.8062511" lon="11.2741479"><ele>146.0</ele><time>2026-04-25T09:10:21.309Z</time></trkpt><trkpt lat="43.8063133" lon="11.2742809"><ele>146.5</ele><time>2026-04-25T09:10:22.304Z</time></trkpt><trkpt lat="43.8063764" lon="11.2744105"><ele>147.0</ele><time>2026-04-25T09:10:23.317Z</time></trkpt><trkpt lat="43.8064375" lon="11.274551"><ele>147.0</ele><time>2026-04-25T09:10:24.315Z</time></trkpt><trkpt lat="43.8064966" lon="11.2746865"><ele>147.0</ele><time>2026-04-25T09:10:25.325Z</time></trkpt><trkpt lat="43.8065674" lon="11.2748251"><ele>147.0</ele><time>2026-04-25T09:10:26.313Z</time></trkpt><trkpt lat="43.80663" lon="11.2749644"><ele>147.0</ele><time>2026-04-25T09:10:27.317Z</time></trkpt><trkpt lat="43.8066962" lon="11.2750969"><ele>147.5</ele><time>2026-04-25T09:10:28.316Z</time></trkpt><trkpt lat="43.8067592" lon="11.27523"><ele>148.0</ele><time>2026-04-25T09:10:29.303Z</time></trkpt><trkpt lat="43.8068216" lon="11.2753635"><ele>148.5</ele><time>2026-04-25T09:10:30.308Z</time></trkpt><trkpt lat="43.8068878" lon="11.275491"><ele>149.0</ele><time>2026-04-25T09:10:31.3Z</time></trkpt><trkpt lat="43.8069561" lon="11.275607"><ele>149.4</ele><time>2026-04-25T09:10:32.329Z</time></trkpt><trkpt lat="43.8070156" lon="11.2757134"><ele>149.8</ele><time>2026-04-25T09:10:33.287Z</time></trkpt><trkpt lat="43.8070804" lon="11.2758078"><ele>150.2</ele><time>2026-04-25T09:10:34.292Z</time></trkpt><trkpt lat="43.8071686" lon="11.2759068"><ele>150.6</ele><time>2026-04-25T09:10:35.305Z</time></trkpt><trkpt lat="43.8072759" lon="11.2760112"><ele>151.0</ele><time>2026-04-25T09:10:36.312Z</time></trkpt><trkpt lat="43.8073881" lon="11.2761187"><ele>151.0</ele><time>2026-04-25T09:10:37.307Z</time></trkpt><trkpt lat="43.8075091" lon="11.2762414"><ele>151.0</ele><time>2026-04-25T09:10:38.316Z</time></trkpt><trkpt lat="43.8076335" lon="11.2763607"><ele>151.0</ele><time>2026-04-25T09:10:39.328Z</time></trkpt><trkpt lat="43.8077531" lon="11.276488"><ele>155.66666666666669</ele><time>2026-04-25T09:10:40.31Z</time></trkpt><trkpt lat="43.8078667" lon="11.2766319"><ele>160.33333333333334</ele><time>2026-04-25T09:10:41.319Z</time></trkpt><trkpt lat="43.8079686" lon="11.2767798"><ele>165.0</ele><time>2026-04-25T09:10:42.321Z</time></trkpt><trkpt lat="43.8080578" lon="11.2769738"><ele>165.0</ele><time>2026-04-25T09:10:43.318Z</time></trkpt><trkpt lat="43.8081365" lon="11.2771989"><ele>165.0</ele><time>2026-04-25T09:10:44.289Z</time></trkpt><trkpt lat="43.8081752" lon="11.2774397"><ele>165.0</ele><time>2026-04-25T09:10:45.318Z</time></trkpt><trkpt lat="43.8082058" lon="11.2776641"><ele>164.66666666666666</ele><time>2026-04-25T09:10:46.315Z</time></trkpt><trkpt lat="43.8082355" lon="11.2778751"><ele>164.33333333333331</ele><time>2026-04-25T09:10:47.319Z</time></trkpt><trkpt lat="43.8082898" lon="11.2780759"><ele>164.0</ele><time>2026-04-25T09:10:48.307Z</time></trkpt><trkpt lat="43.8083595" lon="11.2782581"><ele>163.5</ele><time>2026-04-25T09:10:49.321Z</time></trkpt><trkpt lat="43.8084384" lon="11.2784237"><ele>163.0</ele><time>2026-04-25T09:10:50.324Z</time></trkpt><trkpt lat="43.8085221" lon="11.2785712"><ele>162.5</ele><time>2026-04-25T09:10:51.313Z</time></trkpt><trkpt lat="43.808605" lon="11.2787193"><ele>162.0</ele><time>2026-04-25T09:10:52.318Z</time></trkpt><trkpt lat="43.8086876" lon="11.2788795"><ele>166.25</ele><time>2026-04-25T09:10:53.312Z</time></trkpt><trkpt lat="43.8087755" lon="11.2790326"><ele>170.5</ele><time>2026-04-25T09:10:54.327Z</time></trkpt><trkpt lat="43.8088613" lon="11.2791715"><ele>174.75</ele><time>2026-04-25T09:10:55.31Z</time></trkpt><trkpt lat="43.8089576" lon="11.2792956"><ele>179.0</ele><time>2026-04-25T09:10:56.33Z</time></trkpt><trkpt lat="43.8090677" lon="11.2793968"><ele>179.0</ele><time>2026-04-25T09:10:57.31Z</time></trkpt><trkpt lat="43.8091929" lon="11.2794677"><ele>179.0</ele><time>2026-04-25T09:10:58.305Z</time></trkpt><trkpt lat="43.8093085" lon="11.2795392"><ele>179.0</ele><time>2026-04-25T09:10:59.318Z</time></trkpt><trkpt lat="43.8094126" lon="11.2796351"><ele>179.0</ele><time>2026-04-25T09:11:00.313Z</time></trkpt><trkpt lat="43.809482" lon="11.2797863"><ele>184.5</ele><time>2026-04-25T09:11:01.309Z</time></trkpt><trkpt lat="43.8095221" lon="11.2799455"><ele>190.0</ele><time>2026-04-25T09:11:02.298Z</time></trkpt><trkpt lat="43.8095419" lon="11.2800997"><ele>195.5</ele><time>2026-04-25T09:11:03.311Z</time></trkpt><trkpt lat="43.8095445" lon="11.2802571"><ele>201.0</ele><time>2026-04-25T09:11:04.318Z</time></trkpt><trkpt lat="43.809564" lon="11.2804061"><ele>201.0</ele><time>2026-04-25T09:11:05.305Z</time></trkpt><trkpt lat="43.8096028" lon="11.2805423"><ele>201.0</ele><time>2026-04-25T09:11:06.307Z</time></trkpt><trkpt lat="43.8096656" lon="11.2806782"><ele>201.0</ele><time>2026-04-25T09:11:07.312Z</time></trkpt><trkpt lat="43.8097506" lon="11.2808011"><ele>201.0</ele><time>2026-04-25T09:11:08.294Z</time></trkpt><trkpt lat="43.8098508" lon="11.2809371"><ele>199.25</ele><time>2026-04-25T09:11:09.304Z</time></trkpt><trkpt lat="43.8099524" lon="11.2810653"><ele>197.5</ele><time>2026-04-25T09:11:10.295Z</time></trkpt><trkpt lat="43.8100471" lon="11.2812036"><ele>195.75</ele><time>2026-04-25T09:11:11.306Z</time></trkpt><trkpt lat="43.8101348" lon="11.2813319"><ele>194.0</ele><time>2026-04-25T09:11:12.314Z</time></trkpt><trkpt lat="43.8102242" lon="11.2814503"><ele>194.0</ele><time>2026-04-25T09:11:13.305Z</time></trkpt><trkpt lat="43.8103139" lon="11.2815676"><ele>194.0</ele><time>2026-04-25T09:11:14.311Z</time></trkpt><trkpt lat="43.8104066" lon="11.2816854"><ele>194.0</ele><time>2026-04-25T09:11:15.316Z</time></trkpt><trkpt lat="43.8105004" lon="11.2817938"><ele>194.0</ele><time>2026-04-25T09:11:16.304Z</time></trkpt><trkpt lat="43.8106133" lon="11.2818931"><ele>194.0</ele><time>2026-04-25T09:11:17.313Z</time></trkpt><trkpt lat="43.8107447" lon="11.2819838"><ele>194.0</ele><time>2026-04-25T09:11:18.32Z</time></trkpt><trkpt lat="43.810892" lon="11.2820807"><ele>194.0</ele><time>2026-04-25T09:11:19.319Z</time></trkpt><trkpt lat="43.811054" lon="11.2821757"><ele>195.5</ele><time>2026-04-25T09:11:20.294Z</time></trkpt><trkpt lat="43.8112173" lon="11.2822697"><ele>197.0</ele><time>2026-04-25T09:11:21.309Z</time></trkpt><trkpt lat="43.8115483" lon="11.2824641"><ele>197.0</ele><time>2026-04-25T09:11:23.287Z</time></trkpt><trkpt lat="43.8117064" lon="11.2825592"><ele>197.0</ele><time>2026-04-25T09:11:24.31Z</time></trkpt><trkpt lat="43.8118497" lon="11.2826377"><ele>197.0</ele><time>2026-04-25T09:11:25.303Z</time></trkpt><trkpt lat="43.8119829" lon="11.2827121"><ele>206.0</ele><time>2026-04-25T09:11:26.311Z</time></trkpt><trkpt lat="43.812114" lon="11.2827845"><ele>215.0</ele><time>2026-04-25T09:11:27.323Z</time></trkpt><trkpt lat="43.8122488" lon="11.2828947"><ele>224.0</ele><time>2026-04-25T09:11:28.317Z</time></trkpt><trkpt lat="43.8123675" lon="11.2830282"><ele>226.25</ele><time>2026-04-25T09:11:29.303Z</time></trkpt><trkpt lat="43.8124748" lon="11.2831769"><ele>228.5</ele><time>2026-04-25T09:11:30.307Z</time></trkpt><trkpt lat="43.8125781" lon="11.2833166"><ele>230.75</ele><time>2026-04-25T09:11:31.311Z</time></trkpt><trkpt lat="43.8126734" lon="11.2834519"><ele>233.0</ele><time>2026-04-25T09:11:32.319Z</time></trkpt><trkpt lat="43.812775" lon="11.2835853"><ele>233.0</ele><time>2026-04-25T09:11:33.324Z</time></trkpt><trkpt lat="43.8128873" lon="11.2836936"><ele>233.0</ele><time>2026-04-25T09:11:34.289Z</time></trkpt><trkpt lat="43.8130029" lon="11.2837895"><ele>233.0</ele><time>2026-04-25T09:11:35.299Z</time></trkpt><trkpt lat="43.8131202" lon="11.2838944"><ele>233.0</ele><time>2026-04-25T09:11:36.321Z</time></trkpt><trkpt lat="43.8132336" lon="11.2840166"><ele>237.33333333333334</ele><time>2026-04-25T09:11:37.311Z</time></trkpt><trkpt lat="43.813345" lon="11.2841643"><ele>241.66666666666669</ele><time>2026-04-25T09:11:38.312Z</time></trkpt><trkpt lat="43.813454" lon="11.2843171"><ele>246.0</ele><time>2026-04-25T09:11:39.295Z</time></trkpt><trkpt lat="43.8135602" lon="11.2844528"><ele>246.0</ele><time>2026-04-25T09:11:40.314Z</time></trkpt><trkpt lat="43.8136795" lon="11.2845867"><ele>246.0</ele><time>2026-04-25T09:11:41.312Z</time></trkpt><trkpt lat="43.813794" lon="11.284699"><ele>246.0</ele><time>2026-04-25T09:11:42.319Z</time></trkpt><trkpt lat="43.813911" lon="11.2847949"><ele>246.0</ele><time>2026-04-25T09:11:43.309Z</time></trkpt><trkpt lat="43.8140203" lon="11.2849095"><ele>238.5</ele><time>2026-04-25T09:11:44.303Z</time></trkpt><trkpt lat="43.8141214" lon="11.2850607"><ele>231.0</ele><time>2026-04-25T09:11:45.312Z</time></trkpt><trkpt lat="43.8141964" lon="11.2852301"><ele>223.5</ele><time>2026-04-25T09:11:46.304Z</time></trkpt><trkpt lat="43.8142451" lon="11.2853834"><ele>216.0</ele><time>2026-04-25T09:11:47.295Z</time></trkpt><trkpt lat="43.8143046" lon="11.2855321"><ele>217.5</ele><time>2026-04-25T09:11:48.311Z</time></trkpt><trkpt lat="43.8143737" lon="11.2856875"><ele>219.0</ele><time>2026-04-25T09:11:49.324Z</time></trkpt><trkpt lat="43.8144601" lon="11.2858212"><ele>220.5</ele><time>2026-04-25T09:11:50.312Z</time></trkpt><trkpt lat="43.8145566" lon="11.2859501"><ele>222.0</ele><time>2026-04-25T09:11:51.307Z</time></trkpt><trkpt lat="43.814649" lon="11.2860765"><ele>222.0</ele><time>2026-04-25T09:11:52.309Z</time></trkpt><trkpt lat="43.8147451" lon="11.2861838"><ele>222.0</ele><time>2026-04-25T09:11:53.303Z</time></trkpt><trkpt lat="43.8148525" lon="11.2862682"><ele>222.0</ele><time>2026-04-25T09:11:54.307Z</time></trkpt><trkpt lat="43.8149765" lon="11.2863036"><ele>222.0</ele><time>2026-04-25T09:11:55.329Z</time></trkpt><trkpt lat="43.8151026" lon="11.286283"><ele>221.0</ele><time>2026-04-25T09:11:56.312Z</time></trkpt><trkpt lat="43.8152265" lon="11.2861953"><ele>220.0</ele><time>2026-04-25T09:11:57.306Z</time></trkpt><trkpt lat="43.8153194" lon="11.2860821"><ele>219.0</ele><time>2026-04-25T09:11:58.305Z</time></trkpt><trkpt lat="43.8154023" lon="11.2859301"><ele>218.0</ele><time>2026-04-25T09:11:59.301Z</time></trkpt><trkpt lat="43.8154597" lon="11.285745"><ele>219.33333333333334</ele><time>2026-04-25T09:12:00.324Z</time></trkpt><trkpt lat="43.8155184" lon="11.2855513"><ele>220.66666666666669</ele><time>2026-04-25T09:12:01.319Z</time></trkpt><trkpt lat="43.8155608" lon="11.2853517"><ele>222.0</ele><time>2026-04-25T09:12:02.326Z</time></trkpt><trkpt lat="43.8155862" lon="11.2851257"><ele>222.0</ele><time>2026-04-25T09:12:03.323Z</time></trkpt><trkpt lat="43.8155835" lon="11.2849191"><ele>222.0</ele><time>2026-04-25T09:12:04.32Z</time></trkpt><trkpt lat="43.8155719" lon="11.2847142"><ele>222.0</ele><time>2026-04-25T09:12:05.325Z</time></trkpt><trkpt lat="43.8155437" lon="11.2844853"><ele>222.0</ele><time>2026-04-25T09:12:06.327Z</time></trkpt><trkpt lat="43.815497" lon="11.2842386"><ele>222.0</ele><time>2026-04-25T09:12:07.308Z</time></trkpt><trkpt lat="43.8154574" lon="11.2839403"><ele>222.0</ele><time>2026-04-25T09:12:08.319Z</time></trkpt><trkpt lat="43.8154199" lon="11.2836395"><ele>222.0</ele><time>2026-04-25T09:12:09.311Z</time></trkpt><trkpt lat="43.8153877" lon="11.2833438"><ele>222.0</ele><time>2026-04-25T09:12:10.312Z</time></trkpt><trkpt lat="43.8153525" lon="11.2830446"><ele>222.0</ele><time>2026-04-25T09:12:11.311Z</time></trkpt><trkpt lat="43.8153228" lon="11.2827566"><ele>224.33333333333331</ele><time>2026-04-25T09:12:12.325Z</time></trkpt><trkpt lat="43.8152912" lon="11.2824927"><ele>226.66666666666666</ele><time>2026-04-25T09:12:13.312Z</time></trkpt><trkpt lat="43.8152639" lon="11.282248"><ele>229.0</ele><time>2026-04-25T09:12:14.314Z</time></trkpt><trkpt lat="43.8152352" lon="11.2820275"><ele>231.5</ele><time>2026-04-25T09:12:15.319Z</time></trkpt><trkpt lat="43.815214" lon="11.2818215"><ele>234.0</ele><time>2026-04-25T09:12:16.319Z</time></trkpt><trkpt lat="43.8151923" lon="11.2816396"><ele>236.5</ele><time>2026-04-25T09:12:17.315Z</time></trkpt><trkpt lat="43.8151769" lon="11.2814699"><ele>239.0</ele><time>2026-04-25T09:12:18.298Z</time></trkpt><trkpt lat="43.8151611" lon="11.2813242"><ele>239.39999999999998</ele><time>2026-04-25T09:12:19.31Z</time></trkpt><trkpt lat="43.8151463" lon="11.2811808"><ele>239.79999999999998</ele><time>2026-04-25T09:12:20.301Z</time></trkpt><trkpt lat="43.8151407" lon="11.2810306"><ele>240.20000000000002</ele><time>2026-04-25T09:12:21.325Z</time></trkpt><trkpt lat="43.8151428" lon="11.2808757"><ele>240.60000000000002</ele><time>2026-04-25T09:12:22.31Z</time></trkpt><trkpt lat="43.8151512" lon="11.2807204"><ele>241.0</ele><time>2026-04-25T09:12:23.299Z</time></trkpt><trkpt lat="43.81517" lon="11.2805713"><ele>241.0</ele><time>2026-04-25T09:12:24.314Z</time></trkpt><trkpt lat="43.8151999" lon="11.280423"><ele>241.00000000000003</ele><time>2026-04-25T09:12:25.322Z</time></trkpt><trkpt lat="43.8152518" lon="11.2802903"><ele>241.00000000000003</ele><time>2026-04-25T09:12:26.319Z</time></trkpt><trkpt lat="43.8153113" lon="11.2801789"><ele>241.0</ele><time>2026-04-25T09:12:27.317Z</time></trkpt><trkpt lat="43.8153794" lon="11.2800884"><ele>241.0</ele><time>2026-04-25T09:12:28.295Z</time></trkpt><trkpt lat="43.8154584" lon="11.2800112"><ele>241.0</ele><time>2026-04-25T09:12:29.298Z</time></trkpt><trkpt lat="43.8155387" lon="11.2799463"><ele>241.00000000000003</ele><time>2026-04-25T09:12:30.327Z</time></trkpt><trkpt lat="43.8156324" lon="11.2798914"><ele>241.00000000000003</ele><time>2026-04-25T09:12:31.325Z</time></trkpt><trkpt lat="43.8157384" lon="11.2798801"><ele>241.0</ele><time>2026-04-25T09:12:32.33Z</time></trkpt><trkpt lat="43.8158536" lon="11.2799081"><ele>241.0</ele><time>2026-04-25T09:12:33.321Z</time></trkpt><trkpt lat="43.8159712" lon="11.279965"><ele>242.75</ele><time>2026-04-25T09:12:34.31Z</time></trkpt><trkpt lat="43.8160847" lon="11.2800263"><ele>244.5</ele><time>2026-04-25T09:12:35.311Z</time></trkpt><trkpt lat="43.8162121" lon="11.2800808"><ele>246.25</ele><time>2026-04-25T09:12:36.321Z</time></trkpt><trkpt lat="43.8163517" lon="11.2801359"><ele>248.0</ele><time>2026-04-25T09:12:37.299Z</time></trkpt><trkpt lat="43.8164889" lon="11.2802018"><ele>248.0</ele><time>2026-04-25T09:12:38.331Z</time></trkpt><trkpt lat="43.816617" lon="11.280272"><ele>248.0</ele><time>2026-04-25T09:12:39.315Z</time></trkpt><trkpt lat="43.8167386" lon="11.2803366"><ele>248.0</ele><time>2026-04-25T09:12:40.296Z</time></trkpt><trkpt lat="43.816855" lon="11.2803981"><ele>248.0</ele><time>2026-04-25T09:12:41.324Z</time></trkpt><trkpt lat="43.8169805" lon="11.2804608"><ele>249.5</ele><time>2026-04-25T09:12:42.312Z</time></trkpt><trkpt lat="43.8171054" lon="11.2805285"><ele>251.0</ele><time>2026-04-25T09:12:43.314Z</time></trkpt><trkpt lat="43.8172257" lon="11.2805913"><ele>252.5</ele><time>2026-04-25T09:12:44.307Z</time></trkpt><trkpt lat="43.8173388" lon="11.2806497"><ele>254.0</ele><time>2026-04-25T09:12:45.312Z</time></trkpt><trkpt lat="43.8174575" lon="11.2807171"><ele>254.0</ele><time>2026-04-25T09:12:46.321Z</time></trkpt><trkpt lat="43.8175811" lon="11.2807907"><ele>254.0</ele><time>2026-04-25T09:12:47.326Z</time></trkpt><trkpt lat="43.8177159" lon="11.2808824"><ele>254.0</ele><time>2026-04-25T09:12:48.327Z</time></trkpt><trkpt lat="43.8178515" lon="11.2809892"><ele>254.0</ele><time>2026-04-25T09:12:49.317Z</time></trkpt><trkpt lat="43.8179829" lon="11.2810994"><ele>257.33333333333337</ele><time>2026-04-25T09:12:50.313Z</time></trkpt><trkpt lat="43.8181147" lon="11.2812098"><ele>260.6666666666667</ele><time>2026-04-25T09:12:51.319Z</time></trkpt><trkpt lat="43.8182471" lon="11.2813207"><ele>264.0</ele><time>2026-04-25T09:12:52.328Z</time></trkpt><trkpt lat="43.8183775" lon="11.2814272"><ele>263.25</ele><time>2026-04-25T09:12:53.312Z</time></trkpt><trkpt lat="43.8185026" lon="11.2815283"><ele>262.5</ele><time>2026-04-25T09:12:54.317Z</time></trkpt><trkpt lat="43.8186238" lon="11.2816227"><ele>261.75</ele><time>2026-04-25T09:12:55.346Z</time></trkpt><trkpt lat="43.8187356" lon="11.2817193"><ele>261.0</ele><time>2026-04-25T09:12:56.317Z</time></trkpt><trkpt lat="43.8188523" lon="11.281822"><ele>261.0</ele><time>2026-04-25T09:12:57.312Z</time></trkpt><trkpt lat="43.8189763" lon="11.2819216"><ele>261.0</ele><time>2026-04-25T09:12:58.331Z</time></trkpt><trkpt lat="43.8191032" lon="11.282028"><ele>261.0</ele><time>2026-04-25T09:12:59.322Z</time></trkpt><trkpt lat="43.8192273" lon="11.2821318"><ele>261.0</ele><time>2026-04-25T09:13:00.323Z</time></trkpt><trkpt lat="43.8193475" lon="11.2822452"><ele>261.5</ele><time>2026-04-25T09:13:01.309Z</time></trkpt><trkpt lat="43.8194672" lon="11.2823616"><ele>262.0</ele><time>2026-04-25T09:13:02.307Z</time></trkpt><trkpt lat="43.8195826" lon="11.2824603"><ele>262.5</ele><time>2026-04-25T09:13:03.31Z</time></trkpt><trkpt lat="43.8196978" lon="11.2825582"><ele>263.0</ele><time>2026-04-25T09:13:04.322Z</time></trkpt><trkpt lat="43.8198117" lon="11.2826437"><ele>263.0</ele><time>2026-04-25T09:13:05.308Z</time></trkpt><trkpt lat="43.8199279" lon="11.282718"><ele>263.0</ele><time>2026-04-25T09:13:06.322Z</time></trkpt><trkpt lat="43.820046" lon="11.2827924"><ele>263.0</ele><time>2026-04-25T09:13:07.315Z</time></trkpt><trkpt lat="43.8201649" lon="11.2828687"><ele>263.0</ele><time>2026-04-25T09:13:08.323Z</time></trkpt><trkpt lat="43.820288" lon="11.2829433"><ele>263.25</ele><time>2026-04-25T09:13:09.319Z</time></trkpt><trkpt lat="43.8204137" lon="11.2830242"><ele>263.5</ele><time>2026-04-25T09:13:10.32Z</time></trkpt><trkpt lat="43.8205446" lon="11.2831092"><ele>263.75</ele><time>2026-04-25T09:13:11.316Z</time></trkpt><trkpt lat="43.820668" lon="11.2831953"><ele>264.0</ele><time>2026-04-25T09:13:12.329Z</time></trkpt><trkpt lat="43.8207912" lon="11.2832745"><ele>264.0</ele><time>2026-04-25T09:13:13.316Z</time></trkpt><trkpt lat="43.8209121" lon="11.2833549"><ele>264.0</ele><time>2026-04-25T09:13:14.311Z</time></trkpt><trkpt lat="43.8210315" lon="11.2834253"><ele>264.0</ele><time>2026-04-25T09:13:15.321Z</time></trkpt><trkpt lat="43.8211456" lon="11.2834983"><ele>264.0</ele><time>2026-04-25T09:13:16.31Z</time></trkpt><trkpt lat="43.8212656" lon="11.2835568"><ele>263.25</ele><time>2026-04-25T09:13:17.316Z</time></trkpt><trkpt lat="43.8213953" lon="11.2835816"><ele>262.5</ele><time>2026-04-25T09:13:18.319Z</time></trkpt><trkpt lat="43.8215272" lon="11.2835835"><ele>261.75</ele><time>2026-04-25T09:13:19.315Z</time></trkpt><trkpt lat="43.8216567" lon="11.2835852"><ele>261.0</ele><time>2026-04-25T09:13:20.308Z</time></trkpt><trkpt lat="43.8217801" lon="11.2835878"><ele>261.25</ele><time>2026-04-25T09:13:21.319Z</time></trkpt><trkpt lat="43.8218977" lon="11.2835924"><ele>261.5</ele><time>2026-04-25T09:13:22.312Z</time></trkpt><trkpt lat="43.8220102" lon="11.2835913"><ele>261.75</ele><time>2026-04-25T09:13:23.33Z</time></trkpt><trkpt lat="43.8221231" lon="11.2835922"><ele>262.0</ele><time>2026-04-25T09:13:24.295Z</time></trkpt><trkpt lat="43.8222401" lon="11.2836059"><ele>262.0</ele><time>2026-04-25T09:13:25.301Z</time></trkpt><trkpt lat="43.8223709" lon="11.2836599"><ele>262.0</ele><time>2026-04-25T09:13:26.303Z</time></trkpt><trkpt lat="43.8224934" lon="11.2837191"><ele>262.0</ele><time>2026-04-25T09:13:27.316Z</time></trkpt><trkpt lat="43.8226072" lon="11.2837771"><ele>262.0</ele><time>2026-04-25T09:13:28.317Z</time></trkpt><trkpt lat="43.8227161" lon="11.2838438"><ele>261.5</ele><time>2026-04-25T09:13:29.317Z</time></trkpt><trkpt lat="43.8228257" lon="11.2839084"><ele>261.0</ele><time>2026-04-25T09:13:30.319Z</time></trkpt><trkpt lat="43.8229301" lon="11.2839796"><ele>260.5</ele><time>2026-04-25T09:13:31.326Z</time></trkpt><trkpt lat="43.8230285" lon="11.2840528"><ele>260.0</ele><time>2026-04-25T09:13:32.326Z</time></trkpt><trkpt lat="43.8231234" lon="11.2841277"><ele>261.25</ele><time>2026-04-25T09:13:33.316Z</time></trkpt><trkpt lat="43.8232217" lon="11.284212"><ele>262.5</ele><time>2026-04-25T09:13:34.321Z</time></trkpt><trkpt lat="43.8233174" lon="11.2843075"><ele>263.75</ele><time>2026-04-25T09:13:35.314Z</time></trkpt><trkpt lat="43.823414" lon="11.2844006"><ele>265.0</ele><time>2026-04-25T09:13:36.321Z</time></trkpt><trkpt lat="43.8235121" lon="11.2844956"><ele>265.0</ele><time>2026-04-25T09:13:37.312Z</time></trkpt><trkpt lat="43.8236125" lon="11.2845892"><ele>265.0</ele><time>2026-04-25T09:13:38.287Z</time></trkpt><trkpt lat="43.8237112" lon="11.2846805"><ele>265.0</ele><time>2026-04-25T09:13:39.309Z</time></trkpt><trkpt lat="43.8238098" lon="11.2847727"><ele>265.0</ele><time>2026-04-25T09:13:40.323Z</time></trkpt><trkpt lat="43.8239088" lon="11.2848644"><ele>266.75</ele><time>2026-04-25T09:13:41.331Z</time></trkpt><trkpt lat="43.8240193" lon="11.2849505"><ele>268.5</ele><time>2026-04-25T09:13:42.312Z</time></trkpt><trkpt lat="43.8241439" lon="11.2850405"><ele>270.25</ele><time>2026-04-25T09:13:43.315Z</time></trkpt><trkpt lat="43.8242752" lon="11.2851217"><ele>272.0</ele><time>2026-04-25T09:13:44.305Z</time></trkpt><trkpt lat="43.8243964" lon="11.2851893"><ele>272.0</ele><time>2026-04-25T09:13:45.328Z</time></trkpt><trkpt lat="43.8245206" lon="11.2852572"><ele>272.0</ele><time>2026-04-25T09:13:46.321Z</time></trkpt><trkpt lat="43.8246518" lon="11.2853306"><ele>272.0</ele><time>2026-04-25T09:13:47.323Z</time></trkpt><trkpt lat="43.824798" lon="11.2853976"><ele>272.0</ele><time>2026-04-25T09:13:48.326Z</time></trkpt><trkpt lat="43.824945" lon="11.2854807"><ele>272.0</ele><time>2026-04-25T09:13:49.308Z</time></trkpt><trkpt lat="43.8250765" lon="11.2855563"><ele>272.0</ele><time>2026-04-25T09:13:50.304Z</time></trkpt><trkpt lat="43.8251867" lon="11.2856322"><ele>272.0</ele><time>2026-04-25T09:13:51.317Z</time></trkpt><trkpt lat="43.8252844" lon="11.2857042"><ele>272.0</ele><time>2026-04-25T09:13:52.313Z</time></trkpt><trkpt lat="43.825368" lon="11.2857901"><ele>274.0</ele><time>2026-04-25T09:13:53.322Z</time></trkpt><trkpt lat="43.8254585" lon="11.2858762"><ele>276.0</ele><time>2026-04-25T09:13:54.299Z</time></trkpt><trkpt lat="43.825547" lon="11.2859667"><ele>278.0</ele><time>2026-04-25T09:13:55.315Z</time></trkpt><trkpt lat="43.8256431" lon="11.2860543"><ele>280.0</ele><time>2026-04-25T09:13:56.291Z</time></trkpt><trkpt lat="43.8257363" lon="11.2861353"><ele>282.0</ele><time>2026-04-25T09:13:57.32Z</time></trkpt><trkpt lat="43.8258237" lon="11.2862214"><ele>282.0</ele><time>2026-04-25T09:13:58.325Z</time></trkpt><trkpt lat="43.8259047" lon="11.2862992"><ele>282.0</ele><time>2026-04-25T09:13:59.322Z</time></trkpt><trkpt lat="43.825988" lon="11.2863775"><ele>282.0</ele><time>2026-04-25T09:14:00.31Z</time></trkpt><trkpt lat="43.8260677" lon="11.2864474"><ele>282.0</ele><time>2026-04-25T09:14:01.314Z</time></trkpt><trkpt lat="43.8261498" lon="11.2865156"><ele>282.0</ele><time>2026-04-25T09:14:02.323Z</time></trkpt><trkpt lat="43.8262362" lon="11.2865835"><ele>284.5</ele><time>2026-04-25T09:14:03.322Z</time></trkpt><trkpt lat="43.826327" lon="11.2866609"><ele>287.0</ele><time>2026-04-25T09:14:04.32Z</time></trkpt><trkpt lat="43.8264261" lon="11.2867367"><ele>289.5</ele><time>2026-04-25T09:14:05.33Z</time></trkpt><trkpt lat="43.8265287" lon="11.2868171"><ele>292.0</ele><time>2026-04-25T09:14:06.326Z</time></trkpt><trkpt lat="43.826632" lon="11.2868955"><ele>292.0</ele><time>2026-04-25T09:14:07.315Z</time></trkpt><trkpt lat="43.8267306" lon="11.286969"><ele>292.0</ele><time>2026-04-25T09:14:08.31Z</time></trkpt><trkpt lat="43.8268366" lon="11.2870289"><ele>292.0</ele><time>2026-04-25T09:14:09.311Z</time></trkpt><trkpt lat="43.8269448" lon="11.2870741"><ele>292.0</ele><time>2026-04-25T09:14:10.313Z</time></trkpt><trkpt lat="43.8270595" lon="11.2870955"><ele>292.0</ele><time>2026-04-25T09:14:11.309Z</time></trkpt><trkpt lat="43.8271803" lon="11.2871104"><ele>292.0</ele><time>2026-04-25T09:14:12.322Z</time></trkpt><trkpt lat="43.8273077" lon="11.2871359"><ele>292.0</ele><time>2026-04-25T09:14:13.312Z</time></trkpt><trkpt lat="43.8274406" lon="11.2871541"><ele>292.0</ele><time>2026-04-25T09:14:14.307Z</time></trkpt><trkpt lat="43.8275719" lon="11.2871854"><ele>292.0</ele><time>2026-04-25T09:14:15.311Z</time></trkpt><trkpt lat="43.8277056" lon="11.2872213"><ele>292.0</ele><time>2026-04-25T09:14:16.311Z</time></trkpt><trkpt lat="43.8278493" lon="11.2872562"><ele>292.0</ele><time>2026-04-25T09:14:17.311Z</time></trkpt><trkpt lat="43.8280042" lon="11.2873089"><ele>292.0</ele><time>2026-04-25T09:14:18.312Z</time></trkpt><trkpt lat="43.8281707" lon="11.2873591"><ele>295.0</ele><time>2026-04-25T09:14:19.308Z</time></trkpt><trkpt lat="43.8283476" lon="11.2874162"><ele>298.0</ele><time>2026-04-25T09:14:20.307Z</time></trkpt><trkpt lat="43.8285083" lon="11.2874663"><ele>301.0</ele><time>2026-04-25T09:14:21.324Z</time></trkpt><trkpt lat="43.8286671" lon="11.2875196"><ele>301.0</ele><time>2026-04-25T09:14:22.332Z</time></trkpt><trkpt lat="43.8288205" lon="11.2875576"><ele>301.0</ele><time>2026-04-25T09:14:23.318Z</time></trkpt><trkpt lat="43.8289646" lon="11.2875839"><ele>301.0</ele><time>2026-04-25T09:14:24.306Z</time></trkpt><trkpt lat="43.8291072" lon="11.2876101"><ele>301.0</ele><time>2026-04-25T09:14:25.319Z</time></trkpt><trkpt lat="43.8292471" lon="11.2876336"><ele>299.75</ele><time>2026-04-25T09:14:26.309Z</time></trkpt><trkpt lat="43.8293837" lon="11.2876573"><ele>298.5</ele><time>2026-04-25T09:14:27.313Z</time></trkpt><trkpt lat="43.8295169" lon="11.287682"><ele>297.25</ele><time>2026-04-25T09:14:28.313Z</time></trkpt><trkpt lat="43.829651" lon="11.2877078"><ele>296.0</ele><time>2026-04-25T09:14:29.327Z</time></trkpt><trkpt lat="43.8297815" lon="11.2877223"><ele>296.0</ele><time>2026-04-25T09:14:30.323Z</time></trkpt><trkpt lat="43.8299089" lon="11.2877286"><ele>296.0</ele><time>2026-04-25T09:14:31.323Z</time></trkpt><trkpt lat="43.830034" lon="11.2877243"><ele>296.0</ele><time>2026-04-25T09:14:32.324Z</time></trkpt><trkpt lat="43.8301543" lon="11.2877092"><ele>296.0</ele><time>2026-04-25T09:14:33.311Z</time></trkpt><trkpt lat="43.8302749" lon="11.2876756"><ele>294.75</ele><time>2026-04-25T09:14:34.314Z</time></trkpt><trkpt lat="43.8303942" lon="11.2876462"><ele>293.5</ele><time>2026-04-25T09:14:35.321Z</time></trkpt><trkpt lat="43.8305247" lon="11.2876274"><ele>292.25</ele><time>2026-04-25T09:14:36.307Z</time></trkpt><trkpt lat="43.8306624" lon="11.2876128"><ele>291.0</ele><time>2026-04-25T09:14:37.318Z</time></trkpt><trkpt lat="43.8307992" lon="11.2876093"><ele>291.0</ele><time>2026-04-25T09:14:38.321Z</time></trkpt><trkpt lat="43.8309206" lon="11.2876208"><ele>291.0</ele><time>2026-04-25T09:14:39.334Z</time></trkpt><trkpt lat="43.831046" lon="11.2876409"><ele>291.0</ele><time>2026-04-25T09:14:40.319Z</time></trkpt><trkpt lat="43.8311722" lon="11.2876665"><ele>291.0</ele><time>2026-04-25T09:14:41.312Z</time></trkpt><trkpt lat="43.8312955" lon="11.2876771"><ele>291.25</ele><time>2026-04-25T09:14:42.311Z</time></trkpt><trkpt lat="43.8314073" lon="11.2876842"><ele>291.5</ele><time>2026-04-25T09:14:43.315Z</time></trkpt><trkpt lat="43.8315184" lon="11.2876819"><ele>291.75</ele><time>2026-04-25T09:14:44.307Z</time></trkpt><trkpt lat="43.8316399" lon="11.2876676"><ele>292.0</ele><time>2026-04-25T09:14:45.318Z</time></trkpt><trkpt lat="43.8317686" lon="11.2876526"><ele>292.75</ele><time>2026-04-25T09:14:46.318Z</time></trkpt><trkpt lat="43.8318907" lon="11.2876292"><ele>293.5</ele><time>2026-04-25T09:14:47.313Z</time></trkpt><trkpt lat="43.83201" lon="11.287596"><ele>294.25</ele><time>2026-04-25T09:14:48.317Z</time></trkpt><trkpt lat="43.8321176" lon="11.287563"><ele>295.0</ele><time>2026-04-25T09:14:49.319Z</time></trkpt><trkpt lat="43.8322263" lon="11.2875285"><ele>295.0</ele><time>2026-04-25T09:14:50.317Z</time></trkpt><trkpt lat="43.8323346" lon="11.2874941"><ele>295.0</ele><time>2026-04-25T09:14:51.313Z</time></trkpt><trkpt lat="43.8324391" lon="11.2874587"><ele>295.0</ele><time>2026-04-25T09:14:52.324Z</time></trkpt><trkpt lat="43.8325448" lon="11.2874271"><ele>295.0</ele><time>2026-04-25T09:14:53.315Z</time></trkpt><trkpt lat="43.8326534" lon="11.2873958"><ele>295.0</ele><time>2026-04-25T09:14:54.315Z</time></trkpt><trkpt lat="43.8327544" lon="11.287379"><ele>297.0</ele><time>2026-04-25T09:14:55.301Z</time></trkpt><trkpt lat="43.8328639" lon="11.2873697"><ele>299.0</ele><time>2026-04-25T09:14:56.326Z</time></trkpt><trkpt lat="43.8329762" lon="11.2873727"><ele>301.0</ele><time>2026-04-25T09:14:57.314Z</time></trkpt><trkpt lat="43.8330904" lon="11.2873905"><ele>303.0</ele><time>2026-04-25T09:14:58.319Z</time></trkpt><trkpt lat="43.8332022" lon="11.2874155"><ele>303.0</ele><time>2026-04-25T09:14:59.306Z</time></trkpt><trkpt lat="43.83333" lon="11.2874498"><ele>303.0</ele><time>2026-04-25T09:15:00.319Z</time></trkpt><trkpt lat="43.8334558" lon="11.287493"><ele>303.0</ele><time>2026-04-25T09:15:01.323Z</time></trkpt><trkpt lat="43.8335733" lon="11.2875491"><ele>303.0</ele><time>2026-04-25T09:15:02.32Z</time></trkpt><trkpt lat="43.8336767" lon="11.2876028"><ele>304.2</ele><time>2026-04-25T09:15:03.321Z</time></trkpt><trkpt lat="43.8337648" lon="11.2876608"><ele>305.4</ele><time>2026-04-25T09:15:04.315Z</time></trkpt><trkpt lat="43.8338511" lon="11.2877253"><ele>306.59999999999997</ele><time>2026-04-25T09:15:05.323Z</time></trkpt><trkpt lat="43.833936" lon="11.2877891"><ele>307.8</ele><time>2026-04-25T09:15:06.327Z</time></trkpt><trkpt lat="43.8340167" lon="11.2878621"><ele>309.0</ele><time>2026-04-25T09:15:07.316Z</time></trkpt><trkpt lat="43.8340999" lon="11.2879402"><ele>309.0</ele><time>2026-04-25T09:15:08.322Z</time></trkpt><trkpt lat="43.8341738" lon="11.2880098"><ele>309.0</ele><time>2026-04-25T09:15:09.318Z</time></trkpt><trkpt lat="43.834242" lon="11.2880809"><ele>309.0</ele><time>2026-04-25T09:15:10.32Z</time></trkpt><trkpt lat="43.8343158" lon="11.2881651"><ele>309.0</ele><time>2026-04-25T09:15:11.329Z</time></trkpt><trkpt lat="43.8343987" lon="11.2882436"><ele>309.0</ele><time>2026-04-25T09:15:12.314Z</time></trkpt><trkpt lat="43.8344777" lon="11.2883301"><ele>310.2</ele><time>2026-04-25T09:15:13.315Z</time></trkpt><trkpt lat="43.8345594" lon="11.2884011"><ele>311.4</ele><time>2026-04-25T09:15:14.311Z</time></trkpt><trkpt lat="43.8346478" lon="11.2884737"><ele>312.6</ele><time>2026-04-25T09:15:15.323Z</time></trkpt><trkpt lat="43.8347358" lon="11.2885547"><ele>313.8</ele><time>2026-04-25T09:15:16.32Z</time></trkpt><trkpt lat="43.8348435" lon="11.2886306"><ele>315.0</ele><time>2026-04-25T09:15:17.301Z</time></trkpt><trkpt lat="43.834956" lon="11.2887031"><ele>315.0</ele><time>2026-04-25T09:15:18.312Z</time></trkpt><trkpt lat="43.835075" lon="11.2887741"><ele>315.0</ele><time>2026-04-25T09:15:19.325Z</time></trkpt><trkpt lat="43.8351997" lon="11.2888447"><ele>315.0</ele><time>2026-04-25T09:15:20.322Z</time></trkpt><trkpt lat="43.8353389" lon="11.2889337"><ele>315.0</ele><time>2026-04-25T09:15:21.326Z</time></trkpt><trkpt lat="43.8354802" lon="11.2890516"><ele>318.0</ele><time>2026-04-25T09:15:22.322Z</time></trkpt><trkpt lat="43.8356218" lon="11.2891718"><ele>321.0</ele><time>2026-04-25T09:15:23.32Z</time></trkpt><trkpt lat="43.8357627" lon="11.2892835"><ele>324.0</ele><time>2026-04-25T09:15:24.332Z</time></trkpt><trkpt lat="43.8359046" lon="11.2893898"><ele>325.3333333333333</ele><time>2026-04-25T09:15:25.294Z</time></trkpt><trkpt lat="43.8360536" lon="11.2894816"><ele>326.66666666666663</ele><time>2026-04-25T09:15:26.319Z</time></trkpt><trkpt lat="43.8362054" lon="11.2895522"><ele>328.0</ele><time>2026-04-25T09:15:27.325Z</time></trkpt><trkpt lat="43.836353" lon="11.2896191"><ele>328.0</ele><time>2026-04-25T09:15:28.306Z</time></trkpt><trkpt lat="43.8365039" lon="11.2896772"><ele>328.0</ele><time>2026-04-25T09:15:29.32Z</time></trkpt><trkpt lat="43.8366617" lon="11.2897099"><ele>328.0</ele><time>2026-04-25T09:15:30.313Z</time></trkpt><trkpt lat="43.8368266" lon="11.2897175"><ele>330.3333333333333</ele><time>2026-04-25T09:15:31.286Z</time></trkpt><trkpt lat="43.8369986" lon="11.2897058"><ele>332.6666666666667</ele><time>2026-04-25T09:15:32.31Z</time></trkpt><trkpt lat="43.8371726" lon="11.2896767"><ele>335.0</ele><time>2026-04-25T09:15:33.312Z</time></trkpt><trkpt lat="43.8373558" lon="11.2896182"><ele>335.0</ele><time>2026-04-25T09:15:34.324Z</time></trkpt><trkpt lat="43.8375405" lon="11.2895615"><ele>335.0</ele><time>2026-04-25T09:15:35.303Z</time></trkpt><trkpt lat="43.8377308" lon="11.2895113"><ele>335.0</ele><time>2026-04-25T09:15:36.313Z</time></trkpt><trkpt lat="43.8379272" lon="11.2894503"><ele>338.0</ele><time>2026-04-25T09:15:37.302Z</time></trkpt><trkpt lat="43.8381326" lon="11.289394"><ele>341.0</ele><time>2026-04-25T09:15:38.314Z</time></trkpt><trkpt lat="43.8383436" lon="11.289339"><ele>344.0</ele><time>2026-04-25T09:15:39.302Z</time></trkpt><trkpt lat="43.8385634" lon="11.2892763"><ele>347.5</ele><time>2026-04-25T09:15:40.314Z</time></trkpt><trkpt lat="43.8387899" lon="11.2892157"><ele>351.0</ele><time>2026-04-25T09:15:41.314Z</time></trkpt><trkpt lat="43.8390208" lon="11.2891525"><ele>351.0</ele><time>2026-04-25T09:15:42.315Z</time></trkpt><trkpt lat="43.8392491" lon="11.2890908"><ele>351.0</ele><time>2026-04-25T09:15:43.317Z</time></trkpt><trkpt lat="43.8394709" lon="11.289022"><ele>353.3333333333333</ele><time>2026-04-25T09:15:44.298Z</time></trkpt><trkpt lat="43.8396783" lon="11.288956"><ele>355.66666666666663</ele><time>2026-04-25T09:15:45.327Z</time></trkpt><trkpt lat="43.8398835" lon="11.2888881"><ele>358.0</ele><time>2026-04-25T09:15:46.322Z</time></trkpt><trkpt lat="43.8400736" lon="11.2888065"><ele>365.3333333333333</ele><time>2026-04-25T09:15:47.317Z</time></trkpt><trkpt lat="43.8402496" lon="11.2887562"><ele>372.6666666666667</ele><time>2026-04-25T09:15:48.315Z</time></trkpt><trkpt lat="43.8404256" lon="11.288758"><ele>380.0</ele><time>2026-04-25T09:15:49.304Z</time></trkpt><trkpt lat="43.8405976" lon="11.2888033"><ele>380.0</ele><time>2026-04-25T09:15:50.323Z</time></trkpt><trkpt lat="43.8407787" lon="11.288834"><ele>380.0</ele><time>2026-04-25T09:15:51.309Z</time></trkpt><trkpt lat="43.840953" lon="11.2888546"><ele>380.0</ele><time>2026-04-25T09:15:52.313Z</time></trkpt><trkpt lat="43.8411137" lon="11.2888555"><ele>382.6666666666667</ele><time>2026-04-25T09:15:53.332Z</time></trkpt><trkpt lat="43.8412723" lon="11.2888329"><ele>385.33333333333337</ele><time>2026-04-25T09:15:54.303Z</time></trkpt><trkpt lat="43.8414401" lon="11.2888293"><ele>388.0</ele><time>2026-04-25T09:15:55.329Z</time></trkpt><trkpt lat="43.8416093" lon="11.288864"><ele>388.0</ele><time>2026-04-25T09:15:56.303Z</time></trkpt><trkpt lat="43.841776" lon="11.2889227"><ele>388.0</ele><time>2026-04-25T09:15:57.31Z</time></trkpt><trkpt lat="43.8419406" lon="11.2889844"><ele>388.0</ele><time>2026-04-25T09:15:58.319Z</time></trkpt><trkpt lat="43.8420734" lon="11.289053"><ele>388.0</ele><time>2026-04-25T09:15:59.309Z</time></trkpt><trkpt lat="43.8422069" lon="11.2891326"><ele>388.0</ele><time>2026-04-25T09:16:00.322Z</time></trkpt><trkpt lat="43.8423469" lon="11.289212"><ele>388.0</ele><time>2026-04-25T09:16:01.307Z</time></trkpt><trkpt lat="43.8424926" lon="11.2892906"><ele>387.6666666666667</ele><time>2026-04-25T09:16:02.311Z</time></trkpt><trkpt lat="43.8426381" lon="11.2893612"><ele>387.33333333333337</ele><time>2026-04-25T09:16:03.315Z</time></trkpt><trkpt lat="43.8427777" lon="11.2894356"><ele>387.0</ele><time>2026-04-25T09:16:04.309Z</time></trkpt><trkpt lat="43.8429133" lon="11.2895103"><ele>387.0</ele><time>2026-04-25T09:16:05.315Z</time></trkpt><trkpt lat="43.8430374" lon="11.2895835"><ele>387.0</ele><time>2026-04-25T09:16:06.319Z</time></trkpt><trkpt lat="43.8431536" lon="11.2896463"><ele>387.0</ele><time>2026-04-25T09:16:07.311Z</time></trkpt><trkpt lat="43.8432575" lon="11.2897049"><ele>387.0</ele><time>2026-04-25T09:16:08.315Z</time></trkpt><trkpt lat="43.8433516" lon="11.2897571"><ele>389.20000000000005</ele><time>2026-04-25T09:16:09.323Z</time></trkpt><trkpt lat="43.843445" lon="11.289818"><ele>391.4</ele><time>2026-04-25T09:16:10.298Z</time></trkpt><trkpt lat="43.8435463" lon="11.2898765"><ele>393.6</ele><time>2026-04-25T09:16:11.313Z</time></trkpt><trkpt lat="43.8436489" lon="11.2899243"><ele>395.79999999999995</ele><time>2026-04-25T09:16:12.289Z</time></trkpt><trkpt lat="43.8437487" lon="11.2899638"><ele>398.0</ele><time>2026-04-25T09:16:13.303Z</time></trkpt><trkpt lat="43.843846" lon="11.2900129"><ele>398.79999999999995</ele><time>2026-04-25T09:16:14.307Z</time></trkpt><trkpt lat="43.8439445" lon="11.2900652"><ele>399.6</ele><time>2026-04-25T09:16:15.313Z</time></trkpt><trkpt lat="43.8440491" lon="11.2901238"><ele>400.4</ele><time>2026-04-25T09:16:16.32Z</time></trkpt><trkpt lat="43.8441511" lon="11.2901761"><ele>401.20000000000005</ele><time>2026-04-25T09:16:17.298Z</time></trkpt><trkpt lat="43.8442569" lon="11.2902324"><ele>402.0</ele><time>2026-04-25T09:16:18.311Z</time></trkpt><trkpt lat="43.8443655" lon="11.290288"><ele>403.0</ele><time>2026-04-25T09:16:19.323Z</time></trkpt><trkpt lat="43.8444794" lon="11.2903438"><ele>404.0</ele><time>2026-04-25T09:16:20.308Z</time></trkpt><trkpt lat="43.8445993" lon="11.2903993"><ele>405.0</ele><time>2026-04-25T09:16:21.327Z</time></trkpt><trkpt lat="43.8447189" lon="11.2904523"><ele>406.0</ele><time>2026-04-25T09:16:22.32Z</time></trkpt><trkpt lat="43.8448305" lon="11.2905033"><ele>406.0</ele><time>2026-04-25T09:16:23.325Z</time></trkpt><trkpt lat="43.8449369" lon="11.2905473"><ele>406.0</ele><time>2026-04-25T09:16:24.29Z</time></trkpt><trkpt lat="43.8450468" lon="11.2905779"><ele>406.0</ele><time>2026-04-25T09:16:25.307Z</time></trkpt><trkpt lat="43.845161" lon="11.2906024"><ele>406.0</ele><time>2026-04-25T09:16:26.311Z</time></trkpt><trkpt lat="43.8452761" lon="11.2906169"><ele>409.0</ele><time>2026-04-25T09:16:27.308Z</time></trkpt><trkpt lat="43.8453881" lon="11.2906355"><ele>412.0</ele><time>2026-04-25T09:16:28.31Z</time></trkpt><trkpt lat="43.8454997" lon="11.2906566"><ele>415.0</ele><time>2026-04-25T09:16:29.31Z</time></trkpt><trkpt lat="43.8456126" lon="11.29068"><ele>418.0</ele><time>2026-04-25T09:16:30.309Z</time></trkpt><trkpt lat="43.8457281" lon="11.290709"><ele>418.0</ele><time>2026-04-25T09:16:31.315Z</time></trkpt><trkpt lat="43.8458462" lon="11.2907497"><ele>418.0</ele><time>2026-04-25T09:16:32.308Z</time></trkpt><trkpt lat="43.8459588" lon="11.2907922"><ele>418.0</ele><time>2026-04-25T09:16:33.318Z</time></trkpt><trkpt lat="43.846062" lon="11.2908472"><ele>418.0</ele><time>2026-04-25T09:16:34.305Z</time></trkpt><trkpt lat="43.8461696" lon="11.2909018"><ele>418.25</ele><time>2026-04-25T09:16:35.307Z</time></trkpt><trkpt lat="43.8462899" lon="11.2909567"><ele>418.5</ele><time>2026-04-25T09:16:36.312Z</time></trkpt><trkpt lat="43.8464204" lon="11.2910183"><ele>418.75</ele><time>2026-04-25T09:16:37.319Z</time></trkpt><trkpt lat="43.8465566" lon="11.2910839"><ele>419.0</ele><time>2026-04-25T09:16:38.32Z</time></trkpt><trkpt lat="43.8466882" lon="11.2911575"><ele>420.5</ele><time>2026-04-25T09:16:39.307Z</time></trkpt><trkpt lat="43.8468139" lon="11.2912297"><ele>422.0</ele><time>2026-04-25T09:16:40.315Z</time></trkpt><trkpt lat="43.8469306" lon="11.2912923"><ele>423.5</ele><time>2026-04-25T09:16:41.322Z</time></trkpt><trkpt lat="43.8470366" lon="11.2913566"><ele>425.0</ele><time>2026-04-25T09:16:42.304Z</time></trkpt><trkpt lat="43.8471421" lon="11.2914199"><ele>425.5</ele><time>2026-04-25T09:16:43.304Z</time></trkpt><trkpt lat="43.8472467" lon="11.2914758"><ele>426.0</ele><time>2026-04-25T09:16:44.307Z</time></trkpt><trkpt lat="43.8473616" lon="11.2915346"><ele>426.5</ele><time>2026-04-25T09:16:45.316Z</time></trkpt><trkpt lat="43.8474793" lon="11.2915882"><ele>427.0</ele><time>2026-04-25T09:16:46.301Z</time></trkpt><trkpt lat="43.8475997" lon="11.2916449"><ele>430.25</ele><time>2026-04-25T09:16:47.323Z</time></trkpt><trkpt lat="43.8477164" lon="11.2916995"><ele>433.5</ele><time>2026-04-25T09:16:48.332Z</time></trkpt><trkpt lat="43.8478316" lon="11.2917602"><ele>436.75</ele><time>2026-04-25T09:16:49.314Z</time></trkpt><trkpt lat="43.8479455" lon="11.2918306"><ele>440.0</ele><time>2026-04-25T09:16:50.318Z</time></trkpt><trkpt lat="43.8480576" lon="11.2919209"><ele>440.0</ele><time>2026-04-25T09:16:51.324Z</time></trkpt><trkpt lat="43.8481711" lon="11.2920212"><ele>440.0</ele><time>2026-04-25T09:16:52.337Z</time></trkpt><trkpt lat="43.8482959" lon="11.29214"><ele>440.0</ele><time>2026-04-25T09:16:53.32Z</time></trkpt><trkpt lat="43.8484244" lon="11.2922604"><ele>440.0</ele><time>2026-04-25T09:16:54.31Z</time></trkpt><trkpt lat="43.848557" lon="11.292392"><ele>443.0</ele><time>2026-04-25T09:16:55.323Z</time></trkpt><trkpt lat="43.8486881" lon="11.2925247"><ele>446.0</ele><time>2026-04-25T09:16:56.323Z</time></trkpt><trkpt lat="43.8488163" lon="11.2926625"><ele>449.0</ele><time>2026-04-25T09:16:57.316Z</time></trkpt><trkpt lat="43.8489404" lon="11.2927979"><ele>449.0</ele><time>2026-04-25T09:16:58.324Z</time></trkpt><trkpt lat="43.8490588" lon="11.2929232"><ele>449.0</ele><time>2026-04-25T09:16:59.326Z</time></trkpt><trkpt lat="43.8491703" lon="11.2930225"><ele>449.0</ele><time>2026-04-25T09:17:00.315Z</time></trkpt><trkpt lat="43.8492671" lon="11.2931264"><ele>449.0</ele><time>2026-04-25T09:17:01.319Z</time></trkpt><trkpt lat="43.8493699" lon="11.2932126"><ele>452.0</ele><time>2026-04-25T09:17:02.317Z</time></trkpt><trkpt lat="43.8494581" lon="11.2933201"><ele>455.0</ele><time>2026-04-25T09:17:03.32Z</time></trkpt><trkpt lat="43.8495432" lon="11.2934198"><ele>458.0</ele><time>2026-04-25T09:17:04.321Z</time></trkpt><trkpt lat="43.849613" lon="11.2935442"><ele>461.0</ele><time>2026-04-25T09:17:05.321Z</time></trkpt><trkpt lat="43.8496753" lon="11.2936877"><ele>461.0</ele><time>2026-04-25T09:17:06.324Z</time></trkpt><trkpt lat="43.8497352" lon="11.2938274"><ele>461.0</ele><time>2026-04-25T09:17:07.325Z</time></trkpt><trkpt lat="43.8497945" lon="11.293966"><ele>461.0</ele><time>2026-04-25T09:17:08.32Z</time></trkpt><trkpt lat="43.8498575" lon="11.294094"><ele>461.0</ele><time>2026-04-25T09:17:09.311Z</time></trkpt><trkpt lat="43.8499237" lon="11.2942019"><ele>461.0</ele><time>2026-04-25T09:17:10.326Z</time></trkpt><trkpt lat="43.8499997" lon="11.2942811"><ele>462.25</ele><time>2026-04-25T09:17:11.321Z</time></trkpt><trkpt lat="43.8500821" lon="11.2943587"><ele>463.5</ele><time>2026-04-25T09:17:12.327Z</time></trkpt><trkpt lat="43.8501756" lon="11.2944439"><ele>464.75</ele><time>2026-04-25T09:17:13.329Z</time></trkpt><trkpt lat="43.8502851" lon="11.294522"><ele>466.0</ele><time>2026-04-25T09:17:14.321Z</time></trkpt><trkpt lat="43.8503944" lon="11.2945999"><ele>466.0</ele><time>2026-04-25T09:17:15.321Z</time></trkpt><trkpt lat="43.8505028" lon="11.2946859"><ele>466.0</ele><time>2026-04-25T09:17:16.319Z</time></trkpt><trkpt lat="43.8506069" lon="11.2947617"><ele>466.0</ele><time>2026-04-25T09:17:17.327Z</time></trkpt><trkpt lat="43.8507119" lon="11.2948251"><ele>466.0</ele><time>2026-04-25T09:17:18.338Z</time></trkpt><trkpt lat="43.8508277" lon="11.2948851"><ele>466.0</ele><time>2026-04-25T09:17:19.325Z</time></trkpt><trkpt lat="43.8509479" lon="11.294946"><ele>466.0</ele><time>2026-04-25T09:17:20.316Z</time></trkpt><trkpt lat="43.851063" lon="11.2950228"><ele>466.0</ele><time>2026-04-25T09:17:21.318Z</time></trkpt><trkpt lat="43.8511679" lon="11.295107"><ele>466.0</ele><time>2026-04-25T09:17:22.3Z</time></trkpt><trkpt lat="43.851267" lon="11.2952412"><ele>466.0</ele><time>2026-04-25T09:17:23.321Z</time></trkpt><trkpt lat="43.8513444" lon="11.2954002"><ele>466.0</ele><time>2026-04-25T09:17:24.315Z</time></trkpt><trkpt lat="43.8514117" lon="11.2955702"><ele>466.0</ele><time>2026-04-25T09:17:25.314Z</time></trkpt><trkpt lat="43.8514729" lon="11.2957246"><ele>466.0</ele><time>2026-04-25T09:17:26.317Z</time></trkpt><trkpt lat="43.8515382" lon="11.2958652"><ele>465.5</ele><time>2026-04-25T09:17:27.322Z</time></trkpt><trkpt lat="43.8516246" lon="11.2959757"><ele>465.0</ele><time>2026-04-25T09:17:28.298Z</time></trkpt><trkpt lat="43.8517257" lon="11.2960402"><ele>464.5</ele><time>2026-04-25T09:17:29.314Z</time></trkpt><trkpt lat="43.8518313" lon="11.2961037"><ele>464.0</ele><time>2026-04-25T09:17:30.333Z</time></trkpt><trkpt lat="43.8519401" lon="11.2961986"><ele>464.0</ele><time>2026-04-25T09:17:31.323Z</time></trkpt><trkpt lat="43.8520374" lon="11.2963286"><ele>464.0</ele><time>2026-04-25T09:17:32.338Z</time></trkpt><trkpt lat="43.8521252" lon="11.2964797"><ele>464.0</ele><time>2026-04-25T09:17:33.336Z</time></trkpt><trkpt lat="43.8522014" lon="11.2966411"><ele>464.0</ele><time>2026-04-25T09:17:34.311Z</time></trkpt><trkpt lat="43.852258" lon="11.2967939"><ele>459.75</ele><time>2026-04-25T09:17:35.302Z</time></trkpt><trkpt lat="43.8523188" lon="11.2969485"><ele>455.5</ele><time>2026-04-25T09:17:36.331Z</time></trkpt><trkpt lat="43.8523893" lon="11.2970979"><ele>451.25</ele><time>2026-04-25T09:17:37.319Z</time></trkpt><trkpt lat="43.8524737" lon="11.2972371"><ele>447.0</ele><time>2026-04-25T09:17:38.321Z</time></trkpt><trkpt lat="43.8525604" lon="11.2973526"><ele>445.5</ele><time>2026-04-25T09:17:39.323Z</time></trkpt><trkpt lat="43.8526523" lon="11.2974614"><ele>444.0</ele><time>2026-04-25T09:17:40.321Z</time></trkpt><trkpt lat="43.8527549" lon="11.2975456"><ele>442.5</ele><time>2026-04-25T09:17:41.329Z</time></trkpt><trkpt lat="43.8528657" lon="11.2975979"><ele>441.0</ele><time>2026-04-25T09:17:42.33Z</time></trkpt><trkpt lat="43.8529898" lon="11.2976224"><ele>441.0</ele><time>2026-04-25T09:17:43.332Z</time></trkpt><trkpt lat="43.8531189" lon="11.2976198"><ele>441.0</ele><time>2026-04-25T09:17:44.304Z</time></trkpt><trkpt lat="43.8532353" lon="11.2976123"><ele>441.0</ele><time>2026-04-25T09:17:45.346Z</time></trkpt><trkpt lat="43.8533466" lon="11.2975852"><ele>441.0</ele><time>2026-04-25T09:17:46.321Z</time></trkpt><trkpt lat="43.8534582" lon="11.2975199"><ele>441.0</ele><time>2026-04-25T09:17:47.307Z</time></trkpt><trkpt lat="43.8535772" lon="11.2974145"><ele>441.0</ele><time>2026-04-25T09:17:48.316Z</time></trkpt><trkpt lat="43.8536995" lon="11.2972617"><ele>441.0</ele><time>2026-04-25T09:17:49.289Z</time></trkpt><trkpt lat="43.8538146" lon="11.2970843"><ele>441.0</ele><time>2026-04-25T09:17:50.296Z</time></trkpt><trkpt lat="43.8539212" lon="11.2969075"><ele>441.0</ele><time>2026-04-25T09:17:51.285Z</time></trkpt><trkpt lat="43.8540321" lon="11.2967226"><ele>441.0</ele><time>2026-04-25T09:17:52.319Z</time></trkpt><trkpt lat="43.8541402" lon="11.2965641"><ele>441.0</ele><time>2026-04-25T09:17:53.324Z</time></trkpt><trkpt lat="43.8542563" lon="11.2964264"><ele>441.0</ele><time>2026-04-25T09:17:54.304Z</time></trkpt><trkpt lat="43.8543823" lon="11.296314"><ele>441.0</ele><time>2026-04-25T09:17:55.312Z</time></trkpt><trkpt lat="43.8545263" lon="11.2962259"><ele>442.0</ele><time>2026-04-25T09:17:56.306Z</time></trkpt><trkpt lat="43.8546756" lon="11.2961523"><ele>443.0</ele><time>2026-04-25T09:17:57.31Z</time></trkpt><trkpt lat="43.8548284" lon="11.2960994"><ele>444.0</ele><time>2026-04-25T09:17:58.31Z</time></trkpt><trkpt lat="43.8549723" lon="11.2960738"><ele>446.0</ele><time>2026-04-25T09:17:59.316Z</time></trkpt><trkpt lat="43.8551225" lon="11.296058"><ele>448.0</ele><time>2026-04-25T09:18:00.301Z</time></trkpt><trkpt lat="43.8552923" lon="11.2960688"><ele>450.0</ele><time>2026-04-25T09:18:01.302Z</time></trkpt><trkpt lat="43.8554561" lon="11.2960685"><ele>450.0</ele><time>2026-04-25T09:18:02.32Z</time></trkpt><trkpt lat="43.8556147" lon="11.2960876"><ele>450.0</ele><time>2026-04-25T09:18:03.332Z</time></trkpt><trkpt lat="43.8557686" lon="11.2961348"><ele>450.0</ele><time>2026-04-25T09:18:04.301Z</time></trkpt><trkpt lat="43.8559414" lon="11.2961913"><ele>452.0</ele><time>2026-04-25T09:18:05.301Z</time></trkpt><trkpt lat="43.8560969" lon="11.2962984"><ele>454.0</ele><time>2026-04-25T09:18:06.304Z</time></trkpt><trkpt lat="43.8562532" lon="11.2964317"><ele>456.0</ele><time>2026-04-25T09:18:07.302Z</time></trkpt><trkpt lat="43.8564098" lon="11.2965867"><ele>456.0</ele><time>2026-04-25T09:18:08.314Z</time></trkpt><trkpt lat="43.8565573" lon="11.2967154"><ele>456.0</ele><time>2026-04-25T09:18:09.31Z</time></trkpt><trkpt lat="43.8566887" lon="11.2968304"><ele>456.0</ele><time>2026-04-25T09:18:10.323Z</time></trkpt><trkpt lat="43.8568077" lon="11.2969528"><ele>455.25</ele><time>2026-04-25T09:18:11.303Z</time></trkpt><trkpt lat="43.8569324" lon="11.2970804"><ele>454.5</ele><time>2026-04-25T09:18:12.332Z</time></trkpt><trkpt lat="43.8570475" lon="11.2972034"><ele>453.75</ele><time>2026-04-25T09:18:13.322Z</time></trkpt><trkpt lat="43.8571515" lon="11.2973247"><ele>453.0</ele><time>2026-04-25T09:18:14.321Z</time></trkpt><trkpt lat="43.8572472" lon="11.2974466"><ele>453.0</ele><time>2026-04-25T09:18:15.311Z</time></trkpt><trkpt lat="43.8573305" lon="11.2975806"><ele>453.0</ele><time>2026-04-25T09:18:16.326Z</time></trkpt><trkpt lat="43.8574209" lon="11.2977064"><ele>453.0</ele><time>2026-04-25T09:18:17.315Z</time></trkpt><trkpt lat="43.8575391" lon="11.2977976"><ele>453.0</ele><time>2026-04-25T09:18:18.321Z</time></trkpt><trkpt lat="43.8576669" lon="11.2978452"><ele>455.2</ele><time>2026-04-25T09:18:19.311Z</time></trkpt><trkpt lat="43.8577885" lon="11.2978684"><ele>457.4</ele><time>2026-04-25T09:18:20.322Z</time></trkpt><trkpt lat="43.8579006" lon="11.297885"><ele>459.59999999999997</ele><time>2026-04-25T09:18:21.321Z</time></trkpt><trkpt lat="43.8580081" lon="11.2978976"><ele>461.79999999999995</ele><time>2026-04-25T09:18:22.338Z</time></trkpt><trkpt lat="43.8581048" lon="11.2979186"><ele>464.0</ele><time>2026-04-25T09:18:23.326Z</time></trkpt><trkpt lat="43.858197" lon="11.2979394"><ele>464.0</ele><time>2026-04-25T09:18:24.341Z</time></trkpt><trkpt lat="43.8582907" lon="11.2979571"><ele>464.0</ele><time>2026-04-25T09:18:25.314Z</time></trkpt><trkpt lat="43.8583854" lon="11.2979797"><ele>464.0</ele><time>2026-04-25T09:18:26.33Z</time></trkpt><trkpt lat="43.8584932" lon="11.2979988"><ele>464.0</ele><time>2026-04-25T09:18:27.319Z</time></trkpt><trkpt lat="43.8586039" lon="11.2980203"><ele>464.0</ele><time>2026-04-25T09:18:28.292Z</time></trkpt><trkpt lat="43.8587249" lon="11.2980374"><ele>463.4</ele><time>2026-04-25T09:18:29.334Z</time></trkpt><trkpt lat="43.8588409" lon="11.2980606"><ele>462.79999999999995</ele><time>2026-04-25T09:18:30.328Z</time></trkpt><trkpt lat="43.8589464" lon="11.2980765"><ele>462.20000000000005</ele><time>2026-04-25T09:18:31.323Z</time></trkpt><trkpt lat="43.859043" lon="11.298091"><ele>461.6</ele><time>2026-04-25T09:18:32.311Z</time></trkpt><trkpt lat="43.859133" lon="11.298099"><ele>461.0</ele><time>2026-04-25T09:18:33.325Z</time></trkpt><trkpt lat="43.8592097" lon="11.2981145"><ele>460.3333333333333</ele><time>2026-04-25T09:18:34.313Z</time></trkpt><trkpt lat="43.8592853" lon="11.2981196"><ele>459.66666666666663</ele><time>2026-04-25T09:18:35.316Z</time></trkpt><trkpt lat="43.8593605" lon="11.2981337"><ele>459.0</ele><time>2026-04-25T09:18:36.315Z</time></trkpt><trkpt lat="43.8594419" lon="11.2981504"><ele>458.33333333333337</ele><time>2026-04-25T09:18:37.319Z</time></trkpt><trkpt lat="43.8595194" lon="11.2981658"><ele>457.6666666666667</ele><time>2026-04-25T09:18:38.325Z</time></trkpt><trkpt lat="43.8595923" lon="11.2981748"><ele>457.0</ele><time>2026-04-25T09:18:39.318Z</time></trkpt><trkpt lat="43.8596629" lon="11.2981838"><ele>457.00000000000006</ele><time>2026-04-25T09:18:40.317Z</time></trkpt><trkpt lat="43.8597357" lon="11.2981963"><ele>457.0</ele><time>2026-04-25T09:18:41.319Z</time></trkpt><trkpt lat="43.8598054" lon="11.2982085"><ele>457.0</ele><time>2026-04-25T09:18:42.328Z</time></trkpt><trkpt lat="43.8599099" lon="11.298222"><ele>457.0</ele><time>2026-04-25T09:18:44.317Z</time></trkpt><trkpt lat="43.8599988" lon="11.2982267"><ele>457.00000000000006</ele><time>2026-04-25T09:18:46.309Z</time></trkpt><trkpt lat="43.8600944" lon="11.2982636"><ele>457.0</ele><time>2026-04-25T09:18:48.322Z</time></trkpt><trkpt lat="43.8602221" lon="11.2983048"><ele>459.0</ele><time>2026-04-25T09:18:50.309Z</time></trkpt><trkpt lat="43.8603119" lon="11.2983296"><ele>461.00000000000006</ele><time>2026-04-25T09:18:51.309Z</time></trkpt><trkpt lat="43.860415" lon="11.298357"><ele>463.00000000000006</ele><time>2026-04-25T09:18:52.314Z</time></trkpt><trkpt lat="43.860518" lon="11.2983953"><ele>465.0</ele><time>2026-04-25T09:18:53.326Z</time></trkpt><trkpt lat="43.8606301" lon="11.2984244"><ele>467.0</ele><time>2026-04-25T09:18:54.323Z</time></trkpt><trkpt lat="43.8607678" lon="11.298486"><ele>467.0</ele><time>2026-04-25T09:18:55.307Z</time></trkpt><trkpt lat="43.8609207" lon="11.2985802"><ele>467.0</ele><time>2026-04-25T09:18:56.32Z</time></trkpt><trkpt lat="43.8610535" lon="11.2986872"><ele>467.0</ele><time>2026-04-25T09:18:57.323Z</time></trkpt><trkpt lat="43.8611678" lon="11.298811"><ele>469.0</ele><time>2026-04-25T09:18:58.322Z</time></trkpt><trkpt lat="43.8612741" lon="11.298938"><ele>471.0</ele><time>2026-04-25T09:18:59.33Z</time></trkpt><trkpt lat="43.8613736" lon="11.2990648"><ele>473.0</ele><time>2026-04-25T09:19:00.31Z</time></trkpt><trkpt lat="43.8614661" lon="11.2991723"><ele>475.0</ele><time>2026-04-25T09:19:01.309Z</time></trkpt><trkpt lat="43.861563" lon="11.2992903"><ele>475.0</ele><time>2026-04-25T09:19:02.312Z</time></trkpt><trkpt lat="43.8616605" lon="11.2994071"><ele>475.0</ele><time>2026-04-25T09:19:03.31Z</time></trkpt><trkpt lat="43.8617574" lon="11.2995303"><ele>475.0</ele><time>2026-04-25T09:19:04.301Z</time></trkpt><trkpt lat="43.8618568" lon="11.2996546"><ele>475.0</ele><time>2026-04-25T09:19:05.295Z</time></trkpt><trkpt lat="43.8619559" lon="11.2997763"><ele>475.6</ele><time>2026-04-25T09:19:06.3Z</time></trkpt><trkpt lat="43.8620388" lon="11.299903"><ele>476.2</ele><time>2026-04-25T09:19:07.317Z</time></trkpt><trkpt lat="43.8621147" lon="11.3000175"><ele>476.79999999999995</ele><time>2026-04-25T09:19:08.328Z</time></trkpt><trkpt lat="43.8621826" lon="11.3001104"><ele>477.4</ele><time>2026-04-25T09:19:09.325Z</time></trkpt><trkpt lat="43.8622465" lon="11.300223"><ele>478.0</ele><time>2026-04-25T09:19:10.318Z</time></trkpt><trkpt lat="43.8623122" lon="11.3003374"><ele>478.0</ele><time>2026-04-25T09:19:11.316Z</time></trkpt><trkpt lat="43.8623703" lon="11.3004621"><ele>477.99999999999994</ele><time>2026-04-25T09:19:12.315Z</time></trkpt><trkpt lat="43.8624213" lon="11.300593"><ele>477.99999999999994</ele><time>2026-04-25T09:19:13.326Z</time></trkpt><trkpt lat="43.8624617" lon="11.3007077"><ele>478.0</ele><time>2026-04-25T09:19:14.321Z</time></trkpt><trkpt lat="43.8624916" lon="11.3008091"><ele>478.0</ele><time>2026-04-25T09:19:15.322Z</time></trkpt><trkpt lat="43.8625206" lon="11.3009162"><ele>477.33333333333337</ele><time>2026-04-25T09:19:17.324Z</time></trkpt><trkpt lat="43.8625656" lon="11.300996"><ele>476.6666666666667</ele><time>2026-04-25T09:21:18.32Z</time></trkpt><trkpt lat="43.8626379" lon="11.3010046"><ele>476.0</ele><time>2026-04-25T09:21:19.302Z</time></trkpt><trkpt lat="43.862726" lon="11.301028"><ele>475.33333333333337</ele><time>2026-04-25T09:21:20.329Z</time></trkpt><trkpt lat="43.8628196" lon="11.3010422"><ele>474.6666666666667</ele><time>2026-04-25T09:21:21.331Z</time></trkpt><trkpt lat="43.8629302" lon="11.3010113"><ele>474.0</ele><time>2026-04-25T09:21:22.314Z</time></trkpt><trkpt lat="43.8630336" lon="11.3009234"><ele>474.25</ele><time>2026-04-25T09:21:23.309Z</time></trkpt><trkpt lat="43.8631518" lon="11.3008082"><ele>474.5</ele><time>2026-04-25T09:21:24.321Z</time></trkpt><trkpt lat="43.8632737" lon="11.3006899"><ele>474.75</ele><time>2026-04-25T09:21:25.297Z</time></trkpt><trkpt lat="43.8633983" lon="11.3005786"><ele>475.0</ele><time>2026-04-25T09:21:26.308Z</time></trkpt><trkpt lat="43.8635221" lon="11.3004749"><ele>471.0</ele><time>2026-04-25T09:21:27.315Z</time></trkpt><trkpt lat="43.8636386" lon="11.3003721"><ele>467.0</ele><time>2026-04-25T09:21:28.303Z</time></trkpt><trkpt lat="43.8637428" lon="11.3002645"><ele>463.0</ele><time>2026-04-25T09:21:29.313Z</time></trkpt><trkpt lat="43.8638516" lon="11.3001669"><ele>459.0</ele><time>2026-04-25T09:21:30.305Z</time></trkpt><trkpt lat="43.863964" lon="11.3000697"><ele>459.0</ele><time>2026-04-25T09:21:31.33Z</time></trkpt><trkpt lat="43.8640804" lon="11.2999594"><ele>459.0</ele><time>2026-04-25T09:21:32.319Z</time></trkpt><trkpt lat="43.8642046" lon="11.2998523"><ele>459.0</ele><time>2026-04-25T09:21:33.318Z</time></trkpt><trkpt lat="43.8643268" lon="11.2997518"><ele>459.0</ele><time>2026-04-25T09:21:34.313Z</time></trkpt><trkpt lat="43.8644508" lon="11.2996488"><ele>455.5</ele><time>2026-04-25T09:21:35.334Z</time></trkpt><trkpt lat="43.8645735" lon="11.29955"><ele>452.0</ele><time>2026-04-25T09:21:36.317Z</time></trkpt><trkpt lat="43.8646963" lon="11.2994508"><ele>448.5</ele><time>2026-04-25T09:21:37.32Z</time></trkpt><trkpt lat="43.8648211" lon="11.2993578"><ele>445.0</ele><time>2026-04-25T09:21:38.306Z</time></trkpt><trkpt lat="43.8649409" lon="11.2992684"><ele>445.0</ele><time>2026-04-25T09:21:39.331Z</time></trkpt><trkpt lat="43.8650683" lon="11.2991919"><ele>445.0</ele><time>2026-04-25T09:21:40.312Z</time></trkpt><trkpt lat="43.8651897" lon="11.2991249"><ele>445.0</ele><time>2026-04-25T09:21:41.333Z</time></trkpt><trkpt lat="43.8652917" lon="11.2990571"><ele>445.0</ele><time>2026-04-25T09:21:42.336Z</time></trkpt><trkpt lat="43.8653786" lon="11.2989633"><ele>440.0</ele><time>2026-04-25T09:21:43.307Z</time></trkpt><trkpt lat="43.8654385" lon="11.2988255"><ele>435.0</ele><time>2026-04-25T09:21:44.299Z</time></trkpt><trkpt lat="43.8654505" lon="11.2986745"><ele>430.0</ele><time>2026-04-25T09:21:45.327Z</time></trkpt><trkpt lat="43.8654115" lon="11.2984956"><ele>425.0</ele><time>2026-04-25T09:21:46.326Z</time></trkpt><trkpt lat="43.8653499" lon="11.2983276"><ele>425.0</ele><time>2026-04-25T09:21:47.303Z</time></trkpt><trkpt lat="43.8653" lon="11.2981701"><ele>425.0</ele><time>2026-04-25T09:21:48.31Z</time></trkpt><trkpt lat="43.8652781" lon="11.2980283"><ele>425.0</ele><time>2026-04-25T09:21:49.322Z</time></trkpt><trkpt lat="43.865287" lon="11.2978941"><ele>425.0</ele><time>2026-04-25T09:21:50.317Z</time></trkpt><trkpt lat="43.8653571" lon="11.2977732"><ele>425.0</ele><time>2026-04-25T09:21:51.327Z</time></trkpt><trkpt lat="43.8654545" lon="11.297651"><ele>425.0</ele><time>2026-04-25T09:21:52.333Z</time></trkpt><trkpt lat="43.8655773" lon="11.2975194"><ele>425.0</ele><time>2026-04-25T09:21:53.32Z</time></trkpt><trkpt lat="43.8657062" lon="11.2974096"><ele>425.0</ele><time>2026-04-25T09:21:54.3Z</time></trkpt><trkpt lat="43.8658467" lon="11.2972926"><ele>421.0</ele><time>2026-04-25T09:21:55.321Z</time></trkpt><trkpt lat="43.866011" lon="11.2971853"><ele>417.0</ele><time>2026-04-25T09:21:56.327Z</time></trkpt><trkpt lat="43.866175" lon="11.2970827"><ele>413.0</ele><time>2026-04-25T09:21:57.313Z</time></trkpt><trkpt lat="43.8663368" lon="11.2969894"><ele>413.0</ele><time>2026-04-25T09:21:58.319Z</time></trkpt><trkpt lat="43.8665" lon="11.2968969"><ele>413.0</ele><time>2026-04-25T09:21:59.333Z</time></trkpt><trkpt lat="43.8666607" lon="11.2968063"><ele>413.0</ele><time>2026-04-25T09:22:00.323Z</time></trkpt><trkpt lat="43.8668234" lon="11.2967201"><ele>410.66666666666663</ele><time>2026-04-25T09:22:01.326Z</time></trkpt><trkpt lat="43.8669882" lon="11.2966426"><ele>408.33333333333337</ele><time>2026-04-25T09:22:02.311Z</time></trkpt><trkpt lat="43.8671456" lon="11.2965628"><ele>406.0</ele><time>2026-04-25T09:22:03.309Z</time></trkpt><trkpt lat="43.8672891" lon="11.2964625"><ele>405.25</ele><time>2026-04-25T09:22:04.317Z</time></trkpt><trkpt lat="43.8674007" lon="11.2963444"><ele>404.5</ele><time>2026-04-25T09:22:05.303Z</time></trkpt><trkpt lat="43.8674941" lon="11.2962027"><ele>403.75</ele><time>2026-04-25T09:22:06.321Z</time></trkpt><trkpt lat="43.8675542" lon="11.2960108"><ele>403.0</ele><time>2026-04-25T09:22:07.32Z</time></trkpt><trkpt lat="43.867588" lon="11.2958023"><ele>403.0</ele><time>2026-04-25T09:22:08.313Z</time></trkpt><trkpt lat="43.8675984" lon="11.2955887"><ele>403.0</ele><time>2026-04-25T09:22:09.321Z</time></trkpt><trkpt lat="43.8676139" lon="11.2954089"><ele>403.0</ele><time>2026-04-25T09:22:10.317Z</time></trkpt><trkpt lat="43.8676465" lon="11.295244"><ele>403.0</ele><time>2026-04-25T09:22:11.314Z</time></trkpt><trkpt lat="43.8677195" lon="11.2951059"><ele>401.33333333333337</ele><time>2026-04-25T09:22:12.315Z</time></trkpt><trkpt lat="43.8678371" lon="11.2949609"><ele>399.66666666666663</ele><time>2026-04-25T09:22:13.322Z</time></trkpt><trkpt lat="43.8679575" lon="11.2948145"><ele>398.0</ele><time>2026-04-25T09:22:14.319Z</time></trkpt><trkpt lat="43.8680959" lon="11.2946673"><ele>398.0</ele><time>2026-04-25T09:22:15.315Z</time></trkpt><trkpt lat="43.8682308" lon="11.2945035"><ele>398.0</ele><time>2026-04-25T09:22:16.31Z</time></trkpt><trkpt lat="43.8683603" lon="11.2943279"><ele>398.0</ele><time>2026-04-25T09:22:17.314Z</time></trkpt><trkpt lat="43.8684815" lon="11.2941503"><ele>392.66666666666663</ele><time>2026-04-25T09:22:18.316Z</time></trkpt><trkpt lat="43.8686026" lon="11.2939665"><ele>387.3333333333333</ele><time>2026-04-25T09:22:19.312Z</time></trkpt><trkpt lat="43.8687221" lon="11.2937766"><ele>382.0</ele><time>2026-04-25T09:22:20.326Z</time></trkpt><trkpt lat="43.8688384" lon="11.2935864"><ele>382.0</ele><time>2026-04-25T09:22:21.298Z</time></trkpt><trkpt lat="43.8689558" lon="11.2933933"><ele>382.0</ele><time>2026-04-25T09:22:22.318Z</time></trkpt><trkpt lat="43.8690719" lon="11.2932086"><ele>382.0</ele><time>2026-04-25T09:22:23.313Z</time></trkpt><trkpt lat="43.8691782" lon="11.2930225"><ele>383.3333333333333</ele><time>2026-04-25T09:22:24.313Z</time></trkpt><trkpt lat="43.86927" lon="11.2928281"><ele>384.66666666666663</ele><time>2026-04-25T09:22:25.319Z</time></trkpt><trkpt lat="43.8693343" lon="11.2926249"><ele>386.0</ele><time>2026-04-25T09:22:26.319Z</time></trkpt><trkpt lat="43.8693603" lon="11.2924198"><ele>380.5</ele><time>2026-04-25T09:22:27.321Z</time></trkpt><trkpt lat="43.8693936" lon="11.2922255"><ele>375.0</ele><time>2026-04-25T09:22:28.314Z</time></trkpt><trkpt lat="43.8694246" lon="11.2920396"><ele>369.5</ele><time>2026-04-25T09:22:29.32Z</time></trkpt><trkpt lat="43.8694671" lon="11.2918777"><ele>364.0</ele><time>2026-04-25T09:22:30.316Z</time></trkpt><trkpt lat="43.869523" lon="11.291727"><ele>364.0</ele><time>2026-04-25T09:22:31.316Z</time></trkpt><trkpt lat="43.8696133" lon="11.2915996"><ele>364.0</ele><time>2026-04-25T09:22:32.319Z</time></trkpt><trkpt lat="43.8697418" lon="11.2915121"><ele>364.0</ele><time>2026-04-25T09:22:33.287Z</time></trkpt><trkpt lat="43.8698814" lon="11.2914452"><ele>364.0</ele><time>2026-04-25T09:22:34.295Z</time></trkpt><trkpt lat="43.8700372" lon="11.2914265"><ele>365.0</ele><time>2026-04-25T09:22:35.293Z</time></trkpt><trkpt lat="43.8702024" lon="11.2914106"><ele>366.0</ele><time>2026-04-25T09:22:36.29Z</time></trkpt><trkpt lat="43.8703757" lon="11.2914056"><ele>367.0</ele><time>2026-04-25T09:22:37.31Z</time></trkpt><trkpt lat="43.8705516" lon="11.2914159"><ele>364.66666666666663</ele><time>2026-04-25T09:22:38.328Z</time></trkpt><trkpt lat="43.8707252" lon="11.2914436"><ele>362.3333333333333</ele><time>2026-04-25T09:22:39.317Z</time></trkpt><trkpt lat="43.8708975" lon="11.291487"><ele>360.0</ele><time>2026-04-25T09:22:40.332Z</time></trkpt><trkpt lat="43.8710653" lon="11.2915267"><ele>359.0</ele><time>2026-04-25T09:22:41.308Z</time></trkpt><trkpt lat="43.8712197" lon="11.291543"><ele>358.0</ele><time>2026-04-25T09:22:42.3Z</time></trkpt><trkpt lat="43.8713653" lon="11.2915148"><ele>357.0</ele><time>2026-04-25T09:22:43.308Z</time></trkpt><trkpt lat="43.8715051" lon="11.291461"><ele>356.0</ele><time>2026-04-25T09:22:44.306Z</time></trkpt><trkpt lat="43.8716385" lon="11.2913856"><ele>356.75</ele><time>2026-04-25T09:22:45.316Z</time></trkpt><trkpt lat="43.8717734" lon="11.291314"><ele>357.5</ele><time>2026-04-25T09:22:46.333Z</time></trkpt><trkpt lat="43.8718948" lon="11.2912427"><ele>358.25</ele><time>2026-04-25T09:22:47.322Z</time></trkpt><trkpt lat="43.8720238" lon="11.291177"><ele>359.0</ele><time>2026-04-25T09:22:48.312Z</time></trkpt><trkpt lat="43.8721576" lon="11.291104"><ele>359.0</ele><time>2026-04-25T09:22:49.325Z</time></trkpt><trkpt lat="43.8722882" lon="11.2910334"><ele>359.0</ele><time>2026-04-25T09:22:50.302Z</time></trkpt><trkpt lat="43.872415" lon="11.2909564"><ele>359.0</ele><time>2026-04-25T09:22:51.311Z</time></trkpt><trkpt lat="43.8725402" lon="11.2908869"><ele>359.0</ele><time>2026-04-25T09:22:52.328Z</time></trkpt><trkpt lat="43.8726662" lon="11.290822"><ele>357.5</ele><time>2026-04-25T09:22:53.319Z</time></trkpt><trkpt lat="43.8727866" lon="11.2907866"><ele>356.0</ele><time>2026-04-25T09:22:54.327Z</time></trkpt><trkpt lat="43.8729329" lon="11.2907744"><ele>354.5</ele><time>2026-04-25T09:22:55.322Z</time></trkpt><trkpt lat="43.8730858" lon="11.2907825"><ele>353.0</ele><time>2026-04-25T09:22:56.324Z</time></trkpt><trkpt lat="43.8732213" lon="11.290841"><ele>353.0</ele><time>2026-04-25T09:22:57.319Z</time></trkpt><trkpt lat="43.8733461" lon="11.2909348"><ele>353.0</ele><time>2026-04-25T09:22:58.315Z</time></trkpt><trkpt lat="43.873463" lon="11.2910239"><ele>353.0</ele><time>2026-04-25T09:22:59.332Z</time></trkpt><trkpt lat="43.8735764" lon="11.291113"><ele>353.0</ele><time>2026-04-25T09:23:00.324Z</time></trkpt><trkpt lat="43.8736842" lon="11.2911929"><ele>354.0</ele><time>2026-04-25T09:23:01.321Z</time></trkpt><trkpt lat="43.8737895" lon="11.2912668"><ele>355.0</ele><time>2026-04-25T09:23:02.321Z</time></trkpt><trkpt lat="43.8738957" lon="11.2913333"><ele>356.0</ele><time>2026-04-25T09:23:03.288Z</time></trkpt><trkpt lat="43.8739977" lon="11.2914053"><ele>357.0</ele><time>2026-04-25T09:23:04.28Z</time></trkpt><trkpt lat="43.874106" lon="11.2914734"><ele>354.75</ele><time>2026-04-25T09:23:05.318Z</time></trkpt><trkpt lat="43.8742146" lon="11.2915439"><ele>352.5</ele><time>2026-04-25T09:23:06.318Z</time></trkpt><trkpt lat="43.8743301" lon="11.2916115"><ele>350.25</ele><time>2026-04-25T09:23:07.317Z</time></trkpt><trkpt lat="43.8744448" lon="11.2916783"><ele>348.0</ele><time>2026-04-25T09:23:08.314Z</time></trkpt><trkpt lat="43.8745622" lon="11.2917432"><ele>348.0</ele><time>2026-04-25T09:23:09.296Z</time></trkpt><trkpt lat="43.8746725" lon="11.2918091"><ele>348.0</ele><time>2026-04-25T09:23:10.295Z</time></trkpt><trkpt lat="43.8747841" lon="11.2918601"><ele>348.0</ele><time>2026-04-25T09:23:11.32Z</time></trkpt><trkpt lat="43.8749003" lon="11.2919047"><ele>348.0</ele><time>2026-04-25T09:23:12.326Z</time></trkpt><trkpt lat="43.8750268" lon="11.2919263"><ele>346.75</ele><time>2026-04-25T09:23:13.324Z</time></trkpt><trkpt lat="43.8751594" lon="11.2919226"><ele>345.5</ele><time>2026-04-25T09:23:14.3Z</time></trkpt><trkpt lat="43.8753" lon="11.2918837"><ele>344.25</ele><time>2026-04-25T09:23:15.287Z</time></trkpt><trkpt lat="43.8754463" lon="11.2918365"><ele>343.0</ele><time>2026-04-25T09:23:16.309Z</time></trkpt><trkpt lat="43.8755923" lon="11.2917804"><ele>343.0</ele><time>2026-04-25T09:23:17.309Z</time></trkpt><trkpt lat="43.8757382" lon="11.2917119"><ele>343.0</ele><time>2026-04-25T09:23:18.299Z</time></trkpt><trkpt lat="43.875877" lon="11.2916425"><ele>343.0</ele><time>2026-04-25T09:23:19.289Z</time></trkpt><trkpt lat="43.8760323" lon="11.2915821"><ele>342.3333333333333</ele><time>2026-04-25T09:23:20.315Z</time></trkpt><trkpt lat="43.8761851" lon="11.2915333"><ele>341.6666666666667</ele><time>2026-04-25T09:23:21.313Z</time></trkpt><trkpt lat="43.8763425" lon="11.2915004"><ele>341.0</ele><time>2026-04-25T09:23:22.313Z</time></trkpt><trkpt lat="43.8765011" lon="11.2914716"><ele>341.0</ele><time>2026-04-25T09:23:23.306Z</time></trkpt><trkpt lat="43.876666" lon="11.2914313"><ele>341.0</ele><time>2026-04-25T09:23:24.314Z</time></trkpt><trkpt lat="43.8768299" lon="11.2913636"><ele>341.0</ele><time>2026-04-25T09:23:25.317Z</time></trkpt><trkpt lat="43.8769935" lon="11.2912682"><ele>341.0</ele><time>2026-04-25T09:23:26.317Z</time></trkpt><trkpt lat="43.8771707" lon="11.2911547"><ele>341.0</ele><time>2026-04-25T09:23:27.319Z</time></trkpt><trkpt lat="43.8773584" lon="11.2910256"><ele>341.0</ele><time>2026-04-25T09:23:28.308Z</time></trkpt><trkpt lat="43.877561" lon="11.2908877"><ele>341.33333333333337</ele><time>2026-04-25T09:23:29.306Z</time></trkpt><trkpt lat="43.8777586" lon="11.2907544"><ele>341.6666666666667</ele><time>2026-04-25T09:23:30.311Z</time></trkpt><trkpt lat="43.8779403" lon="11.2906376"><ele>342.0</ele><time>2026-04-25T09:23:31.317Z</time></trkpt><trkpt lat="43.878106" lon="11.2905252"><ele>342.0</ele><time>2026-04-25T09:23:32.305Z</time></trkpt><trkpt lat="43.8782531" lon="11.2904222"><ele>342.0</ele><time>2026-04-25T09:23:33.31Z</time></trkpt><trkpt lat="43.8783858" lon="11.2903029"><ele>342.0</ele><time>2026-04-25T09:23:34.323Z</time></trkpt><trkpt lat="43.8785092" lon="11.2901467"><ele>341.6666666666667</ele><time>2026-04-25T09:23:35.31Z</time></trkpt><trkpt lat="43.878633" lon="11.2899772"><ele>341.33333333333337</ele><time>2026-04-25T09:23:36.31Z</time></trkpt><trkpt lat="43.8787531" lon="11.2897969"><ele>341.0</ele><time>2026-04-25T09:23:37.31Z</time></trkpt><trkpt lat="43.8788736" lon="11.2896236"><ele>341.0</ele><time>2026-04-25T09:23:38.308Z</time></trkpt><trkpt lat="43.878998" lon="11.2894577"><ele>341.0</ele><time>2026-04-25T09:23:39.304Z</time></trkpt><trkpt lat="43.8791256" lon="11.2893281"><ele>341.0</ele><time>2026-04-25T09:23:40.296Z</time></trkpt><trkpt lat="43.8792545" lon="11.2892303"><ele>338.6666666666667</ele><time>2026-04-25T09:23:41.322Z</time></trkpt><trkpt lat="43.8793962" lon="11.2891403"><ele>336.3333333333333</ele><time>2026-04-25T09:23:42.314Z</time></trkpt><trkpt lat="43.8795558" lon="11.2890714"><ele>334.0</ele><time>2026-04-25T09:23:43.316Z</time></trkpt><trkpt lat="43.8797164" lon="11.2890304"><ele>334.0</ele><time>2026-04-25T09:23:44.311Z</time></trkpt><trkpt lat="43.8798863" lon="11.2889996"><ele>334.0</ele><time>2026-04-25T09:23:45.315Z</time></trkpt><trkpt lat="43.8800518" lon="11.2889863"><ele>334.0</ele><time>2026-04-25T09:23:46.317Z</time></trkpt><trkpt lat="43.8802131" lon="11.2889964"><ele>333.0</ele><time>2026-04-25T09:23:47.312Z</time></trkpt><trkpt lat="43.8803755" lon="11.2890021"><ele>332.0</ele><time>2026-04-25T09:23:48.316Z</time></trkpt><trkpt lat="43.8805405" lon="11.2889963"><ele>331.0</ele><time>2026-04-25T09:23:49.309Z</time></trkpt><trkpt lat="43.8807042" lon="11.2889606"><ele>336.0</ele><time>2026-04-25T09:23:50.313Z</time></trkpt><trkpt lat="43.8808661" lon="11.288916"><ele>341.0</ele><time>2026-04-25T09:23:51.302Z</time></trkpt><trkpt lat="43.8810271" lon="11.2888756"><ele>346.0</ele><time>2026-04-25T09:23:52.322Z</time></trkpt><trkpt lat="43.8811809" lon="11.2888264"><ele>346.0</ele><time>2026-04-25T09:23:53.308Z</time></trkpt><trkpt lat="43.8813258" lon="11.288783"><ele>346.0</ele><time>2026-04-25T09:23:54.312Z</time></trkpt><trkpt lat="43.8814506" lon="11.2887458"><ele>346.0</ele><time>2026-04-25T09:23:55.297Z</time></trkpt><trkpt lat="43.8815427" lon="11.2887193"><ele>346.0</ele><time>2026-04-25T09:23:56.307Z</time></trkpt><trkpt lat="43.8816081" lon="11.2886997"><ele>346.0</ele><time>2026-04-25T09:23:57.299Z</time></trkpt><trkpt lat="43.8816879" lon="11.2886788"><ele>346.0</ele><time>2026-04-25T09:23:59.306Z</time></trkpt><trkpt lat="43.8817584" lon="11.2886568"><ele>346.0</ele><time>2026-04-25T09:24:02.312Z</time></trkpt><trkpt lat="43.8818206" lon="11.2886272"><ele>346.0</ele><time>2026-04-25T09:24:04.301Z</time></trkpt><trkpt lat="43.881888" lon="11.2886112"><ele>346.0</ele><time>2026-04-25T09:24:06.31Z</time></trkpt><trkpt lat="43.8819565" lon="11.2885833"><ele>346.0</ele><time>2026-04-25T09:24:08.3Z</time></trkpt><trkpt lat="43.882036" lon="11.2885602"><ele>346.0</ele><time>2026-04-25T09:24:10.295Z</time></trkpt><trkpt lat="43.8821002" lon="11.2885453"><ele>346.0</ele><time>2026-04-25T09:24:12.306Z</time></trkpt><trkpt lat="43.882201" lon="11.2884992"><ele>345.4</ele><time>2026-04-25T09:24:39.308Z</time></trkpt><trkpt lat="43.8822786" lon="11.2884666"><ele>344.8</ele><time>2026-04-25T09:24:40.305Z</time></trkpt><trkpt lat="43.8823916" lon="11.2884505"><ele>344.2</ele><time>2026-04-25T09:24:41.304Z</time></trkpt><trkpt lat="43.8825136" lon="11.2884433"><ele>343.59999999999997</ele><time>2026-04-25T09:24:42.307Z</time></trkpt><trkpt lat="43.8826344" lon="11.2884197"><ele>343.0</ele><time>2026-04-25T09:24:43.314Z</time></trkpt><trkpt lat="43.8827465" lon="11.2884138"><ele>347.5</ele><time>2026-04-25T09:24:44.312Z</time></trkpt><trkpt lat="43.8828643" lon="11.2884344"><ele>352.0</ele><time>2026-04-25T09:24:45.303Z</time></trkpt><trkpt lat="43.8829843" lon="11.288476"><ele>356.5</ele><time>2026-04-25T09:24:46.312Z</time></trkpt><trkpt lat="43.8831007" lon="11.2885384"><ele>361.0</ele><time>2026-04-25T09:24:47.304Z</time></trkpt><trkpt lat="43.8832018" lon="11.2886391"><ele>361.0</ele><time>2026-04-25T09:24:48.304Z</time></trkpt><trkpt lat="43.8832951" lon="11.2887558"><ele>361.0</ele><time>2026-04-25T09:24:49.31Z</time></trkpt><trkpt lat="43.8833825" lon="11.2888847"><ele>361.0</ele><time>2026-04-25T09:24:50.299Z</time></trkpt><trkpt lat="43.883468" lon="11.2890075"><ele>361.0</ele><time>2026-04-25T09:24:51.305Z</time></trkpt><trkpt lat="43.8835548" lon="11.2891078"><ele>353.5</ele><time>2026-04-25T09:24:52.314Z</time></trkpt><trkpt lat="43.8836543" lon="11.2891806"><ele>346.0</ele><time>2026-04-25T09:24:53.317Z</time></trkpt><trkpt lat="43.8837669" lon="11.2891818"><ele>338.5</ele><time>2026-04-25T09:24:54.319Z</time></trkpt><trkpt lat="43.8838879" lon="11.2891617"><ele>331.0</ele><time>2026-04-25T09:24:55.287Z</time></trkpt><trkpt lat="43.8840253" lon="11.2891133"><ele>331.0</ele><time>2026-04-25T09:24:56.313Z</time></trkpt><trkpt lat="43.8841772" lon="11.2890742"><ele>331.0</ele><time>2026-04-25T09:24:57.302Z</time></trkpt><trkpt lat="43.8843363" lon="11.2890266"><ele>331.0</ele><time>2026-04-25T09:24:58.309Z</time></trkpt><trkpt lat="43.8845051" lon="11.288979"><ele>329.0</ele><time>2026-04-25T09:24:59.31Z</time></trkpt><trkpt lat="43.8846717" lon="11.2889383"><ele>327.0</ele><time>2026-04-25T09:25:00.293Z</time></trkpt><trkpt lat="43.884841" lon="11.288888"><ele>325.0</ele><time>2026-04-25T09:25:01.303Z</time></trkpt><trkpt lat="43.8850095" lon="11.2888332"><ele>327.0</ele><time>2026-04-25T09:25:02.305Z</time></trkpt><trkpt lat="43.8851758" lon="11.2887761"><ele>329.0</ele><time>2026-04-25T09:25:03.311Z</time></trkpt><trkpt lat="43.8853378" lon="11.2887229"><ele>331.0</ele><time>2026-04-25T09:25:04.294Z</time></trkpt><trkpt lat="43.8855013" lon="11.2886726"><ele>331.0</ele><time>2026-04-25T09:25:05.292Z</time></trkpt><trkpt lat="43.8856623" lon="11.2886236"><ele>331.0</ele><time>2026-04-25T09:25:06.303Z</time></trkpt><trkpt lat="43.885823" lon="11.2885848"><ele>331.0</ele><time>2026-04-25T09:25:07.307Z</time></trkpt><trkpt lat="43.8859817" lon="11.2885583"><ele>332.3333333333333</ele><time>2026-04-25T09:25:08.312Z</time></trkpt><trkpt lat="43.8861431" lon="11.2885526"><ele>333.6666666666667</ele><time>2026-04-25T09:25:09.31Z</time></trkpt><trkpt lat="43.8862972" lon="11.2885775"><ele>335.0</ele><time>2026-04-25T09:25:10.319Z</time></trkpt><trkpt lat="43.8864577" lon="11.2886467"><ele>335.0</ele><time>2026-04-25T09:25:11.302Z</time></trkpt><trkpt lat="43.8866072" lon="11.288757"><ele>335.0</ele><time>2026-04-25T09:25:12.306Z</time></trkpt><trkpt lat="43.8867486" lon="11.2888645"><ele>335.0</ele><time>2026-04-25T09:25:13.313Z</time></trkpt><trkpt lat="43.8869115" lon="11.2889221"><ele>329.6666666666667</ele><time>2026-04-25T09:25:14.31Z</time></trkpt><trkpt lat="43.887079" lon="11.288967"><ele>324.3333333333333</ele><time>2026-04-25T09:25:15.307Z</time></trkpt><trkpt lat="43.8872569" lon="11.2889888"><ele>319.0</ele><time>2026-04-25T09:25:16.307Z</time></trkpt><trkpt lat="43.8874197" lon="11.2889804"><ele>318.66666666666663</ele><time>2026-04-25T09:25:17.29Z</time></trkpt><trkpt lat="43.8875677" lon="11.2889236"><ele>318.3333333333333</ele><time>2026-04-25T09:25:18.304Z</time></trkpt><trkpt lat="43.8877098" lon="11.2888055"><ele>318.0</ele><time>2026-04-25T09:25:19.307Z</time></trkpt><trkpt lat="43.8878402" lon="11.2886433"><ele>318.0</ele><time>2026-04-25T09:25:20.312Z</time></trkpt><trkpt lat="43.8879865" lon="11.2884865"><ele>318.0</ele><time>2026-04-25T09:25:21.29Z</time></trkpt><trkpt lat="43.8881299" lon="11.288351"><ele>318.0</ele><time>2026-04-25T09:25:22.314Z</time></trkpt><trkpt lat="43.888287" lon="11.2882168"><ele>318.3333333333333</ele><time>2026-04-25T09:25:23.322Z</time></trkpt><trkpt lat="43.8884447" lon="11.2881069"><ele>318.66666666666663</ele><time>2026-04-25T09:25:24.314Z</time></trkpt><trkpt lat="43.8886126" lon="11.2880337"><ele>319.0</ele><time>2026-04-25T09:25:25.308Z</time></trkpt><trkpt lat="43.8887839" lon="11.2880131"><ele>319.0</ele><time>2026-04-25T09:25:26.293Z</time></trkpt><trkpt lat="43.8889574" lon="11.2880141"><ele>319.0</ele><time>2026-04-25T09:25:27.323Z</time></trkpt><trkpt lat="43.8891254" lon="11.2880745"><ele>319.0</ele><time>2026-04-25T09:25:28.319Z</time></trkpt><trkpt lat="43.8892814" lon="11.2881742"><ele>316.0</ele><time>2026-04-25T09:25:29.326Z</time></trkpt><trkpt lat="43.8894408" lon="11.2882613"><ele>313.0</ele><time>2026-04-25T09:25:30.32Z</time></trkpt><trkpt lat="43.8896005" lon="11.2883152"><ele>310.0</ele><time>2026-04-25T09:25:31.304Z</time></trkpt><trkpt lat="43.8897749" lon="11.2882998"><ele>310.0</ele><time>2026-04-25T09:25:32.337Z</time></trkpt><trkpt lat="43.8899483" lon="11.2882561"><ele>310.0</ele><time>2026-04-25T09:25:33.326Z</time></trkpt><trkpt lat="43.8901237" lon="11.2881807"><ele>310.0</ele><time>2026-04-25T09:25:34.325Z</time></trkpt><trkpt lat="43.8902828" lon="11.2881188"><ele>309.66666666666663</ele><time>2026-04-25T09:25:35.326Z</time></trkpt><trkpt lat="43.8904425" lon="11.2881034"><ele>309.3333333333333</ele><time>2026-04-25T09:25:36.313Z</time></trkpt><trkpt lat="43.8905998" lon="11.2880993"><ele>309.0</ele><time>2026-04-25T09:25:37.306Z</time></trkpt><trkpt lat="43.8907478" lon="11.2880543"><ele>309.0</ele><time>2026-04-25T09:25:38.324Z</time></trkpt><trkpt lat="43.890859" lon="11.2879524"><ele>309.0</ele><time>2026-04-25T09:25:39.302Z</time></trkpt><trkpt lat="43.8909588" lon="11.287802"><ele>309.0</ele><time>2026-04-25T09:25:40.316Z</time></trkpt><trkpt lat="43.8910264" lon="11.2876104"><ele>309.0</ele><time>2026-04-25T09:25:41.313Z</time></trkpt><trkpt lat="43.8910871" lon="11.287391"><ele>308.0</ele><time>2026-04-25T09:25:42.31Z</time></trkpt><trkpt lat="43.8911362" lon="11.2871607"><ele>307.0</ele><time>2026-04-25T09:25:43.32Z</time></trkpt><trkpt lat="43.891194" lon="11.2869473"><ele>306.0</ele><time>2026-04-25T09:25:44.32Z</time></trkpt><trkpt lat="43.8912747" lon="11.2867611"><ele>306.0</ele><time>2026-04-25T09:25:45.323Z</time></trkpt><trkpt lat="43.8913863" lon="11.2865941"><ele>306.0</ele><time>2026-04-25T09:25:46.302Z</time></trkpt><trkpt lat="43.8915216" lon="11.2864603"><ele>306.0</ele><time>2026-04-25T09:25:47.32Z</time></trkpt><trkpt lat="43.8916603" lon="11.2863627"><ele>304.6666666666667</ele><time>2026-04-25T09:25:48.309Z</time></trkpt><trkpt lat="43.891775" lon="11.2862345"><ele>303.33333333333337</ele><time>2026-04-25T09:25:49.309Z</time></trkpt><trkpt lat="43.891874" lon="11.286076"><ele>302.0</ele><time>2026-04-25T09:25:50.326Z</time></trkpt><trkpt lat="43.8919787" lon="11.2858853"><ele>302.0</ele><time>2026-04-25T09:25:51.307Z</time></trkpt><trkpt lat="43.8920976" lon="11.2856974"><ele>302.0</ele><time>2026-04-25T09:25:52.319Z</time></trkpt><trkpt lat="43.8922465" lon="11.2855301"><ele>302.0</ele><time>2026-04-25T09:25:53.312Z</time></trkpt><trkpt lat="43.8924081" lon="11.2853874"><ele>302.33333333333337</ele><time>2026-04-25T09:25:54.315Z</time></trkpt><trkpt lat="43.8925794" lon="11.2852734"><ele>302.6666666666667</ele><time>2026-04-25T09:25:55.32Z</time></trkpt><trkpt lat="43.8927595" lon="11.2851718"><ele>303.0</ele><time>2026-04-25T09:25:56.32Z</time></trkpt><trkpt lat="43.8929508" lon="11.2850545"><ele>303.0</ele><time>2026-04-25T09:25:57.306Z</time></trkpt><trkpt lat="43.8931347" lon="11.2849478"><ele>303.0</ele><time>2026-04-25T09:25:58.293Z</time></trkpt><trkpt lat="43.8933184" lon="11.2848443"><ele>303.0</ele><time>2026-04-25T09:25:59.299Z</time></trkpt><trkpt lat="43.8935051" lon="11.2847325"><ele>302.0</ele><time>2026-04-25T09:26:00.297Z</time></trkpt><trkpt lat="43.8936937" lon="11.2846229"><ele>301.0</ele><time>2026-04-25T09:26:01.316Z</time></trkpt><trkpt lat="43.8938864" lon="11.2845103"><ele>300.0</ele><time>2026-04-25T09:26:02.324Z</time></trkpt><trkpt lat="43.8940809" lon="11.2843955"><ele>301.3333333333333</ele><time>2026-04-25T09:26:03.303Z</time></trkpt><trkpt lat="43.894267" lon="11.2842816"><ele>302.66666666666663</ele><time>2026-04-25T09:26:04.292Z</time></trkpt><trkpt lat="43.894446" lon="11.2841683"><ele>304.0</ele><time>2026-04-25T09:26:05.302Z</time></trkpt><trkpt lat="43.8946254" lon="11.2840568"><ele>304.0</ele><time>2026-04-25T09:26:06.307Z</time></trkpt><trkpt lat="43.8948077" lon="11.2839444"><ele>304.0</ele><time>2026-04-25T09:26:07.314Z</time></trkpt><trkpt lat="43.8949868" lon="11.2838355"><ele>304.0</ele><time>2026-04-25T09:26:08.303Z</time></trkpt><trkpt lat="43.8951646" lon="11.2837285"><ele>302.3333333333333</ele><time>2026-04-25T09:26:09.301Z</time></trkpt><trkpt lat="43.8953464" lon="11.2836219"><ele>300.6666666666667</ele><time>2026-04-25T09:26:10.32Z</time></trkpt><trkpt lat="43.8955268" lon="11.283518"><ele>299.0</ele><time>2026-04-25T09:26:11.322Z</time></trkpt><trkpt lat="43.895707" lon="11.2834225"><ele>299.0</ele><time>2026-04-25T09:26:12.305Z</time></trkpt><trkpt lat="43.895882" lon="11.2833234"><ele>299.0</ele><time>2026-04-25T09:26:13.305Z</time></trkpt><trkpt lat="43.8960511" lon="11.2832215"><ele>299.0</ele><time>2026-04-25T09:26:14.312Z</time></trkpt><trkpt lat="43.8962119" lon="11.2831313"><ele>299.0</ele><time>2026-04-25T09:26:15.316Z</time></trkpt><trkpt lat="43.8963614" lon="11.2830385"><ele>299.0</ele><time>2026-04-25T09:26:16.313Z</time></trkpt><trkpt lat="43.8965057" lon="11.2829492"><ele>299.0</ele><time>2026-04-25T09:26:17.303Z</time></trkpt><trkpt lat="43.8966462" lon="11.2828918"><ele>302.5</ele><time>2026-04-25T09:26:18.321Z</time></trkpt><trkpt lat="43.8967837" lon="11.2828588"><ele>306.0</ele><time>2026-04-25T09:26:19.318Z</time></trkpt><trkpt lat="43.8969273" lon="11.2828529"><ele>309.5</ele><time>2026-04-25T09:26:20.291Z</time></trkpt><trkpt lat="43.8970752" lon="11.2828812"><ele>313.0</ele><time>2026-04-25T09:26:21.321Z</time></trkpt><trkpt lat="43.8972185" lon="11.2829515"><ele>313.0</ele><time>2026-04-25T09:26:22.312Z</time></trkpt><trkpt lat="43.8973508" lon="11.2830638"><ele>313.0</ele><time>2026-04-25T09:26:23.314Z</time></trkpt><trkpt lat="43.8974797" lon="11.2831876"><ele>313.0</ele><time>2026-04-25T09:26:24.313Z</time></trkpt><trkpt lat="43.8976093" lon="11.283321"><ele>312.66666666666663</ele><time>2026-04-25T09:26:25.326Z</time></trkpt><trkpt lat="43.8977448" lon="11.2834432"><ele>312.3333333333333</ele><time>2026-04-25T09:26:26.313Z</time></trkpt><trkpt lat="43.8978848" lon="11.2835446"><ele>312.0</ele><time>2026-04-25T09:26:27.321Z</time></trkpt><trkpt lat="43.8980321" lon="11.2836129"><ele>312.0</ele><time>2026-04-25T09:26:28.327Z</time></trkpt><trkpt lat="43.8981912" lon="11.2836373"><ele>312.0</ele><time>2026-04-25T09:26:29.311Z</time></trkpt><trkpt lat="43.8983575" lon="11.283626"><ele>312.0</ele><time>2026-04-25T09:26:30.328Z</time></trkpt><trkpt lat="43.8985201" lon="11.2835885"><ele>308.0</ele><time>2026-04-25T09:26:31.318Z</time></trkpt><trkpt lat="43.8986774" lon="11.2835109"><ele>304.0</ele><time>2026-04-25T09:26:32.308Z</time></trkpt><trkpt lat="43.8988404" lon="11.283429"><ele>300.0</ele><time>2026-04-25T09:26:33.299Z</time></trkpt><trkpt lat="43.8990123" lon="11.2833627"><ele>300.0</ele><time>2026-04-25T09:26:34.322Z</time></trkpt><trkpt lat="43.8991922" lon="11.2832993"><ele>300.0</ele><time>2026-04-25T09:26:35.325Z</time></trkpt><trkpt lat="43.8993831" lon="11.2832576"><ele>300.0</ele><time>2026-04-25T09:26:36.307Z</time></trkpt><trkpt lat="43.899577" lon="11.2832206"><ele>297.6666666666667</ele><time>2026-04-25T09:26:37.303Z</time></trkpt><trkpt lat="43.8997659" lon="11.28319"><ele>295.33333333333337</ele><time>2026-04-25T09:26:38.306Z</time></trkpt><trkpt lat="43.8999399" lon="11.2831534"><ele>293.0</ele><time>2026-04-25T09:26:39.304Z</time></trkpt><trkpt lat="43.9000947" lon="11.283102"><ele>295.33333333333337</ele><time>2026-04-25T09:26:40.3Z</time></trkpt><trkpt lat="43.9002443" lon="11.2830172"><ele>297.6666666666667</ele><time>2026-04-25T09:26:41.305Z</time></trkpt><trkpt lat="43.9003793" lon="11.2829099"><ele>300.0</ele><time>2026-04-25T09:26:42.307Z</time></trkpt><trkpt lat="43.9005106" lon="11.2828043"><ele>300.0</ele><time>2026-04-25T09:26:43.307Z</time></trkpt><trkpt lat="43.9006488" lon="11.282718"><ele>300.0</ele><time>2026-04-25T09:26:44.304Z</time></trkpt><trkpt lat="43.9007919" lon="11.2826546"><ele>300.0</ele><time>2026-04-25T09:26:45.307Z</time></trkpt><trkpt lat="43.9009472" lon="11.2826193"><ele>297.0</ele><time>2026-04-25T09:26:46.31Z</time></trkpt><trkpt lat="43.9011165" lon="11.2826248"><ele>294.0</ele><time>2026-04-25T09:26:47.304Z</time></trkpt><trkpt lat="43.9012918" lon="11.2826598"><ele>291.0</ele><time>2026-04-25T09:26:48.321Z</time></trkpt><trkpt lat="43.901463" lon="11.2827165"><ele>291.0</ele><time>2026-04-25T09:26:49.303Z</time></trkpt><trkpt lat="43.9016343" lon="11.2827862"><ele>291.0</ele><time>2026-04-25T09:26:50.308Z</time></trkpt><trkpt lat="43.9018081" lon="11.2828702"><ele>291.0</ele><time>2026-04-25T09:26:51.305Z</time></trkpt><trkpt lat="43.9019857" lon="11.2829459"><ele>292.0</ele><time>2026-04-25T09:26:52.302Z</time></trkpt><trkpt lat="43.9021612" lon="11.2830099"><ele>293.0</ele><time>2026-04-25T09:26:53.313Z</time></trkpt><trkpt lat="43.9023422" lon="11.2830725"><ele>294.0</ele><time>2026-04-25T09:26:54.318Z</time></trkpt><trkpt lat="43.9025243" lon="11.2831296"><ele>292.3333333333333</ele><time>2026-04-25T09:26:55.303Z</time></trkpt><trkpt lat="43.9027131" lon="11.2831551"><ele>290.66666666666663</ele><time>2026-04-25T09:26:56.312Z</time></trkpt><trkpt lat="43.9029197" lon="11.2831697"><ele>289.0</ele><time>2026-04-25T09:26:57.307Z</time></trkpt><trkpt lat="43.9031217" lon="11.2831786"><ele>289.0</ele><time>2026-04-25T09:26:58.31Z</time></trkpt><trkpt lat="43.9033319" lon="11.2831755"><ele>289.0</ele><time>2026-04-25T09:26:59.31Z</time></trkpt><trkpt lat="43.9035402" lon="11.2831638"><ele>289.0</ele><time>2026-04-25T09:27:00.308Z</time></trkpt><trkpt lat="43.9037448" lon="11.2831579"><ele>288.0</ele><time>2026-04-25T09:27:01.311Z</time></trkpt><trkpt lat="43.9039452" lon="11.2831565"><ele>287.0</ele><time>2026-04-25T09:27:02.313Z</time></trkpt><trkpt lat="43.9041377" lon="11.2831567"><ele>286.0</ele><time>2026-04-25T09:27:03.313Z</time></trkpt><trkpt lat="43.904323" lon="11.2831452"><ele>284.66666666666663</ele><time>2026-04-25T09:27:04.293Z</time></trkpt><trkpt lat="43.9045043" lon="11.2831345"><ele>283.3333333333333</ele><time>2026-04-25T09:27:05.295Z</time></trkpt><trkpt lat="43.9046823" lon="11.2830942"><ele>282.0</ele><time>2026-04-25T09:27:06.306Z</time></trkpt><trkpt lat="43.9048548" lon="11.2830484"><ele>282.0</ele><time>2026-04-25T09:27:07.303Z</time></trkpt><trkpt lat="43.9050167" lon="11.2830086"><ele>282.0</ele><time>2026-04-25T09:27:08.296Z</time></trkpt><trkpt lat="43.9055813" lon="11.2825956"><ele>283.0</ele><time>2026-04-25T09:27:12.304Z</time></trkpt><trkpt lat="43.9058306" lon="11.2825036"><ele>284.0</ele><time>2026-04-25T09:27:13.312Z</time></trkpt><trkpt lat="43.9060254" lon="11.2824523"><ele>284.0</ele><time>2026-04-25T09:27:14.31Z</time></trkpt><trkpt lat="43.9061998" lon="11.2824417"><ele>284.0</ele><time>2026-04-25T09:27:15.311Z</time></trkpt><trkpt lat="43.9063865" lon="11.2824377"><ele>284.0</ele><time>2026-04-25T09:27:16.309Z</time></trkpt><trkpt lat="43.9065814" lon="11.2824243"><ele>283.33333333333337</ele><time>2026-04-25T09:27:17.308Z</time></trkpt><trkpt lat="43.9067902" lon="11.2824127"><ele>282.6666666666667</ele><time>2026-04-25T09:27:18.311Z</time></trkpt><trkpt lat="43.9070295" lon="11.2823918"><ele>282.0</ele><time>2026-04-25T09:27:19.311Z</time></trkpt><trkpt lat="43.907273" lon="11.2823755"><ele>282.0</ele><time>2026-04-25T09:27:20.315Z</time></trkpt><trkpt lat="43.9075184" lon="11.2823549"><ele>282.0</ele><time>2026-04-25T09:27:21.314Z</time></trkpt><trkpt lat="43.9077555" lon="11.2823381"><ele>282.5</ele><time>2026-04-25T09:27:22.314Z</time></trkpt><trkpt lat="43.9079889" lon="11.282321"><ele>283.0</ele><time>2026-04-25T09:27:23.326Z</time></trkpt><trkpt lat="43.9082181" lon="11.2823052"><ele>282.5</ele><time>2026-04-25T09:27:24.315Z</time></trkpt><trkpt lat="43.9084468" lon="11.2822909"><ele>282.0</ele><time>2026-04-25T09:27:25.311Z</time></trkpt><trkpt lat="43.9086732" lon="11.282276"><ele>280.3333333333333</ele><time>2026-04-25T09:27:26.318Z</time></trkpt><trkpt lat="43.9089009" lon="11.2822599"><ele>278.66666666666663</ele><time>2026-04-25T09:27:27.316Z</time></trkpt><trkpt lat="43.9091208" lon="11.2822299"><ele>277.0</ele><time>2026-04-25T09:27:28.313Z</time></trkpt><trkpt lat="43.9093408" lon="11.2821829"><ele>277.0</ele><time>2026-04-25T09:27:29.311Z</time></trkpt><trkpt lat="43.9095536" lon="11.2821247"><ele>277.0</ele><time>2026-04-25T09:27:30.302Z</time></trkpt><trkpt lat="43.9097657" lon="11.2820544"><ele>277.0</ele><time>2026-04-25T09:27:31.313Z</time></trkpt><trkpt lat="43.9099759" lon="11.2819866"><ele>276.66666666666663</ele><time>2026-04-25T09:27:32.32Z</time></trkpt><trkpt lat="43.9101725" lon="11.2819174"><ele>276.3333333333333</ele><time>2026-04-25T09:27:33.325Z</time></trkpt><trkpt lat="43.9103672" lon="11.2818553"><ele>276.0</ele><time>2026-04-25T09:27:34.32Z</time></trkpt><trkpt lat="43.9105655" lon="11.2818117"><ele>276.0</ele><time>2026-04-25T09:27:35.311Z</time></trkpt><trkpt lat="43.9107688" lon="11.281824"><ele>276.0</ele><time>2026-04-25T09:27:36.327Z</time></trkpt><trkpt lat="43.9109712" lon="11.2818816"><ele>276.0</ele><time>2026-04-25T09:27:37.338Z</time></trkpt><trkpt lat="43.9111666" lon="11.281989"><ele>275.3333333333333</ele><time>2026-04-25T09:27:38.329Z</time></trkpt><trkpt lat="43.9113502" lon="11.2821222"><ele>274.66666666666663</ele><time>2026-04-25T09:27:39.325Z</time></trkpt><trkpt lat="43.9115122" lon="11.282285"><ele>274.0</ele><time>2026-04-25T09:27:40.311Z</time></trkpt><trkpt lat="43.9116569" lon="11.2824857"><ele>275.0</ele><time>2026-04-25T09:27:41.32Z</time></trkpt><trkpt lat="43.9117934" lon="11.2827102"><ele>276.0</ele><time>2026-04-25T09:27:42.319Z</time></trkpt><trkpt lat="43.9119173" lon="11.2829198"><ele>277.0</ele><time>2026-04-25T09:27:43.298Z</time></trkpt><trkpt lat="43.9120724" lon="11.2831238"><ele>276.3333333333333</ele><time>2026-04-25T09:27:44.331Z</time></trkpt><trkpt lat="43.9122481" lon="11.2832803"><ele>275.6666666666667</ele><time>2026-04-25T09:27:45.328Z</time></trkpt><trkpt lat="43.9124437" lon="11.2834162"><ele>275.0</ele><time>2026-04-25T09:27:46.312Z</time></trkpt><trkpt lat="43.9126601" lon="11.2835452"><ele>275.0</ele><time>2026-04-25T09:27:47.322Z</time></trkpt><trkpt lat="43.9128709" lon="11.2836792"><ele>275.0</ele><time>2026-04-25T09:27:48.33Z</time></trkpt><trkpt lat="43.9130812" lon="11.2838058"><ele>276.33333333333337</ele><time>2026-04-25T09:27:49.325Z</time></trkpt><trkpt lat="43.913278" lon="11.2839375"><ele>277.6666666666667</ele><time>2026-04-25T09:27:50.311Z</time></trkpt><trkpt lat="43.913477" lon="11.284046"><ele>279.0</ele><time>2026-04-25T09:27:51.312Z</time></trkpt><trkpt lat="43.9136823" lon="11.2841216"><ele>279.0</ele><time>2026-04-25T09:27:52.322Z</time></trkpt><trkpt lat="43.9138866" lon="11.2841636"><ele>279.0</ele><time>2026-04-25T09:27:53.314Z</time></trkpt><trkpt lat="43.9140893" lon="11.2841609"><ele>279.0</ele><time>2026-04-25T09:27:54.314Z</time></trkpt><trkpt lat="43.9142926" lon="11.284133"><ele>277.6666666666667</ele><time>2026-04-25T09:27:55.315Z</time></trkpt><trkpt lat="43.9144966" lon="11.2840804"><ele>276.33333333333337</ele><time>2026-04-25T09:27:56.322Z</time></trkpt><trkpt lat="43.9146929" lon="11.2839859"><ele>275.0</ele><time>2026-04-25T09:27:57.316Z</time></trkpt><trkpt lat="43.9148802" lon="11.2838624"><ele>273.0</ele><time>2026-04-25T09:27:58.326Z</time></trkpt><trkpt lat="43.9150743" lon="11.2837338"><ele>271.0</ele><time>2026-04-25T09:27:59.336Z</time></trkpt><trkpt lat="43.9152627" lon="11.2835859"><ele>269.0</ele><time>2026-04-25T09:28:00.329Z</time></trkpt><trkpt lat="43.9154371" lon="11.2834503"><ele>269.0</ele><time>2026-04-25T09:28:01.304Z</time></trkpt><trkpt lat="43.915607" lon="11.2833251"><ele>269.0</ele><time>2026-04-25T09:28:02.312Z</time></trkpt><trkpt lat="43.9157652" lon="11.2832076"><ele>269.0</ele><time>2026-04-25T09:28:03.339Z</time></trkpt><trkpt lat="43.9159209" lon="11.2831124"><ele>278.0</ele><time>2026-04-25T09:28:04.314Z</time></trkpt><trkpt lat="43.9160834" lon="11.2830452"><ele>287.0</ele><time>2026-04-25T09:28:05.321Z</time></trkpt><trkpt lat="43.9162457" lon="11.2829895"><ele>296.0</ele><time>2026-04-25T09:28:06.325Z</time></trkpt><trkpt lat="43.9164148" lon="11.2829548"><ele>296.0</ele><time>2026-04-25T09:28:07.325Z</time></trkpt><trkpt lat="43.9165841" lon="11.2829538"><ele>296.0</ele><time>2026-04-25T09:28:08.303Z</time></trkpt><trkpt lat="43.9167465" lon="11.2829719"><ele>296.0</ele><time>2026-04-25T09:28:09.323Z</time></trkpt><trkpt lat="43.9169026" lon="11.2830143"><ele>291.6666666666667</ele><time>2026-04-25T09:28:10.332Z</time></trkpt><trkpt lat="43.9170498" lon="11.283081"><ele>287.3333333333333</ele><time>2026-04-25T09:28:11.326Z</time></trkpt><trkpt lat="43.917189" lon="11.2831466"><ele>283.0</ele><time>2026-04-25T09:28:12.336Z</time></trkpt><trkpt lat="43.9173341" lon="11.2832373"><ele>283.0</ele><time>2026-04-25T09:28:13.32Z</time></trkpt><trkpt lat="43.9174807" lon="11.2833528"><ele>283.0</ele><time>2026-04-25T09:28:14.33Z</time></trkpt><trkpt lat="43.9176274" lon="11.283527"><ele>283.0</ele><time>2026-04-25T09:28:15.328Z</time></trkpt><trkpt lat="43.917765" lon="11.2837023"><ele>281.0</ele><time>2026-04-25T09:28:16.331Z</time></trkpt><trkpt lat="43.9179019" lon="11.2838782"><ele>279.0</ele><time>2026-04-25T09:28:17.322Z</time></trkpt><trkpt lat="43.9180381" lon="11.2840657"><ele>277.0</ele><time>2026-04-25T09:28:18.319Z</time></trkpt><trkpt lat="43.9181776" lon="11.2842691"><ele>277.0</ele><time>2026-04-25T09:28:19.309Z</time></trkpt><trkpt lat="43.9183157" lon="11.2844607"><ele>277.0</ele><time>2026-04-25T09:28:20.317Z</time></trkpt><trkpt lat="43.91845" lon="11.2846282"><ele>277.0</ele><time>2026-04-25T09:28:21.331Z</time></trkpt><trkpt lat="43.9185902" lon="11.2847691"><ele>273.66666666666663</ele><time>2026-04-25T09:28:22.319Z</time></trkpt><trkpt lat="43.9187473" lon="11.2848893"><ele>270.3333333333333</ele><time>2026-04-25T09:28:23.307Z</time></trkpt><trkpt lat="43.9189186" lon="11.2849514"><ele>267.0</ele><time>2026-04-25T09:28:24.308Z</time></trkpt><trkpt lat="43.9190983" lon="11.2849927"><ele>267.0</ele><time>2026-04-25T09:28:25.321Z</time></trkpt><trkpt lat="43.9192879" lon="11.285011"><ele>267.0</ele><time>2026-04-25T09:28:26.319Z</time></trkpt><trkpt lat="43.9194838" lon="11.2849832"><ele>267.0</ele><time>2026-04-25T09:28:27.323Z</time></trkpt><trkpt lat="43.9196777" lon="11.2849565"><ele>267.0</ele><time>2026-04-25T09:28:28.323Z</time></trkpt><trkpt lat="43.9198715" lon="11.2849497"><ele>267.0</ele><time>2026-04-25T09:28:29.313Z</time></trkpt><trkpt lat="43.9200694" lon="11.2849819"><ele>267.0</ele><time>2026-04-25T09:28:30.309Z</time></trkpt><trkpt lat="43.9202555" lon="11.2850535"><ele>268.0</ele><time>2026-04-25T09:28:31.304Z</time></trkpt><trkpt lat="43.9204383" lon="11.2851495"><ele>269.0</ele><time>2026-04-25T09:28:32.311Z</time></trkpt><trkpt lat="43.9206089" lon="11.2852678"><ele>270.0</ele><time>2026-04-25T09:28:33.324Z</time></trkpt><trkpt lat="43.9207738" lon="11.2853974"><ele>270.0</ele><time>2026-04-25T09:28:34.325Z</time></trkpt><trkpt lat="43.9209175" lon="11.2855451"><ele>270.0</ele><time>2026-04-25T09:28:35.319Z</time></trkpt><trkpt lat="43.9210577" lon="11.2857284"><ele>270.0</ele><time>2026-04-25T09:28:36.321Z</time></trkpt><trkpt lat="43.9212035" lon="11.2859193"><ele>270.0</ele><time>2026-04-25T09:28:37.31Z</time></trkpt><trkpt lat="43.9213567" lon="11.2861445"><ele>270.0</ele><time>2026-04-25T09:28:38.323Z</time></trkpt><trkpt lat="43.9215152" lon="11.2863937"><ele>266.0</ele><time>2026-04-25T09:28:39.32Z</time></trkpt><trkpt lat="43.9216726" lon="11.2866428"><ele>262.0</ele><time>2026-04-25T09:28:40.326Z</time></trkpt><trkpt lat="43.9218369" lon="11.2869074"><ele>267.0</ele><time>2026-04-25T09:28:41.315Z</time></trkpt><trkpt lat="43.9219932" lon="11.2871585"><ele>272.0</ele><time>2026-04-25T09:28:42.307Z</time></trkpt><trkpt lat="43.9221384" lon="11.2874021"><ele>272.0</ele><time>2026-04-25T09:28:43.327Z</time></trkpt><trkpt lat="43.9222727" lon="11.28763"><ele>272.0</ele><time>2026-04-25T09:28:44.319Z</time></trkpt><trkpt lat="43.9223991" lon="11.2878373"><ele>272.0</ele><time>2026-04-25T09:28:45.316Z</time></trkpt><trkpt lat="43.9225148" lon="11.2880236"><ele>273.33333333333337</ele><time>2026-04-25T09:28:46.317Z</time></trkpt><trkpt lat="43.9226291" lon="11.2881799"><ele>274.6666666666667</ele><time>2026-04-25T09:28:47.318Z</time></trkpt><trkpt lat="43.9227524" lon="11.2883143"><ele>276.0</ele><time>2026-04-25T09:28:48.323Z</time></trkpt><trkpt lat="43.922908" lon="11.288415"><ele>276.0</ele><time>2026-04-25T09:28:49.321Z</time></trkpt><trkpt lat="43.9230792" lon="11.2885111"><ele>276.0</ele><time>2026-04-25T09:28:50.313Z</time></trkpt><trkpt lat="43.9232496" lon="11.2885853"><ele>276.0</ele><time>2026-04-25T09:28:51.323Z</time></trkpt><trkpt lat="43.923429" lon="11.2886404"><ele>278.3333333333333</ele><time>2026-04-25T09:28:52.324Z</time></trkpt><trkpt lat="43.9236228" lon="11.2886737"><ele>280.66666666666663</ele><time>2026-04-25T09:28:53.32Z</time></trkpt><trkpt lat="43.9238088" lon="11.2886882"><ele>283.0</ele><time>2026-04-25T09:28:54.315Z</time></trkpt><trkpt lat="43.923989" lon="11.2886626"><ele>283.0</ele><time>2026-04-25T09:28:55.303Z</time></trkpt><trkpt lat="43.9241635" lon="11.2886174"><ele>283.0</ele><time>2026-04-25T09:28:56.304Z</time></trkpt><trkpt lat="43.9243321" lon="11.2885859"><ele>283.0</ele><time>2026-04-25T09:28:57.308Z</time></trkpt><trkpt lat="43.92449" lon="11.2885799"><ele>284.0</ele><time>2026-04-25T09:28:58.309Z</time></trkpt><trkpt lat="43.924674" lon="11.2886554"><ele>285.0</ele><time>2026-04-25T09:28:59.309Z</time></trkpt><trkpt lat="43.9248428" lon="11.2887811"><ele>286.0</ele><time>2026-04-25T09:29:00.33Z</time></trkpt><trkpt lat="43.9250163" lon="11.2889101"><ele>277.0</ele><time>2026-04-25T09:29:01.314Z</time></trkpt><trkpt lat="43.9251825" lon="11.2890537"><ele>268.0</ele><time>2026-04-25T09:29:02.324Z</time></trkpt><trkpt lat="43.925344" lon="11.2892077"><ele>259.0</ele><time>2026-04-25T09:29:03.316Z</time></trkpt><trkpt lat="43.9254948" lon="11.2893626"><ele>259.0</ele><time>2026-04-25T09:29:04.307Z</time></trkpt><trkpt lat="43.9256377" lon="11.2894987"><ele>259.0</ele><time>2026-04-25T09:29:05.318Z</time></trkpt><trkpt lat="43.9257786" lon="11.2896318"><ele>259.0</ele><time>2026-04-25T09:29:06.318Z</time></trkpt><trkpt lat="43.9259119" lon="11.2897591"><ele>259.66666666666663</ele><time>2026-04-25T09:29:07.321Z</time></trkpt><trkpt lat="43.9260509" lon="11.2898827"><ele>260.3333333333333</ele><time>2026-04-25T09:29:08.309Z</time></trkpt><trkpt lat="43.9261949" lon="11.2900174"><ele>261.0</ele><time>2026-04-25T09:29:09.316Z</time></trkpt><trkpt lat="43.9263366" lon="11.2901547"><ele>261.0</ele><time>2026-04-25T09:29:10.319Z</time></trkpt><trkpt lat="43.9264751" lon="11.2902888"><ele>261.0</ele><time>2026-04-25T09:29:11.321Z</time></trkpt><trkpt lat="43.9266132" lon="11.2904138"><ele>261.0</ele><time>2026-04-25T09:29:12.318Z</time></trkpt><trkpt lat="43.9267503" lon="11.2905373"><ele>257.0</ele><time>2026-04-25T09:29:13.306Z</time></trkpt><trkpt lat="43.9270556" lon="11.2907044"><ele>253.0</ele><time>2026-04-25T09:29:15.325Z</time></trkpt><trkpt lat="43.9272127" lon="11.2907332"><ele>253.0</ele><time>2026-04-25T09:29:16.327Z</time></trkpt><trkpt lat="43.9273699" lon="11.2907298"><ele>253.0</ele><time>2026-04-25T09:29:17.313Z</time></trkpt><trkpt lat="43.927524" lon="11.2906967"><ele>253.0</ele><time>2026-04-25T09:29:18.333Z</time></trkpt><trkpt lat="43.9276834" lon="11.2906357"><ele>256.66666666666663</ele><time>2026-04-25T09:29:19.313Z</time></trkpt><trkpt lat="43.9278403" lon="11.2905641"><ele>260.3333333333333</ele><time>2026-04-25T09:29:20.328Z</time></trkpt><trkpt lat="43.928016" lon="11.2904778"><ele>264.0</ele><time>2026-04-25T09:29:21.323Z</time></trkpt><trkpt lat="43.9281965" lon="11.2903937"><ele>264.0</ele><time>2026-04-25T09:29:22.324Z</time></trkpt><trkpt lat="43.9283653" lon="11.2903193"><ele>264.0</ele><time>2026-04-25T09:29:23.322Z</time></trkpt><trkpt lat="43.9285281" lon="11.2902396"><ele>264.0</ele><time>2026-04-25T09:29:24.325Z</time></trkpt><trkpt lat="43.9286886" lon="11.2901714"><ele>267.3333333333333</ele><time>2026-04-25T09:29:25.312Z</time></trkpt><trkpt lat="43.9288389" lon="11.2901128"><ele>270.66666666666663</ele><time>2026-04-25T09:29:26.309Z</time></trkpt><trkpt lat="43.9289937" lon="11.2900944"><ele>274.0</ele><time>2026-04-25T09:29:27.307Z</time></trkpt><trkpt lat="43.9291518" lon="11.2901235"><ele>276.0</ele><time>2026-04-25T09:29:28.318Z</time></trkpt><trkpt lat="43.9293148" lon="11.2901765"><ele>278.0</ele><time>2026-04-25T09:29:29.307Z</time></trkpt><trkpt lat="43.9294842" lon="11.2902716"><ele>280.0</ele><time>2026-04-25T09:29:30.305Z</time></trkpt><trkpt lat="43.9296578" lon="11.2903719"><ele>280.0</ele><time>2026-04-25T09:29:31.324Z</time></trkpt><trkpt lat="43.9298273" lon="11.2904753"><ele>280.0</ele><time>2026-04-25T09:29:32.308Z</time></trkpt><trkpt lat="43.9299973" lon="11.2905755"><ele>280.0</ele><time>2026-04-25T09:29:33.351Z</time></trkpt><trkpt lat="43.9301535" lon="11.2906749"><ele>275.3333333333333</ele><time>2026-04-25T09:29:34.319Z</time></trkpt><trkpt lat="43.9303016" lon="11.2907749"><ele>270.6666666666667</ele><time>2026-04-25T09:29:35.308Z</time></trkpt><trkpt lat="43.9304488" lon="11.2908853"><ele>266.0</ele><time>2026-04-25T09:29:36.307Z</time></trkpt><trkpt lat="43.9305886" lon="11.2910105"><ele>266.0</ele><time>2026-04-25T09:29:37.307Z</time></trkpt><trkpt lat="43.9307308" lon="11.2911468"><ele>266.0</ele><time>2026-04-25T09:29:38.319Z</time></trkpt><trkpt lat="43.9308695" lon="11.2913069"><ele>266.0</ele><time>2026-04-25T09:29:39.317Z</time></trkpt><trkpt lat="43.9310097" lon="11.2914888"><ele>266.6666666666667</ele><time>2026-04-25T09:29:40.314Z</time></trkpt><trkpt lat="43.9311494" lon="11.291669"><ele>267.3333333333333</ele><time>2026-04-25T09:29:41.325Z</time></trkpt><trkpt lat="43.9312718" lon="11.291851"><ele>268.0</ele><time>2026-04-25T09:29:42.318Z</time></trkpt><trkpt lat="43.9313849" lon="11.2920105"><ele>268.0</ele><time>2026-04-25T09:29:43.322Z</time></trkpt><trkpt lat="43.9314978" lon="11.2921704"><ele>268.0</ele><time>2026-04-25T09:29:44.318Z</time></trkpt><trkpt lat="43.9316103" lon="11.2923192"><ele>268.0</ele><time>2026-04-25T09:29:45.322Z</time></trkpt><trkpt lat="43.9317324" lon="11.2924694"><ele>270.66666666666663</ele><time>2026-04-25T09:29:46.311Z</time></trkpt><trkpt lat="43.9318484" lon="11.2926308"><ele>273.3333333333333</ele><time>2026-04-25T09:29:47.321Z</time></trkpt><trkpt lat="43.9319624" lon="11.2927856"><ele>276.0</ele><time>2026-04-25T09:29:48.315Z</time></trkpt><trkpt lat="43.9320763" lon="11.2929316"><ele>276.0</ele><time>2026-04-25T09:29:49.32Z</time></trkpt><trkpt lat="43.9321885" lon="11.2930787"><ele>276.0</ele><time>2026-04-25T09:29:50.328Z</time></trkpt><trkpt lat="43.932303" lon="11.2932247"><ele>276.0</ele><time>2026-04-25T09:29:51.316Z</time></trkpt><trkpt lat="43.9324218" lon="11.2933732"><ele>278.0</ele><time>2026-04-25T09:29:52.31Z</time></trkpt><trkpt lat="43.9325415" lon="11.2935304"><ele>280.0</ele><time>2026-04-25T09:29:53.318Z</time></trkpt><trkpt lat="43.9326647" lon="11.2936885"><ele>282.0</ele><time>2026-04-25T09:29:54.313Z</time></trkpt><trkpt lat="43.9327858" lon="11.293842"><ele>277.6666666666667</ele><time>2026-04-25T09:29:55.325Z</time></trkpt><trkpt lat="43.9328985" lon="11.293994"><ele>273.33333333333337</ele><time>2026-04-25T09:29:56.299Z</time></trkpt><trkpt lat="43.9330092" lon="11.2941549"><ele>269.0</ele><time>2026-04-25T09:29:57.302Z</time></trkpt><trkpt lat="43.9331341" lon="11.2943222"><ele>269.0</ele><time>2026-04-25T09:29:58.328Z</time></trkpt><trkpt lat="43.9332611" lon="11.2945056"><ele>269.0</ele><time>2026-04-25T09:29:59.317Z</time></trkpt><trkpt lat="43.9333906" lon="11.2947089"><ele>269.0</ele><time>2026-04-25T09:30:00.312Z</time></trkpt><trkpt lat="43.9335189" lon="11.2949236"><ele>269.33333333333337</ele><time>2026-04-25T09:30:01.315Z</time></trkpt><trkpt lat="43.9336395" lon="11.2951381"><ele>269.6666666666667</ele><time>2026-04-25T09:30:02.317Z</time></trkpt><trkpt lat="43.9337601" lon="11.2953577"><ele>270.0</ele><time>2026-04-25T09:30:03.324Z</time></trkpt><trkpt lat="43.9338857" lon="11.2955773"><ele>272.3333333333333</ele><time>2026-04-25T09:30:04.313Z</time></trkpt><trkpt lat="43.9340085" lon="11.2958015"><ele>274.66666666666663</ele><time>2026-04-25T09:30:05.327Z</time></trkpt><trkpt lat="43.9341317" lon="11.2960197"><ele>277.0</ele><time>2026-04-25T09:30:06.324Z</time></trkpt><trkpt lat="43.9342587" lon="11.296244"><ele>272.0</ele><time>2026-04-25T09:30:07.34Z</time></trkpt><trkpt lat="43.9343895" lon="11.2964675"><ele>267.0</ele><time>2026-04-25T09:30:08.319Z</time></trkpt><trkpt lat="43.9345262" lon="11.2966907"><ele>262.0</ele><time>2026-04-25T09:30:09.318Z</time></trkpt><trkpt lat="43.9346589" lon="11.2969221"><ele>262.0</ele><time>2026-04-25T09:30:10.32Z</time></trkpt><trkpt lat="43.9348014" lon="11.2971672"><ele>262.0</ele><time>2026-04-25T09:30:11.311Z</time></trkpt><trkpt lat="43.934941" lon="11.2974126"><ele>264.5</ele><time>2026-04-25T09:30:12.325Z</time></trkpt><trkpt lat="43.9350836" lon="11.2976606"><ele>267.0</ele><time>2026-04-25T09:30:13.313Z</time></trkpt><trkpt lat="43.9352238" lon="11.2979067"><ele>263.0</ele><time>2026-04-25T09:30:14.308Z</time></trkpt><trkpt lat="43.9353625" lon="11.2981558"><ele>259.0</ele><time>2026-04-25T09:30:15.294Z</time></trkpt><trkpt lat="43.9354933" lon="11.2984115"><ele>259.0</ele><time>2026-04-25T09:30:16.319Z</time></trkpt><trkpt lat="43.9356178" lon="11.2986645"><ele>259.0</ele><time>2026-04-25T09:30:17.311Z</time></trkpt><trkpt lat="43.9357374" lon="11.2989125"><ele>259.0</ele><time>2026-04-25T09:30:18.308Z</time></trkpt><trkpt lat="43.9358538" lon="11.2991608"><ele>258.0</ele><time>2026-04-25T09:30:19.328Z</time></trkpt><trkpt lat="43.9359689" lon="11.2994055"><ele>257.0</ele><time>2026-04-25T09:30:20.317Z</time></trkpt><trkpt lat="43.9360808" lon="11.2996401"><ele>256.0</ele><time>2026-04-25T09:30:21.306Z</time></trkpt><trkpt lat="43.936194" lon="11.299882"><ele>256.0</ele><time>2026-04-25T09:30:22.319Z</time></trkpt><trkpt lat="43.9363061" lon="11.3001226"><ele>256.0</ele><time>2026-04-25T09:30:23.322Z</time></trkpt><trkpt lat="43.9364188" lon="11.3003596"><ele>256.0</ele><time>2026-04-25T09:30:24.33Z</time></trkpt><trkpt lat="43.9365381" lon="11.300593"><ele>253.66666666666666</ele><time>2026-04-25T09:30:25.311Z</time></trkpt><trkpt lat="43.9366571" lon="11.3008207"><ele>251.33333333333331</ele><time>2026-04-25T09:30:26.319Z</time></trkpt><trkpt lat="43.9367852" lon="11.3010369"><ele>249.0</ele><time>2026-04-25T09:30:27.319Z</time></trkpt><trkpt lat="43.9369278" lon="11.3012382"><ele>250.66666666666669</ele><time>2026-04-25T09:30:28.306Z</time></trkpt><trkpt lat="43.9370858" lon="11.3014307"><ele>252.33333333333334</ele><time>2026-04-25T09:30:29.312Z</time></trkpt><trkpt lat="43.9372537" lon="11.3016045"><ele>254.0</ele><time>2026-04-25T09:30:30.309Z</time></trkpt><trkpt lat="43.9374306" lon="11.3017635"><ele>265.6666666666667</ele><time>2026-04-25T09:30:31.312Z</time></trkpt><trkpt lat="43.9376159" lon="11.3019106"><ele>277.3333333333333</ele><time>2026-04-25T09:30:32.325Z</time></trkpt><trkpt lat="43.9378168" lon="11.3020666"><ele>289.0</ele><time>2026-04-25T09:30:33.311Z</time></trkpt><trkpt lat="43.9380086" lon="11.3022162"><ele>283.5</ele><time>2026-04-25T09:30:34.292Z</time></trkpt><trkpt lat="43.9382012" lon="11.3023669"><ele>278.0</ele><time>2026-04-25T09:30:35.304Z</time></trkpt><trkpt lat="43.9385999" lon="11.3026537"><ele>278.0</ele><time>2026-04-25T09:30:37.318Z</time></trkpt><trkpt lat="43.9387846" lon="11.3028154"><ele>278.0</ele><time>2026-04-25T09:30:38.31Z</time></trkpt><trkpt lat="43.9389653" lon="11.302956"><ele>278.0</ele><time>2026-04-25T09:30:39.312Z</time></trkpt><trkpt lat="43.9391355" lon="11.3031045"><ele>272.6666666666667</ele><time>2026-04-25T09:30:40.324Z</time></trkpt><trkpt lat="43.9392937" lon="11.3032325"><ele>267.3333333333333</ele><time>2026-04-25T09:30:41.306Z</time></trkpt><trkpt lat="43.9394442" lon="11.3033686"><ele>262.0</ele><time>2026-04-25T09:30:42.307Z</time></trkpt><trkpt lat="43.9395832" lon="11.3034957"><ele>262.0</ele><time>2026-04-25T09:30:43.323Z</time></trkpt><trkpt lat="43.9397141" lon="11.3036403"><ele>262.0</ele><time>2026-04-25T09:30:44.323Z</time></trkpt><trkpt lat="43.9398318" lon="11.3038054"><ele>262.0</ele><time>2026-04-25T09:30:45.333Z</time></trkpt><trkpt lat="43.9399449" lon="11.3039923"><ele>267.66666666666663</ele><time>2026-04-25T09:30:46.307Z</time></trkpt><trkpt lat="43.9400514" lon="11.3041857"><ele>273.3333333333333</ele><time>2026-04-25T09:30:47.334Z</time></trkpt><trkpt lat="43.9401517" lon="11.3043846"><ele>279.0</ele><time>2026-04-25T09:30:48.323Z</time></trkpt><trkpt lat="43.9402392" lon="11.3045984"><ele>274.3333333333333</ele><time>2026-04-25T09:30:49.312Z</time></trkpt><trkpt lat="43.9403265" lon="11.3048168"><ele>269.66666666666663</ele><time>2026-04-25T09:30:50.314Z</time></trkpt><trkpt lat="43.9404149" lon="11.3050279"><ele>265.0</ele><time>2026-04-25T09:30:51.329Z</time></trkpt><trkpt lat="43.9405094" lon="11.3052373"><ele>265.0</ele><time>2026-04-25T09:30:52.322Z</time></trkpt><trkpt lat="43.9406016" lon="11.3054384"><ele>265.0</ele><time>2026-04-25T09:30:53.313Z</time></trkpt><trkpt lat="43.9406855" lon="11.305641"><ele>265.0</ele><time>2026-04-25T09:30:54.298Z</time></trkpt><trkpt lat="43.9407635" lon="11.3058417"><ele>259.3333333333333</ele><time>2026-04-25T09:30:55.306Z</time></trkpt><trkpt lat="43.9408435" lon="11.3060298"><ele>253.66666666666669</ele><time>2026-04-25T09:30:56.317Z</time></trkpt><trkpt lat="43.9409245" lon="11.3062157"><ele>248.0</ele><time>2026-04-25T09:30:57.31Z</time></trkpt><trkpt lat="43.9410145" lon="11.3064028"><ele>254.0</ele><time>2026-04-25T09:30:58.316Z</time></trkpt><trkpt lat="43.9411094" lon="11.3065943"><ele>260.0</ele><time>2026-04-25T09:30:59.315Z</time></trkpt><trkpt lat="43.9412087" lon="11.3067861"><ele>266.0</ele><time>2026-04-25T09:31:00.306Z</time></trkpt><trkpt lat="43.9413162" lon="11.3069741"><ele>266.0</ele><time>2026-04-25T09:31:01.334Z</time></trkpt><trkpt lat="43.941423" lon="11.3071457"><ele>266.0</ele><time>2026-04-25T09:31:02.297Z</time></trkpt><trkpt lat="43.9415282" lon="11.307315"><ele>266.0</ele><time>2026-04-25T09:31:03.309Z</time></trkpt><trkpt lat="43.9416342" lon="11.3074905"><ele>264.6666666666667</ele><time>2026-04-25T09:31:04.316Z</time></trkpt><trkpt lat="43.941743" lon="11.3076681"><ele>263.3333333333333</ele><time>2026-04-25T09:31:05.312Z</time></trkpt><trkpt lat="43.9418459" lon="11.3078388"><ele>262.0</ele><time>2026-04-25T09:31:06.313Z</time></trkpt><trkpt lat="43.9419503" lon="11.3079956"><ele>255.25</ele><time>2026-04-25T09:31:07.313Z</time></trkpt><trkpt lat="43.9420553" lon="11.3081433"><ele>248.5</ele><time>2026-04-25T09:31:08.324Z</time></trkpt><trkpt lat="43.9421595" lon="11.3082734"><ele>241.75</ele><time>2026-04-25T09:31:09.316Z</time></trkpt><trkpt lat="43.942288" lon="11.3083864"><ele>235.0</ele><time>2026-04-25T09:31:10.315Z</time></trkpt><trkpt lat="43.9424228" lon="11.3084835"><ele>235.0</ele><time>2026-04-25T09:31:11.317Z</time></trkpt><trkpt lat="43.9425823" lon="11.3085587"><ele>235.0</ele><time>2026-04-25T09:31:12.323Z</time></trkpt><trkpt lat="43.9427464" lon="11.3086048"><ele>235.0</ele><time>2026-04-25T09:31:13.318Z</time></trkpt><trkpt lat="43.9429035" lon="11.3086384"><ele>235.0</ele><time>2026-04-25T09:31:14.325Z</time></trkpt><trkpt lat="43.9430563" lon="11.3086763"><ele>235.0</ele><time>2026-04-25T09:31:15.322Z</time></trkpt><trkpt lat="43.9432104" lon="11.3087307"><ele>235.0</ele><time>2026-04-25T09:31:16.307Z</time></trkpt><trkpt lat="43.9433723" lon="11.3087967"><ele>233.33333333333331</ele><time>2026-04-25T09:31:17.324Z</time></trkpt><trkpt lat="43.9435284" lon="11.3088689"><ele>231.66666666666669</ele><time>2026-04-25T09:31:18.319Z</time></trkpt><trkpt lat="43.9436854" lon="11.3089562"><ele>230.0</ele><time>2026-04-25T09:31:19.311Z</time></trkpt><trkpt lat="43.9438438" lon="11.3090469"><ele>230.0</ele><time>2026-04-25T09:31:20.33Z</time></trkpt><trkpt lat="43.9439918" lon="11.3091237"><ele>230.0</ele><time>2026-04-25T09:31:21.325Z</time></trkpt><trkpt lat="43.9441374" lon="11.3092005"><ele>230.0</ele><time>2026-04-25T09:31:22.316Z</time></trkpt><trkpt lat="43.9442835" lon="11.3092746"><ele>234.0</ele><time>2026-04-25T09:31:23.314Z</time></trkpt><trkpt lat="43.944426" lon="11.3093458"><ele>238.0</ele><time>2026-04-25T09:31:24.322Z</time></trkpt><trkpt lat="43.9445739" lon="11.3094193"><ele>242.0</ele><time>2026-04-25T09:31:25.325Z</time></trkpt><trkpt lat="43.9447226" lon="11.3095021"><ele>242.0</ele><time>2026-04-25T09:31:26.311Z</time></trkpt><trkpt lat="43.9448774" lon="11.3095889"><ele>242.0</ele><time>2026-04-25T09:31:27.308Z</time></trkpt><trkpt lat="43.9450377" lon="11.3096741"><ele>242.0</ele><time>2026-04-25T09:31:28.3Z</time></trkpt><trkpt lat="43.9452026" lon="11.3097565"><ele>237.66666666666669</ele><time>2026-04-25T09:31:29.31Z</time></trkpt><trkpt lat="43.9453642" lon="11.3098311"><ele>233.33333333333331</ele><time>2026-04-25T09:31:30.296Z</time></trkpt><trkpt lat="43.9455251" lon="11.3098897"><ele>229.0</ele><time>2026-04-25T09:31:31.317Z</time></trkpt><trkpt lat="43.945683" lon="11.3099351"><ele>229.0</ele><time>2026-04-25T09:31:32.337Z</time></trkpt><trkpt lat="43.9458497" lon="11.3099827"><ele>229.0</ele><time>2026-04-25T09:31:33.32Z</time></trkpt><trkpt lat="43.9460191" lon="11.3100334"><ele>229.0</ele><time>2026-04-25T09:31:34.336Z</time></trkpt><trkpt lat="43.9461841" lon="11.3100933"><ele>227.66666666666666</ele><time>2026-04-25T09:31:35.319Z</time></trkpt><trkpt lat="43.9463443" lon="11.3101583"><ele>226.33333333333331</ele><time>2026-04-25T09:31:36.333Z</time></trkpt><trkpt lat="43.9465038" lon="11.3102172"><ele>225.0</ele><time>2026-04-25T09:31:37.314Z</time></trkpt><trkpt lat="43.9466631" lon="11.3102923"><ele>225.66666666666669</ele><time>2026-04-25T09:31:38.322Z</time></trkpt><trkpt lat="43.9468222" lon="11.3103691"><ele>226.33333333333334</ele><time>2026-04-25T09:31:39.325Z</time></trkpt><trkpt lat="43.9469799" lon="11.3104505"><ele>227.0</ele><time>2026-04-25T09:31:40.33Z</time></trkpt><trkpt lat="43.9471355" lon="11.3105321"><ele>226.0</ele><time>2026-04-25T09:31:41.3Z</time></trkpt><trkpt lat="43.9472928" lon="11.3106181"><ele>225.0</ele><time>2026-04-25T09:31:42.303Z</time></trkpt><trkpt lat="43.947445" lon="11.3107126"><ele>224.0</ele><time>2026-04-25T09:31:43.302Z</time></trkpt><trkpt lat="43.9475973" lon="11.3107985"><ele>223.66666666666669</ele><time>2026-04-25T09:31:44.324Z</time></trkpt><trkpt lat="43.9477468" lon="11.310896"><ele>223.33333333333331</ele><time>2026-04-25T09:31:45.317Z</time></trkpt><trkpt lat="43.9478924" lon="11.3109892"><ele>223.0</ele><time>2026-04-25T09:31:46.312Z</time></trkpt><trkpt lat="43.9480431" lon="11.3110617"><ele>223.0</ele><time>2026-04-25T09:31:47.311Z</time></trkpt><trkpt lat="43.9481966" lon="11.311125"><ele>223.0</ele><time>2026-04-25T09:31:48.319Z</time></trkpt><trkpt lat="43.948353" lon="11.3111894"><ele>223.0</ele><time>2026-04-25T09:31:49.332Z</time></trkpt><trkpt lat="43.9485074" lon="11.3112529"><ele>222.33333333333331</ele><time>2026-04-25T09:31:50.312Z</time></trkpt><trkpt lat="43.9486621" lon="11.3113211"><ele>221.66666666666669</ele><time>2026-04-25T09:31:51.317Z</time></trkpt><trkpt lat="43.9488146" lon="11.3113897"><ele>221.0</ele><time>2026-04-25T09:31:52.328Z</time></trkpt><trkpt lat="43.9489601" lon="11.3114515"><ele>221.0</ele><time>2026-04-25T09:31:53.327Z</time></trkpt><trkpt lat="43.9491011" lon="11.3115119"><ele>221.0</ele><time>2026-04-25T09:31:54.318Z</time></trkpt><trkpt lat="43.9492424" lon="11.311567"><ele>221.0</ele><time>2026-04-25T09:31:55.319Z</time></trkpt><trkpt lat="43.949383" lon="11.311603"><ele>221.0</ele><time>2026-04-25T09:31:56.322Z</time></trkpt><trkpt lat="43.9495296" lon="11.3116011"><ele>221.25</ele><time>2026-04-25T09:31:57.33Z</time></trkpt><trkpt lat="43.9496832" lon="11.3115856"><ele>221.5</ele><time>2026-04-25T09:31:58.304Z</time></trkpt><trkpt lat="43.9498232" lon="11.3115735"><ele>221.75</ele><time>2026-04-25T09:31:59.297Z</time></trkpt><trkpt lat="43.9499649" lon="11.3115595"><ele>222.0</ele><time>2026-04-25T09:32:00.295Z</time></trkpt><trkpt lat="43.9501007" lon="11.3115552"><ele>222.0</ele><time>2026-04-25T09:32:01.311Z</time></trkpt><trkpt lat="43.9502258" lon="11.3115467"><ele>222.0</ele><time>2026-04-25T09:32:02.313Z</time></trkpt><trkpt lat="43.9503448" lon="11.311531"><ele>222.0</ele><time>2026-04-25T09:32:03.33Z</time></trkpt><trkpt lat="43.9504688" lon="11.3115211"><ele>222.0</ele><time>2026-04-25T09:32:04.311Z</time></trkpt><trkpt lat="43.950588" lon="11.311514"><ele>222.0</ele><time>2026-04-25T09:32:05.325Z</time></trkpt><trkpt lat="43.9507104" lon="11.3115048"><ele>222.0</ele><time>2026-04-25T09:32:06.313Z</time></trkpt><trkpt lat="43.9508282" lon="11.3114974"><ele>222.0</ele><time>2026-04-25T09:32:07.321Z</time></trkpt><trkpt lat="43.9509451" lon="11.3114943"><ele>222.0</ele><time>2026-04-25T09:32:08.322Z</time></trkpt><trkpt lat="43.951057" lon="11.3114918"><ele>222.2</ele><time>2026-04-25T09:32:09.328Z</time></trkpt><trkpt lat="43.9511682" lon="11.3114849"><ele>222.39999999999998</ele><time>2026-04-25T09:32:10.301Z</time></trkpt><trkpt lat="43.9512751" lon="11.3114762"><ele>222.60000000000002</ele><time>2026-04-25T09:32:11.321Z</time></trkpt><trkpt lat="43.9513816" lon="11.3114639"><ele>222.8</ele><time>2026-04-25T09:32:12.314Z</time></trkpt><trkpt lat="43.9514797" lon="11.3114611"><ele>223.0</ele><time>2026-04-25T09:32:13.291Z</time></trkpt><trkpt lat="43.9515835" lon="11.3114511"><ele>223.0</ele><time>2026-04-25T09:32:14.313Z</time></trkpt><trkpt lat="43.9516892" lon="11.3114421"><ele>223.0</ele><time>2026-04-25T09:32:15.314Z</time></trkpt><trkpt lat="43.9517931" lon="11.3114353"><ele>223.0</ele><time>2026-04-25T09:32:16.325Z</time></trkpt><trkpt lat="43.9518937" lon="11.3114234"><ele>223.0</ele><time>2026-04-25T09:32:17.307Z</time></trkpt><trkpt lat="43.9519922" lon="11.3114129"><ele>223.0</ele><time>2026-04-25T09:32:18.312Z</time></trkpt><trkpt lat="43.9520867" lon="11.3114052"><ele>223.16666666666666</ele><time>2026-04-25T09:32:19.323Z</time></trkpt><trkpt lat="43.952172" lon="11.3114024"><ele>223.33333333333331</ele><time>2026-04-25T09:32:20.32Z</time></trkpt><trkpt lat="43.9522495" lon="11.3114089"><ele>223.5</ele><time>2026-04-25T09:32:21.319Z</time></trkpt><trkpt lat="43.9523162" lon="11.3114318"><ele>223.66666666666669</ele><time>2026-04-25T09:32:22.314Z</time></trkpt><trkpt lat="43.9523726" lon="11.311477"><ele>223.83333333333334</ele><time>2026-04-25T09:32:23.312Z</time></trkpt><trkpt lat="43.9524505" lon="11.3115642"><ele>224.0</ele><time>2026-04-25T09:32:25.317Z</time></trkpt><trkpt lat="43.9525436" lon="11.3115957"><ele>224.0</ele><time>2026-04-25T09:35:33.313Z</time></trkpt><trkpt lat="43.9526114" lon="11.3115788"><ele>223.99999999999997</ele><time>2026-04-25T09:35:34.303Z</time></trkpt><trkpt lat="43.9527215" lon="11.3115078"><ele>223.99999999999997</ele><time>2026-04-25T09:35:36.317Z</time></trkpt><trkpt lat="43.9527971" lon="11.3113883"><ele>224.0</ele><time>2026-04-25T09:35:38.297Z</time></trkpt><trkpt lat="43.9528107" lon="11.3113005"><ele>224.0</ele><time>2026-04-25T09:35:39.316Z</time></trkpt><trkpt lat="43.9528123" lon="11.3111891"><ele>225.0</ele><time>2026-04-25T09:35:40.313Z</time></trkpt><trkpt lat="43.9527921" lon="11.3110856"><ele>225.99999999999997</ele><time>2026-04-25T09:35:41.3Z</time></trkpt><trkpt lat="43.9527309" lon="11.3109876"><ele>226.99999999999997</ele><time>2026-04-25T09:35:42.32Z</time></trkpt><trkpt lat="43.9526519" lon="11.310904"><ele>228.0</ele><time>2026-04-25T09:35:43.309Z</time></trkpt><trkpt lat="43.9525739" lon="11.3107922"><ele>229.0</ele><time>2026-04-25T09:35:44.3Z</time></trkpt><trkpt lat="43.9525198" lon="11.3106568"><ele>229.0</ele><time>2026-04-25T09:35:45.311Z</time></trkpt><trkpt lat="43.9524779" lon="11.3105043"><ele>229.0</ele><time>2026-04-25T09:35:46.306Z</time></trkpt><trkpt lat="43.9524431" lon="11.3103314"><ele>229.0</ele><time>2026-04-25T09:35:47.306Z</time></trkpt><trkpt lat="43.9524114" lon="11.3101544"><ele>229.0</ele><time>2026-04-25T09:35:48.325Z</time></trkpt><trkpt lat="43.9523741" lon="11.3099701"><ele>229.0</ele><time>2026-04-25T09:35:49.3Z</time></trkpt><trkpt lat="43.9523331" lon="11.3097739"><ele>229.0</ele><time>2026-04-25T09:35:50.299Z</time></trkpt><trkpt lat="43.9523022" lon="11.3095722"><ele>229.0</ele><time>2026-04-25T09:35:51.312Z</time></trkpt><trkpt lat="43.9522703" lon="11.3093777"><ele>229.0</ele><time>2026-04-25T09:35:52.32Z</time></trkpt><trkpt lat="43.9522398" lon="11.309191"><ele>231.0</ele><time>2026-04-25T09:35:53.311Z</time></trkpt><trkpt lat="43.9522145" lon="11.3090148"><ele>233.0</ele><time>2026-04-25T09:35:54.32Z</time></trkpt><trkpt lat="43.9521885" lon="11.3088461"><ele>235.0</ele><time>2026-04-25T09:35:55.319Z</time></trkpt><trkpt lat="43.9521601" lon="11.3086788"><ele>237.0</ele><time>2026-04-25T09:35:56.319Z</time></trkpt><trkpt lat="43.9521319" lon="11.3085014"><ele>238.0</ele><time>2026-04-25T09:35:57.322Z</time></trkpt><trkpt lat="43.9521038" lon="11.3083163"><ele>239.0</ele><time>2026-04-25T09:35:58.326Z</time></trkpt><trkpt lat="43.9520844" lon="11.3081235"><ele>240.0</ele><time>2026-04-25T09:35:59.33Z</time></trkpt><trkpt lat="43.9520877" lon="11.3079249"><ele>241.0</ele><time>2026-04-25T09:36:00.326Z</time></trkpt><trkpt lat="43.9521147" lon="11.3077349"><ele>241.0</ele><time>2026-04-25T09:36:01.312Z</time></trkpt><trkpt lat="43.9521688" lon="11.3075614"><ele>241.0</ele><time>2026-04-25T09:36:02.335Z</time></trkpt><trkpt lat="43.9522441" lon="11.3074045"><ele>241.0</ele><time>2026-04-25T09:36:03.316Z</time></trkpt><trkpt lat="43.9523517" lon="11.3072606"><ele>241.0</ele><time>2026-04-25T09:36:04.313Z</time></trkpt><trkpt lat="43.9524906" lon="11.307139"><ele>245.0</ele><time>2026-04-25T09:36:05.295Z</time></trkpt><trkpt lat="43.9526565" lon="11.3070074"><ele>249.0</ele><time>2026-04-25T09:36:06.315Z</time></trkpt><trkpt lat="43.9528208" lon="11.3068714"><ele>253.0</ele><time>2026-04-25T09:36:07.301Z</time></trkpt><trkpt lat="43.9529862" lon="11.3067557"><ele>253.0</ele><time>2026-04-25T09:36:08.294Z</time></trkpt><trkpt lat="43.9531491" lon="11.3066387"><ele>253.0</ele><time>2026-04-25T09:36:09.313Z</time></trkpt><trkpt lat="43.9533112" lon="11.3065251"><ele>253.0</ele><time>2026-04-25T09:36:10.315Z</time></trkpt><trkpt lat="43.9534658" lon="11.3064337"><ele>253.66666666666666</ele><time>2026-04-25T09:36:11.319Z</time></trkpt><trkpt lat="43.953626" lon="11.3063776"><ele>254.33333333333331</ele><time>2026-04-25T09:36:12.325Z</time></trkpt><trkpt lat="43.9537959" lon="11.3063546"><ele>255.0</ele><time>2026-04-25T09:36:13.315Z</time></trkpt><trkpt lat="43.95397" lon="11.3063567"><ele>255.0</ele><time>2026-04-25T09:36:14.303Z</time></trkpt><trkpt lat="43.9541443" lon="11.3063421"><ele>255.0</ele><time>2026-04-25T09:36:15.305Z</time></trkpt><trkpt lat="43.954324" lon="11.3063049"><ele>255.0</ele><time>2026-04-25T09:36:16.306Z</time></trkpt><trkpt lat="43.9545068" lon="11.3062323"><ele>255.33333333333331</ele><time>2026-04-25T09:36:17.306Z</time></trkpt><trkpt lat="43.9546766" lon="11.306143"><ele>255.66666666666666</ele><time>2026-04-25T09:36:18.294Z</time></trkpt><trkpt lat="43.9548441" lon="11.3060543"><ele>256.0</ele><time>2026-04-25T09:36:19.307Z</time></trkpt><trkpt lat="43.9549953" lon="11.3059583"><ele>254.5</ele><time>2026-04-25T09:36:20.302Z</time></trkpt><trkpt lat="43.9551422" lon="11.3058788"><ele>253.0</ele><time>2026-04-25T09:36:21.321Z</time></trkpt><trkpt lat="43.955278" lon="11.3058076"><ele>251.5</ele><time>2026-04-25T09:36:22.316Z</time></trkpt><trkpt lat="43.9554065" lon="11.3057651"><ele>250.0</ele><time>2026-04-25T09:36:23.315Z</time></trkpt><trkpt lat="43.955531" lon="11.3057665"><ele>250.0</ele><time>2026-04-25T09:36:24.324Z</time></trkpt><trkpt lat="43.9556594" lon="11.3058219"><ele>250.0</ele><time>2026-04-25T09:36:25.308Z</time></trkpt><trkpt lat="43.9557946" lon="11.3058944"><ele>250.0</ele><time>2026-04-25T09:36:26.31Z</time></trkpt><trkpt lat="43.9559322" lon="11.3059929"><ele>250.0</ele><time>2026-04-25T09:36:27.322Z</time></trkpt><trkpt lat="43.9560796" lon="11.3060844"><ele>246.0</ele><time>2026-04-25T09:36:28.33Z</time></trkpt><trkpt lat="43.9562503" lon="11.3061501"><ele>242.0</ele><time>2026-04-25T09:36:29.298Z</time></trkpt><trkpt lat="43.9564231" lon="11.3061981"><ele>238.0</ele><time>2026-04-25T09:36:30.31Z</time></trkpt><trkpt lat="43.9566057" lon="11.3062083"><ele>236.33333333333331</ele><time>2026-04-25T09:36:31.325Z</time></trkpt><trkpt lat="43.9568022" lon="11.3062089"><ele>234.66666666666669</ele><time>2026-04-25T09:36:32.315Z</time></trkpt><trkpt lat="43.9569941" lon="11.3061961"><ele>233.0</ele><time>2026-04-25T09:36:33.332Z</time></trkpt><trkpt lat="43.9571931" lon="11.3061717"><ele>233.0</ele><time>2026-04-25T09:36:34.3Z</time></trkpt><trkpt lat="43.9573926" lon="11.3061486"><ele>233.0</ele><time>2026-04-25T09:36:35.312Z</time></trkpt><trkpt lat="43.9575937" lon="11.3061277"><ele>233.0</ele><time>2026-04-25T09:36:36.32Z</time></trkpt><trkpt lat="43.9577893" lon="11.3060979"><ele>232.66666666666669</ele><time>2026-04-25T09:36:37.314Z</time></trkpt><trkpt lat="43.9579828" lon="11.3060685"><ele>232.33333333333331</ele><time>2026-04-25T09:36:38.286Z</time></trkpt><trkpt lat="43.9581766" lon="11.3060448"><ele>232.0</ele><time>2026-04-25T09:36:39.325Z</time></trkpt><trkpt lat="43.9583663" lon="11.3060237"><ele>230.0</ele><time>2026-04-25T09:36:40.322Z</time></trkpt><trkpt lat="43.9585525" lon="11.3059987"><ele>228.0</ele><time>2026-04-25T09:36:41.313Z</time></trkpt><trkpt lat="43.9587353" lon="11.3059655"><ele>226.0</ele><time>2026-04-25T09:36:42.34Z</time></trkpt><trkpt lat="43.9589119" lon="11.3059238"><ele>226.0</ele><time>2026-04-25T09:36:43.317Z</time></trkpt><trkpt lat="43.9590895" lon="11.3058556"><ele>226.0</ele><time>2026-04-25T09:36:44.333Z</time></trkpt><trkpt lat="43.9592567" lon="11.3057752"><ele>226.0</ele><time>2026-04-25T09:36:45.326Z</time></trkpt><trkpt lat="43.9594192" lon="11.3056883"><ele>226.33333333333331</ele><time>2026-04-25T09:36:46.328Z</time></trkpt><trkpt lat="43.9595751" lon="11.3056028"><ele>226.66666666666669</ele><time>2026-04-25T09:36:47.313Z</time></trkpt><trkpt lat="43.9597316" lon="11.3055126"><ele>227.0</ele><time>2026-04-25T09:36:48.323Z</time></trkpt><trkpt lat="43.959884" lon="11.3054183"><ele>224.66666666666669</ele><time>2026-04-25T09:36:49.326Z</time></trkpt><trkpt lat="43.9600311" lon="11.305316"><ele>222.33333333333331</ele><time>2026-04-25T09:36:50.295Z</time></trkpt><trkpt lat="43.9601828" lon="11.3052009"><ele>220.0</ele><time>2026-04-25T09:36:51.295Z</time></trkpt><trkpt lat="43.9603345" lon="11.3050727"><ele>219.66666666666666</ele><time>2026-04-25T09:36:52.288Z</time></trkpt><trkpt lat="43.9604761" lon="11.3049281"><ele>219.33333333333331</ele><time>2026-04-25T09:36:53.316Z</time></trkpt><trkpt lat="43.9606041" lon="11.304765"><ele>219.0</ele><time>2026-04-25T09:36:54.322Z</time></trkpt><trkpt lat="43.9607168" lon="11.30459"><ele>217.0</ele><time>2026-04-25T09:36:55.319Z</time></trkpt><trkpt lat="43.9608269" lon="11.3044"><ele>215.0</ele><time>2026-04-25T09:36:56.342Z</time></trkpt><trkpt lat="43.9609401" lon="11.3042074"><ele>213.0</ele><time>2026-04-25T09:36:57.325Z</time></trkpt><trkpt lat="43.9610546" lon="11.3040112"><ele>213.0</ele><time>2026-04-25T09:36:58.326Z</time></trkpt><trkpt lat="43.9611695" lon="11.3038205"><ele>213.0</ele><time>2026-04-25T09:36:59.313Z</time></trkpt><trkpt lat="43.9612894" lon="11.3036191"><ele>213.0</ele><time>2026-04-25T09:37:00.328Z</time></trkpt><trkpt lat="43.9614042" lon="11.303417"><ele>213.0</ele><time>2026-04-25T09:37:01.325Z</time></trkpt><trkpt lat="43.9615205" lon="11.3032224"><ele>213.0</ele><time>2026-04-25T09:37:02.329Z</time></trkpt><trkpt lat="43.9616341" lon="11.3030237"><ele>213.0</ele><time>2026-04-25T09:37:03.326Z</time></trkpt><trkpt lat="43.961741" lon="11.3028228"><ele>212.33333333333331</ele><time>2026-04-25T09:37:04.32Z</time></trkpt><trkpt lat="43.9618417" lon="11.3026207"><ele>211.66666666666666</ele><time>2026-04-25T09:37:05.31Z</time></trkpt><trkpt lat="43.961943" lon="11.3024234"><ele>211.0</ele><time>2026-04-25T09:37:06.32Z</time></trkpt><trkpt lat="43.9620399" lon="11.3022424"><ele>212.66666666666666</ele><time>2026-04-25T09:37:07.316Z</time></trkpt><trkpt lat="43.9621566" lon="11.3020868"><ele>214.33333333333331</ele><time>2026-04-25T09:37:08.316Z</time></trkpt><trkpt lat="43.9623028" lon="11.301964"><ele>216.0</ele><time>2026-04-25T09:37:09.33Z</time></trkpt><trkpt lat="43.9624733" lon="11.3018889"><ele>215.66666666666669</ele><time>2026-04-25T09:37:10.318Z</time></trkpt><trkpt lat="43.9626477" lon="11.3018696"><ele>215.33333333333334</ele><time>2026-04-25T09:37:11.327Z</time></trkpt><trkpt lat="43.9628202" lon="11.3018604"><ele>215.0</ele><time>2026-04-25T09:37:12.328Z</time></trkpt><trkpt lat="43.9629928" lon="11.3018214"><ele>215.0</ele><time>2026-04-25T09:37:13.324Z</time></trkpt><trkpt lat="43.9631535" lon="11.3017332"><ele>215.0</ele><time>2026-04-25T09:37:14.306Z</time></trkpt><trkpt lat="43.9632996" lon="11.3015962"><ele>215.0</ele><time>2026-04-25T09:37:15.314Z</time></trkpt><trkpt lat="43.9634415" lon="11.301421"><ele>215.0</ele><time>2026-04-25T09:37:16.322Z</time></trkpt><trkpt lat="43.9635935" lon="11.301215"><ele>215.0</ele><time>2026-04-25T09:37:17.326Z</time></trkpt><trkpt lat="43.9637539" lon="11.3010209"><ele>215.0</ele><time>2026-04-25T09:37:18.311Z</time></trkpt><trkpt lat="43.963908" lon="11.3008259"><ele>215.0</ele><time>2026-04-25T09:37:19.311Z</time></trkpt><trkpt lat="43.964062" lon="11.3006347"><ele>215.0</ele><time>2026-04-25T09:37:20.323Z</time></trkpt><trkpt lat="43.9642109" lon="11.3004439"><ele>215.0</ele><time>2026-04-25T09:37:21.307Z</time></trkpt><trkpt lat="43.9643558" lon="11.3002671"><ele>215.0</ele><time>2026-04-25T09:37:22.32Z</time></trkpt><trkpt lat="43.9644941" lon="11.3000864"><ele>215.0</ele><time>2026-04-25T09:37:23.311Z</time></trkpt><trkpt lat="43.9646263" lon="11.2999199"><ele>215.0</ele><time>2026-04-25T09:37:24.318Z</time></trkpt><trkpt lat="43.9647472" lon="11.2997578"><ele>215.5</ele><time>2026-04-25T09:37:25.305Z</time></trkpt><trkpt lat="43.9648479" lon="11.2995909"><ele>216.0</ele><time>2026-04-25T09:37:26.321Z</time></trkpt><trkpt lat="43.9649236" lon="11.2994179"><ele>216.5</ele><time>2026-04-25T09:37:27.327Z</time></trkpt><trkpt lat="43.96497" lon="11.2992292"><ele>217.0</ele><time>2026-04-25T09:37:28.31Z</time></trkpt><trkpt lat="43.9649841" lon="11.2990164"><ele>217.66666666666666</ele><time>2026-04-25T09:37:29.307Z</time></trkpt><trkpt lat="43.9649736" lon="11.2987905"><ele>218.33333333333331</ele><time>2026-04-25T09:37:30.322Z</time></trkpt><trkpt lat="43.9649615" lon="11.2985507"><ele>219.0</ele><time>2026-04-25T09:37:31.32Z</time></trkpt><trkpt lat="43.9649466" lon="11.2983024"><ele>220.0</ele><time>2026-04-25T09:37:32.33Z</time></trkpt><trkpt lat="43.964937" lon="11.2980535"><ele>221.0</ele><time>2026-04-25T09:37:33.321Z</time></trkpt><trkpt lat="43.9649256" lon="11.2978011"><ele>222.0</ele><time>2026-04-25T09:37:34.323Z</time></trkpt><trkpt lat="43.9649137" lon="11.2975536"><ele>222.0</ele><time>2026-04-25T09:37:35.315Z</time></trkpt><trkpt lat="43.9648961" lon="11.297309"><ele>222.0</ele><time>2026-04-25T09:37:36.33Z</time></trkpt><trkpt lat="43.9648851" lon="11.2970867"><ele>222.0</ele><time>2026-04-25T09:37:37.319Z</time></trkpt><trkpt lat="43.9648708" lon="11.2968781"><ele>222.75</ele><time>2026-04-25T09:37:38.309Z</time></trkpt><trkpt lat="43.9648597" lon="11.2966736"><ele>223.5</ele><time>2026-04-25T09:37:39.327Z</time></trkpt><trkpt lat="43.9648544" lon="11.2964865"><ele>224.25</ele><time>2026-04-25T09:37:40.323Z</time></trkpt><trkpt lat="43.9648702" lon="11.2963135"><ele>225.0</ele><time>2026-04-25T09:37:41.319Z</time></trkpt><trkpt lat="43.9649282" lon="11.2961666"><ele>225.25</ele><time>2026-04-25T09:37:42.324Z</time></trkpt><trkpt lat="43.9650206" lon="11.2960283"><ele>225.5</ele><time>2026-04-25T09:37:43.325Z</time></trkpt><trkpt lat="43.9651337" lon="11.2959203"><ele>225.75</ele><time>2026-04-25T09:37:44.297Z</time></trkpt><trkpt lat="43.9652546" lon="11.2958039"><ele>226.0</ele><time>2026-04-25T09:37:45.301Z</time></trkpt><trkpt lat="43.9653675" lon="11.2956783"><ele>226.66666666666666</ele><time>2026-04-25T09:37:46.288Z</time></trkpt><trkpt lat="43.9654836" lon="11.2955409"><ele>227.33333333333331</ele><time>2026-04-25T09:37:47.308Z</time></trkpt><trkpt lat="43.9656118" lon="11.2954036"><ele>228.0</ele><time>2026-04-25T09:37:48.328Z</time></trkpt><trkpt lat="43.965746" lon="11.2952708"><ele>227.66666666666669</ele><time>2026-04-25T09:37:49.308Z</time></trkpt><trkpt lat="43.9658954" lon="11.2951438"><ele>227.33333333333334</ele><time>2026-04-25T09:37:50.305Z</time></trkpt><trkpt lat="43.9660517" lon="11.295015"><ele>227.0</ele><time>2026-04-25T09:37:51.303Z</time></trkpt><trkpt lat="43.9662093" lon="11.2948765"><ele>227.0</ele><time>2026-04-25T09:37:52.317Z</time></trkpt><trkpt lat="43.9663701" lon="11.294739"><ele>227.0</ele><time>2026-04-25T09:37:53.316Z</time></trkpt><trkpt lat="43.9665267" lon="11.2946051"><ele>227.0</ele><time>2026-04-25T09:37:54.317Z</time></trkpt><trkpt lat="43.9666975" lon="11.2944584"><ele>226.0</ele><time>2026-04-25T09:37:55.307Z</time></trkpt><trkpt lat="43.9668761" lon="11.2943043"><ele>225.0</ele><time>2026-04-25T09:37:56.318Z</time></trkpt><trkpt lat="43.967063" lon="11.294124"><ele>224.0</ele><time>2026-04-25T09:37:57.315Z</time></trkpt><trkpt lat="43.9672418" lon="11.2939638"><ele>224.33333333333334</ele><time>2026-04-25T09:37:58.32Z</time></trkpt><trkpt lat="43.9674153" lon="11.2938051"><ele>224.66666666666669</ele><time>2026-04-25T09:37:59.323Z</time></trkpt><trkpt lat="43.9675882" lon="11.2936398"><ele>225.0</ele><time>2026-04-25T09:38:00.31Z</time></trkpt><trkpt lat="43.9677618" lon="11.2934796"><ele>225.0</ele><time>2026-04-25T09:38:01.321Z</time></trkpt><trkpt lat="43.9679295" lon="11.2933304"><ele>225.0</ele><time>2026-04-25T09:38:02.321Z</time></trkpt><trkpt lat="43.9680922" lon="11.2931933"><ele>225.0</ele><time>2026-04-25T09:38:03.328Z</time></trkpt><trkpt lat="43.9682522" lon="11.2930519"><ele>224.66666666666669</ele><time>2026-04-25T09:38:04.304Z</time></trkpt><trkpt lat="43.9684042" lon="11.2929138"><ele>224.33333333333334</ele><time>2026-04-25T09:38:05.309Z</time></trkpt><trkpt lat="43.968559" lon="11.2927757"><ele>224.0</ele><time>2026-04-25T09:38:06.319Z</time></trkpt><trkpt lat="43.9687176" lon="11.2926388"><ele>224.0</ele><time>2026-04-25T09:38:07.313Z</time></trkpt><trkpt lat="43.9688702" lon="11.292504"><ele>224.0</ele><time>2026-04-25T09:38:08.31Z</time></trkpt><trkpt lat="43.9690278" lon="11.2923629"><ele>224.0</ele><time>2026-04-25T09:38:09.306Z</time></trkpt><trkpt lat="43.9691827" lon="11.2922232"><ele>224.0</ele><time>2026-04-25T09:38:10.32Z</time></trkpt><trkpt lat="43.9693344" lon="11.2920854"><ele>224.0</ele><time>2026-04-25T09:38:11.319Z</time></trkpt><trkpt lat="43.9694922" lon="11.2919544"><ele>224.0</ele><time>2026-04-25T09:38:12.302Z</time></trkpt><trkpt lat="43.9696452" lon="11.2918175"><ele>224.0</ele><time>2026-04-25T09:38:13.297Z</time></trkpt><trkpt lat="43.9697949" lon="11.2916894"><ele>224.0</ele><time>2026-04-25T09:38:14.299Z</time></trkpt><trkpt lat="43.9699439" lon="11.2915602"><ele>224.0</ele><time>2026-04-25T09:38:15.317Z</time></trkpt><trkpt lat="43.970094" lon="11.2914328"><ele>223.66666666666669</ele><time>2026-04-25T09:38:16.319Z</time></trkpt><trkpt lat="43.9702434" lon="11.2912943"><ele>223.33333333333331</ele><time>2026-04-25T09:38:17.335Z</time></trkpt><trkpt lat="43.9703923" lon="11.2911626"><ele>223.0</ele><time>2026-04-25T09:38:18.327Z</time></trkpt><trkpt lat="43.9705399" lon="11.2910343"><ele>223.0</ele><time>2026-04-25T09:38:19.314Z</time></trkpt><trkpt lat="43.9706919" lon="11.2908971"><ele>223.0</ele><time>2026-04-25T09:38:20.33Z</time></trkpt><trkpt lat="43.9708455" lon="11.290761"><ele>223.0</ele><time>2026-04-25T09:38:21.322Z</time></trkpt><trkpt lat="43.9710006" lon="11.290621"><ele>222.66666666666666</ele><time>2026-04-25T09:38:22.322Z</time></trkpt><trkpt lat="43.9711498" lon="11.2904809"><ele>222.33333333333331</ele><time>2026-04-25T09:38:23.324Z</time></trkpt><trkpt lat="43.9712991" lon="11.290343"><ele>222.0</ele><time>2026-04-25T09:38:24.321Z</time></trkpt><trkpt lat="43.9714558" lon="11.2902005"><ele>222.0</ele><time>2026-04-25T09:38:25.325Z</time></trkpt><trkpt lat="43.9716122" lon="11.290066"><ele>222.0</ele><time>2026-04-25T09:38:26.329Z</time></trkpt><trkpt lat="43.971763" lon="11.2899307"><ele>222.0</ele><time>2026-04-25T09:38:27.325Z</time></trkpt><trkpt lat="43.971903" lon="11.2898057"><ele>222.0</ele><time>2026-04-25T09:38:28.324Z</time></trkpt><trkpt lat="43.972034" lon="11.289686"><ele>222.0</ele><time>2026-04-25T09:38:29.314Z</time></trkpt><trkpt lat="43.9721627" lon="11.2895794"><ele>222.0</ele><time>2026-04-25T09:38:30.314Z</time></trkpt><trkpt lat="43.9722861" lon="11.2894778"><ele>222.0</ele><time>2026-04-25T09:38:31.325Z</time></trkpt><trkpt lat="43.9724029" lon="11.2893796"><ele>222.0</ele><time>2026-04-25T09:38:32.323Z</time></trkpt><trkpt lat="43.9725068" lon="11.2892842"><ele>222.0</ele><time>2026-04-25T09:38:33.336Z</time></trkpt><trkpt lat="43.9726057" lon="11.2891947"><ele>222.0</ele><time>2026-04-25T09:38:34.322Z</time></trkpt><trkpt lat="43.972705" lon="11.2891178"><ele>222.0</ele><time>2026-04-25T09:38:35.318Z</time></trkpt><trkpt lat="43.9727906" lon="11.2890734"><ele>222.0</ele><time>2026-04-25T09:38:36.319Z</time></trkpt><trkpt lat="43.9728861" lon="11.2890899"><ele>222.0</ele><time>2026-04-25T09:38:37.327Z</time></trkpt><trkpt lat="43.9729698" lon="11.2891286"><ele>222.0</ele><time>2026-04-25T09:38:38.302Z</time></trkpt><trkpt lat="43.9730533" lon="11.2891717"><ele>222.0</ele><time>2026-04-25T09:38:39.317Z</time></trkpt><trkpt lat="43.973145" lon="11.289199"><ele>222.0</ele><time>2026-04-25T09:38:40.316Z</time></trkpt><trkpt lat="43.9732441" lon="11.2891607"><ele>222.0</ele><time>2026-04-25T09:38:41.316Z</time></trkpt><trkpt lat="43.9733368" lon="11.2890681"><ele>222.0</ele><time>2026-04-25T09:38:42.33Z</time></trkpt><trkpt lat="43.9733998" lon="11.2889232"><ele>222.0</ele><time>2026-04-25T09:38:43.321Z</time></trkpt><trkpt lat="43.9734426" lon="11.2887971"><ele>222.0</ele><time>2026-04-25T09:38:44.299Z</time></trkpt><trkpt lat="43.9735079" lon="11.2886666"><ele>222.0</ele><time>2026-04-25T09:38:45.332Z</time></trkpt><trkpt lat="43.9736009" lon="11.2885565"><ele>222.0</ele><time>2026-04-25T09:38:46.319Z</time></trkpt><trkpt lat="43.9737411" lon="11.2884744"><ele>222.0</ele><time>2026-04-25T09:38:47.311Z</time></trkpt><trkpt lat="43.9738757" lon="11.2884194"><ele>222.0</ele><time>2026-04-25T09:38:48.328Z</time></trkpt><trkpt lat="43.9740082" lon="11.2883697"><ele>222.0</ele><time>2026-04-25T09:38:49.322Z</time></trkpt><trkpt lat="43.9741316" lon="11.288318"><ele>222.0</ele><time>2026-04-25T09:38:50.318Z</time></trkpt><trkpt lat="43.9742648" lon="11.2882609"><ele>222.0</ele><time>2026-04-25T09:38:51.326Z</time></trkpt><trkpt lat="43.9744117" lon="11.2882131"><ele>222.0</ele><time>2026-04-25T09:38:52.301Z</time></trkpt><trkpt lat="43.9745666" lon="11.2881785"><ele>222.66666666666669</ele><time>2026-04-25T09:38:53.326Z</time></trkpt><trkpt lat="43.9747253" lon="11.2881428"><ele>223.33333333333334</ele><time>2026-04-25T09:38:54.301Z</time></trkpt><trkpt lat="43.9748877" lon="11.2881135"><ele>224.0</ele><time>2026-04-25T09:38:55.317Z</time></trkpt><trkpt lat="43.9750548" lon="11.2880963"><ele>224.33333333333334</ele><time>2026-04-25T09:38:56.32Z</time></trkpt><trkpt lat="43.9752377" lon="11.2880833"><ele>224.66666666666669</ele><time>2026-04-25T09:38:57.315Z</time></trkpt><trkpt lat="43.9754431" lon="11.2880723"><ele>225.0</ele><time>2026-04-25T09:38:58.318Z</time></trkpt><trkpt lat="43.9756515" lon="11.2880655"><ele>224.33333333333331</ele><time>2026-04-25T09:38:59.316Z</time></trkpt><trkpt lat="43.9758598" lon="11.2880739"><ele>223.66666666666666</ele><time>2026-04-25T09:39:00.329Z</time></trkpt><trkpt lat="43.9760866" lon="11.2881066"><ele>223.0</ele><time>2026-04-25T09:39:01.317Z</time></trkpt><trkpt lat="43.9763152" lon="11.2881386"><ele>222.5</ele><time>2026-04-25T09:39:02.327Z</time></trkpt><trkpt lat="43.9765493" lon="11.2881905"><ele>222.0</ele><time>2026-04-25T09:39:03.32Z</time></trkpt><trkpt lat="43.9767798" lon="11.288251"><ele>224.0</ele><time>2026-04-25T09:39:04.328Z</time></trkpt><trkpt lat="43.9770029" lon="11.2882974"><ele>226.0</ele><time>2026-04-25T09:39:05.321Z</time></trkpt><trkpt lat="43.977216" lon="11.288334"><ele>228.0</ele><time>2026-04-25T09:39:06.33Z</time></trkpt><trkpt lat="43.9774252" lon="11.2883708"><ele>229.33333333333331</ele><time>2026-04-25T09:39:07.331Z</time></trkpt><trkpt lat="43.9776362" lon="11.2884077"><ele>230.66666666666666</ele><time>2026-04-25T09:39:08.316Z</time></trkpt><trkpt lat="43.977841" lon="11.2884396"><ele>232.0</ele><time>2026-04-25T09:39:09.315Z</time></trkpt><trkpt lat="43.9780467" lon="11.2884712"><ele>232.0</ele><time>2026-04-25T09:39:10.305Z</time></trkpt><trkpt lat="43.9782467" lon="11.2884967"><ele>232.0</ele><time>2026-04-25T09:39:11.328Z</time></trkpt><trkpt lat="43.9784486" lon="11.2885055"><ele>232.0</ele><time>2026-04-25T09:39:12.325Z</time></trkpt><trkpt lat="43.9786451" lon="11.2885065"><ele>233.66666666666666</ele><time>2026-04-25T09:39:13.307Z</time></trkpt><trkpt lat="43.9788404" lon="11.288497"><ele>235.33333333333331</ele><time>2026-04-25T09:39:14.314Z</time></trkpt><trkpt lat="43.9790283" lon="11.2884856"><ele>237.0</ele><time>2026-04-25T09:39:15.31Z</time></trkpt><trkpt lat="43.9792137" lon="11.2884642"><ele>237.66666666666669</ele><time>2026-04-25T09:39:16.318Z</time></trkpt><trkpt lat="43.9793983" lon="11.288447"><ele>238.33333333333334</ele><time>2026-04-25T09:39:17.326Z</time></trkpt><trkpt lat="43.9795867" lon="11.2884191"><ele>239.0</ele><time>2026-04-25T09:39:18.33Z</time></trkpt><trkpt lat="43.9797711" lon="11.2883821"><ele>239.0</ele><time>2026-04-25T09:39:19.328Z</time></trkpt><trkpt lat="43.9799483" lon="11.288333"><ele>239.0</ele><time>2026-04-25T09:39:20.325Z</time></trkpt><trkpt lat="43.9801177" lon="11.2882691"><ele>239.0</ele><time>2026-04-25T09:39:21.313Z</time></trkpt><trkpt lat="43.9802778" lon="11.2881905"><ele>240.66666666666669</ele><time>2026-04-25T09:39:22.314Z</time></trkpt><trkpt lat="43.9804385" lon="11.2880967"><ele>242.33333333333331</ele><time>2026-04-25T09:39:23.299Z</time></trkpt><trkpt lat="43.9805988" lon="11.287989"><ele>244.0</ele><time>2026-04-25T09:39:24.326Z</time></trkpt><trkpt lat="43.9807599" lon="11.287866"><ele>245.66666666666666</ele><time>2026-04-25T09:39:25.336Z</time></trkpt><trkpt lat="43.9809231" lon="11.2877287"><ele>247.33333333333331</ele><time>2026-04-25T09:39:26.332Z</time></trkpt><trkpt lat="43.9810789" lon="11.2875802"><ele>249.0</ele><time>2026-04-25T09:39:27.323Z</time></trkpt><trkpt lat="43.9812269" lon="11.2874213"><ele>247.0</ele><time>2026-04-25T09:39:28.319Z</time></trkpt><trkpt lat="43.9813692" lon="11.2872518"><ele>245.0</ele><time>2026-04-25T09:39:29.323Z</time></trkpt><trkpt lat="43.9815112" lon="11.2870731"><ele>243.0</ele><time>2026-04-25T09:39:30.322Z</time></trkpt><trkpt lat="43.98165" lon="11.2868768"><ele>244.66666666666669</ele><time>2026-04-25T09:39:31.318Z</time></trkpt><trkpt lat="43.9817845" lon="11.2866675"><ele>246.33333333333334</ele><time>2026-04-25T09:39:32.302Z</time></trkpt><trkpt lat="43.9819096" lon="11.2864563"><ele>248.0</ele><time>2026-04-25T09:39:33.326Z</time></trkpt><trkpt lat="43.982027" lon="11.2862293"><ele>249.0</ele><time>2026-04-25T09:39:34.315Z</time></trkpt><trkpt lat="43.9821284" lon="11.2859902"><ele>250.0</ele><time>2026-04-25T09:39:35.318Z</time></trkpt><trkpt lat="43.9822242" lon="11.2857352"><ele>251.0</ele><time>2026-04-25T09:39:36.325Z</time></trkpt><trkpt lat="43.9823148" lon="11.2854772"><ele>252.33333333333334</ele><time>2026-04-25T09:39:37.323Z</time></trkpt><trkpt lat="43.9823935" lon="11.285211"><ele>253.66666666666669</ele><time>2026-04-25T09:39:38.322Z</time></trkpt><trkpt lat="43.9824616" lon="11.284925"><ele>255.0</ele><time>2026-04-25T09:39:39.323Z</time></trkpt><trkpt lat="43.9825215" lon="11.2846387"><ele>260.0</ele><time>2026-04-25T09:39:40.328Z</time></trkpt><trkpt lat="43.9825714" lon="11.2843535"><ele>265.0</ele><time>2026-04-25T09:39:41.321Z</time></trkpt><trkpt lat="43.9826184" lon="11.2840711"><ele>270.0</ele><time>2026-04-25T09:39:42.323Z</time></trkpt><trkpt lat="43.9826569" lon="11.2837873"><ele>270.6666666666667</ele><time>2026-04-25T09:39:43.313Z</time></trkpt><trkpt lat="43.9826828" lon="11.2834986"><ele>271.33333333333337</ele><time>2026-04-25T09:39:44.317Z</time></trkpt><trkpt lat="43.9827019" lon="11.2832067"><ele>272.0</ele><time>2026-04-25T09:39:45.308Z</time></trkpt><trkpt lat="43.9827153" lon="11.2829219"><ele>272.33333333333337</ele><time>2026-04-25T09:39:46.309Z</time></trkpt><trkpt lat="43.9827226" lon="11.2826525"><ele>272.6666666666667</ele><time>2026-04-25T09:39:47.305Z</time></trkpt><trkpt lat="43.9827273" lon="11.2824047"><ele>273.0</ele><time>2026-04-25T09:39:48.301Z</time></trkpt><trkpt lat="43.9827335" lon="11.2821693"><ele>274.3333333333333</ele><time>2026-04-25T09:39:49.325Z</time></trkpt><trkpt lat="43.9827357" lon="11.2819361"><ele>275.66666666666663</ele><time>2026-04-25T09:39:50.321Z</time></trkpt><trkpt lat="43.9827318" lon="11.2816939"><ele>277.0</ele><time>2026-04-25T09:39:51.318Z</time></trkpt><trkpt lat="43.9827312" lon="11.2814532"><ele>276.66666666666663</ele><time>2026-04-25T09:39:52.328Z</time></trkpt><trkpt lat="43.9827258" lon="11.281213"><ele>276.3333333333333</ele><time>2026-04-25T09:39:53.317Z</time></trkpt><trkpt lat="43.982732" lon="11.2809798"><ele>276.0</ele><time>2026-04-25T09:39:54.308Z</time></trkpt><trkpt lat="43.982748" lon="11.2807504"><ele>268.3333333333333</ele><time>2026-04-25T09:39:55.316Z</time></trkpt><trkpt lat="43.9827691" lon="11.2805302"><ele>260.66666666666663</ele><time>2026-04-25T09:39:56.318Z</time></trkpt><trkpt lat="43.9828005" lon="11.2803164"><ele>253.0</ele><time>2026-04-25T09:39:57.308Z</time></trkpt><trkpt lat="43.98284" lon="11.2801124"><ele>253.0</ele><time>2026-04-25T09:39:58.33Z</time></trkpt><trkpt lat="43.9828834" lon="11.2799098"><ele>253.0</ele><time>2026-04-25T09:39:59.314Z</time></trkpt><trkpt lat="43.9829252" lon="11.2797207"><ele>253.0</ele><time>2026-04-25T09:40:00.33Z</time></trkpt><trkpt lat="43.9829722" lon="11.2795256"><ele>253.0</ele><time>2026-04-25T09:40:01.333Z</time></trkpt><trkpt lat="43.9830197" lon="11.2793272"><ele>250.0</ele><time>2026-04-25T09:40:02.328Z</time></trkpt><trkpt lat="43.9830686" lon="11.2791254"><ele>247.0</ele><time>2026-04-25T09:40:03.328Z</time></trkpt><trkpt lat="43.9831106" lon="11.2789156"><ele>244.0</ele><time>2026-04-25T09:40:04.315Z</time></trkpt><trkpt lat="43.9831506" lon="11.2787048"><ele>243.0</ele><time>2026-04-25T09:40:05.303Z</time></trkpt><trkpt lat="43.9831911" lon="11.2784975"><ele>242.0</ele><time>2026-04-25T09:40:06.309Z</time></trkpt><trkpt lat="43.9832309" lon="11.2782825"><ele>241.0</ele><time>2026-04-25T09:40:07.33Z</time></trkpt><trkpt lat="43.9832775" lon="11.2780646"><ele>241.0</ele><time>2026-04-25T09:40:08.344Z</time></trkpt><trkpt lat="43.9833277" lon="11.2778379"><ele>241.0</ele><time>2026-04-25T09:40:09.323Z</time></trkpt><trkpt lat="43.983378" lon="11.2775986"><ele>241.0</ele><time>2026-04-25T09:40:10.33Z</time></trkpt><trkpt lat="43.9834199" lon="11.277361"><ele>244.0</ele><time>2026-04-25T09:40:11.343Z</time></trkpt><trkpt lat="43.9834624" lon="11.2771369"><ele>247.0</ele><time>2026-04-25T09:40:12.323Z</time></trkpt><trkpt lat="43.9835023" lon="11.2769311"><ele>250.0</ele><time>2026-04-25T09:40:13.324Z</time></trkpt><trkpt lat="43.9835397" lon="11.2767294"><ele>250.0</ele><time>2026-04-25T09:40:14.317Z</time></trkpt><trkpt lat="43.9835815" lon="11.2765216"><ele>250.0</ele><time>2026-04-25T09:40:15.322Z</time></trkpt><trkpt lat="43.9836284" lon="11.2763246"><ele>250.0</ele><time>2026-04-25T09:40:16.317Z</time></trkpt><trkpt lat="43.9836731" lon="11.2761336"><ele>250.0</ele><time>2026-04-25T09:40:17.328Z</time></trkpt><trkpt lat="43.9837157" lon="11.27595"><ele>255.5</ele><time>2026-04-25T09:40:18.325Z</time></trkpt><trkpt lat="43.9837558" lon="11.2757633"><ele>261.0</ele><time>2026-04-25T09:40:19.326Z</time></trkpt><trkpt lat="43.9838011" lon="11.2755798"><ele>266.5</ele><time>2026-04-25T09:40:20.301Z</time></trkpt><trkpt lat="43.9838519" lon="11.2753888"><ele>272.0</ele><time>2026-04-25T09:40:21.314Z</time></trkpt><trkpt lat="43.9839115" lon="11.2752006"><ele>272.0</ele><time>2026-04-25T09:40:22.323Z</time></trkpt><trkpt lat="43.9839763" lon="11.2750274"><ele>272.0</ele><time>2026-04-25T09:40:23.301Z</time></trkpt><trkpt lat="43.9840485" lon="11.2748743"><ele>272.0</ele><time>2026-04-25T09:40:24.313Z</time></trkpt><trkpt lat="43.9841238" lon="11.2747286"><ele>272.0</ele><time>2026-04-25T09:40:25.315Z</time></trkpt><trkpt lat="43.9842026" lon="11.2746018"><ele>274.75</ele><time>2026-04-25T09:40:26.323Z</time></trkpt><trkpt lat="43.9842826" lon="11.2744893"><ele>277.5</ele><time>2026-04-25T09:40:27.318Z</time></trkpt><trkpt lat="43.9843669" lon="11.2743851"><ele>280.25</ele><time>2026-04-25T09:40:28.314Z</time></trkpt><trkpt lat="43.9844561" lon="11.2742809"><ele>283.0</ele><time>2026-04-25T09:40:29.317Z</time></trkpt><trkpt lat="43.9845492" lon="11.2741829"><ele>283.0</ele><time>2026-04-25T09:40:30.316Z</time></trkpt><trkpt lat="43.9846416" lon="11.2741012"><ele>283.0</ele><time>2026-04-25T09:40:31.325Z</time></trkpt><trkpt lat="43.9847336" lon="11.2740276"><ele>283.0</ele><time>2026-04-25T09:40:32.31Z</time></trkpt><trkpt lat="43.9848268" lon="11.273963"><ele>283.0</ele><time>2026-04-25T09:40:33.31Z</time></trkpt><trkpt lat="43.9849104" lon="11.2739012"><ele>283.0</ele><time>2026-04-25T09:40:34.305Z</time></trkpt><trkpt lat="43.9849926" lon="11.2738541"><ele>283.0</ele><time>2026-04-25T09:40:35.322Z</time></trkpt><trkpt lat="43.985085" lon="11.2738101"><ele>283.0</ele><time>2026-04-25T09:40:36.32Z</time></trkpt><trkpt lat="43.9851715" lon="11.2737768"><ele>283.0</ele><time>2026-04-25T09:40:37.318Z</time></trkpt><trkpt lat="43.9852557" lon="11.2737427"><ele>283.0</ele><time>2026-04-25T09:40:38.319Z</time></trkpt><trkpt lat="43.9853415" lon="11.2737059"><ele>283.0</ele><time>2026-04-25T09:40:39.315Z</time></trkpt><trkpt lat="43.9854357" lon="11.2736669"><ele>283.0</ele><time>2026-04-25T09:40:40.311Z</time></trkpt><trkpt lat="43.9855338" lon="11.2736436"><ele>283.0</ele><time>2026-04-25T09:40:41.313Z</time></trkpt><trkpt lat="43.9856379" lon="11.2736174"><ele>283.0</ele><time>2026-04-25T09:40:42.309Z</time></trkpt><trkpt lat="43.9857364" lon="11.2735895"><ele>283.0</ele><time>2026-04-25T09:40:43.308Z</time></trkpt><trkpt lat="43.9858442" lon="11.2735562"><ele>283.0</ele><time>2026-04-25T09:40:44.294Z</time></trkpt><trkpt lat="43.9859825" lon="11.2735242"><ele>284.0</ele><time>2026-04-25T09:40:45.324Z</time></trkpt><trkpt lat="43.9861459" lon="11.273498"><ele>285.0</ele><time>2026-04-25T09:40:46.317Z</time></trkpt><trkpt lat="43.9863371" lon="11.2734726"><ele>286.0</ele><time>2026-04-25T09:40:47.324Z</time></trkpt><trkpt lat="43.9865452" lon="11.2734431"><ele>287.3333333333333</ele><time>2026-04-25T09:40:48.29Z</time></trkpt><trkpt lat="43.9867549" lon="11.27342"><ele>288.6666666666667</ele><time>2026-04-25T09:40:49.31Z</time></trkpt><trkpt lat="43.9869696" lon="11.2733905"><ele>290.0</ele><time>2026-04-25T09:40:50.313Z</time></trkpt><trkpt lat="43.9871874" lon="11.2733612"><ele>290.0</ele><time>2026-04-25T09:40:51.311Z</time></trkpt><trkpt lat="43.9873993" lon="11.2733376"><ele>290.0</ele><time>2026-04-25T09:40:52.326Z</time></trkpt><trkpt lat="43.9876007" lon="11.2733055"><ele>290.0</ele><time>2026-04-25T09:40:53.318Z</time></trkpt><trkpt lat="43.9877963" lon="11.2732687"><ele>292.0</ele><time>2026-04-25T09:40:54.308Z</time></trkpt><trkpt lat="43.9879893" lon="11.2732258"><ele>294.0</ele><time>2026-04-25T09:40:55.302Z</time></trkpt><trkpt lat="43.9881801" lon="11.2731699"><ele>296.0</ele><time>2026-04-25T09:40:56.319Z</time></trkpt><trkpt lat="43.9883762" lon="11.2730867"><ele>296.0</ele><time>2026-04-25T09:40:57.32Z</time></trkpt><trkpt lat="43.9885677" lon="11.2729984"><ele>296.0</ele><time>2026-04-25T09:40:58.315Z</time></trkpt><trkpt lat="43.9887567" lon="11.2728917"><ele>296.0</ele><time>2026-04-25T09:40:59.319Z</time></trkpt><trkpt lat="43.9889511" lon="11.2727678"><ele>296.0</ele><time>2026-04-25T09:41:00.33Z</time></trkpt><trkpt lat="43.9891494" lon="11.2726348"><ele>296.0</ele><time>2026-04-25T09:41:01.323Z</time></trkpt><trkpt lat="43.9893483" lon="11.272488"><ele>296.0</ele><time>2026-04-25T09:41:02.307Z</time></trkpt><trkpt lat="43.98954" lon="11.2723327"><ele>297.0</ele><time>2026-04-25T09:41:03.318Z</time></trkpt><trkpt lat="43.9897239" lon="11.2721725"><ele>298.0</ele><time>2026-04-25T09:41:04.318Z</time></trkpt><trkpt lat="43.9899018" lon="11.2720088"><ele>299.0</ele><time>2026-04-25T09:41:05.307Z</time></trkpt><trkpt lat="43.9900831" lon="11.2718404"><ele>301.6666666666667</ele><time>2026-04-25T09:41:06.317Z</time></trkpt><trkpt lat="43.9902544" lon="11.2716736"><ele>304.3333333333333</ele><time>2026-04-25T09:41:07.33Z</time></trkpt><trkpt lat="43.9904203" lon="11.271515"><ele>307.0</ele><time>2026-04-25T09:41:08.33Z</time></trkpt><trkpt lat="43.9905793" lon="11.271365"><ele>307.0</ele><time>2026-04-25T09:41:09.33Z</time></trkpt><trkpt lat="43.9907261" lon="11.2712239"><ele>307.0</ele><time>2026-04-25T09:41:10.306Z</time></trkpt><trkpt lat="43.9908654" lon="11.2710963"><ele>307.0</ele><time>2026-04-25T09:41:11.313Z</time></trkpt><trkpt lat="43.9909991" lon="11.2709823"><ele>310.3333333333333</ele><time>2026-04-25T09:41:12.308Z</time></trkpt><trkpt lat="43.9911357" lon="11.2708688"><ele>313.6666666666667</ele><time>2026-04-25T09:41:13.32Z</time></trkpt><trkpt lat="43.9912626" lon="11.2707547"><ele>317.0</ele><time>2026-04-25T09:41:14.326Z</time></trkpt><trkpt lat="43.9913797" lon="11.270635"><ele>317.25</ele><time>2026-04-25T09:41:15.295Z</time></trkpt><trkpt lat="43.9914739" lon="11.2704925"><ele>317.5</ele><time>2026-04-25T09:41:16.321Z</time></trkpt><trkpt lat="43.9915443" lon="11.2703236"><ele>317.75</ele><time>2026-04-25T09:41:17.319Z</time></trkpt><trkpt lat="43.991587" lon="11.2701345"><ele>318.0</ele><time>2026-04-25T09:41:18.312Z</time></trkpt><trkpt lat="43.9916124" lon="11.2699395"><ele>317.5</ele><time>2026-04-25T09:41:19.326Z</time></trkpt><trkpt lat="43.9916216" lon="11.269759"><ele>317.0</ele><time>2026-04-25T09:41:20.315Z</time></trkpt><trkpt lat="43.9916131" lon="11.2695736"><ele>316.5</ele><time>2026-04-25T09:41:21.302Z</time></trkpt><trkpt lat="43.9916192" lon="11.2694122"><ele>316.0</ele><time>2026-04-25T09:41:22.319Z</time></trkpt><trkpt lat="43.9916492" lon="11.2692854"><ele>317.75</ele><time>2026-04-25T09:41:23.317Z</time></trkpt><trkpt lat="43.9917315" lon="11.2691683"><ele>319.5</ele><time>2026-04-25T09:41:24.327Z</time></trkpt><trkpt lat="43.9918361" lon="11.2691047"><ele>321.25</ele><time>2026-04-25T09:41:25.318Z</time></trkpt><trkpt lat="43.9919405" lon="11.2690844"><ele>323.0</ele><time>2026-04-25T09:41:26.321Z</time></trkpt><trkpt lat="43.9920556" lon="11.2691433"><ele>323.0</ele><time>2026-04-25T09:41:27.333Z</time></trkpt><trkpt lat="43.9921652" lon="11.2692244"><ele>323.0</ele><time>2026-04-25T09:41:28.296Z</time></trkpt><trkpt lat="43.992281" lon="11.2692857"><ele>323.0</ele><time>2026-04-25T09:41:29.327Z</time></trkpt><trkpt lat="43.9923921" lon="11.2693309"><ele>323.0</ele><time>2026-04-25T09:41:30.323Z</time></trkpt><trkpt lat="43.9925024" lon="11.2693487"><ele>324.5</ele><time>2026-04-25T09:41:31.331Z</time></trkpt><trkpt lat="43.992618" lon="11.2693223"><ele>326.0</ele><time>2026-04-25T09:41:32.326Z</time></trkpt><trkpt lat="43.9927345" lon="11.2692675"><ele>327.5</ele><time>2026-04-25T09:41:33.317Z</time></trkpt><trkpt lat="43.9928508" lon="11.2691956"><ele>329.0</ele><time>2026-04-25T09:41:34.319Z</time></trkpt><trkpt lat="43.9929725" lon="11.2691212"><ele>329.0</ele><time>2026-04-25T09:41:35.333Z</time></trkpt><trkpt lat="43.9930786" lon="11.2690564"><ele>329.0</ele><time>2026-04-25T09:41:36.318Z</time></trkpt><trkpt lat="43.9931982" lon="11.2690066"><ele>329.0</ele><time>2026-04-25T09:41:37.3Z</time></trkpt><trkpt lat="43.99334" lon="11.268963"><ele>329.0</ele><time>2026-04-25T09:41:38.317Z</time></trkpt><trkpt lat="43.9935082" lon="11.2689258"><ele>328.0</ele><time>2026-04-25T09:41:39.311Z</time></trkpt><trkpt lat="43.9936952" lon="11.2688895"><ele>327.0</ele><time>2026-04-25T09:41:40.326Z</time></trkpt><trkpt lat="43.9938918" lon="11.2688661"><ele>326.0</ele><time>2026-04-25T09:41:41.328Z</time></trkpt><trkpt lat="43.9940844" lon="11.2688792"><ele>329.6666666666667</ele><time>2026-04-25T09:41:42.333Z</time></trkpt><trkpt lat="43.9942669" lon="11.2689224"><ele>333.3333333333333</ele><time>2026-04-25T09:41:43.322Z</time></trkpt><trkpt lat="43.9944601" lon="11.2689465"><ele>337.0</ele><time>2026-04-25T09:41:44.305Z</time></trkpt><trkpt lat="43.9946453" lon="11.268927"><ele>337.0</ele><time>2026-04-25T09:41:45.317Z</time></trkpt><trkpt lat="43.9948101" lon="11.2689"><ele>337.0</ele><time>2026-04-25T09:41:46.327Z</time></trkpt><trkpt lat="43.994952" lon="11.2688673"><ele>337.0</ele><time>2026-04-25T09:41:47.307Z</time></trkpt><trkpt lat="43.9950701" lon="11.2687898"><ele>337.0</ele><time>2026-04-25T09:41:48.307Z</time></trkpt><trkpt lat="43.9951711" lon="11.2686749"><ele>337.75</ele><time>2026-04-25T09:41:49.315Z</time></trkpt><trkpt lat="43.9952545" lon="11.2685532"><ele>338.5</ele><time>2026-04-25T09:41:50.31Z</time></trkpt><trkpt lat="43.9953443" lon="11.2684533"><ele>339.25</ele><time>2026-04-25T09:41:51.313Z</time></trkpt><trkpt lat="43.995454" lon="11.2683741"><ele>340.0</ele><time>2026-04-25T09:41:52.317Z</time></trkpt><trkpt lat="43.9956018" lon="11.2683396"><ele>340.0</ele><time>2026-04-25T09:41:53.319Z</time></trkpt><trkpt lat="43.9957486" lon="11.268317"><ele>340.0</ele><time>2026-04-25T09:41:54.318Z</time></trkpt><trkpt lat="43.9958971" lon="11.2682977"><ele>340.0</ele><time>2026-04-25T09:41:55.332Z</time></trkpt><trkpt lat="43.9960354" lon="11.2683062"><ele>340.0</ele><time>2026-04-25T09:41:56.296Z</time></trkpt><trkpt lat="43.9961461" lon="11.2683526"><ele>339.5</ele><time>2026-04-25T09:41:57.296Z</time></trkpt><trkpt lat="43.9962396" lon="11.2684693"><ele>339.0</ele><time>2026-04-25T09:41:58.305Z</time></trkpt><trkpt lat="43.9963559" lon="11.2686108"><ele>338.5</ele><time>2026-04-25T09:41:59.331Z</time></trkpt><trkpt lat="43.9964809" lon="11.2687268"><ele>338.0</ele><time>2026-04-25T09:42:00.327Z</time></trkpt><trkpt lat="43.9966152" lon="11.268837"><ele>338.6666666666667</ele><time>2026-04-25T09:42:01.342Z</time></trkpt><trkpt lat="43.9967532" lon="11.2689124"><ele>339.3333333333333</ele><time>2026-04-25T09:42:02.317Z</time></trkpt><trkpt lat="43.9968975" lon="11.2689662"><ele>340.0</ele><time>2026-04-25T09:42:03.336Z</time></trkpt><trkpt lat="43.997051" lon="11.2689705"><ele>340.0</ele><time>2026-04-25T09:42:04.331Z</time></trkpt><trkpt lat="43.9972135" lon="11.2689631"><ele>340.0</ele><time>2026-04-25T09:42:05.32Z</time></trkpt><trkpt lat="43.997386" lon="11.2689528"><ele>340.0</ele><time>2026-04-25T09:42:06.325Z</time></trkpt><trkpt lat="43.9975484" lon="11.2689434"><ele>342.0</ele><time>2026-04-25T09:42:07.297Z</time></trkpt><trkpt lat="43.9977172" lon="11.2689354"><ele>344.0</ele><time>2026-04-25T09:42:08.326Z</time></trkpt><trkpt lat="43.997886" lon="11.2689264"><ele>346.0</ele><time>2026-04-25T09:42:09.309Z</time></trkpt><trkpt lat="43.9980571" lon="11.2689355"><ele>345.3333333333333</ele><time>2026-04-25T09:42:10.307Z</time></trkpt><trkpt lat="43.9982293" lon="11.2689758"><ele>344.6666666666667</ele><time>2026-04-25T09:42:11.303Z</time></trkpt><trkpt lat="43.9984013" lon="11.2690185"><ele>344.0</ele><time>2026-04-25T09:42:12.319Z</time></trkpt><trkpt lat="43.9985764" lon="11.269058"><ele>345.33333333333337</ele><time>2026-04-25T09:42:13.314Z</time></trkpt><trkpt lat="43.9987469" lon="11.2691009"><ele>346.6666666666667</ele><time>2026-04-25T09:42:14.301Z</time></trkpt><trkpt lat="43.9989273" lon="11.2691402"><ele>348.0</ele><time>2026-04-25T09:42:15.318Z</time></trkpt><trkpt lat="43.9991094" lon="11.2691796"><ele>347.0</ele><time>2026-04-25T09:42:16.336Z</time></trkpt><trkpt lat="43.9992953" lon="11.2692162"><ele>346.0</ele><time>2026-04-25T09:42:17.325Z</time></trkpt><trkpt lat="43.9994816" lon="11.2692553"><ele>345.0</ele><time>2026-04-25T09:42:18.323Z</time></trkpt><trkpt lat="43.9996729" lon="11.2692989"><ele>345.0</ele><time>2026-04-25T09:42:19.322Z</time></trkpt><trkpt lat="43.999863" lon="11.2693435"><ele>345.0</ele><time>2026-04-25T09:42:20.334Z</time></trkpt><trkpt lat="44.0000545" lon="11.2693949"><ele>345.0</ele><time>2026-04-25T09:42:21.32Z</time></trkpt><trkpt lat="44.0002571" lon="11.2694475"><ele>345.0</ele><time>2026-04-25T09:42:22.334Z</time></trkpt><trkpt lat="44.0004689" lon="11.2695059"><ele>345.0</ele><time>2026-04-25T09:42:23.321Z</time></trkpt><trkpt lat="44.0006973" lon="11.2695593"><ele>345.0</ele><time>2026-04-25T09:42:24.341Z</time></trkpt><trkpt lat="44.0009412" lon="11.2696105"><ele>343.5</ele><time>2026-04-25T09:42:25.326Z</time></trkpt><trkpt lat="44.0011815" lon="11.2696607"><ele>342.0</ele><time>2026-04-25T09:42:26.325Z</time></trkpt><trkpt lat="44.0013993" lon="11.2697067"><ele>342.0</ele><time>2026-04-25T09:42:27.334Z</time></trkpt><trkpt lat="44.0015883" lon="11.2697382"><ele>342.0</ele><time>2026-04-25T09:42:28.306Z</time></trkpt><trkpt lat="44.0017616" lon="11.2697669"><ele>342.0</ele><time>2026-04-25T09:42:29.309Z</time></trkpt><trkpt lat="44.0019087" lon="11.2697663"><ele>343.5</ele><time>2026-04-25T09:42:30.328Z</time></trkpt><trkpt lat="44.0020345" lon="11.2696823"><ele>345.0</ele><time>2026-04-25T09:42:31.309Z</time></trkpt><trkpt lat="44.0021582" lon="11.2695434"><ele>346.5</ele><time>2026-04-25T09:42:32.323Z</time></trkpt><trkpt lat="44.0022476" lon="11.269423"><ele>348.0</ele><time>2026-04-25T09:42:33.322Z</time></trkpt><trkpt lat="44.0023476" lon="11.2693238"><ele>348.0</ele><time>2026-04-25T09:42:34.317Z</time></trkpt><trkpt lat="44.0024687" lon="11.2692598"><ele>348.0</ele><time>2026-04-25T09:42:35.317Z</time></trkpt><trkpt lat="44.0026117" lon="11.2692141"><ele>348.0</ele><time>2026-04-25T09:42:36.313Z</time></trkpt><trkpt lat="44.0027861" lon="11.2692254"><ele>351.0</ele><time>2026-04-25T09:42:37.312Z</time></trkpt><trkpt lat="44.0029778" lon="11.2692872"><ele>354.0</ele><time>2026-04-25T09:42:38.312Z</time></trkpt><trkpt lat="44.0031519" lon="11.2693645"><ele>357.0</ele><time>2026-04-25T09:42:39.308Z</time></trkpt><trkpt lat="44.003318" lon="11.2694645"><ele>360.0</ele><time>2026-04-25T09:42:40.328Z</time></trkpt><trkpt lat="44.0034733" lon="11.2695429"><ele>363.0</ele><time>2026-04-25T09:42:41.309Z</time></trkpt><trkpt lat="44.0036127" lon="11.2695952"><ele>366.0</ele><time>2026-04-25T09:42:42.322Z</time></trkpt><trkpt lat="44.0037521" lon="11.2696293"><ele>366.0</ele><time>2026-04-25T09:42:43.32Z</time></trkpt><trkpt lat="44.0038848" lon="11.2696571"><ele>366.0</ele><time>2026-04-25T09:42:44.34Z</time></trkpt><trkpt lat="44.0040239" lon="11.2697018"><ele>366.0</ele><time>2026-04-25T09:42:45.339Z</time></trkpt><trkpt lat="44.00416" lon="11.269781"><ele>366.0</ele><time>2026-04-25T09:42:46.302Z</time></trkpt><trkpt lat="44.0042872" lon="11.2698923"><ele>367.5</ele><time>2026-04-25T09:42:47.316Z</time></trkpt><trkpt lat="44.0044058" lon="11.269997"><ele>369.0</ele><time>2026-04-25T09:42:48.313Z</time></trkpt><trkpt lat="44.0045203" lon="11.2700981"><ele>370.5</ele><time>2026-04-25T09:42:49.311Z</time></trkpt><trkpt lat="44.0046334" lon="11.270197"><ele>372.0</ele><time>2026-04-25T09:42:50.317Z</time></trkpt><trkpt lat="44.0047472" lon="11.270296"><ele>372.0</ele><time>2026-04-25T09:42:51.315Z</time></trkpt><trkpt lat="44.0048696" lon="11.2703908"><ele>372.0</ele><time>2026-04-25T09:42:52.315Z</time></trkpt><trkpt lat="44.0050078" lon="11.2704547"><ele>372.0</ele><time>2026-04-25T09:42:53.338Z</time></trkpt><trkpt lat="44.0051634" lon="11.2704658"><ele>372.0</ele><time>2026-04-25T09:42:54.323Z</time></trkpt><trkpt lat="44.0053314" lon="11.2704337"><ele>371.0</ele><time>2026-04-25T09:42:55.324Z</time></trkpt><trkpt lat="44.0054706" lon="11.2703975"><ele>370.0</ele><time>2026-04-25T09:42:56.322Z</time></trkpt><trkpt lat="44.0055667" lon="11.2703673"><ele>369.0</ele><time>2026-04-25T09:42:57.303Z</time></trkpt><trkpt lat="44.0056821" lon="11.2703681"><ele>368.0</ele><time>2026-04-25T09:42:58.328Z</time></trkpt><trkpt lat="44.0058011" lon="11.2703776"><ele>370.33333333333337</ele><time>2026-04-25T09:42:59.318Z</time></trkpt><trkpt lat="44.0059352" lon="11.2704423"><ele>372.6666666666667</ele><time>2026-04-25T09:43:00.304Z</time></trkpt><trkpt lat="44.0060762" lon="11.2705306"><ele>375.0</ele><time>2026-04-25T09:43:01.321Z</time></trkpt><trkpt lat="44.0062325" lon="11.2706322"><ele>375.3333333333333</ele><time>2026-04-25T09:43:02.322Z</time></trkpt><trkpt lat="44.0064119" lon="11.2707577"><ele>375.66666666666663</ele><time>2026-04-25T09:43:03.326Z</time></trkpt><trkpt lat="44.0065996" lon="11.2708946"><ele>376.0</ele><time>2026-04-25T09:43:04.318Z</time></trkpt><trkpt lat="44.0067951" lon="11.2710139"><ele>380.3333333333333</ele><time>2026-04-25T09:43:05.326Z</time></trkpt><trkpt lat="44.0069998" lon="11.2711322"><ele>384.66666666666663</ele><time>2026-04-25T09:43:06.321Z</time></trkpt><trkpt lat="44.0072023" lon="11.2712532"><ele>389.0</ele><time>2026-04-25T09:43:07.3Z</time></trkpt><trkpt lat="44.0074082" lon="11.2713645"><ele>390.66666666666663</ele><time>2026-04-25T09:43:08.321Z</time></trkpt><trkpt lat="44.0076082" lon="11.2714823"><ele>392.33333333333337</ele><time>2026-04-25T09:43:09.303Z</time></trkpt><trkpt lat="44.0077886" lon="11.2715756"><ele>394.0</ele><time>2026-04-25T09:43:10.312Z</time></trkpt><trkpt lat="44.0079704" lon="11.2716445"><ele>394.0</ele><time>2026-04-25T09:43:11.338Z</time></trkpt><trkpt lat="44.0081586" lon="11.2716762"><ele>394.0</ele><time>2026-04-25T09:43:12.33Z</time></trkpt><trkpt lat="44.0083333" lon="11.2716857"><ele>394.0</ele><time>2026-04-25T09:43:13.325Z</time></trkpt><trkpt lat="44.0085115" lon="11.2716689"><ele>395.6666666666667</ele><time>2026-04-25T09:43:14.325Z</time></trkpt><trkpt lat="44.0086925" lon="11.2716074"><ele>397.33333333333337</ele><time>2026-04-25T09:43:15.315Z</time></trkpt><trkpt lat="44.0088785" lon="11.2715433"><ele>399.0</ele><time>2026-04-25T09:43:16.322Z</time></trkpt><trkpt lat="44.0090581" lon="11.2714728"><ele>400.0</ele><time>2026-04-25T09:43:17.297Z</time></trkpt><trkpt lat="44.0092183" lon="11.271396"><ele>401.0</ele><time>2026-04-25T09:43:18.296Z</time></trkpt><trkpt lat="44.0093744" lon="11.2713134"><ele>402.0</ele><time>2026-04-25T09:43:19.329Z</time></trkpt><trkpt lat="44.0095277" lon="11.2712488"><ele>402.0</ele><time>2026-04-25T09:43:20.32Z</time></trkpt><trkpt lat="44.0096902" lon="11.2712207"><ele>402.0</ele><time>2026-04-25T09:43:21.325Z</time></trkpt><trkpt lat="44.0098611" lon="11.2712023"><ele>402.0</ele><time>2026-04-25T09:43:22.308Z</time></trkpt><trkpt lat="44.0100309" lon="11.2712088"><ele>404.33333333333337</ele><time>2026-04-25T09:43:23.321Z</time></trkpt><trkpt lat="44.0102036" lon="11.2712319"><ele>406.6666666666667</ele><time>2026-04-25T09:43:24.311Z</time></trkpt><trkpt lat="44.0103684" lon="11.2712778"><ele>409.0</ele><time>2026-04-25T09:43:25.325Z</time></trkpt><trkpt lat="44.0105432" lon="11.2713309"><ele>409.0</ele><time>2026-04-25T09:43:26.304Z</time></trkpt><trkpt lat="44.0107112" lon="11.2713663"><ele>409.0</ele><time>2026-04-25T09:43:27.328Z</time></trkpt><trkpt lat="44.0108701" lon="11.2713694"><ele>409.0</ele><time>2026-04-25T09:43:28.316Z</time></trkpt><trkpt lat="44.0110236" lon="11.2713059"><ele>411.6666666666667</ele><time>2026-04-25T09:43:29.315Z</time></trkpt><trkpt lat="44.0111911" lon="11.2711781"><ele>414.33333333333337</ele><time>2026-04-25T09:43:30.319Z</time></trkpt><trkpt lat="44.0113403" lon="11.2710507"><ele>417.0</ele><time>2026-04-25T09:43:31.324Z</time></trkpt><trkpt lat="44.0114885" lon="11.2709172"><ele>417.33333333333337</ele><time>2026-04-25T09:43:32.324Z</time></trkpt><trkpt lat="44.0116632" lon="11.2708261"><ele>417.6666666666667</ele><time>2026-04-25T09:43:33.315Z</time></trkpt><trkpt lat="44.0118402" lon="11.2707417"><ele>418.0</ele><time>2026-04-25T09:43:34.328Z</time></trkpt><trkpt lat="44.0120346" lon="11.2706566"><ele>416.6666666666667</ele><time>2026-04-25T09:43:35.319Z</time></trkpt><trkpt lat="44.0122239" lon="11.2705515"><ele>415.33333333333337</ele><time>2026-04-25T09:43:36.326Z</time></trkpt><trkpt lat="44.0124097" lon="11.2704548"><ele>414.0</ele><time>2026-04-25T09:43:37.336Z</time></trkpt><trkpt lat="44.0125881" lon="11.2703687"><ele>418.33333333333337</ele><time>2026-04-25T09:43:38.313Z</time></trkpt><trkpt lat="44.0127494" lon="11.2703041"><ele>422.6666666666667</ele><time>2026-04-25T09:43:39.329Z</time></trkpt><trkpt lat="44.0129058" lon="11.2702501"><ele>427.0</ele><time>2026-04-25T09:43:40.331Z</time></trkpt><trkpt lat="44.0130578" lon="11.2702001"><ele>427.0</ele><time>2026-04-25T09:43:41.303Z</time></trkpt><trkpt lat="44.0132187" lon="11.2701752"><ele>427.0</ele><time>2026-04-25T09:43:42.317Z</time></trkpt><trkpt lat="44.0133653" lon="11.2701923"><ele>427.0</ele><time>2026-04-25T09:43:43.316Z</time></trkpt><trkpt lat="44.0135112" lon="11.2702366"><ele>429.5</ele><time>2026-04-25T09:43:44.31Z</time></trkpt><trkpt lat="44.0136509" lon="11.2702928"><ele>432.0</ele><time>2026-04-25T09:43:45.304Z</time></trkpt><trkpt lat="44.0137958" lon="11.2703586"><ele>434.5</ele><time>2026-04-25T09:43:46.33Z</time></trkpt><trkpt lat="44.0139313" lon="11.2704128"><ele>437.0</ele><time>2026-04-25T09:43:47.309Z</time></trkpt><trkpt lat="44.0140719" lon="11.2704664"><ele>437.0</ele><time>2026-04-25T09:43:48.314Z</time></trkpt><trkpt lat="44.0142037" lon="11.2705264"><ele>437.0</ele><time>2026-04-25T09:43:49.316Z</time></trkpt><trkpt lat="44.0143368" lon="11.2705909"><ele>437.0</ele><time>2026-04-25T09:43:50.326Z</time></trkpt><trkpt lat="44.0144563" lon="11.2706565"><ele>437.0</ele><time>2026-04-25T09:43:51.319Z</time></trkpt><trkpt lat="44.0145674" lon="11.2707064"><ele>437.0</ele><time>2026-04-25T09:43:52.317Z</time></trkpt><trkpt lat="44.0146753" lon="11.2706948"><ele>437.0</ele><time>2026-04-25T09:43:53.315Z</time></trkpt><trkpt lat="44.0147977" lon="11.2706517"><ele>437.0</ele><time>2026-04-25T09:43:54.3Z</time></trkpt><trkpt lat="44.0149481" lon="11.270609"><ele>437.0</ele><time>2026-04-25T09:43:55.308Z</time></trkpt><trkpt lat="44.0150998" lon="11.2705596"><ele>440.0</ele><time>2026-04-25T09:43:56.335Z</time></trkpt><trkpt lat="44.0152357" lon="11.2704721"><ele>443.0</ele><time>2026-04-25T09:43:57.323Z</time></trkpt><trkpt lat="44.015358" lon="11.2703681"><ele>446.0</ele><time>2026-04-25T09:43:58.323Z</time></trkpt><trkpt lat="44.015463" lon="11.2702564"><ele>449.0</ele><time>2026-04-25T09:43:59.318Z</time></trkpt><trkpt lat="44.0155399" lon="11.2700985"><ele>449.0</ele><time>2026-04-25T09:44:00.306Z</time></trkpt><trkpt lat="44.0155924" lon="11.2699262"><ele>449.0</ele><time>2026-04-25T09:44:01.315Z</time></trkpt><trkpt lat="44.0156484" lon="11.2697416"><ele>449.0</ele><time>2026-04-25T09:44:02.296Z</time></trkpt><trkpt lat="44.0157057" lon="11.2695616"><ele>449.0</ele><time>2026-04-25T09:44:03.326Z</time></trkpt><trkpt lat="44.0157631" lon="11.2693981"><ele>451.5</ele><time>2026-04-25T09:44:04.326Z</time></trkpt><trkpt lat="44.0158234" lon="11.2692505"><ele>454.0</ele><time>2026-04-25T09:44:05.328Z</time></trkpt><trkpt lat="44.0159099" lon="11.2691115"><ele>456.5</ele><time>2026-04-25T09:44:06.33Z</time></trkpt><trkpt lat="44.0160308" lon="11.2690156"><ele>459.0</ele><time>2026-04-25T09:44:07.312Z</time></trkpt><trkpt lat="44.0161668" lon="11.2689627"><ele>454.66666666666663</ele><time>2026-04-25T09:44:08.335Z</time></trkpt><trkpt lat="44.0163038" lon="11.2689173"><ele>450.3333333333333</ele><time>2026-04-25T09:44:09.328Z</time></trkpt><trkpt lat="44.0164514" lon="11.2688828"><ele>446.0</ele><time>2026-04-25T09:44:10.33Z</time></trkpt><trkpt lat="44.0166105" lon="11.2688714"><ele>448.0</ele><time>2026-04-25T09:44:11.332Z</time></trkpt><trkpt lat="44.0167717" lon="11.2688926"><ele>450.0</ele><time>2026-04-25T09:44:12.307Z</time></trkpt><trkpt lat="44.0169336" lon="11.2689578"><ele>452.0</ele><time>2026-04-25T09:44:13.294Z</time></trkpt><trkpt lat="44.0170805" lon="11.2690578"><ele>457.66666666666663</ele><time>2026-04-25T09:44:14.322Z</time></trkpt><trkpt lat="44.0172214" lon="11.2691915"><ele>463.33333333333337</ele><time>2026-04-25T09:44:15.325Z</time></trkpt><trkpt lat="44.0173488" lon="11.2693262"><ele>469.0</ele><time>2026-04-25T09:44:16.321Z</time></trkpt><trkpt lat="44.0174845" lon="11.2694505"><ele>467.5</ele><time>2026-04-25T09:44:17.333Z</time></trkpt><trkpt lat="44.0176077" lon="11.2695593"><ele>466.0</ele><time>2026-04-25T09:44:18.295Z</time></trkpt><trkpt lat="44.0177311" lon="11.2696519"><ele>464.5</ele><time>2026-04-25T09:44:19.314Z</time></trkpt><trkpt lat="44.0178704" lon="11.2697173"><ele>463.0</ele><time>2026-04-25T09:44:20.332Z</time></trkpt><trkpt lat="44.0180174" lon="11.2697344"><ele>463.0</ele><time>2026-04-25T09:44:21.336Z</time></trkpt><trkpt lat="44.018174" lon="11.2696819"><ele>463.0</ele><time>2026-04-25T09:44:22.324Z</time></trkpt><trkpt lat="44.0183206" lon="11.2695914"><ele>463.0</ele><time>2026-04-25T09:44:23.316Z</time></trkpt><trkpt lat="44.0184697" lon="11.26948"><ele>463.6666666666667</ele><time>2026-04-25T09:44:24.332Z</time></trkpt><trkpt lat="44.0186097" lon="11.269364"><ele>464.33333333333337</ele><time>2026-04-25T09:44:25.325Z</time></trkpt><trkpt lat="44.0187516" lon="11.2692565"><ele>465.0</ele><time>2026-04-25T09:44:26.332Z</time></trkpt><trkpt lat="44.0189006" lon="11.2691648"><ele>465.0</ele><time>2026-04-25T09:44:27.328Z</time></trkpt><trkpt lat="44.0190756" lon="11.2690858"><ele>465.0</ele><time>2026-04-25T09:44:28.32Z</time></trkpt><trkpt lat="44.0192766" lon="11.2690285"><ele>465.0</ele><time>2026-04-25T09:44:29.325Z</time></trkpt><trkpt lat="44.0194716" lon="11.2689923"><ele>465.0</ele><time>2026-04-25T09:44:30.317Z</time></trkpt><trkpt lat="44.0196569" lon="11.2689381"><ele>465.0</ele><time>2026-04-25T09:44:31.326Z</time></trkpt><trkpt lat="44.0198443" lon="11.2688746"><ele>465.0</ele><time>2026-04-25T09:44:32.313Z</time></trkpt><trkpt lat="44.0200118" lon="11.2687711"><ele>471.33333333333337</ele><time>2026-04-25T09:44:33.334Z</time></trkpt><trkpt lat="44.0201496" lon="11.2686067"><ele>477.6666666666667</ele><time>2026-04-25T09:44:34.306Z</time></trkpt><trkpt lat="44.020272" lon="11.2684127"><ele>484.0</ele><time>2026-04-25T09:44:35.313Z</time></trkpt><trkpt lat="44.0203793" lon="11.2682718"><ele>484.0</ele><time>2026-04-25T09:44:36.326Z</time></trkpt><trkpt lat="44.0205057" lon="11.268163"><ele>484.0</ele><time>2026-04-25T09:44:37.322Z</time></trkpt><trkpt lat="44.0206601" lon="11.2680856"><ele>484.0</ele><time>2026-04-25T09:44:38.323Z</time></trkpt><trkpt lat="44.0208343" lon="11.2680702"><ele>484.0</ele><time>2026-04-25T09:44:39.317Z</time></trkpt><trkpt lat="44.0210256" lon="11.2680539"><ele>484.0</ele><time>2026-04-25T09:44:40.323Z</time></trkpt><trkpt lat="44.0212201" lon="11.2680358"><ele>484.0</ele><time>2026-04-25T09:44:41.322Z</time></trkpt><trkpt lat="44.0214157" lon="11.2680024"><ele>484.0</ele><time>2026-04-25T09:44:42.323Z</time></trkpt><trkpt lat="44.0216131" lon="11.2679455"><ele>484.0</ele><time>2026-04-25T09:44:43.321Z</time></trkpt><trkpt lat="44.0217933" lon="11.2678521"><ele>484.0</ele><time>2026-04-25T09:44:44.316Z</time></trkpt><trkpt lat="44.0219688" lon="11.2677342"><ele>485.33333333333337</ele><time>2026-04-25T09:44:45.312Z</time></trkpt><trkpt lat="44.0221432" lon="11.2676294"><ele>486.66666666666663</ele><time>2026-04-25T09:44:46.321Z</time></trkpt><trkpt lat="44.0223193" lon="11.267537"><ele>488.0</ele><time>2026-04-25T09:44:47.319Z</time></trkpt><trkpt lat="44.0224991" lon="11.267467"><ele>490.0</ele><time>2026-04-25T09:44:48.311Z</time></trkpt><trkpt lat="44.0227023" lon="11.2674341"><ele>492.0</ele><time>2026-04-25T09:44:49.303Z</time></trkpt><trkpt lat="44.0229163" lon="11.2674325"><ele>494.0</ele><time>2026-04-25T09:44:50.315Z</time></trkpt><trkpt lat="44.0231156" lon="11.267426"><ele>494.0</ele><time>2026-04-25T09:44:51.316Z</time></trkpt><trkpt lat="44.0232971" lon="11.2673973"><ele>494.0</ele><time>2026-04-25T09:44:52.323Z</time></trkpt><trkpt lat="44.0234702" lon="11.2673595"><ele>494.0</ele><time>2026-04-25T09:44:53.32Z</time></trkpt><trkpt lat="44.0236304" lon="11.2672479"><ele>497.3333333333333</ele><time>2026-04-25T09:44:54.297Z</time></trkpt><trkpt lat="44.0237773" lon="11.2671148"><ele>500.66666666666663</ele><time>2026-04-25T09:44:55.319Z</time></trkpt><trkpt lat="44.0239078" lon="11.2669615"><ele>504.0</ele><time>2026-04-25T09:44:56.32Z</time></trkpt><trkpt lat="44.0240154" lon="11.2667923"><ele>504.0</ele><time>2026-04-25T09:44:57.326Z</time></trkpt><trkpt lat="44.0241008" lon="11.2665943"><ele>504.0</ele><time>2026-04-25T09:44:58.313Z</time></trkpt><trkpt lat="44.0241912" lon="11.2664028"><ele>504.0</ele><time>2026-04-25T09:44:59.316Z</time></trkpt><trkpt lat="44.0242988" lon="11.2662549"><ele>506.0</ele><time>2026-04-25T09:45:00.324Z</time></trkpt><trkpt lat="44.0244196" lon="11.2661618"><ele>508.0</ele><time>2026-04-25T09:45:01.323Z</time></trkpt><trkpt lat="44.0245228" lon="11.2660824"><ele>510.0</ele><time>2026-04-25T09:45:02.324Z</time></trkpt><trkpt lat="44.024643" lon="11.266053"><ele>512.0</ele><time>2026-04-25T09:45:03.32Z</time></trkpt><trkpt lat="44.0247717" lon="11.2660651"><ele>512.0</ele><time>2026-04-25T09:45:04.322Z</time></trkpt><trkpt lat="44.0249078" lon="11.2660618"><ele>512.0</ele><time>2026-04-25T09:45:05.305Z</time></trkpt><trkpt lat="44.0250402" lon="11.2659777"><ele>512.0</ele><time>2026-04-25T09:45:06.316Z</time></trkpt><trkpt lat="44.0251721" lon="11.2658809"><ele>512.0</ele><time>2026-04-25T09:45:07.312Z</time></trkpt><trkpt lat="44.0253012" lon="11.2657261"><ele>511.66666666666663</ele><time>2026-04-25T09:45:08.331Z</time></trkpt><trkpt lat="44.025438" lon="11.2655315"><ele>511.33333333333337</ele><time>2026-04-25T09:45:09.317Z</time></trkpt><trkpt lat="44.0255674" lon="11.2653475"><ele>511.0</ele><time>2026-04-25T09:45:10.337Z</time></trkpt><trkpt lat="44.0257009" lon="11.2651717"><ele>503.6666666666667</ele><time>2026-04-25T09:45:11.326Z</time></trkpt><trkpt lat="44.0258314" lon="11.2650332"><ele>496.33333333333337</ele><time>2026-04-25T09:45:12.311Z</time></trkpt><trkpt lat="44.025963" lon="11.2649367"><ele>489.0</ele><time>2026-04-25T09:45:13.341Z</time></trkpt><trkpt lat="44.0260845" lon="11.2648365"><ele>492.0</ele><time>2026-04-25T09:45:14.334Z</time></trkpt><trkpt lat="44.0261939" lon="11.2647031"><ele>495.0</ele><time>2026-04-25T09:45:15.319Z</time></trkpt><trkpt lat="44.0262578" lon="11.2645295"><ele>498.0</ele><time>2026-04-25T09:45:16.324Z</time></trkpt><trkpt lat="44.026306" lon="11.2643429"><ele>501.0</ele><time>2026-04-25T09:45:17.309Z</time></trkpt><trkpt lat="44.0263347" lon="11.2641557"><ele>501.0</ele><time>2026-04-25T09:45:18.322Z</time></trkpt><trkpt lat="44.0263743" lon="11.2639891"><ele>501.0</ele><time>2026-04-25T09:45:19.321Z</time></trkpt><trkpt lat="44.026429" lon="11.263849"><ele>501.0</ele><time>2026-04-25T09:45:20.334Z</time></trkpt><trkpt lat="44.026509" lon="11.2637617"><ele>501.0</ele><time>2026-04-25T09:45:21.318Z</time></trkpt><trkpt lat="44.0266117" lon="11.2637642"><ele>501.0</ele><time>2026-04-25T09:45:22.339Z</time></trkpt><trkpt lat="44.0267468" lon="11.2638106"><ele>491.0</ele><time>2026-04-25T09:45:23.319Z</time></trkpt><trkpt lat="44.0269084" lon="11.263874"><ele>481.0</ele><time>2026-04-25T09:45:24.309Z</time></trkpt><trkpt lat="44.0270668" lon="11.26392"><ele>471.0</ele><time>2026-04-25T09:45:25.333Z</time></trkpt><trkpt lat="44.0272169" lon="11.2639634"><ele>471.0</ele><time>2026-04-25T09:45:26.318Z</time></trkpt><trkpt lat="44.027371" lon="11.2640052"><ele>471.0</ele><time>2026-04-25T09:45:27.322Z</time></trkpt><trkpt lat="44.0275219" lon="11.2639735"><ele>471.0</ele><time>2026-04-25T09:45:28.323Z</time></trkpt><trkpt lat="44.0276689" lon="11.2638877"><ele>469.33333333333337</ele><time>2026-04-25T09:45:29.314Z</time></trkpt><trkpt lat="44.0277895" lon="11.2637383"><ele>467.6666666666667</ele><time>2026-04-25T09:45:30.314Z</time></trkpt><trkpt lat="44.0278837" lon="11.2635602"><ele>466.0</ele><time>2026-04-25T09:45:31.296Z</time></trkpt><trkpt lat="44.0279452" lon="11.2633376"><ele>466.0</ele><time>2026-04-25T09:45:32.329Z</time></trkpt><trkpt lat="44.0279861" lon="11.2631153"><ele>466.0</ele><time>2026-04-25T09:45:33.318Z</time></trkpt><trkpt lat="44.0280341" lon="11.2629231"><ele>466.0</ele><time>2026-04-25T09:45:34.32Z</time></trkpt><trkpt lat="44.0281183" lon="11.262781"><ele>466.0</ele><time>2026-04-25T09:45:35.34Z</time></trkpt><trkpt lat="44.0282345" lon="11.2626615"><ele>466.5</ele><time>2026-04-25T09:45:36.311Z</time></trkpt><trkpt lat="44.0283555" lon="11.2625906"><ele>467.0</ele><time>2026-04-25T09:45:37.307Z</time></trkpt><trkpt lat="44.0284772" lon="11.2625454"><ele>467.5</ele><time>2026-04-25T09:45:38.327Z</time></trkpt><trkpt lat="44.0285996" lon="11.2624406"><ele>468.0</ele><time>2026-04-25T09:45:39.319Z</time></trkpt><trkpt lat="44.0286909" lon="11.2623"><ele>466.0</ele><time>2026-04-25T09:45:40.337Z</time></trkpt><trkpt lat="44.0287745" lon="11.2621062"><ele>464.0</ele><time>2026-04-25T09:45:41.317Z</time></trkpt><trkpt lat="44.0288331" lon="11.2618982"><ele>462.0</ele><time>2026-04-25T09:45:42.324Z</time></trkpt><trkpt lat="44.0288868" lon="11.2616794"><ele>462.0</ele><time>2026-04-25T09:45:43.325Z</time></trkpt><trkpt lat="44.028944" lon="11.2614623"><ele>462.0</ele><time>2026-04-25T09:45:44.319Z</time></trkpt><trkpt lat="44.0290061" lon="11.261261"><ele>462.0</ele><time>2026-04-25T09:45:45.327Z</time></trkpt><trkpt lat="44.0291029" lon="11.261087"><ele>461.0</ele><time>2026-04-25T09:45:46.325Z</time></trkpt><trkpt lat="44.0292342" lon="11.2609731"><ele>460.0</ele><time>2026-04-25T09:45:47.301Z</time></trkpt><trkpt lat="44.0293854" lon="11.260908"><ele>459.0</ele><time>2026-04-25T09:45:48.335Z</time></trkpt><trkpt lat="44.0295518" lon="11.2608474"><ele>459.0</ele><time>2026-04-25T09:45:49.317Z</time></trkpt><trkpt lat="44.0297078" lon="11.260794"><ele>459.0</ele><time>2026-04-25T09:45:50.328Z</time></trkpt><trkpt lat="44.0298768" lon="11.2607444"><ele>459.0</ele><time>2026-04-25T09:45:51.297Z</time></trkpt><trkpt lat="44.0300496" lon="11.2607547"><ele>457.33333333333337</ele><time>2026-04-25T09:45:52.295Z</time></trkpt><trkpt lat="44.0302361" lon="11.2608138"><ele>455.6666666666667</ele><time>2026-04-25T09:45:53.304Z</time></trkpt><trkpt lat="44.0304371" lon="11.2608775"><ele>454.0</ele><time>2026-04-25T09:45:54.303Z</time></trkpt><trkpt lat="44.0306383" lon="11.2609461"><ele>452.33333333333337</ele><time>2026-04-25T09:45:55.322Z</time></trkpt><trkpt lat="44.0308426" lon="11.2610054"><ele>450.66666666666663</ele><time>2026-04-25T09:45:56.319Z</time></trkpt><trkpt lat="44.0310498" lon="11.2610721"><ele>449.0</ele><time>2026-04-25T09:45:57.324Z</time></trkpt><trkpt lat="44.0312664" lon="11.2611437"><ele>449.0</ele><time>2026-04-25T09:45:58.321Z</time></trkpt><trkpt lat="44.0314842" lon="11.2612164"><ele>449.0</ele><time>2026-04-25T09:45:59.324Z</time></trkpt><trkpt lat="44.0317088" lon="11.2612849"><ele>450.5</ele><time>2026-04-25T09:46:00.323Z</time></trkpt><trkpt lat="44.031933" lon="11.2613617"><ele>452.0</ele><time>2026-04-25T09:46:01.306Z</time></trkpt><trkpt lat="44.0321573" lon="11.261444"><ele>450.0</ele><time>2026-04-25T09:46:02.294Z</time></trkpt><trkpt lat="44.0323914" lon="11.2615151"><ele>448.0</ele><time>2026-04-25T09:46:03.316Z</time></trkpt><trkpt lat="44.0326302" lon="11.2615875"><ele>448.0</ele><time>2026-04-25T09:46:04.301Z</time></trkpt><trkpt lat="44.0328635" lon="11.2616539"><ele>448.0</ele><time>2026-04-25T09:46:05.307Z</time></trkpt><trkpt lat="44.0330893" lon="11.2617151"><ele>448.0</ele><time>2026-04-25T09:46:06.31Z</time></trkpt><trkpt lat="44.0333052" lon="11.2617818"><ele>448.0</ele><time>2026-04-25T09:46:07.326Z</time></trkpt><trkpt lat="44.0335179" lon="11.2618522"><ele>448.0</ele><time>2026-04-25T09:46:08.328Z</time></trkpt><trkpt lat="44.0337262" lon="11.2619181"><ele>451.6666666666667</ele><time>2026-04-25T09:46:09.321Z</time></trkpt><trkpt lat="44.0339237" lon="11.261986"><ele>455.33333333333337</ele><time>2026-04-25T09:46:10.33Z</time></trkpt><trkpt lat="44.0341173" lon="11.2620442"><ele>459.0</ele><time>2026-04-25T09:46:11.315Z</time></trkpt><trkpt lat="44.034304" lon="11.2621075"><ele>464.0</ele><time>2026-04-25T09:46:12.317Z</time></trkpt><trkpt lat="44.0344803" lon="11.2621668"><ele>469.0</ele><time>2026-04-25T09:46:13.311Z</time></trkpt><trkpt lat="44.0346563" lon="11.262217"><ele>474.0</ele><time>2026-04-25T09:46:14.321Z</time></trkpt><trkpt lat="44.0348434" lon="11.2622688"><ele>472.33333333333337</ele><time>2026-04-25T09:46:15.323Z</time></trkpt><trkpt lat="44.0350396" lon="11.2623372"><ele>470.6666666666667</ele><time>2026-04-25T09:46:16.316Z</time></trkpt><trkpt lat="44.0352386" lon="11.2624143"><ele>469.0</ele><time>2026-04-25T09:46:17.312Z</time></trkpt><trkpt lat="44.0354211" lon="11.2624926"><ele>469.0</ele><time>2026-04-25T09:46:18.307Z</time></trkpt><trkpt lat="44.0356027" lon="11.2625869"><ele>469.0</ele><time>2026-04-25T09:46:19.306Z</time></trkpt><trkpt lat="44.0357928" lon="11.2626698"><ele>469.0</ele><time>2026-04-25T09:46:20.331Z</time></trkpt><trkpt lat="44.0359804" lon="11.2627335"><ele>468.0</ele><time>2026-04-25T09:46:21.325Z</time></trkpt><trkpt lat="44.0361683" lon="11.2627874"><ele>467.0</ele><time>2026-04-25T09:46:22.314Z</time></trkpt><trkpt lat="44.0363538" lon="11.2627987"><ele>466.0</ele><time>2026-04-25T09:46:23.326Z</time></trkpt><trkpt lat="44.0365495" lon="11.2627239"><ele>465.33333333333337</ele><time>2026-04-25T09:46:24.327Z</time></trkpt><trkpt lat="44.036747" lon="11.2626334"><ele>464.66666666666663</ele><time>2026-04-25T09:46:25.317Z</time></trkpt><trkpt lat="44.0369576" lon="11.2625413"><ele>464.0</ele><time>2026-04-25T09:46:26.324Z</time></trkpt><trkpt lat="44.0371636" lon="11.2624286"><ele>464.0</ele><time>2026-04-25T09:46:27.319Z</time></trkpt><trkpt lat="44.0373768" lon="11.2622983"><ele>464.0</ele><time>2026-04-25T09:46:28.325Z</time></trkpt><trkpt lat="44.0375952" lon="11.2621741"><ele>467.5</ele><time>2026-04-25T09:46:29.324Z</time></trkpt><trkpt lat="44.0378215" lon="11.2620452"><ele>471.0</ele><time>2026-04-25T09:46:30.345Z</time></trkpt><trkpt lat="44.0380582" lon="11.2619157"><ele>471.0</ele><time>2026-04-25T09:46:31.317Z</time></trkpt><trkpt lat="44.0382912" lon="11.2617814"><ele>471.0</ele><time>2026-04-25T09:46:32.329Z</time></trkpt><trkpt lat="44.0385168" lon="11.2616447"><ele>472.0</ele><time>2026-04-25T09:46:33.323Z</time></trkpt><trkpt lat="44.0387445" lon="11.2615102"><ele>473.0</ele><time>2026-04-25T09:46:34.327Z</time></trkpt><trkpt lat="44.0389747" lon="11.2613716"><ele>472.5</ele><time>2026-04-25T09:46:35.318Z</time></trkpt><trkpt lat="44.0391991" lon="11.2612357"><ele>472.0</ele><time>2026-04-25T09:46:36.321Z</time></trkpt><trkpt lat="44.0394167" lon="11.26111"><ele>472.0</ele><time>2026-04-25T09:46:37.319Z</time></trkpt><trkpt lat="44.0396336" lon="11.2609769"><ele>472.0</ele><time>2026-04-25T09:46:38.308Z</time></trkpt><trkpt lat="44.0398544" lon="11.2608605"><ele>471.0</ele><time>2026-04-25T09:46:39.319Z</time></trkpt><trkpt lat="44.0400782" lon="11.2607663"><ele>470.0</ele><time>2026-04-25T09:46:40.314Z</time></trkpt><trkpt lat="44.0402988" lon="11.2606919"><ele>472.66666666666663</ele><time>2026-04-25T09:46:41.319Z</time></trkpt><trkpt lat="44.0405186" lon="11.2606129"><ele>475.33333333333337</ele><time>2026-04-25T09:46:42.329Z</time></trkpt><trkpt lat="44.0407251" lon="11.2605506"><ele>478.0</ele><time>2026-04-25T09:46:43.318Z</time></trkpt><trkpt lat="44.0409239" lon="11.2604908"><ele>480.0</ele><time>2026-04-25T09:46:44.327Z</time></trkpt><trkpt lat="44.0411084" lon="11.2604374"><ele>482.0</ele><time>2026-04-25T09:46:45.323Z</time></trkpt><trkpt lat="44.0412799" lon="11.2603849"><ele>484.0</ele><time>2026-04-25T09:46:46.325Z</time></trkpt><trkpt lat="44.0414502" lon="11.2603186"><ele>484.0</ele><time>2026-04-25T09:46:47.328Z</time></trkpt><trkpt lat="44.0416181" lon="11.2602138"><ele>484.0</ele><time>2026-04-25T09:46:48.314Z</time></trkpt><trkpt lat="44.0417803" lon="11.2600797"><ele>484.0</ele><time>2026-04-25T09:46:49.313Z</time></trkpt><trkpt lat="44.041933" lon="11.2599119"><ele>487.0</ele><time>2026-04-25T09:46:50.322Z</time></trkpt><trkpt lat="44.0420628" lon="11.2597343"><ele>490.0</ele><time>2026-04-25T09:46:51.317Z</time></trkpt><trkpt lat="44.0421806" lon="11.259562"><ele>493.0</ele><time>2026-04-25T09:46:52.328Z</time></trkpt><trkpt lat="44.0422811" lon="11.2594098"><ele>493.0</ele><time>2026-04-25T09:46:53.326Z</time></trkpt><trkpt lat="44.0423815" lon="11.2592851"><ele>493.0</ele><time>2026-04-25T09:46:54.328Z</time></trkpt><trkpt lat="44.0424847" lon="11.2591595"><ele>493.0</ele><time>2026-04-25T09:46:55.304Z</time></trkpt><trkpt lat="44.0425973" lon="11.259066"><ele>493.0</ele><time>2026-04-25T09:46:56.317Z</time></trkpt><trkpt lat="44.0427466" lon="11.2590176"><ele>493.0</ele><time>2026-04-25T09:46:57.33Z</time></trkpt><trkpt lat="44.0429132" lon="11.2589998"><ele>493.0</ele><time>2026-04-25T09:46:58.327Z</time></trkpt><trkpt lat="44.0430909" lon="11.258977"><ele>493.0</ele><time>2026-04-25T09:46:59.325Z</time></trkpt><trkpt lat="44.0432903" lon="11.2589607"><ele>491.0</ele><time>2026-04-25T09:47:00.331Z</time></trkpt><trkpt lat="44.0434912" lon="11.2589499"><ele>489.0</ele><time>2026-04-25T09:47:01.329Z</time></trkpt><trkpt lat="44.0436981" lon="11.2589245"><ele>487.0</ele><time>2026-04-25T09:47:02.328Z</time></trkpt><trkpt lat="44.0439057" lon="11.2588853"><ele>487.0</ele><time>2026-04-25T09:47:03.319Z</time></trkpt><trkpt lat="44.0441118" lon="11.2588411"><ele>487.0</ele><time>2026-04-25T09:47:04.314Z</time></trkpt><trkpt lat="44.0443203" lon="11.2587764"><ele>487.0</ele><time>2026-04-25T09:47:05.302Z</time></trkpt><trkpt lat="44.0445191" lon="11.2587117"><ele>488.6666666666667</ele><time>2026-04-25T09:47:06.318Z</time></trkpt><trkpt lat="44.0447017" lon="11.2586509"><ele>490.33333333333337</ele><time>2026-04-25T09:47:07.326Z</time></trkpt><trkpt lat="44.0448688" lon="11.2585933"><ele>492.0</ele><time>2026-04-25T09:47:08.327Z</time></trkpt><trkpt lat="44.0450395" lon="11.2585449"><ele>495.66666666666663</ele><time>2026-04-25T09:47:09.312Z</time></trkpt><trkpt lat="44.0452105" lon="11.2585019"><ele>499.3333333333333</ele><time>2026-04-25T09:47:10.322Z</time></trkpt><trkpt lat="44.0453845" lon="11.258448"><ele>503.0</ele><time>2026-04-25T09:47:11.318Z</time></trkpt><trkpt lat="44.0455571" lon="11.2583833"><ele>503.0</ele><time>2026-04-25T09:47:12.33Z</time></trkpt><trkpt lat="44.0457042" lon="11.2583071"><ele>503.0</ele><time>2026-04-25T09:47:13.325Z</time></trkpt><trkpt lat="44.0458446" lon="11.2582253"><ele>503.0</ele><time>2026-04-25T09:47:14.314Z</time></trkpt><trkpt lat="44.0459801" lon="11.2581553"><ele>504.75</ele><time>2026-04-25T09:47:15.292Z</time></trkpt><trkpt lat="44.0461242" lon="11.2581418"><ele>506.5</ele><time>2026-04-25T09:47:16.332Z</time></trkpt><trkpt lat="44.046267" lon="11.2581668"><ele>508.25</ele><time>2026-04-25T09:47:17.322Z</time></trkpt><trkpt lat="44.0463985" lon="11.2582815"><ele>510.0</ele><time>2026-04-25T09:47:18.344Z</time></trkpt><trkpt lat="44.0465326" lon="11.2584469"><ele>508.33333333333337</ele><time>2026-04-25T09:47:19.334Z</time></trkpt><trkpt lat="44.0466673" lon="11.2586219"><ele>506.6666666666667</ele><time>2026-04-25T09:47:20.324Z</time></trkpt><trkpt lat="44.046811" lon="11.258804"><ele>505.0</ele><time>2026-04-25T09:47:21.31Z</time></trkpt><trkpt lat="44.0469715" lon="11.2589853"><ele>503.6666666666667</ele><time>2026-04-25T09:47:22.314Z</time></trkpt><trkpt lat="44.0471367" lon="11.259161"><ele>502.33333333333337</ele><time>2026-04-25T09:47:23.33Z</time></trkpt><trkpt lat="44.0473107" lon="11.2593347"><ele>501.0</ele><time>2026-04-25T09:47:24.334Z</time></trkpt><trkpt lat="44.0474897" lon="11.2594946"><ele>501.0</ele><time>2026-04-25T09:47:25.321Z</time></trkpt><trkpt lat="44.0476569" lon="11.2596578"><ele>501.0</ele><time>2026-04-25T09:47:26.337Z</time></trkpt><trkpt lat="44.0478164" lon="11.2598187"><ele>501.0</ele><time>2026-04-25T09:47:27.332Z</time></trkpt><trkpt lat="44.0479734" lon="11.2599824"><ele>504.0</ele><time>2026-04-25T09:47:28.346Z</time></trkpt><trkpt lat="44.0481009" lon="11.2601638"><ele>507.0</ele><time>2026-04-25T09:47:29.329Z</time></trkpt><trkpt lat="44.0482177" lon="11.2603575"><ele>510.0</ele><time>2026-04-25T09:47:30.32Z</time></trkpt><trkpt lat="44.0483501" lon="11.2605238"><ele>512.6666666666666</ele><time>2026-04-25T09:47:31.333Z</time></trkpt><trkpt lat="44.0484886" lon="11.2606709"><ele>515.3333333333333</ele><time>2026-04-25T09:47:32.326Z</time></trkpt><trkpt lat="44.0486227" lon="11.260807"><ele>518.0</ele><time>2026-04-25T09:47:33.301Z</time></trkpt><trkpt lat="44.0487458" lon="11.2609366"><ele>518.0</ele><time>2026-04-25T09:47:34.332Z</time></trkpt><trkpt lat="44.0488879" lon="11.261043"><ele>518.0</ele><time>2026-04-25T09:47:35.317Z</time></trkpt><trkpt lat="44.0490494" lon="11.2611364"><ele>518.0</ele><time>2026-04-25T09:47:36.323Z</time></trkpt><trkpt lat="44.0492328" lon="11.2612007"><ele>516.6666666666666</ele><time>2026-04-25T09:47:37.321Z</time></trkpt><trkpt lat="44.0494259" lon="11.2612526"><ele>515.3333333333334</ele><time>2026-04-25T09:47:38.324Z</time></trkpt><trkpt lat="44.0496185" lon="11.2612939"><ele>514.0</ele><time>2026-04-25T09:47:39.308Z</time></trkpt><trkpt lat="44.0498178" lon="11.2613282"><ele>514.6666666666667</ele><time>2026-04-25T09:47:40.324Z</time></trkpt><trkpt lat="44.0500186" lon="11.2613416"><ele>515.3333333333334</ele><time>2026-04-25T09:47:41.322Z</time></trkpt><trkpt lat="44.0502175" lon="11.2613245"><ele>516.0</ele><time>2026-04-25T09:47:42.323Z</time></trkpt><trkpt lat="44.0504081" lon="11.2612921"><ele>516.0</ele><time>2026-04-25T09:47:43.324Z</time></trkpt><trkpt lat="44.0505906" lon="11.2612495"><ele>516.0</ele><time>2026-04-25T09:47:44.325Z</time></trkpt><trkpt lat="44.0507607" lon="11.2611932"><ele>516.0</ele><time>2026-04-25T09:47:45.331Z</time></trkpt><trkpt lat="44.050931" lon="11.261129"><ele>516.6666666666666</ele><time>2026-04-25T09:47:46.318Z</time></trkpt><trkpt lat="44.0510997" lon="11.2610641"><ele>517.3333333333333</ele><time>2026-04-25T09:47:47.31Z</time></trkpt><trkpt lat="44.0512733" lon="11.2609983"><ele>518.0</ele><time>2026-04-25T09:47:48.323Z</time></trkpt><trkpt lat="44.0514384" lon="11.2609364"><ele>518.0</ele><time>2026-04-25T09:47:49.309Z</time></trkpt><trkpt lat="44.0515913" lon="11.2608814"><ele>518.0</ele><time>2026-04-25T09:47:50.327Z</time></trkpt><trkpt lat="44.0517353" lon="11.2608279"><ele>518.0</ele><time>2026-04-25T09:47:51.311Z</time></trkpt><trkpt lat="44.0518761" lon="11.2607782"><ele>518.75</ele><time>2026-04-25T09:47:52.343Z</time></trkpt><trkpt lat="44.0520106" lon="11.2607314"><ele>519.5</ele><time>2026-04-25T09:47:53.324Z</time></trkpt><trkpt lat="44.0521477" lon="11.2606832"><ele>520.25</ele><time>2026-04-25T09:47:54.315Z</time></trkpt><trkpt lat="44.0522879" lon="11.2606433"><ele>521.0</ele><time>2026-04-25T09:47:55.312Z</time></trkpt><trkpt lat="44.0524291" lon="11.260613"><ele>519.5</ele><time>2026-04-25T09:47:56.295Z</time></trkpt><trkpt lat="44.0525712" lon="11.260594"><ele>518.0</ele><time>2026-04-25T09:47:57.322Z</time></trkpt><trkpt lat="44.0526998" lon="11.2606086"><ele>516.5</ele><time>2026-04-25T09:47:58.304Z</time></trkpt><trkpt lat="44.0528257" lon="11.2606623"><ele>515.0</ele><time>2026-04-25T09:47:59.323Z</time></trkpt><trkpt lat="44.0529622" lon="11.2607604"><ele>519.0</ele><time>2026-04-25T09:48:00.315Z</time></trkpt><trkpt lat="44.0531078" lon="11.2608897"><ele>523.0</ele><time>2026-04-25T09:48:01.323Z</time></trkpt><trkpt lat="44.0532696" lon="11.2610524"><ele>527.0</ele><time>2026-04-25T09:48:02.32Z</time></trkpt><trkpt lat="44.0534364" lon="11.2612132"><ele>527.0</ele><time>2026-04-25T09:48:03.325Z</time></trkpt><trkpt lat="44.0536126" lon="11.2613531"><ele>527.0</ele><time>2026-04-25T09:48:04.319Z</time></trkpt><trkpt lat="44.0538056" lon="11.2614837"><ele>527.0</ele><time>2026-04-25T09:48:05.326Z</time></trkpt><trkpt lat="44.054015" lon="11.2615839"><ele>530.5</ele><time>2026-04-25T09:48:06.33Z</time></trkpt><trkpt lat="44.0542324" lon="11.2616802"><ele>534.0</ele><time>2026-04-25T09:48:07.329Z</time></trkpt><trkpt lat="44.0544623" lon="11.261772"><ele>534.0</ele><time>2026-04-25T09:48:08.318Z</time></trkpt><trkpt lat="44.0547118" lon="11.2618637"><ele>534.0</ele><time>2026-04-25T09:48:09.327Z</time></trkpt><trkpt lat="44.0549663" lon="11.2619637"><ele>532.0</ele><time>2026-04-25T09:48:10.334Z</time></trkpt><trkpt lat="44.05522" lon="11.2620618"><ele>530.0</ele><time>2026-04-25T09:48:11.328Z</time></trkpt><trkpt lat="44.0554541" lon="11.262157"><ele>530.0</ele><time>2026-04-25T09:48:12.328Z</time></trkpt><trkpt lat="44.0556766" lon="11.262244"><ele>530.0</ele><time>2026-04-25T09:48:13.33Z</time></trkpt><trkpt lat="44.055874" lon="11.2623174"><ele>530.0</ele><time>2026-04-25T09:48:14.316Z</time></trkpt><trkpt lat="44.0560538" lon="11.2624101"><ele>533.0</ele><time>2026-04-25T09:48:15.329Z</time></trkpt><trkpt lat="44.0562038" lon="11.2625302"><ele>536.0</ele><time>2026-04-25T09:48:16.316Z</time></trkpt><trkpt lat="44.0563332" lon="11.2626579"><ele>539.0</ele><time>2026-04-25T09:48:17.311Z</time></trkpt><trkpt lat="44.0564444" lon="11.2627578"><ele>539.0</ele><time>2026-04-25T09:48:18.3Z</time></trkpt><trkpt lat="44.0565666" lon="11.2628068"><ele>539.0</ele><time>2026-04-25T09:48:19.326Z</time></trkpt><trkpt lat="44.0567063" lon="11.2627767"><ele>539.0</ele><time>2026-04-25T09:48:20.325Z</time></trkpt><trkpt lat="44.0568422" lon="11.2626882"><ele>539.0</ele><time>2026-04-25T09:48:21.325Z</time></trkpt><trkpt lat="44.0569858" lon="11.2625736"><ele>542.0</ele><time>2026-04-25T09:48:22.316Z</time></trkpt><trkpt lat="44.0571273" lon="11.2624787"><ele>545.0</ele><time>2026-04-25T09:48:23.309Z</time></trkpt><trkpt lat="44.0572737" lon="11.2624211"><ele>548.0</ele><time>2026-04-25T09:48:24.312Z</time></trkpt><trkpt lat="44.0574257" lon="11.2624351"><ele>550.3333333333333</ele><time>2026-04-25T09:48:25.319Z</time></trkpt><trkpt lat="44.0575845" lon="11.2625011"><ele>552.6666666666666</ele><time>2026-04-25T09:48:26.299Z</time></trkpt><trkpt lat="44.0577557" lon="11.2626154"><ele>555.0</ele><time>2026-04-25T09:48:27.322Z</time></trkpt><trkpt lat="44.0579232" lon="11.26275"><ele>555.0</ele><time>2026-04-25T09:48:28.331Z</time></trkpt><trkpt lat="44.0580837" lon="11.2628802"><ele>555.0</ele><time>2026-04-25T09:48:29.307Z</time></trkpt><trkpt lat="44.0582459" lon="11.2629878"><ele>555.0</ele><time>2026-04-25T09:48:30.322Z</time></trkpt><trkpt lat="44.0584285" lon="11.2630483"><ele>556.0</ele><time>2026-04-25T09:48:31.323Z</time></trkpt><trkpt lat="44.0586273" lon="11.2630661"><ele>557.0</ele><time>2026-04-25T09:48:32.322Z</time></trkpt><trkpt lat="44.0588243" lon="11.2630583"><ele>558.0</ele><time>2026-04-25T09:48:33.329Z</time></trkpt><trkpt lat="44.0590334" lon="11.2630401"><ele>560.0</ele><time>2026-04-25T09:48:34.289Z</time></trkpt><trkpt lat="44.059251" lon="11.2630282"><ele>562.0</ele><time>2026-04-25T09:48:35.319Z</time></trkpt><trkpt lat="44.059478" lon="11.2630392"><ele>564.0</ele><time>2026-04-25T09:48:36.314Z</time></trkpt><trkpt lat="44.0597109" lon="11.2630426"><ele>569.5</ele><time>2026-04-25T09:48:37.286Z</time></trkpt><trkpt lat="44.0599533" lon="11.263046"><ele>575.0</ele><time>2026-04-25T09:48:38.302Z</time></trkpt><trkpt lat="44.0601982" lon="11.2630499"><ele>575.0</ele><time>2026-04-25T09:48:39.287Z</time></trkpt><trkpt lat="44.0604363" lon="11.2630671"><ele>575.0</ele><time>2026-04-25T09:48:40.349Z</time></trkpt><trkpt lat="44.060674" lon="11.2630981"><ele>573.5</ele><time>2026-04-25T09:48:41.302Z</time></trkpt><trkpt lat="44.0609178" lon="11.2631579"><ele>572.0</ele><time>2026-04-25T09:48:42.286Z</time></trkpt><trkpt lat="44.0611376" lon="11.263266"><ele>572.0</ele><time>2026-04-25T09:48:43.324Z</time></trkpt><trkpt lat="44.0613527" lon="11.2633867"><ele>572.0</ele><time>2026-04-25T09:48:44.326Z</time></trkpt><trkpt lat="44.0615643" lon="11.2635298"><ele>574.5</ele><time>2026-04-25T09:48:45.31Z</time></trkpt><trkpt lat="44.061783" lon="11.263682"><ele>577.0</ele><time>2026-04-25T09:48:46.302Z</time></trkpt><trkpt lat="44.062008" lon="11.2638267"><ele>577.5</ele><time>2026-04-25T09:48:47.31Z</time></trkpt><trkpt lat="44.0622294" lon="11.2639613"><ele>578.0</ele><time>2026-04-25T09:48:48.307Z</time></trkpt><trkpt lat="44.0624455" lon="11.2640842"><ele>581.6666666666666</ele><time>2026-04-25T09:48:49.318Z</time></trkpt><trkpt lat="44.0626453" lon="11.2642025"><ele>585.3333333333334</ele><time>2026-04-25T09:48:50.325Z</time></trkpt><trkpt lat="44.0628238" lon="11.2643263"><ele>589.0</ele><time>2026-04-25T09:48:51.326Z</time></trkpt><trkpt lat="44.0629821" lon="11.2644874"><ele>589.0</ele><time>2026-04-25T09:48:52.322Z</time></trkpt><trkpt lat="44.0631222" lon="11.2646643"><ele>589.0</ele><time>2026-04-25T09:48:53.323Z</time></trkpt><trkpt lat="44.0632396" lon="11.2649102"><ele>589.0</ele><time>2026-04-25T09:48:54.307Z</time></trkpt><trkpt lat="44.0633439" lon="11.2651797"><ele>593.0</ele><time>2026-04-25T09:48:55.316Z</time></trkpt><trkpt lat="44.0634468" lon="11.2654525"><ele>597.0</ele><time>2026-04-25T09:48:56.328Z</time></trkpt><trkpt lat="44.0635581" lon="11.2657074"><ele>601.0</ele><time>2026-04-25T09:48:57.328Z</time></trkpt><trkpt lat="44.0636857" lon="11.2659361"><ele>601.0</ele><time>2026-04-25T09:48:58.305Z</time></trkpt><trkpt lat="44.0638187" lon="11.2661407"><ele>601.0</ele><time>2026-04-25T09:48:59.3Z</time></trkpt><trkpt lat="44.063941" lon="11.266328"><ele>601.0</ele><time>2026-04-25T09:49:00.322Z</time></trkpt><trkpt lat="44.0640606" lon="11.2665154"><ele>606.0</ele><time>2026-04-25T09:49:01.323Z</time></trkpt><trkpt lat="44.0641748" lon="11.2666933"><ele>611.0</ele><time>2026-04-25T09:49:02.326Z</time></trkpt><trkpt lat="44.0642851" lon="11.2668288"><ele>616.0</ele><time>2026-04-25T09:49:03.329Z</time></trkpt><trkpt lat="44.0644128" lon="11.2669179"><ele>616.0</ele><time>2026-04-25T09:49:04.317Z</time></trkpt><trkpt lat="44.0645724" lon="11.2669447"><ele>616.0</ele><time>2026-04-25T09:49:05.3Z</time></trkpt><trkpt lat="44.0647416" lon="11.266933"><ele>616.0</ele><time>2026-04-25T09:49:06.324Z</time></trkpt><trkpt lat="44.0649061" lon="11.2669378"><ele>619.3333333333334</ele><time>2026-04-25T09:49:07.326Z</time></trkpt><trkpt lat="44.0650765" lon="11.2669708"><ele>622.6666666666666</ele><time>2026-04-25T09:49:08.294Z</time></trkpt><trkpt lat="44.0652534" lon="11.2670325"><ele>626.0</ele><time>2026-04-25T09:49:09.33Z</time></trkpt><trkpt lat="44.0654407" lon="11.2671126"><ele>626.0</ele><time>2026-04-25T09:49:10.332Z</time></trkpt><trkpt lat="44.0656471" lon="11.267198"><ele>626.0</ele><time>2026-04-25T09:49:11.319Z</time></trkpt><trkpt lat="44.0658533" lon="11.2672864"><ele>626.0</ele><time>2026-04-25T09:49:12.331Z</time></trkpt><trkpt lat="44.0660423" lon="11.2673459"><ele>625.6666666666666</ele><time>2026-04-25T09:49:13.308Z</time></trkpt><trkpt lat="44.0662398" lon="11.2673956"><ele>625.3333333333334</ele><time>2026-04-25T09:49:14.325Z</time></trkpt><trkpt lat="44.0664289" lon="11.2674633"><ele>625.0</ele><time>2026-04-25T09:49:15.32Z</time></trkpt><trkpt lat="44.0665998" lon="11.2675928"><ele>627.0</ele><time>2026-04-25T09:49:16.315Z</time></trkpt><trkpt lat="44.0667527" lon="11.2677576"><ele>629.0</ele><time>2026-04-25T09:49:17.318Z</time></trkpt><trkpt lat="44.066896" lon="11.2679244"><ele>631.0</ele><time>2026-04-25T09:49:18.323Z</time></trkpt><trkpt lat="44.0670507" lon="11.2680512"><ele>629.3333333333334</ele><time>2026-04-25T09:49:19.328Z</time></trkpt><trkpt lat="44.0672192" lon="11.2681273"><ele>627.6666666666666</ele><time>2026-04-25T09:49:20.305Z</time></trkpt><trkpt lat="44.0673875" lon="11.2681733"><ele>626.0</ele><time>2026-04-25T09:49:21.304Z</time></trkpt><trkpt lat="44.0675382" lon="11.2682243"><ele>630.0</ele><time>2026-04-25T09:49:22.321Z</time></trkpt><trkpt lat="44.0676762" lon="11.26833"><ele>634.0</ele><time>2026-04-25T09:49:23.316Z</time></trkpt><trkpt lat="44.0677602" lon="11.2685211"><ele>638.0</ele><time>2026-04-25T09:49:24.325Z</time></trkpt><trkpt lat="44.0678176" lon="11.2687793"><ele>637.0</ele><time>2026-04-25T09:49:25.31Z</time></trkpt><trkpt lat="44.0678718" lon="11.2690203"><ele>636.0</ele><time>2026-04-25T09:49:26.304Z</time></trkpt><trkpt lat="44.067945" lon="11.2692811"><ele>635.0</ele><time>2026-04-25T09:49:27.327Z</time></trkpt><trkpt lat="44.0680202" lon="11.2695178"><ele>635.0</ele><time>2026-04-25T09:49:28.298Z</time></trkpt><trkpt lat="44.0681048" lon="11.2697233"><ele>635.0</ele><time>2026-04-25T09:49:29.296Z</time></trkpt><trkpt lat="44.0682226" lon="11.2698836"><ele>635.0</ele><time>2026-04-25T09:49:30.335Z</time></trkpt><trkpt lat="44.0683693" lon="11.2700071"><ele>639.6666666666666</ele><time>2026-04-25T09:49:31.312Z</time></trkpt><trkpt lat="44.0685395" lon="11.2701159"><ele>644.3333333333334</ele><time>2026-04-25T09:49:32.288Z</time></trkpt><trkpt lat="44.0687219" lon="11.2701688"><ele>649.0</ele><time>2026-04-25T09:49:33.3Z</time></trkpt><trkpt lat="44.0689259" lon="11.2701762"><ele>653.3333333333334</ele><time>2026-04-25T09:49:34.289Z</time></trkpt><trkpt lat="44.0691383" lon="11.2701448"><ele>657.6666666666666</ele><time>2026-04-25T09:49:35.3Z</time></trkpt><trkpt lat="44.0693569" lon="11.2701047"><ele>662.0</ele><time>2026-04-25T09:49:36.319Z</time></trkpt><trkpt lat="44.0695854" lon="11.2700639"><ele>662.0</ele><time>2026-04-25T09:49:37.298Z</time></trkpt><trkpt lat="44.0698239" lon="11.2700199"><ele>662.0</ele><time>2026-04-25T09:49:38.318Z</time></trkpt><trkpt lat="44.0700571" lon="11.269962"><ele>664.0</ele><time>2026-04-25T09:49:39.322Z</time></trkpt><trkpt lat="44.0702701" lon="11.2698977"><ele>666.0</ele><time>2026-04-25T09:49:40.315Z</time></trkpt><trkpt lat="44.070453" lon="11.2698457"><ele>668.0</ele><time>2026-04-25T09:49:41.309Z</time></trkpt><trkpt lat="44.0706075" lon="11.2698857"><ele>668.0</ele><time>2026-04-25T09:49:42.316Z</time></trkpt><trkpt lat="44.0707642" lon="11.2699936"><ele>668.0</ele><time>2026-04-25T09:49:43.307Z</time></trkpt><trkpt lat="44.0709334" lon="11.2701196"><ele>668.0</ele><time>2026-04-25T09:49:44.329Z</time></trkpt><trkpt lat="44.0711143" lon="11.2702404"><ele>669.0</ele><time>2026-04-25T09:49:45.292Z</time></trkpt><trkpt lat="44.071272" lon="11.2703948"><ele>670.0</ele><time>2026-04-25T09:49:46.33Z</time></trkpt><trkpt lat="44.0714174" lon="11.2705848"><ele>671.0</ele><time>2026-04-25T09:49:47.325Z</time></trkpt><trkpt lat="44.0715523" lon="11.2707968"><ele>676.0</ele><time>2026-04-25T09:49:48.313Z</time></trkpt><trkpt lat="44.071696" lon="11.2710143"><ele>681.0</ele><time>2026-04-25T09:49:49.32Z</time></trkpt><trkpt lat="44.0718485" lon="11.271203"><ele>686.0</ele><time>2026-04-25T09:49:50.339Z</time></trkpt><trkpt lat="44.0720199" lon="11.2713573"><ele>684.0</ele><time>2026-04-25T09:49:51.322Z</time></trkpt><trkpt lat="44.0721781" lon="11.2714939"><ele>682.0</ele><time>2026-04-25T09:49:52.32Z</time></trkpt><trkpt lat="44.0723135" lon="11.271609"><ele>680.0</ele><time>2026-04-25T09:49:53.332Z</time></trkpt><trkpt lat="44.0724366" lon="11.2716968"><ele>682.75</ele><time>2026-04-25T09:49:54.323Z</time></trkpt><trkpt lat="44.0725468" lon="11.2717401"><ele>685.5</ele><time>2026-04-25T09:49:55.313Z</time></trkpt><trkpt lat="44.0726664" lon="11.2717142"><ele>688.25</ele><time>2026-04-25T09:49:56.333Z</time></trkpt><trkpt lat="44.072775" lon="11.2715966"><ele>691.0</ele><time>2026-04-25T09:49:57.316Z</time></trkpt><trkpt lat="44.0728289" lon="11.2714422"><ele>694.0</ele><time>2026-04-25T09:49:58.32Z</time></trkpt><trkpt lat="44.0728741" lon="11.2712578"><ele>697.0</ele><time>2026-04-25T09:49:59.308Z</time></trkpt><trkpt lat="44.0728523" lon="11.2710135"><ele>700.0</ele><time>2026-04-25T09:50:00.317Z</time></trkpt><trkpt lat="44.0728383" lon="11.2707667"><ele>698.75</ele><time>2026-04-25T09:50:01.294Z</time></trkpt><trkpt lat="44.0728211" lon="11.2705429"><ele>697.5</ele><time>2026-04-25T09:50:02.325Z</time></trkpt><trkpt lat="44.0728191" lon="11.2703579"><ele>696.25</ele><time>2026-04-25T09:50:03.322Z</time></trkpt><trkpt lat="44.0728473" lon="11.270226"><ele>695.0</ele><time>2026-04-25T09:50:04.312Z</time></trkpt><trkpt lat="44.0729183" lon="11.2701239"><ele>695.0</ele><time>2026-04-25T09:50:05.287Z</time></trkpt><trkpt lat="44.0730222" lon="11.2700897"><ele>695.0</ele><time>2026-04-25T09:50:06.311Z</time></trkpt><trkpt lat="44.0731605" lon="11.2701006"><ele>695.0</ele><time>2026-04-25T09:50:07.313Z</time></trkpt><trkpt lat="44.0732885" lon="11.2701357"><ele>695.0</ele><time>2026-04-25T09:50:08.313Z</time></trkpt><trkpt lat="44.073414" lon="11.270209"><ele>697.6666666666666</ele><time>2026-04-25T09:50:09.312Z</time></trkpt><trkpt lat="44.0735467" lon="11.2703085"><ele>700.3333333333334</ele><time>2026-04-25T09:50:10.327Z</time></trkpt><trkpt lat="44.0736949" lon="11.2704659"><ele>703.0</ele><time>2026-04-25T09:50:11.329Z</time></trkpt><trkpt lat="44.0738191" lon="11.2706728"><ele>703.5</ele><time>2026-04-25T09:50:12.299Z</time></trkpt><trkpt lat="44.073929" lon="11.2709662"><ele>704.0</ele><time>2026-04-25T09:50:13.325Z</time></trkpt><trkpt lat="44.0740085" lon="11.2712634"><ele>703.3333333333333</ele><time>2026-04-25T09:50:14.322Z</time></trkpt><trkpt lat="44.074046" lon="11.2715654"><ele>702.6666666666666</ele><time>2026-04-25T09:50:15.332Z</time></trkpt><trkpt lat="44.0740776" lon="11.2718686"><ele>702.0</ele><time>2026-04-25T09:50:16.325Z</time></trkpt><trkpt lat="44.0740991" lon="11.2721575"><ele>710.6666666666666</ele><time>2026-04-25T09:50:17.326Z</time></trkpt><trkpt lat="44.0741151" lon="11.2724367"><ele>719.3333333333333</ele><time>2026-04-25T09:50:18.325Z</time></trkpt><trkpt lat="44.0741306" lon="11.2726904"><ele>728.0</ele><time>2026-04-25T09:50:19.312Z</time></trkpt><trkpt lat="44.0741334" lon="11.2729218"><ele>729.0</ele><time>2026-04-25T09:50:20.307Z</time></trkpt><trkpt lat="44.0741054" lon="11.2731324"><ele>730.0</ele><time>2026-04-25T09:50:21.321Z</time></trkpt><trkpt lat="44.074045" lon="11.2733342"><ele>731.0</ele><time>2026-04-25T09:50:22.324Z</time></trkpt><trkpt lat="44.0739701" lon="11.2735212"><ele>728.0</ele><time>2026-04-25T09:50:23.311Z</time></trkpt><trkpt lat="44.0739218" lon="11.2736904"><ele>725.0</ele><time>2026-04-25T09:50:24.344Z</time></trkpt><trkpt lat="44.0739046" lon="11.2738411"><ele>722.0</ele><time>2026-04-25T09:50:25.316Z</time></trkpt><trkpt lat="44.0739149" lon="11.2739909"><ele>719.0</ele><time>2026-04-25T09:50:26.327Z</time></trkpt><trkpt lat="44.0739491" lon="11.2741255"><ele>719.0</ele><time>2026-04-25T09:50:27.306Z</time></trkpt><trkpt lat="44.0740144" lon="11.2742536"><ele>719.0</ele><time>2026-04-25T09:50:28.294Z</time></trkpt><trkpt lat="44.0740947" lon="11.2743794"><ele>719.0</ele><time>2026-04-25T09:50:29.293Z</time></trkpt><trkpt lat="44.0741853" lon="11.2745187"><ele>719.0</ele><time>2026-04-25T09:50:30.321Z</time></trkpt><trkpt lat="44.0742826" lon="11.2746754"><ele>723.6666666666666</ele><time>2026-04-25T09:50:31.319Z</time></trkpt><trkpt lat="44.0743849" lon="11.2748245"><ele>728.3333333333334</ele><time>2026-04-25T09:50:32.323Z</time></trkpt><trkpt lat="44.0745047" lon="11.2749633"><ele>733.0</ele><time>2026-04-25T09:50:33.323Z</time></trkpt><trkpt lat="44.0746299" lon="11.275084"><ele>733.0</ele><time>2026-04-25T09:50:34.307Z</time></trkpt><trkpt lat="44.0747574" lon="11.2751579"><ele>733.0</ele><time>2026-04-25T09:50:35.32Z</time></trkpt><trkpt lat="44.074869" lon="11.2752175"><ele>733.0</ele><time>2026-04-25T09:50:36.324Z</time></trkpt><trkpt lat="44.0749713" lon="11.2752976"><ele>733.0</ele><time>2026-04-25T09:50:37.32Z</time></trkpt><trkpt lat="44.0750671" lon="11.2753896"><ele>736.0</ele><time>2026-04-25T09:50:38.309Z</time></trkpt><trkpt lat="44.0751398" lon="11.2755141"><ele>739.0</ele><time>2026-04-25T09:50:39.32Z</time></trkpt><trkpt lat="44.0751857" lon="11.2756671"><ele>742.0</ele><time>2026-04-25T09:50:40.322Z</time></trkpt><trkpt lat="44.0752368" lon="11.2758368"><ele>745.0</ele><time>2026-04-25T09:50:41.317Z</time></trkpt><trkpt lat="44.0753035" lon="11.2760111"><ele>745.0</ele><time>2026-04-25T09:50:42.317Z</time></trkpt><trkpt lat="44.0754026" lon="11.2762007"><ele>745.0</ele><time>2026-04-25T09:50:43.332Z</time></trkpt><trkpt lat="44.0755193" lon="11.2763775"><ele>745.0</ele><time>2026-04-25T09:50:44.306Z</time></trkpt><trkpt lat="44.0756261" lon="11.2765142"><ele>745.0</ele><time>2026-04-25T09:50:45.304Z</time></trkpt><trkpt lat="44.0757096" lon="11.2766227"><ele>745.0</ele><time>2026-04-25T09:50:46.324Z</time></trkpt><trkpt lat="44.0757705" lon="11.276721"><ele>745.0</ele><time>2026-04-25T09:50:47.31Z</time></trkpt><trkpt lat="44.0758158" lon="11.2768217"><ele>745.0</ele><time>2026-04-25T09:50:48.312Z</time></trkpt><trkpt lat="44.0758614" lon="11.2769389"><ele>745.0</ele><time>2026-04-25T09:50:49.322Z</time></trkpt><trkpt lat="44.0758777" lon="11.2770973"><ele>744.5</ele><time>2026-04-25T09:50:50.314Z</time></trkpt><trkpt lat="44.0758462" lon="11.2772634"><ele>744.0</ele><time>2026-04-25T09:50:51.314Z</time></trkpt><trkpt lat="44.0757909" lon="11.2774161"><ele>743.5</ele><time>2026-04-25T09:50:52.312Z</time></trkpt><trkpt lat="44.0757647" lon="11.2775606"><ele>743.0</ele><time>2026-04-25T09:50:53.31Z</time></trkpt><trkpt lat="44.0757739" lon="11.2776976"><ele>749.0</ele><time>2026-04-25T09:50:54.302Z</time></trkpt><trkpt lat="44.0758302" lon="11.2778588"><ele>755.0</ele><time>2026-04-25T09:50:55.308Z</time></trkpt><trkpt lat="44.0758705" lon="11.2780281"><ele>761.0</ele><time>2026-04-25T09:50:56.312Z</time></trkpt><trkpt lat="44.0758865" lon="11.2782163"><ele>767.0</ele><time>2026-04-25T09:50:57.321Z</time></trkpt><trkpt lat="44.0758993" lon="11.2784423"><ele>767.0</ele><time>2026-04-25T09:50:58.315Z</time></trkpt><trkpt lat="44.0758952" lon="11.2787027"><ele>767.0</ele><time>2026-04-25T09:50:59.319Z</time></trkpt><trkpt lat="44.0758764" lon="11.2789969"><ele>767.0</ele><time>2026-04-25T09:51:00.328Z</time></trkpt><trkpt lat="44.0758523" lon="11.2792834"><ele>766.6666666666666</ele><time>2026-04-25T09:51:01.322Z</time></trkpt><trkpt lat="44.0758272" lon="11.2795459"><ele>766.3333333333334</ele><time>2026-04-25T09:51:02.315Z</time></trkpt><trkpt lat="44.0758057" lon="11.2797889"><ele>766.0</ele><time>2026-04-25T09:51:03.312Z</time></trkpt><trkpt lat="44.0757937" lon="11.2800193"><ele>765.6666666666667</ele><time>2026-04-25T09:51:04.317Z</time></trkpt><trkpt lat="44.0758138" lon="11.2802188"><ele>765.3333333333334</ele><time>2026-04-25T09:51:05.316Z</time></trkpt><trkpt lat="44.0758843" lon="11.2803981"><ele>765.0</ele><time>2026-04-25T09:51:06.301Z</time></trkpt><trkpt lat="44.0760056" lon="11.2805427"><ele>761.3333333333334</ele><time>2026-04-25T09:51:07.3Z</time></trkpt><trkpt lat="44.0761553" lon="11.2806345"><ele>757.6666666666667</ele><time>2026-04-25T09:51:08.307Z</time></trkpt><trkpt lat="44.0763245" lon="11.2806834"><ele>754.0</ele><time>2026-04-25T09:51:09.325Z</time></trkpt><trkpt lat="44.0764953" lon="11.280731"><ele>757.6666666666667</ele><time>2026-04-25T09:51:10.302Z</time></trkpt><trkpt lat="44.0766565" lon="11.2808109"><ele>761.3333333333334</ele><time>2026-04-25T09:51:11.302Z</time></trkpt><trkpt lat="44.0768034" lon="11.2809372"><ele>765.0</ele><time>2026-04-25T09:51:12.33Z</time></trkpt><trkpt lat="44.0769344" lon="11.2810895"><ele>765.0</ele><time>2026-04-25T09:51:13.314Z</time></trkpt><trkpt lat="44.0770638" lon="11.2812212"><ele>765.0</ele><time>2026-04-25T09:51:14.308Z</time></trkpt><trkpt lat="44.0772286" lon="11.2813269"><ele>765.0</ele><time>2026-04-25T09:51:15.306Z</time></trkpt><trkpt lat="44.0774088" lon="11.2814333"><ele>764.6666666666666</ele><time>2026-04-25T09:51:16.314Z</time></trkpt><trkpt lat="44.0776041" lon="11.2815298"><ele>764.3333333333333</ele><time>2026-04-25T09:51:17.306Z</time></trkpt><trkpt lat="44.0778111" lon="11.2816346"><ele>764.0</ele><time>2026-04-25T09:51:18.316Z</time></trkpt><trkpt lat="44.0780287" lon="11.2817358"><ele>764.0</ele><time>2026-04-25T09:51:19.315Z</time></trkpt><trkpt lat="44.0782375" lon="11.2818355"><ele>764.0</ele><time>2026-04-25T09:51:20.306Z</time></trkpt><trkpt lat="44.0784288" lon="11.2819306"><ele>764.0</ele><time>2026-04-25T09:51:21.319Z</time></trkpt><trkpt lat="44.0786166" lon="11.2820164"><ele>767.3333333333333</ele><time>2026-04-25T09:51:22.317Z</time></trkpt><trkpt lat="44.0788172" lon="11.2820799"><ele>770.6666666666666</ele><time>2026-04-25T09:51:23.307Z</time></trkpt><trkpt lat="44.0790335" lon="11.2820896"><ele>774.0</ele><time>2026-04-25T09:51:24.328Z</time></trkpt><trkpt lat="44.0792569" lon="11.2820658"><ele>783.0</ele><time>2026-04-25T09:51:25.329Z</time></trkpt><trkpt lat="44.0794834" lon="11.2820394"><ele>792.0</ele><time>2026-04-25T09:51:26.317Z</time></trkpt><trkpt lat="44.079707" lon="11.2820122"><ele>799.0</ele><time>2026-04-25T09:51:27.321Z</time></trkpt><trkpt lat="44.0799379" lon="11.2819853"><ele>806.0</ele><time>2026-04-25T09:51:28.313Z</time></trkpt><trkpt lat="44.0801767" lon="11.2819661"><ele>806.0</ele><time>2026-04-25T09:51:29.292Z</time></trkpt><trkpt lat="44.0804017" lon="11.281937"><ele>806.0</ele><time>2026-04-25T09:51:30.31Z</time></trkpt><trkpt lat="44.0806138" lon="11.2819037"><ele>806.0</ele><time>2026-04-25T09:51:31.289Z</time></trkpt><trkpt lat="44.0808087" lon="11.2818559"><ele>807.0</ele><time>2026-04-25T09:51:32.306Z</time></trkpt><trkpt lat="44.0809878" lon="11.2817867"><ele>808.0</ele><time>2026-04-25T09:51:33.325Z</time></trkpt><trkpt lat="44.0811494" lon="11.2817179"><ele>809.0</ele><time>2026-04-25T09:51:34.319Z</time></trkpt><trkpt lat="44.0812975" lon="11.2816429"><ele>809.0</ele><time>2026-04-25T09:51:35.303Z</time></trkpt><trkpt lat="44.0814313" lon="11.2815485"><ele>809.0</ele><time>2026-04-25T09:51:36.295Z</time></trkpt><trkpt lat="44.081548" lon="11.2814228"><ele>809.0</ele><time>2026-04-25T09:51:37.305Z</time></trkpt><trkpt lat="44.0816471" lon="11.2812996"><ele>809.0</ele><time>2026-04-25T09:51:38.325Z</time></trkpt><trkpt lat="44.0817377" lon="11.2811843"><ele>811.6666666666667</ele><time>2026-04-25T09:51:39.319Z</time></trkpt><trkpt lat="44.0818138" lon="11.2810848"><ele>814.3333333333334</ele><time>2026-04-25T09:51:40.318Z</time></trkpt><trkpt lat="44.0818868" lon="11.280993"><ele>817.0</ele><time>2026-04-25T09:51:41.3Z</time></trkpt><trkpt lat="44.0819514" lon="11.2809384"><ele>819.6666666666667</ele><time>2026-04-25T09:51:42.309Z</time></trkpt><trkpt lat="44.0820208" lon="11.280927"><ele>822.3333333333334</ele><time>2026-04-25T09:51:43.295Z</time></trkpt><trkpt lat="44.0821057" lon="11.2809326"><ele>825.0</ele><time>2026-04-25T09:51:44.311Z</time></trkpt><trkpt lat="44.082193" lon="11.2809503"><ele>825.0</ele><time>2026-04-25T09:51:45.311Z</time></trkpt><trkpt lat="44.0822938" lon="11.2810134"><ele>825.0</ele><time>2026-04-25T09:51:46.311Z</time></trkpt><trkpt lat="44.0823723" lon="11.2811051"><ele>825.0</ele><time>2026-04-25T09:51:47.32Z</time></trkpt><trkpt lat="44.0824271" lon="11.2812471"><ele>825.0</ele><time>2026-04-25T09:51:48.321Z</time></trkpt><trkpt lat="44.0824331" lon="11.2814622"><ele>819.25</ele><time>2026-04-25T09:51:49.313Z</time></trkpt><trkpt lat="44.0824204" lon="11.2816714"><ele>813.5</ele><time>2026-04-25T09:51:50.307Z</time></trkpt><trkpt lat="44.082408" lon="11.2818763"><ele>807.75</ele><time>2026-04-25T09:51:51.309Z</time></trkpt><trkpt lat="44.0824069" lon="11.2820649"><ele>802.0</ele><time>2026-04-25T09:51:52.307Z</time></trkpt><trkpt lat="44.0824199" lon="11.2822353"><ele>806.75</ele><time>2026-04-25T09:51:53.297Z</time></trkpt><trkpt lat="44.0824533" lon="11.2824093"><ele>811.5</ele><time>2026-04-25T09:51:54.316Z</time></trkpt><trkpt lat="44.082508" lon="11.2825784"><ele>816.25</ele><time>2026-04-25T09:51:55.318Z</time></trkpt><trkpt lat="44.0825805" lon="11.2827569"><ele>821.0</ele><time>2026-04-25T09:51:56.318Z</time></trkpt><trkpt lat="44.0826658" lon="11.2829281"><ele>821.0</ele><time>2026-04-25T09:51:57.315Z</time></trkpt><trkpt lat="44.0827304" lon="11.2830866"><ele>821.0</ele><time>2026-04-25T09:51:58.311Z</time></trkpt><trkpt lat="44.0827873" lon="11.2832021"><ele>821.0</ele><time>2026-04-25T09:51:59.321Z</time></trkpt><trkpt lat="44.0828323" lon="11.2832738"><ele>821.0</ele><time>2026-04-25T09:52:00.321Z</time></trkpt><trkpt lat="44.0829049" lon="11.2833981"><ele>821.0</ele><time>2026-04-25T09:52:02.315Z</time></trkpt><trkpt lat="44.0829969" lon="11.2834011"><ele>821.0</ele><time>2026-04-25T09:52:04.31Z</time></trkpt><trkpt lat="44.083036" lon="11.2833016"><ele>821.0</ele><time>2026-04-25T09:52:05.321Z</time></trkpt><trkpt lat="44.0830342" lon="11.2831685"><ele>821.0</ele><time>2026-04-25T09:52:06.321Z</time></trkpt><trkpt lat="44.0829941" lon="11.2830361"><ele>821.0</ele><time>2026-04-25T09:52:07.316Z</time></trkpt><trkpt lat="44.0829493" lon="11.2829181"><ele>821.0</ele><time>2026-04-25T09:52:08.33Z</time></trkpt><trkpt lat="44.0829107" lon="11.2827831"><ele>821.0</ele><time>2026-04-25T09:52:09.316Z</time></trkpt><trkpt lat="44.0828749" lon="11.2826282"><ele>821.0</ele><time>2026-04-25T09:52:10.328Z</time></trkpt><trkpt lat="44.0828312" lon="11.282463"><ele>821.0</ele><time>2026-04-25T09:52:11.316Z</time></trkpt><trkpt lat="44.0827969" lon="11.2822965"><ele>821.0</ele><time>2026-04-25T09:52:12.314Z</time></trkpt><trkpt lat="44.0827854" lon="11.2821214"><ele>820.8333333333334</ele><time>2026-04-25T09:52:13.285Z</time></trkpt><trkpt lat="44.0827755" lon="11.2819808"><ele>820.6666666666667</ele><time>2026-04-25T09:52:14.293Z</time></trkpt><trkpt lat="44.082788" lon="11.2818798"><ele>820.5</ele><time>2026-04-25T09:52:15.291Z</time></trkpt><trkpt lat="44.0827988" lon="11.281791"><ele>820.3333333333333</ele><time>2026-04-25T09:52:16.299Z</time></trkpt><trkpt lat="44.0828464" lon="11.2817292"><ele>820.1666666666666</ele><time>2026-04-25T09:52:17.305Z</time></trkpt><trkpt lat="44.082905" lon="11.2816833"><ele>820.0</ele><time>2026-04-25T09:52:18.306Z</time></trkpt><trkpt lat="44.0829863" lon="11.281648"><ele>819.9999999999999</ele><time>2026-04-25T09:52:19.309Z</time></trkpt><trkpt lat="44.0830552" lon="11.2816103"><ele>820.0</ele><time>2026-04-25T09:52:20.319Z</time></trkpt><trkpt lat="44.0831102" lon="11.2815395"><ele>820.0</ele><time>2026-04-25T09:52:21.32Z</time></trkpt><trkpt lat="44.0831424" lon="11.2814488"><ele>820.0</ele><time>2026-04-25T09:52:22.298Z</time></trkpt><trkpt lat="44.0831569" lon="11.2813518"><ele>819.9999999999999</ele><time>2026-04-25T09:52:23.31Z</time></trkpt><trkpt lat="44.0831644" lon="11.281258"><ele>820.0</ele><time>2026-04-25T09:52:24.324Z</time></trkpt><trkpt lat="44.0832117" lon="11.2811156"><ele>824.0</ele><time>2026-04-25T09:52:26.321Z</time></trkpt><trkpt lat="44.0833512" lon="11.2810645"><ele>828.0</ele><time>2026-04-25T09:52:28.315Z</time></trkpt><trkpt lat="44.0834878" lon="11.2811402"><ele>832.0</ele><time>2026-04-25T09:52:29.305Z</time></trkpt><trkpt lat="44.0836491" lon="11.2812274"><ele>832.0</ele><time>2026-04-25T09:52:30.318Z</time></trkpt><trkpt lat="44.0838261" lon="11.2813109"><ele>832.0</ele><time>2026-04-25T09:52:31.302Z</time></trkpt><trkpt lat="44.0839827" lon="11.2814066"><ele>832.0</ele><time>2026-04-25T09:52:32.301Z</time></trkpt><trkpt lat="44.0841192" lon="11.2815211"><ele>836.6</ele><time>2026-04-25T09:52:33.324Z</time></trkpt><trkpt lat="44.0842254" lon="11.2816527"><ele>841.2</ele><time>2026-04-25T09:52:34.323Z</time></trkpt><trkpt lat="44.084316" lon="11.2817662"><ele>845.8</ele><time>2026-04-25T09:52:35.307Z</time></trkpt><trkpt lat="44.0844041" lon="11.2818442"><ele>850.4</ele><time>2026-04-25T09:52:36.319Z</time></trkpt><trkpt lat="44.084472" lon="11.281833"><ele>855.0</ele><time>2026-04-25T09:52:37.314Z</time></trkpt><trkpt lat="44.0845306" lon="11.281706"><ele>855.0</ele><time>2026-04-25T09:52:38.317Z</time></trkpt><trkpt lat="44.0845445" lon="11.2815445"><ele>855.0</ele><time>2026-04-25T09:52:39.305Z</time></trkpt><trkpt lat="44.084566" lon="11.2813843"><ele>855.0</ele><time>2026-04-25T09:52:40.307Z</time></trkpt><trkpt lat="44.0846522" lon="11.2812622"><ele>855.0</ele><time>2026-04-25T09:52:41.318Z</time></trkpt><trkpt lat="44.0847696" lon="11.2811907"><ele>854.0</ele><time>2026-04-25T09:52:42.315Z</time></trkpt><trkpt lat="44.0848932" lon="11.2811252"><ele>853.0</ele><time>2026-04-25T09:52:43.313Z</time></trkpt><trkpt lat="44.0849909" lon="11.2811176"><ele>852.0</ele><time>2026-04-25T09:52:44.316Z</time></trkpt><trkpt lat="44.0850775" lon="11.2811639"><ele>851.0</ele><time>2026-04-25T09:52:45.297Z</time></trkpt><trkpt lat="44.0851353" lon="11.2813058"><ele>850.0</ele><time>2026-04-25T09:52:46.316Z</time></trkpt><trkpt lat="44.0852141" lon="11.2814212"><ele>855.6666666666666</ele><time>2026-04-25T09:52:47.326Z</time></trkpt><trkpt lat="44.0853526" lon="11.2814963"><ele>861.3333333333333</ele><time>2026-04-25T09:52:48.298Z</time></trkpt><trkpt lat="44.0855114" lon="11.2815538"><ele>867.0</ele><time>2026-04-25T09:52:49.319Z</time></trkpt><trkpt lat="44.0856652" lon="11.281603"><ele>869.0</ele><time>2026-04-25T09:52:50.315Z</time></trkpt><trkpt lat="44.0858284" lon="11.2816558"><ele>871.0</ele><time>2026-04-25T09:52:51.317Z</time></trkpt><trkpt lat="44.0859536" lon="11.2817747"><ele>873.0</ele><time>2026-04-25T09:52:52.312Z</time></trkpt><trkpt lat="44.08604" lon="11.2819243"><ele>873.0</ele><time>2026-04-25T09:52:53.309Z</time></trkpt><trkpt lat="44.0861208" lon="11.2820501"><ele>873.0</ele><time>2026-04-25T09:52:54.319Z</time></trkpt><trkpt lat="44.0861888" lon="11.2821246"><ele>873.0</ele><time>2026-04-25T09:52:55.294Z</time></trkpt><trkpt lat="44.0862863" lon="11.2820571"><ele>873.0</ele><time>2026-04-25T09:52:57.305Z</time></trkpt><trkpt lat="44.0863146" lon="11.2819089"><ele>873.0</ele><time>2026-04-25T09:52:58.325Z</time></trkpt><trkpt lat="44.0863324" lon="11.2817643"><ele>873.0</ele><time>2026-04-25T09:52:59.31Z</time></trkpt><trkpt lat="44.0863717" lon="11.2816357"><ele>873.0</ele><time>2026-04-25T09:53:00.324Z</time></trkpt><trkpt lat="44.0864386" lon="11.2816252"><ele>873.0</ele><time>2026-04-25T09:53:01.309Z</time></trkpt><trkpt lat="44.0865306" lon="11.2817263"><ele>873.0</ele><time>2026-04-25T09:53:02.32Z</time></trkpt><trkpt lat="44.0866215" lon="11.2818232"><ele>873.0</ele><time>2026-04-25T09:53:03.306Z</time></trkpt><trkpt lat="44.0867331" lon="11.2818915"><ele>875.25</ele><time>2026-04-25T09:53:04.308Z</time></trkpt><trkpt lat="44.0868511" lon="11.2818488"><ele>877.5</ele><time>2026-04-25T09:53:05.301Z</time></trkpt><trkpt lat="44.0869334" lon="11.2817202"><ele>879.75</ele><time>2026-04-25T09:53:06.328Z</time></trkpt><trkpt lat="44.0869721" lon="11.2815468"><ele>882.0</ele><time>2026-04-25T09:53:07.311Z</time></trkpt><trkpt lat="44.0869537" lon="11.2813345"><ele>882.0</ele><time>2026-04-25T09:53:08.309Z</time></trkpt><trkpt lat="44.08693" lon="11.281148"><ele>882.0</ele><time>2026-04-25T09:53:09.31Z</time></trkpt><trkpt lat="44.0869594" lon="11.2809918"><ele>882.0</ele><time>2026-04-25T09:53:10.327Z</time></trkpt><trkpt lat="44.0870424" lon="11.2808001"><ele>882.0</ele><time>2026-04-25T09:53:11.32Z</time></trkpt><trkpt lat="44.0871532" lon="11.2806482"><ele>880.0</ele><time>2026-04-25T09:53:12.324Z</time></trkpt><trkpt lat="44.0872776" lon="11.280536"><ele>878.0</ele><time>2026-04-25T09:53:13.321Z</time></trkpt><trkpt lat="44.0873894" lon="11.2804752"><ele>876.0</ele><time>2026-04-25T09:53:14.307Z</time></trkpt><trkpt lat="44.0874923" lon="11.2804856"><ele>874.0</ele><time>2026-04-25T09:53:15.328Z</time></trkpt><trkpt lat="44.0876128" lon="11.2805261"><ele>879.0</ele><time>2026-04-25T09:53:16.326Z</time></trkpt><trkpt lat="44.0877106" lon="11.2806488"><ele>884.0</ele><time>2026-04-25T09:53:17.313Z</time></trkpt><trkpt lat="44.0877988" lon="11.2808213"><ele>889.0</ele><time>2026-04-25T09:53:18.314Z</time></trkpt><trkpt lat="44.08788" lon="11.2809585"><ele>894.0</ele><time>2026-04-25T09:53:19.318Z</time></trkpt><trkpt lat="44.0879421" lon="11.2811052"><ele>894.0</ele><time>2026-04-25T09:53:20.326Z</time></trkpt><trkpt lat="44.0880126" lon="11.281223"><ele>894.0</ele><time>2026-04-25T09:53:21.311Z</time></trkpt><trkpt lat="44.0880999" lon="11.281301"><ele>894.0</ele><time>2026-04-25T09:53:22.323Z</time></trkpt><trkpt lat="44.0882259" lon="11.2813416"><ele>894.0</ele><time>2026-04-25T09:53:23.32Z</time></trkpt><trkpt lat="44.0883954" lon="11.2813388"><ele>884.0</ele><time>2026-04-25T09:53:24.323Z</time></trkpt><trkpt lat="44.0885591" lon="11.2813354"><ele>884.0</ele><time>2026-04-25T09:53:25.323Z</time></trkpt><trkpt lat="44.0886963" lon="11.2813545"><ele>884.0</ele><time>2026-04-25T09:53:26.33Z</time></trkpt></trkseg><trkseg><trkpt lat="44.0988423" lon="11.270687"><ele>935.0</ele><time>2026-04-25T10:00:22.297Z</time></trkpt><trkpt lat="44.0987925" lon="11.2707723"><ele>935.0</ele><time>2026-04-25T10:00:23.312Z</time></trkpt><trkpt lat="44.0987222" lon="11.270867"><ele>935.0</ele><time>2026-04-25T10:00:24.334Z</time></trkpt><trkpt lat="44.0986502" lon="11.2709432"><ele>935.0</ele><time>2026-04-25T10:00:25.327Z</time></trkpt><trkpt lat="44.0985704" lon="11.2710652"><ele>935.0</ele><time>2026-04-25T10:00:26.339Z</time></trkpt><trkpt lat="44.0984855" lon="11.27122"><ele>935.0</ele><time>2026-04-25T10:00:27.326Z</time></trkpt><trkpt lat="44.0983876" lon="11.2713859"><ele>935.0</ele><time>2026-04-25T10:00:28.313Z</time></trkpt><trkpt lat="44.098279" lon="11.2715346"><ele>935.0</ele><time>2026-04-25T10:00:29.347Z</time></trkpt><trkpt lat="44.0981556" lon="11.2716538"><ele>936.75</ele><time>2026-04-25T10:00:30.295Z</time></trkpt><trkpt lat="44.0980192" lon="11.2717297"><ele>938.5</ele><time>2026-04-25T10:00:31.297Z</time></trkpt><trkpt lat="44.0978905" lon="11.2717807"><ele>940.25</ele><time>2026-04-25T10:00:32.353Z</time></trkpt><trkpt lat="44.0977706" lon="11.2718249"><ele>942.0</ele><time>2026-04-25T10:00:33.323Z</time></trkpt><trkpt lat="44.0976593" lon="11.271878"><ele>942.0</ele><time>2026-04-25T10:00:34.313Z</time></trkpt><trkpt lat="44.0975658" lon="11.2719436"><ele>942.0</ele><time>2026-04-25T10:00:35.32Z</time></trkpt><trkpt lat="44.0974724" lon="11.2720106"><ele>942.0</ele><time>2026-04-25T10:00:36.295Z</time></trkpt><trkpt lat="44.0973834" lon="11.2721105"><ele>942.0</ele><time>2026-04-25T10:00:37.299Z</time></trkpt><trkpt lat="44.0973001" lon="11.2722626"><ele>942.0</ele><time>2026-04-25T10:00:38.313Z</time></trkpt><trkpt lat="44.097213" lon="11.2724171"><ele>942.0</ele><time>2026-04-25T10:00:39.319Z</time></trkpt><trkpt lat="44.0971428" lon="11.2725673"><ele>942.0</ele><time>2026-04-25T10:00:40.328Z</time></trkpt><trkpt lat="44.0970735" lon="11.2727092"><ele>942.0</ele><time>2026-04-25T10:00:41.303Z</time></trkpt><trkpt lat="44.0970037" lon="11.2728484"><ele>942.0</ele><time>2026-04-25T10:00:42.317Z</time></trkpt><trkpt lat="44.0969339" lon="11.2729906"><ele>942.0</ele><time>2026-04-25T10:00:43.33Z</time></trkpt><trkpt lat="44.0968596" lon="11.2731351"><ele>942.0</ele><time>2026-04-25T10:00:44.321Z</time></trkpt><trkpt lat="44.09678" lon="11.2732838"><ele>942.0</ele><time>2026-04-25T10:00:45.314Z</time></trkpt><trkpt lat="44.0967005" lon="11.2734376"><ele>941.0</ele><time>2026-04-25T10:00:46.321Z</time></trkpt><trkpt lat="44.0966274" lon="11.2735863"><ele>940.0</ele><time>2026-04-25T10:00:47.316Z</time></trkpt><trkpt lat="44.0965552" lon="11.2737291"><ele>939.0</ele><time>2026-04-25T10:00:48.321Z</time></trkpt><trkpt lat="44.0964842" lon="11.2738684"><ele>938.0</ele><time>2026-04-25T10:00:49.319Z</time></trkpt><trkpt lat="44.0964084" lon="11.274003"><ele>935.75</ele><time>2026-04-25T10:00:50.321Z</time></trkpt><trkpt lat="44.0963264" lon="11.2741194"><ele>933.5</ele><time>2026-04-25T10:00:51.316Z</time></trkpt><trkpt lat="44.0962376" lon="11.274222"><ele>931.25</ele><time>2026-04-25T10:00:52.301Z</time></trkpt><trkpt lat="44.0961321" lon="11.2743132"><ele>929.0</ele><time>2026-04-25T10:00:53.328Z</time></trkpt><trkpt lat="44.0960136" lon="11.2743928"><ele>929.0</ele><time>2026-04-25T10:00:54.285Z</time></trkpt><trkpt lat="44.0958615" lon="11.274466"><ele>929.0</ele><time>2026-04-25T10:00:55.313Z</time></trkpt><trkpt lat="44.0957049" lon="11.2745423"><ele>929.0</ele><time>2026-04-25T10:00:56.295Z</time></trkpt><trkpt lat="44.0955532" lon="11.2746097"><ele>927.0</ele><time>2026-04-25T10:00:57.315Z</time></trkpt><trkpt lat="44.0954016" lon="11.27467"><ele>925.0</ele><time>2026-04-25T10:00:58.334Z</time></trkpt><trkpt lat="44.0952564" lon="11.2747226"><ele>923.0</ele><time>2026-04-25T10:00:59.325Z</time></trkpt><trkpt lat="44.0951429" lon="11.2747807"><ele>921.0</ele><time>2026-04-25T10:01:00.327Z</time></trkpt><trkpt lat="44.0950468" lon="11.2748374"><ele>920.0</ele><time>2026-04-25T10:01:01.32Z</time></trkpt><trkpt lat="44.0949702" lon="11.2748824"><ele>919.0</ele><time>2026-04-25T10:01:02.305Z</time></trkpt><trkpt lat="44.0949124" lon="11.2749181"><ele>918.0</ele><time>2026-04-25T10:01:03.325Z</time></trkpt><trkpt lat="44.0948256" lon="11.274931"><ele>917.0</ele><time>2026-04-25T10:01:05.311Z</time></trkpt><trkpt lat="44.0947839" lon="11.2748316"><ele>916.0</ele><time>2026-04-25T10:01:08.31Z</time></trkpt><trkpt lat="44.0947721" lon="11.2747036"><ele>915.0</ele><time>2026-04-25T10:01:11.328Z</time></trkpt><trkpt lat="44.0947533" lon="11.2745932"><ele>913.6666666666666</ele><time>2026-04-25T10:01:13.315Z</time></trkpt><trkpt lat="44.0947423" lon="11.2744769"><ele>912.3333333333333</ele><time>2026-04-25T10:01:16.32Z</time></trkpt><trkpt lat="44.0947392" lon="11.2743773"><ele>911.0</ele><time>2026-04-25T10:01:19.337Z</time></trkpt><trkpt lat="44.094725" lon="11.274267"><ele>909.6666666666666</ele><time>2026-04-25T10:01:37.318Z</time></trkpt><trkpt lat="44.0946726" lon="11.2743607"><ele>908.3333333333333</ele><time>2026-04-25T10:01:41.311Z</time></trkpt><trkpt lat="44.0946402" lon="11.2744636"><ele>907.0</ele><time>2026-04-25T10:01:43.334Z</time></trkpt><trkpt lat="44.0946029" lon="11.2745958"><ele>907.0</ele><time>2026-04-25T10:01:45.318Z</time></trkpt><trkpt lat="44.0946061" lon="11.2747528"><ele>907.0</ele><time>2026-04-25T10:01:47.329Z</time></trkpt><trkpt lat="44.0946299" lon="11.2749194"><ele>907.0</ele><time>2026-04-25T10:01:49.332Z</time></trkpt><trkpt lat="44.0946393" lon="11.2750318"><ele>907.0</ele><time>2026-04-25T10:01:52.323Z</time></trkpt><trkpt lat="44.0946187" lon="11.2751388"><ele>907.0</ele><time>2026-04-25T10:01:56.314Z</time></trkpt><trkpt lat="44.0945738" lon="11.2752768"><ele>906.6666666666666</ele><time>2026-04-25T10:01:58.327Z</time></trkpt><trkpt lat="44.094535" lon="11.2753691"><ele>906.3333333333333</ele><time>2026-04-25T10:01:59.313Z</time></trkpt><trkpt lat="44.0944921" lon="11.2754722"><ele>906.0</ele><time>2026-04-25T10:02:00.32Z</time></trkpt><trkpt lat="44.0944425" lon="11.2755743"><ele>905.6666666666667</ele><time>2026-04-25T10:02:01.333Z</time></trkpt><trkpt lat="44.094395" lon="11.2756724"><ele>905.3333333333334</ele><time>2026-04-25T10:02:02.312Z</time></trkpt><trkpt lat="44.0943448" lon="11.2757733"><ele>905.0</ele><time>2026-04-25T10:02:03.324Z</time></trkpt><trkpt lat="44.0942982" lon="11.275876"><ele>904.8333333333334</ele><time>2026-04-25T10:02:04.319Z</time></trkpt><trkpt lat="44.0942406" lon="11.2759808"><ele>904.6666666666667</ele><time>2026-04-25T10:02:05.307Z</time></trkpt><trkpt lat="44.0941965" lon="11.276082"><ele>904.5</ele><time>2026-04-25T10:02:06.304Z</time></trkpt><trkpt lat="44.0941465" lon="11.2761624"><ele>904.3333333333333</ele><time>2026-04-25T10:02:07.306Z</time></trkpt><trkpt lat="44.0940963" lon="11.2762328"><ele>904.1666666666666</ele><time>2026-04-25T10:02:08.309Z</time></trkpt><trkpt lat="44.0940184" lon="11.2763629"><ele>904.0</ele><time>2026-04-25T10:02:10.318Z</time></trkpt><trkpt lat="44.0940471" lon="11.2765415"><ele>904.0</ele><time>2026-04-25T10:02:12.309Z</time></trkpt><trkpt lat="44.0941084" lon="11.2766078"><ele>904.0000000000001</ele><time>2026-04-25T10:02:13.309Z</time></trkpt><trkpt lat="44.0942421" lon="11.2765768"><ele>904.0000000000001</ele><time>2026-04-25T10:02:15.317Z</time></trkpt><trkpt lat="44.0943011" lon="11.2765079"><ele>904.0</ele><time>2026-04-25T10:02:16.319Z</time></trkpt><trkpt lat="44.0943585" lon="11.2763924"><ele>904.0</ele><time>2026-04-25T10:02:17.321Z</time></trkpt><trkpt lat="44.0944149" lon="11.2762663"><ele>904.0</ele><time>2026-04-25T10:02:18.322Z</time></trkpt><trkpt lat="44.0944777" lon="11.2761297"><ele>904.0</ele><time>2026-04-25T10:02:19.335Z</time></trkpt><trkpt lat="44.0945527" lon="11.2759759"><ele>904.0</ele><time>2026-04-25T10:02:20.316Z</time></trkpt><trkpt lat="44.0946269" lon="11.2758168"><ele>904.0</ele><time>2026-04-25T10:02:21.316Z</time></trkpt><trkpt lat="44.0947175" lon="11.2756823"><ele>904.2</ele><time>2026-04-25T10:02:22.31Z</time></trkpt><trkpt lat="44.0948125" lon="11.2755674"><ele>904.4000000000001</ele><time>2026-04-25T10:02:23.298Z</time></trkpt><trkpt lat="44.0949076" lon="11.2754815"><ele>904.6</ele><time>2026-04-25T10:02:24.308Z</time></trkpt><trkpt lat="44.0950009" lon="11.275417"><ele>904.8</ele><time>2026-04-25T10:02:25.318Z</time></trkpt><trkpt lat="44.0951014" lon="11.2753734"><ele>905.0</ele><time>2026-04-25T10:02:26.32Z</time></trkpt><trkpt lat="44.0952115" lon="11.2753402"><ele>907.0</ele><time>2026-04-25T10:02:27.316Z</time></trkpt><trkpt lat="44.0953183" lon="11.275326"><ele>909.0</ele><time>2026-04-25T10:02:28.316Z</time></trkpt><trkpt lat="44.09542" lon="11.2753356"><ele>911.0</ele><time>2026-04-25T10:02:29.315Z</time></trkpt><trkpt lat="44.0955125" lon="11.2753442"><ele>913.0</ele><time>2026-04-25T10:02:30.314Z</time></trkpt><trkpt lat="44.0955939" lon="11.275353"><ele>915.0</ele><time>2026-04-25T10:02:31.321Z</time></trkpt><trkpt lat="44.0956623" lon="11.2753671"><ele>915.8</ele><time>2026-04-25T10:02:32.32Z</time></trkpt><trkpt lat="44.0957586" lon="11.2753806"><ele>916.6</ele><time>2026-04-25T10:02:34.313Z</time></trkpt><trkpt lat="44.0958263" lon="11.275424"><ele>917.4000000000001</ele><time>2026-04-25T10:02:37.301Z</time></trkpt><trkpt lat="44.0959397" lon="11.2753576"><ele>918.2</ele><time>2026-04-25T10:06:28.307Z</time></trkpt><trkpt lat="44.0960296" lon="11.2753504"><ele>919.0</ele><time>2026-04-25T10:06:29.319Z</time></trkpt><trkpt lat="44.096127" lon="11.2753404"><ele>919.0</ele><time>2026-04-25T10:06:30.315Z</time></trkpt><trkpt lat="44.0962353" lon="11.2753206"><ele>919.0</ele><time>2026-04-25T10:06:31.318Z</time></trkpt><trkpt lat="44.096364" lon="11.2752859"><ele>919.0</ele><time>2026-04-25T10:06:32.329Z</time></trkpt><trkpt lat="44.0965091" lon="11.2752299"><ele>919.0</ele><time>2026-04-25T10:06:33.292Z</time></trkpt><trkpt lat="44.09666" lon="11.2751908"><ele>919.5</ele><time>2026-04-25T10:06:34.314Z</time></trkpt><trkpt lat="44.0967912" lon="11.2751399"><ele>920.0</ele><time>2026-04-25T10:06:35.324Z</time></trkpt><trkpt lat="44.0969123" lon="11.2750754"><ele>920.5</ele><time>2026-04-25T10:06:36.327Z</time></trkpt><trkpt lat="44.0970327" lon="11.2750191"><ele>921.0</ele><time>2026-04-25T10:06:37.337Z</time></trkpt><trkpt lat="44.0971724" lon="11.2749849"><ele>921.0</ele><time>2026-04-25T10:06:38.329Z</time></trkpt><trkpt lat="44.0973315" lon="11.2749916"><ele>921.0</ele><time>2026-04-25T10:06:39.336Z</time></trkpt><trkpt lat="44.0974913" lon="11.2750253"><ele>921.0</ele><time>2026-04-25T10:06:40.326Z</time></trkpt><trkpt lat="44.097659" lon="11.2750702"><ele>918.6666666666667</ele><time>2026-04-25T10:06:41.309Z</time></trkpt><trkpt lat="44.0978231" lon="11.2751125"><ele>916.3333333333334</ele><time>2026-04-25T10:06:42.328Z</time></trkpt><trkpt lat="44.097985" lon="11.275164"><ele>914.0</ele><time>2026-04-25T10:06:43.33Z</time></trkpt><trkpt lat="44.0981355" lon="11.2752303"><ele>913.5</ele><time>2026-04-25T10:06:44.328Z</time></trkpt><trkpt lat="44.0982678" lon="11.2752924"><ele>913.0</ele><time>2026-04-25T10:06:45.313Z</time></trkpt><trkpt lat="44.098392" lon="11.2753396"><ele>912.5</ele><time>2026-04-25T10:06:46.323Z</time></trkpt><trkpt lat="44.098514" lon="11.2753402"><ele>912.0</ele><time>2026-04-25T10:06:47.316Z</time></trkpt><trkpt lat="44.0986334" lon="11.2752758"><ele>912.0</ele><time>2026-04-25T10:06:48.317Z</time></trkpt><trkpt lat="44.0987512" lon="11.2751927"><ele>912.0</ele><time>2026-04-25T10:06:49.318Z</time></trkpt><trkpt lat="44.0988768" lon="11.2751195"><ele>912.0</ele><time>2026-04-25T10:06:50.327Z</time></trkpt><trkpt lat="44.0990189" lon="11.2750754"><ele>912.0</ele><time>2026-04-25T10:06:51.325Z</time></trkpt><trkpt lat="44.0991734" lon="11.275087"><ele>910.0</ele><time>2026-04-25T10:06:52.321Z</time></trkpt><trkpt lat="44.0993217" lon="11.2750948"><ele>908.0</ele><time>2026-04-25T10:06:53.327Z</time></trkpt><trkpt lat="44.0994591" lon="11.2751117"><ele>906.0</ele><time>2026-04-25T10:06:54.323Z</time></trkpt><trkpt lat="44.0995802" lon="11.2751182"><ele>904.0</ele><time>2026-04-25T10:06:55.32Z</time></trkpt><trkpt lat="44.099693" lon="11.2751069"><ele>904.0</ele><time>2026-04-25T10:06:56.315Z</time></trkpt><trkpt lat="44.099807" lon="11.2750887"><ele>904.0</ele><time>2026-04-25T10:06:57.313Z</time></trkpt><trkpt lat="44.0999232" lon="11.2750878"><ele>904.0</ele><time>2026-04-25T10:06:58.34Z</time></trkpt><trkpt lat="44.1000499" lon="11.2751119"><ele>904.0</ele><time>2026-04-25T10:06:59.319Z</time></trkpt><trkpt lat="44.1001784" lon="11.2751755"><ele>902.6666666666666</ele><time>2026-04-25T10:07:00.317Z</time></trkpt><trkpt lat="44.1002953" lon="11.275288"><ele>901.3333333333333</ele><time>2026-04-25T10:07:01.317Z</time></trkpt><trkpt lat="44.1004101" lon="11.2754367"><ele>900.0</ele><time>2026-04-25T10:07:02.331Z</time></trkpt><trkpt lat="44.1005173" lon="11.2755915"><ele>898.75</ele><time>2026-04-25T10:07:03.307Z</time></trkpt><trkpt lat="44.100617" lon="11.2757423"><ele>897.5</ele><time>2026-04-25T10:07:04.302Z</time></trkpt><trkpt lat="44.1007222" lon="11.2758692"><ele>896.25</ele><time>2026-04-25T10:07:05.31Z</time></trkpt><trkpt lat="44.1008396" lon="11.2759833"><ele>895.0</ele><time>2026-04-25T10:07:06.316Z</time></trkpt><trkpt lat="44.1009631" lon="11.2760577"><ele>895.0</ele><time>2026-04-25T10:07:07.341Z</time></trkpt><trkpt lat="44.101083" lon="11.2760974"><ele>895.0</ele><time>2026-04-25T10:07:08.324Z</time></trkpt><trkpt lat="44.101221" lon="11.2761177"><ele>895.0</ele><time>2026-04-25T10:07:09.315Z</time></trkpt><trkpt lat="44.1013663" lon="11.2760599"><ele>895.0</ele><time>2026-04-25T10:07:10.324Z</time></trkpt><trkpt lat="44.1014902" lon="11.2759992"><ele>895.5</ele><time>2026-04-25T10:07:11.309Z</time></trkpt><trkpt lat="44.1016085" lon="11.275974"><ele>896.0</ele><time>2026-04-25T10:07:12.333Z</time></trkpt><trkpt lat="44.1017328" lon="11.2760438"><ele>896.5</ele><time>2026-04-25T10:07:13.327Z</time></trkpt><trkpt lat="44.1018476" lon="11.2761396"><ele>897.0</ele><time>2026-04-25T10:07:14.314Z</time></trkpt><trkpt lat="44.1019396" lon="11.2762673"><ele>897.0</ele><time>2026-04-25T10:07:15.307Z</time></trkpt><trkpt lat="44.1020216" lon="11.2764088"><ele>897.0</ele><time>2026-04-25T10:07:16.319Z</time></trkpt><trkpt lat="44.1020841" lon="11.2765804"><ele>897.0</ele><time>2026-04-25T10:07:17.315Z</time></trkpt><trkpt lat="44.1021482" lon="11.276771"><ele>897.0</ele><time>2026-04-25T10:07:18.318Z</time></trkpt><trkpt lat="44.1022014" lon="11.2769702"><ele>893.6666666666667</ele><time>2026-04-25T10:07:19.327Z</time></trkpt><trkpt lat="44.1022256" lon="11.2771854"><ele>890.3333333333334</ele><time>2026-04-25T10:07:20.315Z</time></trkpt><trkpt lat="44.1022378" lon="11.2773958"><ele>887.0</ele><time>2026-04-25T10:07:21.32Z</time></trkpt><trkpt lat="44.1022443" lon="11.2776026"><ele>886.0</ele><time>2026-04-25T10:07:22.302Z</time></trkpt><trkpt lat="44.1022629" lon="11.2777818"><ele>885.0</ele><time>2026-04-25T10:07:23.321Z</time></trkpt><trkpt lat="44.1023068" lon="11.2779472"><ele>884.0</ele><time>2026-04-25T10:07:24.31Z</time></trkpt><trkpt lat="44.1023853" lon="11.2780952"><ele>883.0</ele><time>2026-04-25T10:07:25.315Z</time></trkpt><trkpt lat="44.1025019" lon="11.2782151"><ele>883.0</ele><time>2026-04-25T10:07:26.312Z</time></trkpt><trkpt lat="44.1026403" lon="11.2783478"><ele>883.0</ele><time>2026-04-25T10:07:27.306Z</time></trkpt><trkpt lat="44.1027856" lon="11.2784643"><ele>883.0</ele><time>2026-04-25T10:07:28.298Z</time></trkpt><trkpt lat="44.1029379" lon="11.2785926"><ele>883.0</ele><time>2026-04-25T10:07:29.32Z</time></trkpt><trkpt lat="44.1030827" lon="11.2787555"><ele>883.0</ele><time>2026-04-25T10:07:30.324Z</time></trkpt><trkpt lat="44.103223" lon="11.2789173"><ele>883.0</ele><time>2026-04-25T10:07:31.321Z</time></trkpt><trkpt lat="44.1033586" lon="11.2791086"><ele>882.6666666666666</ele><time>2026-04-25T10:07:32.326Z</time></trkpt><trkpt lat="44.1034866" lon="11.2793062"><ele>882.3333333333333</ele><time>2026-04-25T10:07:33.326Z</time></trkpt><trkpt lat="44.1036093" lon="11.2795061"><ele>882.0</ele><time>2026-04-25T10:07:34.308Z</time></trkpt><trkpt lat="44.1037321" lon="11.2797026"><ele>882.6666666666667</ele><time>2026-04-25T10:07:35.321Z</time></trkpt><trkpt lat="44.1038528" lon="11.2798941"><ele>883.3333333333334</ele><time>2026-04-25T10:07:36.318Z</time></trkpt><trkpt lat="44.1039811" lon="11.2800629"><ele>884.0</ele><time>2026-04-25T10:07:37.314Z</time></trkpt><trkpt lat="44.1040955" lon="11.280225"><ele>884.0</ele><time>2026-04-25T10:07:38.321Z</time></trkpt><trkpt lat="44.104214" lon="11.2803851"><ele>884.0</ele><time>2026-04-25T10:07:39.329Z</time></trkpt><trkpt lat="44.1043369" lon="11.2805393"><ele>884.0</ele><time>2026-04-25T10:07:40.326Z</time></trkpt><trkpt lat="44.1044649" lon="11.2807078"><ele>882.0</ele><time>2026-04-25T10:07:41.324Z</time></trkpt><trkpt lat="44.1046005" lon="11.280877"><ele>880.0</ele><time>2026-04-25T10:07:42.34Z</time></trkpt><trkpt lat="44.1047319" lon="11.2810435"><ele>878.0</ele><time>2026-04-25T10:07:43.324Z</time></trkpt><trkpt lat="44.1048615" lon="11.2812137"><ele>878.6666666666667</ele><time>2026-04-25T10:07:44.326Z</time></trkpt><trkpt lat="44.1049937" lon="11.2813934"><ele>879.3333333333333</ele><time>2026-04-25T10:07:45.333Z</time></trkpt><trkpt lat="44.1051315" lon="11.2815791"><ele>880.0</ele><time>2026-04-25T10:07:46.313Z</time></trkpt><trkpt lat="44.1052716" lon="11.2817727"><ele>880.0</ele><time>2026-04-25T10:07:47.318Z</time></trkpt><trkpt lat="44.1054172" lon="11.281974"><ele>880.0</ele><time>2026-04-25T10:07:48.321Z</time></trkpt><trkpt lat="44.1055588" lon="11.2821758"><ele>880.0</ele><time>2026-04-25T10:07:49.319Z</time></trkpt><trkpt lat="44.1056921" lon="11.2823691"><ele>879.6666666666666</ele><time>2026-04-25T10:07:50.323Z</time></trkpt><trkpt lat="44.1058194" lon="11.282565"><ele>879.3333333333333</ele><time>2026-04-25T10:07:51.313Z</time></trkpt><trkpt lat="44.1059374" lon="11.2827621"><ele>879.0</ele><time>2026-04-25T10:07:52.305Z</time></trkpt><trkpt lat="44.106048" lon="11.2829559"><ele>875.6666666666667</ele><time>2026-04-25T10:07:53.315Z</time></trkpt><trkpt lat="44.1061442" lon="11.2831353"><ele>872.3333333333334</ele><time>2026-04-25T10:07:54.31Z</time></trkpt><trkpt lat="44.1062467" lon="11.2833062"><ele>869.0</ele><time>2026-04-25T10:07:55.333Z</time></trkpt><trkpt lat="44.1063577" lon="11.2834593"><ele>869.0</ele><time>2026-04-25T10:07:56.32Z</time></trkpt><trkpt lat="44.1064737" lon="11.2835911"><ele>869.0</ele><time>2026-04-25T10:07:57.326Z</time></trkpt><trkpt lat="44.106602" lon="11.2837025"><ele>869.0</ele><time>2026-04-25T10:07:58.308Z</time></trkpt><trkpt lat="44.106741" lon="11.2837683"><ele>869.0</ele><time>2026-04-25T10:07:59.318Z</time></trkpt><trkpt lat="44.1068798" lon="11.2838164"><ele>871.0</ele><time>2026-04-25T10:08:00.323Z</time></trkpt><trkpt lat="44.1070321" lon="11.2838333"><ele>873.0</ele><time>2026-04-25T10:08:01.327Z</time></trkpt><trkpt lat="44.1071888" lon="11.2838388"><ele>875.0</ele><time>2026-04-25T10:08:02.331Z</time></trkpt><trkpt lat="44.1073465" lon="11.2838317"><ele>875.0</ele><time>2026-04-25T10:08:03.304Z</time></trkpt><trkpt lat="44.1075032" lon="11.2838171"><ele>875.0</ele><time>2026-04-25T10:08:04.324Z</time></trkpt><trkpt lat="44.1076579" lon="11.2838052"><ele>875.0</ele><time>2026-04-25T10:08:05.308Z</time></trkpt><trkpt lat="44.1078022" lon="11.2838015"><ele>875.0</ele><time>2026-04-25T10:08:06.328Z</time></trkpt><trkpt lat="44.1079494" lon="11.2837911"><ele>875.0</ele><time>2026-04-25T10:08:07.327Z</time></trkpt><trkpt lat="44.1080975" lon="11.2837596"><ele>875.0</ele><time>2026-04-25T10:08:08.317Z</time></trkpt><trkpt lat="44.108244" lon="11.2837003"><ele>871.3333333333334</ele><time>2026-04-25T10:08:09.321Z</time></trkpt><trkpt lat="44.1083934" lon="11.2836192"><ele>867.6666666666667</ele><time>2026-04-25T10:08:10.314Z</time></trkpt><trkpt lat="44.1085461" lon="11.2835358"><ele>864.0</ele><time>2026-04-25T10:08:11.329Z</time></trkpt><trkpt lat="44.1087075" lon="11.2834849"><ele>864.0</ele><time>2026-04-25T10:08:12.342Z</time></trkpt><trkpt lat="44.1088713" lon="11.2834799"><ele>864.0</ele><time>2026-04-25T10:08:13.325Z</time></trkpt><trkpt lat="44.1090306" lon="11.2834785"><ele>864.0</ele><time>2026-04-25T10:08:14.325Z</time></trkpt><trkpt lat="44.109178" lon="11.2834992"><ele>863.0</ele><time>2026-04-25T10:08:15.319Z</time></trkpt><trkpt lat="44.1093123" lon="11.2835285"><ele>862.0</ele><time>2026-04-25T10:08:16.323Z</time></trkpt><trkpt lat="44.1094568" lon="11.2835717"><ele>861.0</ele><time>2026-04-25T10:08:17.305Z</time></trkpt><trkpt lat="44.1095983" lon="11.2836185"><ele>860.0</ele><time>2026-04-25T10:08:18.322Z</time></trkpt><trkpt lat="44.1097462" lon="11.2836737"><ele>860.0</ele><time>2026-04-25T10:08:19.323Z</time></trkpt><trkpt lat="44.1099018" lon="11.2837618"><ele>860.0</ele><time>2026-04-25T10:08:20.304Z</time></trkpt><trkpt lat="44.110036" lon="11.2838799"><ele>860.0</ele><time>2026-04-25T10:08:21.293Z</time></trkpt><trkpt lat="44.110177" lon="11.2840049"><ele>857.0</ele><time>2026-04-25T10:08:22.327Z</time></trkpt><trkpt lat="44.1103272" lon="11.284134"><ele>854.0</ele><time>2026-04-25T10:08:23.33Z</time></trkpt><trkpt lat="44.1104767" lon="11.2842604"><ele>851.0</ele><time>2026-04-25T10:08:24.317Z</time></trkpt><trkpt lat="44.1106248" lon="11.2843837"><ele>851.6666666666667</ele><time>2026-04-25T10:08:25.303Z</time></trkpt><trkpt lat="44.110767" lon="11.284502"><ele>852.3333333333333</ele><time>2026-04-25T10:08:26.326Z</time></trkpt><trkpt lat="44.1109048" lon="11.2846103"><ele>853.0</ele><time>2026-04-25T10:08:27.327Z</time></trkpt><trkpt lat="44.1110373" lon="11.2847245"><ele>851.25</ele><time>2026-04-25T10:08:28.314Z</time></trkpt><trkpt lat="44.1111613" lon="11.2848338"><ele>849.5</ele><time>2026-04-25T10:08:29.32Z</time></trkpt><trkpt lat="44.1112858" lon="11.2849276"><ele>847.75</ele><time>2026-04-25T10:08:30.32Z</time></trkpt><trkpt lat="44.1114108" lon="11.28501"><ele>846.0</ele><time>2026-04-25T10:08:31.319Z</time></trkpt><trkpt lat="44.1115498" lon="11.2850583"><ele>848.0</ele><time>2026-04-25T10:08:32.321Z</time></trkpt><trkpt lat="44.1117037" lon="11.2850696"><ele>850.0</ele><time>2026-04-25T10:08:33.313Z</time></trkpt><trkpt lat="44.1118558" lon="11.28508"><ele>852.0</ele><time>2026-04-25T10:08:34.317Z</time></trkpt><trkpt lat="44.112179" lon="11.2851111"><ele>852.0</ele><time>2026-04-25T10:08:36.309Z</time></trkpt><trkpt lat="44.1123362" lon="11.2851365"><ele>852.0</ele><time>2026-04-25T10:08:37.317Z</time></trkpt><trkpt lat="44.1124907" lon="11.2851853"><ele>852.0</ele><time>2026-04-25T10:08:38.327Z</time></trkpt><trkpt lat="44.1126401" lon="11.2852773"><ele>851.3333333333333</ele><time>2026-04-25T10:08:39.327Z</time></trkpt><trkpt lat="44.1127968" lon="11.2853633"><ele>850.6666666666666</ele><time>2026-04-25T10:08:40.331Z</time></trkpt><trkpt lat="44.1129456" lon="11.2854839"><ele>850.0</ele><time>2026-04-25T10:08:41.311Z</time></trkpt><trkpt lat="44.1131075" lon="11.2855977"><ele>850.3333333333333</ele><time>2026-04-25T10:08:42.332Z</time></trkpt><trkpt lat="44.1132616" lon="11.2857171"><ele>850.6666666666667</ele><time>2026-04-25T10:08:43.325Z</time></trkpt><trkpt lat="44.1134182" lon="11.2858355"><ele>851.0</ele><time>2026-04-25T10:08:44.305Z</time></trkpt><trkpt lat="44.1135725" lon="11.2859523"><ele>851.0</ele><time>2026-04-25T10:08:45.307Z</time></trkpt><trkpt lat="44.1137245" lon="11.2860511"><ele>851.0</ele><time>2026-04-25T10:08:46.318Z</time></trkpt><trkpt lat="44.1138681" lon="11.2861533"><ele>851.0</ele><time>2026-04-25T10:08:47.306Z</time></trkpt><trkpt lat="44.1140162" lon="11.2862432"><ele>853.3333333333334</ele><time>2026-04-25T10:08:48.304Z</time></trkpt><trkpt lat="44.1141747" lon="11.2863218"><ele>855.6666666666667</ele><time>2026-04-25T10:08:49.309Z</time></trkpt><trkpt lat="44.1143358" lon="11.2863814"><ele>858.0</ele><time>2026-04-25T10:08:50.333Z</time></trkpt><trkpt lat="44.1145027" lon="11.2864293"><ele>858.0</ele><time>2026-04-25T10:08:51.326Z</time></trkpt><trkpt lat="44.1146666" lon="11.2864753"><ele>858.0</ele><time>2026-04-25T10:08:52.324Z</time></trkpt><trkpt lat="44.1148251" lon="11.2865192"><ele>858.0</ele><time>2026-04-25T10:08:53.339Z</time></trkpt><trkpt lat="44.1149861" lon="11.2866054"><ele>859.3333333333333</ele><time>2026-04-25T10:08:54.336Z</time></trkpt><trkpt lat="44.1151296" lon="11.2867365"><ele>860.6666666666666</ele><time>2026-04-25T10:08:55.322Z</time></trkpt><trkpt lat="44.1152461" lon="11.2869268"><ele>862.0</ele><time>2026-04-25T10:08:56.298Z</time></trkpt><trkpt lat="44.1153395" lon="11.287144"><ele>859.6666666666666</ele><time>2026-04-25T10:08:57.31Z</time></trkpt><trkpt lat="44.1154156" lon="11.2873803"><ele>857.3333333333333</ele><time>2026-04-25T10:08:58.304Z</time></trkpt><trkpt lat="44.1154828" lon="11.2876047"><ele>855.0</ele><time>2026-04-25T10:08:59.318Z</time></trkpt><trkpt lat="44.1155462" lon="11.2878169"><ele>855.0</ele><time>2026-04-25T10:09:00.311Z</time></trkpt><trkpt lat="44.1156205" lon="11.2880072"><ele>855.0</ele><time>2026-04-25T10:09:01.3Z</time></trkpt><trkpt lat="44.1157164" lon="11.288164"><ele>855.0</ele><time>2026-04-25T10:09:02.328Z</time></trkpt><trkpt lat="44.1158404" lon="11.2882925"><ele>857.3333333333333</ele><time>2026-04-25T10:09:03.316Z</time></trkpt><trkpt lat="44.1159916" lon="11.2883709"><ele>859.6666666666666</ele><time>2026-04-25T10:09:04.317Z</time></trkpt><trkpt lat="44.1161464" lon="11.2883853"><ele>862.0</ele><time>2026-04-25T10:09:05.308Z</time></trkpt><trkpt lat="44.1162814" lon="11.2883585"><ele>862.0</ele><time>2026-04-25T10:09:06.308Z</time></trkpt><trkpt lat="44.1163995" lon="11.288265"><ele>862.0</ele><time>2026-04-25T10:09:07.321Z</time></trkpt><trkpt lat="44.1164927" lon="11.2881011"><ele>862.0</ele><time>2026-04-25T10:09:08.32Z</time></trkpt><trkpt lat="44.116579" lon="11.2879108"><ele>862.0</ele><time>2026-04-25T10:09:09.33Z</time></trkpt><trkpt lat="44.1166482" lon="11.2876857"><ele>863.0</ele><time>2026-04-25T10:09:10.325Z</time></trkpt><trkpt lat="44.116719" lon="11.2874455"><ele>864.0</ele><time>2026-04-25T10:09:11.332Z</time></trkpt><trkpt lat="44.1167813" lon="11.2872244"><ele>865.0</ele><time>2026-04-25T10:09:12.34Z</time></trkpt><trkpt lat="44.1168492" lon="11.2870363"><ele>868.25</ele><time>2026-04-25T10:09:13.328Z</time></trkpt><trkpt lat="44.1169135" lon="11.2868839"><ele>871.5</ele><time>2026-04-25T10:09:14.313Z</time></trkpt><trkpt lat="44.1169929" lon="11.2867641"><ele>874.75</ele><time>2026-04-25T10:09:15.321Z</time></trkpt><trkpt lat="44.1171047" lon="11.2866796"><ele>878.0</ele><time>2026-04-25T10:09:16.322Z</time></trkpt><trkpt lat="44.1172316" lon="11.2866773"><ele>878.0</ele><time>2026-04-25T10:09:17.342Z</time></trkpt><trkpt lat="44.1173421" lon="11.286745"><ele>878.0</ele><time>2026-04-25T10:09:18.33Z</time></trkpt><trkpt lat="44.1174325" lon="11.2868619"><ele>878.0</ele><time>2026-04-25T10:09:19.32Z</time></trkpt><trkpt lat="44.1175044" lon="11.2870482"><ele>878.0</ele><time>2026-04-25T10:09:20.312Z</time></trkpt><trkpt lat="44.1175442" lon="11.2872709"><ele>872.0</ele><time>2026-04-25T10:09:21.318Z</time></trkpt><trkpt lat="44.1175787" lon="11.2874973"><ele>866.0</ele><time>2026-04-25T10:09:22.322Z</time></trkpt><trkpt lat="44.1176037" lon="11.2877169"><ele>860.0</ele><time>2026-04-25T10:09:23.323Z</time></trkpt><trkpt lat="44.1176389" lon="11.287915"><ele>859.75</ele><time>2026-04-25T10:09:24.328Z</time></trkpt><trkpt lat="44.1176996" lon="11.2881076"><ele>859.5</ele><time>2026-04-25T10:09:25.332Z</time></trkpt><trkpt lat="44.1177819" lon="11.2882614"><ele>859.25</ele><time>2026-04-25T10:09:26.314Z</time></trkpt><trkpt lat="44.1178922" lon="11.2883904"><ele>859.0</ele><time>2026-04-25T10:09:27.33Z</time></trkpt><trkpt lat="44.118001" lon="11.2885029"><ele>859.0</ele><time>2026-04-25T10:09:28.325Z</time></trkpt><trkpt lat="44.1181148" lon="11.2886138"><ele>859.0</ele><time>2026-04-25T10:09:29.318Z</time></trkpt><trkpt lat="44.1182373" lon="11.2887307"><ele>859.0</ele><time>2026-04-25T10:09:30.323Z</time></trkpt><trkpt lat="44.1183751" lon="11.2888459"><ele>859.0</ele><time>2026-04-25T10:09:31.328Z</time></trkpt><trkpt lat="44.1185133" lon="11.2889615"><ele>861.5</ele><time>2026-04-25T10:09:32.32Z</time></trkpt><trkpt lat="44.1186414" lon="11.2890689"><ele>864.0</ele><time>2026-04-25T10:09:33.337Z</time></trkpt><trkpt lat="44.118766" lon="11.2891748"><ele>866.5</ele><time>2026-04-25T10:09:34.306Z</time></trkpt><trkpt lat="44.1188842" lon="11.2892751"><ele>869.0</ele><time>2026-04-25T10:09:35.317Z</time></trkpt><trkpt lat="44.1189844" lon="11.2893783"><ele>869.25</ele><time>2026-04-25T10:09:36.322Z</time></trkpt><trkpt lat="44.1190883" lon="11.2894986"><ele>869.5</ele><time>2026-04-25T10:09:37.311Z</time></trkpt><trkpt lat="44.1191472" lon="11.2896807"><ele>869.75</ele><time>2026-04-25T10:09:38.32Z</time></trkpt><trkpt lat="44.1191697" lon="11.2899088"><ele>870.0</ele><time>2026-04-25T10:09:39.322Z</time></trkpt><trkpt lat="44.119174" lon="11.2901539"><ele>870.0</ele><time>2026-04-25T10:09:40.308Z</time></trkpt><trkpt lat="44.1191738" lon="11.29042"><ele>870.0</ele><time>2026-04-25T10:09:41.31Z</time></trkpt><trkpt lat="44.1191742" lon="11.2907123"><ele>870.0</ele><time>2026-04-25T10:09:42.313Z</time></trkpt><trkpt lat="44.1191742" lon="11.2909983"><ele>868.0</ele><time>2026-04-25T10:09:43.32Z</time></trkpt><trkpt lat="44.1191719" lon="11.2912732"><ele>866.0</ele><time>2026-04-25T10:09:44.323Z</time></trkpt><trkpt lat="44.1191726" lon="11.291532"><ele>864.0</ele><time>2026-04-25T10:09:45.322Z</time></trkpt><trkpt lat="44.1192011" lon="11.2917949"><ele>863.3333333333333</ele><time>2026-04-25T10:09:46.312Z</time></trkpt><trkpt lat="44.119253" lon="11.2920431"><ele>862.6666666666666</ele><time>2026-04-25T10:09:47.319Z</time></trkpt><trkpt lat="44.1193297" lon="11.2922573"><ele>862.0</ele><time>2026-04-25T10:09:48.325Z</time></trkpt><trkpt lat="44.1194248" lon="11.2924489"><ele>861.3333333333333</ele><time>2026-04-25T10:09:49.329Z</time></trkpt><trkpt lat="44.1195493" lon="11.2926087"><ele>860.6666666666667</ele><time>2026-04-25T10:09:50.31Z</time></trkpt><trkpt lat="44.119692" lon="11.292765"><ele>860.0</ele><time>2026-04-25T10:09:51.315Z</time></trkpt><trkpt lat="44.1198429" lon="11.2929484"><ele>860.3333333333334</ele><time>2026-04-25T10:09:52.322Z</time></trkpt><trkpt lat="44.1199982" lon="11.2931379"><ele>860.6666666666667</ele><time>2026-04-25T10:09:53.317Z</time></trkpt><trkpt lat="44.12016" lon="11.2933287"><ele>861.0</ele><time>2026-04-25T10:09:54.326Z</time></trkpt><trkpt lat="44.1203123" lon="11.2935123"><ele>861.0</ele><time>2026-04-25T10:09:55.331Z</time></trkpt><trkpt lat="44.1204585" lon="11.2936861"><ele>861.0</ele><time>2026-04-25T10:09:56.308Z</time></trkpt><trkpt lat="44.1205881" lon="11.293867"><ele>861.0</ele><time>2026-04-25T10:09:57.321Z</time></trkpt><trkpt lat="44.1207061" lon="11.2940677"><ele>864.3333333333333</ele><time>2026-04-25T10:09:58.31Z</time></trkpt><trkpt lat="44.1207972" lon="11.294287"><ele>867.6666666666666</ele><time>2026-04-25T10:09:59.318Z</time></trkpt><trkpt lat="44.1208785" lon="11.2945061"><ele>871.0</ele><time>2026-04-25T10:10:00.327Z</time></trkpt><trkpt lat="44.1209647" lon="11.294726"><ele>869.3333333333333</ele><time>2026-04-25T10:10:01.304Z</time></trkpt><trkpt lat="44.1210676" lon="11.2949389"><ele>867.6666666666667</ele><time>2026-04-25T10:10:02.299Z</time></trkpt><trkpt lat="44.1211747" lon="11.2951439"><ele>866.0</ele><time>2026-04-25T10:10:03.321Z</time></trkpt><trkpt lat="44.1212828" lon="11.2953434"><ele>866.0</ele><time>2026-04-25T10:10:04.312Z</time></trkpt><trkpt lat="44.1213904" lon="11.295527"><ele>866.0</ele><time>2026-04-25T10:10:05.322Z</time></trkpt><trkpt lat="44.1215023" lon="11.2956753"><ele>866.0</ele><time>2026-04-25T10:10:06.312Z</time></trkpt><trkpt lat="44.1216286" lon="11.2957631"><ele>871.0</ele><time>2026-04-25T10:10:07.302Z</time></trkpt><trkpt lat="44.1217595" lon="11.2958325"><ele>876.0</ele><time>2026-04-25T10:10:08.323Z</time></trkpt><trkpt lat="44.1218855" lon="11.2959161"><ele>881.0</ele><time>2026-04-25T10:10:09.332Z</time></trkpt><trkpt lat="44.1219899" lon="11.2960534"><ele>886.0</ele><time>2026-04-25T10:10:10.313Z</time></trkpt><trkpt lat="44.1220361" lon="11.2962747"><ele>885.0</ele><time>2026-04-25T10:10:11.323Z</time></trkpt><trkpt lat="44.1220356" lon="11.2965073"><ele>884.0</ele><time>2026-04-25T10:10:12.32Z</time></trkpt><trkpt lat="44.1220141" lon="11.2967502"><ele>883.0</ele><time>2026-04-25T10:10:13.307Z</time></trkpt><trkpt lat="44.1219966" lon="11.2969953"><ele>883.0</ele><time>2026-04-25T10:10:14.322Z</time></trkpt><trkpt lat="44.1219828" lon="11.297246"><ele>883.0</ele><time>2026-04-25T10:10:15.33Z</time></trkpt><trkpt lat="44.1219694" lon="11.2974979"><ele>883.0</ele><time>2026-04-25T10:10:16.343Z</time></trkpt><trkpt lat="44.1219553" lon="11.2977471"><ele>883.6666666666666</ele><time>2026-04-25T10:10:17.316Z</time></trkpt><trkpt lat="44.1219508" lon="11.2979961"><ele>884.3333333333333</ele><time>2026-04-25T10:10:18.305Z</time></trkpt><trkpt lat="44.1219661" lon="11.2982411"><ele>885.0</ele><time>2026-04-25T10:10:19.322Z</time></trkpt><trkpt lat="44.1219952" lon="11.2984799"><ele>885.0</ele><time>2026-04-25T10:10:20.303Z</time></trkpt><trkpt lat="44.1220443" lon="11.2987067"><ele>885.0</ele><time>2026-04-25T10:10:21.29Z</time></trkpt><trkpt lat="44.1221254" lon="11.2989472"><ele>885.0</ele><time>2026-04-25T10:10:22.32Z</time></trkpt><trkpt lat="44.1222204" lon="11.2991798"><ele>884.3333333333333</ele><time>2026-04-25T10:10:23.332Z</time></trkpt><trkpt lat="44.1223229" lon="11.2994137"><ele>883.6666666666666</ele><time>2026-04-25T10:10:24.312Z</time></trkpt><trkpt lat="44.1224245" lon="11.2996577"><ele>883.0</ele><time>2026-04-25T10:10:25.328Z</time></trkpt><trkpt lat="44.1225239" lon="11.2998998"><ele>888.3333333333333</ele><time>2026-04-25T10:10:26.32Z</time></trkpt><trkpt lat="44.1226176" lon="11.3001263"><ele>893.6666666666667</ele><time>2026-04-25T10:10:27.319Z</time></trkpt><trkpt lat="44.1227072" lon="11.3003305"><ele>899.0</ele><time>2026-04-25T10:10:28.33Z</time></trkpt><trkpt lat="44.1228193" lon="11.3004899"><ele>899.0</ele><time>2026-04-25T10:10:29.309Z</time></trkpt><trkpt lat="44.1229529" lon="11.3006099"><ele>899.0</ele><time>2026-04-25T10:10:30.324Z</time></trkpt><trkpt lat="44.1231184" lon="11.3006928"><ele>899.0</ele><time>2026-04-25T10:10:31.366Z</time></trkpt><trkpt lat="44.1232948" lon="11.3007491"><ele>904.0</ele><time>2026-04-25T10:10:32.292Z</time></trkpt><trkpt lat="44.1234842" lon="11.3007826"><ele>909.0</ele><time>2026-04-25T10:10:33.315Z</time></trkpt><trkpt lat="44.1236753" lon="11.3008232"><ele>914.0</ele><time>2026-04-25T10:10:34.328Z</time></trkpt><trkpt lat="44.1238541" lon="11.3008609"><ele>914.0</ele><time>2026-04-25T10:10:35.304Z</time></trkpt><trkpt lat="44.1240331" lon="11.3008528"><ele>914.0</ele><time>2026-04-25T10:10:36.312Z</time></trkpt><trkpt lat="44.124217" lon="11.3007819"><ele>914.0</ele><time>2026-04-25T10:10:37.315Z</time></trkpt><trkpt lat="44.1243983" lon="11.3007004"><ele>913.6666666666667</ele><time>2026-04-25T10:10:38.321Z</time></trkpt><trkpt lat="44.1245824" lon="11.3006209"><ele>913.3333333333333</ele><time>2026-04-25T10:10:39.323Z</time></trkpt><trkpt lat="44.1247704" lon="11.3005761"><ele>913.0</ele><time>2026-04-25T10:10:40.305Z</time></trkpt><trkpt lat="44.1249774" lon="11.3005763"><ele>912.6666666666666</ele><time>2026-04-25T10:10:41.319Z</time></trkpt><trkpt lat="44.1251769" lon="11.3005964"><ele>912.3333333333333</ele><time>2026-04-25T10:10:42.33Z</time></trkpt><trkpt lat="44.1253776" lon="11.3006228"><ele>912.0</ele><time>2026-04-25T10:10:43.308Z</time></trkpt><trkpt lat="44.1255867" lon="11.3006528"><ele>914.6666666666667</ele><time>2026-04-25T10:10:44.31Z</time></trkpt><trkpt lat="44.1257959" lon="11.3006737"><ele>917.3333333333334</ele><time>2026-04-25T10:10:45.327Z</time></trkpt><trkpt lat="44.126003" lon="11.3007009"><ele>920.0</ele><time>2026-04-25T10:10:46.327Z</time></trkpt><trkpt lat="44.1262127" lon="11.3007531"><ele>920.0</ele><time>2026-04-25T10:10:47.32Z</time></trkpt><trkpt lat="44.1264163" lon="11.300836"><ele>920.0</ele><time>2026-04-25T10:10:48.31Z</time></trkpt><trkpt lat="44.1266088" lon="11.3009548"><ele>920.0</ele><time>2026-04-25T10:10:49.324Z</time></trkpt><trkpt lat="44.1267845" lon="11.3011096"><ele>918.6666666666667</ele><time>2026-04-25T10:10:50.314Z</time></trkpt><trkpt lat="44.1269504" lon="11.3012671"><ele>917.3333333333333</ele><time>2026-04-25T10:10:51.323Z</time></trkpt><trkpt lat="44.1271143" lon="11.3014486"><ele>916.0</ele><time>2026-04-25T10:10:52.325Z</time></trkpt><trkpt lat="44.1272695" lon="11.3016487"><ele>920.6666666666666</ele><time>2026-04-25T10:10:53.314Z</time></trkpt><trkpt lat="44.1274358" lon="11.3018252"><ele>925.3333333333333</ele><time>2026-04-25T10:10:54.308Z</time></trkpt><trkpt lat="44.1276073" lon="11.3019849"><ele>930.0</ele><time>2026-04-25T10:10:55.313Z</time></trkpt><trkpt lat="44.1277913" lon="11.3021229"><ele>930.0</ele><time>2026-04-25T10:10:56.323Z</time></trkpt><trkpt lat="44.1279885" lon="11.3022431"><ele>930.0</ele><time>2026-04-25T10:10:57.319Z</time></trkpt><trkpt lat="44.1281871" lon="11.3023479"><ele>930.0</ele><time>2026-04-25T10:10:58.32Z</time></trkpt><trkpt lat="44.1283776" lon="11.3024653"><ele>928.3333333333333</ele><time>2026-04-25T10:10:59.313Z</time></trkpt><trkpt lat="44.1285665" lon="11.3025916"><ele>926.6666666666666</ele><time>2026-04-25T10:11:00.31Z</time></trkpt><trkpt lat="44.1287334" lon="11.3027585"><ele>925.0</ele><time>2026-04-25T10:11:01.315Z</time></trkpt><trkpt lat="44.1288658" lon="11.302963"><ele>923.25</ele><time>2026-04-25T10:11:02.323Z</time></trkpt><trkpt lat="44.1289297" lon="11.3031604"><ele>921.5</ele><time>2026-04-25T10:11:03.309Z</time></trkpt><trkpt lat="44.1289649" lon="11.3033471"><ele>919.75</ele><time>2026-04-25T10:11:04.323Z</time></trkpt><trkpt lat="44.1290087" lon="11.3035103"><ele>918.0</ele><time>2026-04-25T10:11:05.323Z</time></trkpt><trkpt lat="44.1290848" lon="11.3036264"><ele>918.0</ele><time>2026-04-25T10:11:06.325Z</time></trkpt><trkpt lat="44.1292112" lon="11.303689"><ele>918.0</ele><time>2026-04-25T10:11:07.332Z</time></trkpt><trkpt lat="44.1293635" lon="11.3036827"><ele>918.0</ele><time>2026-04-25T10:11:08.31Z</time></trkpt><trkpt lat="44.1295334" lon="11.3036849"><ele>918.0</ele><time>2026-04-25T10:11:09.332Z</time></trkpt><trkpt lat="44.1297142" lon="11.3037474"><ele>918.0</ele><time>2026-04-25T10:11:10.327Z</time></trkpt><trkpt lat="44.1298897" lon="11.3038428"><ele>918.0</ele><time>2026-04-25T10:11:11.333Z</time></trkpt><trkpt lat="44.1300528" lon="11.3039436"><ele>910.6666666666667</ele><time>2026-04-25T10:11:12.325Z</time></trkpt><trkpt lat="44.130211" lon="11.3040195"><ele>903.3333333333334</ele><time>2026-04-25T10:11:13.339Z</time></trkpt><trkpt lat="44.1303611" lon="11.3040929"><ele>896.0</ele><time>2026-04-25T10:11:14.31Z</time></trkpt><trkpt lat="44.1305049" lon="11.304141"><ele>896.0</ele><time>2026-04-25T10:11:15.32Z</time></trkpt><trkpt lat="44.1306402" lon="11.3041815"><ele>896.0</ele><time>2026-04-25T10:11:16.316Z</time></trkpt><trkpt lat="44.130776" lon="11.3042281"><ele>896.0</ele><time>2026-04-25T10:11:17.325Z</time></trkpt><trkpt lat="44.1309014" lon="11.3042639"><ele>896.0</ele><time>2026-04-25T10:11:18.283Z</time></trkpt><trkpt lat="44.1310224" lon="11.3042956"><ele>897.1999999999999</ele><time>2026-04-25T10:11:19.293Z</time></trkpt><trkpt lat="44.1311286" lon="11.304326"><ele>898.3999999999999</ele><time>2026-04-25T10:11:20.297Z</time></trkpt><trkpt lat="44.1312316" lon="11.3043582"><ele>899.6</ele><time>2026-04-25T10:11:21.325Z</time></trkpt><trkpt lat="44.1313364" lon="11.3043976"><ele>900.8</ele><time>2026-04-25T10:11:22.316Z</time></trkpt><trkpt lat="44.1314446" lon="11.3044498"><ele>902.0</ele><time>2026-04-25T10:11:23.317Z</time></trkpt><trkpt lat="44.1315471" lon="11.3045113"><ele>903.6</ele><time>2026-04-25T10:11:24.317Z</time></trkpt><trkpt lat="44.1316426" lon="11.3045796"><ele>905.2</ele><time>2026-04-25T10:11:25.323Z</time></trkpt><trkpt lat="44.1317338" lon="11.3046619"><ele>906.8</ele><time>2026-04-25T10:11:26.327Z</time></trkpt><trkpt lat="44.1318218" lon="11.3047392"><ele>908.4</ele><time>2026-04-25T10:11:27.325Z</time></trkpt><trkpt lat="44.1319083" lon="11.3048202"><ele>910.0</ele><time>2026-04-25T10:11:28.327Z</time></trkpt><trkpt lat="44.1319973" lon="11.3048952"><ele>907.0</ele><time>2026-04-25T10:11:29.325Z</time></trkpt><trkpt lat="44.1320839" lon="11.304961"><ele>904.0</ele><time>2026-04-25T10:11:30.315Z</time></trkpt><trkpt lat="44.1321702" lon="11.3050178"><ele>901.0</ele><time>2026-04-25T10:11:31.316Z</time></trkpt><trkpt lat="44.1322561" lon="11.3050639"><ele>898.0</ele><time>2026-04-25T10:11:32.326Z</time></trkpt><trkpt lat="44.1323399" lon="11.3051013"><ele>895.0</ele><time>2026-04-25T10:11:33.319Z</time></trkpt><trkpt lat="44.1324204" lon="11.3051235"><ele>895.0</ele><time>2026-04-25T10:11:34.316Z</time></trkpt><trkpt lat="44.1325088" lon="11.3051216"><ele>895.0</ele><time>2026-04-25T10:11:35.318Z</time></trkpt><trkpt lat="44.132609" lon="11.3051118"><ele>895.0</ele><time>2026-04-25T10:11:36.316Z</time></trkpt><trkpt lat="44.1327192" lon="11.3050921"><ele>895.0</ele><time>2026-04-25T10:11:37.323Z</time></trkpt><trkpt lat="44.1328347" lon="11.3050748"><ele>895.0</ele><time>2026-04-25T10:11:38.328Z</time></trkpt><trkpt lat="44.1329447" lon="11.305043"><ele>895.0</ele><time>2026-04-25T10:11:39.321Z</time></trkpt><trkpt lat="44.1330427" lon="11.3050067"><ele>895.0</ele><time>2026-04-25T10:11:40.343Z</time></trkpt><trkpt lat="44.1331399" lon="11.3049705"><ele>895.0</ele><time>2026-04-25T10:11:41.329Z</time></trkpt><trkpt lat="44.1332261" lon="11.3049306"><ele>895.0</ele><time>2026-04-25T10:11:42.317Z</time></trkpt><trkpt lat="44.1333131" lon="11.3048769"><ele>895.0</ele><time>2026-04-25T10:11:43.321Z</time></trkpt><trkpt lat="44.1333907" lon="11.3048195"><ele>893.6</ele><time>2026-04-25T10:11:44.315Z</time></trkpt><trkpt lat="44.1334518" lon="11.3047676"><ele>892.2</ele><time>2026-04-25T10:11:45.32Z</time></trkpt><trkpt lat="44.1335124" lon="11.3047259"><ele>890.8</ele><time>2026-04-25T10:11:46.315Z</time></trkpt><trkpt lat="44.1336203" lon="11.3046982"><ele>889.4</ele><time>2026-04-25T10:11:48.316Z</time></trkpt><trkpt lat="44.1337266" lon="11.3047667"><ele>888.0</ele><time>2026-04-25T10:11:50.32Z</time></trkpt><trkpt lat="44.1337818" lon="11.304857"><ele>888.0</ele><time>2026-04-25T10:11:51.325Z</time></trkpt><trkpt lat="44.1338204" lon="11.3049713"><ele>888.0</ele><time>2026-04-25T10:11:52.316Z</time></trkpt><trkpt lat="44.1338511" lon="11.3051012"><ele>888.0</ele><time>2026-04-25T10:11:53.319Z</time></trkpt><trkpt lat="44.1338647" lon="11.3052249"><ele>888.0</ele><time>2026-04-25T10:11:54.327Z</time></trkpt><trkpt lat="44.1338703" lon="11.3053477"><ele>888.0</ele><time>2026-04-25T10:11:55.311Z</time></trkpt><trkpt lat="44.1339053" lon="11.3054579"><ele>888.0</ele><time>2026-04-25T10:11:56.301Z</time></trkpt><trkpt lat="44.1339805" lon="11.3055584"><ele>888.0</ele><time>2026-04-25T10:11:57.325Z</time></trkpt><trkpt lat="44.1340642" lon="11.3056415"><ele>888.0</ele><time>2026-04-25T10:11:58.321Z</time></trkpt><trkpt lat="44.1341434" lon="11.3057193"><ele>888.0</ele><time>2026-04-25T10:11:59.31Z</time></trkpt><trkpt lat="44.1342217" lon="11.3058032"><ele>888.0</ele><time>2026-04-25T10:12:00.317Z</time></trkpt><trkpt lat="44.1343119" lon="11.3058852"><ele>883.75</ele><time>2026-04-25T10:12:01.323Z</time></trkpt><trkpt lat="44.1344064" lon="11.3059474"><ele>879.5</ele><time>2026-04-25T10:12:02.323Z</time></trkpt><trkpt lat="44.1345149" lon="11.3059949"><ele>875.25</ele><time>2026-04-25T10:12:03.334Z</time></trkpt><trkpt lat="44.1346363" lon="11.3060449"><ele>871.0</ele><time>2026-04-25T10:12:04.316Z</time></trkpt><trkpt lat="44.1347587" lon="11.3060765"><ele>871.0</ele><time>2026-04-25T10:12:05.315Z</time></trkpt><trkpt lat="44.1348796" lon="11.3061099"><ele>870.9999999999999</ele><time>2026-04-25T10:12:06.307Z</time></trkpt><trkpt lat="44.1349925" lon="11.3061409"><ele>870.9999999999999</ele><time>2026-04-25T10:12:07.317Z</time></trkpt><trkpt lat="44.1350948" lon="11.3061753"><ele>871.0</ele><time>2026-04-25T10:12:08.301Z</time></trkpt><trkpt lat="44.1351963" lon="11.306196"><ele>871.0</ele><time>2026-04-25T10:12:09.316Z</time></trkpt><trkpt lat="44.1352981" lon="11.3062203"><ele>869.4</ele><time>2026-04-25T10:12:10.312Z</time></trkpt><trkpt lat="44.1354014" lon="11.306242"><ele>867.8</ele><time>2026-04-25T10:12:11.304Z</time></trkpt><trkpt lat="44.1354992" lon="11.3062686"><ele>866.1999999999999</ele><time>2026-04-25T10:12:12.297Z</time></trkpt><trkpt lat="44.1356004" lon="11.3063071"><ele>864.5999999999999</ele><time>2026-04-25T10:12:13.314Z</time></trkpt><trkpt lat="44.135704" lon="11.3063634"><ele>863.0</ele><time>2026-04-25T10:12:14.311Z</time></trkpt><trkpt lat="44.1357983" lon="11.3064614"><ele>863.0</ele><time>2026-04-25T10:12:15.338Z</time></trkpt><trkpt lat="44.1358851" lon="11.3065737"><ele>863.0</ele><time>2026-04-25T10:12:16.318Z</time></trkpt><trkpt lat="44.1359625" lon="11.3066757"><ele>863.0</ele><time>2026-04-25T10:12:17.301Z</time></trkpt><trkpt lat="44.1360321" lon="11.3067795"><ele>863.0</ele><time>2026-04-25T10:12:18.328Z</time></trkpt><trkpt lat="44.1360926" lon="11.3068999"><ele>863.0</ele><time>2026-04-25T10:12:19.309Z</time></trkpt><trkpt lat="44.1361444" lon="11.3070285"><ele>863.0</ele><time>2026-04-25T10:12:20.319Z</time></trkpt><trkpt lat="44.1361795" lon="11.3071683"><ele>863.0</ele><time>2026-04-25T10:12:21.314Z</time></trkpt><trkpt lat="44.136212" lon="11.3073035"><ele>863.0</ele><time>2026-04-25T10:12:22.317Z</time></trkpt><trkpt lat="44.1362416" lon="11.3074351"><ele>863.0</ele><time>2026-04-25T10:12:23.313Z</time></trkpt><trkpt lat="44.1362733" lon="11.3075576"><ele>863.0</ele><time>2026-04-25T10:12:24.313Z</time></trkpt><trkpt lat="44.136312" lon="11.3076688"><ele>862.2</ele><time>2026-04-25T10:12:25.315Z</time></trkpt><trkpt lat="44.1363565" lon="11.3077858"><ele>861.4</ele><time>2026-04-25T10:12:26.315Z</time></trkpt><trkpt lat="44.1364041" lon="11.3078903"><ele>860.6000000000001</ele><time>2026-04-25T10:12:27.317Z</time></trkpt><trkpt lat="44.1364555" lon="11.3079937"><ele>859.8000000000001</ele><time>2026-04-25T10:12:28.314Z</time></trkpt><trkpt lat="44.1365118" lon="11.308098"><ele>859.0</ele><time>2026-04-25T10:12:29.323Z</time></trkpt><trkpt lat="44.1365692" lon="11.3081987"><ele>859.0</ele><time>2026-04-25T10:12:30.318Z</time></trkpt><trkpt lat="44.1366293" lon="11.3082863"><ele>859.0</ele><time>2026-04-25T10:12:31.321Z</time></trkpt><trkpt lat="44.1367071" lon="11.3083651"><ele>859.0</ele><time>2026-04-25T10:12:32.321Z</time></trkpt><trkpt lat="44.1368135" lon="11.3084478"><ele>859.0</ele><time>2026-04-25T10:12:33.327Z</time></trkpt><trkpt lat="44.1369458" lon="11.3085422"><ele>859.0</ele><time>2026-04-25T10:12:34.318Z</time></trkpt><trkpt lat="44.1370912" lon="11.3086432"><ele>859.0</ele><time>2026-04-25T10:12:35.298Z</time></trkpt><trkpt lat="44.1372438" lon="11.3087554"><ele>859.0</ele><time>2026-04-25T10:12:36.32Z</time></trkpt><trkpt lat="44.1373834" lon="11.3088604"><ele>858.2</ele><time>2026-04-25T10:12:37.326Z</time></trkpt><trkpt lat="44.1374998" lon="11.308941"><ele>857.4000000000001</ele><time>2026-04-25T10:12:38.321Z</time></trkpt><trkpt lat="44.1375829" lon="11.3089999"><ele>856.6</ele><time>2026-04-25T10:12:39.331Z</time></trkpt><trkpt lat="44.1376491" lon="11.3090588"><ele>855.8</ele><time>2026-04-25T10:12:40.326Z</time></trkpt><trkpt lat="44.1377149" lon="11.3091156"><ele>855.0</ele><time>2026-04-25T10:12:41.319Z</time></trkpt><trkpt lat="44.1377724" lon="11.3091871"><ele>855.0</ele><time>2026-04-25T10:12:42.301Z</time></trkpt><trkpt lat="44.1378079" lon="11.3092702"><ele>855.0</ele><time>2026-04-25T10:12:43.324Z</time></trkpt><trkpt lat="44.1378434" lon="11.3093808"><ele>855.0</ele><time>2026-04-25T10:12:44.309Z</time></trkpt><trkpt lat="44.1378831" lon="11.3095058"><ele>855.0</ele><time>2026-04-25T10:12:45.332Z</time></trkpt><trkpt lat="44.1379293" lon="11.3096824"><ele>855.0</ele><time>2026-04-25T10:12:46.32Z</time></trkpt><trkpt lat="44.1379761" lon="11.3098737"><ele>853.6666666666667</ele><time>2026-04-25T10:12:47.328Z</time></trkpt><trkpt lat="44.1380201" lon="11.3100845"><ele>852.3333333333334</ele><time>2026-04-25T10:12:48.319Z</time></trkpt><trkpt lat="44.1380616" lon="11.3102998"><ele>851.0</ele><time>2026-04-25T10:12:49.329Z</time></trkpt><trkpt lat="44.1381152" lon="11.3105063"><ele>850.75</ele><time>2026-04-25T10:12:50.336Z</time></trkpt><trkpt lat="44.138181" lon="11.3106859"><ele>850.5</ele><time>2026-04-25T10:12:51.324Z</time></trkpt><trkpt lat="44.1382504" lon="11.3108761"><ele>850.25</ele><time>2026-04-25T10:12:52.318Z</time></trkpt><trkpt lat="44.1383016" lon="11.3110643"><ele>850.0</ele><time>2026-04-25T10:12:53.32Z</time></trkpt><trkpt lat="44.1383261" lon="11.311258"><ele>850.3333333333333</ele><time>2026-04-25T10:12:54.331Z</time></trkpt><trkpt lat="44.138288" lon="11.3114652"><ele>850.6666666666667</ele><time>2026-04-25T10:12:55.322Z</time></trkpt><trkpt lat="44.1382154" lon="11.3116641"><ele>851.0</ele><time>2026-04-25T10:12:56.337Z</time></trkpt><trkpt lat="44.1381659" lon="11.3118541"><ele>850.5</ele><time>2026-04-25T10:12:57.31Z</time></trkpt><trkpt lat="44.1381425" lon="11.3120504"><ele>850.0</ele><time>2026-04-25T10:12:58.324Z</time></trkpt><trkpt lat="44.1381557" lon="11.312246"><ele>849.5</ele><time>2026-04-25T10:12:59.312Z</time></trkpt><trkpt lat="44.13825" lon="11.3124272"><ele>849.0</ele><time>2026-04-25T10:13:00.315Z</time></trkpt><trkpt lat="44.1383519" lon="11.312564"><ele>846.0</ele><time>2026-04-25T10:13:01.326Z</time></trkpt><trkpt lat="44.1384357" lon="11.3127277"><ele>843.0</ele><time>2026-04-25T10:13:02.334Z</time></trkpt><trkpt lat="44.1384805" lon="11.3129366"><ele>840.0</ele><time>2026-04-25T10:13:03.315Z</time></trkpt><trkpt lat="44.1384698" lon="11.3131645"><ele>838.6666666666667</ele><time>2026-04-25T10:13:04.312Z</time></trkpt><trkpt lat="44.1384247" lon="11.3134166"><ele>837.3333333333334</ele><time>2026-04-25T10:13:05.331Z</time></trkpt><trkpt lat="44.1383883" lon="11.3136894"><ele>836.0</ele><time>2026-04-25T10:13:06.321Z</time></trkpt><trkpt lat="44.1383621" lon="11.3139793"><ele>836.0</ele><time>2026-04-25T10:13:07.327Z</time></trkpt><trkpt lat="44.1383476" lon="11.3142827"><ele>836.0</ele><time>2026-04-25T10:13:08.321Z</time></trkpt><trkpt lat="44.138348" lon="11.3145872"><ele>836.0</ele><time>2026-04-25T10:13:09.332Z</time></trkpt><trkpt lat="44.1383602" lon="11.3148922"><ele>836.3333333333334</ele><time>2026-04-25T10:13:10.304Z</time></trkpt><trkpt lat="44.1383766" lon="11.315195"><ele>836.6666666666667</ele><time>2026-04-25T10:13:11.325Z</time></trkpt><trkpt lat="44.1383982" lon="11.3154905"><ele>837.0</ele><time>2026-04-25T10:13:12.332Z</time></trkpt><trkpt lat="44.1384221" lon="11.315765"><ele>836.0</ele><time>2026-04-25T10:13:13.335Z</time></trkpt><trkpt lat="44.138448" lon="11.3160137"><ele>835.0</ele><time>2026-04-25T10:13:14.333Z</time></trkpt><trkpt lat="44.1384756" lon="11.3162617"><ele>834.0</ele><time>2026-04-25T10:13:15.323Z</time></trkpt><trkpt lat="44.1385252" lon="11.3165031"><ele>833.3333333333333</ele><time>2026-04-25T10:13:16.325Z</time></trkpt><trkpt lat="44.1385923" lon="11.3167637"><ele>832.6666666666666</ele><time>2026-04-25T10:13:17.323Z</time></trkpt><trkpt lat="44.1386729" lon="11.3170447"><ele>832.0</ele><time>2026-04-25T10:13:18.308Z</time></trkpt><trkpt lat="44.1387493" lon="11.3173172"><ele>828.6666666666666</ele><time>2026-04-25T10:13:19.316Z</time></trkpt><trkpt lat="44.1388075" lon="11.3175674"><ele>825.3333333333333</ele><time>2026-04-25T10:13:20.326Z</time></trkpt><trkpt lat="44.1388325" lon="11.3178141"><ele>822.0</ele><time>2026-04-25T10:13:21.311Z</time></trkpt><trkpt lat="44.1388267" lon="11.31807"><ele>820.6666666666667</ele><time>2026-04-25T10:13:22.309Z</time></trkpt><trkpt lat="44.1388024" lon="11.3183388"><ele>819.3333333333334</ele><time>2026-04-25T10:13:23.317Z</time></trkpt><trkpt lat="44.1387904" lon="11.3186169"><ele>818.0</ele><time>2026-04-25T10:13:24.331Z</time></trkpt><trkpt lat="44.1387867" lon="11.3188834"><ele>818.0</ele><time>2026-04-25T10:13:25.315Z</time></trkpt><trkpt lat="44.1387787" lon="11.3191515"><ele>818.0</ele><time>2026-04-25T10:13:26.32Z</time></trkpt><trkpt lat="44.1387577" lon="11.3193948"><ele>818.0</ele><time>2026-04-25T10:13:27.325Z</time></trkpt><trkpt lat="44.1387336" lon="11.3196111"><ele>819.25</ele><time>2026-04-25T10:13:28.318Z</time></trkpt><trkpt lat="44.1387151" lon="11.3198096"><ele>820.5</ele><time>2026-04-25T10:13:29.308Z</time></trkpt><trkpt lat="44.1387004" lon="11.3199941"><ele>821.75</ele><time>2026-04-25T10:13:30.322Z</time></trkpt><trkpt lat="44.1386978" lon="11.320159"><ele>823.0</ele><time>2026-04-25T10:13:31.331Z</time></trkpt><trkpt lat="44.138732" lon="11.3203015"><ele>823.0</ele><time>2026-04-25T10:13:32.32Z</time></trkpt><trkpt lat="44.1388136" lon="11.3204386"><ele>823.0</ele><time>2026-04-25T10:13:33.328Z</time></trkpt><trkpt lat="44.138935" lon="11.3205505"><ele>823.0</ele><time>2026-04-25T10:13:34.33Z</time></trkpt><trkpt lat="44.1390616" lon="11.3206319"><ele>823.0</ele><time>2026-04-25T10:13:35.322Z</time></trkpt><trkpt lat="44.1391779" lon="11.3207357"><ele>824.75</ele><time>2026-04-25T10:13:36.322Z</time></trkpt><trkpt lat="44.1392832" lon="11.3208448"><ele>826.5</ele><time>2026-04-25T10:13:37.324Z</time></trkpt><trkpt lat="44.1393705" lon="11.3209621"><ele>828.25</ele><time>2026-04-25T10:13:38.331Z</time></trkpt><trkpt lat="44.1394512" lon="11.32108"><ele>830.0</ele><time>2026-04-25T10:13:39.322Z</time></trkpt><trkpt lat="44.1395363" lon="11.3212091"><ele>830.0</ele><time>2026-04-25T10:13:40.328Z</time></trkpt><trkpt lat="44.1396284" lon="11.3213445"><ele>830.0</ele><time>2026-04-25T10:13:41.306Z</time></trkpt><trkpt lat="44.1397233" lon="11.3214601"><ele>830.0</ele><time>2026-04-25T10:13:42.326Z</time></trkpt><trkpt lat="44.1398253" lon="11.3215584"><ele>830.0</ele><time>2026-04-25T10:13:43.328Z</time></trkpt><trkpt lat="44.139943" lon="11.3216232"><ele>832.0</ele><time>2026-04-25T10:13:44.316Z</time></trkpt><trkpt lat="44.1400714" lon="11.3216606"><ele>834.0</ele><time>2026-04-25T10:13:45.315Z</time></trkpt><trkpt lat="44.1401957" lon="11.3216774"><ele>836.0</ele><time>2026-04-25T10:13:46.322Z</time></trkpt><trkpt lat="44.1403271" lon="11.3216999"><ele>838.0</ele><time>2026-04-25T10:13:47.328Z</time></trkpt><trkpt lat="44.1404491" lon="11.3217529"><ele>838.0</ele><time>2026-04-25T10:13:48.33Z</time></trkpt><trkpt lat="44.1405445" lon="11.3218486"><ele>838.0</ele><time>2026-04-25T10:13:49.32Z</time></trkpt><trkpt lat="44.1406271" lon="11.3220003"><ele>838.0</ele><time>2026-04-25T10:13:50.323Z</time></trkpt><trkpt lat="44.1407004" lon="11.3221771"><ele>838.0</ele><time>2026-04-25T10:13:51.319Z</time></trkpt><trkpt lat="44.1407827" lon="11.3223784"><ele>840.3333333333333</ele><time>2026-04-25T10:13:52.323Z</time></trkpt><trkpt lat="44.1408654" lon="11.322588"><ele>842.6666666666667</ele><time>2026-04-25T10:13:53.325Z</time></trkpt><trkpt lat="44.140945" lon="11.3227946"><ele>845.0</ele><time>2026-04-25T10:13:54.323Z</time></trkpt><trkpt lat="44.1410167" lon="11.3229914"><ele>843.6666666666667</ele><time>2026-04-25T10:13:55.331Z</time></trkpt><trkpt lat="44.1410799" lon="11.3231785"><ele>842.3333333333333</ele><time>2026-04-25T10:13:56.322Z</time></trkpt><trkpt lat="44.1411493" lon="11.3233691"><ele>841.0</ele><time>2026-04-25T10:13:57.331Z</time></trkpt><trkpt lat="44.1412061" lon="11.323561"><ele>841.0</ele><time>2026-04-25T10:13:58.325Z</time></trkpt><trkpt lat="44.1412352" lon="11.3237761"><ele>841.0</ele><time>2026-04-25T10:13:59.346Z</time></trkpt><trkpt lat="44.1412409" lon="11.324016"><ele>841.0</ele><time>2026-04-25T10:14:00.312Z</time></trkpt><trkpt lat="44.141235" lon="11.3242528"><ele>841.0</ele><time>2026-04-25T10:14:01.311Z</time></trkpt><trkpt lat="44.1412065" lon="11.324495"><ele>841.0</ele><time>2026-04-25T10:14:02.323Z</time></trkpt><trkpt lat="44.1411684" lon="11.3247255"><ele>841.0</ele><time>2026-04-25T10:14:03.325Z</time></trkpt><trkpt lat="44.1411214" lon="11.3249208"><ele>841.75</ele><time>2026-04-25T10:14:04.331Z</time></trkpt><trkpt lat="44.1410711" lon="11.3250992"><ele>842.5</ele><time>2026-04-25T10:14:05.316Z</time></trkpt><trkpt lat="44.1410392" lon="11.325265"><ele>843.25</ele><time>2026-04-25T10:14:06.299Z</time></trkpt><trkpt lat="44.1410256" lon="11.3254287"><ele>844.0</ele><time>2026-04-25T10:14:07.323Z</time></trkpt><trkpt lat="44.141056" lon="11.325604"><ele>844.5</ele><time>2026-04-25T10:14:08.327Z</time></trkpt><trkpt lat="44.1411103" lon="11.3257924"><ele>845.0</ele><time>2026-04-25T10:14:09.321Z</time></trkpt><trkpt lat="44.1411725" lon="11.3259712"><ele>845.5</ele><time>2026-04-25T10:14:10.314Z</time></trkpt><trkpt lat="44.1412253" lon="11.326144"><ele>846.0</ele><time>2026-04-25T10:14:11.311Z</time></trkpt><trkpt lat="44.1412775" lon="11.3263062"><ele>846.0</ele><time>2026-04-25T10:14:12.301Z</time></trkpt><trkpt lat="44.1413095" lon="11.3264566"><ele>846.0</ele><time>2026-04-25T10:14:13.318Z</time></trkpt><trkpt lat="44.1413192" lon="11.326619"><ele>846.0</ele><time>2026-04-25T10:14:14.328Z</time></trkpt><trkpt lat="44.1412929" lon="11.3267766"><ele>846.0</ele><time>2026-04-25T10:14:15.341Z</time></trkpt><trkpt lat="44.1412086" lon="11.3269443"><ele>846.0</ele><time>2026-04-25T10:14:16.325Z</time></trkpt><trkpt lat="44.1411055" lon="11.3270637"><ele>846.0</ele><time>2026-04-25T10:14:17.324Z</time></trkpt><trkpt lat="44.1410022" lon="11.3271545"><ele>846.0</ele><time>2026-04-25T10:14:18.309Z</time></trkpt><trkpt lat="44.1409045" lon="11.3272334"><ele>846.0</ele><time>2026-04-25T10:14:19.337Z</time></trkpt><trkpt lat="44.1408123" lon="11.3273107"><ele>845.5999999999999</ele><time>2026-04-25T10:14:20.32Z</time></trkpt><trkpt lat="44.1407221" lon="11.3273901"><ele>845.2</ele><time>2026-04-25T10:14:21.327Z</time></trkpt><trkpt lat="44.1406291" lon="11.3274704"><ele>844.8</ele><time>2026-04-25T10:14:22.324Z</time></trkpt><trkpt lat="44.1405507" lon="11.327574"><ele>844.4000000000001</ele><time>2026-04-25T10:14:23.322Z</time></trkpt><trkpt lat="44.1404963" lon="11.3276993"><ele>844.0</ele><time>2026-04-25T10:14:24.301Z</time></trkpt><trkpt lat="44.1404719" lon="11.3278527"><ele>844.0</ele><time>2026-04-25T10:14:25.32Z</time></trkpt><trkpt lat="44.1404661" lon="11.3280124"><ele>844.0</ele><time>2026-04-25T10:14:26.33Z</time></trkpt><trkpt lat="44.140487" lon="11.3281497"><ele>844.0</ele><time>2026-04-25T10:14:27.315Z</time></trkpt><trkpt lat="44.1405143" lon="11.3282812"><ele>844.0</ele><time>2026-04-25T10:14:28.326Z</time></trkpt><trkpt lat="44.1405517" lon="11.3283983"><ele>844.0</ele><time>2026-04-25T10:14:29.326Z</time></trkpt><trkpt lat="44.1406056" lon="11.3285026"><ele>844.0</ele><time>2026-04-25T10:14:30.316Z</time></trkpt><trkpt lat="44.140694" lon="11.3285768"><ele>844.0</ele><time>2026-04-25T10:14:31.303Z</time></trkpt><trkpt lat="44.1407926" lon="11.3285967"><ele>844.0</ele><time>2026-04-25T10:14:32.31Z</time></trkpt><trkpt lat="44.1408891" lon="11.3285643"><ele>844.0</ele><time>2026-04-25T10:14:33.318Z</time></trkpt><trkpt lat="44.140978" lon="11.3284868"><ele>844.0</ele><time>2026-04-25T10:14:34.345Z</time></trkpt><trkpt lat="44.1410842" lon="11.3283973"><ele>847.75</ele><time>2026-04-25T10:14:35.318Z</time></trkpt><trkpt lat="44.1412012" lon="11.3282943"><ele>851.5</ele><time>2026-04-25T10:14:36.322Z</time></trkpt><trkpt lat="44.14132" lon="11.3281952"><ele>855.25</ele><time>2026-04-25T10:14:37.322Z</time></trkpt><trkpt lat="44.1414498" lon="11.3280935"><ele>859.0</ele><time>2026-04-25T10:14:38.334Z</time></trkpt><trkpt lat="44.1415849" lon="11.3279913"><ele>861.0</ele><time>2026-04-25T10:14:39.332Z</time></trkpt><trkpt lat="44.1417271" lon="11.327878"><ele>863.0</ele><time>2026-04-25T10:14:40.324Z</time></trkpt><trkpt lat="44.1418843" lon="11.3277499"><ele>865.0</ele><time>2026-04-25T10:14:41.324Z</time></trkpt><trkpt lat="44.1420428" lon="11.3276286"><ele>865.0</ele><time>2026-04-25T10:14:42.323Z</time></trkpt><trkpt lat="44.142201" lon="11.3275114"><ele>865.0</ele><time>2026-04-25T10:14:43.305Z</time></trkpt><trkpt lat="44.1423683" lon="11.3274106"><ele>865.0</ele><time>2026-04-25T10:14:44.338Z</time></trkpt><trkpt lat="44.1425436" lon="11.3273191"><ele>865.0</ele><time>2026-04-25T10:14:45.336Z</time></trkpt><trkpt lat="44.1427346" lon="11.3272506"><ele>865.0</ele><time>2026-04-25T10:14:46.329Z</time></trkpt><trkpt lat="44.1429349" lon="11.3272016"><ele>865.0</ele><time>2026-04-25T10:14:47.324Z</time></trkpt><trkpt lat="44.1431421" lon="11.3271715"><ele>865.3333333333333</ele><time>2026-04-25T10:14:48.335Z</time></trkpt><trkpt lat="44.143348" lon="11.3271605"><ele>865.6666666666667</ele><time>2026-04-25T10:14:49.327Z</time></trkpt><trkpt lat="44.1435569" lon="11.3271959"><ele>866.0</ele><time>2026-04-25T10:14:50.32Z</time></trkpt><trkpt lat="44.1437559" lon="11.3272635"><ele>866.0</ele><time>2026-04-25T10:14:51.329Z</time></trkpt><trkpt lat="44.1439402" lon="11.3273634"><ele>866.0</ele><time>2026-04-25T10:14:52.33Z</time></trkpt><trkpt lat="44.1441057" lon="11.3274587"><ele>866.0</ele><time>2026-04-25T10:14:53.325Z</time></trkpt><trkpt lat="44.1442609" lon="11.3275284"><ele>867.6666666666667</ele><time>2026-04-25T10:14:54.32Z</time></trkpt><trkpt lat="44.144408" lon="11.3275434"><ele>869.3333333333333</ele><time>2026-04-25T10:14:55.338Z</time></trkpt><trkpt lat="44.1445514" lon="11.327484"><ele>871.0</ele><time>2026-04-25T10:14:56.298Z</time></trkpt><trkpt lat="44.1446863" lon="11.3273567"><ele>874.3333333333333</ele><time>2026-04-25T10:14:57.328Z</time></trkpt><trkpt lat="44.144795" lon="11.3271786"><ele>877.6666666666667</ele><time>2026-04-25T10:14:58.326Z</time></trkpt><trkpt lat="44.144888" lon="11.3269651"><ele>881.0</ele><time>2026-04-25T10:14:59.332Z</time></trkpt><trkpt lat="44.1450189" lon="11.3267832"><ele>881.0</ele><time>2026-04-25T10:15:00.323Z</time></trkpt><trkpt lat="44.1451841" lon="11.3266684"><ele>881.0</ele><time>2026-04-25T10:15:01.336Z</time></trkpt><trkpt lat="44.145385" lon="11.3266213"><ele>881.0</ele><time>2026-04-25T10:15:02.318Z</time></trkpt><trkpt lat="44.1456019" lon="11.3266161"><ele>880.3333333333334</ele><time>2026-04-25T10:15:03.314Z</time></trkpt><trkpt lat="44.1458099" lon="11.3266691"><ele>879.6666666666667</ele><time>2026-04-25T10:15:04.326Z</time></trkpt><trkpt lat="44.1460201" lon="11.3267558"><ele>879.0</ele><time>2026-04-25T10:15:05.285Z</time></trkpt><trkpt lat="44.1462167" lon="11.3269077"><ele>879.0</ele><time>2026-04-25T10:15:06.283Z</time></trkpt><trkpt lat="44.1464084" lon="11.3270431"><ele>879.0</ele><time>2026-04-25T10:15:07.307Z</time></trkpt><trkpt lat="44.1465923" lon="11.3271507"><ele>879.0</ele><time>2026-04-25T10:15:08.33Z</time></trkpt><trkpt lat="44.1467828" lon="11.3272293"><ele>878.0</ele><time>2026-04-25T10:15:09.319Z</time></trkpt><trkpt lat="44.1469863" lon="11.3272355"><ele>877.0</ele><time>2026-04-25T10:15:10.317Z</time></trkpt><trkpt lat="44.1471989" lon="11.3271973"><ele>876.0</ele><time>2026-04-25T10:15:11.317Z</time></trkpt><trkpt lat="44.1474079" lon="11.3271983"><ele>879.3333333333333</ele><time>2026-04-25T10:15:12.299Z</time></trkpt><trkpt lat="44.1475968" lon="11.3272582"><ele>882.6666666666666</ele><time>2026-04-25T10:15:13.316Z</time></trkpt><trkpt lat="44.1477677" lon="11.3273883"><ele>886.0</ele><time>2026-04-25T10:15:14.318Z</time></trkpt><trkpt lat="44.1479146" lon="11.3274878"><ele>886.0</ele><time>2026-04-25T10:15:15.323Z</time></trkpt><trkpt lat="44.1480667" lon="11.3275228"><ele>886.0</ele><time>2026-04-25T10:15:16.329Z</time></trkpt><trkpt lat="44.1482047" lon="11.3274826"><ele>886.0</ele><time>2026-04-25T10:15:17.32Z</time></trkpt><trkpt lat="44.1483661" lon="11.3273915"><ele>892.3333333333333</ele><time>2026-04-25T10:15:18.322Z</time></trkpt><trkpt lat="44.1485094" lon="11.3272225"><ele>898.6666666666667</ele><time>2026-04-25T10:15:19.317Z</time></trkpt><trkpt lat="44.1486435" lon="11.3270335"><ele>905.0</ele><time>2026-04-25T10:15:20.325Z</time></trkpt><trkpt lat="44.1487721" lon="11.3268477"><ele>905.0</ele><time>2026-04-25T10:15:21.318Z</time></trkpt><trkpt lat="44.148899" lon="11.3266651"><ele>905.0</ele><time>2026-04-25T10:15:22.328Z</time></trkpt><trkpt lat="44.1490205" lon="11.3264925"><ele>905.0</ele><time>2026-04-25T10:15:23.317Z</time></trkpt><trkpt lat="44.1491417" lon="11.3263543"><ele>905.75</ele><time>2026-04-25T10:15:24.318Z</time></trkpt><trkpt lat="44.1492652" lon="11.3262223"><ele>906.5</ele><time>2026-04-25T10:15:25.321Z</time></trkpt><trkpt lat="44.1493876" lon="11.326102"><ele>907.25</ele><time>2026-04-25T10:15:26.332Z</time></trkpt><trkpt lat="44.1495019" lon="11.3259998"><ele>908.0</ele><time>2026-04-25T10:15:27.335Z</time></trkpt><trkpt lat="44.1496202" lon="11.3259269"><ele>908.0</ele><time>2026-04-25T10:15:28.327Z</time></trkpt><trkpt lat="44.1497546" lon="11.3258906"><ele>908.0</ele><time>2026-04-25T10:15:29.319Z</time></trkpt><trkpt lat="44.1499001" lon="11.3258893"><ele>908.0</ele><time>2026-04-25T10:15:30.328Z</time></trkpt><trkpt lat="44.1500653" lon="11.3259052"><ele>908.0</ele><time>2026-04-25T10:15:31.326Z</time></trkpt><trkpt lat="44.1502304" lon="11.3259027"><ele>904.0</ele><time>2026-04-25T10:15:32.32Z</time></trkpt><trkpt lat="44.1504014" lon="11.325905"><ele>900.0</ele><time>2026-04-25T10:15:33.319Z</time></trkpt><trkpt lat="44.1505693" lon="11.3259059"><ele>896.0</ele><time>2026-04-25T10:15:34.325Z</time></trkpt><trkpt lat="44.1507411" lon="11.3259068"><ele>893.0</ele><time>2026-04-25T10:15:35.322Z</time></trkpt><trkpt lat="44.1509118" lon="11.3258965"><ele>890.0</ele><time>2026-04-25T10:15:36.337Z</time></trkpt><trkpt lat="44.1510806" lon="11.3258492"><ele>887.0</ele><time>2026-04-25T10:15:37.321Z</time></trkpt><trkpt lat="44.1512626" lon="11.3257617"><ele>887.0</ele><time>2026-04-25T10:15:38.317Z</time></trkpt><trkpt lat="44.1514511" lon="11.3256261"><ele>887.0</ele><time>2026-04-25T10:15:39.328Z</time></trkpt><trkpt lat="44.1516247" lon="11.3254758"><ele>887.0</ele><time>2026-04-25T10:15:40.306Z</time></trkpt><trkpt lat="44.1517952" lon="11.3253349"><ele>891.0</ele><time>2026-04-25T10:15:41.316Z</time></trkpt><trkpt lat="44.1519568" lon="11.3251958"><ele>895.0</ele><time>2026-04-25T10:15:42.327Z</time></trkpt><trkpt lat="44.1521086" lon="11.3250652"><ele>899.0</ele><time>2026-04-25T10:15:43.328Z</time></trkpt><trkpt lat="44.1522567" lon="11.3249434"><ele>900.6666666666667</ele><time>2026-04-25T10:15:44.332Z</time></trkpt><trkpt lat="44.152397" lon="11.3248254"><ele>902.3333333333333</ele><time>2026-04-25T10:15:45.309Z</time></trkpt><trkpt lat="44.1525316" lon="11.3247094"><ele>904.0</ele><time>2026-04-25T10:15:46.324Z</time></trkpt><trkpt lat="44.1526668" lon="11.3245979"><ele>904.0</ele><time>2026-04-25T10:15:47.322Z</time></trkpt><trkpt lat="44.152815" lon="11.3245055"><ele>904.0</ele><time>2026-04-25T10:15:48.331Z</time></trkpt><trkpt lat="44.1529754" lon="11.3244517"><ele>904.0</ele><time>2026-04-25T10:15:49.315Z</time></trkpt><trkpt lat="44.1531473" lon="11.3244822"><ele>901.3333333333333</ele><time>2026-04-25T10:15:50.325Z</time></trkpt><trkpt lat="44.1533154" lon="11.3245537"><ele>898.6666666666667</ele><time>2026-04-25T10:15:51.326Z</time></trkpt><trkpt lat="44.1534714" lon="11.3246773"><ele>896.0</ele><time>2026-04-25T10:15:52.315Z</time></trkpt><trkpt lat="44.1536144" lon="11.324809"><ele>894.3333333333334</ele><time>2026-04-25T10:15:53.318Z</time></trkpt><trkpt lat="44.153755" lon="11.3249402"><ele>892.6666666666667</ele><time>2026-04-25T10:15:54.333Z</time></trkpt><trkpt lat="44.1539133" lon="11.325055"><ele>891.0</ele><time>2026-04-25T10:15:55.31Z</time></trkpt><trkpt lat="44.1540854" lon="11.3251338"><ele>891.0</ele><time>2026-04-25T10:15:56.318Z</time></trkpt><trkpt lat="44.1542564" lon="11.3251823"><ele>891.0</ele><time>2026-04-25T10:15:57.307Z</time></trkpt><trkpt lat="44.154417" lon="11.3252054"><ele>891.0</ele><time>2026-04-25T10:15:58.324Z</time></trkpt><trkpt lat="44.1545555" lon="11.3251702"><ele>891.0</ele><time>2026-04-25T10:15:59.297Z</time></trkpt><trkpt lat="44.1546802" lon="11.3250536"><ele>891.0</ele><time>2026-04-25T10:16:00.326Z</time></trkpt><trkpt lat="44.1547878" lon="11.32486"><ele>891.0</ele><time>2026-04-25T10:16:01.312Z</time></trkpt><trkpt lat="44.1548863" lon="11.3246399"><ele>892.3333333333333</ele><time>2026-04-25T10:16:02.318Z</time></trkpt><trkpt lat="44.1550193" lon="11.3244425"><ele>893.6666666666666</ele><time>2026-04-25T10:16:03.323Z</time></trkpt><trkpt lat="44.1551835" lon="11.3242703"><ele>895.0</ele><time>2026-04-25T10:16:04.335Z</time></trkpt><trkpt lat="44.1553515" lon="11.3241056"><ele>895.0</ele><time>2026-04-25T10:16:05.328Z</time></trkpt><trkpt lat="44.1554874" lon="11.3239151"><ele>895.0</ele><time>2026-04-25T10:16:06.332Z</time></trkpt><trkpt lat="44.1556018" lon="11.3236802"><ele>895.0</ele><time>2026-04-25T10:16:07.333Z</time></trkpt><trkpt lat="44.1557285" lon="11.3235005"><ele>896.3333333333333</ele><time>2026-04-25T10:16:08.336Z</time></trkpt><trkpt lat="44.1558689" lon="11.3233418"><ele>897.6666666666667</ele><time>2026-04-25T10:16:09.32Z</time></trkpt><trkpt lat="44.1560335" lon="11.3232485"><ele>899.0</ele><time>2026-04-25T10:16:10.304Z</time></trkpt><trkpt lat="44.1562061" lon="11.3232101"><ele>899.0</ele><time>2026-04-25T10:16:11.322Z</time></trkpt><trkpt lat="44.1563832" lon="11.32323"><ele>899.0</ele><time>2026-04-25T10:16:12.319Z</time></trkpt><trkpt lat="44.1565654" lon="11.3233006"><ele>899.0</ele><time>2026-04-25T10:16:13.312Z</time></trkpt><trkpt lat="44.1567189" lon="11.32337"><ele>899.6666666666667</ele><time>2026-04-25T10:16:14.305Z</time></trkpt><trkpt lat="44.1568846" lon="11.3234178"><ele>900.3333333333333</ele><time>2026-04-25T10:16:15.331Z</time></trkpt><trkpt lat="44.15705" lon="11.3234342"><ele>901.0</ele><time>2026-04-25T10:16:16.328Z</time></trkpt><trkpt lat="44.1572394" lon="11.323363"><ele>901.0</ele><time>2026-04-25T10:16:17.328Z</time></trkpt><trkpt lat="44.1574211" lon="11.323237"><ele>901.0</ele><time>2026-04-25T10:16:18.324Z</time></trkpt><trkpt lat="44.1575846" lon="11.3230794"><ele>901.0</ele><time>2026-04-25T10:16:19.321Z</time></trkpt><trkpt lat="44.1577183" lon="11.3229205"><ele>902.6666666666666</ele><time>2026-04-25T10:16:20.329Z</time></trkpt><trkpt lat="44.1578617" lon="11.3227952"><ele>904.3333333333333</ele><time>2026-04-25T10:16:21.323Z</time></trkpt><trkpt lat="44.1580171" lon="11.3226994"><ele>906.0</ele><time>2026-04-25T10:16:22.322Z</time></trkpt><trkpt lat="44.1581827" lon="11.3226701"><ele>905.6666666666667</ele><time>2026-04-25T10:16:23.337Z</time></trkpt><trkpt lat="44.1583721" lon="11.3227137"><ele>905.3333333333334</ele><time>2026-04-25T10:16:24.327Z</time></trkpt><trkpt lat="44.1585454" lon="11.3228505"><ele>905.0</ele><time>2026-04-25T10:16:25.322Z</time></trkpt><trkpt lat="44.1587016" lon="11.3230029"><ele>903.0</ele><time>2026-04-25T10:16:26.32Z</time></trkpt><trkpt lat="44.1588513" lon="11.323162"><ele>901.0</ele><time>2026-04-25T10:16:27.339Z</time></trkpt><trkpt lat="44.1590011" lon="11.3233304"><ele>899.0</ele><time>2026-04-25T10:16:28.326Z</time></trkpt><trkpt lat="44.1591541" lon="11.3234662"><ele>899.0</ele><time>2026-04-25T10:16:29.323Z</time></trkpt><trkpt lat="44.1593106" lon="11.3235802"><ele>899.0</ele><time>2026-04-25T10:16:30.339Z</time></trkpt><trkpt lat="44.1594571" lon="11.3236687"><ele>899.0</ele><time>2026-04-25T10:16:31.327Z</time></trkpt><trkpt lat="44.1595961" lon="11.3237607"><ele>899.0</ele><time>2026-04-25T10:16:32.3Z</time></trkpt><trkpt lat="44.159716" lon="11.3238609"><ele>899.0</ele><time>2026-04-25T10:16:33.29Z</time></trkpt><trkpt lat="44.1598319" lon="11.3239919"><ele>899.0</ele><time>2026-04-25T10:16:34.3Z</time></trkpt><trkpt lat="44.1599159" lon="11.3241883"><ele>899.0</ele><time>2026-04-25T10:16:35.318Z</time></trkpt><trkpt lat="44.1599862" lon="11.3244144"><ele>899.0</ele><time>2026-04-25T10:16:36.31Z</time></trkpt><trkpt lat="44.1600538" lon="11.3246476"><ele>899.0</ele><time>2026-04-25T10:16:37.306Z</time></trkpt><trkpt lat="44.160118" lon="11.3249024"><ele>896.0</ele><time>2026-04-25T10:16:38.33Z</time></trkpt><trkpt lat="44.1601785" lon="11.3251485"><ele>893.0</ele><time>2026-04-25T10:16:39.326Z</time></trkpt><trkpt lat="44.1602408" lon="11.3253876"><ele>890.0</ele><time>2026-04-25T10:16:40.318Z</time></trkpt><trkpt lat="44.1603146" lon="11.3256093"><ele>888.0</ele><time>2026-04-25T10:16:41.329Z</time></trkpt><trkpt lat="44.160375" lon="11.3258166"><ele>886.0</ele><time>2026-04-25T10:16:42.32Z</time></trkpt><trkpt lat="44.1604388" lon="11.32601"><ele>884.0</ele><time>2026-04-25T10:16:43.327Z</time></trkpt><trkpt lat="44.160498" lon="11.3261798"><ele>882.0</ele><time>2026-04-25T10:16:44.311Z</time></trkpt><trkpt lat="44.1605578" lon="11.3263456"><ele>880.5</ele><time>2026-04-25T10:16:45.325Z</time></trkpt><trkpt lat="44.160615" lon="11.3264921"><ele>879.0</ele><time>2026-04-25T10:16:46.317Z</time></trkpt><trkpt lat="44.1606719" lon="11.3266464"><ele>877.5</ele><time>2026-04-25T10:16:47.325Z</time></trkpt><trkpt lat="44.160737" lon="11.3267989"><ele>876.0</ele><time>2026-04-25T10:16:48.319Z</time></trkpt><trkpt lat="44.1607995" lon="11.3269471"><ele>877.75</ele><time>2026-04-25T10:16:49.322Z</time></trkpt><trkpt lat="44.1608703" lon="11.3270939"><ele>879.5</ele><time>2026-04-25T10:16:50.323Z</time></trkpt><trkpt lat="44.1609352" lon="11.3272405"><ele>881.25</ele><time>2026-04-25T10:16:51.34Z</time></trkpt><trkpt lat="44.1610003" lon="11.3273983"><ele>883.0</ele><time>2026-04-25T10:16:52.327Z</time></trkpt><trkpt lat="44.1610555" lon="11.3275603"><ele>883.0</ele><time>2026-04-25T10:16:53.325Z</time></trkpt><trkpt lat="44.1611045" lon="11.3277099"><ele>883.0</ele><time>2026-04-25T10:16:54.323Z</time></trkpt><trkpt lat="44.1611428" lon="11.3278525"><ele>883.0</ele><time>2026-04-25T10:16:55.327Z</time></trkpt><trkpt lat="44.1611746" lon="11.3280058"><ele>883.0</ele><time>2026-04-25T10:16:56.321Z</time></trkpt><trkpt lat="44.1612052" lon="11.3281574"><ele>882.8</ele><time>2026-04-25T10:16:57.325Z</time></trkpt><trkpt lat="44.1612314" lon="11.3283041"><ele>882.5999999999999</ele><time>2026-04-25T10:16:58.33Z</time></trkpt><trkpt lat="44.1612568" lon="11.3284427"><ele>882.4000000000001</ele><time>2026-04-25T10:16:59.326Z</time></trkpt><trkpt lat="44.1612784" lon="11.3285857"><ele>882.2</ele><time>2026-04-25T10:17:00.332Z</time></trkpt><trkpt lat="44.1612952" lon="11.3287229"><ele>882.0</ele><time>2026-04-25T10:17:01.325Z</time></trkpt><trkpt lat="44.1613126" lon="11.3288622"><ele>881.8</ele><time>2026-04-25T10:17:02.322Z</time></trkpt><trkpt lat="44.1613319" lon="11.3289946"><ele>881.6</ele><time>2026-04-25T10:17:03.321Z</time></trkpt><trkpt lat="44.1613615" lon="11.3291223"><ele>881.3999999999999</ele><time>2026-04-25T10:17:04.32Z</time></trkpt><trkpt lat="44.1614032" lon="11.3292351"><ele>881.1999999999999</ele><time>2026-04-25T10:17:05.321Z</time></trkpt><trkpt lat="44.1614595" lon="11.3293387"><ele>881.0</ele><time>2026-04-25T10:17:06.327Z</time></trkpt><trkpt lat="44.1615346" lon="11.3294315"><ele>881.0</ele><time>2026-04-25T10:17:07.299Z</time></trkpt><trkpt lat="44.1616273" lon="11.3295124"><ele>881.0</ele><time>2026-04-25T10:17:08.314Z</time></trkpt><trkpt lat="44.1617265" lon="11.3295741"><ele>881.0</ele><time>2026-04-25T10:17:09.319Z</time></trkpt><trkpt lat="44.1618346" lon="11.3296329"><ele>881.0</ele><time>2026-04-25T10:17:10.331Z</time></trkpt><trkpt lat="44.1619466" lon="11.3296845"><ele>881.0</ele><time>2026-04-25T10:17:11.33Z</time></trkpt><trkpt lat="44.162057" lon="11.3297211"><ele>880.9999999999999</ele><time>2026-04-25T10:17:12.319Z</time></trkpt><trkpt lat="44.1621637" lon="11.3297372"><ele>880.9999999999999</ele><time>2026-04-25T10:17:13.314Z</time></trkpt><trkpt lat="44.1622745" lon="11.3297541"><ele>881.0</ele><time>2026-04-25T10:17:14.309Z</time></trkpt><trkpt lat="44.1623822" lon="11.3297741"><ele>881.0</ele><time>2026-04-25T10:17:15.329Z</time></trkpt><trkpt lat="44.1624947" lon="11.3297962"><ele>877.8</ele><time>2026-04-25T10:17:16.326Z</time></trkpt><trkpt lat="44.1625997" lon="11.3298502"><ele>874.5999999999999</ele><time>2026-04-25T10:17:17.332Z</time></trkpt><trkpt lat="44.1626911" lon="11.3299224"><ele>871.4</ele><time>2026-04-25T10:17:18.319Z</time></trkpt><trkpt lat="44.1627617" lon="11.3300303"><ele>868.2</ele><time>2026-04-25T10:17:19.326Z</time></trkpt><trkpt lat="44.162824" lon="11.3301488"><ele>865.0</ele><time>2026-04-25T10:17:20.322Z</time></trkpt><trkpt lat="44.1628574" lon="11.3302906"><ele>864.9999999999999</ele><time>2026-04-25T10:17:21.319Z</time></trkpt><trkpt lat="44.1628565" lon="11.3304369"><ele>865.0</ele><time>2026-04-25T10:17:22.321Z</time></trkpt><trkpt lat="44.1628468" lon="11.330584"><ele>865.0</ele><time>2026-04-25T10:17:23.3Z</time></trkpt><trkpt lat="44.1628306" lon="11.3307024"><ele>865.0</ele><time>2026-04-25T10:17:24.32Z</time></trkpt><trkpt lat="44.1628154" lon="11.3308045"><ele>864.9999999999999</ele><time>2026-04-25T10:17:25.323Z</time></trkpt><trkpt lat="44.162803" lon="11.3309027"><ele>865.0</ele><time>2026-04-25T10:17:26.333Z</time></trkpt><trkpt lat="44.1628073" lon="11.3310013"><ele>863.1666666666666</ele><time>2026-04-25T10:17:27.325Z</time></trkpt><trkpt lat="44.1628167" lon="11.3310962"><ele>861.3333333333333</ele><time>2026-04-25T10:17:28.328Z</time></trkpt><trkpt lat="44.1628451" lon="11.3311871"><ele>859.5</ele><time>2026-04-25T10:17:29.328Z</time></trkpt><trkpt lat="44.1628922" lon="11.3312709"><ele>857.6666666666667</ele><time>2026-04-25T10:17:30.322Z</time></trkpt><trkpt lat="44.1629569" lon="11.3313371"><ele>855.8333333333334</ele><time>2026-04-25T10:17:31.326Z</time></trkpt><trkpt lat="44.1630262" lon="11.3314038"><ele>854.0</ele><time>2026-04-25T10:17:32.318Z</time></trkpt><trkpt lat="44.1630985" lon="11.3314611"><ele>853.5000000000001</ele><time>2026-04-25T10:17:33.327Z</time></trkpt><trkpt lat="44.1631689" lon="11.3315185"><ele>853.0</ele><time>2026-04-25T10:17:34.337Z</time></trkpt><trkpt lat="44.1632417" lon="11.3315793"><ele>852.5</ele><time>2026-04-25T10:17:35.325Z</time></trkpt><trkpt lat="44.1633163" lon="11.3316304"><ele>852.0</ele><time>2026-04-25T10:17:36.332Z</time></trkpt><trkpt lat="44.1633883" lon="11.3316867"><ele>851.5000000000001</ele><time>2026-04-25T10:17:37.323Z</time></trkpt><trkpt lat="44.1634609" lon="11.3317432"><ele>851.0</ele><time>2026-04-25T10:17:38.313Z</time></trkpt><trkpt lat="44.1635459" lon="11.3318131"><ele>851.0</ele><time>2026-04-25T10:17:39.329Z</time></trkpt><trkpt lat="44.1636392" lon="11.3318924"><ele>851.0</ele><time>2026-04-25T10:17:40.32Z</time></trkpt><trkpt lat="44.1637433" lon="11.3320038"><ele>851.0</ele><time>2026-04-25T10:17:41.321Z</time></trkpt><trkpt lat="44.1638486" lon="11.3321509"><ele>851.0</ele><time>2026-04-25T10:17:42.334Z</time></trkpt><trkpt lat="44.1639419" lon="11.3322995"><ele>851.5</ele><time>2026-04-25T10:17:43.336Z</time></trkpt><trkpt lat="44.1640257" lon="11.332446"><ele>852.0</ele><time>2026-04-25T10:17:44.335Z</time></trkpt><trkpt lat="44.1641104" lon="11.3325974"><ele>852.5</ele><time>2026-04-25T10:17:45.318Z</time></trkpt><trkpt lat="44.1641766" lon="11.3327071"><ele>853.0</ele><time>2026-04-25T10:17:46.33Z</time></trkpt><trkpt lat="44.1642401" lon="11.3328016"><ele>853.0</ele><time>2026-04-25T10:17:47.329Z</time></trkpt><trkpt lat="44.1643083" lon="11.3328935"><ele>853.0</ele><time>2026-04-25T10:17:48.329Z</time></trkpt><trkpt lat="44.1643692" lon="11.3329817"><ele>853.0</ele><time>2026-04-25T10:17:49.32Z</time></trkpt><trkpt lat="44.164427" lon="11.3330906"><ele>853.0</ele><time>2026-04-25T10:17:50.327Z</time></trkpt><trkpt lat="44.164471" lon="11.333219"><ele>853.0</ele><time>2026-04-25T10:17:51.326Z</time></trkpt><trkpt lat="44.1645032" lon="11.3333593"><ele>852.3333333333333</ele><time>2026-04-25T10:17:52.336Z</time></trkpt><trkpt lat="44.1645133" lon="11.3335059"><ele>851.6666666666666</ele><time>2026-04-25T10:17:53.318Z</time></trkpt><trkpt lat="44.164536" lon="11.3336271"><ele>851.0</ele><time>2026-04-25T10:17:54.321Z</time></trkpt><trkpt lat="44.1645623" lon="11.3337285"><ele>850.3333333333333</ele><time>2026-04-25T10:17:55.323Z</time></trkpt><trkpt lat="44.1646007" lon="11.3338183"><ele>849.6666666666666</ele><time>2026-04-25T10:17:56.312Z</time></trkpt><trkpt lat="44.1646403" lon="11.3339118"><ele>849.0</ele><time>2026-04-25T10:17:57.33Z</time></trkpt><trkpt lat="44.1646929" lon="11.3340048"><ele>849.0</ele><time>2026-04-25T10:17:58.323Z</time></trkpt><trkpt lat="44.164748" lon="11.3340945"><ele>849.0</ele><time>2026-04-25T10:17:59.315Z</time></trkpt><trkpt lat="44.1647981" lon="11.3341893"><ele>849.0</ele><time>2026-04-25T10:18:00.305Z</time></trkpt><trkpt lat="44.1648534" lon="11.3342755"><ele>849.0</ele><time>2026-04-25T10:18:01.31Z</time></trkpt><trkpt lat="44.1649138" lon="11.3343587"><ele>849.0</ele><time>2026-04-25T10:18:02.304Z</time></trkpt><trkpt lat="44.1649751" lon="11.3344519"><ele>849.0</ele><time>2026-04-25T10:18:03.334Z</time></trkpt><trkpt lat="44.1650327" lon="11.3345459"><ele>849.4000000000001</ele><time>2026-04-25T10:18:04.318Z</time></trkpt><trkpt lat="44.1650992" lon="11.3346564"><ele>849.8</ele><time>2026-04-25T10:18:05.325Z</time></trkpt><trkpt lat="44.1651792" lon="11.3347693"><ele>850.2</ele><time>2026-04-25T10:18:06.336Z</time></trkpt><trkpt lat="44.1652534" lon="11.3348839"><ele>850.5999999999999</ele><time>2026-04-25T10:18:07.319Z</time></trkpt><trkpt lat="44.1653214" lon="11.3350199"><ele>851.0</ele><time>2026-04-25T10:18:08.322Z</time></trkpt><trkpt lat="44.1653621" lon="11.335173"><ele>851.0</ele><time>2026-04-25T10:18:09.323Z</time></trkpt><trkpt lat="44.1653922" lon="11.3353533"><ele>851.0</ele><time>2026-04-25T10:18:10.334Z</time></trkpt><trkpt lat="44.1654129" lon="11.3355274"><ele>851.0</ele><time>2026-04-25T10:18:11.3Z</time></trkpt><trkpt lat="44.1654313" lon="11.3356931"><ele>851.0</ele><time>2026-04-25T10:18:12.317Z</time></trkpt><trkpt lat="44.1654418" lon="11.3358401"><ele>851.1999999999999</ele><time>2026-04-25T10:18:13.326Z</time></trkpt><trkpt lat="44.1654597" lon="11.3359733"><ele>851.4</ele><time>2026-04-25T10:18:14.329Z</time></trkpt><trkpt lat="44.165492" lon="11.33608"><ele>851.6</ele><time>2026-04-25T10:18:15.318Z</time></trkpt><trkpt lat="44.1655373" lon="11.336162"><ele>851.8</ele><time>2026-04-25T10:18:16.324Z</time></trkpt><trkpt lat="44.1656317" lon="11.336221"><ele>852.0</ele><time>2026-04-25T10:18:17.318Z</time></trkpt><trkpt lat="44.1657597" lon="11.3361811"><ele>854.5</ele><time>2026-04-25T10:18:18.322Z</time></trkpt><trkpt lat="44.1658979" lon="11.3361151"><ele>857.0</ele><time>2026-04-25T10:18:19.311Z</time></trkpt><trkpt lat="44.1660326" lon="11.3360309"><ele>859.5</ele><time>2026-04-25T10:18:20.324Z</time></trkpt><trkpt lat="44.1661608" lon="11.335936"><ele>862.0</ele><time>2026-04-25T10:18:21.324Z</time></trkpt><trkpt lat="44.1662889" lon="11.3358451"><ele>862.0</ele><time>2026-04-25T10:18:22.323Z</time></trkpt><trkpt lat="44.1664154" lon="11.3357316"><ele>862.0</ele><time>2026-04-25T10:18:23.337Z</time></trkpt><trkpt lat="44.1665513" lon="11.335599"><ele>862.0</ele><time>2026-04-25T10:18:24.32Z</time></trkpt><trkpt lat="44.1666911" lon="11.3354555"><ele>864.0</ele><time>2026-04-25T10:18:25.317Z</time></trkpt><trkpt lat="44.1668421" lon="11.3353329"><ele>866.0</ele><time>2026-04-25T10:18:26.325Z</time></trkpt><trkpt lat="44.1669852" lon="11.3352185"><ele>868.0</ele><time>2026-04-25T10:18:27.305Z</time></trkpt><trkpt lat="44.1671148" lon="11.3351088"><ele>868.0</ele><time>2026-04-25T10:18:28.309Z</time></trkpt><trkpt lat="44.1672215" lon="11.3350155"><ele>868.0</ele><time>2026-04-25T10:18:29.31Z</time></trkpt><trkpt lat="44.1673212" lon="11.3349368"><ele>868.0</ele><time>2026-04-25T10:18:30.321Z</time></trkpt><trkpt lat="44.1674129" lon="11.3348534"><ele>868.0</ele><time>2026-04-25T10:18:31.347Z</time></trkpt><trkpt lat="44.1674893" lon="11.3347446"><ele>868.8</ele><time>2026-04-25T10:18:32.326Z</time></trkpt><trkpt lat="44.1675361" lon="11.3346364"><ele>869.5999999999999</ele><time>2026-04-25T10:18:33.313Z</time></trkpt><trkpt lat="44.1675243" lon="11.3344885"><ele>870.4000000000001</ele><time>2026-04-25T10:18:34.324Z</time></trkpt><trkpt lat="44.1674834" lon="11.3343358"><ele>871.2</ele><time>2026-04-25T10:18:35.323Z</time></trkpt><trkpt lat="44.1674157" lon="11.3341937"><ele>872.0</ele><time>2026-04-25T10:18:36.316Z</time></trkpt><trkpt lat="44.1673493" lon="11.3340469"><ele>872.0</ele><time>2026-04-25T10:18:37.315Z</time></trkpt><trkpt lat="44.1672869" lon="11.3338996"><ele>872.0</ele><time>2026-04-25T10:18:38.3Z</time></trkpt><trkpt lat="44.1672197" lon="11.3337589"><ele>872.0</ele><time>2026-04-25T10:18:39.305Z</time></trkpt><trkpt lat="44.1671808" lon="11.3336262"><ele>872.0</ele><time>2026-04-25T10:18:40.315Z</time></trkpt><trkpt lat="44.1671819" lon="11.3334757"><ele>874.25</ele><time>2026-04-25T10:18:41.321Z</time></trkpt><trkpt lat="44.1672296" lon="11.3333234"><ele>876.5</ele><time>2026-04-25T10:18:42.308Z</time></trkpt><trkpt lat="44.1673153" lon="11.333175"><ele>878.75</ele><time>2026-04-25T10:18:43.312Z</time></trkpt><trkpt lat="44.1674155" lon="11.333033"><ele>881.0</ele><time>2026-04-25T10:18:44.319Z</time></trkpt><trkpt lat="44.1675926" lon="11.3327578"><ele>883.5</ele><time>2026-04-25T10:18:46.325Z</time></trkpt><trkpt lat="44.167667" lon="11.3326376"><ele>886.0</ele><time>2026-04-25T10:18:47.315Z</time></trkpt><trkpt lat="44.167753" lon="11.332564"><ele>888.5</ele><time>2026-04-25T10:18:48.322Z</time></trkpt><trkpt lat="44.1678762" lon="11.3325161"><ele>891.0</ele><time>2026-04-25T10:18:49.326Z</time></trkpt><trkpt lat="44.1680105" lon="11.332541"><ele>891.0</ele><time>2026-04-25T10:18:50.312Z</time></trkpt><trkpt lat="44.1681506" lon="11.3325952"><ele>891.0</ele><time>2026-04-25T10:18:51.328Z</time></trkpt><trkpt lat="44.1683028" lon="11.3326537"><ele>891.0</ele><time>2026-04-25T10:18:52.32Z</time></trkpt><trkpt lat="44.1684858" lon="11.3327113"><ele>896.3333333333333</ele><time>2026-04-25T10:18:53.331Z</time></trkpt><trkpt lat="44.1686945" lon="11.3327693"><ele>901.6666666666666</ele><time>2026-04-25T10:18:54.324Z</time></trkpt><trkpt lat="44.1689008" lon="11.332839"><ele>907.0</ele><time>2026-04-25T10:18:55.326Z</time></trkpt><trkpt lat="44.1690854" lon="11.3328913"><ele>910.6666666666666</ele><time>2026-04-25T10:18:56.334Z</time></trkpt><trkpt lat="44.1692575" lon="11.3329124"><ele>914.3333333333333</ele><time>2026-04-25T10:18:57.32Z</time></trkpt><trkpt lat="44.1694479" lon="11.3328816"><ele>918.0</ele><time>2026-04-25T10:18:58.343Z</time></trkpt><trkpt lat="44.1696452" lon="11.332804"><ele>918.0</ele><time>2026-04-25T10:18:59.327Z</time></trkpt><trkpt lat="44.1698408" lon="11.3327116"><ele>918.0</ele><time>2026-04-25T10:19:00.3Z</time></trkpt><trkpt lat="44.1700134" lon="11.3326253"><ele>918.0</ele><time>2026-04-25T10:19:01.328Z</time></trkpt><trkpt lat="44.1701851" lon="11.3325576"><ele>919.75</ele><time>2026-04-25T10:19:02.329Z</time></trkpt><trkpt lat="44.1703406" lon="11.332512"><ele>921.5</ele><time>2026-04-25T10:19:03.315Z</time></trkpt><trkpt lat="44.1704868" lon="11.3325143"><ele>923.25</ele><time>2026-04-25T10:19:04.325Z</time></trkpt><trkpt lat="44.1706051" lon="11.3326054"><ele>925.0</ele><time>2026-04-25T10:19:05.314Z</time></trkpt><trkpt lat="44.1706903" lon="11.3327691"><ele>925.3333333333333</ele><time>2026-04-25T10:19:06.305Z</time></trkpt><trkpt lat="44.1707592" lon="11.3329606"><ele>925.6666666666667</ele><time>2026-04-25T10:19:07.325Z</time></trkpt><trkpt lat="44.170811" lon="11.333178"><ele>926.0</ele><time>2026-04-25T10:19:08.336Z</time></trkpt><trkpt lat="44.1708478" lon="11.3334259"><ele>926.0</ele><time>2026-04-25T10:19:09.326Z</time></trkpt><trkpt lat="44.1708773" lon="11.3336643"><ele>926.0</ele><time>2026-04-25T10:19:10.323Z</time></trkpt><trkpt lat="44.170919" lon="11.3338972"><ele>926.0</ele><time>2026-04-25T10:19:11.325Z</time></trkpt><trkpt lat="44.1709972" lon="11.3341065"><ele>925.6666666666667</ele><time>2026-04-25T10:19:12.314Z</time></trkpt><trkpt lat="44.1711107" lon="11.3343001"><ele>925.3333333333333</ele><time>2026-04-25T10:19:13.324Z</time></trkpt><trkpt lat="44.1712454" lon="11.3345002"><ele>925.0</ele><time>2026-04-25T10:19:14.314Z</time></trkpt><trkpt lat="44.1713702" lon="11.3347158"><ele>924.3333333333333</ele><time>2026-04-25T10:19:15.319Z</time></trkpt><trkpt lat="44.1714992" lon="11.3349446"><ele>923.6666666666667</ele><time>2026-04-25T10:19:16.327Z</time></trkpt><trkpt lat="44.1716155" lon="11.3351862"><ele>923.0</ele><time>2026-04-25T10:19:17.333Z</time></trkpt><trkpt lat="44.171723" lon="11.3354315"><ele>928.6666666666667</ele><time>2026-04-25T10:19:18.325Z</time></trkpt><trkpt lat="44.1718272" lon="11.3356765"><ele>934.3333333333333</ele><time>2026-04-25T10:19:19.326Z</time></trkpt><trkpt lat="44.1719209" lon="11.3358973"><ele>940.0</ele><time>2026-04-25T10:19:20.328Z</time></trkpt><trkpt lat="44.1720092" lon="11.3360899"><ele>940.0</ele><time>2026-04-25T10:19:21.321Z</time></trkpt><trkpt lat="44.1720926" lon="11.3362823"><ele>940.0</ele><time>2026-04-25T10:19:22.328Z</time></trkpt><trkpt lat="44.1721607" lon="11.3364754"><ele>940.0</ele><time>2026-04-25T10:19:23.339Z</time></trkpt><trkpt lat="44.1722054" lon="11.3366596"><ele>939.5</ele><time>2026-04-25T10:19:24.337Z</time></trkpt><trkpt lat="44.1722332" lon="11.3368484"><ele>939.0</ele><time>2026-04-25T10:19:25.328Z</time></trkpt><trkpt lat="44.1722393" lon="11.3370344"><ele>938.5</ele><time>2026-04-25T10:19:26.323Z</time></trkpt><trkpt lat="44.172254" lon="11.3372097"><ele>938.0</ele><time>2026-04-25T10:19:27.317Z</time></trkpt><trkpt lat="44.1722842" lon="11.3373641"><ele>938.0</ele><time>2026-04-25T10:19:28.335Z</time></trkpt><trkpt lat="44.1723377" lon="11.3375058"><ele>938.0</ele><time>2026-04-25T10:19:29.331Z</time></trkpt><trkpt lat="44.1723868" lon="11.3376399"><ele>938.0</ele><time>2026-04-25T10:19:30.313Z</time></trkpt><trkpt lat="44.1724408" lon="11.3377731"><ele>938.0</ele><time>2026-04-25T10:19:31.32Z</time></trkpt><trkpt lat="44.1724857" lon="11.3378948"><ele>938.0</ele><time>2026-04-25T10:19:32.329Z</time></trkpt><trkpt lat="44.1725334" lon="11.3380013"><ele>941.8333333333334</ele><time>2026-04-25T10:19:33.331Z</time></trkpt><trkpt lat="44.1725724" lon="11.3380981"><ele>945.6666666666667</ele><time>2026-04-25T10:19:34.317Z</time></trkpt><trkpt lat="44.1726158" lon="11.3381815"><ele>949.5</ele><time>2026-04-25T10:19:35.316Z</time></trkpt><trkpt lat="44.1726735" lon="11.3382939"><ele>953.3333333333333</ele><time>2026-04-25T10:19:37.323Z</time></trkpt><trkpt lat="44.172703" lon="11.3383918"><ele>957.1666666666666</ele><time>2026-04-25T10:19:53.322Z</time></trkpt><trkpt lat="44.1727587" lon="11.3384769"><ele>961.0</ele><time>2026-04-25T10:19:55.299Z</time></trkpt><trkpt lat="44.172793" lon="11.3385515"><ele>961.0</ele><time>2026-04-25T10:19:57.305Z</time></trkpt><trkpt lat="44.1728391" lon="11.3386391"><ele>960.9999999999999</ele><time>2026-04-25T10:20:01.321Z</time></trkpt><trkpt lat="44.1728781" lon="11.338715"><ele>961.0</ele><time>2026-04-25T10:20:04.316Z</time></trkpt><trkpt lat="44.1729396" lon="11.338774"><ele>961.0</ele><time>2026-04-25T10:20:08.311Z</time></trkpt><trkpt lat="44.1729771" lon="11.3386883"><ele>960.9999999999999</ele><time>2026-04-25T10:20:13.303Z</time></trkpt><trkpt lat="44.1730058" lon="11.3386069"><ele>961.0</ele><time>2026-04-25T10:20:17.314Z</time></trkpt><trkpt lat="44.1730641" lon="11.3385622"><ele>961.0</ele><time>2026-04-25T10:20:24.31Z</time></trkpt><trkpt lat="44.1730739" lon="11.3384665"><ele>961.0</ele><time>2026-04-25T10:26:28.312Z</time></trkpt><trkpt lat="44.1730869" lon="11.3383799"><ele>961.0</ele><time>2026-04-25T10:26:34.242Z</time></trkpt><trkpt lat="44.1730273" lon="11.3383421"><ele>961.0</ele><time>2026-04-25T10:26:42.325Z</time></trkpt><trkpt lat="44.172969" lon="11.3383049"><ele>961.0</ele><time>2026-04-25T10:26:49.322Z</time></trkpt><trkpt lat="44.1729675" lon="11.3382136"><ele>961.0</ele><time>2026-04-25T10:27:54.307Z</time></trkpt><trkpt lat="44.1730009" lon="11.3381018"><ele>961.0</ele><time>2026-04-25T10:31:59.306Z</time></trkpt></trkseg><trkseg><trkpt lat="44.1729841" lon="11.338217"><ele>961.0</ele><time>2026-04-25T10:58:31.282Z</time></trkpt><trkpt lat="44.1729912" lon="11.3383122"><ele>960.9999999999999</ele><time>2026-04-25T10:58:45.287Z</time></trkpt><trkpt lat="44.1729573" lon="11.3383882"><ele>961.0</ele><time>2026-04-25T10:58:52.345Z</time></trkpt><trkpt lat="44.1729312" lon="11.3384722"><ele>961.0</ele><time>2026-04-25T10:59:01.336Z</time></trkpt><trkpt lat="44.1729095" lon="11.3385601"><ele>960.9999999999999</ele><time>2026-04-25T10:59:08.33Z</time></trkpt><trkpt lat="44.1728635" lon="11.3386237"><ele>961.0</ele><time>2026-04-25T10:59:17.328Z</time></trkpt><trkpt lat="44.1728215" lon="11.3386975"><ele>961.0</ele><time>2026-04-25T10:59:35.322Z</time></trkpt><trkpt lat="44.1728408" lon="11.3387867"><ele>961.0</ele><time>2026-04-25T10:59:45.323Z</time></trkpt><trkpt lat="44.172793" lon="11.3388527"><ele>960.9999999999999</ele><time>2026-04-25T10:59:55.338Z</time></trkpt><trkpt lat="44.1727356" lon="11.338894"><ele>961.0</ele><time>2026-04-25T11:00:06.318Z</time></trkpt><trkpt lat="44.1727215" lon="11.3389817"><ele>961.0</ele><time>2026-04-25T11:00:20.137Z</time></trkpt><trkpt lat="44.1727682" lon="11.3389205"><ele>960.9999999999999</ele><time>2026-04-25T11:00:41.322Z</time></trkpt><trkpt lat="44.1728002" lon="11.3388442"><ele>961.0</ele><time>2026-04-25T11:01:14.332Z</time></trkpt><trkpt lat="44.1728584" lon="11.3387344"><ele>961.0</ele><time>2026-04-25T11:04:35.348Z</time></trkpt><trkpt lat="44.1729226" lon="11.3387522"><ele>960.9999999999999</ele><time>2026-04-25T11:04:43.339Z</time></trkpt><trkpt lat="44.1729806" lon="11.3387069"><ele>961.0</ele><time>2026-04-25T11:04:52.34Z</time></trkpt><trkpt lat="44.1730153" lon="11.3386316"><ele>961.0</ele><time>2026-04-25T11:05:00.253Z</time></trkpt><trkpt lat="44.1730829" lon="11.3384997"><ele>961.0</ele><time>2026-04-25T11:11:50.337Z</time></trkpt><trkpt lat="44.1731361" lon="11.3384215"><ele>960.9999999999999</ele><time>2026-04-25T11:11:51.321Z</time></trkpt><trkpt lat="44.173205" lon="11.3383728"><ele>961.0</ele><time>2026-04-25T11:11:52.335Z</time></trkpt><trkpt lat="44.1732874" lon="11.3383317"><ele>961.8</ele><time>2026-04-25T11:11:53.32Z</time></trkpt><trkpt lat="44.1733737" lon="11.3382829"><ele>962.5999999999999</ele><time>2026-04-25T11:11:54.338Z</time></trkpt><trkpt lat="44.1734595" lon="11.3382033"><ele>963.4</ele><time>2026-04-25T11:11:55.328Z</time></trkpt><trkpt lat="44.173542" lon="11.3380779"><ele>964.2</ele><time>2026-04-25T11:11:56.336Z</time></trkpt><trkpt lat="44.1736066" lon="11.3379241"><ele>965.0</ele><time>2026-04-25T11:11:57.319Z</time></trkpt><trkpt lat="44.1736737" lon="11.337767"><ele>966.0</ele><time>2026-04-25T11:11:58.309Z</time></trkpt><trkpt lat="44.1737481" lon="11.3376041"><ele>967.0</ele><time>2026-04-25T11:11:59.311Z</time></trkpt><trkpt lat="44.1738357" lon="11.33745"><ele>968.0</ele><time>2026-04-25T11:12:00.322Z</time></trkpt><trkpt lat="44.1739523" lon="11.3373173"><ele>969.0</ele><time>2026-04-25T11:12:01.34Z</time></trkpt><trkpt lat="44.1740922" lon="11.3371878"><ele>965.6666666666667</ele><time>2026-04-25T11:12:02.338Z</time></trkpt><trkpt lat="44.1742515" lon="11.3370581"><ele>962.3333333333334</ele><time>2026-04-25T11:12:03.32Z</time></trkpt><trkpt lat="44.1744158" lon="11.336932"><ele>959.0</ele><time>2026-04-25T11:12:04.317Z</time></trkpt><trkpt lat="44.1745647" lon="11.3368036"><ele>959.0</ele><time>2026-04-25T11:12:05.322Z</time></trkpt><trkpt lat="44.1746986" lon="11.3366936"><ele>959.0</ele><time>2026-04-25T11:12:06.334Z</time></trkpt><trkpt lat="44.1748287" lon="11.3366212"><ele>959.0</ele><time>2026-04-25T11:12:07.316Z</time></trkpt><trkpt lat="44.1749505" lon="11.3365868"><ele>959.0</ele><time>2026-04-25T11:12:08.32Z</time></trkpt><trkpt lat="44.1750702" lon="11.3366034"><ele>957.25</ele><time>2026-04-25T11:12:09.312Z</time></trkpt><trkpt lat="44.1751985" lon="11.3366789"><ele>955.5</ele><time>2026-04-25T11:12:10.321Z</time></trkpt><trkpt lat="44.1753289" lon="11.3367848"><ele>953.75</ele><time>2026-04-25T11:12:11.319Z</time></trkpt><trkpt lat="44.1754474" lon="11.336917"><ele>952.0</ele><time>2026-04-25T11:12:12.334Z</time></trkpt><trkpt lat="44.1755508" lon="11.337062"><ele>950.75</ele><time>2026-04-25T11:12:13.322Z</time></trkpt><trkpt lat="44.175633" lon="11.3372231"><ele>949.5</ele><time>2026-04-25T11:12:14.329Z</time></trkpt><trkpt lat="44.1756968" lon="11.3373965"><ele>948.25</ele><time>2026-04-25T11:12:15.302Z</time></trkpt><trkpt lat="44.1757693" lon="11.3375627"><ele>947.0</ele><time>2026-04-25T11:12:16.337Z</time></trkpt><trkpt lat="44.1758604" lon="11.3377091"><ele>947.0</ele><time>2026-04-25T11:12:17.321Z</time></trkpt><trkpt lat="44.1759883" lon="11.3378338"><ele>947.0</ele><time>2026-04-25T11:12:18.324Z</time></trkpt><trkpt lat="44.1761314" lon="11.3379214"><ele>947.0</ele><time>2026-04-25T11:12:19.325Z</time></trkpt><trkpt lat="44.1762776" lon="11.3379899"><ele>942.75</ele><time>2026-04-25T11:12:20.332Z</time></trkpt><trkpt lat="44.1764158" lon="11.3380565"><ele>938.5</ele><time>2026-04-25T11:12:21.31Z</time></trkpt><trkpt lat="44.1765349" lon="11.3381259"><ele>934.25</ele><time>2026-04-25T11:12:22.325Z</time></trkpt><trkpt lat="44.1766458" lon="11.338184"><ele>930.0</ele><time>2026-04-25T11:12:23.324Z</time></trkpt><trkpt lat="44.1767479" lon="11.3382307"><ele>929.8</ele><time>2026-04-25T11:12:24.323Z</time></trkpt><trkpt lat="44.1768413" lon="11.3382675"><ele>929.6</ele><time>2026-04-25T11:12:25.337Z</time></trkpt><trkpt lat="44.1769267" lon="11.3382594"><ele>929.4000000000001</ele><time>2026-04-25T11:12:26.318Z</time></trkpt><trkpt lat="44.177012" lon="11.33821"><ele>929.2</ele><time>2026-04-25T11:12:27.332Z</time></trkpt><trkpt lat="44.1770912" lon="11.338127"><ele>929.0</ele><time>2026-04-25T11:12:28.325Z</time></trkpt><trkpt lat="44.1771619" lon="11.3380309"><ele>930.8000000000001</ele><time>2026-04-25T11:12:29.334Z</time></trkpt><trkpt lat="44.1772187" lon="11.3379226"><ele>932.6000000000001</ele><time>2026-04-25T11:12:30.319Z</time></trkpt><trkpt lat="44.1772603" lon="11.3378044"><ele>934.4</ele><time>2026-04-25T11:12:31.334Z</time></trkpt><trkpt lat="44.1772926" lon="11.3376648"><ele>936.2</ele><time>2026-04-25T11:12:32.331Z</time></trkpt><trkpt lat="44.177306" lon="11.3374977"><ele>938.0</ele><time>2026-04-25T11:12:33.319Z</time></trkpt><trkpt lat="44.1772727" lon="11.3373293"><ele>940.25</ele><time>2026-04-25T11:12:34.298Z</time></trkpt><trkpt lat="44.1772156" lon="11.3371805"><ele>942.5</ele><time>2026-04-25T11:12:35.321Z</time></trkpt><trkpt lat="44.1771955" lon="11.3370269"><ele>944.75</ele><time>2026-04-25T11:12:36.333Z</time></trkpt><trkpt lat="44.1772423" lon="11.33687"><ele>947.0</ele><time>2026-04-25T11:12:37.316Z</time></trkpt><trkpt lat="44.1773405" lon="11.3367286"><ele>944.75</ele><time>2026-04-25T11:12:38.308Z</time></trkpt><trkpt lat="44.1774485" lon="11.3366157"><ele>942.5</ele><time>2026-04-25T11:12:39.31Z</time></trkpt><trkpt lat="44.1775512" lon="11.3365012"><ele>940.25</ele><time>2026-04-25T11:12:40.292Z</time></trkpt><trkpt lat="44.1776573" lon="11.3363961"><ele>938.0</ele><time>2026-04-25T11:12:41.311Z</time></trkpt><trkpt lat="44.1777655" lon="11.3363024"><ele>938.0</ele><time>2026-04-25T11:12:42.312Z</time></trkpt><trkpt lat="44.1778811" lon="11.3362243"><ele>938.0</ele><time>2026-04-25T11:12:43.318Z</time></trkpt><trkpt lat="44.1779967" lon="11.336166"><ele>938.0</ele><time>2026-04-25T11:12:44.328Z</time></trkpt><trkpt lat="44.1781109" lon="11.3361524"><ele>938.0</ele><time>2026-04-25T11:12:45.328Z</time></trkpt><trkpt lat="44.1782332" lon="11.3362003"><ele>934.5</ele><time>2026-04-25T11:12:46.325Z</time></trkpt><trkpt lat="44.1783561" lon="11.3363072"><ele>931.0</ele><time>2026-04-25T11:12:47.321Z</time></trkpt><trkpt lat="44.1784561" lon="11.3364402"><ele>927.5</ele><time>2026-04-25T11:12:48.31Z</time></trkpt><trkpt lat="44.1785461" lon="11.3365836"><ele>924.0</ele><time>2026-04-25T11:12:49.314Z</time></trkpt><trkpt lat="44.1786311" lon="11.3367188"><ele>921.4000000000001</ele><time>2026-04-25T11:12:50.326Z</time></trkpt><trkpt lat="44.1787234" lon="11.3368102"><ele>918.8000000000001</ele><time>2026-04-25T11:12:51.326Z</time></trkpt><trkpt lat="44.1788226" lon="11.3368425"><ele>916.1999999999999</ele><time>2026-04-25T11:12:52.334Z</time></trkpt><trkpt lat="44.1789275" lon="11.3368031"><ele>913.5999999999999</ele><time>2026-04-25T11:12:53.316Z</time></trkpt><trkpt lat="44.1790294" lon="11.3367076"><ele>911.0</ele><time>2026-04-25T11:12:54.33Z</time></trkpt><trkpt lat="44.1791061" lon="11.3365776"><ele>908.25</ele><time>2026-04-25T11:12:55.313Z</time></trkpt><trkpt lat="44.1791646" lon="11.3364334"><ele>905.5</ele><time>2026-04-25T11:12:56.298Z</time></trkpt><trkpt lat="44.179196" lon="11.3362642"><ele>902.75</ele><time>2026-04-25T11:12:57.308Z</time></trkpt><trkpt lat="44.1791881" lon="11.3361046"><ele>900.0</ele><time>2026-04-25T11:12:58.313Z</time></trkpt><trkpt lat="44.1791739" lon="11.3359466"><ele>900.0</ele><time>2026-04-25T11:12:59.322Z</time></trkpt><trkpt lat="44.1791695" lon="11.3357892"><ele>900.0</ele><time>2026-04-25T11:13:00.325Z</time></trkpt><trkpt lat="44.1791799" lon="11.3356359"><ele>900.0</ele><time>2026-04-25T11:13:01.313Z</time></trkpt><trkpt lat="44.1792135" lon="11.3355057"><ele>900.0</ele><time>2026-04-25T11:13:02.32Z</time></trkpt><trkpt lat="44.1792936" lon="11.3353856"><ele>900.0</ele><time>2026-04-25T11:13:03.304Z</time></trkpt><trkpt lat="44.1794234" lon="11.3352877"><ele>899.0</ele><time>2026-04-25T11:13:04.305Z</time></trkpt><trkpt lat="44.1795785" lon="11.3352113"><ele>898.0</ele><time>2026-04-25T11:13:05.318Z</time></trkpt><trkpt lat="44.1797129" lon="11.3351409"><ele>897.0</ele><time>2026-04-25T11:13:06.327Z</time></trkpt><trkpt lat="44.1798431" lon="11.3350758"><ele>896.0</ele><time>2026-04-25T11:13:07.325Z</time></trkpt><trkpt lat="44.1799766" lon="11.3350218"><ele>896.0</ele><time>2026-04-25T11:13:08.314Z</time></trkpt><trkpt lat="44.1801181" lon="11.334979"><ele>896.0</ele><time>2026-04-25T11:13:09.313Z</time></trkpt><trkpt lat="44.1802682" lon="11.3349461"><ele>896.0</ele><time>2026-04-25T11:13:10.317Z</time></trkpt><trkpt lat="44.1804216" lon="11.3349361"><ele>896.0</ele><time>2026-04-25T11:13:11.329Z</time></trkpt><trkpt lat="44.1805739" lon="11.3349303"><ele>896.0</ele><time>2026-04-25T11:13:12.328Z</time></trkpt><trkpt lat="44.1807193" lon="11.3349252"><ele>896.0</ele><time>2026-04-25T11:13:13.33Z</time></trkpt><trkpt lat="44.1808593" lon="11.3349303"><ele>896.0</ele><time>2026-04-25T11:13:14.319Z</time></trkpt><trkpt lat="44.1809962" lon="11.3349598"><ele>895.25</ele><time>2026-04-25T11:13:15.313Z</time></trkpt><trkpt lat="44.1811259" lon="11.3350228"><ele>894.5</ele><time>2026-04-25T11:13:16.321Z</time></trkpt><trkpt lat="44.181252" lon="11.3351066"><ele>893.75</ele><time>2026-04-25T11:13:17.339Z</time></trkpt><trkpt lat="44.1813581" lon="11.3352336"><ele>893.0</ele><time>2026-04-25T11:13:18.331Z</time></trkpt><trkpt lat="44.1814551" lon="11.3353573"><ele>892.75</ele><time>2026-04-25T11:13:19.331Z</time></trkpt><trkpt lat="44.1815511" lon="11.3354709"><ele>892.5</ele><time>2026-04-25T11:13:20.327Z</time></trkpt><trkpt lat="44.1816527" lon="11.3355532"><ele>892.25</ele><time>2026-04-25T11:13:21.318Z</time></trkpt><trkpt lat="44.1817823" lon="11.3355705"><ele>892.0</ele><time>2026-04-25T11:13:22.336Z</time></trkpt><trkpt lat="44.1819282" lon="11.3355549"><ele>892.0</ele><time>2026-04-25T11:13:23.32Z</time></trkpt><trkpt lat="44.1820693" lon="11.3355248"><ele>892.0</ele><time>2026-04-25T11:13:24.323Z</time></trkpt><trkpt lat="44.1822123" lon="11.335481"><ele>892.0</ele><time>2026-04-25T11:13:25.32Z</time></trkpt><trkpt lat="44.1823578" lon="11.3354087"><ele>892.0</ele><time>2026-04-25T11:13:26.333Z</time></trkpt><trkpt lat="44.1824896" lon="11.335338"><ele>890.0</ele><time>2026-04-25T11:13:27.323Z</time></trkpt><trkpt lat="44.1826336" lon="11.3352767"><ele>888.0</ele><time>2026-04-25T11:13:28.321Z</time></trkpt><trkpt lat="44.1827804" lon="11.3352244"><ele>886.0</ele><time>2026-04-25T11:13:29.322Z</time></trkpt><trkpt lat="44.1829334" lon="11.3352147"><ele>886.0</ele><time>2026-04-25T11:13:30.325Z</time></trkpt><trkpt lat="44.183085" lon="11.3352402"><ele>886.0</ele><time>2026-04-25T11:13:31.333Z</time></trkpt><trkpt lat="44.1832377" lon="11.3352726"><ele>886.0</ele><time>2026-04-25T11:13:32.324Z</time></trkpt><trkpt lat="44.1834021" lon="11.3352989"><ele>883.6666666666666</ele><time>2026-04-25T11:13:33.32Z</time></trkpt><trkpt lat="44.1835721" lon="11.3353108"><ele>881.3333333333333</ele><time>2026-04-25T11:13:34.299Z</time></trkpt><trkpt lat="44.1837375" lon="11.3352936"><ele>879.0</ele><time>2026-04-25T11:13:35.333Z</time></trkpt><trkpt lat="44.1839074" lon="11.3352368"><ele>875.0</ele><time>2026-04-25T11:13:36.336Z</time></trkpt><trkpt lat="44.1840965" lon="11.3351567"><ele>871.0</ele><time>2026-04-25T11:13:37.321Z</time></trkpt><trkpt lat="44.1842738" lon="11.3350649"><ele>867.0</ele><time>2026-04-25T11:13:38.324Z</time></trkpt><trkpt lat="44.1844424" lon="11.3349617"><ele>867.0</ele><time>2026-04-25T11:13:39.337Z</time></trkpt><trkpt lat="44.1846181" lon="11.3348451"><ele>867.0</ele><time>2026-04-25T11:13:40.305Z</time></trkpt><trkpt lat="44.1847747" lon="11.3347153"><ele>867.0</ele><time>2026-04-25T11:13:41.326Z</time></trkpt><trkpt lat="44.1849212" lon="11.3345874"><ele>868.5</ele><time>2026-04-25T11:13:42.318Z</time></trkpt><trkpt lat="44.1850497" lon="11.3344699"><ele>870.0</ele><time>2026-04-25T11:13:43.303Z</time></trkpt><trkpt lat="44.1851721" lon="11.3343779"><ele>871.5</ele><time>2026-04-25T11:13:44.324Z</time></trkpt><trkpt lat="44.185294" lon="11.3343316"><ele>873.0</ele><time>2026-04-25T11:13:45.331Z</time></trkpt><trkpt lat="44.1854212" lon="11.3343165"><ele>873.0</ele><time>2026-04-25T11:13:46.308Z</time></trkpt><trkpt lat="44.1855787" lon="11.3343447"><ele>873.0</ele><time>2026-04-25T11:13:47.315Z</time></trkpt><trkpt lat="44.1857363" lon="11.3343939"><ele>873.0</ele><time>2026-04-25T11:13:48.325Z</time></trkpt><trkpt lat="44.1858792" lon="11.3344308"><ele>869.0</ele><time>2026-04-25T11:13:49.308Z</time></trkpt><trkpt lat="44.1860171" lon="11.3344055"><ele>865.0</ele><time>2026-04-25T11:13:50.305Z</time></trkpt><trkpt lat="44.1861457" lon="11.3343326"><ele>861.0</ele><time>2026-04-25T11:13:51.319Z</time></trkpt><trkpt lat="44.1862506" lon="11.3342007"><ele>857.0</ele><time>2026-04-25T11:13:52.307Z</time></trkpt><trkpt lat="44.1863076" lon="11.3340346"><ele>857.0</ele><time>2026-04-25T11:13:53.306Z</time></trkpt><trkpt lat="44.1863757" lon="11.3338932"><ele>857.0</ele><time>2026-04-25T11:13:54.3Z</time></trkpt><trkpt lat="44.1864763" lon="11.3337722"><ele>857.0</ele><time>2026-04-25T11:13:55.301Z</time></trkpt><trkpt lat="44.1865975" lon="11.3337085"><ele>857.0</ele><time>2026-04-25T11:13:56.302Z</time></trkpt><trkpt lat="44.1867413" lon="11.3336623"><ele>855.5</ele><time>2026-04-25T11:13:57.312Z</time></trkpt><trkpt lat="44.1868765" lon="11.3336429"><ele>854.0</ele><time>2026-04-25T11:13:58.318Z</time></trkpt><trkpt lat="44.1870015" lon="11.3336346"><ele>852.5</ele><time>2026-04-25T11:13:59.312Z</time></trkpt><trkpt lat="44.1871202" lon="11.333612"><ele>851.0</ele><time>2026-04-25T11:14:00.335Z</time></trkpt><trkpt lat="44.1872257" lon="11.3335439"><ele>851.0</ele><time>2026-04-25T11:14:01.318Z</time></trkpt><trkpt lat="44.1873128" lon="11.3334173"><ele>851.0</ele><time>2026-04-25T11:14:02.328Z</time></trkpt><trkpt lat="44.1873902" lon="11.3332667"><ele>851.0</ele><time>2026-04-25T11:14:03.3Z</time></trkpt><trkpt lat="44.1874741" lon="11.3331264"><ele>851.0</ele><time>2026-04-25T11:14:04.327Z</time></trkpt><trkpt lat="44.1875566" lon="11.3329971"><ele>851.25</ele><time>2026-04-25T11:14:05.286Z</time></trkpt><trkpt lat="44.1876579" lon="11.3329031"><ele>851.5</ele><time>2026-04-25T11:14:06.297Z</time></trkpt><trkpt lat="44.1877984" lon="11.3328653"><ele>851.75</ele><time>2026-04-25T11:14:07.301Z</time></trkpt><trkpt lat="44.1879417" lon="11.3328534"><ele>852.0</ele><time>2026-04-25T11:14:08.302Z</time></trkpt><trkpt lat="44.1880771" lon="11.3328576"><ele>851.0</ele><time>2026-04-25T11:14:09.288Z</time></trkpt><trkpt lat="44.1882179" lon="11.332888"><ele>850.0</ele><time>2026-04-25T11:14:10.306Z</time></trkpt><trkpt lat="44.1883506" lon="11.3329408"><ele>849.0</ele><time>2026-04-25T11:14:11.305Z</time></trkpt><trkpt lat="44.1884876" lon="11.3330096"><ele>848.0</ele><time>2026-04-25T11:14:12.307Z</time></trkpt><trkpt lat="44.1886128" lon="11.3330771"><ele>844.0</ele><time>2026-04-25T11:14:13.316Z</time></trkpt><trkpt lat="44.1887517" lon="11.3331432"><ele>840.0</ele><time>2026-04-25T11:14:14.323Z</time></trkpt><trkpt lat="44.1888904" lon="11.3332131"><ele>836.0</ele><time>2026-04-25T11:14:15.297Z</time></trkpt><trkpt lat="44.1890285" lon="11.3333131"><ele>836.0</ele><time>2026-04-25T11:14:16.286Z</time></trkpt><trkpt lat="44.1891519" lon="11.3334326"><ele>836.0</ele><time>2026-04-25T11:14:17.316Z</time></trkpt><trkpt lat="44.1892552" lon="11.3336031"><ele>836.0</ele><time>2026-04-25T11:14:18.301Z</time></trkpt><trkpt lat="44.1893214" lon="11.3338106"><ele>830.0</ele><time>2026-04-25T11:14:19.29Z</time></trkpt><trkpt lat="44.1893907" lon="11.3340072"><ele>824.0</ele><time>2026-04-25T11:14:20.303Z</time></trkpt><trkpt lat="44.1894599" lon="11.3342044"><ele>818.0</ele><time>2026-04-25T11:14:21.285Z</time></trkpt><trkpt lat="44.1895337" lon="11.3343928"><ele>818.0</ele><time>2026-04-25T11:14:22.309Z</time></trkpt><trkpt lat="44.1895972" lon="11.334561"><ele>818.0</ele><time>2026-04-25T11:14:23.325Z</time></trkpt><trkpt lat="44.1896441" lon="11.3346824"><ele>818.0</ele><time>2026-04-25T11:14:24.321Z</time></trkpt><trkpt lat="44.1897083" lon="11.3347909"><ele>818.0</ele><time>2026-04-25T11:14:26.322Z</time></trkpt><trkpt lat="44.1897387" lon="11.3348817"><ele>818.0</ele><time>2026-04-25T11:17:08.323Z</time></trkpt><trkpt lat="44.1898134" lon="11.3348534"><ele>816.3333333333334</ele><time>2026-04-25T11:17:12.309Z</time></trkpt><trkpt lat="44.1899251" lon="11.3348456"><ele>814.6666666666667</ele><time>2026-04-25T11:17:14.33Z</time></trkpt><trkpt lat="44.1899964" lon="11.3348247"><ele>813.0</ele><time>2026-04-25T11:17:15.312Z</time></trkpt><trkpt lat="44.1900704" lon="11.3348015"><ele>811.3333333333333</ele><time>2026-04-25T11:17:16.335Z</time></trkpt><trkpt lat="44.1901411" lon="11.334789"><ele>809.6666666666666</ele><time>2026-04-25T11:17:17.33Z</time></trkpt><trkpt lat="44.1902224" lon="11.3347693"><ele>808.0</ele><time>2026-04-25T11:17:18.332Z</time></trkpt><trkpt lat="44.1903389" lon="11.3347296"><ele>810.25</ele><time>2026-04-25T11:17:19.317Z</time></trkpt><trkpt lat="44.1904622" lon="11.334687"><ele>812.5</ele><time>2026-04-25T11:17:20.33Z</time></trkpt><trkpt lat="44.1906024" lon="11.3346513"><ele>814.75</ele><time>2026-04-25T11:17:21.343Z</time></trkpt><trkpt lat="44.1907464" lon="11.334613"><ele>817.0</ele><time>2026-04-25T11:17:22.299Z</time></trkpt><trkpt lat="44.1908851" lon="11.3345574"><ele>817.0</ele><time>2026-04-25T11:17:23.307Z</time></trkpt><trkpt lat="44.1910228" lon="11.3345056"><ele>817.0</ele><time>2026-04-25T11:17:24.339Z</time></trkpt><trkpt lat="44.1911565" lon="11.3344397"><ele>817.0</ele><time>2026-04-25T11:17:25.328Z</time></trkpt><trkpt lat="44.191284" lon="11.3343504"><ele>817.0</ele><time>2026-04-25T11:17:26.324Z</time></trkpt><trkpt lat="44.1914058" lon="11.3342422"><ele>812.5</ele><time>2026-04-25T11:17:27.329Z</time></trkpt><trkpt lat="44.1915174" lon="11.3341544"><ele>808.0</ele><time>2026-04-25T11:17:28.306Z</time></trkpt><trkpt lat="44.1916368" lon="11.3340747"><ele>803.5</ele><time>2026-04-25T11:17:29.313Z</time></trkpt><trkpt lat="44.1917584" lon="11.3339998"><ele>799.0</ele><time>2026-04-25T11:17:30.315Z</time></trkpt><trkpt lat="44.1918824" lon="11.3339324"><ele>800.75</ele><time>2026-04-25T11:17:31.323Z</time></trkpt><trkpt lat="44.1920074" lon="11.333871"><ele>802.5</ele><time>2026-04-25T11:17:32.324Z</time></trkpt><trkpt lat="44.1921371" lon="11.3337961"><ele>804.25</ele><time>2026-04-25T11:17:33.324Z</time></trkpt><trkpt lat="44.1922684" lon="11.333725"><ele>806.0</ele><time>2026-04-25T11:17:34.33Z</time></trkpt><trkpt lat="44.192397" lon="11.3336615"><ele>806.0</ele><time>2026-04-25T11:17:35.305Z</time></trkpt><trkpt lat="44.1925225" lon="11.3336115"><ele>806.0</ele><time>2026-04-25T11:17:36.317Z</time></trkpt><trkpt lat="44.1926386" lon="11.3335719"><ele>806.0</ele><time>2026-04-25T11:17:37.323Z</time></trkpt><trkpt lat="44.192741" lon="11.3335677"><ele>806.0</ele><time>2026-04-25T11:17:38.321Z</time></trkpt><trkpt lat="44.1928381" lon="11.3336336"><ele>806.0</ele><time>2026-04-25T11:17:39.322Z</time></trkpt><trkpt lat="44.1929231" lon="11.3337613"><ele>806.0</ele><time>2026-04-25T11:17:40.316Z</time></trkpt><trkpt lat="44.1930083" lon="11.3338843"><ele>806.0</ele><time>2026-04-25T11:17:41.308Z</time></trkpt><trkpt lat="44.1930864" lon="11.3340104"><ele>806.0</ele><time>2026-04-25T11:17:42.318Z</time></trkpt><trkpt lat="44.1931569" lon="11.3341287"><ele>802.0000000000001</ele><time>2026-04-25T11:17:43.306Z</time></trkpt><trkpt lat="44.1932079" lon="11.334242"><ele>798.0</ele><time>2026-04-25T11:17:44.305Z</time></trkpt><trkpt lat="44.1932513" lon="11.3343452"><ele>794.0</ele><time>2026-04-25T11:17:45.321Z</time></trkpt><trkpt lat="44.1933009" lon="11.3344222"><ele>790.0</ele><time>2026-04-25T11:17:46.322Z</time></trkpt><trkpt lat="44.1933756" lon="11.3344322"><ele>786.0000000000001</ele><time>2026-04-25T11:17:47.321Z</time></trkpt><trkpt lat="44.1934592" lon="11.3343958"><ele>782.0</ele><time>2026-04-25T11:17:48.304Z</time></trkpt><trkpt lat="44.1935408" lon="11.3343231"><ele>782.0</ele><time>2026-04-25T11:17:49.311Z</time></trkpt><trkpt lat="44.1936274" lon="11.3342265"><ele>782.0</ele><time>2026-04-25T11:17:50.307Z</time></trkpt><trkpt lat="44.1937073" lon="11.334118"><ele>782.0</ele><time>2026-04-25T11:17:51.305Z</time></trkpt><trkpt lat="44.1937861" lon="11.3340219"><ele>782.0</ele><time>2026-04-25T11:17:52.31Z</time></trkpt><trkpt lat="44.1938775" lon="11.3339279"><ele>782.0</ele><time>2026-04-25T11:17:53.304Z</time></trkpt><trkpt lat="44.1939872" lon="11.3338473"><ele>782.75</ele><time>2026-04-25T11:17:54.325Z</time></trkpt><trkpt lat="44.194105" lon="11.3337881"><ele>783.5</ele><time>2026-04-25T11:17:55.319Z</time></trkpt><trkpt lat="44.1942464" lon="11.3337264"><ele>784.25</ele><time>2026-04-25T11:17:56.321Z</time></trkpt><trkpt lat="44.1944062" lon="11.3336534"><ele>785.0</ele><time>2026-04-25T11:17:57.311Z</time></trkpt><trkpt lat="44.194572" lon="11.3336228"><ele>785.0</ele><time>2026-04-25T11:17:58.327Z</time></trkpt><trkpt lat="44.194753" lon="11.333633"><ele>785.0</ele><time>2026-04-25T11:17:59.308Z</time></trkpt><trkpt lat="44.1949303" lon="11.3336508"><ele>785.0</ele><time>2026-04-25T11:18:00.312Z</time></trkpt><trkpt lat="44.1951105" lon="11.3336788"><ele>785.6666666666667</ele><time>2026-04-25T11:18:01.314Z</time></trkpt><trkpt lat="44.1952922" lon="11.3337122"><ele>786.3333333333333</ele><time>2026-04-25T11:18:02.321Z</time></trkpt><trkpt lat="44.195482" lon="11.3337269"><ele>787.0</ele><time>2026-04-25T11:18:03.315Z</time></trkpt><trkpt lat="44.1956786" lon="11.333706"><ele>783.6666666666666</ele><time>2026-04-25T11:18:04.288Z</time></trkpt><trkpt lat="44.1958702" lon="11.3336532"><ele>780.3333333333333</ele><time>2026-04-25T11:18:05.336Z</time></trkpt><trkpt lat="44.1960726" lon="11.3335675"><ele>777.0</ele><time>2026-04-25T11:18:06.32Z</time></trkpt><trkpt lat="44.1962719" lon="11.333481"><ele>777.0</ele><time>2026-04-25T11:18:07.307Z</time></trkpt><trkpt lat="44.1964628" lon="11.3334105"><ele>777.0</ele><time>2026-04-25T11:18:08.313Z</time></trkpt><trkpt lat="44.1966397" lon="11.333375"><ele>777.0</ele><time>2026-04-25T11:18:09.301Z</time></trkpt><trkpt lat="44.1968088" lon="11.3333703"><ele>776.0</ele><time>2026-04-25T11:18:10.315Z</time></trkpt><trkpt lat="44.1969661" lon="11.3333665"><ele>775.0</ele><time>2026-04-25T11:18:11.303Z</time></trkpt><trkpt lat="44.1971172" lon="11.3333613"><ele>774.0</ele><time>2026-04-25T11:18:12.313Z</time></trkpt><trkpt lat="44.1972724" lon="11.3333098"><ele>773.0</ele><time>2026-04-25T11:18:13.319Z</time></trkpt><trkpt lat="44.1974259" lon="11.3332351"><ele>772.0</ele><time>2026-04-25T11:18:14.324Z</time></trkpt><trkpt lat="44.1975976" lon="11.3331859"><ele>771.0</ele><time>2026-04-25T11:18:15.313Z</time></trkpt><trkpt lat="44.1977761" lon="11.3331486"><ele>771.0</ele><time>2026-04-25T11:18:16.324Z</time></trkpt><trkpt lat="44.1979469" lon="11.333161"><ele>771.0</ele><time>2026-04-25T11:18:17.295Z</time></trkpt><trkpt lat="44.1981083" lon="11.3331924"><ele>771.0</ele><time>2026-04-25T11:18:18.313Z</time></trkpt><trkpt lat="44.198268" lon="11.3332263"><ele>771.25</ele><time>2026-04-25T11:18:19.317Z</time></trkpt><trkpt lat="44.1984137" lon="11.3332575"><ele>771.5</ele><time>2026-04-25T11:18:20.318Z</time></trkpt><trkpt lat="44.1985466" lon="11.3332813"><ele>771.75</ele><time>2026-04-25T11:18:21.318Z</time></trkpt><trkpt lat="44.1986686" lon="11.3332634"><ele>772.0</ele><time>2026-04-25T11:18:22.315Z</time></trkpt><trkpt lat="44.1987807" lon="11.3331854"><ele>775.6666666666666</ele><time>2026-04-25T11:18:23.314Z</time></trkpt><trkpt lat="44.1988851" lon="11.3330407"><ele>779.3333333333333</ele><time>2026-04-25T11:18:24.315Z</time></trkpt><trkpt lat="44.1989947" lon="11.3328726"><ele>783.0</ele><time>2026-04-25T11:18:25.326Z</time></trkpt><trkpt lat="44.1991142" lon="11.3326934"><ele>783.0</ele><time>2026-04-25T11:18:26.33Z</time></trkpt><trkpt lat="44.199241" lon="11.3325158"><ele>783.0</ele><time>2026-04-25T11:18:27.314Z</time></trkpt><trkpt lat="44.19936" lon="11.3323409"><ele>783.0</ele><time>2026-04-25T11:18:28.315Z</time></trkpt><trkpt lat="44.1994822" lon="11.3321717"><ele>787.25</ele><time>2026-04-25T11:18:29.342Z</time></trkpt><trkpt lat="44.1995693" lon="11.3319827"><ele>791.5</ele><time>2026-04-25T11:18:30.322Z</time></trkpt><trkpt lat="44.1996255" lon="11.3317878"><ele>795.75</ele><time>2026-04-25T11:18:31.3Z</time></trkpt><trkpt lat="44.1996511" lon="11.3316081"><ele>800.0</ele><time>2026-04-25T11:18:32.36Z</time></trkpt><trkpt lat="44.1996801" lon="11.3314625"><ele>799.4</ele><time>2026-04-25T11:18:33.306Z</time></trkpt><trkpt lat="44.1997364" lon="11.3313537"><ele>798.8</ele><time>2026-04-25T11:18:34.335Z</time></trkpt><trkpt lat="44.1998144" lon="11.3313029"><ele>798.2</ele><time>2026-04-25T11:18:35.314Z</time></trkpt><trkpt lat="44.1999128" lon="11.3313116"><ele>797.6</ele><time>2026-04-25T11:18:36.331Z</time></trkpt><trkpt lat="44.1999893" lon="11.3314001"><ele>797.0</ele><time>2026-04-25T11:18:37.313Z</time></trkpt><trkpt lat="44.2000405" lon="11.3315732"><ele>797.0</ele><time>2026-04-25T11:18:38.322Z</time></trkpt><trkpt lat="44.2000848" lon="11.3317359"><ele>797.0</ele><time>2026-04-25T11:18:39.332Z</time></trkpt><trkpt lat="44.2001647" lon="11.3318657"><ele>797.0</ele><time>2026-04-25T11:18:40.311Z</time></trkpt><trkpt lat="44.2002929" lon="11.3319469"><ele>797.0</ele><time>2026-04-25T11:18:41.306Z</time></trkpt><trkpt lat="44.2004265" lon="11.3320095"><ele>797.0</ele><time>2026-04-25T11:18:42.321Z</time></trkpt><trkpt lat="44.2005535" lon="11.332017"><ele>797.0</ele><time>2026-04-25T11:18:43.311Z</time></trkpt><trkpt lat="44.2006559" lon="11.3319657"><ele>797.0</ele><time>2026-04-25T11:18:44.328Z</time></trkpt><trkpt lat="44.2007446" lon="11.3318498"><ele>797.0</ele><time>2026-04-25T11:18:45.327Z</time></trkpt><trkpt lat="44.2008198" lon="11.3317051"><ele>797.25</ele><time>2026-04-25T11:18:46.32Z</time></trkpt><trkpt lat="44.2008863" lon="11.3315305"><ele>797.5</ele><time>2026-04-25T11:18:47.301Z</time></trkpt><trkpt lat="44.2009112" lon="11.3313558"><ele>797.75</ele><time>2026-04-25T11:18:48.333Z</time></trkpt><trkpt lat="44.2008924" lon="11.3311654"><ele>798.0</ele><time>2026-04-25T11:18:49.321Z</time></trkpt><trkpt lat="44.2008424" lon="11.3309834"><ele>799.0</ele><time>2026-04-25T11:18:50.328Z</time></trkpt><trkpt lat="44.2008308" lon="11.3307986"><ele>800.0</ele><time>2026-04-25T11:18:51.33Z</time></trkpt><trkpt lat="44.2008875" lon="11.3306128"><ele>801.0</ele><time>2026-04-25T11:18:52.304Z</time></trkpt><trkpt lat="44.2009689" lon="11.3304462"><ele>802.0</ele><time>2026-04-25T11:18:53.309Z</time></trkpt><trkpt lat="44.2010645" lon="11.3302814"><ele>809.0</ele><time>2026-04-25T11:18:54.33Z</time></trkpt><trkpt lat="44.2011585" lon="11.3301106"><ele>816.0</ele><time>2026-04-25T11:18:55.325Z</time></trkpt><trkpt lat="44.2012643" lon="11.329948"><ele>823.0</ele><time>2026-04-25T11:18:56.313Z</time></trkpt><trkpt lat="44.2013773" lon="11.3298313"><ele>825.3333333333333</ele><time>2026-04-25T11:18:57.328Z</time></trkpt><trkpt lat="44.2015126" lon="11.3297415"><ele>827.6666666666667</ele><time>2026-04-25T11:18:58.309Z</time></trkpt><trkpt lat="44.2016639" lon="11.3296976"><ele>830.0</ele><time>2026-04-25T11:18:59.291Z</time></trkpt><trkpt lat="44.2018269" lon="11.3296857"><ele>830.0</ele><time>2026-04-25T11:19:00.317Z</time></trkpt><trkpt lat="44.2019823" lon="11.3296995"><ele>830.0</ele><time>2026-04-25T11:19:01.321Z</time></trkpt><trkpt lat="44.2021322" lon="11.3297049"><ele>830.0</ele><time>2026-04-25T11:19:02.312Z</time></trkpt><trkpt lat="44.2022734" lon="11.329664"><ele>826.5</ele><time>2026-04-25T11:19:03.308Z</time></trkpt><trkpt lat="44.2023876" lon="11.3295939"><ele>823.0</ele><time>2026-04-25T11:19:04.322Z</time></trkpt><trkpt lat="44.202498" lon="11.3295034"><ele>819.5</ele><time>2026-04-25T11:19:05.316Z</time></trkpt><trkpt lat="44.2025875" lon="11.3293882"><ele>816.0</ele><time>2026-04-25T11:19:06.317Z</time></trkpt><trkpt lat="44.20264" lon="11.329244"><ele>816.0</ele><time>2026-04-25T11:19:07.323Z</time></trkpt><trkpt lat="44.2026654" lon="11.3290781"><ele>816.0</ele><time>2026-04-25T11:19:08.298Z</time></trkpt><trkpt lat="44.202672" lon="11.3289187"><ele>816.0</ele><time>2026-04-25T11:19:09.319Z</time></trkpt><trkpt lat="44.2026895" lon="11.3287818"><ele>816.0</ele><time>2026-04-25T11:19:10.314Z</time></trkpt><trkpt lat="44.202726" lon="11.3286598"><ele>816.0</ele><time>2026-04-25T11:19:11.3Z</time></trkpt><trkpt lat="44.2027971" lon="11.3285641"><ele>815.5999999999999</ele><time>2026-04-25T11:19:12.299Z</time></trkpt><trkpt lat="44.2028852" lon="11.3285236"><ele>815.2</ele><time>2026-04-25T11:19:13.315Z</time></trkpt><trkpt lat="44.2030018" lon="11.3285176"><ele>814.8</ele><time>2026-04-25T11:19:14.322Z</time></trkpt><trkpt lat="44.2031208" lon="11.3285036"><ele>814.4000000000001</ele><time>2026-04-25T11:19:15.339Z</time></trkpt><trkpt lat="44.2032259" lon="11.3284787"><ele>814.0</ele><time>2026-04-25T11:19:16.327Z</time></trkpt><trkpt lat="44.203328" lon="11.3284515"><ele>814.0</ele><time>2026-04-25T11:19:17.318Z</time></trkpt><trkpt lat="44.2034428" lon="11.3283716"><ele>814.0</ele><time>2026-04-25T11:19:18.332Z</time></trkpt><trkpt lat="44.2035635" lon="11.3282638"><ele>814.0</ele><time>2026-04-25T11:19:19.304Z</time></trkpt><trkpt lat="44.2036649" lon="11.32814"><ele>814.0</ele><time>2026-04-25T11:19:20.292Z</time></trkpt><trkpt lat="44.2037702" lon="11.3280132"><ele>812.75</ele><time>2026-04-25T11:19:21.328Z</time></trkpt><trkpt lat="44.2038626" lon="11.3278996"><ele>811.5</ele><time>2026-04-25T11:19:22.316Z</time></trkpt><trkpt lat="44.203951" lon="11.3277881"><ele>810.25</ele><time>2026-04-25T11:19:23.316Z</time></trkpt><trkpt lat="44.2040272" lon="11.3276716"><ele>809.0</ele><time>2026-04-25T11:19:24.332Z</time></trkpt><trkpt lat="44.2040912" lon="11.327549"><ele>809.0</ele><time>2026-04-25T11:19:25.311Z</time></trkpt><trkpt lat="44.2041424" lon="11.3274263"><ele>809.0</ele><time>2026-04-25T11:19:26.331Z</time></trkpt><trkpt lat="44.2041857" lon="11.3273013"><ele>809.0</ele><time>2026-04-25T11:19:27.323Z</time></trkpt><trkpt lat="44.2042245" lon="11.327205"><ele>809.0</ele><time>2026-04-25T11:19:28.329Z</time></trkpt><trkpt lat="44.2042652" lon="11.3270756"><ele>809.0</ele><time>2026-04-25T11:19:30.323Z</time></trkpt><trkpt lat="44.204308" lon="11.3269804"><ele>808.6</ele><time>2026-04-25T11:19:33.326Z</time></trkpt><trkpt lat="44.2043255" lon="11.3268887"><ele>808.2</ele><time>2026-04-25T11:19:36.31Z</time></trkpt><trkpt lat="44.204246" lon="11.3269049"><ele>807.8000000000001</ele><time>2026-04-25T11:19:51.309Z</time></trkpt><trkpt lat="44.2041275" lon="11.3268965"><ele>807.4000000000001</ele><time>2026-04-25T11:19:53.315Z</time></trkpt><trkpt lat="44.2040429" lon="11.3268967"><ele>807.0</ele><time>2026-04-25T11:19:54.32Z</time></trkpt><trkpt lat="44.2039367" lon="11.3268957"><ele>809.75</ele><time>2026-04-25T11:19:55.318Z</time></trkpt><trkpt lat="44.2038176" lon="11.3268983"><ele>812.5</ele><time>2026-04-25T11:19:56.306Z</time></trkpt><trkpt lat="44.2036853" lon="11.3268977"><ele>815.25</ele><time>2026-04-25T11:19:57.301Z</time></trkpt><trkpt lat="44.2035397" lon="11.3269056"><ele>818.0</ele><time>2026-04-25T11:19:58.313Z</time></trkpt><trkpt lat="44.2033788" lon="11.3269201"><ele>818.0</ele><time>2026-04-25T11:19:59.307Z</time></trkpt><trkpt lat="44.203216" lon="11.3269389"><ele>818.0</ele><time>2026-04-25T11:20:00.331Z</time></trkpt><trkpt lat="44.2030533" lon="11.3269763"><ele>818.0</ele><time>2026-04-25T11:20:01.323Z</time></trkpt><trkpt lat="44.2028994" lon="11.3270247"><ele>821.75</ele><time>2026-04-25T11:20:02.328Z</time></trkpt><trkpt lat="44.2027652" lon="11.3270691"><ele>825.5</ele><time>2026-04-25T11:20:03.32Z</time></trkpt><trkpt lat="44.202637" lon="11.3270917"><ele>829.25</ele><time>2026-04-25T11:20:04.317Z</time></trkpt><trkpt lat="44.2025016" lon="11.3271024"><ele>833.0</ele><time>2026-04-25T11:20:05.323Z</time></trkpt><trkpt lat="44.2023669" lon="11.3271164"><ele>834.25</ele><time>2026-04-25T11:20:06.322Z</time></trkpt><trkpt lat="44.2022245" lon="11.3271468"><ele>835.5</ele><time>2026-04-25T11:20:07.33Z</time></trkpt><trkpt lat="44.2020888" lon="11.3271937"><ele>836.75</ele><time>2026-04-25T11:20:08.33Z</time></trkpt><trkpt lat="44.2019541" lon="11.3272568"><ele>838.0</ele><time>2026-04-25T11:20:09.301Z</time></trkpt><trkpt lat="44.2018121" lon="11.3273534"><ele>839.6666666666666</ele><time>2026-04-25T11:20:10.335Z</time></trkpt><trkpt lat="44.2016773" lon="11.3274624"><ele>841.3333333333333</ele><time>2026-04-25T11:20:11.321Z</time></trkpt><trkpt lat="44.2015429" lon="11.3275671"><ele>843.0</ele><time>2026-04-25T11:20:12.32Z</time></trkpt><trkpt lat="44.2014169" lon="11.3276623"><ele>845.2</ele><time>2026-04-25T11:20:13.33Z</time></trkpt><trkpt lat="44.2013041" lon="11.3277634"><ele>847.4</ele><time>2026-04-25T11:20:14.324Z</time></trkpt><trkpt lat="44.2012035" lon="11.3278582"><ele>849.6000000000001</ele><time>2026-04-25T11:20:15.326Z</time></trkpt><trkpt lat="44.2011245" lon="11.3279442"><ele>851.8000000000001</ele><time>2026-04-25T11:20:16.319Z</time></trkpt><trkpt lat="44.2010561" lon="11.328026"><ele>854.0</ele><time>2026-04-25T11:20:17.326Z</time></trkpt><trkpt lat="44.2009914" lon="11.328107"><ele>853.8000000000001</ele><time>2026-04-25T11:20:18.324Z</time></trkpt><trkpt lat="44.2009339" lon="11.3281682"><ele>853.6000000000001</ele><time>2026-04-25T11:20:19.316Z</time></trkpt><trkpt lat="44.2008517" lon="11.3281944"><ele>853.4</ele><time>2026-04-25T11:20:20.321Z</time></trkpt><trkpt lat="44.2007566" lon="11.3281843"><ele>853.2</ele><time>2026-04-25T11:20:21.316Z</time></trkpt><trkpt lat="44.200657" lon="11.3281668"><ele>853.0</ele><time>2026-04-25T11:20:22.333Z</time></trkpt><trkpt lat="44.2005514" lon="11.3281342"><ele>853.0</ele><time>2026-04-25T11:20:23.315Z</time></trkpt><trkpt lat="44.2004291" lon="11.3281006"><ele>853.0</ele><time>2026-04-25T11:20:24.329Z</time></trkpt><trkpt lat="44.2003041" lon="11.3280567"><ele>853.0</ele><time>2026-04-25T11:20:25.317Z</time></trkpt><trkpt lat="44.2001791" lon="11.3280162"><ele>853.0</ele><time>2026-04-25T11:20:26.308Z</time></trkpt><trkpt lat="44.2000522" lon="11.3279698"><ele>853.0</ele><time>2026-04-25T11:20:27.31Z</time></trkpt><trkpt lat="44.1999178" lon="11.3279268"><ele>853.0</ele><time>2026-04-25T11:20:28.312Z</time></trkpt><trkpt lat="44.1997822" lon="11.3278805"><ele>853.0</ele><time>2026-04-25T11:20:29.315Z</time></trkpt><trkpt lat="44.199657" lon="11.3278377"><ele>853.0</ele><time>2026-04-25T11:20:30.327Z</time></trkpt><trkpt lat="44.1995419" lon="11.3278047"><ele>855.0</ele><time>2026-04-25T11:20:31.328Z</time></trkpt><trkpt lat="44.1994259" lon="11.3277741"><ele>857.0</ele><time>2026-04-25T11:20:32.332Z</time></trkpt><trkpt lat="44.1993082" lon="11.3277434"><ele>859.0</ele><time>2026-04-25T11:20:33.32Z</time></trkpt><trkpt lat="44.1991981" lon="11.3277186"><ele>861.0</ele><time>2026-04-25T11:20:34.32Z</time></trkpt><trkpt lat="44.1990877" lon="11.3276874"><ele>862.8</ele><time>2026-04-25T11:20:35.332Z</time></trkpt><trkpt lat="44.1989794" lon="11.3276543"><ele>864.5999999999999</ele><time>2026-04-25T11:20:36.322Z</time></trkpt><trkpt lat="44.1988764" lon="11.3276145"><ele>866.4</ele><time>2026-04-25T11:20:37.319Z</time></trkpt><trkpt lat="44.1987716" lon="11.3275607"><ele>868.2</ele><time>2026-04-25T11:20:38.333Z</time></trkpt><trkpt lat="44.198665" lon="11.3274922"><ele>870.0</ele><time>2026-04-25T11:20:39.313Z</time></trkpt><trkpt lat="44.1985567" lon="11.32742"><ele>870.0</ele><time>2026-04-25T11:20:40.307Z</time></trkpt><trkpt lat="44.1984465" lon="11.3273527"><ele>870.0</ele><time>2026-04-25T11:20:41.314Z</time></trkpt><trkpt lat="44.1983434" lon="11.3272846"><ele>870.0</ele><time>2026-04-25T11:20:42.327Z</time></trkpt><trkpt lat="44.1982559" lon="11.327205"><ele>870.0</ele><time>2026-04-25T11:20:43.319Z</time></trkpt><trkpt lat="44.1981758" lon="11.3271141"><ele>870.0</ele><time>2026-04-25T11:20:44.332Z</time></trkpt><trkpt lat="44.1981073" lon="11.3270082"><ele>873.3333333333334</ele><time>2026-04-25T11:20:45.319Z</time></trkpt><trkpt lat="44.1980615" lon="11.3269015"><ele>876.6666666666667</ele><time>2026-04-25T11:20:46.317Z</time></trkpt><trkpt lat="44.1980344" lon="11.3267929"><ele>880.0</ele><time>2026-04-25T11:20:47.321Z</time></trkpt><trkpt lat="44.1980284" lon="11.3266725"><ele>883.3333333333334</ele><time>2026-04-25T11:20:48.309Z</time></trkpt><trkpt lat="44.1980276" lon="11.3265558"><ele>886.6666666666667</ele><time>2026-04-25T11:20:49.31Z</time></trkpt><trkpt lat="44.1980093" lon="11.3264664"><ele>890.0</ele><time>2026-04-25T11:20:50.309Z</time></trkpt><trkpt lat="44.1978888" lon="11.3263677"><ele>890.8</ele><time>2026-04-25T11:20:52.322Z</time></trkpt><trkpt lat="44.1977991" lon="11.3263363"><ele>891.6</ele><time>2026-04-25T11:20:53.311Z</time></trkpt><trkpt lat="44.1976947" lon="11.3263125"><ele>892.4000000000001</ele><time>2026-04-25T11:20:54.305Z</time></trkpt><trkpt lat="44.1975765" lon="11.3262954"><ele>893.2</ele><time>2026-04-25T11:20:55.301Z</time></trkpt><trkpt lat="44.1974728" lon="11.3262933"><ele>894.0</ele><time>2026-04-25T11:20:56.31Z</time></trkpt><trkpt lat="44.1973784" lon="11.3263041"><ele>896.2</ele><time>2026-04-25T11:20:57.315Z</time></trkpt><trkpt lat="44.1972809" lon="11.3263646"><ele>898.4000000000001</ele><time>2026-04-25T11:20:58.32Z</time></trkpt><trkpt lat="44.1971886" lon="11.3264461"><ele>900.6</ele><time>2026-04-25T11:20:59.305Z</time></trkpt><trkpt lat="44.1970946" lon="11.3265509"><ele>902.8</ele><time>2026-04-25T11:21:00.304Z</time></trkpt><trkpt lat="44.1970086" lon="11.3266485"><ele>905.0</ele><time>2026-04-25T11:21:01.308Z</time></trkpt><trkpt lat="44.1969162" lon="11.3267239"><ele>905.0000000000001</ele><time>2026-04-25T11:21:02.301Z</time></trkpt><trkpt lat="44.1968444" lon="11.3267657"><ele>905.0</ele><time>2026-04-25T11:21:03.3Z</time></trkpt><trkpt lat="44.1967604" lon="11.3267583"><ele>905.0</ele><time>2026-04-25T11:21:04.316Z</time></trkpt><trkpt lat="44.1966969" lon="11.3267076"><ele>905.0</ele><time>2026-04-25T11:21:05.317Z</time></trkpt><trkpt lat="44.1966386" lon="11.3266249"><ele>905.0000000000001</ele><time>2026-04-25T11:21:06.32Z</time></trkpt><trkpt lat="44.1965933" lon="11.326508"><ele>905.0</ele><time>2026-04-25T11:21:07.328Z</time></trkpt><trkpt lat="44.1965571" lon="11.326375"><ele>906.75</ele><time>2026-04-25T11:21:08.342Z</time></trkpt><trkpt lat="44.196522" lon="11.3262306"><ele>908.5</ele><time>2026-04-25T11:21:09.3Z</time></trkpt><trkpt lat="44.1964852" lon="11.3260696"><ele>910.25</ele><time>2026-04-25T11:21:10.319Z</time></trkpt><trkpt lat="44.196443" lon="11.325903"><ele>912.0</ele><time>2026-04-25T11:21:11.309Z</time></trkpt><trkpt lat="44.1964019" lon="11.3257329"><ele>916.0</ele><time>2026-04-25T11:21:12.328Z</time></trkpt><trkpt lat="44.1963592" lon="11.3255646"><ele>920.0</ele><time>2026-04-25T11:21:13.326Z</time></trkpt><trkpt lat="44.1963148" lon="11.3254033"><ele>924.0</ele><time>2026-04-25T11:21:14.328Z</time></trkpt><trkpt lat="44.1962665" lon="11.3252428"><ele>928.0</ele><time>2026-04-25T11:21:15.321Z</time></trkpt><trkpt lat="44.1962275" lon="11.3250736"><ele>928.3333333333333</ele><time>2026-04-25T11:21:16.328Z</time></trkpt><trkpt lat="44.1961953" lon="11.3249306"><ele>928.6666666666666</ele><time>2026-04-25T11:21:17.327Z</time></trkpt><trkpt lat="44.1961678" lon="11.3247985"><ele>929.0</ele><time>2026-04-25T11:21:18.327Z</time></trkpt><trkpt lat="44.1961335" lon="11.3246822"><ele>929.3333333333333</ele><time>2026-04-25T11:21:19.329Z</time></trkpt><trkpt lat="44.1960924" lon="11.324597"><ele>929.6666666666666</ele><time>2026-04-25T11:21:20.325Z</time></trkpt><trkpt lat="44.1960336" lon="11.3245296"><ele>930.0</ele><time>2026-04-25T11:21:22.332Z</time></trkpt><trkpt lat="44.195961" lon="11.3245224"><ele>930.0</ele><time>2026-04-25T11:21:25.328Z</time></trkpt><trkpt lat="44.1958956" lon="11.3245305"><ele>930.0</ele><time>2026-04-25T11:21:26.319Z</time></trkpt><trkpt lat="44.1957967" lon="11.3246341"><ele>930.0</ele><time>2026-04-25T11:21:28.315Z</time></trkpt><trkpt lat="44.1957417" lon="11.3247167"><ele>930.0</ele><time>2026-04-25T11:21:30.3Z</time></trkpt><trkpt lat="44.1956983" lon="11.3247855"><ele>930.0</ele><time>2026-04-25T11:21:32.318Z</time></trkpt><trkpt lat="44.1955373" lon="11.3250248"><ele>932.2</ele><time>2026-04-25T11:21:36.32Z</time></trkpt><trkpt lat="44.1954847" lon="11.3251092"><ele>934.4</ele><time>2026-04-25T11:21:37.327Z</time></trkpt><trkpt lat="44.1954183" lon="11.325213"><ele>936.5999999999999</ele><time>2026-04-25T11:21:38.321Z</time></trkpt><trkpt lat="44.1953485" lon="11.3253319"><ele>938.8</ele><time>2026-04-25T11:21:39.3Z</time></trkpt><trkpt lat="44.1952868" lon="11.3254312"><ele>941.0</ele><time>2026-04-25T11:21:40.323Z</time></trkpt><trkpt lat="44.1952329" lon="11.3255167"><ele>941.0000000000001</ele><time>2026-04-25T11:21:41.328Z</time></trkpt><trkpt lat="44.1951811" lon="11.3255954"><ele>941.0</ele><time>2026-04-25T11:21:42.332Z</time></trkpt><trkpt lat="44.1951064" lon="11.3256183"><ele>941.0</ele><time>2026-04-25T11:21:43.31Z</time></trkpt><trkpt lat="44.1950301" lon="11.3255942"><ele>941.0</ele><time>2026-04-25T11:21:44.322Z</time></trkpt><trkpt lat="44.1949647" lon="11.3255202"><ele>941.0000000000001</ele><time>2026-04-25T11:21:45.31Z</time></trkpt><trkpt lat="44.194929" lon="11.3254209"><ele>941.0</ele><time>2026-04-25T11:21:46.32Z</time></trkpt><trkpt lat="44.1948904" lon="11.3253203"><ele>941.0000000000001</ele><time>2026-04-25T11:21:47.324Z</time></trkpt><trkpt lat="44.1948464" lon="11.3252062"><ele>941.0</ele><time>2026-04-25T11:21:48.325Z</time></trkpt><trkpt lat="44.1947948" lon="11.3250889"><ele>941.0</ele><time>2026-04-25T11:21:49.322Z</time></trkpt><trkpt lat="44.1947471" lon="11.3249799"><ele>941.0</ele><time>2026-04-25T11:21:50.322Z</time></trkpt><trkpt lat="44.1947031" lon="11.3248751"><ele>941.0000000000001</ele><time>2026-04-25T11:21:51.33Z</time></trkpt><trkpt lat="44.1946698" lon="11.3247885"><ele>941.0</ele><time>2026-04-25T11:21:52.313Z</time></trkpt><trkpt lat="44.1946395" lon="11.3247071"><ele>945.5999999999999</ele><time>2026-04-25T11:21:54.338Z</time></trkpt><trkpt lat="44.1945841" lon="11.3245617"><ele>950.1999999999999</ele><time>2026-04-25T11:22:14.306Z</time></trkpt><trkpt lat="44.1945341" lon="11.3244473"><ele>954.8000000000001</ele><time>2026-04-25T11:22:15.325Z</time></trkpt><trkpt lat="44.1944817" lon="11.324331"><ele>959.4000000000001</ele><time>2026-04-25T11:22:16.316Z</time></trkpt><trkpt lat="44.1944484" lon="11.3241936"><ele>964.0</ele><time>2026-04-25T11:22:17.303Z</time></trkpt><trkpt lat="44.1944438" lon="11.3240467"><ele>964.4000000000001</ele><time>2026-04-25T11:22:18.327Z</time></trkpt><trkpt lat="44.1944571" lon="11.3238866"><ele>964.8000000000001</ele><time>2026-04-25T11:22:19.328Z</time></trkpt><trkpt lat="44.1944946" lon="11.3237255"><ele>965.1999999999999</ele><time>2026-04-25T11:22:20.323Z</time></trkpt><trkpt lat="44.1945391" lon="11.3235941"><ele>965.5999999999999</ele><time>2026-04-25T11:22:21.33Z</time></trkpt><trkpt lat="44.1945833" lon="11.323481"><ele>966.0</ele><time>2026-04-25T11:22:22.325Z</time></trkpt><trkpt lat="44.1946235" lon="11.3233759"><ele>966.0</ele><time>2026-04-25T11:22:23.323Z</time></trkpt><trkpt lat="44.1946317" lon="11.3232824"><ele>966.0</ele><time>2026-04-25T11:22:24.323Z</time></trkpt><trkpt lat="44.1946017" lon="11.3231925"><ele>966.0</ele><time>2026-04-25T11:22:25.322Z</time></trkpt><trkpt lat="44.1945548" lon="11.3231209"><ele>966.0</ele><time>2026-04-25T11:22:26.325Z</time></trkpt><trkpt lat="44.1944911" lon="11.3230407"><ele>966.0</ele><time>2026-04-25T11:22:27.307Z</time></trkpt><trkpt lat="44.1944063" lon="11.3229392"><ele>966.0</ele><time>2026-04-25T11:22:28.29Z</time></trkpt><trkpt lat="44.1943131" lon="11.3228755"><ele>966.75</ele><time>2026-04-25T11:22:29.318Z</time></trkpt><trkpt lat="44.1942088" lon="11.3228316"><ele>967.5</ele><time>2026-04-25T11:22:30.313Z</time></trkpt><trkpt lat="44.1940915" lon="11.3228058"><ele>968.25</ele><time>2026-04-25T11:22:31.307Z</time></trkpt><trkpt lat="44.1939603" lon="11.3227778"><ele>969.0</ele><time>2026-04-25T11:22:32.303Z</time></trkpt><trkpt lat="44.1938006" lon="11.3227322"><ele>969.0</ele><time>2026-04-25T11:22:33.307Z</time></trkpt><trkpt lat="44.1936382" lon="11.3226687"><ele>969.0</ele><time>2026-04-25T11:22:34.303Z</time></trkpt><trkpt lat="44.1935065" lon="11.3226118"><ele>969.0</ele><time>2026-04-25T11:22:35.295Z</time></trkpt><trkpt lat="44.1933992" lon="11.3225648"><ele>969.0</ele><time>2026-04-25T11:22:36.322Z</time></trkpt><trkpt lat="44.1933012" lon="11.3225118"><ele>969.0</ele><time>2026-04-25T11:22:37.324Z</time></trkpt><trkpt lat="44.1932303" lon="11.3224348"><ele>969.0000000000001</ele><time>2026-04-25T11:22:38.306Z</time></trkpt><trkpt lat="44.1931714" lon="11.3223249"><ele>969.0000000000001</ele><time>2026-04-25T11:22:39.326Z</time></trkpt><trkpt lat="44.1931254" lon="11.322186"><ele>969.0</ele><time>2026-04-25T11:22:40.325Z</time></trkpt><trkpt lat="44.1930737" lon="11.3220478"><ele>969.0</ele><time>2026-04-25T11:22:41.311Z</time></trkpt><trkpt lat="44.193021" lon="11.3219329"><ele>970.6</ele><time>2026-04-25T11:22:42.327Z</time></trkpt><trkpt lat="44.192969" lon="11.3218319"><ele>972.2</ele><time>2026-04-25T11:22:43.324Z</time></trkpt><trkpt lat="44.1929054" lon="11.3217207"><ele>973.8000000000001</ele><time>2026-04-25T11:22:44.327Z</time></trkpt><trkpt lat="44.1928402" lon="11.3216236"><ele>975.4000000000001</ele><time>2026-04-25T11:22:45.316Z</time></trkpt><trkpt lat="44.1927614" lon="11.3215426"><ele>977.0</ele><time>2026-04-25T11:22:46.32Z</time></trkpt><trkpt lat="44.1926771" lon="11.3214864"><ele>977.0</ele><time>2026-04-25T11:22:47.307Z</time></trkpt><trkpt lat="44.1925844" lon="11.3214403"><ele>977.0</ele><time>2026-04-25T11:22:48.326Z</time></trkpt><trkpt lat="44.1924895" lon="11.3213985"><ele>977.0</ele><time>2026-04-25T11:22:49.332Z</time></trkpt><trkpt lat="44.1923768" lon="11.3213594"><ele>977.0</ele><time>2026-04-25T11:22:50.338Z</time></trkpt><trkpt lat="44.1922432" lon="11.3213313"><ele>977.0</ele><time>2026-04-25T11:22:51.3Z</time></trkpt><trkpt lat="44.1921287" lon="11.3213044"><ele>974.25</ele><time>2026-04-25T11:22:52.302Z</time></trkpt><trkpt lat="44.192008" lon="11.3212736"><ele>971.5</ele><time>2026-04-25T11:22:53.316Z</time></trkpt><trkpt lat="44.1918924" lon="11.3212474"><ele>968.75</ele><time>2026-04-25T11:22:54.318Z</time></trkpt><trkpt lat="44.1917715" lon="11.3212406"><ele>966.0</ele><time>2026-04-25T11:22:55.3Z</time></trkpt><trkpt lat="44.1916488" lon="11.3212505"><ele>966.0</ele><time>2026-04-25T11:22:56.322Z</time></trkpt><trkpt lat="44.1915384" lon="11.321256"><ele>965.9999999999999</ele><time>2026-04-25T11:22:57.321Z</time></trkpt><trkpt lat="44.1914424" lon="11.321254"><ele>965.9999999999999</ele><time>2026-04-25T11:22:58.325Z</time></trkpt><trkpt lat="44.1913488" lon="11.3212287"><ele>966.0</ele><time>2026-04-25T11:22:59.309Z</time></trkpt><trkpt lat="44.1912684" lon="11.3211734"><ele>966.0</ele><time>2026-04-25T11:23:00.327Z</time></trkpt><trkpt lat="44.1911893" lon="11.3210883"><ele>967.1999999999999</ele><time>2026-04-25T11:23:01.308Z</time></trkpt><trkpt lat="44.1911275" lon="11.3209722"><ele>968.3999999999999</ele><time>2026-04-25T11:23:02.317Z</time></trkpt><trkpt lat="44.1910691" lon="11.3208457"><ele>969.6</ele><time>2026-04-25T11:23:03.307Z</time></trkpt><trkpt lat="44.1910128" lon="11.3207048"><ele>970.8</ele><time>2026-04-25T11:23:04.322Z</time></trkpt><trkpt lat="44.190964" lon="11.3205855"><ele>972.0</ele><time>2026-04-25T11:23:05.328Z</time></trkpt><trkpt lat="44.1909326" lon="11.3204937"><ele>972.0</ele><time>2026-04-25T11:23:06.319Z</time></trkpt><trkpt lat="44.1909024" lon="11.3204095"><ele>972.0</ele><time>2026-04-25T11:23:07.332Z</time></trkpt><trkpt lat="44.1908587" lon="11.3203413"><ele>972.0</ele><time>2026-04-25T11:23:08.322Z</time></trkpt><trkpt lat="44.1907951" lon="11.3202946"><ele>972.0</ele><time>2026-04-25T11:23:09.327Z</time></trkpt><trkpt lat="44.1907147" lon="11.3202684"><ele>972.0</ele><time>2026-04-25T11:23:10.293Z</time></trkpt><trkpt lat="44.1906324" lon="11.3202941"><ele>972.0</ele><time>2026-04-25T11:23:11.322Z</time></trkpt><trkpt lat="44.1905316" lon="11.3203302"><ele>973.8</ele><time>2026-04-25T11:23:12.299Z</time></trkpt><trkpt lat="44.1904224" lon="11.3203972"><ele>975.6</ele><time>2026-04-25T11:23:13.322Z</time></trkpt><trkpt lat="44.1903097" lon="11.3204626"><ele>977.3999999999999</ele><time>2026-04-25T11:23:14.294Z</time></trkpt><trkpt lat="44.1902126" lon="11.3205154"><ele>979.1999999999999</ele><time>2026-04-25T11:23:15.325Z</time></trkpt><trkpt lat="44.190123" lon="11.3205636"><ele>981.0</ele><time>2026-04-25T11:23:16.333Z</time></trkpt><trkpt lat="44.1900291" lon="11.3206126"><ele>982.8</ele><time>2026-04-25T11:23:17.297Z</time></trkpt><trkpt lat="44.1899347" lon="11.320645"><ele>984.5999999999999</ele><time>2026-04-25T11:23:18.323Z</time></trkpt><trkpt lat="44.1898443" lon="11.3206434"><ele>986.4</ele><time>2026-04-25T11:23:19.318Z</time></trkpt><trkpt lat="44.1897612" lon="11.3205928"><ele>988.2</ele><time>2026-04-25T11:23:20.31Z</time></trkpt><trkpt lat="44.189685" lon="11.32056"><ele>990.0</ele><time>2026-04-25T11:23:21.306Z</time></trkpt><trkpt lat="44.1895787" lon="11.3205378"><ele>990.8333333333334</ele><time>2026-04-25T11:23:23.32Z</time></trkpt><trkpt lat="44.189507" lon="11.3205562"><ele>991.6666666666667</ele><time>2026-04-25T11:23:43.312Z</time></trkpt><trkpt lat="44.1894393" lon="11.3205952"><ele>992.5</ele><time>2026-04-25T11:25:11.298Z</time></trkpt><trkpt lat="44.1893829" lon="11.3206516"><ele>993.3333333333334</ele><time>2026-04-25T11:25:13.319Z</time></trkpt><trkpt lat="44.1892769" lon="11.3207179"><ele>994.1666666666667</ele><time>2026-04-25T11:25:15.314Z</time></trkpt><trkpt lat="44.1892086" lon="11.3207635"><ele>995.0</ele><time>2026-04-25T11:25:16.304Z</time></trkpt><trkpt lat="44.189145" lon="11.3208174"><ele>996.1666666666667</ele><time>2026-04-25T11:25:17.317Z</time></trkpt><trkpt lat="44.1890816" lon="11.3208673"><ele>997.3333333333334</ele><time>2026-04-25T11:25:18.317Z</time></trkpt><trkpt lat="44.1890124" lon="11.3209108"><ele>998.5</ele><time>2026-04-25T11:25:19.314Z</time></trkpt><trkpt lat="44.188933" lon="11.3209246"><ele>999.6666666666667</ele><time>2026-04-25T11:25:20.32Z</time></trkpt><trkpt lat="44.1888341" lon="11.3209148"><ele>1000.8333333333334</ele><time>2026-04-25T11:25:21.308Z</time></trkpt><trkpt lat="44.1887384" lon="11.3209068"><ele>1002.0</ele><time>2026-04-25T11:25:22.324Z</time></trkpt><trkpt lat="44.1886584" lon="11.3209099"><ele>1004.8333333333334</ele><time>2026-04-25T11:25:23.317Z</time></trkpt><trkpt lat="44.1885798" lon="11.3209249"><ele>1007.6666666666667</ele><time>2026-04-25T11:25:24.336Z</time></trkpt><trkpt lat="44.188515" lon="11.3209418"><ele>1010.5</ele><time>2026-04-25T11:25:25.33Z</time></trkpt><trkpt lat="44.1884192" lon="11.3210168"><ele>1013.3333333333334</ele><time>2026-04-25T11:25:27.318Z</time></trkpt><trkpt lat="44.1883658" lon="11.3210735"><ele>1016.1666666666667</ele><time>2026-04-25T11:25:29.317Z</time></trkpt><trkpt lat="44.1883222" lon="11.3211483"><ele>1019.0</ele><time>2026-04-25T11:25:33.313Z</time></trkpt><trkpt lat="44.1882883" lon="11.3212406"><ele>1019.0</ele><time>2026-04-25T11:25:40.303Z</time></trkpt><trkpt lat="44.1883311" lon="11.3213158"><ele>1019.0000000000001</ele><time>2026-04-25T11:25:43.322Z</time></trkpt><trkpt lat="44.1883159" lon="11.3214352"><ele>1019.0000000000001</ele><time>2026-04-25T11:25:45.321Z</time></trkpt><trkpt lat="44.1882853" lon="11.3215847"><ele>1019.0</ele><time>2026-04-25T11:25:47.321Z</time></trkpt><trkpt lat="44.1882583" lon="11.3217369"><ele>1019.0</ele><time>2026-04-25T11:25:49.322Z</time></trkpt><trkpt lat="44.1882444" lon="11.3218629"><ele>1019.1666666666667</ele><time>2026-04-25T11:25:51.332Z</time></trkpt><trkpt lat="44.1882481" lon="11.3219736"><ele>1019.3333333333334</ele><time>2026-04-25T11:25:53.31Z</time></trkpt><trkpt lat="44.1882844" lon="11.3220661"><ele>1019.5</ele><time>2026-04-25T11:25:55.313Z</time></trkpt><trkpt lat="44.1883726" lon="11.3221503"><ele>1019.6666666666667</ele><time>2026-04-25T11:25:57.294Z</time></trkpt><trkpt lat="44.1884285" lon="11.322197"><ele>1019.8333333333334</ele><time>2026-04-25T11:25:58.327Z</time></trkpt><trkpt lat="44.188493" lon="11.3222448"><ele>1020.0</ele><time>2026-04-25T11:25:59.327Z</time></trkpt><trkpt lat="44.1885588" lon="11.3223022"><ele>1021.6666666666666</ele><time>2026-04-25T11:26:00.326Z</time></trkpt><trkpt lat="44.1886239" lon="11.3223605"><ele>1023.3333333333333</ele><time>2026-04-25T11:26:01.315Z</time></trkpt><trkpt lat="44.188684" lon="11.3224158"><ele>1025.0</ele><time>2026-04-25T11:26:02.31Z</time></trkpt><trkpt lat="44.1887413" lon="11.3224815"><ele>1026.6666666666665</ele><time>2026-04-25T11:26:03.34Z</time></trkpt><trkpt lat="44.1888011" lon="11.322545"><ele>1028.3333333333333</ele><time>2026-04-25T11:26:04.31Z</time></trkpt><trkpt lat="44.1888627" lon="11.3226187"><ele>1030.0</ele><time>2026-04-25T11:26:05.318Z</time></trkpt><trkpt lat="44.1889243" lon="11.3226888"><ele>1030.0</ele><time>2026-04-25T11:26:06.327Z</time></trkpt><trkpt lat="44.188982" lon="11.3227502"><ele>1030.0</ele><time>2026-04-25T11:26:07.333Z</time></trkpt><trkpt lat="44.1890403" lon="11.3228093"><ele>1030.0</ele><time>2026-04-25T11:26:08.318Z</time></trkpt><trkpt lat="44.1890977" lon="11.3229124"><ele>1030.0</ele><time>2026-04-25T11:26:10.329Z</time></trkpt><trkpt lat="44.189102" lon="11.3230091"><ele>1030.0</ele><time>2026-04-25T11:26:12.31Z</time></trkpt><trkpt lat="44.1890346" lon="11.3230978"><ele>1030.0</ele><time>2026-04-25T11:26:14.323Z</time></trkpt><trkpt lat="44.1889693" lon="11.3230983"><ele>1030.0</ele><time>2026-04-25T11:26:16.305Z</time></trkpt><trkpt lat="44.1888826" lon="11.3230968"><ele>1030.0</ele><time>2026-04-25T11:26:20.323Z</time></trkpt><trkpt lat="44.1888159" lon="11.3230481"><ele>1030.0</ele><time>2026-04-25T11:26:23.335Z</time></trkpt><trkpt lat="44.1887412" lon="11.3230072"><ele>1030.0</ele><time>2026-04-25T11:26:26.336Z</time></trkpt><trkpt lat="44.1886671" lon="11.3229931"><ele>1030.0</ele><time>2026-04-25T11:26:30.332Z</time></trkpt><trkpt lat="44.188614" lon="11.3230666"><ele>1030.0</ele><time>2026-04-25T11:26:39.327Z</time></trkpt><trkpt lat="44.1885588" lon="11.3231181"><ele>1030.0</ele><time>2026-04-25T11:28:12.289Z</time></trkpt><trkpt lat="44.1884754" lon="11.3230868"><ele>1030.0</ele><time>2026-04-25T11:28:48.316Z</time></trkpt><trkpt lat="44.188528" lon="11.3231404"><ele>1030.0</ele><time>2026-04-25T11:28:59.309Z</time></trkpt><trkpt lat="44.1885279" lon="11.3230507"><ele>1030.0</ele><time>2026-04-25T11:29:23.307Z</time></trkpt><trkpt lat="44.1885982" lon="11.3230435"><ele>1030.0</ele><time>2026-04-25T11:29:57.315Z</time></trkpt><trkpt lat="44.1886028" lon="11.3231363"><ele>1030.0</ele><time>2026-04-25T11:33:02.317Z</time></trkpt><trkpt lat="44.1885467" lon="11.3230427"><ele>1030.0</ele><time>2026-04-25T11:37:13.139Z</time></trkpt><trkpt lat="44.1885146" lon="11.3229636"><ele>1042.0</ele><time>2026-04-25T11:37:15.297Z</time></trkpt><trkpt lat="44.1889637" lon="11.3231045"><ele>1042.0</ele><time>2026-04-25T11:37:18.304Z</time></trkpt><trkpt lat="44.1890294" lon="11.3230724"><ele>1042.0</ele><time>2026-04-25T11:37:19.309Z</time></trkpt><trkpt lat="44.1890888" lon="11.3229608"><ele>1042.0</ele><time>2026-04-25T11:37:21.337Z</time></trkpt><trkpt lat="44.1890214" lon="11.3228062"><ele>1042.0</ele><time>2026-04-25T11:37:23.33Z</time></trkpt><trkpt lat="44.1889495" lon="11.3227109"><ele>1042.0</ele><time>2026-04-25T11:37:24.304Z</time></trkpt><trkpt lat="44.188879" lon="11.3226109"><ele>1040.0</ele><time>2026-04-25T11:37:25.323Z</time></trkpt><trkpt lat="44.1888095" lon="11.3225284"><ele>1038.0</ele><time>2026-04-25T11:37:26.327Z</time></trkpt><trkpt lat="44.1887379" lon="11.3224502"><ele>1036.0</ele><time>2026-04-25T11:37:27.341Z</time></trkpt><trkpt lat="44.1886615" lon="11.3223711"><ele>1034.0</ele><time>2026-04-25T11:37:28.323Z</time></trkpt><trkpt lat="44.18859" lon="11.322302"><ele>1032.0</ele><time>2026-04-25T11:37:29.33Z</time></trkpt><trkpt lat="44.1885361" lon="11.3222501"><ele>1030.0</ele><time>2026-04-25T11:37:30.327Z</time></trkpt><trkpt lat="44.1884731" lon="11.3221963"><ele>1028.3333333333333</ele><time>2026-04-25T11:37:32.293Z</time></trkpt><trkpt lat="44.1884095" lon="11.3221328"><ele>1026.6666666666665</ele><time>2026-04-25T11:37:34.321Z</time></trkpt><trkpt lat="44.1883224" lon="11.32206"><ele>1025.0</ele><time>2026-04-25T11:37:36.318Z</time></trkpt><trkpt lat="44.1882885" lon="11.3219793"><ele>1023.3333333333333</ele><time>2026-04-25T11:37:37.306Z</time></trkpt><trkpt lat="44.1882694" lon="11.321848"><ele>1021.6666666666666</ele><time>2026-04-25T11:37:38.318Z</time></trkpt><trkpt lat="44.188278" lon="11.3217106"><ele>1020.0</ele><time>2026-04-25T11:37:39.323Z</time></trkpt><trkpt lat="44.1882924" lon="11.3215917"><ele>1020.0</ele><time>2026-04-25T11:37:40.333Z</time></trkpt><trkpt lat="44.1883185" lon="11.3214636"><ele>1020.0</ele><time>2026-04-25T11:37:41.33Z</time></trkpt><trkpt lat="44.1883459" lon="11.3213447"><ele>1020.0</ele><time>2026-04-25T11:37:42.325Z</time></trkpt><trkpt lat="44.1883624" lon="11.3212215"><ele>1020.0</ele><time>2026-04-25T11:37:43.33Z</time></trkpt><trkpt lat="44.188387" lon="11.3211215"><ele>1020.0</ele><time>2026-04-25T11:37:44.304Z</time></trkpt><trkpt lat="44.1884246" lon="11.3210318"><ele>1020.0</ele><time>2026-04-25T11:37:45.334Z</time></trkpt><trkpt lat="44.1884739" lon="11.3209585"><ele>1019.8333333333334</ele><time>2026-04-25T11:37:46.333Z</time></trkpt><trkpt lat="44.1885418" lon="11.3209332"><ele>1019.6666666666667</ele><time>2026-04-25T11:37:47.327Z</time></trkpt><trkpt lat="44.1886204" lon="11.3209303"><ele>1019.5</ele><time>2026-04-25T11:37:48.325Z</time></trkpt><trkpt lat="44.1886921" lon="11.3209384"><ele>1019.3333333333334</ele><time>2026-04-25T11:37:49.332Z</time></trkpt><trkpt lat="44.1887678" lon="11.3209544"><ele>1019.1666666666667</ele><time>2026-04-25T11:37:50.329Z</time></trkpt><trkpt lat="44.1888531" lon="11.3209704"><ele>1019.0</ele><time>2026-04-25T11:37:51.326Z</time></trkpt><trkpt lat="44.1889422" lon="11.3209829"><ele>1015.6</ele><time>2026-04-25T11:37:52.337Z</time></trkpt><trkpt lat="44.1890328" lon="11.3209527"><ele>1012.2</ele><time>2026-04-25T11:37:53.331Z</time></trkpt><trkpt lat="44.1891116" lon="11.3208947"><ele>1008.8000000000001</ele><time>2026-04-25T11:37:54.339Z</time></trkpt><trkpt lat="44.1891951" lon="11.3208065"><ele>1005.4000000000001</ele><time>2026-04-25T11:37:55.331Z</time></trkpt><trkpt lat="44.1892794" lon="11.320742"><ele>1002.0</ele><time>2026-04-25T11:37:56.328Z</time></trkpt><trkpt lat="44.1893729" lon="11.3206805"><ele>1002.0</ele><time>2026-04-25T11:37:57.328Z</time></trkpt><trkpt lat="44.1894558" lon="11.320618"><ele>1002.0</ele><time>2026-04-25T11:37:58.314Z</time></trkpt><trkpt lat="44.189515" lon="11.3205778"><ele>1002.0</ele><time>2026-04-25T11:37:59.317Z</time></trkpt><trkpt lat="44.1896311" lon="11.3205417"><ele>1002.0</ele><time>2026-04-25T11:38:01.326Z</time></trkpt><trkpt lat="44.1897614" lon="11.3205792"><ele>1002.0</ele><time>2026-04-25T11:38:03.32Z</time></trkpt><trkpt lat="44.1898277" lon="11.320609"><ele>1000.0</ele><time>2026-04-25T11:38:04.326Z</time></trkpt><trkpt lat="44.1899002" lon="11.3206354"><ele>998.0</ele><time>2026-04-25T11:38:05.315Z</time></trkpt><trkpt lat="44.1899713" lon="11.3206286"><ele>996.0</ele><time>2026-04-25T11:38:06.31Z</time></trkpt><trkpt lat="44.190095" lon="11.3205767"><ele>994.0</ele><time>2026-04-25T11:38:08.321Z</time></trkpt><trkpt lat="44.1901659" lon="11.32054"><ele>992.0</ele><time>2026-04-25T11:38:09.31Z</time></trkpt><trkpt lat="44.1902427" lon="11.3204926"><ele>990.0</ele><time>2026-04-25T11:38:10.318Z</time></trkpt><trkpt lat="44.1903085" lon="11.3204541"><ele>988.7142857142856</ele><time>2026-04-25T11:38:11.319Z</time></trkpt><trkpt lat="44.1903736" lon="11.320421"><ele>987.4285714285713</ele><time>2026-04-25T11:38:12.317Z</time></trkpt><trkpt lat="44.1904413" lon="11.3203806"><ele>986.1428571428571</ele><time>2026-04-25T11:38:13.33Z</time></trkpt><trkpt lat="44.1905051" lon="11.3203357"><ele>984.8571428571428</ele><time>2026-04-25T11:38:14.316Z</time></trkpt><trkpt lat="44.1905727" lon="11.3203019"><ele>983.5714285714284</ele><time>2026-04-25T11:38:15.343Z</time></trkpt><trkpt lat="44.1906438" lon="11.3202787"><ele>982.2857142857143</ele><time>2026-04-25T11:38:16.331Z</time></trkpt><trkpt lat="44.1907179" lon="11.3202782"><ele>981.0</ele><time>2026-04-25T11:38:17.313Z</time></trkpt><trkpt lat="44.1907862" lon="11.3203118"><ele>980.8333333333334</ele><time>2026-04-25T11:38:18.324Z</time></trkpt><trkpt lat="44.1908395" lon="11.3203647"><ele>980.6666666666667</ele><time>2026-04-25T11:38:19.296Z</time></trkpt><trkpt lat="44.1908887" lon="11.3204549"><ele>980.5</ele><time>2026-04-25T11:38:20.303Z</time></trkpt><trkpt lat="44.1909328" lon="11.3205508"><ele>980.3333333333334</ele><time>2026-04-25T11:38:21.311Z</time></trkpt><trkpt lat="44.190978" lon="11.3206876"><ele>980.1666666666667</ele><time>2026-04-25T11:38:22.299Z</time></trkpt><trkpt lat="44.1910292" lon="11.3208182"><ele>980.0</ele><time>2026-04-25T11:38:23.312Z</time></trkpt><trkpt lat="44.1910717" lon="11.320922"><ele>980.0000000000001</ele><time>2026-04-25T11:38:24.329Z</time></trkpt><trkpt lat="44.1911215" lon="11.3210106"><ele>980.0</ele><time>2026-04-25T11:38:25.329Z</time></trkpt><trkpt lat="44.1911673" lon="11.3210946"><ele>980.0</ele><time>2026-04-25T11:38:26.35Z</time></trkpt><trkpt lat="44.1912275" lon="11.3211691"><ele>980.0</ele><time>2026-04-25T11:38:27.315Z</time></trkpt><trkpt lat="44.1913042" lon="11.321214"><ele>980.0000000000001</ele><time>2026-04-25T11:38:28.312Z</time></trkpt><trkpt lat="44.1914066" lon="11.3212581"><ele>980.0</ele><time>2026-04-25T11:38:29.321Z</time></trkpt><trkpt lat="44.1915156" lon="11.3212648"><ele>976.5</ele><time>2026-04-25T11:38:30.312Z</time></trkpt><trkpt lat="44.1916255" lon="11.3212698"><ele>973.0</ele><time>2026-04-25T11:38:31.322Z</time></trkpt><trkpt lat="44.1917389" lon="11.3212629"><ele>969.5</ele><time>2026-04-25T11:38:32.316Z</time></trkpt><trkpt lat="44.1918521" lon="11.3212663"><ele>966.0</ele><time>2026-04-25T11:38:33.296Z</time></trkpt><trkpt lat="44.1919695" lon="11.3212769"><ele>966.0</ele><time>2026-04-25T11:38:34.332Z</time></trkpt><trkpt lat="44.1920726" lon="11.321294"><ele>965.9999999999999</ele><time>2026-04-25T11:38:35.32Z</time></trkpt><trkpt lat="44.1921779" lon="11.321316"><ele>965.9999999999999</ele><time>2026-04-25T11:38:36.322Z</time></trkpt><trkpt lat="44.1922805" lon="11.3213353"><ele>966.0</ele><time>2026-04-25T11:38:37.321Z</time></trkpt><trkpt lat="44.192382" lon="11.321364"><ele>966.0</ele><time>2026-04-25T11:38:38.306Z</time></trkpt><trkpt lat="44.1924799" lon="11.3214012"><ele>968.1999999999999</ele><time>2026-04-25T11:38:39.32Z</time></trkpt><trkpt lat="44.1925758" lon="11.3214463"><ele>970.3999999999999</ele><time>2026-04-25T11:38:40.325Z</time></trkpt><trkpt lat="44.1926643" lon="11.3215048"><ele>972.6</ele><time>2026-04-25T11:38:41.326Z</time></trkpt><trkpt lat="44.1927563" lon="11.3215758"><ele>974.8</ele><time>2026-04-25T11:38:42.317Z</time></trkpt><trkpt lat="44.192835" lon="11.3216525"><ele>977.0</ele><time>2026-04-25T11:38:43.304Z</time></trkpt><trkpt lat="44.1929061" lon="11.321735"><ele>977.0</ele><time>2026-04-25T11:38:44.302Z</time></trkpt><trkpt lat="44.1929775" lon="11.3218368"><ele>977.0</ele><time>2026-04-25T11:38:45.316Z</time></trkpt><trkpt lat="44.1930428" lon="11.3219702"><ele>977.0</ele><time>2026-04-25T11:38:46.315Z</time></trkpt><trkpt lat="44.1930999" lon="11.322116"><ele>977.0</ele><time>2026-04-25T11:38:47.346Z</time></trkpt><trkpt lat="44.1931476" lon="11.3222441"><ele>977.0</ele><time>2026-04-25T11:38:48.329Z</time></trkpt><trkpt lat="44.1931901" lon="11.3223626"><ele>975.6666666666667</ele><time>2026-04-25T11:38:49.334Z</time></trkpt><trkpt lat="44.1932316" lon="11.3224584"><ele>974.3333333333334</ele><time>2026-04-25T11:38:50.311Z</time></trkpt><trkpt lat="44.1932944" lon="11.3225227"><ele>973.0</ele><time>2026-04-25T11:38:51.321Z</time></trkpt><trkpt lat="44.1933668" lon="11.3225672"><ele>971.6666666666667</ele><time>2026-04-25T11:38:52.295Z</time></trkpt><trkpt lat="44.1934525" lon="11.3226037"><ele>970.3333333333334</ele><time>2026-04-25T11:38:53.3Z</time></trkpt><trkpt lat="44.1935673" lon="11.3226455"><ele>969.0</ele><time>2026-04-25T11:38:54.316Z</time></trkpt><trkpt lat="44.1936891" lon="11.3226802"><ele>969.0</ele><time>2026-04-25T11:38:55.303Z</time></trkpt><trkpt lat="44.1938267" lon="11.3227206"><ele>969.0</ele><time>2026-04-25T11:38:56.322Z</time></trkpt><trkpt lat="44.1939503" lon="11.3227565"><ele>969.0</ele><time>2026-04-25T11:38:57.326Z</time></trkpt><trkpt lat="44.1940538" lon="11.3227929"><ele>969.0</ele><time>2026-04-25T11:38:58.316Z</time></trkpt><trkpt lat="44.1941535" lon="11.32283"><ele>968.4000000000001</ele><time>2026-04-25T11:38:59.333Z</time></trkpt><trkpt lat="44.1942454" lon="11.3228641"><ele>967.8000000000001</ele><time>2026-04-25T11:39:00.324Z</time></trkpt><trkpt lat="44.1943369" lon="11.3229192"><ele>967.1999999999999</ele><time>2026-04-25T11:39:01.325Z</time></trkpt><trkpt lat="44.1944277" lon="11.3229716"><ele>966.5999999999999</ele><time>2026-04-25T11:39:02.335Z</time></trkpt><trkpt lat="44.19452" lon="11.3230388"><ele>966.0</ele><time>2026-04-25T11:39:03.308Z</time></trkpt><trkpt lat="44.1945949" lon="11.3231047"><ele>966.0</ele><time>2026-04-25T11:39:04.323Z</time></trkpt><trkpt lat="44.1946443" lon="11.3231712"><ele>965.9999999999999</ele><time>2026-04-25T11:39:05.328Z</time></trkpt><trkpt lat="44.194656" lon="11.3233399"><ele>965.9999999999999</ele><time>2026-04-25T11:39:07.335Z</time></trkpt><trkpt lat="44.1946322" lon="11.3234484"><ele>966.0</ele><time>2026-04-25T11:39:08.329Z</time></trkpt><trkpt lat="44.194585" lon="11.3235888"><ele>966.0</ele><time>2026-04-25T11:39:09.327Z</time></trkpt><trkpt lat="44.19453" lon="11.3237384"><ele>966.0</ele><time>2026-04-25T11:39:10.335Z</time></trkpt><trkpt lat="44.1944946" lon="11.3238674"><ele>965.9999999999999</ele><time>2026-04-25T11:39:11.32Z</time></trkpt><trkpt lat="44.1944629" lon="11.323995"><ele>965.9999999999999</ele><time>2026-04-25T11:39:12.319Z</time></trkpt><trkpt lat="44.1944506" lon="11.3241182"><ele>966.0</ele><time>2026-04-25T11:39:13.302Z</time></trkpt><trkpt lat="44.1944605" lon="11.324239"><ele>966.0</ele><time>2026-04-25T11:39:14.298Z</time></trkpt><trkpt lat="44.1944886" lon="11.3243681"><ele>965.5999999999999</ele><time>2026-04-25T11:39:15.319Z</time></trkpt><trkpt lat="44.1945319" lon="11.3244883"><ele>965.1999999999999</ele><time>2026-04-25T11:39:16.313Z</time></trkpt><trkpt lat="44.1945753" lon="11.3246022"><ele>964.8000000000001</ele><time>2026-04-25T11:39:17.321Z</time></trkpt><trkpt lat="44.1946205" lon="11.3247168"><ele>964.4000000000001</ele><time>2026-04-25T11:39:18.32Z</time></trkpt><trkpt lat="44.1946609" lon="11.3248237"><ele>964.0</ele><time>2026-04-25T11:39:19.315Z</time></trkpt><trkpt lat="44.1947111" lon="11.3249408"><ele>961.9999999999999</ele><time>2026-04-25T11:39:20.298Z</time></trkpt><trkpt lat="44.1947626" lon="11.3250526"><ele>960.0</ele><time>2026-04-25T11:39:21.308Z</time></trkpt><trkpt lat="44.1948162" lon="11.3251649"><ele>958.0</ele><time>2026-04-25T11:39:22.32Z</time></trkpt><trkpt lat="44.1948617" lon="11.3252708"><ele>956.0</ele><time>2026-04-25T11:39:23.335Z</time></trkpt><trkpt lat="44.1948926" lon="11.3253647"><ele>953.9999999999999</ele><time>2026-04-25T11:39:24.327Z</time></trkpt><trkpt lat="44.1949151" lon="11.3254493"><ele>952.0</ele><time>2026-04-25T11:39:25.344Z</time></trkpt><trkpt lat="44.1949818" lon="11.3255884"><ele>950.1666666666666</ele><time>2026-04-25T11:39:27.329Z</time></trkpt><trkpt lat="44.1950564" lon="11.3256432"><ele>948.3333333333333</ele><time>2026-04-25T11:39:29.327Z</time></trkpt><trkpt lat="44.195124" lon="11.3256322"><ele>946.5</ele><time>2026-04-25T11:39:31.304Z</time></trkpt><trkpt lat="44.1952255" lon="11.3255376"><ele>944.6666666666667</ele><time>2026-04-25T11:39:33.327Z</time></trkpt><trkpt lat="44.1952846" lon="11.3254556"><ele>942.8333333333334</ele><time>2026-04-25T11:39:34.308Z</time></trkpt><trkpt lat="44.1953388" lon="11.3253593"><ele>941.0</ele><time>2026-04-25T11:39:35.319Z</time></trkpt><trkpt lat="44.1953949" lon="11.3252644"><ele>941.0</ele><time>2026-04-25T11:39:36.335Z</time></trkpt><trkpt lat="44.1954536" lon="11.32517"><ele>940.9999999999999</ele><time>2026-04-25T11:39:37.322Z</time></trkpt><trkpt lat="44.1955111" lon="11.3250709"><ele>940.9999999999999</ele><time>2026-04-25T11:39:38.327Z</time></trkpt><trkpt lat="44.1955718" lon="11.3249696"><ele>941.0</ele><time>2026-04-25T11:39:39.33Z</time></trkpt><trkpt lat="44.1956377" lon="11.3248617"><ele>941.0</ele><time>2026-04-25T11:39:40.313Z</time></trkpt><trkpt lat="44.1957043" lon="11.3247611"><ele>938.8</ele><time>2026-04-25T11:39:41.302Z</time></trkpt><trkpt lat="44.1957734" lon="11.3246636"><ele>936.5999999999999</ele><time>2026-04-25T11:39:42.34Z</time></trkpt><trkpt lat="44.1958509" lon="11.3245779"><ele>934.4</ele><time>2026-04-25T11:39:43.317Z</time></trkpt><trkpt lat="44.1959284" lon="11.3245248"><ele>932.2</ele><time>2026-04-25T11:39:44.318Z</time></trkpt><trkpt lat="44.1960031" lon="11.3245448"><ele>930.0</ele><time>2026-04-25T11:39:46.292Z</time></trkpt><trkpt lat="44.1960842" lon="11.3246161"><ele>930.0</ele><time>2026-04-25T11:39:50.308Z</time></trkpt><trkpt lat="44.1961272" lon="11.3247345"><ele>930.0</ele><time>2026-04-25T11:39:52.303Z</time></trkpt><trkpt lat="44.1961744" lon="11.3249081"><ele>930.0</ele><time>2026-04-25T11:39:54.338Z</time></trkpt><trkpt lat="44.1962004" lon="11.3250266"><ele>930.0</ele><time>2026-04-25T11:39:55.297Z</time></trkpt><trkpt lat="44.1962287" lon="11.3251404"><ele>930.0</ele><time>2026-04-25T11:39:56.302Z</time></trkpt><trkpt lat="44.1962551" lon="11.3252699"><ele>930.0</ele><time>2026-04-25T11:39:57.318Z</time></trkpt><trkpt lat="44.1962798" lon="11.3253957"><ele>930.0</ele><time>2026-04-25T11:39:58.318Z</time></trkpt><trkpt lat="44.1963049" lon="11.3255216"><ele>930.0</ele><time>2026-04-25T11:39:59.303Z</time></trkpt><trkpt lat="44.1963376" lon="11.3256434"><ele>930.0</ele><time>2026-04-25T11:40:00.318Z</time></trkpt><trkpt lat="44.1963771" lon="11.3257644"><ele>930.0</ele><time>2026-04-25T11:40:01.302Z</time></trkpt><trkpt lat="44.1964139" lon="11.3258913"><ele>929.5</ele><time>2026-04-25T11:40:02.323Z</time></trkpt><trkpt lat="44.1964832" lon="11.3261361"><ele>929.0</ele><time>2026-04-25T11:40:04.325Z</time></trkpt><trkpt lat="44.1965129" lon="11.3262631"><ele>928.5</ele><time>2026-04-25T11:40:05.31Z</time></trkpt><trkpt lat="44.1965435" lon="11.3263921"><ele>928.0</ele><time>2026-04-25T11:40:06.293Z</time></trkpt><trkpt lat="44.1965765" lon="11.3265101"><ele>924.1666666666666</ele><time>2026-04-25T11:40:07.321Z</time></trkpt><trkpt lat="44.1966175" lon="11.3266202"><ele>920.3333333333333</ele><time>2026-04-25T11:40:08.331Z</time></trkpt><trkpt lat="44.1966733" lon="11.326704"><ele>916.5</ele><time>2026-04-25T11:40:09.313Z</time></trkpt><trkpt lat="44.1967416" lon="11.3267569"><ele>912.6666666666667</ele><time>2026-04-25T11:40:10.309Z</time></trkpt><trkpt lat="44.1968307" lon="11.3267735"><ele>908.8333333333334</ele><time>2026-04-25T11:40:11.316Z</time></trkpt><trkpt lat="44.1969236" lon="11.3267315"><ele>905.0</ele><time>2026-04-25T11:40:12.318Z</time></trkpt><trkpt lat="44.1970042" lon="11.3266609"><ele>905.0</ele><time>2026-04-25T11:40:13.331Z</time></trkpt><trkpt lat="44.1970858" lon="11.3265812"><ele>905.0</ele><time>2026-04-25T11:40:14.297Z</time></trkpt><trkpt lat="44.1971607" lon="11.3264964"><ele>905.0</ele><time>2026-04-25T11:40:15.299Z</time></trkpt><trkpt lat="44.1972372" lon="11.3264135"><ele>905.0</ele><time>2026-04-25T11:40:16.287Z</time></trkpt><trkpt lat="44.1973249" lon="11.3263416"><ele>905.0</ele><time>2026-04-25T11:40:17.291Z</time></trkpt><trkpt lat="44.1974256" lon="11.3263062"><ele>902.8</ele><time>2026-04-25T11:40:18.294Z</time></trkpt><trkpt lat="44.1975285" lon="11.3263035"><ele>900.6</ele><time>2026-04-25T11:40:19.285Z</time></trkpt><trkpt lat="44.1976307" lon="11.326314"><ele>898.4000000000001</ele><time>2026-04-25T11:40:20.287Z</time></trkpt><trkpt lat="44.197724" lon="11.3263398"><ele>896.2</ele><time>2026-04-25T11:40:21.287Z</time></trkpt><trkpt lat="44.1978174" lon="11.326363"><ele>894.0</ele><time>2026-04-25T11:40:22.294Z</time></trkpt><trkpt lat="44.1979064" lon="11.3263819"><ele>893.3333333333334</ele><time>2026-04-25T11:40:23.286Z</time></trkpt><trkpt lat="44.1979797" lon="11.326415"><ele>892.6666666666667</ele><time>2026-04-25T11:40:24.291Z</time></trkpt><trkpt lat="44.1980374" lon="11.3264739"><ele>892.0</ele><time>2026-04-25T11:40:25.296Z</time></trkpt><trkpt lat="44.1980641" lon="11.3265717"><ele>891.3333333333334</ele><time>2026-04-25T11:40:26.305Z</time></trkpt><trkpt lat="44.1980576" lon="11.3266897"><ele>890.6666666666667</ele><time>2026-04-25T11:40:27.305Z</time></trkpt><trkpt lat="44.1980329" lon="11.3267991"><ele>890.0</ele><time>2026-04-25T11:40:28.312Z</time></trkpt><trkpt lat="44.1980601" lon="11.326972"><ele>890.0000000000001</ele><time>2026-04-25T11:40:30.3Z</time></trkpt><trkpt lat="44.1981217" lon="11.3270518"><ele>890.0</ele><time>2026-04-25T11:40:31.296Z</time></trkpt><trkpt lat="44.1981845" lon="11.3271211"><ele>890.0</ele><time>2026-04-25T11:40:32.302Z</time></trkpt><trkpt lat="44.1982491" lon="11.3272034"><ele>890.0</ele><time>2026-04-25T11:40:33.313Z</time></trkpt><trkpt lat="44.1983179" lon="11.3272855"><ele>890.0000000000001</ele><time>2026-04-25T11:40:34.305Z</time></trkpt><trkpt lat="44.1983979" lon="11.327361"><ele>890.0</ele><time>2026-04-25T11:40:35.33Z</time></trkpt><trkpt lat="44.1984847" lon="11.3274106"><ele>886.0</ele><time>2026-04-25T11:40:36.293Z</time></trkpt><trkpt lat="44.1985791" lon="11.3274653"><ele>882.0</ele><time>2026-04-25T11:40:37.307Z</time></trkpt><trkpt lat="44.198672" lon="11.3275262"><ele>878.0</ele><time>2026-04-25T11:40:38.306Z</time></trkpt><trkpt lat="44.1987603" lon="11.3275761"><ele>874.0</ele><time>2026-04-25T11:40:39.307Z</time></trkpt><trkpt lat="44.1988449" lon="11.3276209"><ele>870.0</ele><time>2026-04-25T11:40:40.309Z</time></trkpt><trkpt lat="44.1989346" lon="11.3276608"><ele>868.2</ele><time>2026-04-25T11:40:41.322Z</time></trkpt><trkpt lat="44.1990332" lon="11.3276902"><ele>866.4</ele><time>2026-04-25T11:40:42.306Z</time></trkpt><trkpt lat="44.1991344" lon="11.327722"><ele>864.5999999999999</ele><time>2026-04-25T11:40:43.308Z</time></trkpt><trkpt lat="44.1992364" lon="11.3277526"><ele>862.8</ele><time>2026-04-25T11:40:44.334Z</time></trkpt><trkpt lat="44.199348" lon="11.3277805"><ele>861.0</ele><time>2026-04-25T11:40:45.314Z</time></trkpt><trkpt lat="44.1994593" lon="11.3278064"><ele>861.0</ele><time>2026-04-25T11:40:46.35Z</time></trkpt><trkpt lat="44.1995641" lon="11.3278323"><ele>860.9999999999999</ele><time>2026-04-25T11:40:47.319Z</time></trkpt><trkpt lat="44.1996678" lon="11.327859"><ele>860.9999999999999</ele><time>2026-04-25T11:40:48.324Z</time></trkpt><trkpt lat="44.1997724" lon="11.3278865"><ele>861.0</ele><time>2026-04-25T11:40:49.334Z</time></trkpt><trkpt lat="44.1998791" lon="11.3279135"><ele>861.0</ele><time>2026-04-25T11:40:50.325Z</time></trkpt><trkpt lat="44.1999903" lon="11.3279403"><ele>859.0</ele><time>2026-04-25T11:40:51.314Z</time></trkpt><trkpt lat="44.2001053" lon="11.3279759"><ele>857.0</ele><time>2026-04-25T11:40:52.331Z</time></trkpt><trkpt lat="44.2002238" lon="11.3280214"><ele>855.0</ele><time>2026-04-25T11:40:53.323Z</time></trkpt><trkpt lat="44.2003371" lon="11.3280585"><ele>853.0</ele><time>2026-04-25T11:40:54.305Z</time></trkpt><trkpt lat="44.2004449" lon="11.3281"><ele>852.9999999999999</ele><time>2026-04-25T11:40:55.331Z</time></trkpt><trkpt lat="44.2005419" lon="11.3281302"><ele>853.0</ele><time>2026-04-25T11:40:56.302Z</time></trkpt><trkpt lat="44.2006277" lon="11.3281612"><ele>853.0</ele><time>2026-04-25T11:40:57.336Z</time></trkpt><trkpt lat="44.2007052" lon="11.3281844"><ele>853.0</ele><time>2026-04-25T11:40:58.329Z</time></trkpt><trkpt lat="44.2007782" lon="11.3281972"><ele>852.9999999999999</ele><time>2026-04-25T11:40:59.301Z</time></trkpt><trkpt lat="44.2008527" lon="11.3281987"><ele>853.0</ele><time>2026-04-25T11:41:00.324Z</time></trkpt><trkpt lat="44.2009241" lon="11.3281737"><ele>853.1666666666666</ele><time>2026-04-25T11:41:01.331Z</time></trkpt><trkpt lat="44.2009978" lon="11.3281364"><ele>853.3333333333333</ele><time>2026-04-25T11:41:02.339Z</time></trkpt><trkpt lat="44.2010605" lon="11.3280636"><ele>853.5</ele><time>2026-04-25T11:41:03.319Z</time></trkpt><trkpt lat="44.2011201" lon="11.3279856"><ele>853.6666666666667</ele><time>2026-04-25T11:41:04.316Z</time></trkpt><trkpt lat="44.2011815" lon="11.3279136"><ele>853.8333333333334</ele><time>2026-04-25T11:41:05.319Z</time></trkpt><trkpt lat="44.201244" lon="11.3278432"><ele>854.0</ele><time>2026-04-25T11:41:06.303Z</time></trkpt><trkpt lat="44.2013004" lon="11.3277856"><ele>854.0</ele><time>2026-04-25T11:41:07.326Z</time></trkpt><trkpt lat="44.2013947" lon="11.327697"><ele>854.0000000000001</ele><time>2026-04-25T11:41:09.324Z</time></trkpt><trkpt lat="44.2014897" lon="11.3276229"><ele>854.0000000000001</ele><time>2026-04-25T11:41:11.318Z</time></trkpt><trkpt lat="44.2015929" lon="11.3275387"><ele>854.0</ele><time>2026-04-25T11:41:13.299Z</time></trkpt><trkpt lat="44.2016478" lon="11.3274937"><ele>854.0</ele><time>2026-04-25T11:41:14.337Z</time></trkpt><trkpt lat="44.2017569" lon="11.3274013"><ele>852.4285714285714</ele><time>2026-04-25T11:41:16.322Z</time></trkpt><trkpt lat="44.2018152" lon="11.3273626"><ele>850.8571428571429</ele><time>2026-04-25T11:41:17.322Z</time></trkpt><trkpt lat="44.201875" lon="11.3273269"><ele>849.2857142857142</ele><time>2026-04-25T11:41:18.317Z</time></trkpt><trkpt lat="44.2019357" lon="11.3272872"><ele>847.7142857142858</ele><time>2026-04-25T11:41:19.313Z</time></trkpt><trkpt lat="44.2019955" lon="11.3272521"><ele>846.1428571428571</ele><time>2026-04-25T11:41:20.295Z</time></trkpt><trkpt lat="44.2020627" lon="11.3272168"><ele>844.5714285714286</ele><time>2026-04-25T11:41:21.314Z</time></trkpt><trkpt lat="44.2021318" lon="11.3271865"><ele>843.0</ele><time>2026-04-25T11:41:22.315Z</time></trkpt><trkpt lat="44.2022025" lon="11.327169"><ele>842.1666666666666</ele><time>2026-04-25T11:41:23.302Z</time></trkpt><trkpt lat="44.2022728" lon="11.3271496"><ele>841.3333333333333</ele><time>2026-04-25T11:41:24.31Z</time></trkpt><trkpt lat="44.2023459" lon="11.3271351"><ele>840.5</ele><time>2026-04-25T11:41:25.319Z</time></trkpt><trkpt lat="44.2024221" lon="11.3271144"><ele>839.6666666666666</ele><time>2026-04-25T11:41:26.306Z</time></trkpt><trkpt lat="44.2025021" lon="11.3271058"><ele>838.8333333333333</ele><time>2026-04-25T11:41:27.315Z</time></trkpt><trkpt lat="44.2025791" lon="11.3270916"><ele>838.0</ele><time>2026-04-25T11:41:28.314Z</time></trkpt><trkpt lat="44.2026601" lon="11.3270773"><ele>837.1666666666666</ele><time>2026-04-25T11:41:29.32Z</time></trkpt><trkpt lat="44.2027392" lon="11.3270668"><ele>836.3333333333333</ele><time>2026-04-25T11:41:30.321Z</time></trkpt><trkpt lat="44.2028246" lon="11.3270491"><ele>835.5</ele><time>2026-04-25T11:41:31.305Z</time></trkpt><trkpt lat="44.2029112" lon="11.3270239"><ele>834.6666666666667</ele><time>2026-04-25T11:41:32.338Z</time></trkpt><trkpt lat="44.2030025" lon="11.3269936"><ele>833.8333333333334</ele><time>2026-04-25T11:41:33.325Z</time></trkpt><trkpt lat="44.2030934" lon="11.3269612"><ele>833.0</ele><time>2026-04-25T11:41:34.311Z</time></trkpt><trkpt lat="44.2031942" lon="11.3269376"><ele>830.0</ele><time>2026-04-25T11:41:35.316Z</time></trkpt><trkpt lat="44.2032997" lon="11.326917"><ele>827.0</ele><time>2026-04-25T11:41:36.322Z</time></trkpt><trkpt lat="44.2034041" lon="11.3269071"><ele>824.0</ele><time>2026-04-25T11:41:37.323Z</time></trkpt><trkpt lat="44.203517" lon="11.3269066"><ele>821.0</ele><time>2026-04-25T11:41:38.306Z</time></trkpt><trkpt lat="44.2036285" lon="11.3269028"><ele>818.0</ele><time>2026-04-25T11:41:39.304Z</time></trkpt><trkpt lat="44.2037388" lon="11.3269053"><ele>818.0000000000001</ele><time>2026-04-25T11:41:40.323Z</time></trkpt><trkpt lat="44.2038418" lon="11.3269087"><ele>818.0</ele><time>2026-04-25T11:41:41.311Z</time></trkpt><trkpt lat="44.2039439" lon="11.3269092"><ele>818.0</ele><time>2026-04-25T11:41:42.309Z</time></trkpt><trkpt lat="44.2040325" lon="11.3269095"><ele>818.0</ele><time>2026-04-25T11:41:43.32Z</time></trkpt><trkpt lat="44.2041148" lon="11.32691"><ele>818.0000000000001</ele><time>2026-04-25T11:41:44.305Z</time></trkpt><trkpt lat="44.2041779" lon="11.3269076"><ele>818.0</ele><time>2026-04-25T11:41:45.318Z</time></trkpt><trkpt lat="44.2042423" lon="11.3269211"><ele>815.8</ele><time>2026-04-25T11:41:47.317Z</time></trkpt><trkpt lat="44.2043374" lon="11.3268851"><ele>813.5999999999999</ele><time>2026-04-25T11:41:50.322Z</time></trkpt><trkpt lat="44.2043859" lon="11.3268259"><ele>811.4000000000001</ele><time>2026-04-25T11:41:51.307Z</time></trkpt><trkpt lat="44.2044634" lon="11.3267598"><ele>809.2</ele><time>2026-04-25T11:41:52.308Z</time></trkpt><trkpt lat="44.2045607" lon="11.3266921"><ele>807.0</ele><time>2026-04-25T11:41:53.311Z</time></trkpt><trkpt lat="44.2046501" lon="11.3266665"><ele>807.0</ele><time>2026-04-25T11:41:54.321Z</time></trkpt><trkpt lat="44.2047345" lon="11.3266609"><ele>807.0</ele><time>2026-04-25T11:41:55.301Z</time></trkpt><trkpt lat="44.2048171" lon="11.3266407"><ele>807.0</ele><time>2026-04-25T11:41:56.319Z</time></trkpt><trkpt lat="44.2048886" lon="11.3266124"><ele>807.0</ele><time>2026-04-25T11:41:57.301Z</time></trkpt><trkpt lat="44.20496" lon="11.3265823"><ele>807.0</ele><time>2026-04-25T11:41:58.313Z</time></trkpt><trkpt lat="44.205024" lon="11.3265554"><ele>807.0</ele><time>2026-04-25T11:41:59.32Z</time></trkpt><trkpt lat="44.2051284" lon="11.3265162"><ele>806.8</ele><time>2026-04-25T11:42:01.317Z</time></trkpt><trkpt lat="44.2052599" lon="11.3264808"><ele>806.6</ele><time>2026-04-25T11:42:03.309Z</time></trkpt><trkpt lat="44.205339" lon="11.3264566"><ele>806.4</ele><time>2026-04-25T11:42:04.321Z</time></trkpt><trkpt lat="44.2054277" lon="11.326419"><ele>806.1999999999999</ele><time>2026-04-25T11:42:05.323Z</time></trkpt><trkpt lat="44.2055058" lon="11.3263661"><ele>806.0</ele><time>2026-04-25T11:42:06.318Z</time></trkpt><trkpt lat="44.2055985" lon="11.3263042"><ele>805.0</ele><time>2026-04-25T11:42:07.312Z</time></trkpt><trkpt lat="44.2056979" lon="11.3262345"><ele>804.0</ele><time>2026-04-25T11:42:08.311Z</time></trkpt><trkpt lat="44.2058026" lon="11.3261646"><ele>803.0</ele><time>2026-04-25T11:42:09.305Z</time></trkpt><trkpt lat="44.2059131" lon="11.326097"><ele>802.0</ele><time>2026-04-25T11:42:10.318Z</time></trkpt><trkpt lat="44.2060232" lon="11.3260319"><ele>802.0</ele><time>2026-04-25T11:42:11.326Z</time></trkpt><trkpt lat="44.2061362" lon="11.3259682"><ele>802.0</ele><time>2026-04-25T11:42:12.329Z</time></trkpt><trkpt lat="44.2062414" lon="11.3259165"><ele>802.0</ele><time>2026-04-25T11:42:13.317Z</time></trkpt><trkpt lat="44.2063408" lon="11.3258755"><ele>802.0</ele><time>2026-04-25T11:42:14.319Z</time></trkpt><trkpt lat="44.2064333" lon="11.3258359"><ele>802.0</ele><time>2026-04-25T11:42:15.318Z</time></trkpt><trkpt lat="44.2065192" lon="11.3258122"><ele>802.1666666666666</ele><time>2026-04-25T11:42:16.327Z</time></trkpt><trkpt lat="44.2065922" lon="11.3257887"><ele>802.3333333333333</ele><time>2026-04-25T11:42:17.317Z</time></trkpt><trkpt lat="44.2067048" lon="11.3257627"><ele>802.5</ele><time>2026-04-25T11:42:19.318Z</time></trkpt><trkpt lat="44.2067744" lon="11.3257245"><ele>802.6666666666667</ele><time>2026-04-25T11:42:21.329Z</time></trkpt><trkpt lat="44.2068345" lon="11.3256675"><ele>802.8333333333334</ele><time>2026-04-25T11:42:25.318Z</time></trkpt><trkpt lat="44.2068889" lon="11.3256036"><ele>803.0</ele><time>2026-04-25T11:42:30.32Z</time></trkpt><trkpt lat="44.2068213" lon="11.3256074"><ele>802.9999999999999</ele><time>2026-04-25T11:43:43.301Z</time></trkpt><trkpt lat="44.2068299" lon="11.3255198"><ele>803.0</ele><time>2026-04-25T11:43:52.303Z</time></trkpt><trkpt lat="44.2068448" lon="11.3254337"><ele>803.0</ele><time>2026-04-25T11:44:47.312Z</time></trkpt><trkpt lat="44.2068704" lon="11.3255181"><ele>803.0</ele><time>2026-04-25T11:49:54.322Z</time></trkpt><trkpt lat="44.2068733" lon="11.3254202"><ele>803.0</ele><time>2026-04-25T12:34:47.307Z</time></trkpt><trkpt lat="44.2068087" lon="11.3254099"><ele>802.9999999999999</ele><time>2026-04-25T12:35:28.309Z</time></trkpt><trkpt lat="44.2068017" lon="11.3254995"><ele>803.0</ele><time>2026-04-25T12:35:54.254Z</time></trkpt><trkpt lat="44.2068393" lon="11.3255756"><ele>803.0</ele><time>2026-04-25T12:36:12.34Z</time></trkpt><trkpt lat="44.2067758" lon="11.3256591"><ele>803.0</ele><time>2026-04-25T12:39:49.322Z</time></trkpt><trkpt lat="44.2066324" lon="11.325741"><ele>803.0</ele><time>2026-04-25T12:39:51.338Z</time></trkpt><trkpt lat="44.2065097" lon="11.3257815"><ele>803.0</ele><time>2026-04-25T12:39:52.33Z</time></trkpt><trkpt lat="44.2063746" lon="11.3258458"><ele>802.75</ele><time>2026-04-25T12:39:53.308Z</time></trkpt><trkpt lat="44.2062427" lon="11.3259245"><ele>802.5</ele><time>2026-04-25T12:39:54.333Z</time></trkpt><trkpt lat="44.2061249" lon="11.3259985"><ele>802.25</ele><time>2026-04-25T12:39:55.311Z</time></trkpt><trkpt lat="44.2060069" lon="11.3260587"><ele>802.0</ele><time>2026-04-25T12:39:56.303Z</time></trkpt><trkpt lat="44.2058853" lon="11.3261081"><ele>802.0</ele><time>2026-04-25T12:39:57.326Z</time></trkpt><trkpt lat="44.2057589" lon="11.3261651"><ele>802.0</ele><time>2026-04-25T12:39:58.323Z</time></trkpt><trkpt lat="44.2056472" lon="11.3262322"><ele>802.0</ele><time>2026-04-25T12:39:59.314Z</time></trkpt><trkpt lat="44.2055399" lon="11.3263103"><ele>802.0</ele><time>2026-04-25T12:40:00.309Z</time></trkpt><trkpt lat="44.2054422" lon="11.3263765"><ele>801.9999999999999</ele><time>2026-04-25T12:40:01.322Z</time></trkpt><trkpt lat="44.2053613" lon="11.3264056"><ele>802.0</ele><time>2026-04-25T12:40:02.328Z</time></trkpt><trkpt lat="44.2052886" lon="11.3263961"><ele>802.0</ele><time>2026-04-25T12:40:03.323Z</time></trkpt><trkpt lat="44.2052167" lon="11.3263373"><ele>802.0</ele><time>2026-04-25T12:40:04.311Z</time></trkpt><trkpt lat="44.2051514" lon="11.326286"><ele>801.9999999999999</ele><time>2026-04-25T12:40:05.297Z</time></trkpt><trkpt lat="44.2050861" lon="11.3262867"><ele>802.0</ele><time>2026-04-25T12:40:06.314Z</time></trkpt><trkpt lat="44.2050259" lon="11.3263423"><ele>802.8</ele><time>2026-04-25T12:40:07.338Z</time></trkpt><trkpt lat="44.2049808" lon="11.3264326"><ele>803.6</ele><time>2026-04-25T12:40:08.326Z</time></trkpt><trkpt lat="44.2049445" lon="11.3265242"><ele>804.4</ele><time>2026-04-25T12:40:09.327Z</time></trkpt><trkpt lat="44.2048776" lon="11.3265999"><ele>805.1999999999999</ele><time>2026-04-25T12:40:10.314Z</time></trkpt><trkpt lat="44.2047736" lon="11.3266363"><ele>806.0</ele><time>2026-04-25T12:40:11.331Z</time></trkpt><trkpt lat="44.2046579" lon="11.3266482"><ele>806.25</ele><time>2026-04-25T12:40:12.33Z</time></trkpt><trkpt lat="44.2045288" lon="11.3266948"><ele>806.5</ele><time>2026-04-25T12:40:13.328Z</time></trkpt><trkpt lat="44.2044101" lon="11.3267868"><ele>806.75</ele><time>2026-04-25T12:40:14.335Z</time></trkpt><trkpt lat="44.2042978" lon="11.3269073"><ele>807.0</ele><time>2026-04-25T12:40:15.321Z</time></trkpt><trkpt lat="44.2042164" lon="11.3270885"><ele>807.6666666666667</ele><time>2026-04-25T12:40:16.336Z</time></trkpt><trkpt lat="44.204152" lon="11.327295"><ele>808.3333333333334</ele><time>2026-04-25T12:40:17.332Z</time></trkpt><trkpt lat="44.2040746" lon="11.327493"><ele>809.0</ele><time>2026-04-25T12:40:18.306Z</time></trkpt><trkpt lat="44.203973" lon="11.3276729"><ele>810.6666666666667</ele><time>2026-04-25T12:40:19.296Z</time></trkpt><trkpt lat="44.2038567" lon="11.327841"><ele>812.3333333333333</ele><time>2026-04-25T12:40:20.307Z</time></trkpt><trkpt lat="44.2037215" lon="11.3280053"><ele>814.0</ele><time>2026-04-25T12:40:21.281Z</time></trkpt><trkpt lat="44.2035846" lon="11.3281764"><ele>814.0</ele><time>2026-04-25T12:40:22.293Z</time></trkpt><trkpt lat="44.2034584" lon="11.3283292"><ele>814.0</ele><time>2026-04-25T12:40:23.283Z</time></trkpt><trkpt lat="44.2033282" lon="11.3284453"><ele>814.0</ele><time>2026-04-25T12:40:24.32Z</time></trkpt><trkpt lat="44.2031919" lon="11.3285014"><ele>816.75</ele><time>2026-04-25T12:40:25.29Z</time></trkpt><trkpt lat="44.203053" lon="11.3285288"><ele>819.5</ele><time>2026-04-25T12:40:26.311Z</time></trkpt><trkpt lat="44.2029298" lon="11.3285437"><ele>822.25</ele><time>2026-04-25T12:40:27.327Z</time></trkpt><trkpt lat="44.2028166" lon="11.3285706"><ele>825.0</ele><time>2026-04-25T12:40:28.314Z</time></trkpt><trkpt lat="44.2027213" lon="11.328639"><ele>825.0</ele><time>2026-04-25T12:40:29.313Z</time></trkpt><trkpt lat="44.2026533" lon="11.3287592"><ele>825.0</ele><time>2026-04-25T12:40:30.311Z</time></trkpt><trkpt lat="44.2026256" lon="11.3289147"><ele>825.0</ele><time>2026-04-25T12:40:31.297Z</time></trkpt><trkpt lat="44.2026174" lon="11.3290718"><ele>825.0</ele><time>2026-04-25T12:40:32.295Z</time></trkpt><trkpt lat="44.202604" lon="11.3292374"><ele>826.25</ele><time>2026-04-25T12:40:33.318Z</time></trkpt><trkpt lat="44.2025536" lon="11.3293694"><ele>827.5</ele><time>2026-04-25T12:40:34.323Z</time></trkpt><trkpt lat="44.202468" lon="11.3294726"><ele>828.75</ele><time>2026-04-25T12:40:35.336Z</time></trkpt><trkpt lat="44.2023555" lon="11.3295624"><ele>830.0</ele><time>2026-04-25T12:40:36.292Z</time></trkpt><trkpt lat="44.2022238" lon="11.3296306"><ele>830.0</ele><time>2026-04-25T12:40:37.311Z</time></trkpt><trkpt lat="44.2020823" lon="11.3296884"><ele>830.0</ele><time>2026-04-25T12:40:38.296Z</time></trkpt><trkpt lat="44.2019327" lon="11.3297129"><ele>830.0</ele><time>2026-04-25T12:40:39.304Z</time></trkpt><trkpt lat="44.2017618" lon="11.3297203"><ele>830.0</ele><time>2026-04-25T12:40:40.286Z</time></trkpt><trkpt lat="44.2015865" lon="11.3297225"><ele>830.0</ele><time>2026-04-25T12:40:41.317Z</time></trkpt><trkpt lat="44.2014161" lon="11.3297878"><ele>830.0</ele><time>2026-04-25T12:40:42.327Z</time></trkpt><trkpt lat="44.2012718" lon="11.3299134"><ele>827.6666666666667</ele><time>2026-04-25T12:40:43.326Z</time></trkpt><trkpt lat="44.2011399" lon="11.3300868"><ele>825.3333333333333</ele><time>2026-04-25T12:40:44.32Z</time></trkpt><trkpt lat="44.2010139" lon="11.3302804"><ele>823.0</ele><time>2026-04-25T12:40:45.307Z</time></trkpt><trkpt lat="44.2009043" lon="11.3304759"><ele>816.0</ele><time>2026-04-25T12:40:46.293Z</time></trkpt><trkpt lat="44.2008111" lon="11.3306763"><ele>809.0</ele><time>2026-04-25T12:40:47.299Z</time></trkpt><trkpt lat="44.2007513" lon="11.3308764"><ele>802.0</ele><time>2026-04-25T12:40:48.31Z</time></trkpt><trkpt lat="44.2007604" lon="11.331059"><ele>802.0</ele><time>2026-04-25T12:40:49.31Z</time></trkpt><trkpt lat="44.2008006" lon="11.3312264"><ele>802.0</ele><time>2026-04-25T12:40:50.313Z</time></trkpt><trkpt lat="44.2008428" lon="11.3313849"><ele>802.0</ele><time>2026-04-25T12:40:51.311Z</time></trkpt><trkpt lat="44.2008484" lon="11.3315441"><ele>802.0</ele><time>2026-04-25T12:40:52.32Z</time></trkpt><trkpt lat="44.2007851" lon="11.3317029"><ele>801.0</ele><time>2026-04-25T12:40:53.325Z</time></trkpt><trkpt lat="44.2007034" lon="11.3318386"><ele>800.0</ele><time>2026-04-25T12:40:54.314Z</time></trkpt><trkpt lat="44.2006235" lon="11.3319361"><ele>799.0</ele><time>2026-04-25T12:40:55.31Z</time></trkpt><trkpt lat="44.2005202" lon="11.3319697"><ele>798.0</ele><time>2026-04-25T12:40:56.298Z</time></trkpt><trkpt lat="44.2003933" lon="11.331954"><ele>797.75</ele><time>2026-04-25T12:40:57.312Z</time></trkpt><trkpt lat="44.2002757" lon="11.3318982"><ele>797.5</ele><time>2026-04-25T12:40:58.292Z</time></trkpt><trkpt lat="44.2001707" lon="11.3318138"><ele>797.25</ele><time>2026-04-25T12:40:59.315Z</time></trkpt><trkpt lat="44.2000931" lon="11.3317001"><ele>797.0</ele><time>2026-04-25T12:41:00.311Z</time></trkpt><trkpt lat="44.2000639" lon="11.331568"><ele>797.0</ele><time>2026-04-25T12:41:01.293Z</time></trkpt><trkpt lat="44.2000294" lon="11.3314351"><ele>797.0</ele><time>2026-04-25T12:41:02.319Z</time></trkpt><trkpt lat="44.1999731" lon="11.3313291"><ele>797.0</ele><time>2026-04-25T12:41:03.317Z</time></trkpt><trkpt lat="44.1998878" lon="11.33129"><ele>797.0</ele><time>2026-04-25T12:41:04.318Z</time></trkpt><trkpt lat="44.1997878" lon="11.3313068"><ele>797.0</ele><time>2026-04-25T12:41:05.321Z</time></trkpt><trkpt lat="44.1996961" lon="11.3313552"><ele>797.75</ele><time>2026-04-25T12:41:06.324Z</time></trkpt><trkpt lat="44.1996267" lon="11.3314774"><ele>798.5</ele><time>2026-04-25T12:41:07.328Z</time></trkpt><trkpt lat="44.1995916" lon="11.331629"><ele>799.25</ele><time>2026-04-25T12:41:08.312Z</time></trkpt><trkpt lat="44.1995641" lon="11.3318072"><ele>800.0</ele><time>2026-04-25T12:41:09.329Z</time></trkpt><trkpt lat="44.1995275" lon="11.3319915"><ele>800.0</ele><time>2026-04-25T12:41:10.322Z</time></trkpt><trkpt lat="44.199464" lon="11.3321709"><ele>800.0</ele><time>2026-04-25T12:41:11.295Z</time></trkpt><trkpt lat="44.1993633" lon="11.3323325"><ele>800.0</ele><time>2026-04-25T12:41:12.289Z</time></trkpt><trkpt lat="44.199236" lon="11.3324896"><ele>797.0</ele><time>2026-04-25T12:41:13.298Z</time></trkpt><trkpt lat="44.1991145" lon="11.3326349"><ele>794.0</ele><time>2026-04-25T12:41:14.302Z</time></trkpt><trkpt lat="44.1990061" lon="11.3327716"><ele>791.0</ele><time>2026-04-25T12:41:15.319Z</time></trkpt><trkpt lat="44.1988992" lon="11.332909"><ele>791.0</ele><time>2026-04-25T12:41:16.334Z</time></trkpt><trkpt lat="44.1988073" lon="11.3330386"><ele>791.0</ele><time>2026-04-25T12:41:17.311Z</time></trkpt><trkpt lat="44.1987292" lon="11.3331547"><ele>791.0</ele><time>2026-04-25T12:41:18.305Z</time></trkpt><trkpt lat="44.1986367" lon="11.3332336"><ele>791.0</ele><time>2026-04-25T12:41:19.317Z</time></trkpt><trkpt lat="44.1985326" lon="11.3332412"><ele>786.25</ele><time>2026-04-25T12:41:20.289Z</time></trkpt><trkpt lat="44.1984041" lon="11.3332354"><ele>781.5</ele><time>2026-04-25T12:41:21.307Z</time></trkpt><trkpt lat="44.1982422" lon="11.3332114"><ele>776.75</ele><time>2026-04-25T12:41:22.291Z</time></trkpt><trkpt lat="44.1980913" lon="11.3331911"><ele>772.0</ele><time>2026-04-25T12:41:23.3Z</time></trkpt><trkpt lat="44.1979259" lon="11.3331613"><ele>771.6666666666666</ele><time>2026-04-25T12:41:24.307Z</time></trkpt><trkpt lat="44.1977661" lon="11.3331354"><ele>771.3333333333333</ele><time>2026-04-25T12:41:25.314Z</time></trkpt><trkpt lat="44.1976072" lon="11.3331311"><ele>771.0</ele><time>2026-04-25T12:41:26.297Z</time></trkpt><trkpt lat="44.1974609" lon="11.3331381"><ele>771.75</ele><time>2026-04-25T12:41:27.298Z</time></trkpt><trkpt lat="44.1973223" lon="11.3331735"><ele>772.5</ele><time>2026-04-25T12:41:28.286Z</time></trkpt><trkpt lat="44.1971897" lon="11.3332484"><ele>773.25</ele><time>2026-04-25T12:41:29.282Z</time></trkpt><trkpt lat="44.1970628" lon="11.3333041"><ele>774.0</ele><time>2026-04-25T12:41:30.274Z</time></trkpt><trkpt lat="44.1969342" lon="11.3333418"><ele>774.0</ele><time>2026-04-25T12:41:31.299Z</time></trkpt><trkpt lat="44.1967876" lon="11.33334"><ele>774.0</ele><time>2026-04-25T12:41:32.277Z</time></trkpt><trkpt lat="44.1966039" lon="11.3333227"><ele>774.0</ele><time>2026-04-25T12:41:33.286Z</time></trkpt><trkpt lat="44.1964366" lon="11.3333457"><ele>775.0</ele><time>2026-04-25T12:41:34.274Z</time></trkpt><trkpt lat="44.1962697" lon="11.3333979"><ele>776.0</ele><time>2026-04-25T12:41:35.294Z</time></trkpt><trkpt lat="44.1961146" lon="11.3334476"><ele>777.0</ele><time>2026-04-25T12:41:36.302Z</time></trkpt><trkpt lat="44.195951" lon="11.333518"><ele>777.0</ele><time>2026-04-25T12:41:37.308Z</time></trkpt><trkpt lat="44.1957851" lon="11.3335801"><ele>777.0</ele><time>2026-04-25T12:41:38.31Z</time></trkpt><trkpt lat="44.1956209" lon="11.3336305"><ele>777.0</ele><time>2026-04-25T12:41:39.274Z</time></trkpt><trkpt lat="44.1954607" lon="11.3336636"><ele>780.3333333333333</ele><time>2026-04-25T12:41:40.273Z</time></trkpt><trkpt lat="44.1952991" lon="11.3336699"><ele>783.6666666666666</ele><time>2026-04-25T12:41:41.285Z</time></trkpt><trkpt lat="44.1951391" lon="11.3336599"><ele>787.0</ele><time>2026-04-25T12:41:42.274Z</time></trkpt><trkpt lat="44.194978" lon="11.333637"><ele>786.3333333333333</ele><time>2026-04-25T12:41:43.314Z</time></trkpt><trkpt lat="44.1948148" lon="11.3336147"><ele>785.6666666666667</ele><time>2026-04-25T12:41:44.312Z</time></trkpt><trkpt lat="44.1946457" lon="11.3336124"><ele>785.0</ele><time>2026-04-25T12:41:45.302Z</time></trkpt><trkpt lat="44.194461" lon="11.3336418"><ele>785.0</ele><time>2026-04-25T12:41:46.307Z</time></trkpt><trkpt lat="44.1942833" lon="11.3336874"><ele>785.0</ele><time>2026-04-25T12:41:47.301Z</time></trkpt><trkpt lat="44.1941088" lon="11.3337361"><ele>785.0</ele><time>2026-04-25T12:41:48.306Z</time></trkpt><trkpt lat="44.1939465" lon="11.3338058"><ele>784.25</ele><time>2026-04-25T12:41:49.291Z</time></trkpt><trkpt lat="44.1938048" lon="11.3339172"><ele>783.5</ele><time>2026-04-25T12:41:50.3Z</time></trkpt><trkpt lat="44.1936986" lon="11.3340435"><ele>782.75</ele><time>2026-04-25T12:41:51.299Z</time></trkpt><trkpt lat="44.1935952" lon="11.3341779"><ele>782.0</ele><time>2026-04-25T12:41:52.307Z</time></trkpt><trkpt lat="44.1934936" lon="11.334289"><ele>782.0</ele><time>2026-04-25T12:41:53.325Z</time></trkpt><trkpt lat="44.1934017" lon="11.3343561"><ele>782.0</ele><time>2026-04-25T12:41:54.3Z</time></trkpt><trkpt lat="44.1933301" lon="11.3343574"><ele>782.0</ele><time>2026-04-25T12:41:55.298Z</time></trkpt><trkpt lat="44.1932569" lon="11.334302"><ele>782.0</ele><time>2026-04-25T12:41:56.306Z</time></trkpt><trkpt lat="44.193211" lon="11.3341888"><ele>782.0</ele><time>2026-04-25T12:41:57.322Z</time></trkpt><trkpt lat="44.1931453" lon="11.3340685"><ele>782.0</ele><time>2026-04-25T12:41:58.312Z</time></trkpt><trkpt lat="44.1930767" lon="11.3339205"><ele>782.0</ele><time>2026-04-25T12:41:59.315Z</time></trkpt><trkpt lat="44.1929879" lon="11.3337626"><ele>782.0</ele><time>2026-04-25T12:42:00.334Z</time></trkpt><trkpt lat="44.192883" lon="11.333639"><ele>782.0</ele><time>2026-04-25T12:42:01.301Z</time></trkpt><trkpt lat="44.1927698" lon="11.3335661"><ele>790.0</ele><time>2026-04-25T12:42:02.313Z</time></trkpt><trkpt lat="44.1926367" lon="11.3335437"><ele>798.0</ele><time>2026-04-25T12:42:03.296Z</time></trkpt><trkpt lat="44.192487" lon="11.3335739"><ele>806.0</ele><time>2026-04-25T12:42:04.326Z</time></trkpt><trkpt lat="44.1923152" lon="11.3336505"><ele>803.6666666666667</ele><time>2026-04-25T12:42:05.305Z</time></trkpt><trkpt lat="44.1921323" lon="11.3337456"><ele>801.3333333333333</ele><time>2026-04-25T12:42:06.323Z</time></trkpt><trkpt lat="44.191945" lon="11.3338353"><ele>799.0</ele><time>2026-04-25T12:42:07.302Z</time></trkpt><trkpt lat="44.1917615" lon="11.333919"><ele>799.0</ele><time>2026-04-25T12:42:08.311Z</time></trkpt><trkpt lat="44.1915734" lon="11.3340243"><ele>799.0</ele><time>2026-04-25T12:42:09.322Z</time></trkpt><trkpt lat="44.191392" lon="11.3341433"><ele>799.0</ele><time>2026-04-25T12:42:10.314Z</time></trkpt><trkpt lat="44.1912349" lon="11.3342736"><ele>805.0</ele><time>2026-04-25T12:42:11.308Z</time></trkpt><trkpt lat="44.19107" lon="11.3343939"><ele>811.0</ele><time>2026-04-25T12:42:12.316Z</time></trkpt><trkpt lat="44.1908951" lon="11.3344887"><ele>817.0</ele><time>2026-04-25T12:42:13.31Z</time></trkpt><trkpt lat="44.1907078" lon="11.3345436"><ele>821.0</ele><time>2026-04-25T12:42:14.32Z</time></trkpt><trkpt lat="44.1905168" lon="11.3346031"><ele>825.0</ele><time>2026-04-25T12:42:15.3Z</time></trkpt><trkpt lat="44.1903304" lon="11.3346588"><ele>829.0</ele><time>2026-04-25T12:42:16.321Z</time></trkpt><trkpt lat="44.1901629" lon="11.3347071"><ele>826.25</ele><time>2026-04-25T12:42:17.305Z</time></trkpt><trkpt lat="44.1900171" lon="11.3347598"><ele>823.5</ele><time>2026-04-25T12:42:18.315Z</time></trkpt><trkpt lat="44.1898877" lon="11.334784"><ele>820.75</ele><time>2026-04-25T12:42:19.31Z</time></trkpt><trkpt lat="44.189783" lon="11.3347609"><ele>818.0</ele><time>2026-04-25T12:42:20.31Z</time></trkpt><trkpt lat="44.1896991" lon="11.3346563"><ele>818.0</ele><time>2026-04-25T12:42:21.31Z</time></trkpt><trkpt lat="44.1896216" lon="11.3345107"><ele>818.0</ele><time>2026-04-25T12:42:22.315Z</time></trkpt><trkpt lat="44.1895441" lon="11.3343238"><ele>818.0</ele><time>2026-04-25T12:42:23.284Z</time></trkpt><trkpt lat="44.1894731" lon="11.3341105"><ele>818.0</ele><time>2026-04-25T12:42:24.287Z</time></trkpt><trkpt lat="44.1894001" lon="11.3338894"><ele>818.0</ele><time>2026-04-25T12:42:25.305Z</time></trkpt><trkpt lat="44.1893127" lon="11.333681"><ele>818.0</ele><time>2026-04-25T12:42:26.317Z</time></trkpt><trkpt lat="44.1892259" lon="11.3335029"><ele>822.6666666666667</ele><time>2026-04-25T12:42:27.286Z</time></trkpt><trkpt lat="44.1891141" lon="11.333347"><ele>827.3333333333333</ele><time>2026-04-25T12:42:28.301Z</time></trkpt><trkpt lat="44.1889717" lon="11.3332196"><ele>832.0</ele><time>2026-04-25T12:42:29.3Z</time></trkpt><trkpt lat="44.1888161" lon="11.3331258"><ele>837.3333333333333</ele><time>2026-04-25T12:42:30.31Z</time></trkpt><trkpt lat="44.1886505" lon="11.3330471"><ele>842.6666666666667</ele><time>2026-04-25T12:42:31.305Z</time></trkpt><trkpt lat="44.188479" lon="11.3329699"><ele>848.0</ele><time>2026-04-25T12:42:32.301Z</time></trkpt><trkpt lat="44.1883199" lon="11.3328905"><ele>849.3333333333334</ele><time>2026-04-25T12:42:33.317Z</time></trkpt><trkpt lat="44.188153" lon="11.3328222"><ele>850.6666666666667</ele><time>2026-04-25T12:42:34.309Z</time></trkpt><trkpt lat="44.1879898" lon="11.3327794"><ele>852.0</ele><time>2026-04-25T12:42:35.302Z</time></trkpt><trkpt lat="44.1878314" lon="11.3327794"><ele>852.0</ele><time>2026-04-25T12:42:36.308Z</time></trkpt><trkpt lat="44.1876847" lon="11.3328248"><ele>852.0</ele><time>2026-04-25T12:42:37.31Z</time></trkpt><trkpt lat="44.1875564" lon="11.3328956"><ele>852.0</ele><time>2026-04-25T12:42:38.311Z</time></trkpt><trkpt lat="44.1874422" lon="11.3330139"><ele>852.0</ele><time>2026-04-25T12:42:39.312Z</time></trkpt><trkpt lat="44.1873566" lon="11.3331722"><ele>851.75</ele><time>2026-04-25T12:42:40.314Z</time></trkpt><trkpt lat="44.187276" lon="11.333333"><ele>851.5</ele><time>2026-04-25T12:42:41.325Z</time></trkpt><trkpt lat="44.1871945" lon="11.3334641"><ele>851.25</ele><time>2026-04-25T12:42:42.315Z</time></trkpt><trkpt lat="44.187104" lon="11.3335521"><ele>851.0</ele><time>2026-04-25T12:42:43.319Z</time></trkpt><trkpt lat="44.1869877" lon="11.3335926"><ele>851.0</ele><time>2026-04-25T12:42:44.307Z</time></trkpt><trkpt lat="44.1868504" lon="11.3336087"><ele>851.0</ele><time>2026-04-25T12:42:45.3Z</time></trkpt><trkpt lat="44.1867072" lon="11.3336379"><ele>851.0</ele><time>2026-04-25T12:42:46.311Z</time></trkpt><trkpt lat="44.1865645" lon="11.3336873"><ele>851.0</ele><time>2026-04-25T12:42:47.31Z</time></trkpt><trkpt lat="44.1864318" lon="11.3337758"><ele>852.5</ele><time>2026-04-25T12:42:48.321Z</time></trkpt><trkpt lat="44.1863205" lon="11.3339277"><ele>854.0</ele><time>2026-04-25T12:42:49.316Z</time></trkpt><trkpt lat="44.1862301" lon="11.3341002"><ele>855.5</ele><time>2026-04-25T12:42:50.308Z</time></trkpt><trkpt lat="44.1861442" lon="11.3342406"><ele>857.0</ele><time>2026-04-25T12:42:51.302Z</time></trkpt><trkpt lat="44.1860478" lon="11.3343384"><ele>857.0</ele><time>2026-04-25T12:42:52.298Z</time></trkpt><trkpt lat="44.1859287" lon="11.3344137"><ele>857.0</ele><time>2026-04-25T12:42:53.315Z</time></trkpt><trkpt lat="44.1857872" lon="11.334423"><ele>857.0</ele><time>2026-04-25T12:42:54.308Z</time></trkpt><trkpt lat="44.1856304" lon="11.3343839"><ele>857.0</ele><time>2026-04-25T12:42:55.293Z</time></trkpt><trkpt lat="44.1854666" lon="11.3343478"><ele>865.0</ele><time>2026-04-25T12:42:56.299Z</time></trkpt><trkpt lat="44.1852997" lon="11.3343123"><ele>873.0</ele><time>2026-04-25T12:42:57.322Z</time></trkpt><trkpt lat="44.1850119" lon="11.3343975"><ele>873.0</ele><time>2026-04-25T12:42:59.303Z</time></trkpt><trkpt lat="44.1848679" lon="11.3345441"><ele>873.0</ele><time>2026-04-25T12:43:00.308Z</time></trkpt><trkpt lat="44.1846986" lon="11.3346809"><ele>873.0</ele><time>2026-04-25T12:43:01.306Z</time></trkpt><trkpt lat="44.1845241" lon="11.3348239"><ele>871.0</ele><time>2026-04-25T12:43:02.315Z</time></trkpt><trkpt lat="44.1843412" lon="11.3349474"><ele>869.0</ele><time>2026-04-25T12:43:03.284Z</time></trkpt><trkpt lat="44.1841526" lon="11.3350476"><ele>867.0</ele><time>2026-04-25T12:43:04.288Z</time></trkpt><trkpt lat="44.1839863" lon="11.3351419"><ele>871.0</ele><time>2026-04-25T12:43:05.298Z</time></trkpt><trkpt lat="44.1838295" lon="11.3352115"><ele>875.0</ele><time>2026-04-25T12:43:06.291Z</time></trkpt><trkpt lat="44.1836621" lon="11.3352628"><ele>879.0</ele><time>2026-04-25T12:43:07.336Z</time></trkpt><trkpt lat="44.1834894" lon="11.3352827"><ele>879.0</ele><time>2026-04-25T12:43:08.309Z</time></trkpt><trkpt lat="44.1833143" lon="11.335259"><ele>879.0</ele><time>2026-04-25T12:43:09.317Z</time></trkpt><trkpt lat="44.1831292" lon="11.3352176"><ele>879.0</ele><time>2026-04-25T12:43:10.312Z</time></trkpt><trkpt lat="44.182941" lon="11.3351806"><ele>881.3333333333333</ele><time>2026-04-25T12:43:11.311Z</time></trkpt><trkpt lat="44.1827545" lon="11.3351915"><ele>883.6666666666666</ele><time>2026-04-25T12:43:12.306Z</time></trkpt><trkpt lat="44.1825681" lon="11.3352596"><ele>886.0</ele><time>2026-04-25T12:43:13.308Z</time></trkpt><trkpt lat="44.1823911" lon="11.3353446"><ele>888.0</ele><time>2026-04-25T12:43:14.296Z</time></trkpt><trkpt lat="44.1822193" lon="11.3354215"><ele>890.0</ele><time>2026-04-25T12:43:15.309Z</time></trkpt><trkpt lat="44.1820388" lon="11.3354746"><ele>892.0</ele><time>2026-04-25T12:43:16.303Z</time></trkpt><trkpt lat="44.1818801" lon="11.3355056"><ele>892.0</ele><time>2026-04-25T12:43:17.327Z</time></trkpt><trkpt lat="44.1817296" lon="11.3355032"><ele>892.0</ele><time>2026-04-25T12:43:18.318Z</time></trkpt><trkpt lat="44.181594" lon="11.3354828"><ele>892.0</ele><time>2026-04-25T12:43:19.311Z</time></trkpt><trkpt lat="44.1814859" lon="11.3353815"><ele>892.0</ele><time>2026-04-25T12:43:20.314Z</time></trkpt><trkpt lat="44.1813787" lon="11.3352414"><ele>892.3333333333333</ele><time>2026-04-25T12:43:21.317Z</time></trkpt><trkpt lat="44.181255" lon="11.3350959"><ele>892.6666666666667</ele><time>2026-04-25T12:43:22.304Z</time></trkpt><trkpt lat="44.1811249" lon="11.3349826"><ele>893.0</ele><time>2026-04-25T12:43:23.308Z</time></trkpt><trkpt lat="44.1809875" lon="11.3349171"><ele>893.0</ele><time>2026-04-25T12:43:24.325Z</time></trkpt><trkpt lat="44.1808274" lon="11.3349145"><ele>893.0</ele><time>2026-04-25T12:43:25.319Z</time></trkpt><trkpt lat="44.1806726" lon="11.3349203"><ele>893.0</ele><time>2026-04-25T12:43:26.318Z</time></trkpt><trkpt lat="44.1805142" lon="11.3349316"><ele>894.0</ele><time>2026-04-25T12:43:27.324Z</time></trkpt><trkpt lat="44.1803531" lon="11.3349371"><ele>895.0</ele><time>2026-04-25T12:43:28.322Z</time></trkpt><trkpt lat="44.1802022" lon="11.3349425"><ele>896.0</ele><time>2026-04-25T12:43:29.32Z</time></trkpt><trkpt lat="44.1800614" lon="11.3349555"><ele>896.0</ele><time>2026-04-25T12:43:30.318Z</time></trkpt><trkpt lat="44.1799236" lon="11.334999"><ele>896.0</ele><time>2026-04-25T12:43:31.315Z</time></trkpt><trkpt lat="44.1797897" lon="11.335034"><ele>896.0</ele><time>2026-04-25T12:43:32.319Z</time></trkpt><trkpt lat="44.1796574" lon="11.3350923"><ele>896.0</ele><time>2026-04-25T12:43:33.324Z</time></trkpt><trkpt lat="44.1795212" lon="11.3351564"><ele>897.0</ele><time>2026-04-25T12:43:34.309Z</time></trkpt><trkpt lat="44.1794017" lon="11.3352314"><ele>898.0</ele><time>2026-04-25T12:43:35.316Z</time></trkpt><trkpt lat="44.1792811" lon="11.3353077"><ele>899.0</ele><time>2026-04-25T12:43:36.309Z</time></trkpt><trkpt lat="44.1791906" lon="11.3354106"><ele>900.0</ele><time>2026-04-25T12:43:37.31Z</time></trkpt><trkpt lat="44.179129" lon="11.335563"><ele>900.0</ele><time>2026-04-25T12:43:38.316Z</time></trkpt><trkpt lat="44.1791161" lon="11.3357527"><ele>900.0</ele><time>2026-04-25T12:43:39.292Z</time></trkpt><trkpt lat="44.179129" lon="11.335935"><ele>900.0</ele><time>2026-04-25T12:43:40.293Z</time></trkpt><trkpt lat="44.1791364" lon="11.3361155"><ele>900.0</ele><time>2026-04-25T12:43:41.302Z</time></trkpt><trkpt lat="44.1791338" lon="11.3362982"><ele>899.0</ele><time>2026-04-25T12:43:42.287Z</time></trkpt><trkpt lat="44.1790777" lon="11.3364896"><ele>898.0</ele><time>2026-04-25T12:43:43.289Z</time></trkpt><trkpt lat="44.17898" lon="11.336623"><ele>897.0</ele><time>2026-04-25T12:43:44.293Z</time></trkpt><trkpt lat="44.1788834" lon="11.3367161"><ele>896.0</ele><time>2026-04-25T12:43:45.314Z</time></trkpt><trkpt lat="44.178775" lon="11.3367415"><ele>899.75</ele><time>2026-04-25T12:43:46.301Z</time></trkpt><trkpt lat="44.1786762" lon="11.3366919"><ele>903.5</ele><time>2026-04-25T12:43:47.324Z</time></trkpt><trkpt lat="44.1786065" lon="11.3365822"><ele>907.25</ele><time>2026-04-25T12:43:48.305Z</time></trkpt><trkpt lat="44.1784966" lon="11.3364366"><ele>911.0</ele><time>2026-04-25T12:43:49.3Z</time></trkpt><trkpt lat="44.1783676" lon="11.3362916"><ele>915.3333333333334</ele><time>2026-04-25T12:43:50.293Z</time></trkpt><trkpt lat="44.1782319" lon="11.3361837"><ele>919.6666666666667</ele><time>2026-04-25T12:43:51.316Z</time></trkpt><trkpt lat="44.1780926" lon="11.3361378"><ele>924.0</ele><time>2026-04-25T12:43:52.327Z</time></trkpt><trkpt lat="44.1779403" lon="11.3361548"><ele>923.3333333333333</ele><time>2026-04-25T12:43:53.318Z</time></trkpt><trkpt lat="44.1777798" lon="11.3362487"><ele>922.6666666666666</ele><time>2026-04-25T12:43:54.317Z</time></trkpt><trkpt lat="44.1776208" lon="11.3363764"><ele>922.0</ele><time>2026-04-25T12:43:55.319Z</time></trkpt><trkpt lat="44.1774619" lon="11.3365216"><ele>928.25</ele><time>2026-04-25T12:43:56.319Z</time></trkpt><trkpt lat="44.177332" lon="11.3366647"><ele>934.5</ele><time>2026-04-25T12:43:57.294Z</time></trkpt><trkpt lat="44.1772307" lon="11.33682"><ele>940.75</ele><time>2026-04-25T12:43:58.32Z</time></trkpt><trkpt lat="44.1771659" lon="11.336975"><ele>947.0</ele><time>2026-04-25T12:43:59.293Z</time></trkpt><trkpt lat="44.1771556" lon="11.3371748"><ele>944.75</ele><time>2026-04-25T12:44:00.334Z</time></trkpt><trkpt lat="44.177205" lon="11.3373527"><ele>942.5</ele><time>2026-04-25T12:44:01.305Z</time></trkpt><trkpt lat="44.1772591" lon="11.3375205"><ele>940.25</ele><time>2026-04-25T12:44:02.306Z</time></trkpt><trkpt lat="44.1772592" lon="11.3376875"><ele>938.0</ele><time>2026-04-25T12:44:03.318Z</time></trkpt><trkpt lat="44.1771933" lon="11.3378582"><ele>938.0</ele><time>2026-04-25T12:44:04.295Z</time></trkpt><trkpt lat="44.1770981" lon="11.3380241"><ele>938.0</ele><time>2026-04-25T12:44:05.296Z</time></trkpt><trkpt lat="44.1769986" lon="11.3381235"><ele>938.0</ele><time>2026-04-25T12:44:06.318Z</time></trkpt><trkpt lat="44.1768704" lon="11.3381715"><ele>938.0</ele><time>2026-04-25T12:44:07.302Z</time></trkpt><trkpt lat="44.1767381" lon="11.3381581"><ele>935.0</ele><time>2026-04-25T12:44:08.309Z</time></trkpt><trkpt lat="44.1765999" lon="11.338073"><ele>932.0</ele><time>2026-04-25T12:44:09.324Z</time></trkpt><trkpt lat="44.1764472" lon="11.3379699"><ele>929.0</ele><time>2026-04-25T12:44:10.29Z</time></trkpt><trkpt lat="44.1762764" lon="11.3378725"><ele>935.0</ele><time>2026-04-25T12:44:11.303Z</time></trkpt><trkpt lat="44.1760934" lon="11.3377791"><ele>941.0</ele><time>2026-04-25T12:44:12.288Z</time></trkpt><trkpt lat="44.1759289" lon="11.337667"><ele>947.0</ele><time>2026-04-25T12:44:13.297Z</time></trkpt><trkpt lat="44.1757975" lon="11.3375341"><ele>947.0</ele><time>2026-04-25T12:44:14.31Z</time></trkpt><trkpt lat="44.1757003" lon="11.3373656"><ele>947.0</ele><time>2026-04-25T12:44:15.323Z</time></trkpt><trkpt lat="44.1756205" lon="11.3371923"><ele>947.0</ele><time>2026-04-25T12:44:16.307Z</time></trkpt><trkpt lat="44.1755608" lon="11.3370446"><ele>947.0</ele><time>2026-04-25T12:44:17.306Z</time></trkpt><trkpt lat="44.1754968" lon="11.3369384"><ele>947.8333333333334</ele><time>2026-04-25T12:44:18.314Z</time></trkpt><trkpt lat="44.1754312" lon="11.336856"><ele>948.6666666666667</ele><time>2026-04-25T12:44:19.334Z</time></trkpt><trkpt lat="44.1753611" lon="11.3367804"><ele>949.5</ele><time>2026-04-25T12:44:20.319Z</time></trkpt><trkpt lat="44.1752861" lon="11.3367184"><ele>950.3333333333333</ele><time>2026-04-25T12:44:21.325Z</time></trkpt><trkpt lat="44.1752132" lon="11.336659"><ele>951.1666666666666</ele><time>2026-04-25T12:44:22.323Z</time></trkpt><trkpt lat="44.1751507" lon="11.3366133"><ele>952.0</ele><time>2026-04-25T12:44:23.32Z</time></trkpt><trkpt lat="44.1750841" lon="11.3365867"><ele>952.0</ele><time>2026-04-25T12:44:24.322Z</time></trkpt><trkpt lat="44.1750023" lon="11.3365751"><ele>952.0</ele><time>2026-04-25T12:44:25.309Z</time></trkpt><trkpt lat="44.174907" lon="11.3365836"><ele>952.0</ele><time>2026-04-25T12:44:26.33Z</time></trkpt><trkpt lat="44.1747865" lon="11.3366271"><ele>952.0</ele><time>2026-04-25T12:44:27.326Z</time></trkpt><trkpt lat="44.1746537" lon="11.3367076"><ele>952.0</ele><time>2026-04-25T12:44:28.313Z</time></trkpt><trkpt lat="44.1745065" lon="11.3368192"><ele>954.3333333333333</ele><time>2026-04-25T12:44:29.328Z</time></trkpt><trkpt lat="44.1743513" lon="11.3369408"><ele>956.6666666666667</ele><time>2026-04-25T12:44:30.323Z</time></trkpt><trkpt lat="44.1742031" lon="11.3370638"><ele>959.0</ele><time>2026-04-25T12:44:31.321Z</time></trkpt><trkpt lat="44.1740548" lon="11.3371749"><ele>961.5</ele><time>2026-04-25T12:44:32.304Z</time></trkpt><trkpt lat="44.1739163" lon="11.3372835"><ele>964.0</ele><time>2026-04-25T12:44:33.321Z</time></trkpt><trkpt lat="44.1737995" lon="11.3374081"><ele>966.5</ele><time>2026-04-25T12:44:34.324Z</time></trkpt><trkpt lat="44.173722" lon="11.3375607"><ele>969.0</ele><time>2026-04-25T12:44:35.326Z</time></trkpt><trkpt lat="44.1736519" lon="11.3377139"><ele>969.0</ele><time>2026-04-25T12:44:36.295Z</time></trkpt><trkpt lat="44.1735955" lon="11.3378594"><ele>969.0000000000001</ele><time>2026-04-25T12:44:37.32Z</time></trkpt><trkpt lat="44.1735454" lon="11.337981"><ele>969.0000000000001</ele><time>2026-04-25T12:44:38.335Z</time></trkpt><trkpt lat="44.1734905" lon="11.3380834"><ele>969.0</ele><time>2026-04-25T12:44:39.308Z</time></trkpt><trkpt lat="44.1734378" lon="11.3381645"><ele>969.0</ele><time>2026-04-25T12:44:40.288Z</time></trkpt><trkpt lat="44.1733795" lon="11.338226"><ele>968.3333333333334</ele><time>2026-04-25T12:44:41.305Z</time></trkpt><trkpt lat="44.1733217" lon="11.3382665"><ele>967.6666666666667</ele><time>2026-04-25T12:44:42.324Z</time></trkpt><trkpt lat="44.1732564" lon="11.3382915"><ele>967.0</ele><time>2026-04-25T12:44:43.318Z</time></trkpt><trkpt lat="44.1731486" lon="11.3383117"><ele>966.3333333333334</ele><time>2026-04-25T12:44:45.317Z</time></trkpt><trkpt lat="44.1730551" lon="11.338307"><ele>965.6666666666667</ele><time>2026-04-25T12:44:47.325Z</time></trkpt><trkpt lat="44.1729729" lon="11.338321"><ele>965.0</ele><time>2026-04-25T12:44:49.299Z</time></trkpt><trkpt lat="44.1728843" lon="11.3383331"><ele>964.3333333333334</ele><time>2026-04-25T12:44:51.309Z</time></trkpt><trkpt lat="44.1728164" lon="11.3383573"><ele>963.6666666666667</ele><time>2026-04-25T12:44:53.307Z</time></trkpt><trkpt lat="44.1727575" lon="11.3384171"><ele>963.0</ele><time>2026-04-25T12:44:57.309Z</time></trkpt><trkpt lat="44.172794" lon="11.3385468"><ele>962.3333333333333</ele><time>2026-04-25T12:45:01.311Z</time></trkpt><trkpt lat="44.1728385" lon="11.3386296"><ele>961.6666666666666</ele><time>2026-04-25T12:45:03.318Z</time></trkpt><trkpt lat="44.1728796" lon="11.3387152"><ele>961.0</ele><time>2026-04-25T12:45:05.307Z</time></trkpt><trkpt lat="44.1729274" lon="11.3388132"><ele>961.3333333333333</ele><time>2026-04-25T12:45:07.303Z</time></trkpt><trkpt lat="44.1729876" lon="11.3389183"><ele>961.6666666666666</ele><time>2026-04-25T12:45:09.293Z</time></trkpt><trkpt lat="44.1730445" lon="11.3390495"><ele>962.0</ele><time>2026-04-25T12:45:11.313Z</time></trkpt><trkpt lat="44.1730824" lon="11.3391228"><ele>962.3333333333333</ele><time>2026-04-25T12:45:12.305Z</time></trkpt><trkpt lat="44.1731278" lon="11.3392124"><ele>962.6666666666666</ele><time>2026-04-25T12:45:13.31Z</time></trkpt><trkpt lat="44.1731696" lon="11.3392968"><ele>963.0</ele><time>2026-04-25T12:45:14.323Z</time></trkpt><trkpt lat="44.1731985" lon="11.3393817"><ele>963.0</ele><time>2026-04-25T12:45:15.327Z</time></trkpt><trkpt lat="44.1732483" lon="11.3395315"><ele>963.0</ele><time>2026-04-25T12:45:17.333Z</time></trkpt><trkpt lat="44.1733074" lon="11.3396514"><ele>963.0</ele><time>2026-04-25T12:45:19.323Z</time></trkpt><trkpt lat="44.1733604" lon="11.3397536"><ele>963.0</ele><time>2026-04-25T12:45:21.321Z</time></trkpt><trkpt lat="44.1733486" lon="11.3396314"><ele>963.0</ele><time>2026-04-25T12:45:27.3Z</time></trkpt><trkpt lat="44.1732758" lon="11.3394937"><ele>963.0</ele><time>2026-04-25T12:45:29.328Z</time></trkpt><trkpt lat="44.173211" lon="11.3393576"><ele>963.0</ele><time>2026-04-25T12:45:31.319Z</time></trkpt><trkpt lat="44.1731634" lon="11.3392294"><ele>963.0</ele><time>2026-04-25T12:45:33.306Z</time></trkpt><trkpt lat="44.1731149" lon="11.3391413"><ele>963.0</ele><time>2026-04-25T12:45:35.308Z</time></trkpt><trkpt lat="44.1730783" lon="11.3390686"><ele>963.0</ele><time>2026-04-25T12:45:37.305Z</time></trkpt><trkpt lat="44.1730353" lon="11.3389752"><ele>963.0</ele><time>2026-04-25T12:45:40.309Z</time></trkpt><trkpt lat="44.1730026" lon="11.3388992"><ele>962.6666666666666</ele><time>2026-04-25T12:45:42.308Z</time></trkpt><trkpt lat="44.172962" lon="11.3388211"><ele>962.3333333333333</ele><time>2026-04-25T12:45:44.302Z</time></trkpt><trkpt lat="44.1729111" lon="11.3387167"><ele>962.0</ele><time>2026-04-25T12:45:47.309Z</time></trkpt><trkpt lat="44.172861" lon="11.3386206"><ele>961.6666666666666</ele><time>2026-04-25T12:45:50.309Z</time></trkpt><trkpt lat="44.1728153" lon="11.3385315"><ele>961.3333333333333</ele><time>2026-04-25T12:45:53.318Z</time></trkpt><trkpt lat="44.1727777" lon="11.3384457"><ele>961.0</ele><time>2026-04-25T12:45:56.313Z</time></trkpt><trkpt lat="44.1727384" lon="11.3383701"><ele>961.0</ele><time>2026-04-25T12:46:00.289Z</time></trkpt><trkpt lat="44.1726978" lon="11.3382816"><ele>960.9999999999999</ele><time>2026-04-25T12:46:02.311Z</time></trkpt><trkpt lat="44.1726607" lon="11.3382077"><ele>960.9999999999999</ele><time>2026-04-25T12:46:03.306Z</time></trkpt><trkpt lat="44.1726042" lon="11.3380864"><ele>961.0</ele><time>2026-04-25T12:46:04.32Z</time></trkpt><trkpt lat="44.1725525" lon="11.3379496"><ele>961.0</ele><time>2026-04-25T12:46:05.31Z</time></trkpt><trkpt lat="44.1724944" lon="11.3378031"><ele>961.0</ele><time>2026-04-25T12:46:06.314Z</time></trkpt><trkpt lat="44.172425" lon="11.3376375"><ele>961.0</ele><time>2026-04-25T12:46:07.307Z</time></trkpt><trkpt lat="44.1723509" lon="11.3374609"><ele>961.0</ele><time>2026-04-25T12:46:08.325Z</time></trkpt><trkpt lat="44.1722934" lon="11.3372903"><ele>961.0</ele><time>2026-04-25T12:46:09.337Z</time></trkpt><trkpt lat="44.1722645" lon="11.3370997"><ele>953.3333333333333</ele><time>2026-04-25T12:46:10.326Z</time></trkpt><trkpt lat="44.1722517" lon="11.3368926"><ele>945.6666666666667</ele><time>2026-04-25T12:46:11.323Z</time></trkpt><trkpt lat="44.172224" lon="11.3366741"><ele>938.0</ele><time>2026-04-25T12:46:12.322Z</time></trkpt><trkpt lat="44.1721624" lon="11.3364465"><ele>938.6666666666667</ele><time>2026-04-25T12:46:13.314Z</time></trkpt><trkpt lat="44.172075" lon="11.3362289"><ele>939.3333333333333</ele><time>2026-04-25T12:46:14.316Z</time></trkpt><trkpt lat="44.1719839" lon="11.3360337"><ele>940.0</ele><time>2026-04-25T12:46:15.312Z</time></trkpt><trkpt lat="44.1719009" lon="11.3358426"><ele>940.0</ele><time>2026-04-25T12:46:16.325Z</time></trkpt><trkpt lat="44.1718233" lon="11.3356634"><ele>940.0</ele><time>2026-04-25T12:46:17.307Z</time></trkpt><trkpt lat="44.1717582" lon="11.3355022"><ele>940.0</ele><time>2026-04-25T12:46:18.319Z</time></trkpt><trkpt lat="44.1716892" lon="11.335344"><ele>940.0</ele><time>2026-04-25T12:46:19.306Z</time></trkpt><trkpt lat="44.1716289" lon="11.3352005"><ele>940.25</ele><time>2026-04-25T12:46:20.328Z</time></trkpt><trkpt lat="44.1715704" lon="11.3350728"><ele>940.5</ele><time>2026-04-25T12:46:21.323Z</time></trkpt><trkpt lat="44.1715032" lon="11.3349518"><ele>940.75</ele><time>2026-04-25T12:46:22.317Z</time></trkpt><trkpt lat="44.1714275" lon="11.334818"><ele>941.0</ele><time>2026-04-25T12:46:23.318Z</time></trkpt><trkpt lat="44.1713377" lon="11.3346726"><ele>937.0</ele><time>2026-04-25T12:46:24.33Z</time></trkpt><trkpt lat="44.1712434" lon="11.3345229"><ele>933.0</ele><time>2026-04-25T12:46:25.299Z</time></trkpt><trkpt lat="44.1711478" lon="11.334373"><ele>929.0</ele><time>2026-04-25T12:46:26.324Z</time></trkpt><trkpt lat="44.1710632" lon="11.3342258"><ele>925.0</ele><time>2026-04-25T12:46:27.321Z</time></trkpt><trkpt lat="44.1709874" lon="11.3340583"><ele>925.3333333333333</ele><time>2026-04-25T12:46:28.317Z</time></trkpt><trkpt lat="44.1709317" lon="11.3338538"><ele>925.6666666666667</ele><time>2026-04-25T12:46:29.322Z</time></trkpt><trkpt lat="44.1708969" lon="11.3336437"><ele>926.0</ele><time>2026-04-25T12:46:30.35Z</time></trkpt><trkpt lat="44.1708771" lon="11.333433"><ele>926.0</ele><time>2026-04-25T12:46:31.313Z</time></trkpt><trkpt lat="44.1708492" lon="11.3332309"><ele>926.0</ele><time>2026-04-25T12:46:32.314Z</time></trkpt><trkpt lat="44.1708053" lon="11.3330422"><ele>926.0</ele><time>2026-04-25T12:46:33.322Z</time></trkpt><trkpt lat="44.170762" lon="11.3328588"><ele>926.0</ele><time>2026-04-25T12:46:34.319Z</time></trkpt><trkpt lat="44.1706917" lon="11.3327052"><ele>925.75</ele><time>2026-04-25T12:46:35.321Z</time></trkpt><trkpt lat="44.1706057" lon="11.3325882"><ele>925.5</ele><time>2026-04-25T12:46:36.309Z</time></trkpt><trkpt lat="44.1704909" lon="11.332513"><ele>925.25</ele><time>2026-04-25T12:46:37.287Z</time></trkpt><trkpt lat="44.1703418" lon="11.3325174"><ele>925.0</ele><time>2026-04-25T12:46:38.325Z</time></trkpt><trkpt lat="44.1701963" lon="11.3325556"><ele>925.0</ele><time>2026-04-25T12:46:39.315Z</time></trkpt><trkpt lat="44.1700463" lon="11.332607"><ele>925.0</ele><time>2026-04-25T12:46:40.31Z</time></trkpt><trkpt lat="44.1698885" lon="11.3326597"><ele>925.0</ele><time>2026-04-25T12:46:41.331Z</time></trkpt><trkpt lat="44.1697302" lon="11.3327282"><ele>922.6666666666666</ele><time>2026-04-25T12:46:42.326Z</time></trkpt><trkpt lat="44.1695724" lon="11.3327992"><ele>920.3333333333333</ele><time>2026-04-25T12:46:43.324Z</time></trkpt><trkpt lat="44.169416" lon="11.3328549"><ele>918.0</ele><time>2026-04-25T12:46:44.321Z</time></trkpt><trkpt lat="44.1692594" lon="11.3328903"><ele>918.0</ele><time>2026-04-25T12:46:45.31Z</time></trkpt><trkpt lat="44.1690993" lon="11.3328793"><ele>918.0</ele><time>2026-04-25T12:46:46.314Z</time></trkpt><trkpt lat="44.1689193" lon="11.3328269"><ele>918.0</ele><time>2026-04-25T12:46:47.334Z</time></trkpt><trkpt lat="44.1687481" lon="11.3327722"><ele>914.3333333333333</ele><time>2026-04-25T12:46:48.319Z</time></trkpt><trkpt lat="44.168579" lon="11.3327268"><ele>910.6666666666666</ele><time>2026-04-25T12:46:49.313Z</time></trkpt><trkpt lat="44.1684096" lon="11.3326705"><ele>907.0</ele><time>2026-04-25T12:46:50.333Z</time></trkpt><trkpt lat="44.168242" lon="11.3326128"><ele>903.0</ele><time>2026-04-25T12:46:51.317Z</time></trkpt><trkpt lat="44.1680865" lon="11.3325607"><ele>899.0</ele><time>2026-04-25T12:46:52.342Z</time></trkpt><trkpt lat="44.1679582" lon="11.3325081"><ele>895.0</ele><time>2026-04-25T12:46:53.302Z</time></trkpt><trkpt lat="44.1678464" lon="11.3324787"><ele>891.0</ele><time>2026-04-25T12:46:54.326Z</time></trkpt><trkpt lat="44.167736" lon="11.3325106"><ele>891.0</ele><time>2026-04-25T12:46:55.328Z</time></trkpt><trkpt lat="44.1676274" lon="11.3326219"><ele>891.0</ele><time>2026-04-25T12:46:56.336Z</time></trkpt><trkpt lat="44.1675243" lon="11.3327799"><ele>891.0</ele><time>2026-04-25T12:46:57.318Z</time></trkpt><trkpt lat="44.1674379" lon="11.3329456"><ele>891.0</ele><time>2026-04-25T12:46:58.338Z</time></trkpt><trkpt lat="44.16734" lon="11.3330982"><ele>888.5</ele><time>2026-04-25T12:46:59.326Z</time></trkpt><trkpt lat="44.1672503" lon="11.3332227"><ele>886.0</ele><time>2026-04-25T12:47:00.318Z</time></trkpt><trkpt lat="44.1671852" lon="11.3333372"><ele>883.5</ele><time>2026-04-25T12:47:01.315Z</time></trkpt><trkpt lat="44.167137" lon="11.3334847"><ele>881.0</ele><time>2026-04-25T12:47:02.327Z</time></trkpt><trkpt lat="44.1671315" lon="11.3336498"><ele>881.0</ele><time>2026-04-25T12:47:03.319Z</time></trkpt><trkpt lat="44.1671884" lon="11.3338226"><ele>881.0</ele><time>2026-04-25T12:47:04.333Z</time></trkpt><trkpt lat="44.1672739" lon="11.3339803"><ele>881.0</ele><time>2026-04-25T12:47:05.326Z</time></trkpt><trkpt lat="44.1673662" lon="11.3341469"><ele>881.0</ele><time>2026-04-25T12:47:06.318Z</time></trkpt><trkpt lat="44.1674242" lon="11.3342935"><ele>880.8</ele><time>2026-04-25T12:47:07.335Z</time></trkpt><trkpt lat="44.1674774" lon="11.3344195"><ele>880.5999999999999</ele><time>2026-04-25T12:47:08.312Z</time></trkpt><trkpt lat="44.1674999" lon="11.3345333"><ele>880.4</ele><time>2026-04-25T12:47:09.324Z</time></trkpt><trkpt lat="44.167482" lon="11.3346745"><ele>880.2</ele><time>2026-04-25T12:47:10.319Z</time></trkpt><trkpt lat="44.1674096" lon="11.3347842"><ele>880.0</ele><time>2026-04-25T12:47:11.32Z</time></trkpt><trkpt lat="44.1673101" lon="11.3348895"><ele>877.0</ele><time>2026-04-25T12:47:12.314Z</time></trkpt><trkpt lat="44.1671975" lon="11.3349811"><ele>874.0</ele><time>2026-04-25T12:47:13.328Z</time></trkpt><trkpt lat="44.167094" lon="11.3350742"><ele>871.0</ele><time>2026-04-25T12:47:14.318Z</time></trkpt><trkpt lat="44.1669882" lon="11.3351696"><ele>868.0</ele><time>2026-04-25T12:47:15.291Z</time></trkpt><trkpt lat="44.1668786" lon="11.3352677"><ele>868.0</ele><time>2026-04-25T12:47:16.327Z</time></trkpt><trkpt lat="44.1667672" lon="11.335366"><ele>868.0</ele><time>2026-04-25T12:47:17.286Z</time></trkpt><trkpt lat="44.1666557" lon="11.3354573"><ele>868.0</ele><time>2026-04-25T12:47:18.315Z</time></trkpt><trkpt lat="44.1665527" lon="11.3355512"><ele>868.0</ele><time>2026-04-25T12:47:19.324Z</time></trkpt><trkpt lat="44.1664486" lon="11.3356485"><ele>866.5</ele><time>2026-04-25T12:47:20.313Z</time></trkpt><trkpt lat="44.1663399" lon="11.3357444"><ele>865.0</ele><time>2026-04-25T12:47:21.293Z</time></trkpt><trkpt lat="44.1662297" lon="11.335845"><ele>863.5</ele><time>2026-04-25T12:47:22.324Z</time></trkpt><trkpt lat="44.1661269" lon="11.3359366"><ele>862.0</ele><time>2026-04-25T12:47:23.331Z</time></trkpt><trkpt lat="44.1660133" lon="11.3360101"><ele>862.0</ele><time>2026-04-25T12:47:24.313Z</time></trkpt><trkpt lat="44.1659045" lon="11.336083"><ele>862.0</ele><time>2026-04-25T12:47:25.314Z</time></trkpt><trkpt lat="44.1657952" lon="11.3361358"><ele>862.0</ele><time>2026-04-25T12:47:26.319Z</time></trkpt><trkpt lat="44.1656866" lon="11.3361748"><ele>862.0</ele><time>2026-04-25T12:47:27.31Z</time></trkpt><trkpt lat="44.1655804" lon="11.3361907"><ele>860.3333333333333</ele><time>2026-04-25T12:47:28.327Z</time></trkpt><trkpt lat="44.1655084" lon="11.3361535"><ele>858.6666666666666</ele><time>2026-04-25T12:47:29.322Z</time></trkpt><trkpt lat="44.1654593" lon="11.3360663"><ele>857.0</ele><time>2026-04-25T12:47:30.315Z</time></trkpt><trkpt lat="44.165444" lon="11.3359434"><ele>855.3333333333333</ele><time>2026-04-25T12:47:31.295Z</time></trkpt><trkpt lat="44.1654486" lon="11.3358222"><ele>853.6666666666666</ele><time>2026-04-25T12:47:32.305Z</time></trkpt><trkpt lat="44.1654364" lon="11.3357078"><ele>852.0</ele><time>2026-04-25T12:47:33.32Z</time></trkpt><trkpt lat="44.165424" lon="11.3355787"><ele>851.8333333333334</ele><time>2026-04-25T12:47:34.319Z</time></trkpt><trkpt lat="44.1654061" lon="11.3354635"><ele>851.6666666666667</ele><time>2026-04-25T12:47:35.321Z</time></trkpt><trkpt lat="44.1653874" lon="11.3353471"><ele>851.5</ele><time>2026-04-25T12:47:36.305Z</time></trkpt><trkpt lat="44.165375" lon="11.3352313"><ele>851.3333333333334</ele><time>2026-04-25T12:47:37.319Z</time></trkpt><trkpt lat="44.1653545" lon="11.3351096"><ele>851.1666666666667</ele><time>2026-04-25T12:47:38.323Z</time></trkpt><trkpt lat="44.1653213" lon="11.334978"><ele>851.0</ele><time>2026-04-25T12:47:39.314Z</time></trkpt><trkpt lat="44.1652655" lon="11.3348615"><ele>851.0</ele><time>2026-04-25T12:47:40.31Z</time></trkpt><trkpt lat="44.1651924" lon="11.3347511"><ele>851.0</ele><time>2026-04-25T12:47:41.311Z</time></trkpt><trkpt lat="44.1651244" lon="11.334644"><ele>851.0</ele><time>2026-04-25T12:47:42.329Z</time></trkpt><trkpt lat="44.1650612" lon="11.3345532"><ele>851.0</ele><time>2026-04-25T12:47:43.316Z</time></trkpt><trkpt lat="44.1650091" lon="11.3344609"><ele>851.0</ele><time>2026-04-25T12:47:44.315Z</time></trkpt><trkpt lat="44.1649523" lon="11.3343625"><ele>850.5999999999999</ele><time>2026-04-25T12:47:45.312Z</time></trkpt><trkpt lat="44.164886" lon="11.3342752"><ele>850.2</ele><time>2026-04-25T12:47:46.316Z</time></trkpt><trkpt lat="44.1648292" lon="11.3341935"><ele>849.8</ele><time>2026-04-25T12:47:47.309Z</time></trkpt><trkpt lat="44.1647649" lon="11.3341019"><ele>849.4000000000001</ele><time>2026-04-25T12:47:48.316Z</time></trkpt><trkpt lat="44.1646968" lon="11.3339945"><ele>849.0</ele><time>2026-04-25T12:47:49.312Z</time></trkpt><trkpt lat="44.1646218" lon="11.3338532"><ele>848.3333333333333</ele><time>2026-04-25T12:47:50.329Z</time></trkpt><trkpt lat="44.1645592" lon="11.3336677"><ele>847.6666666666666</ele><time>2026-04-25T12:47:51.321Z</time></trkpt><trkpt lat="44.1645166" lon="11.3334519"><ele>847.0</ele><time>2026-04-25T12:47:52.333Z</time></trkpt><trkpt lat="44.1644833" lon="11.3332478"><ele>847.0</ele><time>2026-04-25T12:47:53.314Z</time></trkpt><trkpt lat="44.1644485" lon="11.3330638"><ele>847.0</ele><time>2026-04-25T12:47:54.333Z</time></trkpt><trkpt lat="44.1643705" lon="11.3328992"><ele>847.0</ele><time>2026-04-25T12:47:55.311Z</time></trkpt><trkpt lat="44.16426" lon="11.3327658"><ele>847.0</ele><time>2026-04-25T12:47:56.336Z</time></trkpt><trkpt lat="44.1641406" lon="11.3326311"><ele>847.0</ele><time>2026-04-25T12:47:57.297Z</time></trkpt><trkpt lat="44.1640513" lon="11.3324717"><ele>847.0</ele><time>2026-04-25T12:47:58.317Z</time></trkpt><trkpt lat="44.1639692" lon="11.3323136"><ele>847.0</ele><time>2026-04-25T12:47:59.308Z</time></trkpt><trkpt lat="44.1638809" lon="11.3321419"><ele>847.0</ele><time>2026-04-25T12:48:00.328Z</time></trkpt><trkpt lat="44.1637819" lon="11.3319778"><ele>848.0</ele><time>2026-04-25T12:48:01.311Z</time></trkpt><trkpt lat="44.1636701" lon="11.3318469"><ele>849.0</ele><time>2026-04-25T12:48:02.309Z</time></trkpt><trkpt lat="44.1635509" lon="11.3317336"><ele>850.0</ele><time>2026-04-25T12:48:03.325Z</time></trkpt><trkpt lat="44.1634197" lon="11.3316377"><ele>851.0</ele><time>2026-04-25T12:48:04.318Z</time></trkpt><trkpt lat="44.1632882" lon="11.3315432"><ele>850.25</ele><time>2026-04-25T12:48:05.314Z</time></trkpt><trkpt lat="44.1631571" lon="11.331457"><ele>849.5</ele><time>2026-04-25T12:48:06.311Z</time></trkpt><trkpt lat="44.1630342" lon="11.3313562"><ele>848.75</ele><time>2026-04-25T12:48:07.314Z</time></trkpt><trkpt lat="44.1629187" lon="11.3312538"><ele>848.0</ele><time>2026-04-25T12:48:08.306Z</time></trkpt><trkpt lat="44.162845" lon="11.3311342"><ele>849.5</ele><time>2026-04-25T12:48:09.312Z</time></trkpt><trkpt lat="44.1628319" lon="11.3309606"><ele>851.0</ele><time>2026-04-25T12:48:10.318Z</time></trkpt><trkpt lat="44.1628386" lon="11.3307742"><ele>852.5</ele><time>2026-04-25T12:48:11.307Z</time></trkpt><trkpt lat="44.1628611" lon="11.3305668"><ele>854.0</ele><time>2026-04-25T12:48:12.326Z</time></trkpt><trkpt lat="44.1628701" lon="11.3303739"><ele>856.75</ele><time>2026-04-25T12:48:13.31Z</time></trkpt><trkpt lat="44.162863" lon="11.3302006"><ele>859.5</ele><time>2026-04-25T12:48:14.316Z</time></trkpt><trkpt lat="44.1628167" lon="11.3300431"><ele>862.25</ele><time>2026-04-25T12:48:15.326Z</time></trkpt><trkpt lat="44.1627335" lon="11.329884"><ele>865.0</ele><time>2026-04-25T12:48:16.293Z</time></trkpt><trkpt lat="44.1626247" lon="11.329763"><ele>870.3333333333333</ele><time>2026-04-25T12:48:17.323Z</time></trkpt><trkpt lat="44.1624844" lon="11.3296857"><ele>875.6666666666667</ele><time>2026-04-25T12:48:18.336Z</time></trkpt><trkpt lat="44.1623155" lon="11.3296453"><ele>881.0</ele><time>2026-04-25T12:48:19.318Z</time></trkpt><trkpt lat="44.1621327" lon="11.3296362"><ele>881.0</ele><time>2026-04-25T12:48:20.313Z</time></trkpt><trkpt lat="44.1619588" lon="11.3296029"><ele>881.0</ele><time>2026-04-25T12:48:21.315Z</time></trkpt><trkpt lat="44.1618046" lon="11.3295403"><ele>881.0</ele><time>2026-04-25T12:48:22.298Z</time></trkpt><trkpt lat="44.1616576" lon="11.329457"><ele>881.0</ele><time>2026-04-25T12:48:23.309Z</time></trkpt><trkpt lat="44.161541" lon="11.3293641"><ele>881.0</ele><time>2026-04-25T12:48:24.321Z</time></trkpt><trkpt lat="44.1614224" lon="11.329268"><ele>881.0</ele><time>2026-04-25T12:48:25.317Z</time></trkpt><trkpt lat="44.1613332" lon="11.3291175"><ele>881.0</ele><time>2026-04-25T12:48:26.317Z</time></trkpt><trkpt lat="44.1612841" lon="11.328927"><ele>881.3333333333334</ele><time>2026-04-25T12:48:27.321Z</time></trkpt><trkpt lat="44.1612463" lon="11.3286979"><ele>881.6666666666667</ele><time>2026-04-25T12:48:28.317Z</time></trkpt><trkpt lat="44.1612225" lon="11.3284375"><ele>882.0</ele><time>2026-04-25T12:48:29.315Z</time></trkpt><trkpt lat="44.1611836" lon="11.3281659"><ele>882.3333333333333</ele><time>2026-04-25T12:48:30.307Z</time></trkpt><trkpt lat="44.1611333" lon="11.3278934"><ele>882.6666666666666</ele><time>2026-04-25T12:48:31.326Z</time></trkpt><trkpt lat="44.1610616" lon="11.3276334"><ele>883.0</ele><time>2026-04-25T12:48:32.31Z</time></trkpt><trkpt lat="44.1609723" lon="11.3273633"><ele>884.6666666666666</ele><time>2026-04-25T12:48:33.314Z</time></trkpt><trkpt lat="44.1608711" lon="11.3271023"><ele>886.3333333333333</ele><time>2026-04-25T12:48:34.287Z</time></trkpt><trkpt lat="44.1607635" lon="11.3268432"><ele>888.0</ele><time>2026-04-25T12:48:35.329Z</time></trkpt><trkpt lat="44.160657" lon="11.3265858"><ele>886.0</ele><time>2026-04-25T12:48:36.315Z</time></trkpt><trkpt lat="44.1605526" lon="11.3263251"><ele>884.0</ele><time>2026-04-25T12:48:37.301Z</time></trkpt><trkpt lat="44.1604544" lon="11.326052"><ele>882.0</ele><time>2026-04-25T12:48:38.322Z</time></trkpt><trkpt lat="44.1603653" lon="11.3257689"><ele>884.6666666666667</ele><time>2026-04-25T12:48:39.313Z</time></trkpt><trkpt lat="44.1602768" lon="11.3254818"><ele>887.3333333333334</ele><time>2026-04-25T12:48:40.312Z</time></trkpt><trkpt lat="44.160205" lon="11.325207"><ele>890.0</ele><time>2026-04-25T12:48:41.328Z</time></trkpt><trkpt lat="44.160139" lon="11.3249471"><ele>893.0</ele><time>2026-04-25T12:48:42.316Z</time></trkpt><trkpt lat="44.1600682" lon="11.3246892"><ele>896.0</ele><time>2026-04-25T12:48:43.318Z</time></trkpt><trkpt lat="44.1600052" lon="11.3244447"><ele>899.0</ele><time>2026-04-25T12:48:44.322Z</time></trkpt><trkpt lat="44.159947" lon="11.3242192"><ele>899.0</ele><time>2026-04-25T12:48:45.318Z</time></trkpt><trkpt lat="44.1598693" lon="11.3240158"><ele>899.0</ele><time>2026-04-25T12:48:46.31Z</time></trkpt><trkpt lat="44.1597458" lon="11.3238486"><ele>899.0</ele><time>2026-04-25T12:48:47.316Z</time></trkpt><trkpt lat="44.1595888" lon="11.3237084"><ele>899.0</ele><time>2026-04-25T12:48:48.327Z</time></trkpt><trkpt lat="44.1594192" lon="11.32359"><ele>899.0</ele><time>2026-04-25T12:48:49.328Z</time></trkpt><trkpt lat="44.1592699" lon="11.3234882"><ele>899.0</ele><time>2026-04-25T12:48:50.334Z</time></trkpt><trkpt lat="44.1591161" lon="11.3233847"><ele>898.0</ele><time>2026-04-25T12:48:51.315Z</time></trkpt><trkpt lat="44.1589773" lon="11.323261"><ele>897.0</ele><time>2026-04-25T12:48:52.306Z</time></trkpt><trkpt lat="44.1588516" lon="11.3231104"><ele>896.0</ele><time>2026-04-25T12:48:53.301Z</time></trkpt><trkpt lat="44.158726" lon="11.3229542"><ele>899.0</ele><time>2026-04-25T12:48:54.317Z</time></trkpt><trkpt lat="44.1585758" lon="11.3228158"><ele>902.0</ele><time>2026-04-25T12:48:55.324Z</time></trkpt><trkpt lat="44.158412" lon="11.3227136"><ele>905.0</ele><time>2026-04-25T12:48:56.326Z</time></trkpt><trkpt lat="44.158249" lon="11.3226456"><ele>905.3333333333334</ele><time>2026-04-25T12:48:57.312Z</time></trkpt><trkpt lat="44.1580802" lon="11.3226512"><ele>905.6666666666667</ele><time>2026-04-25T12:48:58.315Z</time></trkpt><trkpt lat="44.1579082" lon="11.3227201"><ele>906.0</ele><time>2026-04-25T12:48:59.309Z</time></trkpt><trkpt lat="44.1577613" lon="11.3228449"><ele>906.0</ele><time>2026-04-25T12:49:00.288Z</time></trkpt><trkpt lat="44.1576319" lon="11.3229936"><ele>906.0</ele><time>2026-04-25T12:49:01.295Z</time></trkpt><trkpt lat="44.157513" lon="11.3231347"><ele>906.0</ele><time>2026-04-25T12:49:02.302Z</time></trkpt><trkpt lat="44.1573833" lon="11.3232593"><ele>904.3333333333333</ele><time>2026-04-25T12:49:03.32Z</time></trkpt><trkpt lat="44.1572362" lon="11.3233497"><ele>902.6666666666666</ele><time>2026-04-25T12:49:04.337Z</time></trkpt><trkpt lat="44.1570803" lon="11.3233954"><ele>901.0</ele><time>2026-04-25T12:49:05.324Z</time></trkpt><trkpt lat="44.1569134" lon="11.3233902"><ele>901.0</ele><time>2026-04-25T12:49:06.32Z</time></trkpt><trkpt lat="44.1567437" lon="11.3233386"><ele>901.0</ele><time>2026-04-25T12:49:07.32Z</time></trkpt><trkpt lat="44.1565736" lon="11.3232481"><ele>901.0</ele><time>2026-04-25T12:49:08.31Z</time></trkpt><trkpt lat="44.1564157" lon="11.3231698"><ele>900.3333333333333</ele><time>2026-04-25T12:49:09.321Z</time></trkpt><trkpt lat="44.1562408" lon="11.3231482"><ele>899.6666666666667</ele><time>2026-04-25T12:49:10.319Z</time></trkpt><trkpt lat="44.1560771" lon="11.3231686"><ele>899.0</ele><time>2026-04-25T12:49:11.312Z</time></trkpt><trkpt lat="44.155916" lon="11.3232521"><ele>899.0</ele><time>2026-04-25T12:49:12.308Z</time></trkpt><trkpt lat="44.1557645" lon="11.3233732"><ele>899.0</ele><time>2026-04-25T12:49:13.286Z</time></trkpt><trkpt lat="44.155642" lon="11.3235699"><ele>899.0</ele><time>2026-04-25T12:49:14.299Z</time></trkpt><trkpt lat="44.155523" lon="11.3237818"><ele>897.6666666666667</ele><time>2026-04-25T12:49:15.3Z</time></trkpt><trkpt lat="44.1554059" lon="11.3240017"><ele>896.3333333333333</ele><time>2026-04-25T12:49:16.305Z</time></trkpt><trkpt lat="44.1552727" lon="11.3242022"><ele>895.0</ele><time>2026-04-25T12:49:17.32Z</time></trkpt><trkpt lat="44.1551221" lon="11.3243552"><ele>895.0</ele><time>2026-04-25T12:49:18.33Z</time></trkpt><trkpt lat="44.1549697" lon="11.3244955"><ele>895.0</ele><time>2026-04-25T12:49:19.32Z</time></trkpt><trkpt lat="44.1548474" lon="11.3246635"><ele>895.0</ele><time>2026-04-25T12:49:20.289Z</time></trkpt><trkpt lat="44.1547687" lon="11.32485"><ele>894.0</ele><time>2026-04-25T12:49:21.318Z</time></trkpt><trkpt lat="44.1546899" lon="11.3250153"><ele>893.0</ele><time>2026-04-25T12:49:22.331Z</time></trkpt><trkpt lat="44.1545829" lon="11.3251313"><ele>892.0</ele><time>2026-04-25T12:49:23.299Z</time></trkpt><trkpt lat="44.1544568" lon="11.3251762"><ele>891.0</ele><time>2026-04-25T12:49:24.326Z</time></trkpt><trkpt lat="44.1542945" lon="11.3251806"><ele>891.0</ele><time>2026-04-25T12:49:25.286Z</time></trkpt><trkpt lat="44.1541353" lon="11.3251228"><ele>891.0</ele><time>2026-04-25T12:49:26.314Z</time></trkpt><trkpt lat="44.1539677" lon="11.3250463"><ele>891.0</ele><time>2026-04-25T12:49:27.285Z</time></trkpt><trkpt lat="44.1538162" lon="11.324959"><ele>892.6666666666667</ele><time>2026-04-25T12:49:28.316Z</time></trkpt><trkpt lat="44.1536723" lon="11.3248409"><ele>894.3333333333334</ele><time>2026-04-25T12:49:29.336Z</time></trkpt><trkpt lat="44.1535188" lon="11.3246997"><ele>896.0</ele><time>2026-04-25T12:49:30.316Z</time></trkpt><trkpt lat="44.1533661" lon="11.3245653"><ele>898.6666666666667</ele><time>2026-04-25T12:49:31.319Z</time></trkpt><trkpt lat="44.1532041" lon="11.3244745"><ele>901.3333333333333</ele><time>2026-04-25T12:49:32.31Z</time></trkpt><trkpt lat="44.1530405" lon="11.3244331"><ele>904.0</ele><time>2026-04-25T12:49:33.317Z</time></trkpt><trkpt lat="44.1528834" lon="11.324445"><ele>904.0</ele><time>2026-04-25T12:49:34.309Z</time></trkpt><trkpt lat="44.152728" lon="11.3245026"><ele>904.0</ele><time>2026-04-25T12:49:35.315Z</time></trkpt><trkpt lat="44.152582" lon="11.3246268"><ele>904.0</ele><time>2026-04-25T12:49:36.307Z</time></trkpt><trkpt lat="44.1524398" lon="11.3247474"><ele>902.3333333333333</ele><time>2026-04-25T12:49:37.306Z</time></trkpt><trkpt lat="44.1522939" lon="11.324868"><ele>900.6666666666667</ele><time>2026-04-25T12:49:38.326Z</time></trkpt><trkpt lat="44.152147" lon="11.3249914"><ele>899.0</ele><time>2026-04-25T12:49:39.31Z</time></trkpt><trkpt lat="44.1519934" lon="11.3251115"><ele>899.0</ele><time>2026-04-25T12:49:40.326Z</time></trkpt><trkpt lat="44.151843" lon="11.3252399"><ele>899.0</ele><time>2026-04-25T12:49:41.323Z</time></trkpt><trkpt lat="44.1516823" lon="11.3253723"><ele>899.0</ele><time>2026-04-25T12:49:42.31Z</time></trkpt><trkpt lat="44.1515188" lon="11.3255082"><ele>895.0</ele><time>2026-04-25T12:49:43.316Z</time></trkpt><trkpt lat="44.151372" lon="11.3256296"><ele>891.0</ele><time>2026-04-25T12:49:44.317Z</time></trkpt><trkpt lat="44.1512333" lon="11.3257324"><ele>887.0</ele><time>2026-04-25T12:49:45.303Z</time></trkpt><trkpt lat="44.1510858" lon="11.3258106"><ele>887.0</ele><time>2026-04-25T12:49:46.328Z</time></trkpt><trkpt lat="44.1509373" lon="11.3258598"><ele>887.0</ele><time>2026-04-25T12:49:47.314Z</time></trkpt><trkpt lat="44.1507717" lon="11.3258758"><ele>887.0</ele><time>2026-04-25T12:49:48.315Z</time></trkpt><trkpt lat="44.1506027" lon="11.3258772"><ele>890.0</ele><time>2026-04-25T12:49:49.306Z</time></trkpt><trkpt lat="44.150424" lon="11.3258667"><ele>893.0</ele><time>2026-04-25T12:49:50.31Z</time></trkpt><trkpt lat="44.1502341" lon="11.3258629"><ele>896.0</ele><time>2026-04-25T12:49:51.316Z</time></trkpt><trkpt lat="44.1500557" lon="11.325849"><ele>896.0</ele><time>2026-04-25T12:49:52.299Z</time></trkpt><trkpt lat="44.1498847" lon="11.3258439"><ele>896.0</ele><time>2026-04-25T12:49:53.309Z</time></trkpt><trkpt lat="44.1497217" lon="11.3258475"><ele>896.0</ele><time>2026-04-25T12:49:54.304Z</time></trkpt><trkpt lat="44.149569" lon="11.3258939"><ele>900.0</ele><time>2026-04-25T12:49:55.312Z</time></trkpt><trkpt lat="44.1494212" lon="11.3260174"><ele>904.0</ele><time>2026-04-25T12:49:56.298Z</time></trkpt><trkpt lat="44.1492542" lon="11.3261607"><ele>908.0</ele><time>2026-04-25T12:49:57.31Z</time></trkpt><trkpt lat="44.1490921" lon="11.3263336"><ele>907.0</ele><time>2026-04-25T12:49:58.317Z</time></trkpt><trkpt lat="44.1489318" lon="11.3265181"><ele>906.0</ele><time>2026-04-25T12:49:59.319Z</time></trkpt><trkpt lat="44.1487854" lon="11.3267033"><ele>905.0</ele><time>2026-04-25T12:50:00.312Z</time></trkpt><trkpt lat="44.1486516" lon="11.3268868"><ele>905.0</ele><time>2026-04-25T12:50:01.299Z</time></trkpt><trkpt lat="44.1485401" lon="11.3270566"><ele>905.0</ele><time>2026-04-25T12:50:02.309Z</time></trkpt><trkpt lat="44.1484387" lon="11.3271977"><ele>905.0</ele><time>2026-04-25T12:50:03.311Z</time></trkpt><trkpt lat="44.1483479" lon="11.3273012"><ele>905.0</ele><time>2026-04-25T12:50:04.334Z</time></trkpt><trkpt lat="44.1482582" lon="11.327389"><ele>901.2</ele><time>2026-04-25T12:50:05.333Z</time></trkpt><trkpt lat="44.1481678" lon="11.3274551"><ele>897.4</ele><time>2026-04-25T12:50:06.326Z</time></trkpt><trkpt lat="44.1480782" lon="11.3274959"><ele>893.5999999999999</ele><time>2026-04-25T12:50:07.322Z</time></trkpt><trkpt lat="44.1479836" lon="11.3274837"><ele>889.8</ele><time>2026-04-25T12:50:08.312Z</time></trkpt><trkpt lat="44.1478649" lon="11.327431"><ele>886.0</ele><time>2026-04-25T12:50:09.323Z</time></trkpt><trkpt lat="44.1477249" lon="11.3273283"><ele>886.0</ele><time>2026-04-25T12:50:10.319Z</time></trkpt><trkpt lat="44.1475904" lon="11.3272289"><ele>886.0</ele><time>2026-04-25T12:50:11.33Z</time></trkpt><trkpt lat="44.1474234" lon="11.3271641"><ele>886.0</ele><time>2026-04-25T12:50:12.302Z</time></trkpt><trkpt lat="44.1472517" lon="11.3271514"><ele>887.6666666666666</ele><time>2026-04-25T12:50:13.325Z</time></trkpt><trkpt lat="44.1470871" lon="11.3271514"><ele>889.3333333333333</ele><time>2026-04-25T12:50:14.322Z</time></trkpt><trkpt lat="44.1469204" lon="11.3271687"><ele>891.0</ele><time>2026-04-25T12:50:15.327Z</time></trkpt><trkpt lat="44.1467511" lon="11.3271446"><ele>891.0</ele><time>2026-04-25T12:50:16.327Z</time></trkpt><trkpt lat="44.1465789" lon="11.3270776"><ele>891.0</ele><time>2026-04-25T12:50:17.332Z</time></trkpt><trkpt lat="44.1463999" lon="11.3269687"><ele>891.0</ele><time>2026-04-25T12:50:18.322Z</time></trkpt><trkpt lat="44.1462154" lon="11.3268504"><ele>887.6666666666667</ele><time>2026-04-25T12:50:19.321Z</time></trkpt><trkpt lat="44.1460376" lon="11.3267327"><ele>884.3333333333334</ele><time>2026-04-25T12:50:20.322Z</time></trkpt><trkpt lat="44.1458523" lon="11.326645"><ele>881.0</ele><time>2026-04-25T12:50:21.307Z</time></trkpt><trkpt lat="44.1456644" lon="11.3265932"><ele>881.0</ele><time>2026-04-25T12:50:22.317Z</time></trkpt><trkpt lat="44.1454738" lon="11.3265763"><ele>881.0</ele><time>2026-04-25T12:50:23.315Z</time></trkpt><trkpt lat="44.1452942" lon="11.3266187"><ele>881.0</ele><time>2026-04-25T12:50:24.335Z</time></trkpt><trkpt lat="44.1451269" lon="11.3266986"><ele>881.0</ele><time>2026-04-25T12:50:25.312Z</time></trkpt><trkpt lat="44.1449887" lon="11.3268051"><ele>881.0</ele><time>2026-04-25T12:50:26.276Z</time></trkpt><trkpt lat="44.1448843" lon="11.3269631"><ele>881.0</ele><time>2026-04-25T12:50:27.305Z</time></trkpt><trkpt lat="44.1447986" lon="11.3271236"><ele>878.5</ele><time>2026-04-25T12:50:28.305Z</time></trkpt><trkpt lat="44.1447213" lon="11.3272986"><ele>876.0</ele><time>2026-04-25T12:50:29.313Z</time></trkpt><trkpt lat="44.1446389" lon="11.3274298"><ele>873.5</ele><time>2026-04-25T12:50:30.317Z</time></trkpt><trkpt lat="44.1445073" lon="11.3275142"><ele>871.0</ele><time>2026-04-25T12:50:31.315Z</time></trkpt><trkpt lat="44.1443641" lon="11.3275262"><ele>871.0</ele><time>2026-04-25T12:50:32.315Z</time></trkpt><trkpt lat="44.1442323" lon="11.3274905"><ele>871.0</ele><time>2026-04-25T12:50:33.314Z</time></trkpt><trkpt lat="44.1441043" lon="11.3274099"><ele>871.0</ele><time>2026-04-25T12:50:34.314Z</time></trkpt><trkpt lat="44.1439435" lon="11.3273393"><ele>871.0</ele><time>2026-04-25T12:50:35.313Z</time></trkpt><trkpt lat="44.1437679" lon="11.3272579"><ele>871.3333333333333</ele><time>2026-04-25T12:50:36.329Z</time></trkpt><trkpt lat="44.1435885" lon="11.3271623"><ele>871.6666666666667</ele><time>2026-04-25T12:50:37.331Z</time></trkpt><trkpt lat="44.1434014" lon="11.3271266"><ele>872.0</ele><time>2026-04-25T12:50:38.31Z</time></trkpt><trkpt lat="44.1432065" lon="11.3271279"><ele>872.0</ele><time>2026-04-25T12:50:39.329Z</time></trkpt><trkpt lat="44.1430086" lon="11.3271592"><ele>872.0</ele><time>2026-04-25T12:50:40.319Z</time></trkpt><trkpt lat="44.1428061" lon="11.3272107"><ele>872.0</ele><time>2026-04-25T12:50:41.312Z</time></trkpt><trkpt lat="44.1426102" lon="11.3272588"><ele>869.6666666666667</ele><time>2026-04-25T12:50:42.322Z</time></trkpt><trkpt lat="44.1424172" lon="11.3273351"><ele>867.3333333333333</ele><time>2026-04-25T12:50:43.32Z</time></trkpt><trkpt lat="44.1422338" lon="11.3274502"><ele>865.0</ele><time>2026-04-25T12:50:44.322Z</time></trkpt><trkpt lat="44.1420551" lon="11.3275853"><ele>865.0</ele><time>2026-04-25T12:50:45.321Z</time></trkpt><trkpt lat="44.1418804" lon="11.3277318"><ele>865.0</ele><time>2026-04-25T12:50:46.293Z</time></trkpt><trkpt lat="44.1417037" lon="11.3278805"><ele>865.0</ele><time>2026-04-25T12:50:47.319Z</time></trkpt><trkpt lat="44.1415223" lon="11.3280236"><ele>863.0</ele><time>2026-04-25T12:50:48.321Z</time></trkpt><trkpt lat="44.1413443" lon="11.3281647"><ele>861.0</ele><time>2026-04-25T12:50:49.318Z</time></trkpt><trkpt lat="44.1411806" lon="11.3282981"><ele>859.0</ele><time>2026-04-25T12:50:50.303Z</time></trkpt><trkpt lat="44.141036" lon="11.3284145"><ele>859.0</ele><time>2026-04-25T12:50:51.316Z</time></trkpt><trkpt lat="44.1409182" lon="11.3285128"><ele>859.0000000000001</ele><time>2026-04-25T12:50:52.324Z</time></trkpt><trkpt lat="44.1408181" lon="11.328579"><ele>859.0000000000001</ele><time>2026-04-25T12:50:53.343Z</time></trkpt><trkpt lat="44.1407295" lon="11.3285926"><ele>859.0</ele><time>2026-04-25T12:50:54.324Z</time></trkpt><trkpt lat="44.1406414" lon="11.3285114"><ele>859.0</ele><time>2026-04-25T12:50:55.332Z</time></trkpt><trkpt lat="44.1405624" lon="11.3283586"><ele>855.25</ele><time>2026-04-25T12:50:56.31Z</time></trkpt><trkpt lat="44.1404982" lon="11.3281587"><ele>851.5</ele><time>2026-04-25T12:50:57.313Z</time></trkpt><trkpt lat="44.1404728" lon="11.3279662"><ele>847.75</ele><time>2026-04-25T12:50:58.317Z</time></trkpt><trkpt lat="44.1404833" lon="11.327796"><ele>844.0</ele><time>2026-04-25T12:50:59.315Z</time></trkpt><trkpt lat="44.1405236" lon="11.3276318"><ele>844.0</ele><time>2026-04-25T12:51:00.317Z</time></trkpt><trkpt lat="44.1406157" lon="11.3274759"><ele>844.0</ele><time>2026-04-25T12:51:01.321Z</time></trkpt><trkpt lat="44.1407454" lon="11.3273551"><ele>844.0</ele><time>2026-04-25T12:51:02.32Z</time></trkpt><trkpt lat="44.1408779" lon="11.3272523"><ele>844.5</ele><time>2026-04-25T12:51:03.324Z</time></trkpt><trkpt lat="44.1410089" lon="11.3271511"><ele>845.0</ele><time>2026-04-25T12:51:04.31Z</time></trkpt><trkpt lat="44.1411276" lon="11.32705"><ele>845.5</ele><time>2026-04-25T12:51:05.316Z</time></trkpt><trkpt lat="44.1412218" lon="11.3269325"><ele>846.0</ele><time>2026-04-25T12:51:06.315Z</time></trkpt><trkpt lat="44.1412835" lon="11.3267745"><ele>846.0</ele><time>2026-04-25T12:51:07.329Z</time></trkpt><trkpt lat="44.1413017" lon="11.3265807"><ele>846.0</ele><time>2026-04-25T12:51:08.313Z</time></trkpt><trkpt lat="44.1412853" lon="11.3263823"><ele>846.0</ele><time>2026-04-25T12:51:09.331Z</time></trkpt><trkpt lat="44.1412483" lon="11.3261795"><ele>846.0</ele><time>2026-04-25T12:51:10.316Z</time></trkpt><trkpt lat="44.1411982" lon="11.3259734"><ele>846.0</ele><time>2026-04-25T12:51:11.307Z</time></trkpt><trkpt lat="44.1411396" lon="11.325791"><ele>846.0</ele><time>2026-04-25T12:51:12.309Z</time></trkpt><trkpt lat="44.1410815" lon="11.3256137"><ele>846.0</ele><time>2026-04-25T12:51:13.285Z</time></trkpt><trkpt lat="44.1410399" lon="11.3254411"><ele>846.0</ele><time>2026-04-25T12:51:14.286Z</time></trkpt><trkpt lat="44.1410411" lon="11.3252523"><ele>845.3333333333333</ele><time>2026-04-25T12:51:15.302Z</time></trkpt><trkpt lat="44.1410902" lon="11.3250276"><ele>844.6666666666666</ele><time>2026-04-25T12:51:16.316Z</time></trkpt><trkpt lat="44.1411417" lon="11.3248008"><ele>844.0</ele><time>2026-04-25T12:51:17.308Z</time></trkpt><trkpt lat="44.1412049" lon="11.3245506"><ele>843.0</ele><time>2026-04-25T12:51:18.314Z</time></trkpt><trkpt lat="44.1412337" lon="11.3242891"><ele>842.0</ele><time>2026-04-25T12:51:19.289Z</time></trkpt><trkpt lat="44.1412444" lon="11.3240411"><ele>841.0</ele><time>2026-04-25T12:51:20.306Z</time></trkpt><trkpt lat="44.1412454" lon="11.3238058"><ele>841.0</ele><time>2026-04-25T12:51:21.317Z</time></trkpt><trkpt lat="44.1412192" lon="11.3235856"><ele>841.0</ele><time>2026-04-25T12:51:22.282Z</time></trkpt><trkpt lat="44.1411572" lon="11.3233582"><ele>841.0</ele><time>2026-04-25T12:51:23.324Z</time></trkpt><trkpt lat="44.1410615" lon="11.3231179"><ele>842.3333333333333</ele><time>2026-04-25T12:51:24.317Z</time></trkpt><trkpt lat="44.1409648" lon="11.3228637"><ele>843.6666666666667</ele><time>2026-04-25T12:51:25.329Z</time></trkpt><trkpt lat="44.1408633" lon="11.3226022"><ele>845.0</ele><time>2026-04-25T12:51:26.309Z</time></trkpt><trkpt lat="44.1407731" lon="11.3223391"><ele>842.6666666666667</ele><time>2026-04-25T12:51:27.312Z</time></trkpt><trkpt lat="44.1406934" lon="11.3221226"><ele>840.3333333333333</ele><time>2026-04-25T12:51:28.319Z</time></trkpt><trkpt lat="44.1406108" lon="11.3219515"><ele>838.0</ele><time>2026-04-25T12:51:29.308Z</time></trkpt><trkpt lat="44.140524" lon="11.3218093"><ele>838.0</ele><time>2026-04-25T12:51:30.317Z</time></trkpt><trkpt lat="44.1404044" lon="11.3217079"><ele>838.0</ele><time>2026-04-25T12:51:31.326Z</time></trkpt><trkpt lat="44.1402551" lon="11.3216897"><ele>838.0</ele><time>2026-04-25T12:51:32.323Z</time></trkpt><trkpt lat="44.1400976" lon="11.321657"><ele>838.0</ele><time>2026-04-25T12:51:33.32Z</time></trkpt><trkpt lat="44.1399504" lon="11.3216038"><ele>835.3333333333333</ele><time>2026-04-25T12:51:34.291Z</time></trkpt><trkpt lat="44.1398094" lon="11.3215164"><ele>832.6666666666667</ele><time>2026-04-25T12:51:35.303Z</time></trkpt><trkpt lat="44.1396793" lon="11.3213547"><ele>830.0</ele><time>2026-04-25T12:51:36.329Z</time></trkpt><trkpt lat="44.139544" lon="11.3211635"><ele>830.0</ele><time>2026-04-25T12:51:37.321Z</time></trkpt><trkpt lat="44.139405" lon="11.3209791"><ele>830.0</ele><time>2026-04-25T12:51:38.297Z</time></trkpt><trkpt lat="44.1392637" lon="11.3208114"><ele>830.0</ele><time>2026-04-25T12:51:39.311Z</time></trkpt><trkpt lat="44.1391234" lon="11.3206727"><ele>828.25</ele><time>2026-04-25T12:51:40.324Z</time></trkpt><trkpt lat="44.1389837" lon="11.3205567"><ele>826.5</ele><time>2026-04-25T12:51:41.315Z</time></trkpt><trkpt lat="44.1388779" lon="11.3204563"><ele>824.75</ele><time>2026-04-25T12:51:42.291Z</time></trkpt><trkpt lat="44.138797" lon="11.3203681"><ele>823.0</ele><time>2026-04-25T12:51:43.306Z</time></trkpt><trkpt lat="44.1387418" lon="11.3203031"><ele>823.0</ele><time>2026-04-25T12:51:44.311Z</time></trkpt><trkpt lat="44.1386767" lon="11.3202022"><ele>823.0</ele><time>2026-04-25T12:51:46.299Z</time></trkpt><trkpt lat="44.138584" lon="11.3201958"><ele>823.0</ele><time>2026-04-25T12:51:47.304Z</time></trkpt><trkpt lat="44.138459" lon="11.320188"><ele>823.0</ele><time>2026-04-25T12:51:48.33Z</time></trkpt><trkpt lat="44.1383076" lon="11.320187"><ele>819.0</ele><time>2026-04-25T12:51:49.34Z</time></trkpt><trkpt lat="44.1381451" lon="11.3201918"><ele>815.0</ele><time>2026-04-25T12:51:50.307Z</time></trkpt><trkpt lat="44.1379839" lon="11.3201958"><ele>811.0</ele><time>2026-04-25T12:51:51.319Z</time></trkpt><trkpt lat="44.137849" lon="11.3201944"><ele>810.9999999999999</ele><time>2026-04-25T12:51:52.314Z</time></trkpt><trkpt lat="44.1377416" lon="11.3201823"><ele>811.0</ele><time>2026-04-25T12:51:53.318Z</time></trkpt><trkpt lat="44.1376482" lon="11.3202013"><ele>811.0</ele><time>2026-04-25T12:51:54.31Z</time></trkpt><trkpt lat="44.137589" lon="11.3202745"><ele>811.0</ele><time>2026-04-25T12:51:55.31Z</time></trkpt><trkpt lat="44.1375715" lon="11.320378"><ele>810.9999999999999</ele><time>2026-04-25T12:51:56.322Z</time></trkpt><trkpt lat="44.1376072" lon="11.3204782"><ele>811.0</ele><time>2026-04-25T12:51:57.322Z</time></trkpt><trkpt lat="44.1376939" lon="11.3205522"><ele>810.25</ele><time>2026-04-25T12:51:58.317Z</time></trkpt><trkpt lat="44.137813" lon="11.3206123"><ele>809.5</ele><time>2026-04-25T12:51:59.307Z</time></trkpt><trkpt lat="44.1379518" lon="11.3206879"><ele>808.75</ele><time>2026-04-25T12:52:00.307Z</time></trkpt><trkpt lat="44.1380935" lon="11.3208257"><ele>808.0</ele><time>2026-04-25T12:52:01.324Z</time></trkpt><trkpt lat="44.1382158" lon="11.3210052"><ele>806.6666666666666</ele><time>2026-04-25T12:52:02.32Z</time></trkpt><trkpt lat="44.1383057" lon="11.3212079"><ele>805.3333333333333</ele><time>2026-04-25T12:52:03.32Z</time></trkpt><trkpt lat="44.1383832" lon="11.3214165"><ele>804.0</ele><time>2026-04-25T12:52:04.309Z</time></trkpt><trkpt lat="44.138433" lon="11.3216136"><ele>804.0</ele><time>2026-04-25T12:52:05.316Z</time></trkpt><trkpt lat="44.1384701" lon="11.321824"><ele>804.0</ele><time>2026-04-25T12:52:06.309Z</time></trkpt><trkpt lat="44.1384769" lon="11.3220475"><ele>804.0</ele><time>2026-04-25T12:52:07.29Z</time></trkpt><trkpt lat="44.1384443" lon="11.3222607"><ele>803.6666666666667</ele><time>2026-04-25T12:52:08.324Z</time></trkpt><trkpt lat="44.1383649" lon="11.3224454"><ele>803.3333333333334</ele><time>2026-04-25T12:52:09.327Z</time></trkpt><trkpt lat="44.1382417" lon="11.3226061"><ele>803.0</ele><time>2026-04-25T12:52:10.313Z</time></trkpt><trkpt lat="44.1380841" lon="11.322735"><ele>798.6666666666667</ele><time>2026-04-25T12:52:11.31Z</time></trkpt><trkpt lat="44.1378998" lon="11.3228477"><ele>794.3333333333333</ele><time>2026-04-25T12:52:12.304Z</time></trkpt><trkpt lat="44.1376998" lon="11.3229473"><ele>790.0</ele><time>2026-04-25T12:52:13.327Z</time></trkpt><trkpt lat="44.137508" lon="11.3230497"><ele>786.3333333333333</ele><time>2026-04-25T12:52:14.319Z</time></trkpt><trkpt lat="44.1373207" lon="11.323155"><ele>782.6666666666667</ele><time>2026-04-25T12:52:15.321Z</time></trkpt><trkpt lat="44.1371552" lon="11.3232697"><ele>779.0</ele><time>2026-04-25T12:52:16.32Z</time></trkpt><trkpt lat="44.1369969" lon="11.3233725"><ele>779.0</ele><time>2026-04-25T12:52:17.326Z</time></trkpt><trkpt lat="44.1368635" lon="11.3234733"><ele>779.0</ele><time>2026-04-25T12:52:18.329Z</time></trkpt><trkpt lat="44.136769" lon="11.3236012"><ele>779.0</ele><time>2026-04-25T12:52:19.322Z</time></trkpt><trkpt lat="44.1366949" lon="11.3237579"><ele>779.0</ele><time>2026-04-25T12:52:20.297Z</time></trkpt><trkpt lat="44.1366492" lon="11.3239423"><ele>778.3333333333334</ele><time>2026-04-25T12:52:21.315Z</time></trkpt><trkpt lat="44.1366472" lon="11.3241738"><ele>777.6666666666667</ele><time>2026-04-25T12:52:22.299Z</time></trkpt><trkpt lat="44.1366768" lon="11.3244238"><ele>777.0</ele><time>2026-04-25T12:52:23.309Z</time></trkpt><trkpt lat="44.1367291" lon="11.3246343"><ele>775.3333333333333</ele><time>2026-04-25T12:52:24.337Z</time></trkpt><trkpt lat="44.1367822" lon="11.3248297"><ele>773.6666666666666</ele><time>2026-04-25T12:52:25.311Z</time></trkpt><trkpt lat="44.1368221" lon="11.3250299"><ele>772.0</ele><time>2026-04-25T12:52:26.313Z</time></trkpt><trkpt lat="44.1368008" lon="11.3252432"><ele>772.0</ele><time>2026-04-25T12:52:27.314Z</time></trkpt><trkpt lat="44.1367128" lon="11.3254463"><ele>772.0</ele><time>2026-04-25T12:52:28.321Z</time></trkpt><trkpt lat="44.1366136" lon="11.3255932"><ele>772.0</ele><time>2026-04-25T12:52:29.302Z</time></trkpt><trkpt lat="44.1365134" lon="11.3257264"><ele>767.3333333333333</ele><time>2026-04-25T12:52:30.315Z</time></trkpt><trkpt lat="44.1364307" lon="11.3258956"><ele>762.6666666666666</ele><time>2026-04-25T12:52:31.313Z</time></trkpt><trkpt lat="44.1363913" lon="11.3261023"><ele>758.0</ele><time>2026-04-25T12:52:32.318Z</time></trkpt><trkpt lat="44.1363779" lon="11.3263491"><ele>756.3333333333333</ele><time>2026-04-25T12:52:33.308Z</time></trkpt><trkpt lat="44.1363689" lon="11.326608"><ele>754.6666666666666</ele><time>2026-04-25T12:52:34.315Z</time></trkpt><trkpt lat="44.1363658" lon="11.3268725"><ele>753.0</ele><time>2026-04-25T12:52:35.285Z</time></trkpt><trkpt lat="44.1363615" lon="11.3271402"><ele>751.6666666666666</ele><time>2026-04-25T12:52:36.285Z</time></trkpt><trkpt lat="44.1363643" lon="11.3274058"><ele>750.3333333333333</ele><time>2026-04-25T12:52:37.292Z</time></trkpt><trkpt lat="44.1363763" lon="11.3276575"><ele>749.0</ele><time>2026-04-25T12:52:38.281Z</time></trkpt><trkpt lat="44.1363878" lon="11.3278894"><ele>749.3333333333333</ele><time>2026-04-25T12:52:39.311Z</time></trkpt><trkpt lat="44.1363655" lon="11.3281239"><ele>749.6666666666666</ele><time>2026-04-25T12:52:40.32Z</time></trkpt><trkpt lat="44.1362935" lon="11.3283447"><ele>750.0</ele><time>2026-04-25T12:52:41.314Z</time></trkpt><trkpt lat="44.1361955" lon="11.3285736"><ele>750.0</ele><time>2026-04-25T12:52:42.327Z</time></trkpt><trkpt lat="44.1360829" lon="11.3287956"><ele>750.0</ele><time>2026-04-25T12:52:43.319Z</time></trkpt><trkpt lat="44.135965" lon="11.3290091"><ele>750.0</ele><time>2026-04-25T12:52:44.308Z</time></trkpt><trkpt lat="44.1358386" lon="11.3292172"><ele>746.3333333333334</ele><time>2026-04-25T12:52:45.313Z</time></trkpt><trkpt lat="44.1357109" lon="11.3294044"><ele>742.6666666666667</ele><time>2026-04-25T12:52:46.31Z</time></trkpt><trkpt lat="44.1355875" lon="11.3295897"><ele>739.0</ele><time>2026-04-25T12:52:47.328Z</time></trkpt><trkpt lat="44.1354776" lon="11.3297795"><ele>739.0</ele><time>2026-04-25T12:52:48.315Z</time></trkpt><trkpt lat="44.1353851" lon="11.329994"><ele>739.0</ele><time>2026-04-25T12:52:49.307Z</time></trkpt><trkpt lat="44.1352992" lon="11.3302268"><ele>739.0</ele><time>2026-04-25T12:52:50.316Z</time></trkpt><trkpt lat="44.1352433" lon="11.3304926"><ele>738.3333333333334</ele><time>2026-04-25T12:52:51.313Z</time></trkpt><trkpt lat="44.1352051" lon="11.3307601"><ele>737.6666666666666</ele><time>2026-04-25T12:52:52.316Z</time></trkpt><trkpt lat="44.1351842" lon="11.3310172"><ele>737.0</ele><time>2026-04-25T12:52:53.306Z</time></trkpt><trkpt lat="44.1351513" lon="11.3312439"><ele>736.6666666666666</ele><time>2026-04-25T12:52:54.318Z</time></trkpt><trkpt lat="44.1350948" lon="11.3314603"><ele>736.3333333333334</ele><time>2026-04-25T12:52:55.315Z</time></trkpt><trkpt lat="44.1350184" lon="11.3316517"><ele>736.0</ele><time>2026-04-25T12:52:56.321Z</time></trkpt><trkpt lat="44.1349346" lon="11.3318308"><ele>734.75</ele><time>2026-04-25T12:52:57.33Z</time></trkpt><trkpt lat="44.1348543" lon="11.3320055"><ele>733.5</ele><time>2026-04-25T12:52:58.322Z</time></trkpt><trkpt lat="44.1347928" lon="11.3321616"><ele>732.25</ele><time>2026-04-25T12:52:59.315Z</time></trkpt><trkpt lat="44.1347442" lon="11.3323027"><ele>731.0</ele><time>2026-04-25T12:53:00.307Z</time></trkpt><trkpt lat="44.1346988" lon="11.3324173"><ele>731.0</ele><time>2026-04-25T12:53:01.327Z</time></trkpt><trkpt lat="44.1346375" lon="11.3325099"><ele>731.0</ele><time>2026-04-25T12:53:02.321Z</time></trkpt><trkpt lat="44.134543" lon="11.3325639"><ele>731.0</ele><time>2026-04-25T12:53:03.315Z</time></trkpt><trkpt lat="44.1344385" lon="11.3326055"><ele>731.0</ele><time>2026-04-25T12:53:04.323Z</time></trkpt><trkpt lat="44.1343233" lon="11.3326424"><ele>731.0</ele><time>2026-04-25T12:53:05.333Z</time></trkpt><trkpt lat="44.1342079" lon="11.3326914"><ele>731.0</ele><time>2026-04-25T12:53:06.327Z</time></trkpt><trkpt lat="44.1341066" lon="11.332731"><ele>731.0</ele><time>2026-04-25T12:53:07.317Z</time></trkpt><trkpt lat="44.133988" lon="11.3328001"><ele>731.0</ele><time>2026-04-25T12:53:08.328Z</time></trkpt><trkpt lat="44.1338632" lon="11.3328606"><ele>731.0</ele><time>2026-04-25T12:53:09.321Z</time></trkpt><trkpt lat="44.1337398" lon="11.3329203"><ele>728.0</ele><time>2026-04-25T12:53:10.317Z</time></trkpt><trkpt lat="44.1336227" lon="11.3329829"><ele>725.0</ele><time>2026-04-25T12:53:11.303Z</time></trkpt><trkpt lat="44.1335121" lon="11.3330564"><ele>722.0</ele><time>2026-04-25T12:53:12.31Z</time></trkpt><trkpt lat="44.1334052" lon="11.3331204"><ele>719.0</ele><time>2026-04-25T12:53:13.317Z</time></trkpt><trkpt lat="44.1333056" lon="11.3331662"><ele>716.1666666666666</ele><time>2026-04-25T12:53:14.316Z</time></trkpt><trkpt lat="44.1332057" lon="11.3331854"><ele>713.3333333333333</ele><time>2026-04-25T12:53:15.322Z</time></trkpt><trkpt lat="44.1331118" lon="11.3331994"><ele>710.5</ele><time>2026-04-25T12:53:16.315Z</time></trkpt><trkpt lat="44.1330306" lon="11.3332255"><ele>707.6666666666666</ele><time>2026-04-25T12:53:17.319Z</time></trkpt><trkpt lat="44.1329857" lon="11.3333201"><ele>704.8333333333334</ele><time>2026-04-25T12:53:18.319Z</time></trkpt><trkpt lat="44.1329808" lon="11.3334229"><ele>702.0</ele><time>2026-04-25T12:53:19.319Z</time></trkpt><trkpt lat="44.1330305" lon="11.333565"><ele>702.0</ele><time>2026-04-25T12:53:20.325Z</time></trkpt><trkpt lat="44.1330896" lon="11.3336856"><ele>702.0</ele><time>2026-04-25T12:53:21.327Z</time></trkpt><trkpt lat="44.1331292" lon="11.3337924"><ele>702.0</ele><time>2026-04-25T12:53:22.316Z</time></trkpt><trkpt lat="44.1331074" lon="11.3338989"><ele>702.0</ele><time>2026-04-25T12:53:23.335Z</time></trkpt><trkpt lat="44.1330353" lon="11.333973"><ele>702.0</ele><time>2026-04-25T12:53:24.311Z</time></trkpt><trkpt lat="44.1329088" lon="11.3340272"><ele>701.3333333333334</ele><time>2026-04-25T12:53:25.32Z</time></trkpt><trkpt lat="44.1327459" lon="11.3340802"><ele>700.6666666666667</ele><time>2026-04-25T12:53:26.313Z</time></trkpt><trkpt lat="44.1326011" lon="11.3341406"><ele>700.0</ele><time>2026-04-25T12:53:27.3Z</time></trkpt><trkpt lat="44.132448" lon="11.3342246"><ele>695.3333333333334</ele><time>2026-04-25T12:53:28.322Z</time></trkpt><trkpt lat="44.1322866" lon="11.3342789"><ele>690.6666666666666</ele><time>2026-04-25T12:53:29.321Z</time></trkpt><trkpt lat="44.1321316" lon="11.3343199"><ele>686.0</ele><time>2026-04-25T12:53:30.308Z</time></trkpt><trkpt lat="44.1319708" lon="11.3343219"><ele>686.0</ele><time>2026-04-25T12:53:31.327Z</time></trkpt><trkpt lat="44.1318216" lon="11.3342974"><ele>686.0</ele><time>2026-04-25T12:53:32.304Z</time></trkpt><trkpt lat="44.131691" lon="11.3342683"><ele>686.0</ele><time>2026-04-25T12:53:33.317Z</time></trkpt><trkpt lat="44.1315844" lon="11.3342411"><ele>686.0</ele><time>2026-04-25T12:53:34.317Z</time></trkpt><trkpt lat="44.131475" lon="11.3342524"><ele>683.0</ele><time>2026-04-25T12:53:35.314Z</time></trkpt><trkpt lat="44.1313708" lon="11.3343015"><ele>680.0</ele><time>2026-04-25T12:53:36.3Z</time></trkpt><trkpt lat="44.1312916" lon="11.3344067"><ele>677.0</ele><time>2026-04-25T12:53:37.324Z</time></trkpt><trkpt lat="44.1312317" lon="11.3345697"><ele>674.0</ele><time>2026-04-25T12:53:38.316Z</time></trkpt><trkpt lat="44.1311666" lon="11.3347249"><ele>673.0</ele><time>2026-04-25T12:53:39.319Z</time></trkpt><trkpt lat="44.1310623" lon="11.3348544"><ele>672.0</ele><time>2026-04-25T12:53:40.324Z</time></trkpt><trkpt lat="44.1309312" lon="11.3349568"><ele>671.0</ele><time>2026-04-25T12:53:41.321Z</time></trkpt><trkpt lat="44.1308021" lon="11.3350536"><ele>670.0</ele><time>2026-04-25T12:53:42.31Z</time></trkpt><trkpt lat="44.1306893" lon="11.3351547"><ele>667.5</ele><time>2026-04-25T12:53:43.29Z</time></trkpt><trkpt lat="44.1305966" lon="11.3353115"><ele>665.0</ele><time>2026-04-25T12:53:44.288Z</time></trkpt><trkpt lat="44.1305271" lon="11.3354967"><ele>662.5</ele><time>2026-04-25T12:53:45.286Z</time></trkpt><trkpt lat="44.130494" lon="11.3356897"><ele>660.0</ele><time>2026-04-25T12:53:46.279Z</time></trkpt><trkpt lat="44.1304553" lon="11.3358746"><ele>660.0</ele><time>2026-04-25T12:53:47.276Z</time></trkpt><trkpt lat="44.1304021" lon="11.336053"><ele>660.0</ele><time>2026-04-25T12:53:48.282Z</time></trkpt><trkpt lat="44.1303159" lon="11.3361986"><ele>660.0</ele><time>2026-04-25T12:53:49.291Z</time></trkpt><trkpt lat="44.1302006" lon="11.3362939"><ele>660.0</ele><time>2026-04-25T12:53:50.291Z</time></trkpt><trkpt lat="44.1300608" lon="11.3363137"><ele>660.0</ele><time>2026-04-25T12:53:51.275Z</time></trkpt><trkpt lat="44.1299163" lon="11.3363243"><ele>660.0</ele><time>2026-04-25T12:53:52.306Z</time></trkpt><trkpt lat="44.129785" lon="11.3363379"><ele>660.0</ele><time>2026-04-25T12:53:53.324Z</time></trkpt><trkpt lat="44.1296556" lon="11.3364223"><ele>660.0</ele><time>2026-04-25T12:53:54.324Z</time></trkpt><trkpt lat="44.1295246" lon="11.336504"><ele>657.75</ele><time>2026-04-25T12:53:55.295Z</time></trkpt><trkpt lat="44.1293982" lon="11.3365745"><ele>655.5</ele><time>2026-04-25T12:53:56.317Z</time></trkpt><trkpt lat="44.129255" lon="11.3365829"><ele>653.25</ele><time>2026-04-25T12:53:57.306Z</time></trkpt><trkpt lat="44.1291188" lon="11.3365733"><ele>651.0</ele><time>2026-04-25T12:53:58.329Z</time></trkpt><trkpt lat="44.1289909" lon="11.3366109"><ele>647.0</ele><time>2026-04-25T12:53:59.309Z</time></trkpt><trkpt lat="44.1288831" lon="11.3366944"><ele>643.0</ele><time>2026-04-25T12:54:00.285Z</time></trkpt><trkpt lat="44.1287673" lon="11.3368323"><ele>639.0</ele><time>2026-04-25T12:54:01.296Z</time></trkpt><trkpt lat="44.1286549" lon="11.3369833"><ele>635.0</ele><time>2026-04-25T12:54:02.322Z</time></trkpt><trkpt lat="44.1285454" lon="11.3371389"><ele>635.5</ele><time>2026-04-25T12:54:03.293Z</time></trkpt><trkpt lat="44.1284695" lon="11.3373001"><ele>636.0</ele><time>2026-04-25T12:54:04.316Z</time></trkpt><trkpt lat="44.1284086" lon="11.3374428"><ele>636.5</ele><time>2026-04-25T12:54:05.321Z</time></trkpt><trkpt lat="44.1283268" lon="11.3375595"><ele>637.0</ele><time>2026-04-25T12:54:06.299Z</time></trkpt><trkpt lat="44.128212" lon="11.3376108"><ele>634.25</ele><time>2026-04-25T12:54:07.33Z</time></trkpt><trkpt lat="44.1280634" lon="11.3375911"><ele>631.5</ele><time>2026-04-25T12:54:08.304Z</time></trkpt><trkpt lat="44.1279224" lon="11.3375384"><ele>628.75</ele><time>2026-04-25T12:54:09.315Z</time></trkpt><trkpt lat="44.1277869" lon="11.3374455"><ele>626.0</ele><time>2026-04-25T12:54:10.322Z</time></trkpt><trkpt lat="44.1276302" lon="11.3373451"><ele>626.0</ele><time>2026-04-25T12:54:11.323Z</time></trkpt><trkpt lat="44.1274705" lon="11.3372989"><ele>626.0</ele><time>2026-04-25T12:54:12.292Z</time></trkpt><trkpt lat="44.1273308" lon="11.3373072"><ele>626.0</ele><time>2026-04-25T12:54:13.319Z</time></trkpt><trkpt lat="44.1272016" lon="11.3373741"><ele>626.0</ele><time>2026-04-25T12:54:14.322Z</time></trkpt><trkpt lat="44.1270582" lon="11.337473"><ele>625.5</ele><time>2026-04-25T12:54:15.315Z</time></trkpt><trkpt lat="44.1269297" lon="11.3376"><ele>625.0</ele><time>2026-04-25T12:54:16.297Z</time></trkpt><trkpt lat="44.126808" lon="11.3376991"><ele>624.5</ele><time>2026-04-25T12:54:17.314Z</time></trkpt><trkpt lat="44.1266728" lon="11.3377569"><ele>624.0</ele><time>2026-04-25T12:54:18.298Z</time></trkpt><trkpt lat="44.1265261" lon="11.3377722"><ele>621.6666666666666</ele><time>2026-04-25T12:54:19.311Z</time></trkpt><trkpt lat="44.1263597" lon="11.3377674"><ele>619.3333333333333</ele><time>2026-04-25T12:54:20.306Z</time></trkpt><trkpt lat="44.1261883" lon="11.3377622"><ele>617.0</ele><time>2026-04-25T12:54:21.328Z</time></trkpt><trkpt lat="44.12603" lon="11.3377574"><ele>617.0</ele><time>2026-04-25T12:54:22.323Z</time></trkpt><trkpt lat="44.1258785" lon="11.3377448"><ele>617.0</ele><time>2026-04-25T12:54:23.304Z</time></trkpt><trkpt lat="44.125717" lon="11.3377331"><ele>617.0</ele><time>2026-04-25T12:54:24.326Z</time></trkpt><trkpt lat="44.1255567" lon="11.3377261"><ele>614.3333333333333</ele><time>2026-04-25T12:54:25.31Z</time></trkpt><trkpt lat="44.1254007" lon="11.3377139"><ele>611.6666666666666</ele><time>2026-04-25T12:54:26.313Z</time></trkpt><trkpt lat="44.125242" lon="11.3376965"><ele>609.0</ele><time>2026-04-25T12:54:27.318Z</time></trkpt><trkpt lat="44.1250896" lon="11.3376931"><ele>609.0</ele><time>2026-04-25T12:54:28.317Z</time></trkpt><trkpt lat="44.1249336" lon="11.3377196"><ele>609.0</ele><time>2026-04-25T12:54:29.32Z</time></trkpt><trkpt lat="44.1247919" lon="11.3377923"><ele>609.0</ele><time>2026-04-25T12:54:30.312Z</time></trkpt><trkpt lat="44.1246571" lon="11.3379227"><ele>606.6666666666666</ele><time>2026-04-25T12:54:31.294Z</time></trkpt><trkpt lat="44.1245599" lon="11.3380994"><ele>604.3333333333333</ele><time>2026-04-25T12:54:32.307Z</time></trkpt><trkpt lat="44.1244668" lon="11.3382829"><ele>602.0</ele><time>2026-04-25T12:54:33.317Z</time></trkpt><trkpt lat="44.1243585" lon="11.3384422"><ele>602.0</ele><time>2026-04-25T12:54:34.283Z</time></trkpt><trkpt lat="44.1242313" lon="11.3385678"><ele>602.0</ele><time>2026-04-25T12:54:35.325Z</time></trkpt><trkpt lat="44.1240844" lon="11.3386748"><ele>602.0</ele><time>2026-04-25T12:54:36.318Z</time></trkpt><trkpt lat="44.1239231" lon="11.3387595"><ele>599.3333333333333</ele><time>2026-04-25T12:54:37.325Z</time></trkpt><trkpt lat="44.1237656" lon="11.3388431"><ele>596.6666666666666</ele><time>2026-04-25T12:54:38.316Z</time></trkpt><trkpt lat="44.1236084" lon="11.3389203"><ele>594.0</ele><time>2026-04-25T12:54:39.325Z</time></trkpt><trkpt lat="44.1234506" lon="11.3389779"><ele>594.0</ele><time>2026-04-25T12:54:40.305Z</time></trkpt><trkpt lat="44.1232838" lon="11.338984"><ele>594.0</ele><time>2026-04-25T12:54:41.314Z</time></trkpt><trkpt lat="44.1231188" lon="11.3389546"><ele>594.0</ele><time>2026-04-25T12:54:42.314Z</time></trkpt><trkpt lat="44.1229531" lon="11.3389099"><ele>589.0</ele><time>2026-04-25T12:54:43.313Z</time></trkpt><trkpt lat="44.1227821" lon="11.3389113"><ele>584.0</ele><time>2026-04-25T12:54:44.306Z</time></trkpt><trkpt lat="44.1226033" lon="11.3389593"><ele>579.0</ele><time>2026-04-25T12:54:45.311Z</time></trkpt><trkpt lat="44.1224206" lon="11.3390215"><ele>577.6666666666666</ele><time>2026-04-25T12:54:46.322Z</time></trkpt><trkpt lat="44.1222462" lon="11.3391324"><ele>576.3333333333333</ele><time>2026-04-25T12:54:47.306Z</time></trkpt><trkpt lat="44.1220796" lon="11.3392601"><ele>575.0</ele><time>2026-04-25T12:54:48.297Z</time></trkpt><trkpt lat="44.1219163" lon="11.3393855"><ele>575.0</ele><time>2026-04-25T12:54:49.315Z</time></trkpt><trkpt lat="44.1217524" lon="11.3394813"><ele>575.0</ele><time>2026-04-25T12:54:50.304Z</time></trkpt><trkpt lat="44.1215868" lon="11.3395741"><ele>575.0</ele><time>2026-04-25T12:54:51.304Z</time></trkpt><trkpt lat="44.1214014" lon="11.3396424"><ele>575.6666666666666</ele><time>2026-04-25T12:54:52.311Z</time></trkpt><trkpt lat="44.1212146" lon="11.3397134"><ele>576.3333333333334</ele><time>2026-04-25T12:54:53.315Z</time></trkpt><trkpt lat="44.1210216" lon="11.3397855"><ele>577.0</ele><time>2026-04-25T12:54:54.324Z</time></trkpt><trkpt lat="44.1208336" lon="11.339851"><ele>577.3333333333334</ele><time>2026-04-25T12:54:55.34Z</time></trkpt><trkpt lat="44.1206383" lon="11.3398965"><ele>577.6666666666666</ele><time>2026-04-25T12:54:56.333Z</time></trkpt><trkpt lat="44.1204315" lon="11.3399157"><ele>578.0</ele><time>2026-04-25T12:54:57.325Z</time></trkpt><trkpt lat="44.1202365" lon="11.3399016"><ele>578.0</ele><time>2026-04-25T12:54:58.341Z</time></trkpt><trkpt lat="44.1200544" lon="11.3398888"><ele>578.0</ele><time>2026-04-25T12:54:59.314Z</time></trkpt><trkpt lat="44.119895" lon="11.3398741"><ele>578.0</ele><time>2026-04-25T12:55:00.32Z</time></trkpt><trkpt lat="44.1197392" lon="11.3398726"><ele>579.0</ele><time>2026-04-25T12:55:01.329Z</time></trkpt><trkpt lat="44.1195952" lon="11.3398748"><ele>580.0</ele><time>2026-04-25T12:55:02.313Z</time></trkpt><trkpt lat="44.1194612" lon="11.3398946"><ele>581.0</ele><time>2026-04-25T12:55:03.313Z</time></trkpt><trkpt lat="44.1193457" lon="11.339952"><ele>582.0</ele><time>2026-04-25T12:55:04.306Z</time></trkpt><trkpt lat="44.1192413" lon="11.3400619"><ele>582.0</ele><time>2026-04-25T12:55:05.324Z</time></trkpt><trkpt lat="44.1191464" lon="11.3401967"><ele>582.0</ele><time>2026-04-25T12:55:06.315Z</time></trkpt><trkpt lat="44.1190536" lon="11.3403492"><ele>582.0</ele><time>2026-04-25T12:55:07.3Z</time></trkpt><trkpt lat="44.1189571" lon="11.3405042"><ele>582.0</ele><time>2026-04-25T12:55:08.319Z</time></trkpt><trkpt lat="44.1188595" lon="11.3406655"><ele>584.0</ele><time>2026-04-25T12:55:09.314Z</time></trkpt><trkpt lat="44.1187585" lon="11.3408324"><ele>586.0</ele><time>2026-04-25T12:55:10.313Z</time></trkpt><trkpt lat="44.1186604" lon="11.3410062"><ele>588.0</ele><time>2026-04-25T12:55:11.319Z</time></trkpt><trkpt lat="44.1185588" lon="11.3411845"><ele>588.0</ele><time>2026-04-25T12:55:12.291Z</time></trkpt><trkpt lat="44.1184657" lon="11.3413598"><ele>588.0</ele><time>2026-04-25T12:55:13.313Z</time></trkpt><trkpt lat="44.1183783" lon="11.3415107"><ele>588.0</ele><time>2026-04-25T12:55:14.323Z</time></trkpt><trkpt lat="44.118288" lon="11.341631"><ele>588.0</ele><time>2026-04-25T12:55:15.315Z</time></trkpt><trkpt lat="44.1182057" lon="11.3417207"><ele>587.6</ele><time>2026-04-25T12:55:16.324Z</time></trkpt><trkpt lat="44.1181206" lon="11.3418134"><ele>587.1999999999999</ele><time>2026-04-25T12:55:17.329Z</time></trkpt><trkpt lat="44.1180351" lon="11.341889"><ele>586.8</ele><time>2026-04-25T12:55:18.309Z</time></trkpt><trkpt lat="44.1179529" lon="11.3419707"><ele>586.4</ele><time>2026-04-25T12:55:19.311Z</time></trkpt><trkpt lat="44.1178658" lon="11.3420491"><ele>586.0</ele><time>2026-04-25T12:55:20.32Z</time></trkpt><trkpt lat="44.1177692" lon="11.3421504"><ele>586.5</ele><time>2026-04-25T12:55:21.314Z</time></trkpt><trkpt lat="44.1176573" lon="11.3422574"><ele>587.0</ele><time>2026-04-25T12:55:22.325Z</time></trkpt><trkpt lat="44.1175418" lon="11.3423756"><ele>587.5</ele><time>2026-04-25T12:55:23.317Z</time></trkpt><trkpt lat="44.1174284" lon="11.3425391"><ele>588.0</ele><time>2026-04-25T12:55:24.311Z</time></trkpt><trkpt lat="44.1173227" lon="11.3427261"><ele>585.3333333333334</ele><time>2026-04-25T12:55:25.296Z</time></trkpt><trkpt lat="44.1172371" lon="11.3429218"><ele>582.6666666666667</ele><time>2026-04-25T12:55:26.305Z</time></trkpt><trkpt lat="44.1171571" lon="11.3431247"><ele>580.0</ele><time>2026-04-25T12:55:27.334Z</time></trkpt><trkpt lat="44.1170856" lon="11.3433178"><ele>580.0</ele><time>2026-04-25T12:55:28.317Z</time></trkpt><trkpt lat="44.1170271" lon="11.343517"><ele>580.0</ele><time>2026-04-25T12:55:29.334Z</time></trkpt><trkpt lat="44.1169896" lon="11.343711"><ele>580.0</ele><time>2026-04-25T12:55:30.322Z</time></trkpt><trkpt lat="44.1169908" lon="11.3439043"><ele>580.0</ele><time>2026-04-25T12:55:31.307Z</time></trkpt><trkpt lat="44.117061" lon="11.3440926"><ele>578.5</ele><time>2026-04-25T12:55:32.325Z</time></trkpt><trkpt lat="44.1171611" lon="11.3442616"><ele>577.0</ele><time>2026-04-25T12:55:33.321Z</time></trkpt><trkpt lat="44.1172318" lon="11.3444387"><ele>575.5</ele><time>2026-04-25T12:55:34.311Z</time></trkpt><trkpt lat="44.117264" lon="11.344635"><ele>574.0</ele><time>2026-04-25T12:55:35.289Z</time></trkpt><trkpt lat="44.1172571" lon="11.3448592"><ele>570.3333333333334</ele><time>2026-04-25T12:55:36.323Z</time></trkpt><trkpt lat="44.1172249" lon="11.3450953"><ele>566.6666666666666</ele><time>2026-04-25T12:55:37.302Z</time></trkpt><trkpt lat="44.1171726" lon="11.3453174"><ele>563.0</ele><time>2026-04-25T12:55:38.317Z</time></trkpt><trkpt lat="44.1171046" lon="11.3455504"><ele>561.0</ele><time>2026-04-25T12:55:39.318Z</time></trkpt><trkpt lat="44.1170359" lon="11.3457705"><ele>559.0</ele><time>2026-04-25T12:55:40.318Z</time></trkpt><trkpt lat="44.1169639" lon="11.3459809"><ele>557.0</ele><time>2026-04-25T12:55:41.324Z</time></trkpt><trkpt lat="44.1169109" lon="11.3461934"><ele>556.3333333333333</ele><time>2026-04-25T12:55:42.309Z</time></trkpt><trkpt lat="44.1168896" lon="11.3464163"><ele>555.6666666666666</ele><time>2026-04-25T12:55:43.327Z</time></trkpt><trkpt lat="44.1168994" lon="11.3466451"><ele>555.0</ele><time>2026-04-25T12:55:44.34Z</time></trkpt><trkpt lat="44.1169331" lon="11.3468761"><ele>555.0</ele><time>2026-04-25T12:55:45.322Z</time></trkpt><trkpt lat="44.1170108" lon="11.3470961"><ele>555.0</ele><time>2026-04-25T12:55:46.3Z</time></trkpt><trkpt lat="44.1171048" lon="11.3473236"><ele>555.0</ele><time>2026-04-25T12:55:47.32Z</time></trkpt><trkpt lat="44.1172019" lon="11.3475514"><ele>552.0</ele><time>2026-04-25T12:55:48.316Z</time></trkpt><trkpt lat="44.117282" lon="11.3477911"><ele>549.0</ele><time>2026-04-25T12:55:49.315Z</time></trkpt><trkpt lat="44.1173253" lon="11.3480349"><ele>546.0</ele><time>2026-04-25T12:55:50.288Z</time></trkpt><trkpt lat="44.1173365" lon="11.3482793"><ele>543.6666666666666</ele><time>2026-04-25T12:55:51.296Z</time></trkpt><trkpt lat="44.1173543" lon="11.3485308"><ele>541.3333333333333</ele><time>2026-04-25T12:55:52.299Z</time></trkpt><trkpt lat="44.1173592" lon="11.3487836"><ele>539.0</ele><time>2026-04-25T12:55:53.325Z</time></trkpt><trkpt lat="44.1173605" lon="11.3490422"><ele>539.0</ele><time>2026-04-25T12:55:54.324Z</time></trkpt><trkpt lat="44.1173522" lon="11.3493013"><ele>539.0</ele><time>2026-04-25T12:55:55.313Z</time></trkpt><trkpt lat="44.117334" lon="11.3495527"><ele>539.0</ele><time>2026-04-25T12:55:56.306Z</time></trkpt><trkpt lat="44.117319" lon="11.3498034"><ele>539.0</ele><time>2026-04-25T12:55:57.328Z</time></trkpt><trkpt lat="44.1173194" lon="11.3500534"><ele>539.0</ele><time>2026-04-25T12:55:58.328Z</time></trkpt><trkpt lat="44.1173445" lon="11.3503"><ele>539.0</ele><time>2026-04-25T12:55:59.321Z</time></trkpt><trkpt lat="44.1173907" lon="11.3505312"><ele>539.75</ele><time>2026-04-25T12:56:00.33Z</time></trkpt><trkpt lat="44.1174402" lon="11.3507413"><ele>540.5</ele><time>2026-04-25T12:56:01.312Z</time></trkpt><trkpt lat="44.1174894" lon="11.3509363"><ele>541.25</ele><time>2026-04-25T12:56:02.312Z</time></trkpt><trkpt lat="44.1175165" lon="11.3511174"><ele>542.0</ele><time>2026-04-25T12:56:03.318Z</time></trkpt><trkpt lat="44.1175141" lon="11.351299"><ele>540.75</ele><time>2026-04-25T12:56:04.303Z</time></trkpt><trkpt lat="44.1174731" lon="11.351472"><ele>539.5</ele><time>2026-04-25T12:56:05.317Z</time></trkpt><trkpt lat="44.1174433" lon="11.3516287"><ele>538.25</ele><time>2026-04-25T12:56:06.321Z</time></trkpt><trkpt lat="44.1174526" lon="11.3517643"><ele>537.0</ele><time>2026-04-25T12:56:07.311Z</time></trkpt><trkpt lat="44.1175271" lon="11.3519002"><ele>537.0</ele><time>2026-04-25T12:56:08.318Z</time></trkpt><trkpt lat="44.1176208" lon="11.3520133"><ele>537.0</ele><time>2026-04-25T12:56:09.322Z</time></trkpt><trkpt lat="44.1176881" lon="11.3521706"><ele>537.0</ele><time>2026-04-25T12:56:10.323Z</time></trkpt><trkpt lat="44.1177063" lon="11.3523896"><ele>537.0</ele><time>2026-04-25T12:56:11.317Z</time></trkpt><trkpt lat="44.1176654" lon="11.3526318"><ele>534.0</ele><time>2026-04-25T12:56:12.307Z</time></trkpt><trkpt lat="44.117624" lon="11.3528756"><ele>531.0</ele><time>2026-04-25T12:56:13.312Z</time></trkpt><trkpt lat="44.1175921" lon="11.3530954"><ele>528.0</ele><time>2026-04-25T12:56:14.317Z</time></trkpt><trkpt lat="44.1175389" lon="11.3532984"><ele>526.5</ele><time>2026-04-25T12:56:15.323Z</time></trkpt><trkpt lat="44.1174843" lon="11.3534749"><ele>525.0</ele><time>2026-04-25T12:56:16.315Z</time></trkpt><trkpt lat="44.1174098" lon="11.3536302"><ele>523.5</ele><time>2026-04-25T12:56:17.328Z</time></trkpt><trkpt lat="44.1173096" lon="11.3537312"><ele>522.0</ele><time>2026-04-25T12:56:18.313Z</time></trkpt><trkpt lat="44.1171889" lon="11.3537974"><ele>520.0</ele><time>2026-04-25T12:56:19.286Z</time></trkpt><trkpt lat="44.1170554" lon="11.3538411"><ele>518.0</ele><time>2026-04-25T12:56:20.304Z</time></trkpt><trkpt lat="44.1169319" lon="11.353834"><ele>516.0</ele><time>2026-04-25T12:56:21.299Z</time></trkpt><trkpt lat="44.1168246" lon="11.3538115"><ele>514.0</ele><time>2026-04-25T12:56:22.327Z</time></trkpt><trkpt lat="44.1167379" lon="11.3538484"><ele>513.75</ele><time>2026-04-25T12:56:23.33Z</time></trkpt><trkpt lat="44.1166695" lon="11.3539554"><ele>513.5</ele><time>2026-04-25T12:56:24.328Z</time></trkpt><trkpt lat="44.1166145" lon="11.3540957"><ele>513.25</ele><time>2026-04-25T12:56:25.311Z</time></trkpt><trkpt lat="44.1165983" lon="11.354303"><ele>513.0</ele><time>2026-04-25T12:56:26.32Z</time></trkpt><trkpt lat="44.1165725" lon="11.3545164"><ele>508.5</ele><time>2026-04-25T12:56:27.299Z</time></trkpt><trkpt lat="44.1165153" lon="11.3547187"><ele>504.0</ele><time>2026-04-25T12:56:28.324Z</time></trkpt><trkpt lat="44.1164322" lon="11.3548775"><ele>499.5</ele><time>2026-04-25T12:56:29.324Z</time></trkpt><trkpt lat="44.1163502" lon="11.3550289"><ele>495.0</ele><time>2026-04-25T12:56:30.314Z</time></trkpt><trkpt lat="44.1163169" lon="11.3551967"><ele>495.0</ele><time>2026-04-25T12:56:31.3Z</time></trkpt><trkpt lat="44.1163199" lon="11.3553948"><ele>495.0</ele><time>2026-04-25T12:56:32.316Z</time></trkpt><trkpt lat="44.1163686" lon="11.3556123"><ele>495.0</ele><time>2026-04-25T12:56:33.328Z</time></trkpt><trkpt lat="44.1164333" lon="11.3558044"><ele>493.5</ele><time>2026-04-25T12:56:34.299Z</time></trkpt><trkpt lat="44.1165123" lon="11.3559884"><ele>492.0</ele><time>2026-04-25T12:56:35.3Z</time></trkpt><trkpt lat="44.1165841" lon="11.3561468"><ele>490.5</ele><time>2026-04-25T12:56:36.306Z</time></trkpt><trkpt lat="44.1166024" lon="11.3563189"><ele>489.0</ele><time>2026-04-25T12:56:37.298Z</time></trkpt><trkpt lat="44.1165671" lon="11.3565078"><ele>486.33333333333337</ele><time>2026-04-25T12:56:38.31Z</time></trkpt><trkpt lat="44.1165006" lon="11.3566914"><ele>483.6666666666667</ele><time>2026-04-25T12:56:39.323Z</time></trkpt><trkpt lat="44.1164627" lon="11.3569008"><ele>481.0</ele><time>2026-04-25T12:56:40.322Z</time></trkpt><trkpt lat="44.1164733" lon="11.357127"><ele>478.33333333333337</ele><time>2026-04-25T12:56:41.322Z</time></trkpt><trkpt lat="44.1164905" lon="11.3573672"><ele>475.66666666666663</ele><time>2026-04-25T12:56:42.314Z</time></trkpt><trkpt lat="44.1165122" lon="11.3576106"><ele>473.0</ele><time>2026-04-25T12:56:43.345Z</time></trkpt><trkpt lat="44.1165415" lon="11.3578519"><ele>475.3333333333333</ele><time>2026-04-25T12:56:44.318Z</time></trkpt><trkpt lat="44.1165736" lon="11.3580825"><ele>477.66666666666663</ele><time>2026-04-25T12:56:45.323Z</time></trkpt><trkpt lat="44.1166134" lon="11.358312"><ele>480.0</ele><time>2026-04-25T12:56:46.303Z</time></trkpt><trkpt lat="44.1166772" lon="11.3585351"><ele>480.0</ele><time>2026-04-25T12:56:47.324Z</time></trkpt><trkpt lat="44.1167498" lon="11.358752"><ele>480.0</ele><time>2026-04-25T12:56:48.33Z</time></trkpt><trkpt lat="44.1168088" lon="11.3589645"><ele>480.0</ele><time>2026-04-25T12:56:49.292Z</time></trkpt><trkpt lat="44.1168619" lon="11.3591375"><ele>477.0</ele><time>2026-04-25T12:56:50.326Z</time></trkpt><trkpt lat="44.1169278" lon="11.3592782"><ele>474.0</ele><time>2026-04-25T12:56:51.316Z</time></trkpt><trkpt lat="44.11703" lon="11.3593864"><ele>471.0</ele><time>2026-04-25T12:56:52.306Z</time></trkpt><trkpt lat="44.1171824" lon="11.3594827"><ele>468.0</ele><time>2026-04-25T12:56:53.314Z</time></trkpt><trkpt lat="44.1173534" lon="11.3595463"><ele>466.0</ele><time>2026-04-25T12:56:54.317Z</time></trkpt><trkpt lat="44.1175244" lon="11.3596054"><ele>464.0</ele><time>2026-04-25T12:56:55.325Z</time></trkpt><trkpt lat="44.1177086" lon="11.3596819"><ele>462.0</ele><time>2026-04-25T12:56:56.324Z</time></trkpt><trkpt lat="44.1178995" lon="11.3597657"><ele>462.0</ele><time>2026-04-25T12:56:57.331Z</time></trkpt><trkpt lat="44.1180903" lon="11.3598312"><ele>462.0</ele><time>2026-04-25T12:56:58.314Z</time></trkpt><trkpt lat="44.1182751" lon="11.3598743"><ele>462.0</ele><time>2026-04-25T12:56:59.33Z</time></trkpt><trkpt lat="44.1184577" lon="11.3599099"><ele>462.0</ele><time>2026-04-25T12:57:00.303Z</time></trkpt><trkpt lat="44.1186181" lon="11.3599179"><ele>462.0</ele><time>2026-04-25T12:57:01.319Z</time></trkpt><trkpt lat="44.1187669" lon="11.3599002"><ele>462.0</ele><time>2026-04-25T12:57:02.305Z</time></trkpt><trkpt lat="44.1188928" lon="11.3598649"><ele>462.0</ele><time>2026-04-25T12:57:03.334Z</time></trkpt><trkpt lat="44.1189935" lon="11.3598471"><ele>462.0</ele><time>2026-04-25T12:57:04.313Z</time></trkpt><trkpt lat="44.1190584" lon="11.3598647"><ele>462.00000000000006</ele><time>2026-04-25T12:57:05.326Z</time></trkpt><trkpt lat="44.1190694" lon="11.3600395"><ele>462.00000000000006</ele><time>2026-04-25T12:57:07.329Z</time></trkpt><trkpt lat="44.1190174" lon="11.3601406"><ele>462.0</ele><time>2026-04-25T12:57:08.324Z</time></trkpt><trkpt lat="44.118922" lon="11.3602604"><ele>462.0</ele><time>2026-04-25T12:57:09.33Z</time></trkpt><trkpt lat="44.1188021" lon="11.3604017"><ele>455.66666666666663</ele><time>2026-04-25T12:57:10.309Z</time></trkpt><trkpt lat="44.1186746" lon="11.3605611"><ele>449.3333333333333</ele><time>2026-04-25T12:57:11.329Z</time></trkpt><trkpt lat="44.1185471" lon="11.3607286"><ele>443.0</ele><time>2026-04-25T12:57:12.283Z</time></trkpt><trkpt lat="44.1184231" lon="11.3608866"><ele>443.0</ele><time>2026-04-25T12:57:13.322Z</time></trkpt><trkpt lat="44.1183165" lon="11.3610309"><ele>443.0</ele><time>2026-04-25T12:57:14.331Z</time></trkpt><trkpt lat="44.1182149" lon="11.361158"><ele>443.0</ele><time>2026-04-25T12:57:15.312Z</time></trkpt><trkpt lat="44.1181333" lon="11.3612721"><ele>443.0</ele><time>2026-04-25T12:57:16.307Z</time></trkpt><trkpt lat="44.1180791" lon="11.3613932"><ele>442.2</ele><time>2026-04-25T12:57:17.349Z</time></trkpt><trkpt lat="44.1180608" lon="11.3614985"><ele>441.4</ele><time>2026-04-25T12:57:18.321Z</time></trkpt><trkpt lat="44.1180719" lon="11.3616328"><ele>440.59999999999997</ele><time>2026-04-25T12:57:19.32Z</time></trkpt><trkpt lat="44.118116" lon="11.361737"><ele>439.79999999999995</ele><time>2026-04-25T12:57:20.315Z</time></trkpt><trkpt lat="44.118178" lon="11.3618391"><ele>439.0</ele><time>2026-04-25T12:57:21.316Z</time></trkpt><trkpt lat="44.1182298" lon="11.3619469"><ele>438.6666666666667</ele><time>2026-04-25T12:57:22.304Z</time></trkpt><trkpt lat="44.1182732" lon="11.362052"><ele>438.33333333333337</ele><time>2026-04-25T12:57:23.329Z</time></trkpt><trkpt lat="44.1183102" lon="11.362153"><ele>438.0</ele><time>2026-04-25T12:57:24.316Z</time></trkpt><trkpt lat="44.1183597" lon="11.3622867"><ele>437.66666666666663</ele><time>2026-04-25T12:57:26.31Z</time></trkpt><trkpt lat="44.1183941" lon="11.3623885"><ele>437.3333333333333</ele><time>2026-04-25T12:57:28.312Z</time></trkpt><trkpt lat="44.1184093" lon="11.3624836"><ele>437.0</ele><time>2026-04-25T12:57:31.318Z</time></trkpt><trkpt lat="44.1183532" lon="11.3625559"><ele>436.20000000000005</ele><time>2026-04-25T12:58:35.312Z</time></trkpt><trkpt lat="44.1182866" lon="11.3625537"><ele>435.40000000000003</ele><time>2026-04-25T12:58:36.324Z</time></trkpt><trkpt lat="44.1181885" lon="11.3625709"><ele>434.59999999999997</ele><time>2026-04-25T12:58:37.318Z</time></trkpt><trkpt lat="44.1180513" lon="11.3625981"><ele>433.79999999999995</ele><time>2026-04-25T12:58:38.322Z</time></trkpt><trkpt lat="44.1179154" lon="11.362617"><ele>433.0</ele><time>2026-04-25T12:58:39.328Z</time></trkpt><trkpt lat="44.1177924" lon="11.3626514"><ele>433.0</ele><time>2026-04-25T12:58:40.306Z</time></trkpt><trkpt lat="44.1176663" lon="11.3626722"><ele>433.0</ele><time>2026-04-25T12:58:41.341Z</time></trkpt><trkpt lat="44.1175458" lon="11.3626881"><ele>433.0</ele><time>2026-04-25T12:58:42.31Z</time></trkpt><trkpt lat="44.1174339" lon="11.3626984"><ele>433.0</ele><time>2026-04-25T12:58:43.325Z</time></trkpt><trkpt lat="44.1173313" lon="11.3627108"><ele>433.00000000000006</ele><time>2026-04-25T12:58:44.296Z</time></trkpt><trkpt lat="44.1172389" lon="11.3627222"><ele>433.0</ele><time>2026-04-25T12:58:45.331Z</time></trkpt><trkpt lat="44.1171559" lon="11.3627436"><ele>433.0</ele><time>2026-04-25T12:58:46.331Z</time></trkpt><trkpt lat="44.1170876" lon="11.3627811"><ele>433.0</ele><time>2026-04-25T12:58:47.326Z</time></trkpt><trkpt lat="44.1170419" lon="11.3628468"><ele>433.00000000000006</ele><time>2026-04-25T12:58:48.315Z</time></trkpt><trkpt lat="44.1170215" lon="11.3629431"><ele>433.0</ele><time>2026-04-25T12:58:49.325Z</time></trkpt><trkpt lat="44.1170266" lon="11.3630644"><ele>432.25</ele><time>2026-04-25T12:58:50.327Z</time></trkpt><trkpt lat="44.1170354" lon="11.3632435"><ele>431.5</ele><time>2026-04-25T12:58:51.312Z</time></trkpt><trkpt lat="44.1170411" lon="11.363443"><ele>430.75</ele><time>2026-04-25T12:58:52.322Z</time></trkpt><trkpt lat="44.1170461" lon="11.3636609"><ele>430.0</ele><time>2026-04-25T12:58:53.322Z</time></trkpt><trkpt lat="44.1170455" lon="11.3639027"><ele>430.0</ele><time>2026-04-25T12:58:54.321Z</time></trkpt><trkpt lat="44.1170418" lon="11.3641588"><ele>430.0</ele><time>2026-04-25T12:58:55.324Z</time></trkpt><trkpt lat="44.1170383" lon="11.3644188"><ele>430.0</ele><time>2026-04-25T12:58:56.289Z</time></trkpt><trkpt lat="44.1170348" lon="11.364688"><ele>429.6666666666667</ele><time>2026-04-25T12:58:57.318Z</time></trkpt><trkpt lat="44.1170157" lon="11.3649696"><ele>429.33333333333337</ele><time>2026-04-25T12:58:58.318Z</time></trkpt><trkpt lat="44.1169709" lon="11.3652751"><ele>429.0</ele><time>2026-04-25T12:58:59.325Z</time></trkpt><trkpt lat="44.1169025" lon="11.3656165"><ele>428.5</ele><time>2026-04-25T12:59:00.325Z</time></trkpt><trkpt lat="44.1168269" lon="11.3659593"><ele>428.0</ele><time>2026-04-25T12:59:01.313Z</time></trkpt><trkpt lat="44.1167508" lon="11.3662781"><ele>427.5</ele><time>2026-04-25T12:59:02.318Z</time></trkpt><trkpt lat="44.116674" lon="11.3665846"><ele>427.0</ele><time>2026-04-25T12:59:03.325Z</time></trkpt><trkpt lat="44.1165984" lon="11.3668918"><ele>427.0</ele><time>2026-04-25T12:59:04.31Z</time></trkpt><trkpt lat="44.1165368" lon="11.3672063"><ele>427.0</ele><time>2026-04-25T12:59:05.313Z</time></trkpt><trkpt lat="44.1164889" lon="11.3675285"><ele>427.0</ele><time>2026-04-25T12:59:06.321Z</time></trkpt><trkpt lat="44.1164699" lon="11.3678737"><ele>427.0</ele><time>2026-04-25T12:59:07.316Z</time></trkpt><trkpt lat="44.1164748" lon="11.3682238"><ele>427.0</ele><time>2026-04-25T12:59:08.331Z</time></trkpt><trkpt lat="44.1164913" lon="11.3685752"><ele>427.0</ele><time>2026-04-25T12:59:09.334Z</time></trkpt><trkpt lat="44.1165238" lon="11.3689293"><ele>427.0</ele><time>2026-04-25T12:59:10.31Z</time></trkpt><trkpt lat="44.116569" lon="11.369286"><ele>427.0</ele><time>2026-04-25T12:59:11.312Z</time></trkpt><trkpt lat="44.1166193" lon="11.3696343"><ele>425.5</ele><time>2026-04-25T12:59:12.295Z</time></trkpt><trkpt lat="44.1166566" lon="11.369973"><ele>424.0</ele><time>2026-04-25T12:59:13.302Z</time></trkpt><trkpt lat="44.1166915" lon="11.370292"><ele>423.33333333333337</ele><time>2026-04-25T12:59:14.317Z</time></trkpt><trkpt lat="44.1167271" lon="11.3705935"><ele>422.66666666666663</ele><time>2026-04-25T12:59:15.308Z</time></trkpt><trkpt lat="44.1167618" lon="11.3708786"><ele>422.0</ele><time>2026-04-25T12:59:16.328Z</time></trkpt><trkpt lat="44.1167932" lon="11.3711579"><ele>421.66666666666663</ele><time>2026-04-25T12:59:17.312Z</time></trkpt><trkpt lat="44.1168105" lon="11.3714192"><ele>421.33333333333337</ele><time>2026-04-25T12:59:18.312Z</time></trkpt><trkpt lat="44.1168054" lon="11.3716787"><ele>421.0</ele><time>2026-04-25T12:59:19.335Z</time></trkpt><trkpt lat="44.1167977" lon="11.3719317"><ele>421.0</ele><time>2026-04-25T12:59:20.322Z</time></trkpt><trkpt lat="44.1167787" lon="11.3721701"><ele>421.0</ele><time>2026-04-25T12:59:21.318Z</time></trkpt><trkpt lat="44.1167465" lon="11.3723813"><ele>421.0</ele><time>2026-04-25T12:59:22.311Z</time></trkpt><trkpt lat="44.1167118" lon="11.3725724"><ele>421.00000000000006</ele><time>2026-04-25T12:59:23.318Z</time></trkpt><trkpt lat="44.1166912" lon="11.3727253"><ele>421.0</ele><time>2026-04-25T12:59:24.325Z</time></trkpt><trkpt lat="44.1166719" lon="11.3728553"><ele>421.0</ele><time>2026-04-25T12:59:25.323Z</time></trkpt><trkpt lat="44.1166567" lon="11.3729545"><ele>421.0</ele><time>2026-04-25T12:59:26.327Z</time></trkpt><trkpt lat="44.116644" lon="11.3730435"><ele>421.00000000000006</ele><time>2026-04-25T12:59:27.304Z</time></trkpt><trkpt lat="44.1166267" lon="11.3731389"><ele>421.0</ele><time>2026-04-25T12:59:56.324Z</time></trkpt><trkpt lat="44.1166223" lon="11.3732354"><ele>421.0</ele><time>2026-04-25T12:59:58.338Z</time></trkpt><trkpt lat="44.1166246" lon="11.373352"><ele>421.0</ele><time>2026-04-25T12:59:59.319Z</time></trkpt><trkpt lat="44.1166144" lon="11.3734837"><ele>421.0</ele><time>2026-04-25T13:00:00.326Z</time></trkpt><trkpt lat="44.1166123" lon="11.37364"><ele>421.0</ele><time>2026-04-25T13:00:01.292Z</time></trkpt><trkpt lat="44.1166137" lon="11.3738256"><ele>421.0</ele><time>2026-04-25T13:00:02.288Z</time></trkpt><trkpt lat="44.1166264" lon="11.3740242"><ele>421.0</ele><time>2026-04-25T13:00:03.319Z</time></trkpt><trkpt lat="44.1166583" lon="11.374227"><ele>421.0</ele><time>2026-04-25T13:00:04.314Z</time></trkpt><trkpt lat="44.1167028" lon="11.3744302"><ele>421.0</ele><time>2026-04-25T13:00:05.337Z</time></trkpt><trkpt lat="44.1167559" lon="11.3746318"><ele>420.75</ele><time>2026-04-25T13:00:06.329Z</time></trkpt><trkpt lat="44.1168216" lon="11.3748326"><ele>420.5</ele><time>2026-04-25T13:00:07.322Z</time></trkpt><trkpt lat="44.1168985" lon="11.3750106"><ele>420.25</ele><time>2026-04-25T13:00:08.317Z</time></trkpt><trkpt lat="44.1169767" lon="11.3751744"><ele>420.0</ele><time>2026-04-25T13:00:09.322Z</time></trkpt><trkpt lat="44.1170554" lon="11.3753129"><ele>420.0</ele><time>2026-04-25T13:00:10.313Z</time></trkpt><trkpt lat="44.1171286" lon="11.3754451"><ele>420.0</ele><time>2026-04-25T13:00:11.326Z</time></trkpt><trkpt lat="44.1171914" lon="11.3755737"><ele>420.0</ele><time>2026-04-25T13:00:12.299Z</time></trkpt><trkpt lat="44.1172375" lon="11.3757191"><ele>420.0</ele><time>2026-04-25T13:00:13.324Z</time></trkpt><trkpt lat="44.1172556" lon="11.3758915"><ele>420.25</ele><time>2026-04-25T13:00:14.331Z</time></trkpt><trkpt lat="44.1172462" lon="11.3760784"><ele>420.5</ele><time>2026-04-25T13:00:15.339Z</time></trkpt><trkpt lat="44.1172092" lon="11.3762717"><ele>420.75</ele><time>2026-04-25T13:00:16.326Z</time></trkpt><trkpt lat="44.1171579" lon="11.3764704"><ele>421.0</ele><time>2026-04-25T13:00:17.332Z</time></trkpt><trkpt lat="44.1171141" lon="11.3766726"><ele>421.0</ele><time>2026-04-25T13:00:18.327Z</time></trkpt><trkpt lat="44.117091" lon="11.3768744"><ele>421.0</ele><time>2026-04-25T13:00:19.306Z</time></trkpt><trkpt lat="44.117095" lon="11.3770665"><ele>421.0</ele><time>2026-04-25T13:00:20.313Z</time></trkpt><trkpt lat="44.1171105" lon="11.3772605"><ele>421.0</ele><time>2026-04-25T13:00:21.324Z</time></trkpt><trkpt lat="44.1171268" lon="11.3774449"><ele>421.0</ele><time>2026-04-25T13:00:22.345Z</time></trkpt><trkpt lat="44.1171486" lon="11.3776155"><ele>421.0</ele><time>2026-04-25T13:00:23.331Z</time></trkpt><trkpt lat="44.1171694" lon="11.3777738"><ele>421.0</ele><time>2026-04-25T13:00:24.331Z</time></trkpt><trkpt lat="44.1171882" lon="11.3779176"><ele>421.0</ele><time>2026-04-25T13:00:25.298Z</time></trkpt><trkpt lat="44.1171999" lon="11.3780597"><ele>421.0</ele><time>2026-04-25T13:00:26.332Z</time></trkpt><trkpt lat="44.1172077" lon="11.3781972"><ele>421.0</ele><time>2026-04-25T13:00:27.313Z</time></trkpt><trkpt lat="44.1172229" lon="11.3783378"><ele>421.0</ele><time>2026-04-25T13:00:28.326Z</time></trkpt><trkpt lat="44.1172395" lon="11.3784918"><ele>421.0</ele><time>2026-04-25T13:00:29.308Z</time></trkpt><trkpt lat="44.1172582" lon="11.3786442"><ele>421.0</ele><time>2026-04-25T13:00:30.314Z</time></trkpt><trkpt lat="44.1172853" lon="11.3788064"><ele>421.0</ele><time>2026-04-25T13:00:31.329Z</time></trkpt><trkpt lat="44.1173151" lon="11.3789576"><ele>420.4</ele><time>2026-04-25T13:00:32.312Z</time></trkpt><trkpt lat="44.1173365" lon="11.3791021"><ele>419.8</ele><time>2026-04-25T13:00:33.303Z</time></trkpt><trkpt lat="44.1173585" lon="11.3792393"><ele>419.2</ele><time>2026-04-25T13:00:34.319Z</time></trkpt><trkpt lat="44.1173786" lon="11.3793584"><ele>418.59999999999997</ele><time>2026-04-25T13:00:35.319Z</time></trkpt><trkpt lat="44.1173838" lon="11.3794635"><ele>418.0</ele><time>2026-04-25T13:00:36.33Z</time></trkpt><trkpt lat="44.1173226" lon="11.3796017"><ele>418.0</ele><time>2026-04-25T13:00:38.323Z</time></trkpt><trkpt lat="44.1172673" lon="11.3796675"><ele>418.0</ele><time>2026-04-25T13:00:39.317Z</time></trkpt><trkpt lat="44.1171882" lon="11.3797109"><ele>418.0</ele><time>2026-04-25T13:00:40.329Z</time></trkpt><trkpt lat="44.1170655" lon="11.3797581"><ele>418.0</ele><time>2026-04-25T13:00:41.314Z</time></trkpt><trkpt lat="44.116928" lon="11.3797975"><ele>418.0</ele><time>2026-04-25T13:00:42.316Z</time></trkpt><trkpt lat="44.116779" lon="11.379841"><ele>418.0</ele><time>2026-04-25T13:00:43.314Z</time></trkpt><trkpt lat="44.1166174" lon="11.379906"><ele>418.0</ele><time>2026-04-25T13:00:44.317Z</time></trkpt><trkpt lat="44.1164445" lon="11.3799555"><ele>418.0</ele><time>2026-04-25T13:00:45.322Z</time></trkpt><trkpt lat="44.1162843" lon="11.3800032"><ele>418.33333333333337</ele><time>2026-04-25T13:00:46.322Z</time></trkpt><trkpt lat="44.1161214" lon="11.3800632"><ele>418.66666666666663</ele><time>2026-04-25T13:00:47.318Z</time></trkpt><trkpt lat="44.1159695" lon="11.3801276"><ele>419.0</ele><time>2026-04-25T13:00:48.314Z</time></trkpt><trkpt lat="44.1158284" lon="11.3801719"><ele>420.5</ele><time>2026-04-25T13:00:49.314Z</time></trkpt><trkpt lat="44.1157106" lon="11.3801838"><ele>422.0</ele><time>2026-04-25T13:00:50.32Z</time></trkpt><trkpt lat="44.1155955" lon="11.3801632"><ele>423.5</ele><time>2026-04-25T13:00:51.314Z</time></trkpt><trkpt lat="44.1154775" lon="11.380149"><ele>425.0</ele><time>2026-04-25T13:00:52.319Z</time></trkpt><trkpt lat="44.1153564" lon="11.3801309"><ele>425.0</ele><time>2026-04-25T13:00:53.324Z</time></trkpt><trkpt lat="44.1152152" lon="11.380145"><ele>425.0</ele><time>2026-04-25T13:00:54.313Z</time></trkpt><trkpt lat="44.1150846" lon="11.3801922"><ele>425.0</ele><time>2026-04-25T13:00:55.322Z</time></trkpt><trkpt lat="44.1149618" lon="11.3803086"><ele>425.0</ele><time>2026-04-25T13:00:56.321Z</time></trkpt><trkpt lat="44.1148352" lon="11.3804355"><ele>425.66666666666663</ele><time>2026-04-25T13:00:57.309Z</time></trkpt><trkpt lat="44.1146982" lon="11.3805538"><ele>426.33333333333337</ele><time>2026-04-25T13:00:58.331Z</time></trkpt><trkpt lat="44.1145682" lon="11.3806758"><ele>427.0</ele><time>2026-04-25T13:00:59.327Z</time></trkpt><trkpt lat="44.1144361" lon="11.3807711"><ele>427.0</ele><time>2026-04-25T13:01:00.33Z</time></trkpt><trkpt lat="44.114312" lon="11.3808387"><ele>427.0</ele><time>2026-04-25T13:01:01.339Z</time></trkpt><trkpt lat="44.1141809" lon="11.3808666"><ele>427.0</ele><time>2026-04-25T13:01:02.335Z</time></trkpt><trkpt lat="44.1140393" lon="11.380855"><ele>427.0</ele><time>2026-04-25T13:01:03.32Z</time></trkpt><trkpt lat="44.1138921" lon="11.3808039"><ele>425.6666666666667</ele><time>2026-04-25T13:01:04.317Z</time></trkpt><trkpt lat="44.1137373" lon="11.3807341"><ele>424.33333333333337</ele><time>2026-04-25T13:01:05.336Z</time></trkpt><trkpt lat="44.1135707" lon="11.3806464"><ele>423.0</ele><time>2026-04-25T13:01:06.32Z</time></trkpt><trkpt lat="44.1134053" lon="11.3805432"><ele>424.66666666666663</ele><time>2026-04-25T13:01:07.328Z</time></trkpt><trkpt lat="44.1132354" lon="11.3804404"><ele>426.3333333333333</ele><time>2026-04-25T13:01:08.329Z</time></trkpt><trkpt lat="44.1130604" lon="11.3803419"><ele>428.0</ele><time>2026-04-25T13:01:09.314Z</time></trkpt><trkpt lat="44.1128833" lon="11.3802356"><ele>428.0</ele><time>2026-04-25T13:01:10.332Z</time></trkpt><trkpt lat="44.1127092" lon="11.3801307"><ele>428.0</ele><time>2026-04-25T13:01:11.311Z</time></trkpt><trkpt lat="44.1125328" lon="11.3800336"><ele>428.0</ele><time>2026-04-25T13:01:12.29Z</time></trkpt><trkpt lat="44.1123539" lon="11.3799356"><ele>427.3333333333333</ele><time>2026-04-25T13:01:13.323Z</time></trkpt><trkpt lat="44.1121744" lon="11.3798353"><ele>426.66666666666663</ele><time>2026-04-25T13:01:14.317Z</time></trkpt><trkpt lat="44.1119988" lon="11.3797369"><ele>426.0</ele><time>2026-04-25T13:01:15.318Z</time></trkpt><trkpt lat="44.1118232" lon="11.3796524"><ele>428.66666666666663</ele><time>2026-04-25T13:01:16.316Z</time></trkpt><trkpt lat="44.1116526" lon="11.3796001"><ele>431.3333333333333</ele><time>2026-04-25T13:01:17.322Z</time></trkpt><trkpt lat="44.1114724" lon="11.3795917"><ele>434.0</ele><time>2026-04-25T13:01:18.315Z</time></trkpt><trkpt lat="44.1112832" lon="11.3796344"><ele>433.3333333333333</ele><time>2026-04-25T13:01:19.326Z</time></trkpt><trkpt lat="44.1110881" lon="11.3796953"><ele>432.66666666666663</ele><time>2026-04-25T13:01:20.322Z</time></trkpt><trkpt lat="44.1108962" lon="11.3797616"><ele>432.0</ele><time>2026-04-25T13:01:21.338Z</time></trkpt><trkpt lat="44.1107037" lon="11.3798264"><ele>432.0</ele><time>2026-04-25T13:01:22.327Z</time></trkpt><trkpt lat="44.1105158" lon="11.3798888"><ele>432.0</ele><time>2026-04-25T13:01:23.317Z</time></trkpt><trkpt lat="44.1103298" lon="11.3799548"><ele>432.0</ele><time>2026-04-25T13:01:24.332Z</time></trkpt><trkpt lat="44.1101624" lon="11.3800045"><ele>432.0</ele><time>2026-04-25T13:01:25.327Z</time></trkpt><trkpt lat="44.1100019" lon="11.3800441"><ele>432.0</ele><time>2026-04-25T13:01:26.346Z</time></trkpt><trkpt lat="44.1098405" lon="11.3800542"><ele>432.0</ele><time>2026-04-25T13:01:27.343Z</time></trkpt><trkpt lat="44.1096751" lon="11.3800352"><ele>431.0</ele><time>2026-04-25T13:01:28.314Z</time></trkpt><trkpt lat="44.1094932" lon="11.3799748"><ele>430.0</ele><time>2026-04-25T13:01:29.325Z</time></trkpt><trkpt lat="44.1093061" lon="11.3798944"><ele>429.0</ele><time>2026-04-25T13:01:30.321Z</time></trkpt><trkpt lat="44.1091158" lon="11.3798091"><ele>428.33333333333337</ele><time>2026-04-25T13:01:31.332Z</time></trkpt><trkpt lat="44.1089199" lon="11.3797152"><ele>427.6666666666667</ele><time>2026-04-25T13:01:32.324Z</time></trkpt><trkpt lat="44.1087186" lon="11.3796193"><ele>427.0</ele><time>2026-04-25T13:01:33.335Z</time></trkpt><trkpt lat="44.1085209" lon="11.3795152"><ele>428.0</ele><time>2026-04-25T13:01:34.325Z</time></trkpt><trkpt lat="44.1083162" lon="11.3794272"><ele>429.0</ele><time>2026-04-25T13:01:35.326Z</time></trkpt><trkpt lat="44.1081143" lon="11.3793342"><ele>430.0</ele><time>2026-04-25T13:01:36.314Z</time></trkpt><trkpt lat="44.1079091" lon="11.3792321"><ele>430.0</ele><time>2026-04-25T13:01:37.326Z</time></trkpt><trkpt lat="44.1077024" lon="11.3791296"><ele>430.0</ele><time>2026-04-25T13:01:38.327Z</time></trkpt><trkpt lat="44.1075021" lon="11.3790275"><ele>430.0</ele><time>2026-04-25T13:01:39.315Z</time></trkpt><trkpt lat="44.1073063" lon="11.3789264"><ele>432.0</ele><time>2026-04-25T13:01:40.315Z</time></trkpt><trkpt lat="44.1071041" lon="11.3788321"><ele>434.0</ele><time>2026-04-25T13:01:41.333Z</time></trkpt><trkpt lat="44.1069013" lon="11.3787438"><ele>436.0</ele><time>2026-04-25T13:01:42.324Z</time></trkpt><trkpt lat="44.1066923" lon="11.3786763"><ele>435.6666666666667</ele><time>2026-04-25T13:01:43.323Z</time></trkpt><trkpt lat="44.1064779" lon="11.378608"><ele>435.33333333333337</ele><time>2026-04-25T13:01:44.317Z</time></trkpt><trkpt lat="44.1062667" lon="11.3785519"><ele>435.0</ele><time>2026-04-25T13:01:45.325Z</time></trkpt><trkpt lat="44.1060548" lon="11.3785036"><ele>435.0</ele><time>2026-04-25T13:01:46.33Z</time></trkpt><trkpt lat="44.1058422" lon="11.3784673"><ele>435.0</ele><time>2026-04-25T13:01:47.304Z</time></trkpt><trkpt lat="44.1056226" lon="11.378431"><ele>435.0</ele><time>2026-04-25T13:01:48.318Z</time></trkpt><trkpt lat="44.1054066" lon="11.3784041"><ele>436.0</ele><time>2026-04-25T13:01:49.324Z</time></trkpt><trkpt lat="44.1051895" lon="11.3783723"><ele>437.0</ele><time>2026-04-25T13:01:50.306Z</time></trkpt><trkpt lat="44.1049735" lon="11.3783365"><ele>438.0</ele><time>2026-04-25T13:01:51.32Z</time></trkpt><trkpt lat="44.1047591" lon="11.3783001"><ele>438.33333333333337</ele><time>2026-04-25T13:01:52.323Z</time></trkpt><trkpt lat="44.1045437" lon="11.3782634"><ele>438.6666666666667</ele><time>2026-04-25T13:01:53.311Z</time></trkpt><trkpt lat="44.1043283" lon="11.3782316"><ele>439.0</ele><time>2026-04-25T13:01:54.308Z</time></trkpt><trkpt lat="44.1041109" lon="11.3781986"><ele>439.0</ele><time>2026-04-25T13:01:55.322Z</time></trkpt><trkpt lat="44.1038965" lon="11.3781682"><ele>439.0</ele><time>2026-04-25T13:01:56.335Z</time></trkpt><trkpt lat="44.103681" lon="11.3781368"><ele>439.0</ele><time>2026-04-25T13:01:57.322Z</time></trkpt><trkpt lat="44.1034681" lon="11.3781045"><ele>439.0</ele><time>2026-04-25T13:01:58.33Z</time></trkpt><trkpt lat="44.1032561" lon="11.3780711"><ele>439.0</ele><time>2026-04-25T13:01:59.327Z</time></trkpt><trkpt lat="44.1030463" lon="11.3780484"><ele>439.0</ele><time>2026-04-25T13:02:00.305Z</time></trkpt><trkpt lat="44.1028437" lon="11.3780352"><ele>439.33333333333337</ele><time>2026-04-25T13:02:01.338Z</time></trkpt><trkpt lat="44.1026505" lon="11.3780448"><ele>439.66666666666663</ele><time>2026-04-25T13:02:02.3Z</time></trkpt><trkpt lat="44.1024579" lon="11.3780746"><ele>440.0</ele><time>2026-04-25T13:02:03.326Z</time></trkpt><trkpt lat="44.1022575" lon="11.378129"><ele>440.3333333333333</ele><time>2026-04-25T13:02:04.321Z</time></trkpt><trkpt lat="44.1020652" lon="11.3782194"><ele>440.66666666666663</ele><time>2026-04-25T13:02:05.327Z</time></trkpt><trkpt lat="44.1018746" lon="11.3783223"><ele>441.0</ele><time>2026-04-25T13:02:06.344Z</time></trkpt><trkpt lat="44.1016919" lon="11.3784418"><ele>442.66666666666663</ele><time>2026-04-25T13:02:07.313Z</time></trkpt><trkpt lat="44.1015161" lon="11.3785649"><ele>444.3333333333333</ele><time>2026-04-25T13:02:08.31Z</time></trkpt><trkpt lat="44.1013363" lon="11.3786976"><ele>446.0</ele><time>2026-04-25T13:02:09.327Z</time></trkpt><trkpt lat="44.1011558" lon="11.3788219"><ele>445.0</ele><time>2026-04-25T13:02:10.332Z</time></trkpt><trkpt lat="44.1009698" lon="11.3789496"><ele>444.0</ele><time>2026-04-25T13:02:11.32Z</time></trkpt><trkpt lat="44.1007855" lon="11.3790798"><ele>443.0</ele><time>2026-04-25T13:02:12.283Z</time></trkpt><trkpt lat="44.1005948" lon="11.3792087"><ele>445.3333333333333</ele><time>2026-04-25T13:02:13.311Z</time></trkpt><trkpt lat="44.100402" lon="11.3793432"><ele>447.66666666666663</ele><time>2026-04-25T13:02:14.33Z</time></trkpt><trkpt lat="44.1002079" lon="11.3794774"><ele>450.0</ele><time>2026-04-25T13:02:15.318Z</time></trkpt><trkpt lat="44.1000151" lon="11.3796183"><ele>449.0</ele><time>2026-04-25T13:02:16.299Z</time></trkpt><trkpt lat="44.0998171" lon="11.3797559"><ele>448.0</ele><time>2026-04-25T13:02:17.311Z</time></trkpt><trkpt lat="44.0996169" lon="11.3798963"><ele>447.0</ele><time>2026-04-25T13:02:18.305Z</time></trkpt><trkpt lat="44.0994183" lon="11.3800262"><ele>447.0</ele><time>2026-04-25T13:02:19.325Z</time></trkpt><trkpt lat="44.0992205" lon="11.3801517"><ele>447.0</ele><time>2026-04-25T13:02:20.322Z</time></trkpt><trkpt lat="44.0990237" lon="11.3802708"><ele>447.0</ele><time>2026-04-25T13:02:21.328Z</time></trkpt><trkpt lat="44.0988248" lon="11.3803751"><ele>447.66666666666663</ele><time>2026-04-25T13:02:22.309Z</time></trkpt><trkpt lat="44.0986332" lon="11.3804834"><ele>448.3333333333333</ele><time>2026-04-25T13:02:23.33Z</time></trkpt><trkpt lat="44.0984422" lon="11.3805952"><ele>449.0</ele><time>2026-04-25T13:02:24.314Z</time></trkpt><trkpt lat="44.0982623" lon="11.3806994"><ele>451.66666666666663</ele><time>2026-04-25T13:02:25.317Z</time></trkpt><trkpt lat="44.0980959" lon="11.3807889"><ele>454.33333333333337</ele><time>2026-04-25T13:02:26.318Z</time></trkpt><trkpt lat="44.0979397" lon="11.3808456"><ele>457.0</ele><time>2026-04-25T13:02:27.318Z</time></trkpt><trkpt lat="44.0977741" lon="11.3808618"><ele>457.0</ele><time>2026-04-25T13:02:28.329Z</time></trkpt><trkpt lat="44.0975866" lon="11.3808274"><ele>457.0</ele><time>2026-04-25T13:02:29.312Z</time></trkpt><trkpt lat="44.0973902" lon="11.3807914"><ele>457.0</ele><time>2026-04-25T13:02:30.316Z</time></trkpt><trkpt lat="44.0972096" lon="11.3807711"><ele>460.33333333333337</ele><time>2026-04-25T13:02:31.326Z</time></trkpt><trkpt lat="44.0970363" lon="11.3807822"><ele>463.66666666666663</ele><time>2026-04-25T13:02:32.297Z</time></trkpt><trkpt lat="44.096866" lon="11.3808395"><ele>467.0</ele><time>2026-04-25T13:02:33.323Z</time></trkpt><trkpt lat="44.0967014" lon="11.3809548"><ele>473.3333333333333</ele><time>2026-04-25T13:02:34.294Z</time></trkpt><trkpt lat="44.0965275" lon="11.381081"><ele>479.66666666666663</ele><time>2026-04-25T13:02:35.328Z</time></trkpt><trkpt lat="44.0963546" lon="11.3812018"><ele>486.0</ele><time>2026-04-25T13:02:36.323Z</time></trkpt><trkpt lat="44.0961849" lon="11.3813176"><ele>482.33333333333337</ele><time>2026-04-25T13:02:37.299Z</time></trkpt><trkpt lat="44.0960174" lon="11.3814245"><ele>478.6666666666667</ele><time>2026-04-25T13:02:38.315Z</time></trkpt><trkpt lat="44.0958753" lon="11.3815411"><ele>475.0</ele><time>2026-04-25T13:02:39.312Z</time></trkpt><trkpt lat="44.0957549" lon="11.3817109"><ele>476.33333333333337</ele><time>2026-04-25T13:02:40.315Z</time></trkpt><trkpt lat="44.0956768" lon="11.3819243"><ele>477.66666666666663</ele><time>2026-04-25T13:02:41.317Z</time></trkpt><trkpt lat="44.0956206" lon="11.3821231"><ele>479.0</ele><time>2026-04-25T13:02:42.336Z</time></trkpt><trkpt lat="44.0955672" lon="11.3822964"><ele>479.0</ele><time>2026-04-25T13:02:43.337Z</time></trkpt><trkpt lat="44.095477" lon="11.3824204"><ele>479.0</ele><time>2026-04-25T13:02:44.32Z</time></trkpt><trkpt lat="44.0953704" lon="11.3824904"><ele>479.0</ele><time>2026-04-25T13:02:45.322Z</time></trkpt><trkpt lat="44.0952378" lon="11.3825093"><ele>479.0</ele><time>2026-04-25T13:02:46.294Z</time></trkpt><trkpt lat="44.0951071" lon="11.3824856"><ele>479.0</ele><time>2026-04-25T13:02:47.322Z</time></trkpt><trkpt lat="44.0949559" lon="11.3824285"><ele>479.0</ele><time>2026-04-25T13:02:48.297Z</time></trkpt><trkpt lat="44.0948037" lon="11.3823361"><ele>479.0</ele><time>2026-04-25T13:02:49.313Z</time></trkpt><trkpt lat="44.0946419" lon="11.3822315"><ele>483.75</ele><time>2026-04-25T13:02:50.32Z</time></trkpt><trkpt lat="44.0945022" lon="11.3821131"><ele>488.5</ele><time>2026-04-25T13:02:51.334Z</time></trkpt><trkpt lat="44.0943836" lon="11.3820083"><ele>493.25</ele><time>2026-04-25T13:02:52.328Z</time></trkpt><trkpt lat="44.094274" lon="11.3819573"><ele>498.0</ele><time>2026-04-25T13:02:53.312Z</time></trkpt><trkpt lat="44.0941622" lon="11.3819679"><ele>499.5</ele><time>2026-04-25T13:02:54.324Z</time></trkpt><trkpt lat="44.0940585" lon="11.3820397"><ele>501.0</ele><time>2026-04-25T13:02:55.324Z</time></trkpt><trkpt lat="44.0939604" lon="11.3821747"><ele>502.5</ele><time>2026-04-25T13:02:56.313Z</time></trkpt><trkpt lat="44.0938744" lon="11.382366"><ele>504.0</ele><time>2026-04-25T13:02:57.325Z</time></trkpt><trkpt lat="44.0937915" lon="11.3825735"><ele>504.0</ele><time>2026-04-25T13:02:58.321Z</time></trkpt><trkpt lat="44.093722" lon="11.3827728"><ele>504.0</ele><time>2026-04-25T13:02:59.316Z</time></trkpt><trkpt lat="44.0936269" lon="11.3829433"><ele>504.0</ele><time>2026-04-25T13:03:00.333Z</time></trkpt><trkpt lat="44.0934958" lon="11.3830776"><ele>502.0</ele><time>2026-04-25T13:03:01.292Z</time></trkpt><trkpt lat="44.0933523" lon="11.3831985"><ele>500.0</ele><time>2026-04-25T13:03:02.323Z</time></trkpt><trkpt lat="44.0932086" lon="11.3832918"><ele>498.0</ele><time>2026-04-25T13:03:03.327Z</time></trkpt><trkpt lat="44.0930767" lon="11.3833676"><ele>498.0</ele><time>2026-04-25T13:03:04.324Z</time></trkpt><trkpt lat="44.0929672" lon="11.3833867"><ele>498.0</ele><time>2026-04-25T13:03:05.323Z</time></trkpt><trkpt lat="44.092861" lon="11.3833311"><ele>498.0</ele><time>2026-04-25T13:03:06.311Z</time></trkpt><trkpt lat="44.0927866" lon="11.3832024"><ele>498.0</ele><time>2026-04-25T13:03:07.293Z</time></trkpt><trkpt lat="44.0927174" lon="11.3830428"><ele>499.25</ele><time>2026-04-25T13:03:08.317Z</time></trkpt><trkpt lat="44.092627" lon="11.3829194"><ele>500.5</ele><time>2026-04-25T13:03:09.301Z</time></trkpt><trkpt lat="44.0925112" lon="11.382839"><ele>501.75</ele><time>2026-04-25T13:03:10.335Z</time></trkpt><trkpt lat="44.092387" lon="11.3828134"><ele>503.0</ele><time>2026-04-25T13:03:11.321Z</time></trkpt><trkpt lat="44.0922678" lon="11.3828268"><ele>503.0</ele><time>2026-04-25T13:03:12.29Z</time></trkpt><trkpt lat="44.0921797" lon="11.382799"><ele>503.0</ele><time>2026-04-25T13:03:13.31Z</time></trkpt><trkpt lat="44.0921017" lon="11.3826912"><ele>503.0</ele><time>2026-04-25T13:03:14.316Z</time></trkpt><trkpt lat="44.0920616" lon="11.3825302"><ele>503.0</ele><time>2026-04-25T13:03:15.323Z</time></trkpt><trkpt lat="44.0920707" lon="11.3823389"><ele>505.0</ele><time>2026-04-25T13:03:16.323Z</time></trkpt><trkpt lat="44.0920797" lon="11.382151"><ele>507.0</ele><time>2026-04-25T13:03:17.323Z</time></trkpt><trkpt lat="44.0920559" lon="11.3819731"><ele>509.0</ele><time>2026-04-25T13:03:18.324Z</time></trkpt><trkpt lat="44.0919613" lon="11.3818428"><ele>511.0</ele><time>2026-04-25T13:03:19.317Z</time></trkpt><trkpt lat="44.09182" lon="11.3817268"><ele>511.0</ele><time>2026-04-25T13:03:20.325Z</time></trkpt><trkpt lat="44.0916501" lon="11.3816613"><ele>511.0</ele><time>2026-04-25T13:03:21.303Z</time></trkpt><trkpt lat="44.091485" lon="11.3816133"><ele>511.0</ele><time>2026-04-25T13:03:22.31Z</time></trkpt><trkpt lat="44.0913377" lon="11.3815942"><ele>509.75</ele><time>2026-04-25T13:03:23.3Z</time></trkpt><trkpt lat="44.0912" lon="11.3815421"><ele>508.5</ele><time>2026-04-25T13:03:24.313Z</time></trkpt><trkpt lat="44.091074" lon="11.3814349"><ele>507.25</ele><time>2026-04-25T13:03:25.303Z</time></trkpt><trkpt lat="44.0909616" lon="11.3812872"><ele>506.0</ele><time>2026-04-25T13:03:26.311Z</time></trkpt><trkpt lat="44.0908429" lon="11.381104"><ele>507.3333333333333</ele><time>2026-04-25T13:03:27.323Z</time></trkpt><trkpt lat="44.0907199" lon="11.3809063"><ele>508.66666666666663</ele><time>2026-04-25T13:03:28.287Z</time></trkpt><trkpt lat="44.0905935" lon="11.380707"><ele>510.0</ele><time>2026-04-25T13:03:29.281Z</time></trkpt><trkpt lat="44.0904792" lon="11.3804953"><ele>513.3333333333334</ele><time>2026-04-25T13:03:30.287Z</time></trkpt><trkpt lat="44.0903845" lon="11.3802856"><ele>516.6666666666667</ele><time>2026-04-25T13:03:31.275Z</time></trkpt><trkpt lat="44.0903123" lon="11.3800619"><ele>520.0</ele><time>2026-04-25T13:03:32.298Z</time></trkpt><trkpt lat="44.0902423" lon="11.3798623"><ele>520.0</ele><time>2026-04-25T13:03:33.303Z</time></trkpt><trkpt lat="44.090154" lon="11.3796974"><ele>520.0</ele><time>2026-04-25T13:03:34.287Z</time></trkpt><trkpt lat="44.0900251" lon="11.3796083"><ele>520.0</ele><time>2026-04-25T13:03:35.283Z</time></trkpt><trkpt lat="44.0898907" lon="11.3795468"><ele>520.0</ele><time>2026-04-25T13:03:36.297Z</time></trkpt><trkpt lat="44.0897446" lon="11.3794872"><ele>523.0</ele><time>2026-04-25T13:03:37.332Z</time></trkpt><trkpt lat="44.0896003" lon="11.3794254"><ele>526.0</ele><time>2026-04-25T13:03:38.32Z</time></trkpt><trkpt lat="44.0894868" lon="11.3793066"><ele>529.0</ele><time>2026-04-25T13:03:39.312Z</time></trkpt><trkpt lat="44.0893912" lon="11.379128"><ele>529.0</ele><time>2026-04-25T13:03:40.314Z</time></trkpt><trkpt lat="44.0893075" lon="11.3789406"><ele>529.0</ele><time>2026-04-25T13:03:41.306Z</time></trkpt><trkpt lat="44.0892214" lon="11.3787782"><ele>529.0</ele><time>2026-04-25T13:03:42.326Z</time></trkpt><trkpt lat="44.0890145" lon="11.3786076"><ele>532.25</ele><time>2026-04-25T13:03:44.325Z</time></trkpt><trkpt lat="44.0888914" lon="11.3786217"><ele>535.5</ele><time>2026-04-25T13:03:45.31Z</time></trkpt><trkpt lat="44.0887405" lon="11.3786831"><ele>538.75</ele><time>2026-04-25T13:03:46.336Z</time></trkpt><trkpt lat="44.088582" lon="11.3787421"><ele>542.0</ele><time>2026-04-25T13:03:47.308Z</time></trkpt><trkpt lat="44.088419" lon="11.3788178"><ele>540.3333333333333</ele><time>2026-04-25T13:03:48.317Z</time></trkpt><trkpt lat="44.0882502" lon="11.3788929"><ele>538.6666666666666</ele><time>2026-04-25T13:03:49.325Z</time></trkpt><trkpt lat="44.0880808" lon="11.3789331"><ele>537.0</ele><time>2026-04-25T13:03:50.322Z</time></trkpt><trkpt lat="44.0879181" lon="11.3789172"><ele>537.0</ele><time>2026-04-25T13:03:51.321Z</time></trkpt><trkpt lat="44.0877665" lon="11.3788701"><ele>537.0</ele><time>2026-04-25T13:03:52.323Z</time></trkpt><trkpt lat="44.0876073" lon="11.3787837"><ele>537.0</ele><time>2026-04-25T13:03:53.311Z</time></trkpt><trkpt lat="44.0874468" lon="11.37868"><ele>541.0</ele><time>2026-04-25T13:03:54.287Z</time></trkpt><trkpt lat="44.0872809" lon="11.3785791"><ele>545.0</ele><time>2026-04-25T13:03:55.292Z</time></trkpt><trkpt lat="44.0871162" lon="11.378488"><ele>549.0</ele><time>2026-04-25T13:03:56.293Z</time></trkpt><trkpt lat="44.0869533" lon="11.3784056"><ele>549.0</ele><time>2026-04-25T13:03:57.293Z</time></trkpt><trkpt lat="44.0867971" lon="11.3783389"><ele>549.0</ele><time>2026-04-25T13:03:58.316Z</time></trkpt><trkpt lat="44.0866543" lon="11.3782944"><ele>549.0</ele><time>2026-04-25T13:03:59.316Z</time></trkpt><trkpt lat="44.0865036" lon="11.378285"><ele>550.3333333333334</ele><time>2026-04-25T13:04:00.302Z</time></trkpt><trkpt lat="44.0863394" lon="11.3783067"><ele>551.6666666666667</ele><time>2026-04-25T13:04:01.322Z</time></trkpt><trkpt lat="44.0861621" lon="11.3783585"><ele>553.0</ele><time>2026-04-25T13:04:02.312Z</time></trkpt><trkpt lat="44.085972" lon="11.3784217"><ele>553.0</ele><time>2026-04-25T13:04:03.306Z</time></trkpt><trkpt lat="44.085784" lon="11.3784872"><ele>553.0</ele><time>2026-04-25T13:04:04.3Z</time></trkpt><trkpt lat="44.0855942" lon="11.3785579"><ele>553.0</ele><time>2026-04-25T13:04:05.407Z</time></trkpt><trkpt lat="44.0854083" lon="11.3786367"><ele>556.3333333333334</ele><time>2026-04-25T13:04:06.313Z</time></trkpt><trkpt lat="44.0852326" lon="11.3787047"><ele>559.6666666666666</ele><time>2026-04-25T13:04:07.331Z</time></trkpt><trkpt lat="44.0850641" lon="11.378806"><ele>563.0</ele><time>2026-04-25T13:04:08.312Z</time></trkpt><trkpt lat="44.0849234" lon="11.3789692"><ele>565.3333333333333</ele><time>2026-04-25T13:04:09.318Z</time></trkpt><trkpt lat="44.0848054" lon="11.3791895"><ele>567.6666666666666</ele><time>2026-04-25T13:04:10.312Z</time></trkpt><trkpt lat="44.0846822" lon="11.3794181"><ele>570.0</ele><time>2026-04-25T13:04:11.311Z</time></trkpt><trkpt lat="44.0845674" lon="11.3796264"><ele>568.3333333333334</ele><time>2026-04-25T13:04:12.29Z</time></trkpt><trkpt lat="44.084459" lon="11.3798073"><ele>566.6666666666667</ele><time>2026-04-25T13:04:13.309Z</time></trkpt><trkpt lat="44.0843452" lon="11.3799641"><ele>565.0</ele><time>2026-04-25T13:04:14.307Z</time></trkpt><trkpt lat="44.0842158" lon="11.3800643"><ele>566.5</ele><time>2026-04-25T13:04:15.313Z</time></trkpt><trkpt lat="44.0840903" lon="11.3801238"><ele>568.0</ele><time>2026-04-25T13:04:16.325Z</time></trkpt><trkpt lat="44.0839629" lon="11.3801205"><ele>569.5</ele><time>2026-04-25T13:04:17.317Z</time></trkpt><trkpt lat="44.083859" lon="11.3800247"><ele>571.0</ele><time>2026-04-25T13:04:18.315Z</time></trkpt><trkpt lat="44.0837199" lon="11.3798991"><ele>571.0</ele><time>2026-04-25T13:04:19.292Z</time></trkpt><trkpt lat="44.0835744" lon="11.3797705"><ele>571.0</ele><time>2026-04-25T13:04:20.3Z</time></trkpt><trkpt lat="44.0834285" lon="11.3796608"><ele>571.0</ele><time>2026-04-25T13:04:21.32Z</time></trkpt><trkpt lat="44.0832791" lon="11.379588"><ele>574.0</ele><time>2026-04-25T13:04:22.316Z</time></trkpt><trkpt lat="44.0831361" lon="11.3795321"><ele>577.0</ele><time>2026-04-25T13:04:23.321Z</time></trkpt><trkpt lat="44.0830041" lon="11.3795506"><ele>580.0</ele><time>2026-04-25T13:04:24.311Z</time></trkpt><trkpt lat="44.0828688" lon="11.379626"><ele>583.0</ele><time>2026-04-25T13:04:25.31Z</time></trkpt><trkpt lat="44.0827344" lon="11.3797364"><ele>583.0</ele><time>2026-04-25T13:04:26.315Z</time></trkpt><trkpt lat="44.0826147" lon="11.3798681"><ele>583.0</ele><time>2026-04-25T13:04:27.319Z</time></trkpt><trkpt lat="44.0825095" lon="11.380034"><ele>583.0</ele><time>2026-04-25T13:04:28.307Z</time></trkpt><trkpt lat="44.0824259" lon="11.3802178"><ele>588.3333333333334</ele><time>2026-04-25T13:04:29.309Z</time></trkpt><trkpt lat="44.0823632" lon="11.3804337"><ele>593.6666666666666</ele><time>2026-04-25T13:04:30.294Z</time></trkpt><trkpt lat="44.0823269" lon="11.3806751"><ele>599.0</ele><time>2026-04-25T13:04:31.315Z</time></trkpt><trkpt lat="44.0822865" lon="11.3809279"><ele>599.0</ele><time>2026-04-25T13:04:32.321Z</time></trkpt><trkpt lat="44.0822512" lon="11.3811732"><ele>599.0</ele><time>2026-04-25T13:04:33.313Z</time></trkpt><trkpt lat="44.0822109" lon="11.3814021"><ele>599.0</ele><time>2026-04-25T13:04:34.311Z</time></trkpt><trkpt lat="44.0822078" lon="11.3816163"><ele>599.0</ele><time>2026-04-25T13:04:35.33Z</time></trkpt><trkpt lat="44.0822427" lon="11.3818126"><ele>599.0</ele><time>2026-04-25T13:04:36.304Z</time></trkpt><trkpt lat="44.082325" lon="11.382012"><ele>599.0</ele><time>2026-04-25T13:04:37.316Z</time></trkpt><trkpt lat="44.0824536" lon="11.3821781"><ele>596.0</ele><time>2026-04-25T13:04:38.31Z</time></trkpt><trkpt lat="44.0825735" lon="11.3823196"><ele>593.0</ele><time>2026-04-25T13:04:39.326Z</time></trkpt><trkpt lat="44.0826659" lon="11.382486"><ele>590.0</ele><time>2026-04-25T13:04:40.318Z</time></trkpt><trkpt lat="44.0827439" lon="11.3826861"><ele>590.0</ele><time>2026-04-25T13:04:41.313Z</time></trkpt><trkpt lat="44.0827766" lon="11.3828979"><ele>590.0</ele><time>2026-04-25T13:04:42.315Z</time></trkpt><trkpt lat="44.0827713" lon="11.3831192"><ele>590.0</ele><time>2026-04-25T13:04:43.313Z</time></trkpt><trkpt lat="44.0827328" lon="11.3833228"><ele>591.5</ele><time>2026-04-25T13:04:44.295Z</time></trkpt><trkpt lat="44.0826514" lon="11.3834893"><ele>593.0</ele><time>2026-04-25T13:04:45.312Z</time></trkpt><trkpt lat="44.0825354" lon="11.3836045"><ele>594.5</ele><time>2026-04-25T13:04:46.307Z</time></trkpt><trkpt lat="44.0824033" lon="11.3836709"><ele>596.0</ele><time>2026-04-25T13:04:47.313Z</time></trkpt><trkpt lat="44.0822698" lon="11.3836513"><ele>598.6666666666666</ele><time>2026-04-25T13:04:48.296Z</time></trkpt><trkpt lat="44.0821422" lon="11.3835476"><ele>601.3333333333334</ele><time>2026-04-25T13:04:49.314Z</time></trkpt><trkpt lat="44.0820195" lon="11.3833837"><ele>604.0</ele><time>2026-04-25T13:04:50.313Z</time></trkpt><trkpt lat="44.0819159" lon="11.3832565"><ele>604.0</ele><time>2026-04-25T13:04:51.325Z</time></trkpt><trkpt lat="44.0817988" lon="11.3831795"><ele>604.0</ele><time>2026-04-25T13:04:52.323Z</time></trkpt><trkpt lat="44.0816593" lon="11.3831988"><ele>604.0</ele><time>2026-04-25T13:04:53.326Z</time></trkpt><trkpt lat="44.0815331" lon="11.3832988"><ele>604.0</ele><time>2026-04-25T13:04:54.321Z</time></trkpt><trkpt lat="44.0814022" lon="11.3834189"><ele>605.0</ele><time>2026-04-25T13:04:55.312Z</time></trkpt><trkpt lat="44.0812646" lon="11.3835126"><ele>606.0</ele><time>2026-04-25T13:04:56.312Z</time></trkpt><trkpt lat="44.0811132" lon="11.3835515"><ele>607.0</ele><time>2026-04-25T13:04:57.319Z</time></trkpt><trkpt lat="44.0809831" lon="11.3835565"><ele>608.0</ele><time>2026-04-25T13:04:58.315Z</time></trkpt><trkpt lat="44.0808616" lon="11.3835133"><ele>607.6666666666666</ele><time>2026-04-25T13:04:59.328Z</time></trkpt><trkpt lat="44.080761" lon="11.3833852"><ele>607.3333333333334</ele><time>2026-04-25T13:05:00.318Z</time></trkpt><trkpt lat="44.0806818" lon="11.3831952"><ele>607.0</ele><time>2026-04-25T13:05:01.309Z</time></trkpt><trkpt lat="44.0806419" lon="11.3829756"><ele>609.3333333333334</ele><time>2026-04-25T13:05:02.31Z</time></trkpt><trkpt lat="44.0806382" lon="11.3827606"><ele>611.6666666666666</ele><time>2026-04-25T13:05:03.319Z</time></trkpt><trkpt lat="44.0806918" lon="11.3825424"><ele>614.0</ele><time>2026-04-25T13:05:04.321Z</time></trkpt><trkpt lat="44.0807807" lon="11.3823391"><ele>616.3333333333333</ele><time>2026-04-25T13:05:05.31Z</time></trkpt><trkpt lat="44.0808564" lon="11.3820951"><ele>618.6666666666666</ele><time>2026-04-25T13:05:06.3Z</time></trkpt><trkpt lat="44.080897" lon="11.3818463"><ele>621.0</ele><time>2026-04-25T13:05:07.33Z</time></trkpt><trkpt lat="44.0809225" lon="11.381605"><ele>621.0</ele><time>2026-04-25T13:05:08.317Z</time></trkpt><trkpt lat="44.0809296" lon="11.381372"><ele>621.0</ele><time>2026-04-25T13:05:09.284Z</time></trkpt><trkpt lat="44.0809102" lon="11.3811565"><ele>621.0</ele><time>2026-04-25T13:05:10.326Z</time></trkpt><trkpt lat="44.0808498" lon="11.3809591"><ele>626.3333333333334</ele><time>2026-04-25T13:05:11.306Z</time></trkpt><trkpt lat="44.0807534" lon="11.380774"><ele>631.6666666666667</ele><time>2026-04-25T13:05:12.322Z</time></trkpt><trkpt lat="44.0806288" lon="11.3806041"><ele>637.0</ele><time>2026-04-25T13:05:13.307Z</time></trkpt><trkpt lat="44.0804978" lon="11.3804421"><ele>637.75</ele><time>2026-04-25T13:05:14.341Z</time></trkpt><trkpt lat="44.0803882" lon="11.3802954"><ele>638.5</ele><time>2026-04-25T13:05:15.314Z</time></trkpt><trkpt lat="44.0803134" lon="11.3801357"><ele>639.25</ele><time>2026-04-25T13:05:16.307Z</time></trkpt><trkpt lat="44.0802748" lon="11.3799551"><ele>640.0</ele><time>2026-04-25T13:05:17.28Z</time></trkpt><trkpt lat="44.0803062" lon="11.3797551"><ele>641.25</ele><time>2026-04-25T13:05:18.321Z</time></trkpt><trkpt lat="44.0803908" lon="11.379587"><ele>642.5</ele><time>2026-04-25T13:05:19.301Z</time></trkpt><trkpt lat="44.0804629" lon="11.3794426"><ele>643.75</ele><time>2026-04-25T13:05:20.317Z</time></trkpt><trkpt lat="44.0804984" lon="11.3793119"><ele>645.0</ele><time>2026-04-25T13:05:21.313Z</time></trkpt><trkpt lat="44.0804788" lon="11.3791631"><ele>645.0</ele><time>2026-04-25T13:05:22.323Z</time></trkpt><trkpt lat="44.0804122" lon="11.3790671"><ele>645.0</ele><time>2026-04-25T13:05:23.311Z</time></trkpt><trkpt lat="44.0803426" lon="11.3790624"><ele>645.0</ele><time>2026-04-25T13:05:24.333Z</time></trkpt><trkpt lat="44.080254" lon="11.3791325"><ele>645.0</ele><time>2026-04-25T13:05:25.32Z</time></trkpt><trkpt lat="44.0801759" lon="11.3792526"><ele>645.0</ele><time>2026-04-25T13:05:26.327Z</time></trkpt><trkpt lat="44.0800796" lon="11.379411"><ele>645.0</ele><time>2026-04-25T13:05:27.325Z</time></trkpt><trkpt lat="44.079984" lon="11.3795802"><ele>645.0</ele><time>2026-04-25T13:05:28.328Z</time></trkpt><trkpt lat="44.0798603" lon="11.3797576"><ele>645.0</ele><time>2026-04-25T13:05:29.33Z</time></trkpt><trkpt lat="44.0797382" lon="11.3799384"><ele>650.3333333333334</ele><time>2026-04-25T13:05:30.316Z</time></trkpt><trkpt lat="44.0795992" lon="11.3801052"><ele>655.6666666666667</ele><time>2026-04-25T13:05:31.31Z</time></trkpt><trkpt lat="44.0794773" lon="11.3802456"><ele>661.0</ele><time>2026-04-25T13:05:32.33Z</time></trkpt><trkpt lat="44.0793642" lon="11.3803561"><ele>661.0</ele><time>2026-04-25T13:05:33.304Z</time></trkpt><trkpt lat="44.0792409" lon="11.3804177"><ele>661.0</ele><time>2026-04-25T13:05:34.314Z</time></trkpt><trkpt lat="44.0790909" lon="11.3804621"><ele>661.0</ele><time>2026-04-25T13:05:35.312Z</time></trkpt><trkpt lat="44.0789274" lon="11.3805183"><ele>662.3333333333334</ele><time>2026-04-25T13:05:36.304Z</time></trkpt><trkpt lat="44.0787734" lon="11.3806003"><ele>663.6666666666666</ele><time>2026-04-25T13:05:37.309Z</time></trkpt><trkpt lat="44.0786323" lon="11.3807418"><ele>665.0</ele><time>2026-04-25T13:05:38.327Z</time></trkpt><trkpt lat="44.0784991" lon="11.3809304"><ele>665.0</ele><time>2026-04-25T13:05:39.292Z</time></trkpt><trkpt lat="44.0783777" lon="11.3811342"><ele>665.0</ele><time>2026-04-25T13:05:40.287Z</time></trkpt><trkpt lat="44.0782497" lon="11.3813379"><ele>665.0</ele><time>2026-04-25T13:05:41.295Z</time></trkpt><trkpt lat="44.0781191" lon="11.3815506"><ele>668.6666666666666</ele><time>2026-04-25T13:05:42.291Z</time></trkpt><trkpt lat="44.0779918" lon="11.3817623"><ele>672.3333333333334</ele><time>2026-04-25T13:05:43.322Z</time></trkpt><trkpt lat="44.0778777" lon="11.3819647"><ele>676.0</ele><time>2026-04-25T13:05:44.311Z</time></trkpt><trkpt lat="44.0777723" lon="11.3821821"><ele>676.0</ele><time>2026-04-25T13:05:45.285Z</time></trkpt><trkpt lat="44.077696" lon="11.3824098"><ele>676.0</ele><time>2026-04-25T13:05:46.306Z</time></trkpt><trkpt lat="44.0776541" lon="11.3826409"><ele>676.0</ele><time>2026-04-25T13:05:47.31Z</time></trkpt><trkpt lat="44.0776389" lon="11.3828471"><ele>676.0</ele><time>2026-04-25T13:05:48.305Z</time></trkpt><trkpt lat="44.0776209" lon="11.3830069"><ele>676.0</ele><time>2026-04-25T13:05:49.318Z</time></trkpt><trkpt lat="44.0775583" lon="11.3831761"><ele>676.0</ele><time>2026-04-25T13:05:50.32Z</time></trkpt><trkpt lat="44.0774467" lon="11.383296"><ele>676.0</ele><time>2026-04-25T13:05:51.311Z</time></trkpt><trkpt lat="44.0772955" lon="11.3834017"><ele>679.0</ele><time>2026-04-25T13:05:52.312Z</time></trkpt><trkpt lat="44.0771515" lon="11.3835121"><ele>682.0</ele><time>2026-04-25T13:05:53.307Z</time></trkpt><trkpt lat="44.0770033" lon="11.3836063"><ele>685.0</ele><time>2026-04-25T13:05:54.302Z</time></trkpt><trkpt lat="44.0768812" lon="11.38368"><ele>685.0</ele><time>2026-04-25T13:05:55.321Z</time></trkpt><trkpt lat="44.0767374" lon="11.383669"><ele>685.0</ele><time>2026-04-25T13:05:56.298Z</time></trkpt><trkpt lat="44.0765848" lon="11.3835878"><ele>685.0</ele><time>2026-04-25T13:05:57.304Z</time></trkpt><trkpt lat="44.0764276" lon="11.3835111"><ele>684.75</ele><time>2026-04-25T13:05:58.329Z</time></trkpt><trkpt lat="44.0762697" lon="11.3834334"><ele>684.5</ele><time>2026-04-25T13:05:59.304Z</time></trkpt><trkpt lat="44.0761464" lon="11.3833659"><ele>684.25</ele><time>2026-04-25T13:06:00.305Z</time></trkpt><trkpt lat="44.0760232" lon="11.3833509"><ele>684.0</ele><time>2026-04-25T13:06:01.307Z</time></trkpt><trkpt lat="44.0759102" lon="11.3834176"><ele>684.0</ele><time>2026-04-25T13:06:02.312Z</time></trkpt><trkpt lat="44.0757963" lon="11.3835182"><ele>684.0</ele><time>2026-04-25T13:06:03.309Z</time></trkpt><trkpt lat="44.0756679" lon="11.3836407"><ele>684.0</ele><time>2026-04-25T13:06:04.312Z</time></trkpt><trkpt lat="44.0755328" lon="11.3837582"><ele>683.0</ele><time>2026-04-25T13:06:05.304Z</time></trkpt><trkpt lat="44.075387" lon="11.3838529"><ele>682.0</ele><time>2026-04-25T13:06:06.307Z</time></trkpt><trkpt lat="44.0752548" lon="11.3839292"><ele>681.0</ele><time>2026-04-25T13:06:07.321Z</time></trkpt><trkpt lat="44.0751298" lon="11.383953"><ele>680.0</ele><time>2026-04-25T13:06:08.297Z</time></trkpt><trkpt lat="44.0749984" lon="11.3839365"><ele>686.5</ele><time>2026-04-25T13:06:09.307Z</time></trkpt><trkpt lat="44.0748737" lon="11.3839427"><ele>693.0</ele><time>2026-04-25T13:06:10.305Z</time></trkpt><trkpt lat="44.0747489" lon="11.383996"><ele>699.5</ele><time>2026-04-25T13:06:11.311Z</time></trkpt><trkpt lat="44.0746351" lon="11.3841331"><ele>706.0</ele><time>2026-04-25T13:06:12.317Z</time></trkpt><trkpt lat="44.0745276" lon="11.3842903"><ele>706.0</ele><time>2026-04-25T13:06:13.316Z</time></trkpt><trkpt lat="44.0744239" lon="11.384429"><ele>706.0</ele><time>2026-04-25T13:06:14.314Z</time></trkpt><trkpt lat="44.0743315" lon="11.3845574"><ele>706.0</ele><time>2026-04-25T13:06:15.302Z</time></trkpt><trkpt lat="44.0742821" lon="11.3846996"><ele>706.0</ele><time>2026-04-25T13:06:16.312Z</time></trkpt><trkpt lat="44.0742799" lon="11.3848642"><ele>707.25</ele><time>2026-04-25T13:06:17.321Z</time></trkpt><trkpt lat="44.0742814" lon="11.3850494"><ele>708.5</ele><time>2026-04-25T13:06:18.299Z</time></trkpt><trkpt lat="44.0742549" lon="11.3852077"><ele>709.75</ele><time>2026-04-25T13:06:19.305Z</time></trkpt><trkpt lat="44.0741869" lon="11.3853056"><ele>711.0</ele><time>2026-04-25T13:06:20.326Z</time></trkpt><trkpt lat="44.0740825" lon="11.3853227"><ele>711.0</ele><time>2026-04-25T13:06:21.314Z</time></trkpt><trkpt lat="44.0739667" lon="11.3852714"><ele>711.0</ele><time>2026-04-25T13:06:22.302Z</time></trkpt><trkpt lat="44.0738387" lon="11.3851823"><ele>711.0</ele><time>2026-04-25T13:06:23.307Z</time></trkpt><trkpt lat="44.0737021" lon="11.3851276"><ele>711.0</ele><time>2026-04-25T13:06:24.309Z</time></trkpt><trkpt lat="44.073588" lon="11.3851599"><ele>711.0</ele><time>2026-04-25T13:06:25.313Z</time></trkpt><trkpt lat="44.0734822" lon="11.3852459"><ele>711.0</ele><time>2026-04-25T13:06:26.307Z</time></trkpt><trkpt lat="44.0733877" lon="11.3854136"><ele>711.0</ele><time>2026-04-25T13:06:27.315Z</time></trkpt><trkpt lat="44.0733184" lon="11.385621"><ele>711.0</ele><time>2026-04-25T13:06:28.314Z</time></trkpt><trkpt lat="44.0732665" lon="11.3858278"><ele>709.5</ele><time>2026-04-25T13:06:29.32Z</time></trkpt><trkpt lat="44.0732315" lon="11.3860303"><ele>708.0</ele><time>2026-04-25T13:06:30.324Z</time></trkpt><trkpt lat="44.0732527" lon="11.3862295"><ele>706.5</ele><time>2026-04-25T13:06:31.31Z</time></trkpt><trkpt lat="44.0733082" lon="11.3864052"><ele>705.0</ele><time>2026-04-25T13:06:32.299Z</time></trkpt><trkpt lat="44.0733566" lon="11.386564"><ele>705.0</ele><time>2026-04-25T13:06:33.305Z</time></trkpt><trkpt lat="44.0733426" lon="11.3867043"><ele>705.0</ele><time>2026-04-25T13:06:34.328Z</time></trkpt><trkpt lat="44.0732988" lon="11.3867845"><ele>705.0</ele><time>2026-04-25T13:06:35.321Z</time></trkpt><trkpt lat="44.0732087" lon="11.3868105"><ele>705.0</ele><time>2026-04-25T13:06:36.309Z</time></trkpt><trkpt lat="44.0730906" lon="11.3867464"><ele>705.0</ele><time>2026-04-25T13:06:37.313Z</time></trkpt><trkpt lat="44.0729686" lon="11.3866321"><ele>710.0</ele><time>2026-04-25T13:06:38.307Z</time></trkpt><trkpt lat="44.0728529" lon="11.3865237"><ele>715.0</ele><time>2026-04-25T13:06:39.312Z</time></trkpt><trkpt lat="44.0727191" lon="11.386411"><ele>720.0</ele><time>2026-04-25T13:06:40.32Z</time></trkpt><trkpt lat="44.0725795" lon="11.3862861"><ele>720.0</ele><time>2026-04-25T13:06:41.329Z</time></trkpt><trkpt lat="44.0724466" lon="11.3861465"><ele>720.0</ele><time>2026-04-25T13:06:42.317Z</time></trkpt><trkpt lat="44.0723278" lon="11.3860247"><ele>720.0</ele><time>2026-04-25T13:06:43.314Z</time></trkpt><trkpt lat="44.0722324" lon="11.3859344"><ele>720.0</ele><time>2026-04-25T13:06:44.305Z</time></trkpt><trkpt lat="44.0721331" lon="11.3859196"><ele>720.75</ele><time>2026-04-25T13:06:45.307Z</time></trkpt><trkpt lat="44.0720143" lon="11.3859791"><ele>721.5</ele><time>2026-04-25T13:06:46.312Z</time></trkpt><trkpt lat="44.0719011" lon="11.3860721"><ele>722.25</ele><time>2026-04-25T13:06:47.317Z</time></trkpt><trkpt lat="44.0718028" lon="11.3861943"><ele>723.0</ele><time>2026-04-25T13:06:48.315Z</time></trkpt><trkpt lat="44.0717258" lon="11.3863067"><ele>722.5</ele><time>2026-04-25T13:06:49.314Z</time></trkpt><trkpt lat="44.0716363" lon="11.3864041"><ele>722.0</ele><time>2026-04-25T13:06:50.311Z</time></trkpt><trkpt lat="44.0715183" lon="11.3864505"><ele>721.5</ele><time>2026-04-25T13:06:51.315Z</time></trkpt><trkpt lat="44.0713803" lon="11.3864374"><ele>721.0</ele><time>2026-04-25T13:06:52.32Z</time></trkpt><trkpt lat="44.07125" lon="11.3863456"><ele>717.0</ele><time>2026-04-25T13:06:53.321Z</time></trkpt><trkpt lat="44.0711042" lon="11.3862032"><ele>713.0</ele><time>2026-04-25T13:06:54.303Z</time></trkpt><trkpt lat="44.0709717" lon="11.3860505"><ele>709.0</ele><time>2026-04-25T13:06:55.306Z</time></trkpt><trkpt lat="44.0708406" lon="11.3858965"><ele>703.0</ele><time>2026-04-25T13:06:56.322Z</time></trkpt><trkpt lat="44.070728" lon="11.3857246"><ele>697.0</ele><time>2026-04-25T13:06:57.314Z</time></trkpt><trkpt lat="44.0706144" lon="11.3855428"><ele>691.0</ele><time>2026-04-25T13:06:58.323Z</time></trkpt><trkpt lat="44.0705123" lon="11.3853177"><ele>691.0</ele><time>2026-04-25T13:06:59.313Z</time></trkpt><trkpt lat="44.070422" lon="11.3850672"><ele>691.0</ele><time>2026-04-25T13:07:00.32Z</time></trkpt><trkpt lat="44.0703316" lon="11.3848042"><ele>691.0</ele><time>2026-04-25T13:07:01.318Z</time></trkpt><trkpt lat="44.0702519" lon="11.3845638"><ele>692.6666666666667</ele><time>2026-04-25T13:07:02.306Z</time></trkpt><trkpt lat="44.0701933" lon="11.3843286"><ele>694.3333333333334</ele><time>2026-04-25T13:07:03.307Z</time></trkpt><trkpt lat="44.070147" lon="11.384118"><ele>696.0</ele><time>2026-04-25T13:07:04.313Z</time></trkpt><trkpt lat="44.0700896" lon="11.3839292"><ele>695.3333333333334</ele><time>2026-04-25T13:07:05.323Z</time></trkpt><trkpt lat="44.0700122" lon="11.3837413"><ele>694.6666666666667</ele><time>2026-04-25T13:07:06.322Z</time></trkpt><trkpt lat="44.0698995" lon="11.3835932"><ele>694.0</ele><time>2026-04-25T13:07:07.314Z</time></trkpt><trkpt lat="44.0697393" lon="11.3835012"><ele>694.0</ele><time>2026-04-25T13:07:08.298Z</time></trkpt><trkpt lat="44.0695634" lon="11.3834278"><ele>694.0</ele><time>2026-04-25T13:07:09.319Z</time></trkpt><trkpt lat="44.0693907" lon="11.383334"><ele>694.0</ele><time>2026-04-25T13:07:10.306Z</time></trkpt><trkpt lat="44.0692425" lon="11.3832295"><ele>694.0</ele><time>2026-04-25T13:07:11.306Z</time></trkpt><trkpt lat="44.0691192" lon="11.3831325"><ele>694.0</ele><time>2026-04-25T13:07:12.309Z</time></trkpt><trkpt lat="44.0690047" lon="11.3830725"><ele>694.0</ele><time>2026-04-25T13:07:13.306Z</time></trkpt><trkpt lat="44.0688835" lon="11.3830891"><ele>694.0</ele><time>2026-04-25T13:07:14.311Z</time></trkpt><trkpt lat="44.0687885" lon="11.3831889"><ele>693.5</ele><time>2026-04-25T13:07:15.311Z</time></trkpt><trkpt lat="44.0686997" lon="11.3833377"><ele>693.0</ele><time>2026-04-25T13:07:16.287Z</time></trkpt><trkpt lat="44.0686343" lon="11.3835201"><ele>692.5</ele><time>2026-04-25T13:07:17.315Z</time></trkpt><trkpt lat="44.0686134" lon="11.3837365"><ele>692.0</ele><time>2026-04-25T13:07:18.31Z</time></trkpt><trkpt lat="44.0686138" lon="11.3839865"><ele>692.0</ele><time>2026-04-25T13:07:19.3Z</time></trkpt><trkpt lat="44.0686017" lon="11.3842668"><ele>692.0</ele><time>2026-04-25T13:07:20.315Z</time></trkpt><trkpt lat="44.0685693" lon="11.3845621"><ele>692.0</ele><time>2026-04-25T13:07:21.321Z</time></trkpt><trkpt lat="44.0685199" lon="11.3848678"><ele>691.0</ele><time>2026-04-25T13:07:22.317Z</time></trkpt><trkpt lat="44.0684549" lon="11.3851731"><ele>690.0</ele><time>2026-04-25T13:07:23.307Z</time></trkpt><trkpt lat="44.0683879" lon="11.3854643"><ele>689.0</ele><time>2026-04-25T13:07:24.304Z</time></trkpt><trkpt lat="44.0683248" lon="11.3857215"><ele>693.3333333333333</ele><time>2026-04-25T13:07:25.307Z</time></trkpt><trkpt lat="44.0682625" lon="11.3859725"><ele>697.6666666666666</ele><time>2026-04-25T13:07:26.327Z</time></trkpt><trkpt lat="44.0682203" lon="11.3862081"><ele>702.0</ele><time>2026-04-25T13:07:27.306Z</time></trkpt><trkpt lat="44.0681764" lon="11.3864126"><ele>702.0</ele><time>2026-04-25T13:07:28.312Z</time></trkpt><trkpt lat="44.0681146" lon="11.386561"><ele>702.0</ele><time>2026-04-25T13:07:29.28Z</time></trkpt><trkpt lat="44.068019" lon="11.3866532"><ele>702.0</ele><time>2026-04-25T13:07:30.275Z</time></trkpt><trkpt lat="44.067882" lon="11.3867347"><ele>702.0</ele><time>2026-04-25T13:07:31.306Z</time></trkpt><trkpt lat="44.0677525" lon="11.3868054"><ele>702.0</ele><time>2026-04-25T13:07:32.3Z</time></trkpt><trkpt lat="44.0676222" lon="11.3868637"><ele>702.0</ele><time>2026-04-25T13:07:33.318Z</time></trkpt><trkpt lat="44.067502" lon="11.3869263"><ele>702.0</ele><time>2026-04-25T13:07:34.306Z</time></trkpt><trkpt lat="44.0674053" lon="11.3869933"><ele>702.0</ele><time>2026-04-25T13:07:35.318Z</time></trkpt><trkpt lat="44.0673503" lon="11.387112"><ele>705.0</ele><time>2026-04-25T13:07:36.308Z</time></trkpt><trkpt lat="44.06733" lon="11.3872698"><ele>708.0</ele><time>2026-04-25T13:07:37.302Z</time></trkpt><trkpt lat="44.0673237" lon="11.3874368"><ele>711.0</ele><time>2026-04-25T13:07:38.31Z</time></trkpt><trkpt lat="44.0673053" lon="11.3875921"><ele>714.0</ele><time>2026-04-25T13:07:39.31Z</time></trkpt><trkpt lat="44.0672769" lon="11.3877264"><ele>717.0</ele><time>2026-04-25T13:07:40.308Z</time></trkpt><trkpt lat="44.0672427" lon="11.3878553"><ele>717.0</ele><time>2026-04-25T13:07:41.31Z</time></trkpt><trkpt lat="44.0671994" lon="11.3879864"><ele>717.0</ele><time>2026-04-25T13:07:42.303Z</time></trkpt><trkpt lat="44.0671437" lon="11.3881423"><ele>717.0</ele><time>2026-04-25T13:07:43.315Z</time></trkpt><trkpt lat="44.0670822" lon="11.3883214"><ele>717.0</ele><time>2026-04-25T13:07:44.328Z</time></trkpt><trkpt lat="44.0670116" lon="11.3885038"><ele>713.6666666666666</ele><time>2026-04-25T13:07:45.322Z</time></trkpt><trkpt lat="44.0669291" lon="11.388682"><ele>710.3333333333333</ele><time>2026-04-25T13:07:46.314Z</time></trkpt><trkpt lat="44.0668311" lon="11.3888596"><ele>707.0</ele><time>2026-04-25T13:07:47.303Z</time></trkpt><trkpt lat="44.0667197" lon="11.3890223"><ele>710.75</ele><time>2026-04-25T13:07:48.312Z</time></trkpt><trkpt lat="44.0665911" lon="11.3891673"><ele>714.5</ele><time>2026-04-25T13:07:49.314Z</time></trkpt><trkpt lat="44.0664761" lon="11.3893077"><ele>718.25</ele><time>2026-04-25T13:07:50.324Z</time></trkpt><trkpt lat="44.0663736" lon="11.3894185"><ele>722.0</ele><time>2026-04-25T13:07:51.311Z</time></trkpt><trkpt lat="44.0662656" lon="11.3895029"><ele>722.0</ele><time>2026-04-25T13:07:52.315Z</time></trkpt><trkpt lat="44.0661384" lon="11.3895509"><ele>722.0</ele><time>2026-04-25T13:07:53.315Z</time></trkpt><trkpt lat="44.0660083" lon="11.389579"><ele>722.0</ele><time>2026-04-25T13:07:54.326Z</time></trkpt><trkpt lat="44.0659049" lon="11.3896512"><ele>722.0</ele><time>2026-04-25T13:07:55.31Z</time></trkpt><trkpt lat="44.0658419" lon="11.389807"><ele>720.5</ele><time>2026-04-25T13:07:56.315Z</time></trkpt><trkpt lat="44.0657882" lon="11.3899769"><ele>719.0</ele><time>2026-04-25T13:07:57.312Z</time></trkpt><trkpt lat="44.0657564" lon="11.3901434"><ele>717.5</ele><time>2026-04-25T13:07:58.34Z</time></trkpt><trkpt lat="44.0657033" lon="11.3902568"><ele>716.0</ele><time>2026-04-25T13:07:59.314Z</time></trkpt><trkpt lat="44.0656249" lon="11.3903735"><ele>725.3333333333333</ele><time>2026-04-25T13:08:00.296Z</time></trkpt><trkpt lat="44.0655359" lon="11.3905098"><ele>734.6666666666666</ele><time>2026-04-25T13:08:01.324Z</time></trkpt><trkpt lat="44.0654429" lon="11.3906824"><ele>744.0</ele><time>2026-04-25T13:08:02.337Z</time></trkpt><trkpt lat="44.0653747" lon="11.3909085"><ele>744.0</ele><time>2026-04-25T13:08:03.309Z</time></trkpt><trkpt lat="44.0653337" lon="11.3911804"><ele>744.0</ele><time>2026-04-25T13:08:04.322Z</time></trkpt><trkpt lat="44.0653035" lon="11.3914382"><ele>744.0</ele><time>2026-04-25T13:08:05.304Z</time></trkpt><trkpt lat="44.0652828" lon="11.3916478"><ele>740.3333333333334</ele><time>2026-04-25T13:08:06.318Z</time></trkpt><trkpt lat="44.0652442" lon="11.3918438"><ele>736.6666666666667</ele><time>2026-04-25T13:08:07.318Z</time></trkpt><trkpt lat="44.0651606" lon="11.3920059"><ele>733.0</ele><time>2026-04-25T13:08:08.323Z</time></trkpt><trkpt lat="44.0650507" lon="11.392175"><ele>727.25</ele><time>2026-04-25T13:08:09.308Z</time></trkpt><trkpt lat="44.0649368" lon="11.3923338"><ele>721.5</ele><time>2026-04-25T13:08:10.315Z</time></trkpt><trkpt lat="44.0648306" lon="11.3924854"><ele>715.75</ele><time>2026-04-25T13:08:11.311Z</time></trkpt><trkpt lat="44.0647316" lon="11.3926146"><ele>710.0</ele><time>2026-04-25T13:08:12.305Z</time></trkpt><trkpt lat="44.0646255" lon="11.3927036"><ele>710.0</ele><time>2026-04-25T13:08:13.307Z</time></trkpt><trkpt lat="44.0645281" lon="11.3927725"><ele>710.0</ele><time>2026-04-25T13:08:14.323Z</time></trkpt><trkpt lat="44.0644499" lon="11.3928274"><ele>710.0</ele><time>2026-04-25T13:08:15.326Z</time></trkpt><trkpt lat="44.0643675" lon="11.3928625"><ele>710.0</ele><time>2026-04-25T13:08:16.31Z</time></trkpt><trkpt lat="44.0642878" lon="11.392862"><ele>710.0</ele><time>2026-04-25T13:08:17.33Z</time></trkpt><trkpt lat="44.0642205" lon="11.3928028"><ele>710.0</ele><time>2026-04-25T13:08:18.322Z</time></trkpt><trkpt lat="44.0641801" lon="11.3927034"><ele>710.0</ele><time>2026-04-25T13:08:19.321Z</time></trkpt><trkpt lat="44.0641361" lon="11.3925936"><ele>710.0</ele><time>2026-04-25T13:08:20.312Z</time></trkpt><trkpt lat="44.064074" lon="11.3924618"><ele>710.0</ele><time>2026-04-25T13:08:21.31Z</time></trkpt><trkpt lat="44.0639914" lon="11.3923272"><ele>710.0</ele><time>2026-04-25T13:08:22.31Z</time></trkpt><trkpt lat="44.0638948" lon="11.3921974"><ele>710.6666666666666</ele><time>2026-04-25T13:08:23.312Z</time></trkpt><trkpt lat="44.0637629" lon="11.392085"><ele>711.3333333333334</ele><time>2026-04-25T13:08:24.3Z</time></trkpt><trkpt lat="44.063635" lon="11.3919643"><ele>712.0</ele><time>2026-04-25T13:08:25.314Z</time></trkpt><trkpt lat="44.0635181" lon="11.3918254"><ele>712.0</ele><time>2026-04-25T13:08:26.309Z</time></trkpt><trkpt lat="44.0634195" lon="11.3916791"><ele>712.0</ele><time>2026-04-25T13:08:27.308Z</time></trkpt><trkpt lat="44.0633277" lon="11.3915719"><ele>712.0</ele><time>2026-04-25T13:08:28.309Z</time></trkpt><trkpt lat="44.0632461" lon="11.3914982"><ele>712.0</ele><time>2026-04-25T13:08:29.316Z</time></trkpt><trkpt lat="44.0631598" lon="11.3914682"><ele>713.8</ele><time>2026-04-25T13:08:30.308Z</time></trkpt><trkpt lat="44.0630707" lon="11.391504"><ele>715.6</ele><time>2026-04-25T13:08:31.3Z</time></trkpt><trkpt lat="44.0630087" lon="11.3915796"><ele>717.4</ele><time>2026-04-25T13:08:32.314Z</time></trkpt><trkpt lat="44.0629868" lon="11.391709"><ele>719.1999999999999</ele><time>2026-04-25T13:08:33.306Z</time></trkpt><trkpt lat="44.0630031" lon="11.3918441"><ele>721.0</ele><time>2026-04-25T13:08:34.32Z</time></trkpt><trkpt lat="44.0630478" lon="11.3920303"><ele>729.6666666666667</ele><time>2026-04-25T13:08:35.305Z</time></trkpt><trkpt lat="44.0630948" lon="11.3922456"><ele>738.3333333333334</ele><time>2026-04-25T13:08:36.323Z</time></trkpt><trkpt lat="44.063119" lon="11.3924665"><ele>747.0</ele><time>2026-04-25T13:08:37.311Z</time></trkpt><trkpt lat="44.0631191" lon="11.3926662"><ele>747.0</ele><time>2026-04-25T13:08:38.309Z</time></trkpt><trkpt lat="44.0630887" lon="11.3928571"><ele>747.0</ele><time>2026-04-25T13:08:39.307Z</time></trkpt><trkpt lat="44.0630519" lon="11.3930626"><ele>747.0</ele><time>2026-04-25T13:08:40.296Z</time></trkpt><trkpt lat="44.0630188" lon="11.3932872"><ele>748.3333333333334</ele><time>2026-04-25T13:08:41.313Z</time></trkpt><trkpt lat="44.0629887" lon="11.3935155"><ele>749.6666666666667</ele><time>2026-04-25T13:08:42.314Z</time></trkpt><trkpt lat="44.0629432" lon="11.3937397"><ele>751.0</ele><time>2026-04-25T13:08:43.315Z</time></trkpt><trkpt lat="44.0628999" lon="11.3939677"><ele>748.25</ele><time>2026-04-25T13:08:44.322Z</time></trkpt><trkpt lat="44.0629014" lon="11.3941914"><ele>745.5</ele><time>2026-04-25T13:08:45.314Z</time></trkpt><trkpt lat="44.0629088" lon="11.394396"><ele>742.75</ele><time>2026-04-25T13:08:46.306Z</time></trkpt><trkpt lat="44.0628999" lon="11.3945768"><ele>740.0</ele><time>2026-04-25T13:08:47.305Z</time></trkpt><trkpt lat="44.0628681" lon="11.394718"><ele>733.0</ele><time>2026-04-25T13:08:48.306Z</time></trkpt><trkpt lat="44.0627986" lon="11.3948562"><ele>726.0</ele><time>2026-04-25T13:08:49.304Z</time></trkpt><trkpt lat="44.0626762" lon="11.3949676"><ele>719.0</ele><time>2026-04-25T13:08:50.316Z</time></trkpt><trkpt lat="44.0625097" lon="11.3950745"><ele>730.0</ele><time>2026-04-25T13:08:51.315Z</time></trkpt><trkpt lat="44.0623126" lon="11.3951539"><ele>741.0</ele><time>2026-04-25T13:08:52.312Z</time></trkpt><trkpt lat="44.0621219" lon="11.395228"><ele>752.0</ele><time>2026-04-25T13:08:53.288Z</time></trkpt><trkpt lat="44.0619679" lon="11.39533"><ele>752.0</ele><time>2026-04-25T13:08:54.316Z</time></trkpt><trkpt lat="44.0618319" lon="11.3954393"><ele>752.0</ele><time>2026-04-25T13:08:55.317Z</time></trkpt><trkpt lat="44.0617391" lon="11.3955594"><ele>752.0</ele><time>2026-04-25T13:08:56.3Z</time></trkpt><trkpt lat="44.0616824" lon="11.3957076"><ele>752.0</ele><time>2026-04-25T13:08:57.311Z</time></trkpt><trkpt lat="44.0616775" lon="11.395892"><ele>747.75</ele><time>2026-04-25T13:08:58.31Z</time></trkpt><trkpt lat="44.0617106" lon="11.3960643"><ele>743.5</ele><time>2026-04-25T13:08:59.308Z</time></trkpt><trkpt lat="44.0617255" lon="11.3962303"><ele>739.25</ele><time>2026-04-25T13:09:00.325Z</time></trkpt><trkpt lat="44.061672" lon="11.3963728"><ele>735.0</ele><time>2026-04-25T13:09:01.309Z</time></trkpt><trkpt lat="44.0615646" lon="11.396488"><ele>735.0</ele><time>2026-04-25T13:09:02.312Z</time></trkpt><trkpt lat="44.0614352" lon="11.3966108"><ele>735.0</ele><time>2026-04-25T13:09:03.322Z</time></trkpt><trkpt lat="44.0613112" lon="11.3967438"><ele>735.0</ele><time>2026-04-25T13:09:04.301Z</time></trkpt><trkpt lat="44.061223" lon="11.396893"><ele>735.0</ele><time>2026-04-25T13:09:05.332Z</time></trkpt><trkpt lat="44.0611784" lon="11.397054"><ele>735.0</ele><time>2026-04-25T13:09:06.325Z</time></trkpt><trkpt lat="44.0611227" lon="11.397181"><ele>735.0</ele><time>2026-04-25T13:09:07.321Z</time></trkpt><trkpt lat="44.0610323" lon="11.3972373"><ele>735.0</ele><time>2026-04-25T13:09:08.318Z</time></trkpt><trkpt lat="44.0609186" lon="11.3972186"><ele>735.0</ele><time>2026-04-25T13:09:09.31Z</time></trkpt><trkpt lat="44.0608023" lon="11.3971448"><ele>736.75</ele><time>2026-04-25T13:09:10.312Z</time></trkpt><trkpt lat="44.060682" lon="11.3970596"><ele>738.5</ele><time>2026-04-25T13:09:11.341Z</time></trkpt><trkpt lat="44.0605542" lon="11.3970445"><ele>740.25</ele><time>2026-04-25T13:09:12.307Z</time></trkpt><trkpt lat="44.060419" lon="11.3971001"><ele>742.0</ele><time>2026-04-25T13:09:13.304Z</time></trkpt><trkpt lat="44.0602902" lon="11.3972445"><ele>742.0</ele><time>2026-04-25T13:09:14.289Z</time></trkpt><trkpt lat="44.0601921" lon="11.3974129"><ele>742.0</ele><time>2026-04-25T13:09:15.325Z</time></trkpt><trkpt lat="44.0601227" lon="11.3976012"><ele>742.0</ele><time>2026-04-25T13:09:16.326Z</time></trkpt><trkpt lat="44.0600922" lon="11.3977849"><ele>742.0</ele><time>2026-04-25T13:09:17.311Z</time></trkpt><trkpt lat="44.0600123" lon="11.3980774"><ele>739.0</ele><time>2026-04-25T13:09:19.314Z</time></trkpt><trkpt lat="44.0599097" lon="11.3981249"><ele>736.0</ele><time>2026-04-25T13:09:20.309Z</time></trkpt><trkpt lat="44.0597418" lon="11.3980823"><ele>733.0</ele><time>2026-04-25T13:09:21.326Z</time></trkpt><trkpt lat="44.0595852" lon="11.3979818"><ele>740.6666666666667</ele><time>2026-04-25T13:09:22.315Z</time></trkpt><trkpt lat="44.059441" lon="11.3978718"><ele>748.3333333333334</ele><time>2026-04-25T13:09:23.313Z</time></trkpt><trkpt lat="44.0593061" lon="11.3977847"><ele>756.0</ele><time>2026-04-25T13:09:24.313Z</time></trkpt><trkpt lat="44.0591626" lon="11.3977662"><ele>755.3333333333334</ele><time>2026-04-25T13:09:25.312Z</time></trkpt><trkpt lat="44.0589945" lon="11.3977802"><ele>754.6666666666667</ele><time>2026-04-25T13:09:26.306Z</time></trkpt><trkpt lat="44.0588463" lon="11.3978356"><ele>754.0</ele><time>2026-04-25T13:09:27.317Z</time></trkpt><trkpt lat="44.0587091" lon="11.3978809"><ele>754.0</ele><time>2026-04-25T13:09:28.281Z</time></trkpt><trkpt lat="44.0585707" lon="11.3979065"><ele>754.0</ele><time>2026-04-25T13:09:29.311Z</time></trkpt><trkpt lat="44.058438" lon="11.3978999"><ele>754.0</ele><time>2026-04-25T13:09:30.306Z</time></trkpt><trkpt lat="44.058318" lon="11.3978593"><ele>754.0</ele><time>2026-04-25T13:09:31.308Z</time></trkpt><trkpt lat="44.0581974" lon="11.3977778"><ele>749.75</ele><time>2026-04-25T13:09:32.317Z</time></trkpt><trkpt lat="44.0580717" lon="11.397702"><ele>745.5</ele><time>2026-04-25T13:09:33.31Z</time></trkpt><trkpt lat="44.0579548" lon="11.3976255"><ele>741.25</ele><time>2026-04-25T13:09:34.319Z</time></trkpt><trkpt lat="44.05786" lon="11.3975044"><ele>737.0</ele><time>2026-04-25T13:09:35.301Z</time></trkpt><trkpt lat="44.0577829" lon="11.3973613"><ele>737.0</ele><time>2026-04-25T13:09:36.321Z</time></trkpt><trkpt lat="44.0577215" lon="11.3972045"><ele>737.0</ele><time>2026-04-25T13:09:37.302Z</time></trkpt><trkpt lat="44.0576822" lon="11.3970228"><ele>737.0</ele><time>2026-04-25T13:09:38.308Z</time></trkpt><trkpt lat="44.0576852" lon="11.396828"><ele>737.0</ele><time>2026-04-25T13:09:39.306Z</time></trkpt><trkpt lat="44.0576918" lon="11.3966043"><ele>741.0</ele><time>2026-04-25T13:09:40.324Z</time></trkpt><trkpt lat="44.0576562" lon="11.3963788"><ele>745.0</ele><time>2026-04-25T13:09:41.315Z</time></trkpt><trkpt lat="44.0575799" lon="11.3961478"><ele>749.0</ele><time>2026-04-25T13:09:42.308Z</time></trkpt><trkpt lat="44.0575043" lon="11.3959211"><ele>744.6666666666666</ele><time>2026-04-25T13:09:43.308Z</time></trkpt><trkpt lat="44.0574429" lon="11.3956875"><ele>740.3333333333334</ele><time>2026-04-25T13:09:44.308Z</time></trkpt><trkpt lat="44.0573834" lon="11.3954946"><ele>736.0</ele><time>2026-04-25T13:09:45.312Z</time></trkpt><trkpt lat="44.0573357" lon="11.3953373"><ele>736.0</ele><time>2026-04-25T13:09:46.308Z</time></trkpt><trkpt lat="44.0573019" lon="11.3952055"><ele>736.0</ele><time>2026-04-25T13:09:47.309Z</time></trkpt><trkpt lat="44.0573023" lon="11.3950797"><ele>736.0</ele><time>2026-04-25T13:09:48.313Z</time></trkpt><trkpt lat="44.0573162" lon="11.3949799"><ele>736.0</ele><time>2026-04-25T13:09:49.308Z</time></trkpt><trkpt lat="44.0573966" lon="11.3948984"><ele>736.0</ele><time>2026-04-25T13:09:50.303Z</time></trkpt><trkpt lat="44.0574989" lon="11.394838"><ele>740.6666666666667</ele><time>2026-04-25T13:09:51.312Z</time></trkpt><trkpt lat="44.057588" lon="11.3947819"><ele>745.3333333333334</ele><time>2026-04-25T13:09:52.311Z</time></trkpt><trkpt lat="44.0576343" lon="11.3947074"><ele>750.0</ele><time>2026-04-25T13:09:53.313Z</time></trkpt><trkpt lat="44.0576558" lon="11.3945953"><ele>754.6666666666666</ele><time>2026-04-25T13:09:54.327Z</time></trkpt><trkpt lat="44.0576429" lon="11.3944999"><ele>759.3333333333333</ele><time>2026-04-25T13:09:55.312Z</time></trkpt><trkpt lat="44.0576194" lon="11.3944076"><ele>764.0</ele><time>2026-04-25T13:09:56.312Z</time></trkpt><trkpt lat="44.057571" lon="11.3943237"><ele>762.25</ele><time>2026-04-25T13:09:57.311Z</time></trkpt><trkpt lat="44.0574922" lon="11.3942365"><ele>760.5</ele><time>2026-04-25T13:09:58.314Z</time></trkpt><trkpt lat="44.057385" lon="11.3941546"><ele>758.75</ele><time>2026-04-25T13:09:59.306Z</time></trkpt><trkpt lat="44.0572696" lon="11.3940671"><ele>757.0</ele><time>2026-04-25T13:10:00.313Z</time></trkpt><trkpt lat="44.0571511" lon="11.3939925"><ele>757.0</ele><time>2026-04-25T13:10:01.314Z</time></trkpt><trkpt lat="44.0570372" lon="11.3939409"><ele>757.0</ele><time>2026-04-25T13:10:02.309Z</time></trkpt><trkpt lat="44.0569382" lon="11.393884"><ele>757.0</ele><time>2026-04-25T13:10:03.31Z</time></trkpt><trkpt lat="44.0568544" lon="11.3938071"><ele>757.0</ele><time>2026-04-25T13:10:04.329Z</time></trkpt><trkpt lat="44.056798" lon="11.3936869"><ele>757.0</ele><time>2026-04-25T13:10:05.314Z</time></trkpt><trkpt lat="44.0568033" lon="11.3935706"><ele>760.6666666666667</ele><time>2026-04-25T13:10:06.312Z</time></trkpt><trkpt lat="44.0568205" lon="11.3934378"><ele>764.3333333333334</ele><time>2026-04-25T13:10:07.313Z</time></trkpt><trkpt lat="44.0568442" lon="11.3933269"><ele>768.0</ele><time>2026-04-25T13:10:08.306Z</time></trkpt><trkpt lat="44.0568498" lon="11.3932167"><ele>771.6666666666667</ele><time>2026-04-25T13:10:09.317Z</time></trkpt><trkpt lat="44.056816" lon="11.3930976"><ele>775.3333333333334</ele><time>2026-04-25T13:10:10.305Z</time></trkpt><trkpt lat="44.0567597" lon="11.3930146"><ele>779.0</ele><time>2026-04-25T13:10:11.301Z</time></trkpt><trkpt lat="44.0566768" lon="11.3929748"><ele>781.2</ele><time>2026-04-25T13:10:12.301Z</time></trkpt><trkpt lat="44.056591" lon="11.3929996"><ele>783.4000000000001</ele><time>2026-04-25T13:10:13.298Z</time></trkpt><trkpt lat="44.056514" lon="11.3930688"><ele>785.6</ele><time>2026-04-25T13:10:14.293Z</time></trkpt><trkpt lat="44.0564382" lon="11.3931357"><ele>787.8</ele><time>2026-04-25T13:10:15.311Z</time></trkpt><trkpt lat="44.0563643" lon="11.3932025"><ele>790.0</ele><time>2026-04-25T13:10:16.322Z</time></trkpt><trkpt lat="44.056278" lon="11.3932637"><ele>790.0</ele><time>2026-04-25T13:10:17.312Z</time></trkpt><trkpt lat="44.056196" lon="11.3932901"><ele>790.0</ele><time>2026-04-25T13:10:18.321Z</time></trkpt><trkpt lat="44.0561059" lon="11.3932676"><ele>790.0</ele><time>2026-04-25T13:10:19.314Z</time></trkpt><trkpt lat="44.0560296" lon="11.3931882"><ele>790.0</ele><time>2026-04-25T13:10:20.309Z</time></trkpt><trkpt lat="44.0559669" lon="11.39306"><ele>790.0</ele><time>2026-04-25T13:10:21.312Z</time></trkpt><trkpt lat="44.0558869" lon="11.392878"><ele>790.0</ele><time>2026-04-25T13:10:22.312Z</time></trkpt><trkpt lat="44.0557962" lon="11.3926759"><ele>790.0</ele><time>2026-04-25T13:10:23.327Z</time></trkpt><trkpt lat="44.055708" lon="11.3924685"><ele>790.0</ele><time>2026-04-25T13:10:24.322Z</time></trkpt><trkpt lat="44.0556277" lon="11.3922409"><ele>788.3333333333333</ele><time>2026-04-25T13:10:25.312Z</time></trkpt><trkpt lat="44.0555474" lon="11.3920093"><ele>786.6666666666667</ele><time>2026-04-25T13:10:26.311Z</time></trkpt><trkpt lat="44.0554681" lon="11.3918061"><ele>785.0</ele><time>2026-04-25T13:10:27.318Z</time></trkpt><trkpt lat="44.0553978" lon="11.3916247"><ele>785.0</ele><time>2026-04-25T13:10:28.31Z</time></trkpt><trkpt lat="44.0553374" lon="11.3914435"><ele>785.0</ele><time>2026-04-25T13:10:29.327Z</time></trkpt><trkpt lat="44.055304" lon="11.3912496"><ele>785.0</ele><time>2026-04-25T13:10:30.315Z</time></trkpt><trkpt lat="44.0553041" lon="11.3910336"><ele>785.0</ele><time>2026-04-25T13:10:31.315Z</time></trkpt><trkpt lat="44.0553258" lon="11.3908106"><ele>787.5</ele><time>2026-04-25T13:10:32.316Z</time></trkpt><trkpt lat="44.0553289" lon="11.3906014"><ele>790.0</ele><time>2026-04-25T13:10:33.318Z</time></trkpt><trkpt lat="44.0553294" lon="11.3904122"><ele>792.5</ele><time>2026-04-25T13:10:34.306Z</time></trkpt><trkpt lat="44.0553173" lon="11.3902528"><ele>795.0</ele><time>2026-04-25T13:10:35.314Z</time></trkpt><trkpt lat="44.0552953" lon="11.3901271"><ele>797.8</ele><time>2026-04-25T13:10:36.312Z</time></trkpt><trkpt lat="44.0552381" lon="11.3900508"><ele>800.6</ele><time>2026-04-25T13:10:37.301Z</time></trkpt><trkpt lat="44.055161" lon="11.390015"><ele>803.4000000000001</ele><time>2026-04-25T13:10:38.3Z</time></trkpt><trkpt lat="44.0550669" lon="11.3900703"><ele>806.2</ele><time>2026-04-25T13:10:39.312Z</time></trkpt><trkpt lat="44.0549874" lon="11.3901869"><ele>809.0</ele><time>2026-04-25T13:10:40.334Z</time></trkpt><trkpt lat="44.0549166" lon="11.3903414"><ele>806.75</ele><time>2026-04-25T13:10:41.307Z</time></trkpt><trkpt lat="44.0548405" lon="11.3904775"><ele>804.5</ele><time>2026-04-25T13:10:42.325Z</time></trkpt><trkpt lat="44.0547374" lon="11.3905769"><ele>802.25</ele><time>2026-04-25T13:10:43.312Z</time></trkpt><trkpt lat="44.054614" lon="11.3906366"><ele>800.0</ele><time>2026-04-25T13:10:44.318Z</time></trkpt><trkpt lat="44.0544817" lon="11.3906435"><ele>800.0</ele><time>2026-04-25T13:10:45.307Z</time></trkpt><trkpt lat="44.054329" lon="11.3906138"><ele>800.0</ele><time>2026-04-25T13:10:46.321Z</time></trkpt><trkpt lat="44.0541549" lon="11.3905478"><ele>800.0</ele><time>2026-04-25T13:10:47.31Z</time></trkpt><trkpt lat="44.0539819" lon="11.390483"><ele>810.0</ele><time>2026-04-25T13:10:48.322Z</time></trkpt><trkpt lat="44.0538044" lon="11.3904333"><ele>820.0</ele><time>2026-04-25T13:10:49.314Z</time></trkpt><trkpt lat="44.0536166" lon="11.3903866"><ele>830.0</ele><time>2026-04-25T13:10:50.291Z</time></trkpt><trkpt lat="44.0534192" lon="11.390361"><ele>826.6666666666667</ele><time>2026-04-25T13:10:51.311Z</time></trkpt><trkpt lat="44.0532314" lon="11.3903804"><ele>823.3333333333333</ele><time>2026-04-25T13:10:52.298Z</time></trkpt><trkpt lat="44.0530761" lon="11.3904359"><ele>820.0</ele><time>2026-04-25T13:10:53.306Z</time></trkpt><trkpt lat="44.052927" lon="11.3904962"><ele>820.0</ele><time>2026-04-25T13:10:54.303Z</time></trkpt><trkpt lat="44.0527851" lon="11.390511"><ele>820.0</ele><time>2026-04-25T13:10:55.311Z</time></trkpt><trkpt lat="44.0526346" lon="11.3904837"><ele>820.0</ele><time>2026-04-25T13:10:56.313Z</time></trkpt><trkpt lat="44.0524522" lon="11.3904131"><ele>819.3333333333333</ele><time>2026-04-25T13:10:57.319Z</time></trkpt><trkpt lat="44.0522743" lon="11.3903393"><ele>818.6666666666667</ele><time>2026-04-25T13:10:58.317Z</time></trkpt><trkpt lat="44.0520819" lon="11.3902496"><ele>818.0</ele><time>2026-04-25T13:10:59.304Z</time></trkpt><trkpt lat="44.0518861" lon="11.3901562"><ele>818.0</ele><time>2026-04-25T13:11:00.316Z</time></trkpt><trkpt lat="44.0516989" lon="11.3900879"><ele>818.0</ele><time>2026-04-25T13:11:01.306Z</time></trkpt><trkpt lat="44.0515244" lon="11.3900641"><ele>818.0</ele><time>2026-04-25T13:11:02.311Z</time></trkpt><trkpt lat="44.0513528" lon="11.3900818"><ele>818.6666666666667</ele><time>2026-04-25T13:11:03.307Z</time></trkpt><trkpt lat="44.0511924" lon="11.3900997"><ele>819.3333333333333</ele><time>2026-04-25T13:11:04.299Z</time></trkpt><trkpt lat="44.0510243" lon="11.3900784"><ele>820.0</ele><time>2026-04-25T13:11:05.316Z</time></trkpt><trkpt lat="44.0508516" lon="11.389977"><ele>823.0</ele><time>2026-04-25T13:11:06.3Z</time></trkpt><trkpt lat="44.0506964" lon="11.389867"><ele>826.0</ele><time>2026-04-25T13:11:07.342Z</time></trkpt><trkpt lat="44.0505259" lon="11.389754"><ele>829.0</ele><time>2026-04-25T13:11:08.314Z</time></trkpt><trkpt lat="44.0503372" lon="11.3896625"><ele>835.3333333333333</ele><time>2026-04-25T13:11:09.316Z</time></trkpt><trkpt lat="44.0501335" lon="11.3896048"><ele>841.6666666666667</ele><time>2026-04-25T13:11:10.302Z</time></trkpt><trkpt lat="44.0499438" lon="11.3895812"><ele>848.0</ele><time>2026-04-25T13:11:11.313Z</time></trkpt><trkpt lat="44.0497556" lon="11.3896013"><ele>846.6666666666667</ele><time>2026-04-25T13:11:12.315Z</time></trkpt><trkpt lat="44.0495665" lon="11.3896638"><ele>845.3333333333333</ele><time>2026-04-25T13:11:13.317Z</time></trkpt><trkpt lat="44.0493925" lon="11.3897695"><ele>844.0</ele><time>2026-04-25T13:11:14.311Z</time></trkpt><trkpt lat="44.0492332" lon="11.3898812"><ele>845.25</ele><time>2026-04-25T13:11:15.307Z</time></trkpt><trkpt lat="44.049121" lon="11.3899913"><ele>846.5</ele><time>2026-04-25T13:11:16.325Z</time></trkpt><trkpt lat="44.049032" lon="11.3901103"><ele>847.75</ele><time>2026-04-25T13:11:17.307Z</time></trkpt><trkpt lat="44.0489766" lon="11.3902885"><ele>849.0</ele><time>2026-04-25T13:11:18.315Z</time></trkpt><trkpt lat="44.0489422" lon="11.3905182"><ele>849.0</ele><time>2026-04-25T13:11:19.31Z</time></trkpt><trkpt lat="44.0488749" lon="11.390761"><ele>849.0</ele><time>2026-04-25T13:11:20.327Z</time></trkpt><trkpt lat="44.0487831" lon="11.3909761"><ele>849.0</ele><time>2026-04-25T13:11:21.314Z</time></trkpt><trkpt lat="44.048691" lon="11.391169"><ele>848.2</ele><time>2026-04-25T13:11:22.311Z</time></trkpt><trkpt lat="44.0486283" lon="11.3913428"><ele>847.4000000000001</ele><time>2026-04-25T13:11:23.327Z</time></trkpt><trkpt lat="44.0485974" lon="11.3915078"><ele>846.6</ele><time>2026-04-25T13:11:24.328Z</time></trkpt><trkpt lat="44.0485525" lon="11.3916211"><ele>845.8</ele><time>2026-04-25T13:11:25.324Z</time></trkpt><trkpt lat="44.0484963" lon="11.3916652"><ele>845.0</ele><time>2026-04-25T13:11:26.322Z</time></trkpt><trkpt lat="44.0484318" lon="11.3916335"><ele>845.0</ele><time>2026-04-25T13:11:27.315Z</time></trkpt><trkpt lat="44.0484133" lon="11.3915197"><ele>845.0</ele><time>2026-04-25T13:11:28.299Z</time></trkpt><trkpt lat="44.0484024" lon="11.3913771"><ele>845.0</ele><time>2026-04-25T13:11:29.321Z</time></trkpt><trkpt lat="44.0483774" lon="11.3911874"><ele>845.0</ele><time>2026-04-25T13:11:30.311Z</time></trkpt><trkpt lat="44.0483225" lon="11.390986"><ele>847.0</ele><time>2026-04-25T13:11:31.324Z</time></trkpt><trkpt lat="44.0482575" lon="11.3907908"><ele>849.0</ele><time>2026-04-25T13:11:32.326Z</time></trkpt><trkpt lat="44.0481807" lon="11.3906159"><ele>851.0</ele><time>2026-04-25T13:11:33.325Z</time></trkpt><trkpt lat="44.0481026" lon="11.390467"><ele>853.0</ele><time>2026-04-25T13:11:34.315Z</time></trkpt><trkpt lat="44.0480135" lon="11.390339"><ele>856.5</ele><time>2026-04-25T13:11:35.309Z</time></trkpt><trkpt lat="44.0478952" lon="11.3903036"><ele>860.0</ele><time>2026-04-25T13:11:36.321Z</time></trkpt><trkpt lat="44.0477416" lon="11.3903142"><ele>863.5</ele><time>2026-04-25T13:11:37.31Z</time></trkpt><trkpt lat="44.0475923" lon="11.3903851"><ele>867.0</ele><time>2026-04-25T13:11:38.287Z</time></trkpt><trkpt lat="44.0474816" lon="11.3904762"><ele>864.8</ele><time>2026-04-25T13:11:39.316Z</time></trkpt><trkpt lat="44.0473974" lon="11.3905291"><ele>862.6</ele><time>2026-04-25T13:11:40.311Z</time></trkpt><trkpt lat="44.0473223" lon="11.3905307"><ele>860.3999999999999</ele><time>2026-04-25T13:11:41.308Z</time></trkpt><trkpt lat="44.0472617" lon="11.3904649"><ele>858.1999999999999</ele><time>2026-04-25T13:11:42.329Z</time></trkpt><trkpt lat="44.0472183" lon="11.3903246"><ele>856.0</ele><time>2026-04-25T13:11:43.325Z</time></trkpt><trkpt lat="44.0472038" lon="11.39015"><ele>856.0</ele><time>2026-04-25T13:11:44.315Z</time></trkpt><trkpt lat="44.0471936" lon="11.3899614"><ele>856.0</ele><time>2026-04-25T13:11:45.322Z</time></trkpt><trkpt lat="44.0471752" lon="11.3897347"><ele>856.0</ele><time>2026-04-25T13:11:46.31Z</time></trkpt><trkpt lat="44.0471486" lon="11.3894874"><ele>859.5</ele><time>2026-04-25T13:11:47.298Z</time></trkpt><trkpt lat="44.0471113" lon="11.3892577"><ele>863.0</ele><time>2026-04-25T13:11:48.314Z</time></trkpt><trkpt lat="44.0470858" lon="11.3890659"><ele>866.5</ele><time>2026-04-25T13:11:49.323Z</time></trkpt><trkpt lat="44.047078" lon="11.3888924"><ele>870.0</ele><time>2026-04-25T13:11:50.324Z</time></trkpt><trkpt lat="44.0470939" lon="11.3887376"><ele>871.8333333333334</ele><time>2026-04-25T13:11:51.315Z</time></trkpt><trkpt lat="44.0471104" lon="11.3886099"><ele>873.6666666666667</ele><time>2026-04-25T13:11:52.302Z</time></trkpt><trkpt lat="44.0471122" lon="11.3884892"><ele>875.5</ele><time>2026-04-25T13:11:53.308Z</time></trkpt><trkpt lat="44.0471083" lon="11.3883863"><ele>877.3333333333334</ele><time>2026-04-25T13:11:54.309Z</time></trkpt><trkpt lat="44.04709" lon="11.3883003"><ele>879.1666666666667</ele><time>2026-04-25T13:11:55.322Z</time></trkpt><trkpt lat="44.0470472" lon="11.3881803"><ele>881.0</ele><time>2026-04-25T13:11:57.316Z</time></trkpt><trkpt lat="44.0469862" lon="11.3881151"><ele>881.0000000000001</ele><time>2026-04-25T13:11:59.314Z</time></trkpt><trkpt lat="44.0469151" lon="11.3880579"><ele>881.0</ele><time>2026-04-25T13:12:01.314Z</time></trkpt><trkpt lat="44.0468711" lon="11.3879813"><ele>881.0</ele><time>2026-04-25T13:12:03.311Z</time></trkpt><trkpt lat="44.0468133" lon="11.3879104"><ele>881.0</ele><time>2026-04-25T13:12:06.298Z</time></trkpt><trkpt lat="44.0467492" lon="11.3879194"><ele>881.0000000000001</ele><time>2026-04-25T13:12:55.322Z</time></trkpt><trkpt lat="44.0466711" lon="11.3878914"><ele>881.0</ele><time>2026-04-25T13:16:26.307Z</time></trkpt><trkpt lat="44.0465991" lon="11.3878617"><ele>879.75</ele><time>2026-04-25T13:16:28.301Z</time></trkpt><trkpt lat="44.0465345" lon="11.3878276"><ele>878.5</ele><time>2026-04-25T13:16:29.303Z</time></trkpt><trkpt lat="44.0464197" lon="11.3877596"><ele>877.25</ele><time>2026-04-25T13:16:30.314Z</time></trkpt><trkpt lat="44.0462995" lon="11.3876779"><ele>876.0</ele><time>2026-04-25T13:16:31.312Z</time></trkpt><trkpt lat="44.0461693" lon="11.3875829"><ele>876.0</ele><time>2026-04-25T13:16:32.326Z</time></trkpt><trkpt lat="44.0460298" lon="11.3874702"><ele>876.0</ele><time>2026-04-25T13:16:33.297Z</time></trkpt><trkpt lat="44.0458984" lon="11.3873702"><ele>876.0</ele><time>2026-04-25T13:16:34.319Z</time></trkpt><trkpt lat="44.0457639" lon="11.387325"><ele>876.0</ele><time>2026-04-25T13:16:35.328Z</time></trkpt><trkpt lat="44.0456379" lon="11.387319"><ele>874.3333333333333</ele><time>2026-04-25T13:16:36.322Z</time></trkpt><trkpt lat="44.0455031" lon="11.3873587"><ele>872.6666666666666</ele><time>2026-04-25T13:16:37.323Z</time></trkpt><trkpt lat="44.0453483" lon="11.3874016"><ele>871.0</ele><time>2026-04-25T13:16:38.311Z</time></trkpt><trkpt lat="44.0451803" lon="11.3874739"><ele>871.0</ele><time>2026-04-25T13:16:39.32Z</time></trkpt><trkpt lat="44.0450222" lon="11.3875386"><ele>871.0</ele><time>2026-04-25T13:16:40.298Z</time></trkpt><trkpt lat="44.0448817" lon="11.3876188"><ele>871.0</ele><time>2026-04-25T13:16:41.31Z</time></trkpt><trkpt lat="44.0447581" lon="11.387696"><ele>870.0</ele><time>2026-04-25T13:16:42.305Z</time></trkpt><trkpt lat="44.0446653" lon="11.3877533"><ele>868.9999999999999</ele><time>2026-04-25T13:16:43.316Z</time></trkpt><trkpt lat="44.0445833" lon="11.3877823"><ele>867.9999999999999</ele><time>2026-04-25T13:16:44.318Z</time></trkpt><trkpt lat="44.0445105" lon="11.3877812"><ele>867.0</ele><time>2026-04-25T13:16:45.324Z</time></trkpt><trkpt lat="44.0444476" lon="11.3876154"><ele>866.0</ele><time>2026-04-25T13:16:47.329Z</time></trkpt><trkpt lat="44.0444666" lon="11.3873872"><ele>866.0</ele><time>2026-04-25T13:16:48.331Z</time></trkpt><trkpt lat="44.0444848" lon="11.387182"><ele>866.0</ele><time>2026-04-25T13:16:49.317Z</time></trkpt><trkpt lat="44.0444876" lon="11.3869927"><ele>866.0</ele><time>2026-04-25T13:16:50.313Z</time></trkpt><trkpt lat="44.0444741" lon="11.386815"><ele>866.0</ele><time>2026-04-25T13:16:51.31Z</time></trkpt><trkpt lat="44.0445263" lon="11.3866797"><ele>862.0</ele><time>2026-04-25T13:16:52.314Z</time></trkpt><trkpt lat="44.0446369" lon="11.3865708"><ele>858.0</ele><time>2026-04-25T13:16:53.301Z</time></trkpt><trkpt lat="44.0447642" lon="11.3864892"><ele>854.0</ele><time>2026-04-25T13:16:54.321Z</time></trkpt><trkpt lat="44.044884" lon="11.3864038"><ele>850.0</ele><time>2026-04-25T13:16:55.314Z</time></trkpt><trkpt lat="44.0449858" lon="11.386332"><ele>849.0</ele><time>2026-04-25T13:16:56.305Z</time></trkpt><trkpt lat="44.0450918" lon="11.38624"><ele>848.0</ele><time>2026-04-25T13:16:57.309Z</time></trkpt><trkpt lat="44.0451839" lon="11.3861374"><ele>847.0</ele><time>2026-04-25T13:16:58.326Z</time></trkpt><trkpt lat="44.0452678" lon="11.3860194"><ele>846.0</ele><time>2026-04-25T13:16:59.317Z</time></trkpt><trkpt lat="44.0453524" lon="11.3858854"><ele>846.0</ele><time>2026-04-25T13:17:00.325Z</time></trkpt><trkpt lat="44.0454246" lon="11.3857957"><ele>846.0</ele><time>2026-04-25T13:17:01.312Z</time></trkpt><trkpt lat="44.0454883" lon="11.3857189"><ele>846.0</ele><time>2026-04-25T13:17:02.312Z</time></trkpt><trkpt lat="44.0454999" lon="11.3856041"><ele>846.0</ele><time>2026-04-25T13:17:03.307Z</time></trkpt><trkpt lat="44.0454734" lon="11.3854912"><ele>846.0</ele><time>2026-04-25T13:17:04.303Z</time></trkpt><trkpt lat="44.0454079" lon="11.3854455"><ele>846.0</ele><time>2026-04-25T13:17:05.321Z</time></trkpt><trkpt lat="44.0453004" lon="11.385434"><ele>842.5</ele><time>2026-04-25T13:17:06.323Z</time></trkpt><trkpt lat="44.0451759" lon="11.3854603"><ele>839.0</ele><time>2026-04-25T13:17:07.307Z</time></trkpt><trkpt lat="44.0450576" lon="11.3854428"><ele>835.5</ele><time>2026-04-25T13:17:08.312Z</time></trkpt><trkpt lat="44.0449472" lon="11.3853872"><ele>832.0</ele><time>2026-04-25T13:17:09.321Z</time></trkpt><trkpt lat="44.0448567" lon="11.385322"><ele>832.25</ele><time>2026-04-25T13:17:10.32Z</time></trkpt><trkpt lat="44.0447436" lon="11.3853322"><ele>832.5</ele><time>2026-04-25T13:17:11.313Z</time></trkpt><trkpt lat="44.0446182" lon="11.3854134"><ele>832.75</ele><time>2026-04-25T13:17:12.324Z</time></trkpt><trkpt lat="44.0445202" lon="11.3855362"><ele>833.0</ele><time>2026-04-25T13:17:13.313Z</time></trkpt><trkpt lat="44.0444363" lon="11.385658"><ele>833.0</ele><time>2026-04-25T13:17:14.308Z</time></trkpt><trkpt lat="44.0443648" lon="11.3857719"><ele>833.0</ele><time>2026-04-25T13:17:15.323Z</time></trkpt><trkpt lat="44.0442798" lon="11.3858704"><ele>833.0</ele><time>2026-04-25T13:17:16.313Z</time></trkpt><trkpt lat="44.0441711" lon="11.3859214"><ele>833.0</ele><time>2026-04-25T13:17:17.31Z</time></trkpt><trkpt lat="44.044047" lon="11.3859308"><ele>825.75</ele><time>2026-04-25T13:17:18.306Z</time></trkpt><trkpt lat="44.0439326" lon="11.3859578"><ele>818.5</ele><time>2026-04-25T13:17:19.298Z</time></trkpt><trkpt lat="44.0438239" lon="11.3860043"><ele>811.25</ele><time>2026-04-25T13:17:20.333Z</time></trkpt><trkpt lat="44.0437077" lon="11.3860458"><ele>804.0</ele><time>2026-04-25T13:17:21.32Z</time></trkpt><trkpt lat="44.0435908" lon="11.3861248"><ele>804.0</ele><time>2026-04-25T13:17:22.318Z</time></trkpt><trkpt lat="44.043471" lon="11.3862578"><ele>804.0</ele><time>2026-04-25T13:17:23.313Z</time></trkpt><trkpt lat="44.0433581" lon="11.386387"><ele>804.0</ele><time>2026-04-25T13:17:24.304Z</time></trkpt><trkpt lat="44.0432619" lon="11.386498"><ele>804.0</ele><time>2026-04-25T13:17:25.315Z</time></trkpt><trkpt lat="44.0431897" lon="11.3865939"><ele>803.4000000000001</ele><time>2026-04-25T13:17:26.31Z</time></trkpt><trkpt lat="44.0431445" lon="11.3866551"><ele>802.8</ele><time>2026-04-25T13:17:27.292Z</time></trkpt><trkpt lat="44.0430528" lon="11.3867068"><ele>802.2</ele><time>2026-04-25T13:17:29.31Z</time></trkpt><trkpt lat="44.0430502" lon="11.386613"><ele>801.5999999999999</ele><time>2026-04-25T13:17:31.306Z</time></trkpt><trkpt lat="44.0431463" lon="11.386445"><ele>801.0</ele><time>2026-04-25T13:17:32.315Z</time></trkpt><trkpt lat="44.0432516" lon="11.3863073"><ele>802.0</ele><time>2026-04-25T13:17:33.3Z</time></trkpt><trkpt lat="44.0433607" lon="11.3861675"><ele>803.0</ele><time>2026-04-25T13:17:34.312Z</time></trkpt><trkpt lat="44.0434669" lon="11.3860268"><ele>804.0</ele><time>2026-04-25T13:17:35.312Z</time></trkpt><trkpt lat="44.0435774" lon="11.3858511"><ele>804.0</ele><time>2026-04-25T13:17:36.299Z</time></trkpt><trkpt lat="44.0436698" lon="11.3856506"><ele>804.0</ele><time>2026-04-25T13:17:37.317Z</time></trkpt><trkpt lat="44.0437581" lon="11.3854312"><ele>804.0</ele><time>2026-04-25T13:17:38.302Z</time></trkpt><trkpt lat="44.0438393" lon="11.3852188"><ele>798.3333333333333</ele><time>2026-04-25T13:17:39.301Z</time></trkpt><trkpt lat="44.04391" lon="11.3850078"><ele>792.6666666666666</ele><time>2026-04-25T13:17:40.316Z</time></trkpt><trkpt lat="44.0439722" lon="11.3847937"><ele>787.0</ele><time>2026-04-25T13:17:41.295Z</time></trkpt><trkpt lat="44.0440343" lon="11.3845943"><ele>789.4000000000001</ele><time>2026-04-25T13:17:42.306Z</time></trkpt><trkpt lat="44.0440938" lon="11.3844104"><ele>791.8000000000001</ele><time>2026-04-25T13:17:43.317Z</time></trkpt><trkpt lat="44.0441664" lon="11.3842723"><ele>794.2</ele><time>2026-04-25T13:17:44.339Z</time></trkpt><trkpt lat="44.0442333" lon="11.3841659"><ele>796.6</ele><time>2026-04-25T13:17:45.313Z</time></trkpt><trkpt lat="44.0442832" lon="11.3840852"><ele>799.0</ele><time>2026-04-25T13:17:46.307Z</time></trkpt><trkpt lat="44.0442478" lon="11.3839217"><ele>799.0</ele><time>2026-04-25T13:17:48.318Z</time></trkpt><trkpt lat="44.0441772" lon="11.3838801"><ele>799.0</ele><time>2026-04-25T13:17:49.304Z</time></trkpt><trkpt lat="44.0441082" lon="11.3838979"><ele>799.0</ele><time>2026-04-25T13:17:50.313Z</time></trkpt><trkpt lat="44.0440379" lon="11.3839462"><ele>799.0</ele><time>2026-04-25T13:17:51.312Z</time></trkpt><trkpt lat="44.0439826" lon="11.3839979"><ele>799.0</ele><time>2026-04-25T13:17:52.336Z</time></trkpt><trkpt lat="44.0439257" lon="11.3840501"><ele>799.0</ele><time>2026-04-25T13:17:53.318Z</time></trkpt><trkpt lat="44.043872" lon="11.3841077"><ele>799.0</ele><time>2026-04-25T13:17:54.323Z</time></trkpt><trkpt lat="44.0437809" lon="11.3842184"><ele>797.2857142857143</ele><time>2026-04-25T13:17:56.301Z</time></trkpt><trkpt lat="44.0436947" lon="11.3843321"><ele>795.5714285714286</ele><time>2026-04-25T13:17:58.319Z</time></trkpt><trkpt lat="44.0436534" lon="11.3843992"><ele>793.8571428571429</ele><time>2026-04-25T13:17:59.348Z</time></trkpt><trkpt lat="44.0436103" lon="11.3844645"><ele>792.1428571428571</ele><time>2026-04-25T13:18:00.307Z</time></trkpt><trkpt lat="44.0435673" lon="11.384534"><ele>790.4285714285713</ele><time>2026-04-25T13:18:01.291Z</time></trkpt><trkpt lat="44.0435244" lon="11.3846032"><ele>788.7142857142857</ele><time>2026-04-25T13:18:02.316Z</time></trkpt><trkpt lat="44.0434855" lon="11.3846763"><ele>787.0</ele><time>2026-04-25T13:18:03.331Z</time></trkpt><trkpt lat="44.0434188" lon="11.3847967"><ele>787.0</ele><time>2026-04-25T13:18:05.305Z</time></trkpt><trkpt lat="44.0433641" lon="11.3848818"><ele>787.0</ele><time>2026-04-25T13:18:08.283Z</time></trkpt><trkpt lat="44.0433191" lon="11.3849772"><ele>787.0</ele><time>2026-04-25T13:18:44.306Z</time></trkpt><trkpt lat="44.0432702" lon="11.3850775"><ele>787.0</ele><time>2026-04-25T13:18:46.303Z</time></trkpt><trkpt lat="44.04318" lon="11.3851379"><ele>787.0</ele><time>2026-04-25T13:18:48.292Z</time></trkpt><trkpt lat="44.043151" lon="11.3849632"><ele>782.5</ele><time>2026-04-25T13:18:50.315Z</time></trkpt><trkpt lat="44.0431946" lon="11.3848033"><ele>778.0</ele><time>2026-04-25T13:18:51.319Z</time></trkpt><trkpt lat="44.0432521" lon="11.3846351"><ele>773.5</ele><time>2026-04-25T13:18:52.307Z</time></trkpt><trkpt lat="44.0433286" lon="11.3844808"><ele>769.0</ele><time>2026-04-25T13:18:53.331Z</time></trkpt><trkpt lat="44.0434158" lon="11.3843171"><ele>769.0</ele><time>2026-04-25T13:18:54.321Z</time></trkpt><trkpt lat="44.0435094" lon="11.3841517"><ele>769.0</ele><time>2026-04-25T13:18:55.299Z</time></trkpt><trkpt lat="44.043607" lon="11.3839609"><ele>769.0</ele><time>2026-04-25T13:18:56.322Z</time></trkpt><trkpt lat="44.043702" lon="11.3837594"><ele>765.5</ele><time>2026-04-25T13:18:57.309Z</time></trkpt><trkpt lat="44.0437944" lon="11.3835818"><ele>762.0</ele><time>2026-04-25T13:18:58.327Z</time></trkpt><trkpt lat="44.0438868" lon="11.3834236"><ele>758.5</ele><time>2026-04-25T13:18:59.292Z</time></trkpt><trkpt lat="44.0439633" lon="11.3832573"><ele>755.0</ele><time>2026-04-25T13:19:00.31Z</time></trkpt><trkpt lat="44.0440247" lon="11.3830732"><ele>753.75</ele><time>2026-04-25T13:19:01.321Z</time></trkpt><trkpt lat="44.0440766" lon="11.3828773"><ele>752.5</ele><time>2026-04-25T13:19:02.302Z</time></trkpt><trkpt lat="44.0441188" lon="11.3826819"><ele>751.25</ele><time>2026-04-25T13:19:03.319Z</time></trkpt><trkpt lat="44.0441475" lon="11.3824787"><ele>750.0</ele><time>2026-04-25T13:19:04.318Z</time></trkpt><trkpt lat="44.0441775" lon="11.3822753"><ele>755.0</ele><time>2026-04-25T13:19:05.321Z</time></trkpt><trkpt lat="44.0441941" lon="11.3820803"><ele>760.0</ele><time>2026-04-25T13:19:06.308Z</time></trkpt><trkpt lat="44.0442078" lon="11.3818875"><ele>765.0</ele><time>2026-04-25T13:19:07.325Z</time></trkpt><trkpt lat="44.0442179" lon="11.3816973"><ele>770.0</ele><time>2026-04-25T13:19:08.318Z</time></trkpt><trkpt lat="44.0442241" lon="11.3815114"><ele>771.75</ele><time>2026-04-25T13:19:09.325Z</time></trkpt><trkpt lat="44.0442231" lon="11.3813339"><ele>773.5</ele><time>2026-04-25T13:19:10.316Z</time></trkpt><trkpt lat="44.0442095" lon="11.3811671"><ele>775.25</ele><time>2026-04-25T13:19:11.306Z</time></trkpt><trkpt lat="44.0441557" lon="11.3810351"><ele>777.0</ele><time>2026-04-25T13:19:12.318Z</time></trkpt><trkpt lat="44.0440374" lon="11.3809482"><ele>771.0</ele><time>2026-04-25T13:19:13.312Z</time></trkpt><trkpt lat="44.0438721" lon="11.3809097"><ele>765.0</ele><time>2026-04-25T13:19:14.311Z</time></trkpt><trkpt lat="44.0437289" lon="11.3808686"><ele>759.0</ele><time>2026-04-25T13:19:15.336Z</time></trkpt><trkpt lat="44.0436011" lon="11.3808127"><ele>753.0</ele><time>2026-04-25T13:19:16.306Z</time></trkpt><trkpt lat="44.0434951" lon="11.380706"><ele>753.0</ele><time>2026-04-25T13:19:17.323Z</time></trkpt><trkpt lat="44.0434411" lon="11.3805379"><ele>753.0</ele><time>2026-04-25T13:19:18.318Z</time></trkpt><trkpt lat="44.0434185" lon="11.3803158"><ele>753.0</ele><time>2026-04-25T13:19:19.308Z</time></trkpt><trkpt lat="44.0434143" lon="11.3800828"><ele>754.75</ele><time>2026-04-25T13:19:20.315Z</time></trkpt><trkpt lat="44.0434026" lon="11.3798602"><ele>756.5</ele><time>2026-04-25T13:19:21.291Z</time></trkpt><trkpt lat="44.043384" lon="11.3796631"><ele>758.25</ele><time>2026-04-25T13:19:22.309Z</time></trkpt><trkpt lat="44.0433448" lon="11.3795039"><ele>760.0</ele><time>2026-04-25T13:19:23.322Z</time></trkpt><trkpt lat="44.0432836" lon="11.3793605"><ele>763.5</ele><time>2026-04-25T13:19:24.304Z</time></trkpt><trkpt lat="44.0432078" lon="11.3792493"><ele>767.0</ele><time>2026-04-25T13:19:25.321Z</time></trkpt><trkpt lat="44.0431033" lon="11.3791984"><ele>770.5</ele><time>2026-04-25T13:19:26.295Z</time></trkpt><trkpt lat="44.0429713" lon="11.3792052"><ele>774.0</ele><time>2026-04-25T13:19:27.307Z</time></trkpt><trkpt lat="44.0428303" lon="11.3792389"><ele>774.0</ele><time>2026-04-25T13:19:28.305Z</time></trkpt><trkpt lat="44.0426707" lon="11.379293"><ele>774.0</ele><time>2026-04-25T13:19:29.326Z</time></trkpt><trkpt lat="44.0425147" lon="11.3793347"><ele>774.0</ele><time>2026-04-25T13:19:30.324Z</time></trkpt><trkpt lat="44.0423706" lon="11.3793729"><ele>772.0</ele><time>2026-04-25T13:19:31.319Z</time></trkpt><trkpt lat="44.0422231" lon="11.3794408"><ele>770.0</ele><time>2026-04-25T13:19:32.3Z</time></trkpt><trkpt lat="44.042072" lon="11.379552"><ele>768.0</ele><time>2026-04-25T13:19:33.303Z</time></trkpt><trkpt lat="44.0419581" lon="11.3797266"><ele>765.0</ele><time>2026-04-25T13:19:34.318Z</time></trkpt><trkpt lat="44.0418715" lon="11.3799198"><ele>762.0</ele><time>2026-04-25T13:19:35.336Z</time></trkpt><trkpt lat="44.0417881" lon="11.3800834"><ele>759.0</ele><time>2026-04-25T13:19:36.312Z</time></trkpt><trkpt lat="44.0417148" lon="11.380227"><ele>756.0</ele><time>2026-04-25T13:19:37.307Z</time></trkpt><trkpt lat="44.0416398" lon="11.3803171"><ele>749.8</ele><time>2026-04-25T13:19:38.309Z</time></trkpt><trkpt lat="44.0415547" lon="11.3803711"><ele>743.5999999999999</ele><time>2026-04-25T13:19:39.299Z</time></trkpt><trkpt lat="44.041463" lon="11.3803705"><ele>737.4</ele><time>2026-04-25T13:19:40.319Z</time></trkpt><trkpt lat="44.0413768" lon="11.380291"><ele>731.2</ele><time>2026-04-25T13:19:41.315Z</time></trkpt><trkpt lat="44.0412801" lon="11.3801281"><ele>725.0</ele><time>2026-04-25T13:19:42.304Z</time></trkpt><trkpt lat="44.0411807" lon="11.3799681"><ele>725.0</ele><time>2026-04-25T13:19:43.308Z</time></trkpt><trkpt lat="44.0411161" lon="11.3798429"><ele>725.0</ele><time>2026-04-25T13:19:44.305Z</time></trkpt><trkpt lat="44.0411001" lon="11.3797042"><ele>725.0</ele><time>2026-04-25T13:19:45.303Z</time></trkpt><trkpt lat="44.0411407" lon="11.3795437"><ele>725.0</ele><time>2026-04-25T13:19:46.321Z</time></trkpt><trkpt lat="44.0412226" lon="11.379392"><ele>726.5</ele><time>2026-04-25T13:19:47.311Z</time></trkpt><trkpt lat="44.0413157" lon="11.3792406"><ele>728.0</ele><time>2026-04-25T13:19:48.321Z</time></trkpt><trkpt lat="44.0413932" lon="11.3790833"><ele>729.5</ele><time>2026-04-25T13:19:49.298Z</time></trkpt><trkpt lat="44.0414083" lon="11.378928"><ele>731.0</ele><time>2026-04-25T13:19:50.305Z</time></trkpt><trkpt lat="44.0413509" lon="11.3787771"><ele>733.3333333333333</ele><time>2026-04-25T13:19:51.316Z</time></trkpt><trkpt lat="44.0412529" lon="11.3786354"><ele>735.6666666666666</ele><time>2026-04-25T13:19:52.302Z</time></trkpt><trkpt lat="44.0411237" lon="11.378512"><ele>738.0</ele><time>2026-04-25T13:19:53.315Z</time></trkpt><trkpt lat="44.0409936" lon="11.3783994"><ele>738.0</ele><time>2026-04-25T13:19:54.33Z</time></trkpt><trkpt lat="44.0408594" lon="11.3783067"><ele>738.0</ele><time>2026-04-25T13:19:55.298Z</time></trkpt><trkpt lat="44.0407374" lon="11.3782288"><ele>738.0</ele><time>2026-04-25T13:19:56.311Z</time></trkpt><trkpt lat="44.0406575" lon="11.3781248"><ele>738.0</ele><time>2026-04-25T13:19:57.317Z</time></trkpt><trkpt lat="44.0406429" lon="11.377969"><ele>735.3333333333334</ele><time>2026-04-25T13:19:58.308Z</time></trkpt><trkpt lat="44.0406882" lon="11.3777722"><ele>732.6666666666667</ele><time>2026-04-25T13:19:59.308Z</time></trkpt><trkpt lat="44.040768" lon="11.377593"><ele>730.0</ele><time>2026-04-25T13:20:00.312Z</time></trkpt><trkpt lat="44.0408866" lon="11.3774478"><ele>730.0</ele><time>2026-04-25T13:20:01.303Z</time></trkpt><trkpt lat="44.041014" lon="11.3773544"><ele>730.0</ele><time>2026-04-25T13:20:02.328Z</time></trkpt><trkpt lat="44.041125" lon="11.3772774"><ele>730.0</ele><time>2026-04-25T13:20:03.324Z</time></trkpt><trkpt lat="44.041212" lon="11.3771763"><ele>730.0</ele><time>2026-04-25T13:20:04.303Z</time></trkpt><trkpt lat="44.0412542" lon="11.3770551"><ele>728.4</ele><time>2026-04-25T13:20:05.306Z</time></trkpt><trkpt lat="44.0412431" lon="11.3769162"><ele>726.8</ele><time>2026-04-25T13:20:06.317Z</time></trkpt><trkpt lat="44.0411792" lon="11.3767938"><ele>725.2</ele><time>2026-04-25T13:20:07.305Z</time></trkpt><trkpt lat="44.0410837" lon="11.3767214"><ele>723.6</ele><time>2026-04-25T13:20:08.337Z</time></trkpt><trkpt lat="44.0409838" lon="11.3766771"><ele>722.0</ele><time>2026-04-25T13:20:09.319Z</time></trkpt><trkpt lat="44.040897" lon="11.3766112"><ele>722.0</ele><time>2026-04-25T13:20:10.314Z</time></trkpt><trkpt lat="44.0408362" lon="11.3764908"><ele>722.0</ele><time>2026-04-25T13:20:11.307Z</time></trkpt><trkpt lat="44.0408165" lon="11.3763012"><ele>722.0</ele><time>2026-04-25T13:20:12.314Z</time></trkpt><trkpt lat="44.0408171" lon="11.3760972"><ele>722.0</ele><time>2026-04-25T13:20:13.316Z</time></trkpt><trkpt lat="44.0408188" lon="11.3759003"><ele>720.8</ele><time>2026-04-25T13:20:14.312Z</time></trkpt><trkpt lat="44.0408196" lon="11.3757175"><ele>719.6</ele><time>2026-04-25T13:20:15.311Z</time></trkpt><trkpt lat="44.040824" lon="11.3755705"><ele>718.4</ele><time>2026-04-25T13:20:16.317Z</time></trkpt><trkpt lat="44.0408081" lon="11.375445"><ele>717.1999999999999</ele><time>2026-04-25T13:20:17.301Z</time></trkpt><trkpt lat="44.0407528" lon="11.3753358"><ele>716.0</ele><time>2026-04-25T13:20:18.325Z</time></trkpt><trkpt lat="44.0406337" lon="11.3753058"><ele>716.0</ele><time>2026-04-25T13:20:19.311Z</time></trkpt><trkpt lat="44.0405003" lon="11.3753369"><ele>716.0</ele><time>2026-04-25T13:20:20.297Z</time></trkpt><trkpt lat="44.0403849" lon="11.3753624"><ele>716.0</ele><time>2026-04-25T13:20:21.316Z</time></trkpt><trkpt lat="44.0402549" lon="11.3753203"><ele>716.0</ele><time>2026-04-25T13:20:22.305Z</time></trkpt><trkpt lat="44.0401357" lon="11.3752723"><ele>716.0</ele><time>2026-04-25T13:20:23.317Z</time></trkpt><trkpt lat="44.0400072" lon="11.3752573"><ele>716.0</ele><time>2026-04-25T13:20:24.312Z</time></trkpt><trkpt lat="44.0398645" lon="11.3752691"><ele>716.0</ele><time>2026-04-25T13:20:25.334Z</time></trkpt><trkpt lat="44.0397149" lon="11.375322"><ele>716.0</ele><time>2026-04-25T13:20:26.31Z</time></trkpt><trkpt lat="44.0395637" lon="11.375358"><ele>711.3333333333333</ele><time>2026-04-25T13:20:27.295Z</time></trkpt><trkpt lat="44.0394076" lon="11.375403"><ele>706.6666666666666</ele><time>2026-04-25T13:20:28.32Z</time></trkpt><trkpt lat="44.0392434" lon="11.3754477"><ele>702.0</ele><time>2026-04-25T13:20:29.315Z</time></trkpt><trkpt lat="44.039087" lon="11.3755089"><ele>700.3333333333334</ele><time>2026-04-25T13:20:30.318Z</time></trkpt><trkpt lat="44.0389368" lon="11.3755914"><ele>698.6666666666667</ele><time>2026-04-25T13:20:31.321Z</time></trkpt><trkpt lat="44.038793" lon="11.3756976"><ele>697.0</ele><time>2026-04-25T13:20:32.307Z</time></trkpt><trkpt lat="44.0386604" lon="11.3758203"><ele>697.0</ele><time>2026-04-25T13:20:33.311Z</time></trkpt><trkpt lat="44.0385426" lon="11.3759363"><ele>697.0</ele><time>2026-04-25T13:20:34.318Z</time></trkpt><trkpt lat="44.0384247" lon="11.3760497"><ele>697.0</ele><time>2026-04-25T13:20:35.331Z</time></trkpt><trkpt lat="44.0383222" lon="11.3761646"><ele>697.0</ele><time>2026-04-25T13:20:36.325Z</time></trkpt><trkpt lat="44.0382304" lon="11.3762524"><ele>693.0</ele><time>2026-04-25T13:20:37.301Z</time></trkpt><trkpt lat="44.0381378" lon="11.3763083"><ele>689.0</ele><time>2026-04-25T13:20:38.299Z</time></trkpt><trkpt lat="44.0380457" lon="11.3763242"><ele>685.0</ele><time>2026-04-25T13:20:39.304Z</time></trkpt><trkpt lat="44.0379371" lon="11.3762613"><ele>681.0</ele><time>2026-04-25T13:20:40.31Z</time></trkpt><trkpt lat="44.0378346" lon="11.3761673"><ele>677.0</ele><time>2026-04-25T13:20:41.309Z</time></trkpt><trkpt lat="44.0377503" lon="11.3760224"><ele>677.0</ele><time>2026-04-25T13:20:42.318Z</time></trkpt><trkpt lat="44.0376802" lon="11.3758412"><ele>677.0</ele><time>2026-04-25T13:20:43.313Z</time></trkpt><trkpt lat="44.0376195" lon="11.3756451"><ele>677.0</ele><time>2026-04-25T13:20:44.307Z</time></trkpt><trkpt lat="44.0375636" lon="11.3754576"><ele>677.0</ele><time>2026-04-25T13:20:45.329Z</time></trkpt><trkpt lat="44.0375055" lon="11.3752822"><ele>671.75</ele><time>2026-04-25T13:20:46.313Z</time></trkpt><trkpt lat="44.0374425" lon="11.3751059"><ele>666.5</ele><time>2026-04-25T13:20:47.327Z</time></trkpt><trkpt lat="44.0373875" lon="11.3749602"><ele>661.25</ele><time>2026-04-25T13:20:48.307Z</time></trkpt><trkpt lat="44.0373266" lon="11.3748412"><ele>656.0</ele><time>2026-04-25T13:20:49.309Z</time></trkpt><trkpt lat="44.0372468" lon="11.3747626"><ele>656.0</ele><time>2026-04-25T13:20:50.302Z</time></trkpt><trkpt lat="44.0371821" lon="11.3746991"><ele>656.0</ele><time>2026-04-25T13:20:51.331Z</time></trkpt><trkpt lat="44.0371352" lon="11.3746249"><ele>656.0</ele><time>2026-04-25T13:20:52.319Z</time></trkpt><trkpt lat="44.0371665" lon="11.3744459"><ele>656.0</ele><time>2026-04-25T13:20:54.312Z</time></trkpt><trkpt lat="44.0372349" lon="11.3743949"><ele>656.0</ele><time>2026-04-25T13:20:55.311Z</time></trkpt><trkpt lat="44.03731" lon="11.3743984"><ele>656.0</ele><time>2026-04-25T13:20:56.316Z</time></trkpt><trkpt lat="44.0373834" lon="11.3744356"><ele>654.6666666666666</ele><time>2026-04-25T13:20:57.323Z</time></trkpt><trkpt lat="44.0374582" lon="11.3744752"><ele>653.3333333333333</ele><time>2026-04-25T13:20:58.304Z</time></trkpt><trkpt lat="44.0375284" lon="11.3744883"><ele>652.0</ele><time>2026-04-25T13:20:59.319Z</time></trkpt><trkpt lat="44.0376016" lon="11.3744656"><ele>650.6666666666666</ele><time>2026-04-25T13:21:00.323Z</time></trkpt><trkpt lat="44.0376596" lon="11.3743915"><ele>649.3333333333334</ele><time>2026-04-25T13:21:01.307Z</time></trkpt><trkpt lat="44.0376916" lon="11.3742883"><ele>648.0</ele><time>2026-04-25T13:21:02.304Z</time></trkpt><trkpt lat="44.0376756" lon="11.3741887"><ele>648.0</ele><time>2026-04-25T13:21:03.289Z</time></trkpt><trkpt lat="44.0376189" lon="11.3741186"><ele>648.0</ele><time>2026-04-25T13:21:04.319Z</time></trkpt><trkpt lat="44.0375385" lon="11.3740795"><ele>648.0</ele><time>2026-04-25T13:21:05.311Z</time></trkpt><trkpt lat="44.0374411" lon="11.3740894"><ele>648.0</ele><time>2026-04-25T13:21:06.326Z</time></trkpt><trkpt lat="44.0373253" lon="11.3741512"><ele>648.0</ele><time>2026-04-25T13:21:07.334Z</time></trkpt><trkpt lat="44.0371917" lon="11.3742083"><ele>648.0</ele><time>2026-04-25T13:21:08.3Z</time></trkpt><trkpt lat="44.0370517" lon="11.374262"><ele>648.0</ele><time>2026-04-25T13:21:09.301Z</time></trkpt><trkpt lat="44.0369158" lon="11.3742962"><ele>648.0</ele><time>2026-04-25T13:21:10.313Z</time></trkpt><trkpt lat="44.0367867" lon="11.3743411"><ele>648.0</ele><time>2026-04-25T13:21:11.319Z</time></trkpt><trkpt lat="44.0366738" lon="11.3744092"><ele>650.0</ele><time>2026-04-25T13:21:12.315Z</time></trkpt><trkpt lat="44.0365995" lon="11.3745244"><ele>652.0</ele><time>2026-04-25T13:21:13.31Z</time></trkpt><trkpt lat="44.0365711" lon="11.3746965"><ele>654.0</ele><time>2026-04-25T13:21:14.316Z</time></trkpt><trkpt lat="44.0366042" lon="11.3748857"><ele>656.0</ele><time>2026-04-25T13:21:15.334Z</time></trkpt><trkpt lat="44.036683" lon="11.3750625"><ele>656.0</ele><time>2026-04-25T13:21:16.319Z</time></trkpt><trkpt lat="44.0367767" lon="11.3752229"><ele>656.0</ele><time>2026-04-25T13:21:17.313Z</time></trkpt><trkpt lat="44.0368881" lon="11.3753245"><ele>656.0</ele><time>2026-04-25T13:21:18.326Z</time></trkpt><trkpt lat="44.036986" lon="11.3754133"><ele>656.0</ele><time>2026-04-25T13:21:19.321Z</time></trkpt><trkpt lat="44.0370366" lon="11.3755241"><ele>652.75</ele><time>2026-04-25T13:21:20.301Z</time></trkpt><trkpt lat="44.0370618" lon="11.3756726"><ele>649.5</ele><time>2026-04-25T13:21:21.331Z</time></trkpt><trkpt lat="44.0370509" lon="11.375858"><ele>646.25</ele><time>2026-04-25T13:21:22.311Z</time></trkpt><trkpt lat="44.037" lon="11.376066"><ele>643.0</ele><time>2026-04-25T13:21:23.319Z</time></trkpt><trkpt lat="44.0369435" lon="11.3762519"><ele>642.1999999999999</ele><time>2026-04-25T13:21:24.309Z</time></trkpt><trkpt lat="44.03692" lon="11.3764401"><ele>641.4</ele><time>2026-04-25T13:21:25.308Z</time></trkpt><trkpt lat="44.0369029" lon="11.3766024"><ele>640.5999999999999</ele><time>2026-04-25T13:21:26.324Z</time></trkpt><trkpt lat="44.036879" lon="11.3767189"><ele>639.8</ele><time>2026-04-25T13:21:27.307Z</time></trkpt><trkpt lat="44.0368287" lon="11.3767989"><ele>639.0</ele><time>2026-04-25T13:21:28.31Z</time></trkpt><trkpt lat="44.0367459" lon="11.3768288"><ele>639.0</ele><time>2026-04-25T13:21:29.324Z</time></trkpt><trkpt lat="44.0366835" lon="11.3767834"><ele>639.0</ele><time>2026-04-25T13:21:30.314Z</time></trkpt><trkpt lat="44.0366643" lon="11.3766526"><ele>639.0</ele><time>2026-04-25T13:21:31.307Z</time></trkpt><trkpt lat="44.0366793" lon="11.3764736"><ele>639.0</ele><time>2026-04-25T13:21:32.309Z</time></trkpt><trkpt lat="44.0367101" lon="11.3762934"><ele>639.0</ele><time>2026-04-25T13:21:33.32Z</time></trkpt><trkpt lat="44.0367468" lon="11.3761139"><ele>640.0</ele><time>2026-04-25T13:21:34.316Z</time></trkpt><trkpt lat="44.0367652" lon="11.3759454"><ele>641.0</ele><time>2026-04-25T13:21:35.309Z</time></trkpt><trkpt lat="44.0367443" lon="11.3757924"><ele>642.0</ele><time>2026-04-25T13:21:36.315Z</time></trkpt><trkpt lat="44.0366761" lon="11.375669"><ele>643.0</ele><time>2026-04-25T13:21:37.311Z</time></trkpt><trkpt lat="44.0365687" lon="11.375568"><ele>636.3333333333334</ele><time>2026-04-25T13:21:38.298Z</time></trkpt><trkpt lat="44.036429" lon="11.3754633"><ele>629.6666666666666</ele><time>2026-04-25T13:21:39.289Z</time></trkpt><trkpt lat="44.0362998" lon="11.3753724"><ele>623.0</ele><time>2026-04-25T13:21:40.307Z</time></trkpt><trkpt lat="44.0361681" lon="11.3752638"><ele>623.0</ele><time>2026-04-25T13:21:41.307Z</time></trkpt><trkpt lat="44.0360666" lon="11.3751318"><ele>623.0</ele><time>2026-04-25T13:21:42.323Z</time></trkpt><trkpt lat="44.0360058" lon="11.3749659"><ele>623.0</ele><time>2026-04-25T13:21:43.293Z</time></trkpt><trkpt lat="44.0359844" lon="11.3747886"><ele>623.0</ele><time>2026-04-25T13:21:44.322Z</time></trkpt><trkpt lat="44.0359804" lon="11.3746095"><ele>623.75</ele><time>2026-04-25T13:21:45.306Z</time></trkpt><trkpt lat="44.0359696" lon="11.3744286"><ele>624.5</ele><time>2026-04-25T13:21:46.308Z</time></trkpt><trkpt lat="44.035933" lon="11.3742709"><ele>625.25</ele><time>2026-04-25T13:21:47.314Z</time></trkpt><trkpt lat="44.0358526" lon="11.3741668"><ele>626.0</ele><time>2026-04-25T13:21:48.311Z</time></trkpt><trkpt lat="44.0357592" lon="11.3740997"><ele>628.25</ele><time>2026-04-25T13:21:49.311Z</time></trkpt><trkpt lat="44.035657" lon="11.37408"><ele>630.5</ele><time>2026-04-25T13:21:50.329Z</time></trkpt><trkpt lat="44.0355544" lon="11.3741411"><ele>632.75</ele><time>2026-04-25T13:21:51.296Z</time></trkpt><trkpt lat="44.0354696" lon="11.374269"><ele>635.0</ele><time>2026-04-25T13:21:52.314Z</time></trkpt><trkpt lat="44.0353981" lon="11.3744351"><ele>635.0</ele><time>2026-04-25T13:21:53.314Z</time></trkpt><trkpt lat="44.0353282" lon="11.3746202"><ele>635.0</ele><time>2026-04-25T13:21:54.306Z</time></trkpt><trkpt lat="44.0352383" lon="11.3747897"><ele>635.0</ele><time>2026-04-25T13:21:55.303Z</time></trkpt><trkpt lat="44.0351129" lon="11.3749467"><ele>631.3333333333333</ele><time>2026-04-25T13:21:56.294Z</time></trkpt><trkpt lat="44.0349769" lon="11.3750943"><ele>627.6666666666666</ele><time>2026-04-25T13:21:57.301Z</time></trkpt><trkpt lat="44.0348433" lon="11.3752445"><ele>624.0</ele><time>2026-04-25T13:21:58.321Z</time></trkpt><trkpt lat="44.0347215" lon="11.3753878"><ele>620.3333333333334</ele><time>2026-04-25T13:21:59.312Z</time></trkpt><trkpt lat="44.0345981" lon="11.3755348"><ele>616.6666666666667</ele><time>2026-04-25T13:22:00.312Z</time></trkpt><trkpt lat="44.0344781" lon="11.3756614"><ele>613.0</ele><time>2026-04-25T13:22:01.308Z</time></trkpt><trkpt lat="44.0343626" lon="11.3757695"><ele>613.0</ele><time>2026-04-25T13:22:02.316Z</time></trkpt><trkpt lat="44.0342441" lon="11.3758293"><ele>613.0</ele><time>2026-04-25T13:22:03.322Z</time></trkpt><trkpt lat="44.0341103" lon="11.3758477"><ele>613.0</ele><time>2026-04-25T13:22:04.314Z</time></trkpt><trkpt lat="44.0339721" lon="11.3758246"><ele>613.0</ele><time>2026-04-25T13:22:05.312Z</time></trkpt><trkpt lat="44.0338357" lon="11.3757564"><ele>611.5</ele><time>2026-04-25T13:22:06.31Z</time></trkpt><trkpt lat="44.0337034" lon="11.3756819"><ele>610.0</ele><time>2026-04-25T13:22:07.307Z</time></trkpt><trkpt lat="44.0335767" lon="11.375638"><ele>608.5</ele><time>2026-04-25T13:22:08.307Z</time></trkpt><trkpt lat="44.0334458" lon="11.3756006"><ele>607.0</ele><time>2026-04-25T13:22:09.308Z</time></trkpt><trkpt lat="44.0333282" lon="11.3756243"><ele>608.0</ele><time>2026-04-25T13:22:10.316Z</time></trkpt><trkpt lat="44.0332185" lon="11.3756789"><ele>609.0</ele><time>2026-04-25T13:22:11.328Z</time></trkpt><trkpt lat="44.0331159" lon="11.3757449"><ele>610.0</ele><time>2026-04-25T13:22:12.326Z</time></trkpt><trkpt lat="44.0330168" lon="11.3758362"><ele>611.0</ele><time>2026-04-25T13:22:13.317Z</time></trkpt><trkpt lat="44.0329359" lon="11.3759475"><ele>611.0</ele><time>2026-04-25T13:22:14.317Z</time></trkpt><trkpt lat="44.0328726" lon="11.3760851"><ele>611.0</ele><time>2026-04-25T13:22:15.323Z</time></trkpt><trkpt lat="44.0328376" lon="11.3762434"><ele>611.0</ele><time>2026-04-25T13:22:16.295Z</time></trkpt><trkpt lat="44.0328094" lon="11.3763993"><ele>611.0</ele><time>2026-04-25T13:22:17.324Z</time></trkpt><trkpt lat="44.0327669" lon="11.3765394"><ele>608.4</ele><time>2026-04-25T13:22:18.328Z</time></trkpt><trkpt lat="44.0327089" lon="11.3766325"><ele>605.8</ele><time>2026-04-25T13:22:19.342Z</time></trkpt><trkpt lat="44.0326433" lon="11.3767105"><ele>603.1999999999999</ele><time>2026-04-25T13:22:20.307Z</time></trkpt><trkpt lat="44.0325576" lon="11.3767796"><ele>600.6</ele><time>2026-04-25T13:22:21.311Z</time></trkpt><trkpt lat="44.0324371" lon="11.3768329"><ele>598.0</ele><time>2026-04-25T13:22:22.31Z</time></trkpt><trkpt lat="44.0323058" lon="11.3768656"><ele>596.75</ele><time>2026-04-25T13:22:23.295Z</time></trkpt><trkpt lat="44.032168" lon="11.3768857"><ele>595.5</ele><time>2026-04-25T13:22:24.307Z</time></trkpt><trkpt lat="44.0320245" lon="11.3769031"><ele>594.25</ele><time>2026-04-25T13:22:25.337Z</time></trkpt><trkpt lat="44.0318709" lon="11.3769194"><ele>593.0</ele><time>2026-04-25T13:22:26.333Z</time></trkpt><trkpt lat="44.0317034" lon="11.3769337"><ele>593.3333333333333</ele><time>2026-04-25T13:22:27.301Z</time></trkpt><trkpt lat="44.0315264" lon="11.3769246"><ele>593.6666666666666</ele><time>2026-04-25T13:22:28.306Z</time></trkpt><trkpt lat="44.0313634" lon="11.3769106"><ele>594.0</ele><time>2026-04-25T13:22:29.307Z</time></trkpt><trkpt lat="44.031206" lon="11.3769012"><ele>594.0</ele><time>2026-04-25T13:22:30.325Z</time></trkpt><trkpt lat="44.0310589" lon="11.3768895"><ele>594.0</ele><time>2026-04-25T13:22:31.33Z</time></trkpt><trkpt lat="44.0309291" lon="11.3768871"><ele>594.0</ele><time>2026-04-25T13:22:32.312Z</time></trkpt><trkpt lat="44.0308127" lon="11.3769121"><ele>594.0</ele><time>2026-04-25T13:22:33.293Z</time></trkpt><trkpt lat="44.0307305" lon="11.3770017"><ele>594.0</ele><time>2026-04-25T13:22:34.293Z</time></trkpt><trkpt lat="44.0306658" lon="11.3771442"><ele>594.0</ele><time>2026-04-25T13:22:35.31Z</time></trkpt><trkpt lat="44.030631" lon="11.377316"><ele>594.0</ele><time>2026-04-25T13:22:36.305Z</time></trkpt><trkpt lat="44.0306069" lon="11.3774768"><ele>594.0</ele><time>2026-04-25T13:22:37.326Z</time></trkpt><trkpt lat="44.0305293" lon="11.3776108"><ele>591.25</ele><time>2026-04-25T13:22:38.287Z</time></trkpt><trkpt lat="44.0304233" lon="11.3776823"><ele>588.5</ele><time>2026-04-25T13:22:39.319Z</time></trkpt><trkpt lat="44.0303011" lon="11.3777405"><ele>585.75</ele><time>2026-04-25T13:22:40.306Z</time></trkpt><trkpt lat="44.0301988" lon="11.377861"><ele>583.0</ele><time>2026-04-25T13:22:41.327Z</time></trkpt><trkpt lat="44.0300885" lon="11.3779924"><ele>581.0</ele><time>2026-04-25T13:22:42.287Z</time></trkpt><trkpt lat="44.0300026" lon="11.3781066"><ele>579.0</ele><time>2026-04-25T13:22:43.307Z</time></trkpt><trkpt lat="44.029918" lon="11.3782266"><ele>577.0</ele><time>2026-04-25T13:22:44.303Z</time></trkpt><trkpt lat="44.0298289" lon="11.3782873"><ele>575.0</ele><time>2026-04-25T13:22:45.305Z</time></trkpt><trkpt lat="44.0297242" lon="11.3782919"><ele>573.0</ele><time>2026-04-25T13:22:46.325Z</time></trkpt><trkpt lat="44.0296163" lon="11.3782697"><ele>571.75</ele><time>2026-04-25T13:22:47.319Z</time></trkpt><trkpt lat="44.0295089" lon="11.3781994"><ele>570.5</ele><time>2026-04-25T13:22:48.307Z</time></trkpt><trkpt lat="44.0294082" lon="11.3781252"><ele>569.25</ele><time>2026-04-25T13:22:49.321Z</time></trkpt><trkpt lat="44.0293024" lon="11.3780362"><ele>568.0</ele><time>2026-04-25T13:22:50.313Z</time></trkpt><trkpt lat="44.0292377" lon="11.3778889"><ele>568.0</ele><time>2026-04-25T13:22:51.311Z</time></trkpt><trkpt lat="44.0292055" lon="11.3777149"><ele>568.0</ele><time>2026-04-25T13:22:52.313Z</time></trkpt><trkpt lat="44.0292173" lon="11.377542"><ele>568.0</ele><time>2026-04-25T13:22:53.314Z</time></trkpt><trkpt lat="44.0292405" lon="11.3773783"><ele>568.0</ele><time>2026-04-25T13:22:54.287Z</time></trkpt><trkpt lat="44.0292634" lon="11.3772296"><ele>567.0</ele><time>2026-04-25T13:22:55.305Z</time></trkpt><trkpt lat="44.0292211" lon="11.3770979"><ele>566.0</ele><time>2026-04-25T13:22:56.311Z</time></trkpt><trkpt lat="44.0290831" lon="11.3769961"><ele>565.0</ele><time>2026-04-25T13:22:57.318Z</time></trkpt><trkpt lat="44.0289316" lon="11.3769335"><ele>564.0</ele><time>2026-04-25T13:22:58.306Z</time></trkpt><trkpt lat="44.0287749" lon="11.3768947"><ele>564.0</ele><time>2026-04-25T13:22:59.302Z</time></trkpt><trkpt lat="44.0286155" lon="11.3768547"><ele>564.0</ele><time>2026-04-25T13:23:00.332Z</time></trkpt><trkpt lat="44.0284562" lon="11.3767818"><ele>564.0</ele><time>2026-04-25T13:23:01.308Z</time></trkpt><trkpt lat="44.0283128" lon="11.3766812"><ele>561.6666666666666</ele><time>2026-04-25T13:23:02.327Z</time></trkpt><trkpt lat="44.0281681" lon="11.3765408"><ele>559.3333333333333</ele><time>2026-04-25T13:23:03.309Z</time></trkpt><trkpt lat="44.0280211" lon="11.3764165"><ele>557.0</ele><time>2026-04-25T13:23:04.296Z</time></trkpt><trkpt lat="44.0278933" lon="11.3762974"><ele>557.0</ele><time>2026-04-25T13:23:05.316Z</time></trkpt><trkpt lat="44.0277798" lon="11.376189"><ele>557.0</ele><time>2026-04-25T13:23:06.333Z</time></trkpt><trkpt lat="44.0276975" lon="11.3760394"><ele>557.0</ele><time>2026-04-25T13:23:07.312Z</time></trkpt><trkpt lat="44.0276455" lon="11.3758714"><ele>557.0</ele><time>2026-04-25T13:23:08.307Z</time></trkpt><trkpt lat="44.0275823" lon="11.3756964"><ele>557.0</ele><time>2026-04-25T13:23:09.331Z</time></trkpt><trkpt lat="44.0274969" lon="11.3755356"><ele>557.0</ele><time>2026-04-25T13:23:10.307Z</time></trkpt><trkpt lat="44.0273906" lon="11.3754019"><ele>557.0</ele><time>2026-04-25T13:23:11.298Z</time></trkpt><trkpt lat="44.0272735" lon="11.3752779"><ele>557.0</ele><time>2026-04-25T13:23:12.324Z</time></trkpt><trkpt lat="44.0271244" lon="11.3751795"><ele>552.6666666666666</ele><time>2026-04-25T13:23:13.311Z</time></trkpt><trkpt lat="44.0269472" lon="11.3750841"><ele>548.3333333333334</ele><time>2026-04-25T13:23:14.295Z</time></trkpt><trkpt lat="44.0267811" lon="11.3749692"><ele>544.0</ele><time>2026-04-25T13:23:15.307Z</time></trkpt><trkpt lat="44.0266269" lon="11.3748442"><ele>538.6666666666667</ele><time>2026-04-25T13:23:16.301Z</time></trkpt><trkpt lat="44.0264806" lon="11.3747065"><ele>533.3333333333334</ele><time>2026-04-25T13:23:17.301Z</time></trkpt><trkpt lat="44.0263344" lon="11.3745858"><ele>528.0</ele><time>2026-04-25T13:23:18.315Z</time></trkpt><trkpt lat="44.0261973" lon="11.3744541"><ele>528.0</ele><time>2026-04-25T13:23:19.314Z</time></trkpt><trkpt lat="44.026076" lon="11.3743051"><ele>528.0</ele><time>2026-04-25T13:23:20.306Z</time></trkpt><trkpt lat="44.0259701" lon="11.3741456"><ele>528.0</ele><time>2026-04-25T13:23:21.318Z</time></trkpt><trkpt lat="44.0258969" lon="11.3739578"><ele>526.5</ele><time>2026-04-25T13:23:22.305Z</time></trkpt><trkpt lat="44.0258706" lon="11.3737788"><ele>525.0</ele><time>2026-04-25T13:23:23.303Z</time></trkpt><trkpt lat="44.0258937" lon="11.3736195"><ele>523.5</ele><time>2026-04-25T13:23:24.299Z</time></trkpt><trkpt lat="44.0259836" lon="11.3734414"><ele>522.0</ele><time>2026-04-25T13:23:25.318Z</time></trkpt><trkpt lat="44.0260779" lon="11.3732692"><ele>522.0</ele><time>2026-04-25T13:23:26.329Z</time></trkpt><trkpt lat="44.0261705" lon="11.373109"><ele>522.0</ele><time>2026-04-25T13:23:27.327Z</time></trkpt><trkpt lat="44.0262714" lon="11.3729983"><ele>522.0</ele><time>2026-04-25T13:23:28.319Z</time></trkpt><trkpt lat="44.0263965" lon="11.3729204"><ele>522.0</ele><time>2026-04-25T13:23:29.318Z</time></trkpt><trkpt lat="44.0265284" lon="11.3728802"><ele>520.5</ele><time>2026-04-25T13:23:30.304Z</time></trkpt><trkpt lat="44.0266475" lon="11.3728574"><ele>519.0</ele><time>2026-04-25T13:23:31.315Z</time></trkpt><trkpt lat="44.0267729" lon="11.3727985"><ele>517.5</ele><time>2026-04-25T13:23:32.325Z</time></trkpt><trkpt lat="44.0268847" lon="11.3727158"><ele>516.0</ele><time>2026-04-25T13:23:33.317Z</time></trkpt><trkpt lat="44.0269594" lon="11.3725505"><ele>516.0</ele><time>2026-04-25T13:23:34.315Z</time></trkpt><trkpt lat="44.0270272" lon="11.3723701"><ele>516.0</ele><time>2026-04-25T13:23:35.312Z</time></trkpt><trkpt lat="44.0270925" lon="11.3722278"><ele>516.0</ele><time>2026-04-25T13:23:36.307Z</time></trkpt><trkpt lat="44.0271894" lon="11.3721418"><ele>516.0</ele><time>2026-04-25T13:23:37.324Z</time></trkpt><trkpt lat="44.027278" lon="11.3720429"><ele>515.2</ele><time>2026-04-25T13:23:38.307Z</time></trkpt><trkpt lat="44.0273345" lon="11.3719238"><ele>514.4000000000001</ele><time>2026-04-25T13:23:39.322Z</time></trkpt><trkpt lat="44.0273324" lon="11.3717891"><ele>513.6</ele><time>2026-04-25T13:23:40.295Z</time></trkpt><trkpt lat="44.0273585" lon="11.3716456"><ele>512.8000000000001</ele><time>2026-04-25T13:23:41.291Z</time></trkpt><trkpt lat="44.0274171" lon="11.3715145"><ele>512.0</ele><time>2026-04-25T13:23:42.294Z</time></trkpt><trkpt lat="44.0275314" lon="11.3713769"><ele>503.66666666666663</ele><time>2026-04-25T13:23:43.307Z</time></trkpt><trkpt lat="44.0276836" lon="11.3712683"><ele>495.33333333333337</ele><time>2026-04-25T13:23:44.295Z</time></trkpt><trkpt lat="44.0278347" lon="11.3711486"><ele>487.0</ele><time>2026-04-25T13:23:45.289Z</time></trkpt><trkpt lat="44.0279827" lon="11.3710366"><ele>487.0</ele><time>2026-04-25T13:23:46.31Z</time></trkpt><trkpt lat="44.0281228" lon="11.3709292"><ele>487.0</ele><time>2026-04-25T13:23:47.314Z</time></trkpt><trkpt lat="44.0282589" lon="11.370829"><ele>487.0</ele><time>2026-04-25T13:23:48.315Z</time></trkpt><trkpt lat="44.0283935" lon="11.3707524"><ele>490.25</ele><time>2026-04-25T13:23:49.339Z</time></trkpt><trkpt lat="44.0285463" lon="11.3707364"><ele>493.5</ele><time>2026-04-25T13:23:50.313Z</time></trkpt><trkpt lat="44.0286951" lon="11.3707634"><ele>496.75</ele><time>2026-04-25T13:23:51.305Z</time></trkpt><trkpt lat="44.0288027" lon="11.3707982"><ele>500.0</ele><time>2026-04-25T13:23:52.316Z</time></trkpt><trkpt lat="44.0288948" lon="11.3708023"><ele>500.0</ele><time>2026-04-25T13:23:53.322Z</time></trkpt><trkpt lat="44.0289444" lon="11.3707237"><ele>500.0</ele><time>2026-04-25T13:23:54.299Z</time></trkpt><trkpt lat="44.0289486" lon="11.370619"><ele>500.0</ele><time>2026-04-25T13:23:55.313Z</time></trkpt><trkpt lat="44.0288853" lon="11.3705468"><ele>500.0</ele><time>2026-04-25T13:23:56.306Z</time></trkpt><trkpt lat="44.0287846" lon="11.3704823"><ele>500.0</ele><time>2026-04-25T13:23:57.295Z</time></trkpt><trkpt lat="44.0286439" lon="11.370471"><ele>493.5</ele><time>2026-04-25T13:23:58.316Z</time></trkpt><trkpt lat="44.0284977" lon="11.3704865"><ele>487.0</ele><time>2026-04-25T13:23:59.313Z</time></trkpt><trkpt lat="44.0283562" lon="11.370486"><ele>480.5</ele><time>2026-04-25T13:24:00.311Z</time></trkpt><trkpt lat="44.0282118" lon="11.3704842"><ele>474.0</ele><time>2026-04-25T13:24:01.3Z</time></trkpt><trkpt lat="44.0280566" lon="11.3705002"><ele>478.33333333333337</ele><time>2026-04-25T13:24:02.307Z</time></trkpt><trkpt lat="44.0278957" lon="11.370562"><ele>482.6666666666667</ele><time>2026-04-25T13:24:03.304Z</time></trkpt><trkpt lat="44.0277162" lon="11.3706443"><ele>487.0</ele><time>2026-04-25T13:24:04.287Z</time></trkpt><trkpt lat="44.0275349" lon="11.3706779"><ele>484.0</ele><time>2026-04-25T13:24:05.298Z</time></trkpt><trkpt lat="44.0273534" lon="11.3706964"><ele>481.0</ele><time>2026-04-25T13:24:06.307Z</time></trkpt><trkpt lat="44.0271869" lon="11.3707092"><ele>478.0</ele><time>2026-04-25T13:24:07.308Z</time></trkpt><trkpt lat="44.0270236" lon="11.3707129"><ele>478.0</ele><time>2026-04-25T13:24:08.308Z</time></trkpt><trkpt lat="44.0268689" lon="11.3707397"><ele>478.0</ele><time>2026-04-25T13:24:09.293Z</time></trkpt><trkpt lat="44.0267149" lon="11.3707501"><ele>478.0</ele><time>2026-04-25T13:24:10.294Z</time></trkpt><trkpt lat="44.0265702" lon="11.3707339"><ele>476.75</ele><time>2026-04-25T13:24:11.33Z</time></trkpt><trkpt lat="44.0264339" lon="11.3706645"><ele>475.5</ele><time>2026-04-25T13:24:12.308Z</time></trkpt><trkpt lat="44.0262908" lon="11.3705761"><ele>474.25</ele><time>2026-04-25T13:24:13.292Z</time></trkpt><trkpt lat="44.0261619" lon="11.3704794"><ele>473.0</ele><time>2026-04-25T13:24:14.331Z</time></trkpt><trkpt lat="44.026047" lon="11.3703936"><ele>471.5</ele><time>2026-04-25T13:24:15.32Z</time></trkpt><trkpt lat="44.0259375" lon="11.3702993"><ele>470.0</ele><time>2026-04-25T13:24:16.288Z</time></trkpt><trkpt lat="44.0258259" lon="11.3702193"><ele>468.5</ele><time>2026-04-25T13:24:17.312Z</time></trkpt><trkpt lat="44.025724" lon="11.3701439"><ele>467.0</ele><time>2026-04-25T13:24:18.328Z</time></trkpt><trkpt lat="44.0256272" lon="11.3700674"><ele>464.75</ele><time>2026-04-25T13:24:19.305Z</time></trkpt><trkpt lat="44.0255275" lon="11.3699888"><ele>462.5</ele><time>2026-04-25T13:24:20.326Z</time></trkpt><trkpt lat="44.0254153" lon="11.3699157"><ele>460.25</ele><time>2026-04-25T13:24:21.296Z</time></trkpt><trkpt lat="44.0252878" lon="11.3698544"><ele>458.0</ele><time>2026-04-25T13:24:22.301Z</time></trkpt><trkpt lat="44.0251505" lon="11.3698061"><ele>458.0</ele><time>2026-04-25T13:24:23.317Z</time></trkpt><trkpt lat="44.025014" lon="11.3697689"><ele>458.0</ele><time>2026-04-25T13:24:24.306Z</time></trkpt><trkpt lat="44.0248796" lon="11.3697363"><ele>458.0</ele><time>2026-04-25T13:24:25.301Z</time></trkpt><trkpt lat="44.0247441" lon="11.3697078"><ele>458.0</ele><time>2026-04-25T13:24:26.295Z</time></trkpt><trkpt lat="44.0246105" lon="11.3696856"><ele>457.0</ele><time>2026-04-25T13:24:27.305Z</time></trkpt><trkpt lat="44.0244834" lon="11.3696656"><ele>456.0</ele><time>2026-04-25T13:24:28.309Z</time></trkpt><trkpt lat="44.0243582" lon="11.3696588"><ele>455.0</ele><time>2026-04-25T13:24:29.296Z</time></trkpt><trkpt lat="44.0242346" lon="11.3696749"><ele>454.0</ele><time>2026-04-25T13:24:30.296Z</time></trkpt><trkpt lat="44.0241223" lon="11.3697577"><ele>451.75</ele><time>2026-04-25T13:24:31.293Z</time></trkpt><trkpt lat="44.024036" lon="11.3698726"><ele>449.5</ele><time>2026-04-25T13:24:32.291Z</time></trkpt><trkpt lat="44.0239565" lon="11.370007"><ele>447.25</ele><time>2026-04-25T13:24:33.31Z</time></trkpt><trkpt lat="44.0238777" lon="11.3701367"><ele>445.0</ele><time>2026-04-25T13:24:34.319Z</time></trkpt><trkpt lat="44.0237898" lon="11.3702387"><ele>445.0</ele><time>2026-04-25T13:24:35.299Z</time></trkpt><trkpt lat="44.0236799" lon="11.3703155"><ele>445.0</ele><time>2026-04-25T13:24:36.294Z</time></trkpt><trkpt lat="44.0235552" lon="11.3703666"><ele>445.0</ele><time>2026-04-25T13:24:37.309Z</time></trkpt><trkpt lat="44.023417" lon="11.3704103"><ele>445.0</ele><time>2026-04-25T13:24:38.292Z</time></trkpt><trkpt lat="44.0232731" lon="11.370436"><ele>443.0</ele><time>2026-04-25T13:24:39.297Z</time></trkpt><trkpt lat="44.0231319" lon="11.3704606"><ele>441.0</ele><time>2026-04-25T13:24:40.311Z</time></trkpt><trkpt lat="44.0229937" lon="11.3704889"><ele>439.0</ele><time>2026-04-25T13:24:41.313Z</time></trkpt><trkpt lat="44.0228705" lon="11.3705279"><ele>437.0</ele><time>2026-04-25T13:24:42.31Z</time></trkpt><trkpt lat="44.0227587" lon="11.3705572"><ele>435.20000000000005</ele><time>2026-04-25T13:24:43.302Z</time></trkpt><trkpt lat="44.0226524" lon="11.3705835"><ele>433.40000000000003</ele><time>2026-04-25T13:24:44.321Z</time></trkpt><trkpt lat="44.0225361" lon="11.3705816"><ele>431.59999999999997</ele><time>2026-04-25T13:24:45.303Z</time></trkpt><trkpt lat="44.0224238" lon="11.3705479"><ele>429.79999999999995</ele><time>2026-04-25T13:24:46.292Z</time></trkpt><trkpt lat="44.0223254" lon="11.3704939"><ele>428.0</ele><time>2026-04-25T13:24:47.291Z</time></trkpt><trkpt lat="44.0222305" lon="11.3704519"><ele>427.59999999999997</ele><time>2026-04-25T13:24:48.314Z</time></trkpt><trkpt lat="44.0221396" lon="11.3704262"><ele>427.19999999999993</ele><time>2026-04-25T13:24:49.319Z</time></trkpt><trkpt lat="44.0220492" lon="11.3704207"><ele>426.8</ele><time>2026-04-25T13:24:50.313Z</time></trkpt><trkpt lat="44.0219578" lon="11.3704555"><ele>426.4</ele><time>2026-04-25T13:24:51.31Z</time></trkpt><trkpt lat="44.0218688" lon="11.3705047"><ele>426.0</ele><time>2026-04-25T13:24:52.326Z</time></trkpt><trkpt lat="44.0217758" lon="11.37056"><ele>424.3333333333333</ele><time>2026-04-25T13:24:53.299Z</time></trkpt><trkpt lat="44.0216865" lon="11.3705971"><ele>422.66666666666663</ele><time>2026-04-25T13:24:54.289Z</time></trkpt><trkpt lat="44.0216027" lon="11.3706322"><ele>421.0</ele><time>2026-04-25T13:24:55.316Z</time></trkpt><trkpt lat="44.0215265" lon="11.3706541"><ele>419.3333333333333</ele><time>2026-04-25T13:24:56.297Z</time></trkpt><trkpt lat="44.0214516" lon="11.3706558"><ele>417.66666666666663</ele><time>2026-04-25T13:24:57.327Z</time></trkpt><trkpt lat="44.0213739" lon="11.3706523"><ele>416.0</ele><time>2026-04-25T13:24:58.319Z</time></trkpt><trkpt lat="44.0212931" lon="11.3706352"><ele>415.8</ele><time>2026-04-25T13:24:59.321Z</time></trkpt><trkpt lat="44.0212059" lon="11.3705981"><ele>415.6</ele><time>2026-04-25T13:25:00.339Z</time></trkpt><trkpt lat="44.0211172" lon="11.3705521"><ele>415.4</ele><time>2026-04-25T13:25:01.307Z</time></trkpt><trkpt lat="44.0210287" lon="11.3704918"><ele>415.2</ele><time>2026-04-25T13:25:02.321Z</time></trkpt><trkpt lat="44.0209447" lon="11.3704255"><ele>415.0</ele><time>2026-04-25T13:25:03.301Z</time></trkpt><trkpt lat="44.020865" lon="11.3703504"><ele>412.2</ele><time>2026-04-25T13:25:04.303Z</time></trkpt><trkpt lat="44.0207942" lon="11.3702715"><ele>409.4</ele><time>2026-04-25T13:25:05.295Z</time></trkpt><trkpt lat="44.0207361" lon="11.3701808"><ele>406.6</ele><time>2026-04-25T13:25:06.309Z</time></trkpt><trkpt lat="44.0206661" lon="11.3700859"><ele>403.8</ele><time>2026-04-25T13:25:07.32Z</time></trkpt><trkpt lat="44.0205848" lon="11.3700084"><ele>401.0</ele><time>2026-04-25T13:25:08.309Z</time></trkpt><trkpt lat="44.0204677" lon="11.3699699"><ele>401.0</ele><time>2026-04-25T13:25:09.318Z</time></trkpt><trkpt lat="44.0203304" lon="11.3699789"><ele>401.0</ele><time>2026-04-25T13:25:10.292Z</time></trkpt><trkpt lat="44.020202" lon="11.3700155"><ele>401.0</ele><time>2026-04-25T13:25:11.287Z</time></trkpt><trkpt lat="44.0200743" lon="11.3700504"><ele>401.0</ele><time>2026-04-25T13:25:12.302Z</time></trkpt><trkpt lat="44.0199418" lon="11.3700763"><ele>398.5</ele><time>2026-04-25T13:25:13.305Z</time></trkpt><trkpt lat="44.0198108" lon="11.3700867"><ele>396.0</ele><time>2026-04-25T13:25:14.325Z</time></trkpt><trkpt lat="44.0196729" lon="11.3701058"><ele>393.5</ele><time>2026-04-25T13:25:15.318Z</time></trkpt><trkpt lat="44.0195389" lon="11.370144"><ele>391.0</ele><time>2026-04-25T13:25:16.316Z</time></trkpt><trkpt lat="44.0194065" lon="11.3702108"><ele>391.0</ele><time>2026-04-25T13:25:17.303Z</time></trkpt><trkpt lat="44.0192786" lon="11.3703048"><ele>391.0</ele><time>2026-04-25T13:25:18.328Z</time></trkpt><trkpt lat="44.0191617" lon="11.3704156"><ele>391.0</ele><time>2026-04-25T13:25:19.33Z</time></trkpt><trkpt lat="44.0190524" lon="11.3705262"><ele>391.0</ele><time>2026-04-25T13:25:20.305Z</time></trkpt><trkpt lat="44.0189444" lon="11.3706204"><ele>392.25</ele><time>2026-04-25T13:25:21.312Z</time></trkpt><trkpt lat="44.0188238" lon="11.3706876"><ele>393.5</ele><time>2026-04-25T13:25:22.312Z</time></trkpt><trkpt lat="44.0187119" lon="11.370753"><ele>394.75</ele><time>2026-04-25T13:25:23.318Z</time></trkpt><trkpt lat="44.0186091" lon="11.3708195"><ele>396.0</ele><time>2026-04-25T13:25:24.312Z</time></trkpt><trkpt lat="44.018525" lon="11.3708979"><ele>396.0</ele><time>2026-04-25T13:25:25.297Z</time></trkpt><trkpt lat="44.0184357" lon="11.3709716"><ele>396.0</ele><time>2026-04-25T13:25:26.313Z</time></trkpt><trkpt lat="44.0183391" lon="11.3710123"><ele>396.0</ele><time>2026-04-25T13:25:27.285Z</time></trkpt><trkpt lat="44.0182183" lon="11.3710071"><ele>396.0</ele><time>2026-04-25T13:25:28.291Z</time></trkpt><trkpt lat="44.0180898" lon="11.3709448"><ele>392.75</ele><time>2026-04-25T13:25:29.309Z</time></trkpt><trkpt lat="44.0179683" lon="11.3708468"><ele>389.5</ele><time>2026-04-25T13:25:30.318Z</time></trkpt><trkpt lat="44.0178575" lon="11.370739"><ele>386.25</ele><time>2026-04-25T13:25:31.31Z</time></trkpt><trkpt lat="44.0177511" lon="11.3706256"><ele>383.0</ele><time>2026-04-25T13:25:32.318Z</time></trkpt><trkpt lat="44.0176536" lon="11.3705306"><ele>383.2</ele><time>2026-04-25T13:25:33.314Z</time></trkpt><trkpt lat="44.0175548" lon="11.3704446"><ele>383.4</ele><time>2026-04-25T13:25:34.304Z</time></trkpt><trkpt lat="44.0174617" lon="11.3703644"><ele>383.59999999999997</ele><time>2026-04-25T13:25:35.308Z</time></trkpt><trkpt lat="44.0173705" lon="11.3703091"><ele>383.79999999999995</ele><time>2026-04-25T13:25:36.306Z</time></trkpt><trkpt lat="44.0172726" lon="11.3702979"><ele>384.0</ele><time>2026-04-25T13:25:37.327Z</time></trkpt><trkpt lat="44.0171711" lon="11.3703366"><ele>384.25</ele><time>2026-04-25T13:25:38.315Z</time></trkpt><trkpt lat="44.0170652" lon="11.3703945"><ele>384.5</ele><time>2026-04-25T13:25:39.3Z</time></trkpt><trkpt lat="44.0169572" lon="11.3704521"><ele>384.75</ele><time>2026-04-25T13:25:40.326Z</time></trkpt><trkpt lat="44.0168458" lon="11.3705049"><ele>385.0</ele><time>2026-04-25T13:25:41.315Z</time></trkpt><trkpt lat="44.0167305" lon="11.3705721"><ele>385.6</ele><time>2026-04-25T13:25:42.312Z</time></trkpt><trkpt lat="44.0166265" lon="11.3706386"><ele>386.2</ele><time>2026-04-25T13:25:43.296Z</time></trkpt><trkpt lat="44.0165324" lon="11.3707089"><ele>386.79999999999995</ele><time>2026-04-25T13:25:44.312Z</time></trkpt><trkpt lat="44.0164614" lon="11.3708038"><ele>387.4</ele><time>2026-04-25T13:25:45.3Z</time></trkpt><trkpt lat="44.0163985" lon="11.3709183"><ele>388.0</ele><time>2026-04-25T13:25:46.309Z</time></trkpt><trkpt lat="44.0163411" lon="11.3710254"><ele>388.00000000000006</ele><time>2026-04-25T13:25:47.291Z</time></trkpt><trkpt lat="44.016285" lon="11.3711118"><ele>388.0</ele><time>2026-04-25T13:25:48.287Z</time></trkpt><trkpt lat="44.0162237" lon="11.3711773"><ele>388.0</ele><time>2026-04-25T13:25:49.295Z</time></trkpt><trkpt lat="44.0161412" lon="11.3712283"><ele>388.0</ele><time>2026-04-25T13:25:50.296Z</time></trkpt><trkpt lat="44.0160514" lon="11.371239"><ele>388.00000000000006</ele><time>2026-04-25T13:25:51.306Z</time></trkpt><trkpt lat="44.0159532" lon="11.3711931"><ele>388.0</ele><time>2026-04-25T13:25:52.289Z</time></trkpt><trkpt lat="44.0158578" lon="11.3711286"><ele>386.79999999999995</ele><time>2026-04-25T13:25:53.304Z</time></trkpt><trkpt lat="44.0157688" lon="11.3710743"><ele>385.6</ele><time>2026-04-25T13:25:54.308Z</time></trkpt><trkpt lat="44.0156787" lon="11.371037"><ele>384.4</ele><time>2026-04-25T13:25:55.298Z</time></trkpt><trkpt lat="44.0155915" lon="11.371045"><ele>383.20000000000005</ele><time>2026-04-25T13:25:56.303Z</time></trkpt><trkpt lat="44.015486" lon="11.371107"><ele>382.0</ele><time>2026-04-25T13:25:57.305Z</time></trkpt><trkpt lat="44.0153871" lon="11.371169"><ele>382.0</ele><time>2026-04-25T13:25:58.312Z</time></trkpt><trkpt lat="44.0152863" lon="11.3712228"><ele>382.0</ele><time>2026-04-25T13:25:59.305Z</time></trkpt><trkpt lat="44.0151795" lon="11.3712477"><ele>382.0</ele><time>2026-04-25T13:26:00.297Z</time></trkpt><trkpt lat="44.0150591" lon="11.3712417"><ele>382.0</ele><time>2026-04-25T13:26:01.303Z</time></trkpt><trkpt lat="44.0149305" lon="11.3712208"><ele>379.25</ele><time>2026-04-25T13:26:02.317Z</time></trkpt><trkpt lat="44.0147991" lon="11.3712016"><ele>376.5</ele><time>2026-04-25T13:26:03.313Z</time></trkpt><trkpt lat="44.0146735" lon="11.3711628"><ele>373.75</ele><time>2026-04-25T13:26:04.313Z</time></trkpt><trkpt lat="44.0145486" lon="11.3711166"><ele>371.0</ele><time>2026-04-25T13:26:05.288Z</time></trkpt><trkpt lat="44.0144164" lon="11.3710514"><ele>371.0</ele><time>2026-04-25T13:26:06.309Z</time></trkpt><trkpt lat="44.0142664" lon="11.3709588"><ele>371.0</ele><time>2026-04-25T13:26:07.29Z</time></trkpt><trkpt lat="44.0141055" lon="11.370856"><ele>371.0</ele><time>2026-04-25T13:26:08.301Z</time></trkpt><trkpt lat="44.013953" lon="11.3707484"><ele>370.0</ele><time>2026-04-25T13:26:09.326Z</time></trkpt><trkpt lat="44.0138185" lon="11.3706417"><ele>369.0</ele><time>2026-04-25T13:26:10.323Z</time></trkpt><trkpt lat="44.013701" lon="11.3705281"><ele>368.0</ele><time>2026-04-25T13:26:11.297Z</time></trkpt><trkpt lat="44.0136038" lon="11.3703716"><ele>367.0</ele><time>2026-04-25T13:26:12.3Z</time></trkpt><trkpt lat="44.0135285" lon="11.3701956"><ele>366.66666666666663</ele><time>2026-04-25T13:26:13.281Z</time></trkpt><trkpt lat="44.0134527" lon="11.370014"><ele>366.3333333333333</ele><time>2026-04-25T13:26:14.31Z</time></trkpt><trkpt lat="44.0133863" lon="11.369815"><ele>366.0</ele><time>2026-04-25T13:26:15.318Z</time></trkpt><trkpt lat="44.0133058" lon="11.3695967"><ele>362.0</ele><time>2026-04-25T13:26:16.309Z</time></trkpt><trkpt lat="44.0132086" lon="11.3693829"><ele>358.0</ele><time>2026-04-25T13:26:17.3Z</time></trkpt><trkpt lat="44.0130825" lon="11.369181"><ele>354.0</ele><time>2026-04-25T13:26:18.314Z</time></trkpt><trkpt lat="44.0129434" lon="11.3689919"><ele>353.3333333333333</ele><time>2026-04-25T13:26:19.307Z</time></trkpt><trkpt lat="44.0127996" lon="11.3688139"><ele>352.66666666666663</ele><time>2026-04-25T13:26:20.294Z</time></trkpt><trkpt lat="44.012648" lon="11.3686552"><ele>352.0</ele><time>2026-04-25T13:26:21.299Z</time></trkpt><trkpt lat="44.0125133" lon="11.3685113"><ele>352.25</ele><time>2026-04-25T13:26:22.294Z</time></trkpt><trkpt lat="44.0123854" lon="11.3684007"><ele>352.5</ele><time>2026-04-25T13:26:23.301Z</time></trkpt><trkpt lat="44.0122537" lon="11.368326"><ele>352.75</ele><time>2026-04-25T13:26:24.295Z</time></trkpt><trkpt lat="44.012109" lon="11.3683286"><ele>353.0</ele><time>2026-04-25T13:26:25.292Z</time></trkpt><trkpt lat="44.0119443" lon="11.368351"><ele>353.0</ele><time>2026-04-25T13:26:26.314Z</time></trkpt><trkpt lat="44.0117805" lon="11.368372"><ele>353.0</ele><time>2026-04-25T13:26:27.32Z</time></trkpt><trkpt lat="44.0116219" lon="11.3684075"><ele>353.0</ele><time>2026-04-25T13:26:28.301Z</time></trkpt><trkpt lat="44.0114718" lon="11.3684383"><ele>351.0</ele><time>2026-04-25T13:26:29.3Z</time></trkpt><trkpt lat="44.011324" lon="11.3684603"><ele>349.0</ele><time>2026-04-25T13:26:30.289Z</time></trkpt><trkpt lat="44.0111743" lon="11.3684627"><ele>347.0</ele><time>2026-04-25T13:26:31.321Z</time></trkpt><trkpt lat="44.0110214" lon="11.3684388"><ele>347.0</ele><time>2026-04-25T13:26:32.318Z</time></trkpt><trkpt lat="44.0108683" lon="11.3683841"><ele>347.0</ele><time>2026-04-25T13:26:33.311Z</time></trkpt><trkpt lat="44.0107175" lon="11.3683031"><ele>347.0</ele><time>2026-04-25T13:26:34.322Z</time></trkpt><trkpt lat="44.0105608" lon="11.3682195"><ele>344.33333333333337</ele><time>2026-04-25T13:26:35.309Z</time></trkpt><trkpt lat="44.0103987" lon="11.3681263"><ele>341.6666666666667</ele><time>2026-04-25T13:26:36.311Z</time></trkpt><trkpt lat="44.0102279" lon="11.3680365"><ele>339.0</ele><time>2026-04-25T13:26:37.315Z</time></trkpt><trkpt lat="44.0100533" lon="11.3679515"><ele>337.6666666666667</ele><time>2026-04-25T13:26:38.297Z</time></trkpt><trkpt lat="44.0098826" lon="11.3678605"><ele>336.33333333333337</ele><time>2026-04-25T13:26:39.321Z</time></trkpt><trkpt lat="44.0097157" lon="11.3677814"><ele>335.0</ele><time>2026-04-25T13:26:40.311Z</time></trkpt><trkpt lat="44.0095527" lon="11.3677047"><ele>335.0</ele><time>2026-04-25T13:26:41.311Z</time></trkpt><trkpt lat="44.0093924" lon="11.3676227"><ele>335.0</ele><time>2026-04-25T13:26:42.321Z</time></trkpt><trkpt lat="44.0092312" lon="11.3675402"><ele>335.0</ele><time>2026-04-25T13:26:43.307Z</time></trkpt><trkpt lat="44.0090672" lon="11.3674538"><ele>333.33333333333337</ele><time>2026-04-25T13:26:44.31Z</time></trkpt><trkpt lat="44.0089075" lon="11.3673798"><ele>331.6666666666667</ele><time>2026-04-25T13:26:45.322Z</time></trkpt><trkpt lat="44.0087586" lon="11.3673055"><ele>330.0</ele><time>2026-04-25T13:26:46.315Z</time></trkpt><trkpt lat="44.008616" lon="11.3672396"><ele>330.0</ele><time>2026-04-25T13:26:47.305Z</time></trkpt><trkpt lat="44.0084756" lon="11.3671963"><ele>330.0</ele><time>2026-04-25T13:26:48.327Z</time></trkpt><trkpt lat="44.0083295" lon="11.3671734"><ele>330.0</ele><time>2026-04-25T13:26:49.314Z</time></trkpt><trkpt lat="44.008179" lon="11.3671673"><ele>330.0</ele><time>2026-04-25T13:26:50.3Z</time></trkpt><trkpt lat="44.0080234" lon="11.367172"><ele>328.6666666666667</ele><time>2026-04-25T13:26:51.301Z</time></trkpt><trkpt lat="44.0078592" lon="11.3671675"><ele>327.33333333333337</ele><time>2026-04-25T13:26:52.314Z</time></trkpt><trkpt lat="44.0076979" lon="11.367153"><ele>326.0</ele><time>2026-04-25T13:26:53.301Z</time></trkpt><trkpt lat="44.0075357" lon="11.3671234"><ele>326.0</ele><time>2026-04-25T13:26:54.314Z</time></trkpt><trkpt lat="44.0073816" lon="11.3670611"><ele>326.0</ele><time>2026-04-25T13:26:55.309Z</time></trkpt><trkpt lat="44.007236" lon="11.366951"><ele>326.0</ele><time>2026-04-25T13:26:56.314Z</time></trkpt><trkpt lat="44.007098" lon="11.3668327"><ele>326.0</ele><time>2026-04-25T13:26:57.331Z</time></trkpt><trkpt lat="44.0069555" lon="11.3667007"><ele>326.0</ele><time>2026-04-25T13:26:58.321Z</time></trkpt><trkpt lat="44.006804" lon="11.3665664"><ele>326.0</ele><time>2026-04-25T13:26:59.311Z</time></trkpt><trkpt lat="44.0066563" lon="11.3664191"><ele>325.6666666666667</ele><time>2026-04-25T13:27:00.322Z</time></trkpt><trkpt lat="44.0064992" lon="11.3662716"><ele>325.3333333333333</ele><time>2026-04-25T13:27:01.321Z</time></trkpt><trkpt lat="44.0063419" lon="11.3661353"><ele>325.0</ele><time>2026-04-25T13:27:02.327Z</time></trkpt><trkpt lat="44.006187" lon="11.3659982"><ele>325.0</ele><time>2026-04-25T13:27:03.328Z</time></trkpt><trkpt lat="44.0060312" lon="11.3658718"><ele>325.0</ele><time>2026-04-25T13:27:04.314Z</time></trkpt><trkpt lat="44.0058686" lon="11.3657501"><ele>325.0</ele><time>2026-04-25T13:27:05.317Z</time></trkpt><trkpt lat="44.0057153" lon="11.3656464"><ele>324.8</ele><time>2026-04-25T13:27:06.319Z</time></trkpt><trkpt lat="44.0055859" lon="11.3655605"><ele>324.6</ele><time>2026-04-25T13:27:07.329Z</time></trkpt><trkpt lat="44.0054954" lon="11.3654955"><ele>324.4</ele><time>2026-04-25T13:27:08.299Z</time></trkpt><trkpt lat="44.0054033" lon="11.3654497"><ele>324.2</ele><time>2026-04-25T13:27:09.301Z</time></trkpt><trkpt lat="44.0053177" lon="11.3654052"><ele>324.0</ele><time>2026-04-25T13:27:10.322Z</time></trkpt><trkpt lat="44.0052292" lon="11.365363"><ele>324.0</ele><time>2026-04-25T13:27:11.308Z</time></trkpt><trkpt lat="44.0051426" lon="11.3653274"><ele>324.0</ele><time>2026-04-25T13:27:12.303Z</time></trkpt><trkpt lat="44.0050632" lon="11.3652907"><ele>324.0</ele><time>2026-04-25T13:27:13.319Z</time></trkpt><trkpt lat="44.0049936" lon="11.3652486"><ele>324.0</ele><time>2026-04-25T13:27:14.308Z</time></trkpt><trkpt lat="44.0049291" lon="11.3652098"><ele>324.0</ele><time>2026-04-25T13:27:15.311Z</time></trkpt><trkpt lat="44.0048279" lon="11.3651644"><ele>324.0</ele><time>2026-04-25T13:27:17.315Z</time></trkpt><trkpt lat="44.0047579" lon="11.3651311"><ele>324.0</ele><time>2026-04-25T13:27:19.307Z</time></trkpt><trkpt lat="44.0048092" lon="11.3651962"><ele>324.0</ele><time>2026-04-25T13:27:27.32Z</time></trkpt><trkpt lat="44.0049069" lon="11.3652285"><ele>324.0</ele><time>2026-04-25T13:27:28.303Z</time></trkpt><trkpt lat="44.0050389" lon="11.3652712"><ele>324.0</ele><time>2026-04-25T13:27:29.29Z</time></trkpt><trkpt lat="44.0051714" lon="11.3653408"><ele>324.0</ele><time>2026-04-25T13:27:30.297Z</time></trkpt><trkpt lat="44.0052963" lon="11.3653977"><ele>324.0</ele><time>2026-04-25T13:27:31.313Z</time></trkpt><trkpt lat="44.0054031" lon="11.3654522"><ele>324.0</ele><time>2026-04-25T13:27:32.323Z</time></trkpt><trkpt lat="44.0055099" lon="11.3655317"><ele>324.0</ele><time>2026-04-25T13:27:33.315Z</time></trkpt><trkpt lat="44.0056151" lon="11.3656068"><ele>324.0</ele><time>2026-04-25T13:27:34.308Z</time></trkpt><trkpt lat="44.0057113" lon="11.3656946"><ele>323.75</ele><time>2026-04-25T13:27:35.316Z</time></trkpt><trkpt lat="44.0057886" lon="11.3657903"><ele>323.5</ele><time>2026-04-25T13:27:36.307Z</time></trkpt><trkpt lat="44.0058392" lon="11.3659112"><ele>323.25</ele><time>2026-04-25T13:27:37.326Z</time></trkpt><trkpt lat="44.005852" lon="11.3660742"><ele>323.0</ele><time>2026-04-25T13:27:38.321Z</time></trkpt><trkpt lat="44.0057984" lon="11.3662354"><ele>322.75</ele><time>2026-04-25T13:27:39.3Z</time></trkpt><trkpt lat="44.0057213" lon="11.3664019"><ele>322.5</ele><time>2026-04-25T13:27:40.329Z</time></trkpt><trkpt lat="44.0056341" lon="11.366533"><ele>322.25</ele><time>2026-04-25T13:27:41.32Z</time></trkpt><trkpt lat="44.0055512" lon="11.3666487"><ele>322.0</ele><time>2026-04-25T13:27:42.31Z</time></trkpt><trkpt lat="44.0054726" lon="11.3667682"><ele>322.0</ele><time>2026-04-25T13:27:43.325Z</time></trkpt><trkpt lat="44.0054023" lon="11.3668866"><ele>322.0</ele><time>2026-04-25T13:27:44.295Z</time></trkpt><trkpt lat="44.0053302" lon="11.3669886"><ele>322.0</ele><time>2026-04-25T13:27:45.31Z</time></trkpt><trkpt lat="44.0052567" lon="11.3670976"><ele>322.0</ele><time>2026-04-25T13:27:46.296Z</time></trkpt><trkpt lat="44.0051882" lon="11.3672031"><ele>322.0</ele><time>2026-04-25T13:27:47.305Z</time></trkpt><trkpt lat="44.0051181" lon="11.3672933"><ele>322.16666666666663</ele><time>2026-04-25T13:27:48.324Z</time></trkpt><trkpt lat="44.0050549" lon="11.3673733"><ele>322.3333333333333</ele><time>2026-04-25T13:27:49.312Z</time></trkpt><trkpt lat="44.0049874" lon="11.3674547"><ele>322.5</ele><time>2026-04-25T13:27:50.342Z</time></trkpt><trkpt lat="44.0049167" lon="11.3675301"><ele>322.6666666666667</ele><time>2026-04-25T13:27:51.314Z</time></trkpt><trkpt lat="44.0048378" lon="11.3675961"><ele>322.83333333333337</ele><time>2026-04-25T13:27:52.316Z</time></trkpt><trkpt lat="44.0047596" lon="11.3676499"><ele>323.0</ele><time>2026-04-25T13:27:53.333Z</time></trkpt><trkpt lat="44.0046874" lon="11.3676931"><ele>323.00000000000006</ele><time>2026-04-25T13:27:54.313Z</time></trkpt><trkpt lat="44.0046189" lon="11.3677278"><ele>323.0</ele><time>2026-04-25T13:27:55.322Z</time></trkpt><trkpt lat="44.0045569" lon="11.3677669"><ele>323.0</ele><time>2026-04-25T13:27:56.302Z</time></trkpt><trkpt lat="44.0045048" lon="11.367828"><ele>323.0</ele><time>2026-04-25T13:27:57.32Z</time></trkpt><trkpt lat="44.0044596" lon="11.3679212"><ele>323.0</ele><time>2026-04-25T13:27:58.316Z</time></trkpt><trkpt lat="44.0044389" lon="11.3680221"><ele>323.00000000000006</ele><time>2026-04-25T13:27:59.309Z</time></trkpt><trkpt lat="44.0044379" lon="11.3681189"><ele>323.0</ele><time>2026-04-25T13:28:00.305Z</time></trkpt><trkpt lat="44.004471" lon="11.3682724"><ele>323.0</ele><time>2026-04-25T13:28:02.311Z</time></trkpt><trkpt lat="44.0045272" lon="11.3683698"><ele>323.0</ele><time>2026-04-25T13:28:04.312Z</time></trkpt><trkpt lat="44.0045795" lon="11.3682859"><ele>323.0</ele><time>2026-04-25T13:28:12.306Z</time></trkpt><trkpt lat="44.0045793" lon="11.3681081"><ele>323.0</ele><time>2026-04-25T13:28:14.327Z</time></trkpt><trkpt lat="44.0045573" lon="11.3680029"><ele>323.0</ele><time>2026-04-25T13:28:15.299Z</time></trkpt><trkpt lat="44.0045362" lon="11.3679138"><ele>323.0</ele><time>2026-04-25T13:28:16.313Z</time></trkpt><trkpt lat="44.0044909" lon="11.3678501"><ele>323.0</ele><time>2026-04-25T13:28:17.303Z</time></trkpt><trkpt lat="44.0044097" lon="11.3678175"><ele>323.0</ele><time>2026-04-25T13:28:18.307Z</time></trkpt><trkpt lat="44.0042978" lon="11.3678158"><ele>323.0</ele><time>2026-04-25T13:28:19.314Z</time></trkpt><trkpt lat="44.0041816" lon="11.3678392"><ele>323.0</ele><time>2026-04-25T13:28:20.356Z</time></trkpt><trkpt lat="44.0040635" lon="11.3678443"><ele>323.0</ele><time>2026-04-25T13:28:21.314Z</time></trkpt><trkpt lat="44.0039315" lon="11.3678208"><ele>323.0</ele><time>2026-04-25T13:28:22.321Z</time></trkpt><trkpt lat="44.0037986" lon="11.3677645"><ele>323.0</ele><time>2026-04-25T13:28:23.323Z</time></trkpt><trkpt lat="44.0036645" lon="11.3677053"><ele>323.0</ele><time>2026-04-25T13:28:24.332Z</time></trkpt><trkpt lat="44.0035233" lon="11.3676377"><ele>323.0</ele><time>2026-04-25T13:28:25.317Z</time></trkpt><trkpt lat="44.0033734" lon="11.3675516"><ele>321.6666666666667</ele><time>2026-04-25T13:28:26.324Z</time></trkpt><trkpt lat="44.0032136" lon="11.3674658"><ele>320.3333333333333</ele><time>2026-04-25T13:28:27.317Z</time></trkpt><trkpt lat="44.0030501" lon="11.367386"><ele>319.0</ele><time>2026-04-25T13:28:28.327Z</time></trkpt><trkpt lat="44.0028893" lon="11.3673064"><ele>319.0</ele><time>2026-04-25T13:28:29.316Z</time></trkpt><trkpt lat="44.0027281" lon="11.3672218"><ele>319.0</ele><time>2026-04-25T13:28:30.305Z</time></trkpt><trkpt lat="44.0025723" lon="11.367136"><ele>319.0</ele><time>2026-04-25T13:28:31.326Z</time></trkpt><trkpt lat="44.0024122" lon="11.3670553"><ele>318.66666666666663</ele><time>2026-04-25T13:28:32.308Z</time></trkpt><trkpt lat="44.0022527" lon="11.3669649"><ele>318.3333333333333</ele><time>2026-04-25T13:28:33.319Z</time></trkpt><trkpt lat="44.0020947" lon="11.3668757"><ele>318.0</ele><time>2026-04-25T13:28:34.314Z</time></trkpt><trkpt lat="44.0019377" lon="11.3667921"><ele>318.0</ele><time>2026-04-25T13:28:35.323Z</time></trkpt><trkpt lat="44.001781" lon="11.3667096"><ele>318.0</ele><time>2026-04-25T13:28:36.313Z</time></trkpt><trkpt lat="44.0016221" lon="11.3666259"><ele>318.0</ele><time>2026-04-25T13:28:37.323Z</time></trkpt><trkpt lat="44.0014612" lon="11.3665328"><ele>317.3333333333333</ele><time>2026-04-25T13:28:38.323Z</time></trkpt><trkpt lat="44.0012976" lon="11.3664379"><ele>316.66666666666663</ele><time>2026-04-25T13:28:39.326Z</time></trkpt><trkpt lat="44.0011275" lon="11.3663465"><ele>316.0</ele><time>2026-04-25T13:28:40.321Z</time></trkpt><trkpt lat="44.0009555" lon="11.3662593"><ele>315.3333333333333</ele><time>2026-04-25T13:28:41.295Z</time></trkpt><trkpt lat="44.0007889" lon="11.3661733"><ele>314.6666666666667</ele><time>2026-04-25T13:28:42.292Z</time></trkpt><trkpt lat="44.0006333" lon="11.3660898"><ele>314.0</ele><time>2026-04-25T13:28:43.297Z</time></trkpt><trkpt lat="44.0004722" lon="11.3660064"><ele>314.0</ele><time>2026-04-25T13:28:44.339Z</time></trkpt><trkpt lat="44.0003056" lon="11.3659196"><ele>314.0</ele><time>2026-04-25T13:28:45.328Z</time></trkpt><trkpt lat="44.0001412" lon="11.3658281"><ele>314.0</ele><time>2026-04-25T13:28:46.326Z</time></trkpt><trkpt lat="43.9999809" lon="11.3657366"><ele>314.0</ele><time>2026-04-25T13:28:47.309Z</time></trkpt><trkpt lat="43.9998244" lon="11.3656508"><ele>314.0</ele><time>2026-04-25T13:28:48.315Z</time></trkpt><trkpt lat="43.9996772" lon="11.3655806"><ele>314.0</ele><time>2026-04-25T13:28:49.324Z</time></trkpt><trkpt lat="43.9995334" lon="11.3655098"><ele>313.33333333333337</ele><time>2026-04-25T13:28:50.324Z</time></trkpt><trkpt lat="43.9993936" lon="11.3654385"><ele>312.6666666666667</ele><time>2026-04-25T13:28:51.301Z</time></trkpt><trkpt lat="43.9992489" lon="11.365358"><ele>312.0</ele><time>2026-04-25T13:28:52.327Z</time></trkpt><trkpt lat="43.9991032" lon="11.3652798"><ele>311.0</ele><time>2026-04-25T13:28:53.321Z</time></trkpt><trkpt lat="43.9989467" lon="11.365196"><ele>310.0</ele><time>2026-04-25T13:28:54.319Z</time></trkpt><trkpt lat="43.9987849" lon="11.3651019"><ele>309.0</ele><time>2026-04-25T13:28:55.315Z</time></trkpt><trkpt lat="43.9986178" lon="11.365013"><ele>309.0</ele><time>2026-04-25T13:28:56.319Z</time></trkpt><trkpt lat="43.9984452" lon="11.3649173"><ele>309.0</ele><time>2026-04-25T13:28:57.301Z</time></trkpt><trkpt lat="43.9982661" lon="11.3648322"><ele>309.0</ele><time>2026-04-25T13:28:58.314Z</time></trkpt><trkpt lat="43.9980842" lon="11.3647373"><ele>305.6666666666667</ele><time>2026-04-25T13:28:59.32Z</time></trkpt><trkpt lat="43.9979006" lon="11.3646423"><ele>302.33333333333337</ele><time>2026-04-25T13:29:00.294Z</time></trkpt><trkpt lat="43.9977143" lon="11.3645506"><ele>299.0</ele><time>2026-04-25T13:29:01.333Z</time></trkpt><trkpt lat="43.9975279" lon="11.3644699"><ele>302.33333333333337</ele><time>2026-04-25T13:29:02.296Z</time></trkpt><trkpt lat="43.9973404" lon="11.3643892"><ele>305.6666666666667</ele><time>2026-04-25T13:29:03.318Z</time></trkpt><trkpt lat="43.9971611" lon="11.3643076"><ele>309.0</ele><time>2026-04-25T13:29:04.314Z</time></trkpt><trkpt lat="43.9969798" lon="11.3642282"><ele>309.0</ele><time>2026-04-25T13:29:05.324Z</time></trkpt><trkpt lat="43.996796" lon="11.3641514"><ele>309.0</ele><time>2026-04-25T13:29:06.317Z</time></trkpt><trkpt lat="43.9966126" lon="11.3640744"><ele>309.0</ele><time>2026-04-25T13:29:07.313Z</time></trkpt><trkpt lat="43.9964312" lon="11.3639963"><ele>309.6666666666667</ele><time>2026-04-25T13:29:08.336Z</time></trkpt><trkpt lat="43.9962501" lon="11.3639192"><ele>310.33333333333337</ele><time>2026-04-25T13:29:09.318Z</time></trkpt><trkpt lat="43.9960734" lon="11.3638477"><ele>311.0</ele><time>2026-04-25T13:29:10.332Z</time></trkpt><trkpt lat="43.9959033" lon="11.3637753"><ele>307.33333333333337</ele><time>2026-04-25T13:29:11.323Z</time></trkpt><trkpt lat="43.9957457" lon="11.3636987"><ele>303.6666666666667</ele><time>2026-04-25T13:29:12.326Z</time></trkpt><trkpt lat="43.9955898" lon="11.3636294"><ele>300.0</ele><time>2026-04-25T13:29:13.311Z</time></trkpt><trkpt lat="43.9954328" lon="11.3635594"><ele>300.0</ele><time>2026-04-25T13:29:14.326Z</time></trkpt><trkpt lat="43.9952858" lon="11.3634954"><ele>300.0</ele><time>2026-04-25T13:29:15.328Z</time></trkpt><trkpt lat="43.9951394" lon="11.3634364"><ele>300.0</ele><time>2026-04-25T13:29:16.331Z</time></trkpt><trkpt lat="43.9949903" lon="11.3633802"><ele>299.75</ele><time>2026-04-25T13:29:17.32Z</time></trkpt><trkpt lat="43.9948402" lon="11.3633291"><ele>299.5</ele><time>2026-04-25T13:29:18.326Z</time></trkpt><trkpt lat="43.9946983" lon="11.363281"><ele>299.25</ele><time>2026-04-25T13:29:19.31Z</time></trkpt><trkpt lat="43.994556" lon="11.3632408"><ele>299.0</ele><time>2026-04-25T13:29:20.319Z</time></trkpt><trkpt lat="43.9944119" lon="11.3632148"><ele>299.0</ele><time>2026-04-25T13:29:21.326Z</time></trkpt><trkpt lat="43.9942714" lon="11.3632016"><ele>299.0</ele><time>2026-04-25T13:29:22.327Z</time></trkpt><trkpt lat="43.9941318" lon="11.3631853"><ele>299.0</ele><time>2026-04-25T13:29:23.322Z</time></trkpt><trkpt lat="43.9939921" lon="11.3631814"><ele>299.0</ele><time>2026-04-25T13:29:24.329Z</time></trkpt><trkpt lat="43.9938511" lon="11.3631762"><ele>297.5</ele><time>2026-04-25T13:29:25.325Z</time></trkpt><trkpt lat="43.9937166" lon="11.3631746"><ele>296.0</ele><time>2026-04-25T13:29:26.329Z</time></trkpt><trkpt lat="43.9935809" lon="11.3631632"><ele>294.5</ele><time>2026-04-25T13:29:27.317Z</time></trkpt><trkpt lat="43.9934447" lon="11.3631588"><ele>293.0</ele><time>2026-04-25T13:29:28.298Z</time></trkpt><trkpt lat="43.9933109" lon="11.3631589"><ele>292.0</ele><time>2026-04-25T13:29:29.328Z</time></trkpt><trkpt lat="43.9931869" lon="11.363161"><ele>291.0</ele><time>2026-04-25T13:29:30.315Z</time></trkpt><trkpt lat="43.9930805" lon="11.3631502"><ele>290.0</ele><time>2026-04-25T13:29:31.322Z</time></trkpt><trkpt lat="43.992999" lon="11.3631207"><ele>289.0</ele><time>2026-04-25T13:29:32.326Z</time></trkpt><trkpt lat="43.9929269" lon="11.3630637"><ele>288.0</ele><time>2026-04-25T13:29:33.323Z</time></trkpt><trkpt lat="43.9928629" lon="11.3630378"><ele>288.0</ele><time>2026-04-25T13:29:34.325Z</time></trkpt><trkpt lat="43.9927835" lon="11.3630635"><ele>288.0</ele><time>2026-04-25T13:29:35.325Z</time></trkpt><trkpt lat="43.9926972" lon="11.3631816"><ele>288.0</ele><time>2026-04-25T13:29:37.309Z</time></trkpt><trkpt lat="43.9926722" lon="11.363266"><ele>288.0</ele><time>2026-04-25T13:29:38.327Z</time></trkpt><trkpt lat="43.9926494" lon="11.3633534"><ele>288.0</ele><time>2026-04-25T13:29:39.294Z</time></trkpt><trkpt lat="43.9926152" lon="11.3634297"><ele>288.0</ele><time>2026-04-25T13:29:40.293Z</time></trkpt><trkpt lat="43.9925371" lon="11.3635626"><ele>287.5714285714286</ele><time>2026-04-25T13:29:42.296Z</time></trkpt><trkpt lat="43.9924895" lon="11.3636241"><ele>287.14285714285717</ele><time>2026-04-25T13:29:43.309Z</time></trkpt><trkpt lat="43.9924414" lon="11.3636957"><ele>286.7142857142857</ele><time>2026-04-25T13:29:44.302Z</time></trkpt><trkpt lat="43.992394" lon="11.3637637"><ele>286.28571428571433</ele><time>2026-04-25T13:29:45.311Z</time></trkpt><trkpt lat="43.9923446" lon="11.3638336"><ele>285.8571428571429</ele><time>2026-04-25T13:29:46.305Z</time></trkpt><trkpt lat="43.9922997" lon="11.3639153"><ele>285.42857142857144</ele><time>2026-04-25T13:29:47.328Z</time></trkpt><trkpt lat="43.9922614" lon="11.3640005"><ele>285.0</ele><time>2026-04-25T13:29:48.306Z</time></trkpt><trkpt lat="43.9922213" lon="11.3640961"><ele>283.8</ele><time>2026-04-25T13:29:49.334Z</time></trkpt><trkpt lat="43.9921744" lon="11.3642028"><ele>282.6</ele><time>2026-04-25T13:29:50.338Z</time></trkpt><trkpt lat="43.9921263" lon="11.364315"><ele>281.4</ele><time>2026-04-25T13:29:51.32Z</time></trkpt><trkpt lat="43.9920806" lon="11.3644318"><ele>280.2</ele><time>2026-04-25T13:29:52.333Z</time></trkpt><trkpt lat="43.9920382" lon="11.3645525"><ele>279.0</ele><time>2026-04-25T13:29:53.327Z</time></trkpt><trkpt lat="43.9919924" lon="11.3646775"><ele>277.0</ele><time>2026-04-25T13:29:54.294Z</time></trkpt><trkpt lat="43.9919415" lon="11.3648001"><ele>275.0</ele><time>2026-04-25T13:29:55.33Z</time></trkpt><trkpt lat="43.9918943" lon="11.3649279"><ele>273.0</ele><time>2026-04-25T13:29:56.303Z</time></trkpt><trkpt lat="43.9918471" lon="11.3650622"><ele>271.0</ele><time>2026-04-25T13:29:57.323Z</time></trkpt><trkpt lat="43.9918003" lon="11.3652004"><ele>269.0</ele><time>2026-04-25T13:29:58.316Z</time></trkpt><trkpt lat="43.9917502" lon="11.3653403"><ele>269.0</ele><time>2026-04-25T13:29:59.312Z</time></trkpt><trkpt lat="43.9916984" lon="11.3654808"><ele>269.0</ele><time>2026-04-25T13:30:00.309Z</time></trkpt><trkpt lat="43.9916454" lon="11.3656212"><ele>269.0</ele><time>2026-04-25T13:30:01.305Z</time></trkpt><trkpt lat="43.99159" lon="11.3657697"><ele>269.0</ele><time>2026-04-25T13:30:02.293Z</time></trkpt><trkpt lat="43.9915374" lon="11.3659201"><ele>266.75</ele><time>2026-04-25T13:30:03.323Z</time></trkpt><trkpt lat="43.9914856" lon="11.3660727"><ele>264.5</ele><time>2026-04-25T13:30:04.309Z</time></trkpt><trkpt lat="43.9914323" lon="11.366231"><ele>262.25</ele><time>2026-04-25T13:30:05.309Z</time></trkpt><trkpt lat="43.9913783" lon="11.3663861"><ele>260.0</ele><time>2026-04-25T13:30:06.306Z</time></trkpt><trkpt lat="43.9913182" lon="11.3665386"><ele>258.25</ele><time>2026-04-25T13:30:07.308Z</time></trkpt><trkpt lat="43.9912538" lon="11.3666975"><ele>256.5</ele><time>2026-04-25T13:30:08.305Z</time></trkpt><trkpt lat="43.9911895" lon="11.3668612"><ele>254.75</ele><time>2026-04-25T13:30:09.329Z</time></trkpt><trkpt lat="43.9911272" lon="11.3670302"><ele>253.0</ele><time>2026-04-25T13:30:10.329Z</time></trkpt><trkpt lat="43.9910682" lon="11.3671998"><ele>251.75</ele><time>2026-04-25T13:30:11.322Z</time></trkpt><trkpt lat="43.9910136" lon="11.3673849"><ele>250.5</ele><time>2026-04-25T13:30:12.316Z</time></trkpt><trkpt lat="43.9909587" lon="11.3675835"><ele>249.25</ele><time>2026-04-25T13:30:13.309Z</time></trkpt><trkpt lat="43.9909059" lon="11.3677792"><ele>248.0</ele><time>2026-04-25T13:30:14.334Z</time></trkpt><trkpt lat="43.9908471" lon="11.3679812"><ele>246.0</ele><time>2026-04-25T13:30:15.318Z</time></trkpt><trkpt lat="43.9907868" lon="11.3681867"><ele>244.0</ele><time>2026-04-25T13:30:16.327Z</time></trkpt><trkpt lat="43.9907233" lon="11.3684025"><ele>242.0</ele><time>2026-04-25T13:30:17.318Z</time></trkpt><trkpt lat="43.99066" lon="11.368617"><ele>242.0</ele><time>2026-04-25T13:30:18.324Z</time></trkpt><trkpt lat="43.9906056" lon="11.3688086"><ele>242.0</ele><time>2026-04-25T13:30:19.33Z</time></trkpt><trkpt lat="43.9905592" lon="11.3689758"><ele>242.0</ele><time>2026-04-25T13:30:20.32Z</time></trkpt><trkpt lat="43.9905194" lon="11.3691287"><ele>242.0</ele><time>2026-04-25T13:30:21.334Z</time></trkpt><trkpt lat="43.9904875" lon="11.3692645"><ele>242.16666666666669</ele><time>2026-04-25T13:30:22.33Z</time></trkpt><trkpt lat="43.9904511" lon="11.3693876"><ele>242.33333333333334</ele><time>2026-04-25T13:30:23.327Z</time></trkpt><trkpt lat="43.9904267" lon="11.3694934"><ele>242.5</ele><time>2026-04-25T13:30:24.332Z</time></trkpt><trkpt lat="43.990407" lon="11.3695891"><ele>242.66666666666669</ele><time>2026-04-25T13:30:25.317Z</time></trkpt><trkpt lat="43.9903898" lon="11.3696788"><ele>242.83333333333334</ele><time>2026-04-25T13:30:26.324Z</time></trkpt><trkpt lat="43.990357" lon="11.3698262"><ele>243.0</ele><time>2026-04-25T13:30:28.3Z</time></trkpt><trkpt lat="43.9903351" lon="11.3699608"><ele>243.66666666666666</ele><time>2026-04-25T13:30:30.32Z</time></trkpt><trkpt lat="43.9903993" lon="11.3700814"><ele>244.33333333333331</ele><time>2026-04-25T13:30:32.336Z</time></trkpt><trkpt lat="43.9904843" lon="11.3701203"><ele>245.0</ele><time>2026-04-25T13:30:34.321Z</time></trkpt><trkpt lat="43.9905488" lon="11.3701506"><ele>245.66666666666666</ele><time>2026-04-25T13:30:36.306Z</time></trkpt><trkpt lat="43.9906368" lon="11.3701736"><ele>246.33333333333331</ele><time>2026-04-25T13:30:39.301Z</time></trkpt><trkpt lat="43.9906985" lon="11.3701552"><ele>247.0</ele><time>2026-04-25T13:30:42.315Z</time></trkpt><trkpt lat="43.9907645" lon="11.3700743"><ele>247.0</ele><time>2026-04-25T13:32:55.302Z</time></trkpt><trkpt lat="43.9907361" lon="11.3699952"><ele>247.0</ele><time>2026-04-25T13:32:57.321Z</time></trkpt><trkpt lat="43.9906718" lon="11.3700097"><ele>247.0</ele><time>2026-04-25T13:32:59.304Z</time></trkpt><trkpt lat="43.9906248" lon="11.3700779"><ele>247.0</ele><time>2026-04-25T13:33:02.3Z</time></trkpt><trkpt lat="43.9906414" lon="11.370163"><ele>247.0</ele><time>2026-04-25T13:35:53.312Z</time></trkpt><trkpt lat="43.990699" lon="11.3702118"><ele>247.0</ele><time>2026-04-25T13:36:00.327Z</time></trkpt><trkpt lat="43.9907419" lon="11.3702795"><ele>247.0</ele><time>2026-04-25T13:36:09.326Z</time></trkpt><trkpt lat="43.9907873" lon="11.3703445"><ele>246.99999999999997</ele><time>2026-04-25T13:36:16.331Z</time></trkpt><trkpt lat="43.9907269" lon="11.3702981"><ele>247.0</ele><time>2026-04-25T13:38:21.311Z</time></trkpt><trkpt lat="43.9906671" lon="11.3702367"><ele>247.0</ele><time>2026-04-25T13:38:27.33Z</time></trkpt><trkpt lat="43.99062" lon="11.3701758"><ele>247.0</ele><time>2026-04-25T13:38:32.323Z</time></trkpt><trkpt lat="43.9906914" lon="11.3702544"><ele>246.99999999999997</ele><time>2026-04-25T13:39:53.233Z</time></trkpt><trkpt lat="43.9907548" lon="11.3703171"><ele>247.0</ele><time>2026-04-25T13:39:55.33Z</time></trkpt><trkpt lat="43.9908278" lon="11.3703937"><ele>247.39999999999998</ele><time>2026-04-25T13:39:58.325Z</time></trkpt><trkpt lat="43.990964" lon="11.3704726"><ele>247.79999999999998</ele><time>2026-04-25T13:40:00.324Z</time></trkpt><trkpt lat="43.9910353" lon="11.3705189"><ele>248.2</ele><time>2026-04-25T13:40:01.309Z</time></trkpt><trkpt lat="43.9911065" lon="11.3705631"><ele>248.6</ele><time>2026-04-25T13:40:02.317Z</time></trkpt><trkpt lat="43.9911808" lon="11.3706147"><ele>249.0</ele><time>2026-04-25T13:40:03.336Z</time></trkpt><trkpt lat="43.9912689" lon="11.3706807"><ele>250.79999999999998</ele><time>2026-04-25T13:40:04.306Z</time></trkpt><trkpt lat="43.9913597" lon="11.3707567"><ele>252.59999999999997</ele><time>2026-04-25T13:40:05.328Z</time></trkpt><trkpt lat="43.9914431" lon="11.370833"><ele>254.4</ele><time>2026-04-25T13:40:06.338Z</time></trkpt><trkpt lat="43.9915164" lon="11.370906"><ele>256.2</ele><time>2026-04-25T13:40:07.33Z</time></trkpt><trkpt lat="43.9915858" lon="11.3709711"><ele>258.0</ele><time>2026-04-25T13:40:08.346Z</time></trkpt><trkpt lat="43.9916576" lon="11.3710336"><ele>258.0</ele><time>2026-04-25T13:40:09.335Z</time></trkpt><trkpt lat="43.9917272" lon="11.3711004"><ele>258.0</ele><time>2026-04-25T13:40:10.339Z</time></trkpt><trkpt lat="43.991795" lon="11.3711636"><ele>258.0</ele><time>2026-04-25T13:40:11.331Z</time></trkpt><trkpt lat="43.9918629" lon="11.3712318"><ele>258.0</ele><time>2026-04-25T13:40:12.343Z</time></trkpt><trkpt lat="43.9919312" lon="11.3713026"><ele>258.0</ele><time>2026-04-25T13:40:13.339Z</time></trkpt><trkpt lat="43.9920073" lon="11.371377"><ele>258.0</ele><time>2026-04-25T13:40:14.338Z</time></trkpt><trkpt lat="43.9920871" lon="11.3714589"><ele>259.5</ele><time>2026-04-25T13:40:15.335Z</time></trkpt><trkpt lat="43.9921638" lon="11.3715373"><ele>261.0</ele><time>2026-04-25T13:40:16.331Z</time></trkpt><trkpt lat="43.9922349" lon="11.3716056"><ele>262.5</ele><time>2026-04-25T13:40:17.32Z</time></trkpt><trkpt lat="43.9923038" lon="11.3716747"><ele>264.0</ele><time>2026-04-25T13:40:18.338Z</time></trkpt><trkpt lat="43.9923662" lon="11.3717377"><ele>265.5</ele><time>2026-04-25T13:40:19.316Z</time></trkpt><trkpt lat="43.9924258" lon="11.3718036"><ele>267.0</ele><time>2026-04-25T13:40:20.329Z</time></trkpt><trkpt lat="43.9924852" lon="11.3718645"><ele>266.5</ele><time>2026-04-25T13:40:21.332Z</time></trkpt><trkpt lat="43.9925365" lon="11.3719198"><ele>266.0</ele><time>2026-04-25T13:40:22.339Z</time></trkpt><trkpt lat="43.9926189" lon="11.3720088"><ele>265.5</ele><time>2026-04-25T13:40:24.33Z</time></trkpt><trkpt lat="43.9926712" lon="11.3720611"><ele>265.0</ele><time>2026-04-25T13:40:25.341Z</time></trkpt><trkpt lat="43.9927317" lon="11.3721199"><ele>264.5</ele><time>2026-04-25T13:40:26.339Z</time></trkpt><trkpt lat="43.9927882" lon="11.3721843"><ele>264.0</ele><time>2026-04-25T13:40:27.341Z</time></trkpt><trkpt lat="43.9928534" lon="11.3722665"><ele>265.6666666666667</ele><time>2026-04-25T13:40:28.341Z</time></trkpt><trkpt lat="43.9929116" lon="11.3723492"><ele>267.3333333333333</ele><time>2026-04-25T13:40:29.349Z</time></trkpt><trkpt lat="43.9929604" lon="11.3724279"><ele>269.0</ele><time>2026-04-25T13:40:30.347Z</time></trkpt><trkpt lat="43.9930093" lon="11.3725031"><ele>270.66666666666663</ele><time>2026-04-25T13:40:31.344Z</time></trkpt><trkpt lat="43.9930622" lon="11.3725724"><ele>272.3333333333333</ele><time>2026-04-25T13:40:32.342Z</time></trkpt><trkpt lat="43.993123" lon="11.3726435"><ele>274.0</ele><time>2026-04-25T13:40:33.334Z</time></trkpt><trkpt lat="43.9931762" lon="11.3727197"><ele>274.0</ele><time>2026-04-25T13:40:34.328Z</time></trkpt><trkpt lat="43.9932304" lon="11.3728003"><ele>274.0</ele><time>2026-04-25T13:40:35.323Z</time></trkpt><trkpt lat="43.9932892" lon="11.3728826"><ele>274.0</ele><time>2026-04-25T13:40:36.319Z</time></trkpt><trkpt lat="43.9933507" lon="11.3729686"><ele>274.0</ele><time>2026-04-25T13:40:37.325Z</time></trkpt><trkpt lat="43.9934072" lon="11.3730554"><ele>274.0</ele><time>2026-04-25T13:40:38.329Z</time></trkpt><trkpt lat="43.9934619" lon="11.37314"><ele>274.0</ele><time>2026-04-25T13:40:39.352Z</time></trkpt><trkpt lat="43.9935191" lon="11.3732255"><ele>274.3333333333333</ele><time>2026-04-25T13:40:40.339Z</time></trkpt><trkpt lat="43.9935809" lon="11.3733164"><ele>274.66666666666663</ele><time>2026-04-25T13:40:41.339Z</time></trkpt><trkpt lat="43.993638" lon="11.3734036"><ele>275.0</ele><time>2026-04-25T13:40:42.331Z</time></trkpt><trkpt lat="43.993699" lon="11.3734854"><ele>275.3333333333333</ele><time>2026-04-25T13:40:43.334Z</time></trkpt><trkpt lat="43.9937586" lon="11.3735601"><ele>275.6666666666667</ele><time>2026-04-25T13:40:44.34Z</time></trkpt><trkpt lat="43.9938157" lon="11.3736266"><ele>276.0</ele><time>2026-04-25T13:40:45.299Z</time></trkpt><trkpt lat="43.9938727" lon="11.3736955"><ele>276.0</ele><time>2026-04-25T13:40:46.32Z</time></trkpt><trkpt lat="43.9939219" lon="11.3737785"><ele>276.0</ele><time>2026-04-25T13:40:47.32Z</time></trkpt><trkpt lat="43.9939722" lon="11.3738644"><ele>276.0</ele><time>2026-04-25T13:40:48.324Z</time></trkpt><trkpt lat="43.9940224" lon="11.3739433"><ele>276.0</ele><time>2026-04-25T13:40:49.332Z</time></trkpt><trkpt lat="43.9940709" lon="11.3740136"><ele>276.0</ele><time>2026-04-25T13:40:50.304Z</time></trkpt><trkpt lat="43.994146" lon="11.3740925"><ele>276.0</ele><time>2026-04-25T13:40:52.331Z</time></trkpt><trkpt lat="43.9941927" lon="11.3741648"><ele>276.57142857142856</ele><time>2026-04-25T13:40:54.327Z</time></trkpt><trkpt lat="43.9942379" lon="11.3742514"><ele>277.14285714285717</ele><time>2026-04-25T13:40:57.321Z</time></trkpt><trkpt lat="43.9941741" lon="11.3742817"><ele>277.7142857142857</ele><time>2026-04-25T13:41:20.337Z</time></trkpt><trkpt lat="43.99414" lon="11.3743634"><ele>278.2857142857143</ele><time>2026-04-25T13:42:46.309Z</time></trkpt><trkpt lat="43.9941973" lon="11.3744086"><ele>278.8571428571429</ele><time>2026-04-25T13:42:50.294Z</time></trkpt><trkpt lat="43.9942513" lon="11.3743602"><ele>279.42857142857144</ele><time>2026-04-25T13:42:52.339Z</time></trkpt><trkpt lat="43.9943236" lon="11.3743233"><ele>280.0</ele><time>2026-04-25T13:42:55.301Z</time></trkpt><trkpt lat="43.9943829" lon="11.3742907"><ele>280.0</ele><time>2026-04-25T13:42:58.33Z</time></trkpt><trkpt lat="43.9944177" lon="11.3742153"><ele>280.0</ele><time>2026-04-25T13:43:35.334Z</time></trkpt><trkpt lat="43.9943707" lon="11.374278"><ele>280.0</ele><time>2026-04-25T13:47:04.34Z</time></trkpt><trkpt lat="43.9943944" lon="11.374362"><ele>280.0</ele><time>2026-04-25T13:47:18.327Z</time></trkpt><trkpt lat="43.9944749" lon="11.3744891"><ele>280.0</ele><time>2026-04-25T13:47:20.333Z</time></trkpt><trkpt lat="43.9945193" lon="11.3745532"><ele>280.0</ele><time>2026-04-25T13:47:21.305Z</time></trkpt><trkpt lat="43.9945672" lon="11.3746196"><ele>280.0</ele><time>2026-04-25T13:47:22.332Z</time></trkpt><trkpt lat="43.9946185" lon="11.374681"><ele>283.0</ele><time>2026-04-25T13:47:23.317Z</time></trkpt><trkpt lat="43.9947044" lon="11.3748034"><ele>286.0</ele><time>2026-04-25T13:47:25.336Z</time></trkpt><trkpt lat="43.9947452" lon="11.3748714"><ele>289.0</ele><time>2026-04-25T13:47:26.343Z</time></trkpt><trkpt lat="43.9948172" lon="11.3749871"><ele>292.0</ele><time>2026-04-25T13:47:28.298Z</time></trkpt><trkpt lat="43.9949035" lon="11.3750975"><ele>295.0</ele><time>2026-04-25T13:47:30.333Z</time></trkpt><trkpt lat="43.9949525" lon="11.3751592"><ele>293.6</ele><time>2026-04-25T13:47:31.327Z</time></trkpt><trkpt lat="43.9950464" lon="11.3752758"><ele>292.2</ele><time>2026-04-25T13:47:33.334Z</time></trkpt><trkpt lat="43.9950921" lon="11.3753365"><ele>290.8</ele><time>2026-04-25T13:47:34.334Z</time></trkpt><trkpt lat="43.9951656" lon="11.3754257"><ele>289.4</ele><time>2026-04-25T13:47:36.327Z</time></trkpt><trkpt lat="43.9952523" lon="11.3754712"><ele>288.0</ele><time>2026-04-25T13:47:38.287Z</time></trkpt><trkpt lat="43.9953344" lon="11.3755006"><ele>288.0</ele><time>2026-04-25T13:47:40.299Z</time></trkpt><trkpt lat="43.9954157" lon="11.3755374"><ele>288.0</ele><time>2026-04-25T13:47:43.308Z</time></trkpt><trkpt lat="43.9954922" lon="11.3755403"><ele>288.0</ele><time>2026-04-25T13:47:45.298Z</time></trkpt><trkpt lat="43.9955875" lon="11.3755542"><ele>288.0</ele><time>2026-04-25T13:47:47.295Z</time></trkpt><trkpt lat="43.9956638" lon="11.3755215"><ele>288.0</ele><time>2026-04-25T13:47:49.302Z</time></trkpt><trkpt lat="43.9957413" lon="11.3754905"><ele>288.0</ele><time>2026-04-25T13:47:51.3Z</time></trkpt><trkpt lat="43.9958317" lon="11.3754698"><ele>287.0</ele><time>2026-04-25T13:47:54.295Z</time></trkpt><trkpt lat="43.9958949" lon="11.3754872"><ele>286.0</ele><time>2026-04-25T13:47:57.308Z</time></trkpt><trkpt lat="43.9959765" lon="11.3754767"><ele>285.0</ele><time>2026-04-25T13:48:02.297Z</time></trkpt><trkpt lat="43.9960442" lon="11.3754838"><ele>284.0</ele><time>2026-04-25T13:48:04.287Z</time></trkpt><trkpt lat="43.9961352" lon="11.3755123"><ele>283.0</ele><time>2026-04-25T13:48:06.293Z</time></trkpt><trkpt lat="43.9962541" lon="11.3755409"><ele>282.0</ele><time>2026-04-25T13:48:08.303Z</time></trkpt><trkpt lat="43.9963166" lon="11.3755569"><ele>284.0</ele><time>2026-04-25T13:48:09.287Z</time></trkpt><trkpt lat="43.9963791" lon="11.3755763"><ele>286.0</ele><time>2026-04-25T13:48:10.296Z</time></trkpt><trkpt lat="43.9964447" lon="11.3756034"><ele>288.0</ele><time>2026-04-25T13:48:11.298Z</time></trkpt><trkpt lat="43.9965506" lon="11.3756311"><ele>290.0</ele><time>2026-04-25T13:48:13.312Z</time></trkpt><trkpt lat="43.9966501" lon="11.3756371"><ele>292.0</ele><time>2026-04-25T13:48:15.288Z</time></trkpt><trkpt lat="43.996739" lon="11.3755959"><ele>294.0</ele><time>2026-04-25T13:48:17.302Z</time></trkpt><trkpt lat="43.9968467" lon="11.3755882"><ele>294.0</ele><time>2026-04-25T13:48:19.29Z</time></trkpt><trkpt lat="43.9969305" lon="11.37565"><ele>294.0</ele><time>2026-04-25T13:48:22.286Z</time></trkpt><trkpt lat="43.9969749" lon="11.3757147"><ele>294.0</ele><time>2026-04-25T13:48:24.279Z</time></trkpt><trkpt lat="43.9970331" lon="11.3757806"><ele>294.0</ele><time>2026-04-25T13:48:26.278Z</time></trkpt><trkpt lat="43.9971222" lon="11.3758405"><ele>294.0</ele><time>2026-04-25T13:48:28.279Z</time></trkpt><trkpt lat="43.9971846" lon="11.375884"><ele>294.0</ele><time>2026-04-25T13:48:29.281Z</time></trkpt><trkpt lat="43.9972463" lon="11.3759441"><ele>294.0</ele><time>2026-04-25T13:48:30.302Z</time></trkpt><trkpt lat="43.9973037" lon="11.375993"><ele>294.0</ele><time>2026-04-25T13:48:31.313Z</time></trkpt><trkpt lat="43.9973614" lon="11.3760499"><ele>294.0</ele><time>2026-04-25T13:48:32.307Z</time></trkpt><trkpt lat="43.9974552" lon="11.3761537"><ele>294.0</ele><time>2026-04-25T13:48:34.299Z</time></trkpt><trkpt lat="43.9975569" lon="11.3762448"><ele>294.0</ele><time>2026-04-25T13:48:36.322Z</time></trkpt><trkpt lat="43.9976178" lon="11.3762886"><ele>294.0</ele><time>2026-04-25T13:48:37.321Z</time></trkpt><trkpt lat="43.9977284" lon="11.3763631"><ele>295.0</ele><time>2026-04-25T13:48:39.316Z</time></trkpt><trkpt lat="43.9978333" lon="11.3764091"><ele>296.0</ele><time>2026-04-25T13:48:41.321Z</time></trkpt><trkpt lat="43.9978947" lon="11.3764361"><ele>297.0</ele><time>2026-04-25T13:48:42.32Z</time></trkpt><trkpt lat="43.9980032" lon="11.37652"><ele>298.0</ele><time>2026-04-25T13:48:44.305Z</time></trkpt><trkpt lat="43.9980705" lon="11.3765556"><ele>299.0</ele><time>2026-04-25T13:48:45.338Z</time></trkpt><trkpt lat="43.9981898" lon="11.3766066"><ele>299.0</ele><time>2026-04-25T13:48:47.319Z</time></trkpt><trkpt lat="43.998255" lon="11.3766371"><ele>299.0</ele><time>2026-04-25T13:48:48.323Z</time></trkpt><trkpt lat="43.9983204" lon="11.3766706"><ele>299.0</ele><time>2026-04-25T13:48:49.277Z</time></trkpt><trkpt lat="43.998379" lon="11.376721"><ele>299.0</ele><time>2026-04-25T13:48:50.308Z</time></trkpt><trkpt lat="43.9984368" lon="11.3767863"><ele>299.0</ele><time>2026-04-25T13:48:51.317Z</time></trkpt><trkpt lat="43.9984846" lon="11.3768518"><ele>299.0</ele><time>2026-04-25T13:48:52.321Z</time></trkpt><trkpt lat="43.9985294" lon="11.3769858"><ele>299.2</ele><time>2026-04-25T13:48:54.28Z</time></trkpt><trkpt lat="43.998561" lon="11.3771004"><ele>299.4</ele><time>2026-04-25T13:48:56.319Z</time></trkpt><trkpt lat="43.9986275" lon="11.3771654"><ele>299.6</ele><time>2026-04-25T13:48:58.313Z</time></trkpt><trkpt lat="43.9987307" lon="11.3772009"><ele>299.8</ele><time>2026-04-25T13:49:00.336Z</time></trkpt><trkpt lat="43.9988614" lon="11.3772464"><ele>300.0</ele><time>2026-04-25T13:49:02.325Z</time></trkpt><trkpt lat="43.9989276" lon="11.3772888"><ele>300.0</ele><time>2026-04-25T13:49:03.315Z</time></trkpt><trkpt lat="43.9989951" lon="11.3773402"><ele>300.0</ele><time>2026-04-25T13:49:04.29Z</time></trkpt><trkpt lat="43.9990736" lon="11.3774043"><ele>300.0</ele><time>2026-04-25T13:49:05.297Z</time></trkpt><trkpt lat="43.999129" lon="11.3774851"><ele>300.0</ele><time>2026-04-25T13:49:06.318Z</time></trkpt><trkpt lat="43.9991862" lon="11.3775645"><ele>300.0</ele><time>2026-04-25T13:49:07.322Z</time></trkpt><trkpt lat="43.9992534" lon="11.377657"><ele>300.0</ele><time>2026-04-25T13:49:08.327Z</time></trkpt><trkpt lat="43.9993119" lon="11.3777376"><ele>298.8333333333333</ele><time>2026-04-25T13:49:09.33Z</time></trkpt><trkpt lat="43.9993715" lon="11.3778275"><ele>297.6666666666667</ele><time>2026-04-25T13:49:10.321Z</time></trkpt><trkpt lat="43.9994417" lon="11.3779194"><ele>296.5</ele><time>2026-04-25T13:49:11.32Z</time></trkpt><trkpt lat="43.9995144" lon="11.3779937"><ele>295.33333333333337</ele><time>2026-04-25T13:49:12.34Z</time></trkpt><trkpt lat="43.9995764" lon="11.3780406"><ele>294.1666666666667</ele><time>2026-04-25T13:49:13.321Z</time></trkpt><trkpt lat="43.999653" lon="11.3781188"><ele>293.0</ele><time>2026-04-25T13:49:15.311Z</time></trkpt><trkpt lat="43.9996457" lon="11.3780313"><ele>296.0</ele><time>2026-04-25T13:49:28.303Z</time></trkpt><trkpt lat="43.9997089" lon="11.3780777"><ele>299.0</ele><time>2026-04-25T13:49:39.33Z</time></trkpt><trkpt lat="43.9997678" lon="11.3781544"><ele>302.0</ele><time>2026-04-25T13:49:41.329Z</time></trkpt><trkpt lat="43.9998069" lon="11.3782354"><ele>305.0</ele><time>2026-04-25T13:49:42.321Z</time></trkpt><trkpt lat="43.9998827" lon="11.3783511"><ele>308.0</ele><time>2026-04-25T13:49:44.299Z</time></trkpt><trkpt lat="43.999948" lon="11.3784406"><ele>311.0</ele><time>2026-04-25T13:49:46.327Z</time></trkpt><trkpt lat="44.0000184" lon="11.3784984"><ele>311.0</ele><time>2026-04-25T13:49:48.315Z</time></trkpt><trkpt lat="44.0000826" lon="11.3785635"><ele>311.0</ele><time>2026-04-25T13:49:50.321Z</time></trkpt><trkpt lat="44.0001584" lon="11.3786189"><ele>311.0</ele><time>2026-04-25T13:49:52.32Z</time></trkpt><trkpt lat="44.0002389" lon="11.3786559"><ele>311.0</ele><time>2026-04-25T13:49:54.317Z</time></trkpt><trkpt lat="44.0003313" lon="11.3786729"><ele>311.0</ele><time>2026-04-25T13:49:56.323Z</time></trkpt><trkpt lat="44.0004088" lon="11.3786527"><ele>311.0</ele><time>2026-04-25T13:49:58.334Z</time></trkpt><trkpt lat="44.0004871" lon="11.3785789"><ele>311.0</ele><time>2026-04-25T13:50:00.323Z</time></trkpt><trkpt lat="44.0005466" lon="11.3784859"><ele>311.0</ele><time>2026-04-25T13:50:02.361Z</time></trkpt><trkpt lat="44.0006008" lon="11.3784073"><ele>311.0</ele><time>2026-04-25T13:50:04.31Z</time></trkpt><trkpt lat="44.00067" lon="11.378369"><ele>311.0</ele><time>2026-04-25T13:50:06.332Z</time></trkpt><trkpt lat="44.0007692" lon="11.3783927"><ele>311.0</ele><time>2026-04-25T13:50:08.326Z</time></trkpt><trkpt lat="44.0008757" lon="11.3784502"><ele>309.8</ele><time>2026-04-25T13:50:10.322Z</time></trkpt><trkpt lat="44.00094" lon="11.3784866"><ele>308.6</ele><time>2026-04-25T13:50:11.319Z</time></trkpt><trkpt lat="44.0010031" lon="11.3785393"><ele>307.4</ele><time>2026-04-25T13:50:12.335Z</time></trkpt><trkpt lat="44.0010572" lon="11.3785848"><ele>306.2</ele><time>2026-04-25T13:50:13.324Z</time></trkpt><trkpt lat="44.0011653" lon="11.3786772"><ele>305.0</ele><time>2026-04-25T13:50:15.327Z</time></trkpt><trkpt lat="44.0012749" lon="11.37874"><ele>305.0</ele><time>2026-04-25T13:50:17.331Z</time></trkpt><trkpt lat="44.0013503" lon="11.3787553"><ele>305.0</ele><time>2026-04-25T13:50:18.328Z</time></trkpt><trkpt lat="44.0014188" lon="11.3787601"><ele>305.0</ele><time>2026-04-25T13:50:19.328Z</time></trkpt><trkpt lat="44.0014968" lon="11.3787647"><ele>305.0</ele><time>2026-04-25T13:50:20.325Z</time></trkpt><trkpt lat="44.0015729" lon="11.378747"><ele>305.0</ele><time>2026-04-25T13:50:21.345Z</time></trkpt><trkpt lat="44.0016438" lon="11.3787058"><ele>305.0</ele><time>2026-04-25T13:50:22.335Z</time></trkpt><trkpt lat="44.0017106" lon="11.3786425"><ele>305.14285714285717</ele><time>2026-04-25T13:50:23.339Z</time></trkpt><trkpt lat="44.0017578" lon="11.3785644"><ele>305.2857142857143</ele><time>2026-04-25T13:50:24.324Z</time></trkpt><trkpt lat="44.0018018" lon="11.3784828"><ele>305.42857142857144</ele><time>2026-04-25T13:50:25.323Z</time></trkpt><trkpt lat="44.0018431" lon="11.3784025"><ele>305.57142857142856</ele><time>2026-04-25T13:50:26.329Z</time></trkpt><trkpt lat="44.0018654" lon="11.3783153"><ele>305.7142857142857</ele><time>2026-04-25T13:50:27.323Z</time></trkpt><trkpt lat="44.0018754" lon="11.3782132"><ele>305.85714285714283</ele><time>2026-04-25T13:50:28.286Z</time></trkpt><trkpt lat="44.0018738" lon="11.3781017"><ele>306.0</ele><time>2026-04-25T13:50:29.33Z</time></trkpt><trkpt lat="44.0018489" lon="11.3779933"><ele>305.5</ele><time>2026-04-25T13:50:30.321Z</time></trkpt><trkpt lat="44.0018222" lon="11.3778858"><ele>305.0</ele><time>2026-04-25T13:50:31.319Z</time></trkpt><trkpt lat="44.0017964" lon="11.3778055"><ele>304.5</ele><time>2026-04-25T13:50:32.335Z</time></trkpt><trkpt lat="44.0017572" lon="11.3777293"><ele>304.0</ele><time>2026-04-25T13:50:33.334Z</time></trkpt><trkpt lat="44.001695" lon="11.3776263"><ele>303.5</ele><time>2026-04-25T13:50:35.326Z</time></trkpt><trkpt lat="44.0016368" lon="11.3775255"><ele>303.0</ele><time>2026-04-25T13:50:37.325Z</time></trkpt><trkpt lat="44.0015848" lon="11.3774163"><ele>300.3333333333333</ele><time>2026-04-25T13:50:39.293Z</time></trkpt><trkpt lat="44.0015403" lon="11.3773064"><ele>297.6666666666667</ele><time>2026-04-25T13:50:41.339Z</time></trkpt><trkpt lat="44.0014985" lon="11.3772023"><ele>295.0</ele><time>2026-04-25T13:50:43.319Z</time></trkpt><trkpt lat="44.001458" lon="11.3771029"><ele>292.33333333333337</ele><time>2026-04-25T13:50:45.32Z</time></trkpt><trkpt lat="44.0014344" lon="11.3769832"><ele>289.6666666666667</ele><time>2026-04-25T13:50:47.317Z</time></trkpt><trkpt lat="44.0014496" lon="11.3768592"><ele>287.0</ele><time>2026-04-25T13:50:50.329Z</time></trkpt><trkpt lat="44.001437" lon="11.3767725"><ele>283.0</ele><time>2026-04-25T13:50:54.328Z</time></trkpt><trkpt lat="44.0014761" lon="11.3766906"><ele>283.0</ele><time>2026-04-25T13:52:01.284Z</time></trkpt><trkpt lat="44.0014906" lon="11.3765963"><ele>283.0</ele><time>2026-04-25T13:52:56.324Z</time></trkpt></trkseg><trkseg><trkpt lat="44.0014523" lon="11.3766391"><ele>283.0</ele><time>2026-04-25T14:36:08.287Z</time></trkpt><trkpt lat="44.0015128" lon="11.3766969"><ele>283.0</ele><time>2026-04-25T14:46:01.28Z</time></trkpt><trkpt lat="44.0014758" lon="11.3768254"><ele>283.0</ele><time>2026-04-25T14:46:05.309Z</time></trkpt><trkpt lat="44.0014544" lon="11.3769492"><ele>283.0</ele><time>2026-04-25T14:46:07.299Z</time></trkpt><trkpt lat="44.0014935" lon="11.377099"><ele>283.0</ele><time>2026-04-25T14:46:09.311Z</time></trkpt><trkpt lat="44.001528" lon="11.3771911"><ele>283.8</ele><time>2026-04-25T14:46:10.317Z</time></trkpt><trkpt lat="44.0015651" lon="11.3772761"><ele>284.6</ele><time>2026-04-25T14:46:11.304Z</time></trkpt><trkpt lat="44.0016253" lon="11.3774121"><ele>285.4</ele><time>2026-04-25T14:46:13.291Z</time></trkpt><trkpt lat="44.0016619" lon="11.3775416"><ele>286.2</ele><time>2026-04-25T14:46:15.307Z</time></trkpt><trkpt lat="44.0017174" lon="11.3777003"><ele>287.0</ele><time>2026-04-25T14:46:17.301Z</time></trkpt><trkpt lat="44.0017802" lon="11.3778414"><ele>289.6666666666667</ele><time>2026-04-25T14:46:19.321Z</time></trkpt><trkpt lat="44.0018264" lon="11.3779141"><ele>292.33333333333337</ele><time>2026-04-25T14:46:20.311Z</time></trkpt><trkpt lat="44.0018663" lon="11.3779876"><ele>295.0</ele><time>2026-04-25T14:46:21.288Z</time></trkpt><trkpt lat="44.0019009" lon="11.3781636"><ele>297.6666666666667</ele><time>2026-04-25T14:46:23.305Z</time></trkpt><trkpt lat="44.0018916" lon="11.3782633"><ele>300.3333333333333</ele><time>2026-04-25T14:46:24.32Z</time></trkpt><trkpt lat="44.0018444" lon="11.3783712"><ele>303.0</ele><time>2026-04-25T14:46:25.308Z</time></trkpt><trkpt lat="44.0017766" lon="11.3784842"><ele>303.4</ele><time>2026-04-25T14:46:26.31Z</time></trkpt><trkpt lat="44.0017021" lon="11.3785877"><ele>303.8</ele><time>2026-04-25T14:46:27.31Z</time></trkpt><trkpt lat="44.0016285" lon="11.3786568"><ele>304.2</ele><time>2026-04-25T14:46:28.31Z</time></trkpt><trkpt lat="44.0015508" lon="11.3787123"><ele>304.6</ele><time>2026-04-25T14:46:29.305Z</time></trkpt><trkpt lat="44.0014545" lon="11.3787379"><ele>305.0</ele><time>2026-04-25T14:46:30.31Z</time></trkpt><trkpt lat="44.0013514" lon="11.3787417"><ele>305.0</ele><time>2026-04-25T14:46:31.3Z</time></trkpt><trkpt lat="44.0012488" lon="11.3787164"><ele>305.0</ele><time>2026-04-25T14:46:32.316Z</time></trkpt><trkpt lat="44.0011628" lon="11.3787048"><ele>305.0</ele><time>2026-04-25T14:46:33.305Z</time></trkpt><trkpt lat="44.0010957" lon="11.3786795"><ele>305.0</ele><time>2026-04-25T14:46:34.323Z</time></trkpt><trkpt lat="44.0010372" lon="11.3786398"><ele>305.0</ele><time>2026-04-25T14:46:35.32Z</time></trkpt><trkpt lat="44.0009709" lon="11.3785881"><ele>305.0</ele><time>2026-04-25T14:46:36.317Z</time></trkpt><trkpt lat="44.000903" lon="11.37853"><ele>305.0</ele><time>2026-04-25T14:46:37.323Z</time></trkpt><trkpt lat="44.0008415" lon="11.378478"><ele>305.0</ele><time>2026-04-25T14:46:38.311Z</time></trkpt><trkpt lat="44.0007799" lon="11.378427"><ele>305.0</ele><time>2026-04-25T14:46:39.319Z</time></trkpt><trkpt lat="44.0006702" lon="11.3784046"><ele>305.0</ele><time>2026-04-25T14:46:41.314Z</time></trkpt><trkpt lat="44.0005686" lon="11.3784688"><ele>305.0</ele><time>2026-04-25T14:46:43.309Z</time></trkpt><trkpt lat="44.000515" lon="11.3785268"><ele>305.0</ele><time>2026-04-25T14:46:44.301Z</time></trkpt><trkpt lat="44.0004472" lon="11.3785898"><ele>306.2</ele><time>2026-04-25T14:46:45.316Z</time></trkpt><trkpt lat="44.0003615" lon="11.3786063"><ele>307.4</ele><time>2026-04-25T14:46:46.32Z</time></trkpt><trkpt lat="44.0002565" lon="11.3785921"><ele>308.6</ele><time>2026-04-25T14:46:47.306Z</time></trkpt><trkpt lat="44.0001593" lon="11.3785415"><ele>309.8</ele><time>2026-04-25T14:46:48.316Z</time></trkpt><trkpt lat="44.0000626" lon="11.3784752"><ele>311.0</ele><time>2026-04-25T14:46:49.297Z</time></trkpt><trkpt lat="43.9999716" lon="11.378396"><ele>311.0</ele><time>2026-04-25T14:46:50.313Z</time></trkpt><trkpt lat="43.9998866" lon="11.3783037"><ele>311.0</ele><time>2026-04-25T14:46:51.297Z</time></trkpt><trkpt lat="43.9997906" lon="11.3782221"><ele>311.0</ele><time>2026-04-25T14:46:52.316Z</time></trkpt><trkpt lat="43.9996947" lon="11.3781558"><ele>311.0</ele><time>2026-04-25T14:46:53.316Z</time></trkpt><trkpt lat="43.9995988" lon="11.3780877"><ele>311.0</ele><time>2026-04-25T14:46:54.281Z</time></trkpt><trkpt lat="43.9995058" lon="11.3780194"><ele>309.1666666666667</ele><time>2026-04-25T14:46:55.321Z</time></trkpt><trkpt lat="43.9994162" lon="11.3779472"><ele>307.33333333333337</ele><time>2026-04-25T14:46:56.324Z</time></trkpt><trkpt lat="43.9993433" lon="11.3778679"><ele>305.5</ele><time>2026-04-25T14:46:57.303Z</time></trkpt><trkpt lat="43.9992719" lon="11.3777885"><ele>303.6666666666667</ele><time>2026-04-25T14:46:58.292Z</time></trkpt><trkpt lat="43.9992108" lon="11.3777099"><ele>301.8333333333333</ele><time>2026-04-25T14:46:59.319Z</time></trkpt><trkpt lat="43.9991608" lon="11.3776287"><ele>300.0</ele><time>2026-04-25T14:47:00.299Z</time></trkpt><trkpt lat="43.9991005" lon="11.3775462"><ele>300.0</ele><time>2026-04-25T14:47:01.317Z</time></trkpt><trkpt lat="43.9990416" lon="11.3774581"><ele>300.0</ele><time>2026-04-25T14:47:02.285Z</time></trkpt><trkpt lat="43.9989717" lon="11.3773683"><ele>300.0</ele><time>2026-04-25T14:47:03.314Z</time></trkpt><trkpt lat="43.9989015" lon="11.3772796"><ele>300.0</ele><time>2026-04-25T14:47:04.326Z</time></trkpt><trkpt lat="43.9988233" lon="11.3772054"><ele>300.0</ele><time>2026-04-25T14:47:05.293Z</time></trkpt><trkpt lat="43.9987424" lon="11.3771565"><ele>298.1666666666667</ele><time>2026-04-25T14:47:06.312Z</time></trkpt><trkpt lat="43.9986675" lon="11.3771344"><ele>296.3333333333333</ele><time>2026-04-25T14:47:07.306Z</time></trkpt><trkpt lat="43.9985767" lon="11.3771215"><ele>294.5</ele><time>2026-04-25T14:47:09.317Z</time></trkpt><trkpt lat="43.998534" lon="11.3770537"><ele>292.66666666666663</ele><time>2026-04-25T14:47:11.286Z</time></trkpt><trkpt lat="43.9984964" lon="11.3768882"><ele>290.8333333333333</ele><time>2026-04-25T14:47:13.306Z</time></trkpt><trkpt lat="43.9984523" lon="11.3767952"><ele>289.0</ele><time>2026-04-25T14:47:14.306Z</time></trkpt><trkpt lat="43.9983814" lon="11.3767247"><ele>290.66666666666663</ele><time>2026-04-25T14:47:15.311Z</time></trkpt><trkpt lat="43.9982986" lon="11.3766675"><ele>292.3333333333333</ele><time>2026-04-25T14:47:16.309Z</time></trkpt><trkpt lat="43.9982156" lon="11.376605"><ele>294.0</ele><time>2026-04-25T14:47:17.312Z</time></trkpt><trkpt lat="43.9981391" lon="11.3765468"><ele>295.6666666666667</ele><time>2026-04-25T14:47:18.308Z</time></trkpt><trkpt lat="43.9980577" lon="11.3764822"><ele>297.33333333333337</ele><time>2026-04-25T14:47:19.301Z</time></trkpt><trkpt lat="43.9979869" lon="11.3764271"><ele>299.0</ele><time>2026-04-25T14:47:20.316Z</time></trkpt><trkpt lat="43.9979146" lon="11.3763823"><ele>298.1666666666667</ele><time>2026-04-25T14:47:21.304Z</time></trkpt><trkpt lat="43.9978499" lon="11.3763405"><ele>297.33333333333337</ele><time>2026-04-25T14:47:22.309Z</time></trkpt><trkpt lat="43.9977742" lon="11.3762989"><ele>296.5</ele><time>2026-04-25T14:47:23.308Z</time></trkpt><trkpt lat="43.9976958" lon="11.3762583"><ele>295.6666666666667</ele><time>2026-04-25T14:47:24.319Z</time></trkpt><trkpt lat="43.9976185" lon="11.376212"><ele>294.8333333333333</ele><time>2026-04-25T14:47:25.315Z</time></trkpt><trkpt lat="43.9975397" lon="11.3761585"><ele>294.0</ele><time>2026-04-25T14:47:26.307Z</time></trkpt><trkpt lat="43.9974544" lon="11.3760953"><ele>294.0</ele><time>2026-04-25T14:47:27.312Z</time></trkpt><trkpt lat="43.9973703" lon="11.3760196"><ele>294.0</ele><time>2026-04-25T14:47:28.295Z</time></trkpt><trkpt lat="43.997281" lon="11.3759348"><ele>294.0</ele><time>2026-04-25T14:47:29.31Z</time></trkpt><trkpt lat="43.997191" lon="11.3758551"><ele>294.0</ele><time>2026-04-25T14:47:30.315Z</time></trkpt><trkpt lat="43.997091" lon="11.3757745"><ele>294.0</ele><time>2026-04-25T14:47:31.306Z</time></trkpt><trkpt lat="43.9969938" lon="11.3757171"><ele>294.0</ele><time>2026-04-25T14:47:32.314Z</time></trkpt><trkpt lat="43.9968939" lon="11.3756821"><ele>294.0</ele><time>2026-04-25T14:47:33.325Z</time></trkpt><trkpt lat="43.9967945" lon="11.3756547"><ele>294.0</ele><time>2026-04-25T14:47:34.3Z</time></trkpt><trkpt lat="43.9967006" lon="11.3756441"><ele>294.0</ele><time>2026-04-25T14:47:35.307Z</time></trkpt><trkpt lat="43.9966188" lon="11.3756355"><ele>294.0</ele><time>2026-04-25T14:47:36.309Z</time></trkpt><trkpt lat="43.9965469" lon="11.3756378"><ele>294.6666666666667</ele><time>2026-04-25T14:47:37.298Z</time></trkpt><trkpt lat="43.9964759" lon="11.3756287"><ele>295.3333333333333</ele><time>2026-04-25T14:47:38.313Z</time></trkpt><trkpt lat="43.9964018" lon="11.3756031"><ele>296.0</ele><time>2026-04-25T14:47:39.307Z</time></trkpt><trkpt lat="43.9963356" lon="11.3755729"><ele>296.66666666666663</ele><time>2026-04-25T14:47:40.307Z</time></trkpt><trkpt lat="43.9962653" lon="11.3755412"><ele>297.3333333333333</ele><time>2026-04-25T14:47:41.312Z</time></trkpt><trkpt lat="43.9961861" lon="11.3755137"><ele>298.0</ele><time>2026-04-25T14:47:42.305Z</time></trkpt><trkpt lat="43.9960994" lon="11.3754859"><ele>296.0</ele><time>2026-04-25T14:47:43.301Z</time></trkpt><trkpt lat="43.9960003" lon="11.3754666"><ele>294.0</ele><time>2026-04-25T14:47:44.313Z</time></trkpt><trkpt lat="43.9958918" lon="11.3754638"><ele>292.0</ele><time>2026-04-25T14:47:45.321Z</time></trkpt><trkpt lat="43.9957774" lon="11.3754732"><ele>290.0</ele><time>2026-04-25T14:47:46.321Z</time></trkpt><trkpt lat="43.9956564" lon="11.3754706"><ele>288.0</ele><time>2026-04-25T14:47:47.315Z</time></trkpt><trkpt lat="43.9955488" lon="11.3754518"><ele>288.0</ele><time>2026-04-25T14:47:48.307Z</time></trkpt><trkpt lat="43.9954495" lon="11.3754353"><ele>288.0</ele><time>2026-04-25T14:47:49.316Z</time></trkpt><trkpt lat="43.9953571" lon="11.3754187"><ele>288.0</ele><time>2026-04-25T14:47:50.322Z</time></trkpt><trkpt lat="43.9952637" lon="11.3754017"><ele>288.0</ele><time>2026-04-25T14:47:51.303Z</time></trkpt><trkpt lat="43.9951804" lon="11.375355"><ele>288.0</ele><time>2026-04-25T14:47:52.334Z</time></trkpt><trkpt lat="43.9951093" lon="11.3752992"><ele>288.0</ele><time>2026-04-25T14:47:53.312Z</time></trkpt><trkpt lat="43.9950296" lon="11.3752254"><ele>288.0</ele><time>2026-04-25T14:47:54.3Z</time></trkpt><trkpt lat="43.9949513" lon="11.3751304"><ele>288.0</ele><time>2026-04-25T14:47:55.318Z</time></trkpt><trkpt lat="43.9948754" lon="11.3750225"><ele>288.0</ele><time>2026-04-25T14:47:56.333Z</time></trkpt><trkpt lat="43.9948037" lon="11.3749256"><ele>288.0</ele><time>2026-04-25T14:47:57.316Z</time></trkpt><trkpt lat="43.9947306" lon="11.3748342"><ele>289.4</ele><time>2026-04-25T14:47:58.322Z</time></trkpt><trkpt lat="43.9946596" lon="11.3747395"><ele>290.8</ele><time>2026-04-25T14:47:59.302Z</time></trkpt><trkpt lat="43.9945837" lon="11.3746392"><ele>292.2</ele><time>2026-04-25T14:48:00.318Z</time></trkpt><trkpt lat="43.9945139" lon="11.3745493"><ele>293.6</ele><time>2026-04-25T14:48:01.327Z</time></trkpt><trkpt lat="43.9944496" lon="11.3744551"><ele>295.0</ele><time>2026-04-25T14:48:02.326Z</time></trkpt><trkpt lat="43.9943844" lon="11.3743685"><ele>294.2</ele><time>2026-04-25T14:48:03.324Z</time></trkpt><trkpt lat="43.9943199" lon="11.3742685"><ele>293.4</ele><time>2026-04-25T14:48:04.317Z</time></trkpt><trkpt lat="43.9942497" lon="11.3741718"><ele>292.6</ele><time>2026-04-25T14:48:05.321Z</time></trkpt><trkpt lat="43.994176" lon="11.3740754"><ele>291.8</ele><time>2026-04-25T14:48:06.303Z</time></trkpt><trkpt lat="43.994108" lon="11.373984"><ele>291.0</ele><time>2026-04-25T14:48:07.294Z</time></trkpt><trkpt lat="43.9940398" lon="11.3738926"><ele>288.0</ele><time>2026-04-25T14:48:08.327Z</time></trkpt><trkpt lat="43.9939753" lon="11.3737995"><ele>285.0</ele><time>2026-04-25T14:48:09.32Z</time></trkpt><trkpt lat="43.993911" lon="11.373706"><ele>282.0</ele><time>2026-04-25T14:48:10.318Z</time></trkpt><trkpt lat="43.9938465" lon="11.3736017"><ele>279.0</ele><time>2026-04-25T14:48:11.326Z</time></trkpt><trkpt lat="43.9937779" lon="11.3735094"><ele>276.0</ele><time>2026-04-25T14:48:12.323Z</time></trkpt><trkpt lat="43.9937087" lon="11.3734245"><ele>276.0</ele><time>2026-04-25T14:48:13.324Z</time></trkpt><trkpt lat="43.993645" lon="11.3733338"><ele>276.0</ele><time>2026-04-25T14:48:14.323Z</time></trkpt><trkpt lat="43.9935807" lon="11.3732432"><ele>276.0</ele><time>2026-04-25T14:48:15.325Z</time></trkpt><trkpt lat="43.9935143" lon="11.3731482"><ele>276.0</ele><time>2026-04-25T14:48:16.314Z</time></trkpt><trkpt lat="43.9934475" lon="11.3730509"><ele>276.0</ele><time>2026-04-25T14:48:17.328Z</time></trkpt><trkpt lat="43.9933745" lon="11.372953"><ele>275.6</ele><time>2026-04-25T14:48:18.337Z</time></trkpt><trkpt lat="43.9933074" lon="11.3728515"><ele>275.20000000000005</ele><time>2026-04-25T14:48:19.322Z</time></trkpt><trkpt lat="43.9932371" lon="11.372756"><ele>274.79999999999995</ele><time>2026-04-25T14:48:20.317Z</time></trkpt><trkpt lat="43.9931714" lon="11.372667"><ele>274.4</ele><time>2026-04-25T14:48:21.33Z</time></trkpt><trkpt lat="43.993106" lon="11.3725813"><ele>274.0</ele><time>2026-04-25T14:48:22.326Z</time></trkpt><trkpt lat="43.9930401" lon="11.3724944"><ele>274.0</ele><time>2026-04-25T14:48:23.33Z</time></trkpt><trkpt lat="43.9929764" lon="11.3724073"><ele>274.0</ele><time>2026-04-25T14:48:24.349Z</time></trkpt><trkpt lat="43.9929116" lon="11.3723235"><ele>274.0</ele><time>2026-04-25T14:48:25.324Z</time></trkpt><trkpt lat="43.9928391" lon="11.3722371"><ele>274.0</ele><time>2026-04-25T14:48:26.311Z</time></trkpt><trkpt lat="43.9927743" lon="11.3721534"><ele>274.0</ele><time>2026-04-25T14:48:27.324Z</time></trkpt><trkpt lat="43.9927011" lon="11.3720691"><ele>272.59999999999997</ele><time>2026-04-25T14:48:28.321Z</time></trkpt><trkpt lat="43.9926182" lon="11.3719843"><ele>271.2</ele><time>2026-04-25T14:48:29.321Z</time></trkpt><trkpt lat="43.9925475" lon="11.3718995"><ele>269.79999999999995</ele><time>2026-04-25T14:48:30.324Z</time></trkpt><trkpt lat="43.9924812" lon="11.3718181"><ele>268.4</ele><time>2026-04-25T14:48:31.324Z</time></trkpt><trkpt lat="43.9924149" lon="11.3717336"><ele>267.0</ele><time>2026-04-25T14:48:32.316Z</time></trkpt><trkpt lat="43.9923459" lon="11.3716637"><ele>267.0</ele><time>2026-04-25T14:48:33.317Z</time></trkpt><trkpt lat="43.9922772" lon="11.37159"><ele>267.0</ele><time>2026-04-25T14:48:34.33Z</time></trkpt><trkpt lat="43.992206" lon="11.3715175"><ele>267.0</ele><time>2026-04-25T14:48:35.31Z</time></trkpt><trkpt lat="43.9921356" lon="11.3714446"><ele>267.0</ele><time>2026-04-25T14:48:36.314Z</time></trkpt><trkpt lat="43.9920603" lon="11.3713633"><ele>267.0</ele><time>2026-04-25T14:48:37.313Z</time></trkpt><trkpt lat="43.9919912" lon="11.3712882"><ele>267.0</ele><time>2026-04-25T14:48:38.313Z</time></trkpt><trkpt lat="43.9919274" lon="11.3712285"><ele>265.7142857142857</ele><time>2026-04-25T14:48:39.288Z</time></trkpt><trkpt lat="43.9918717" lon="11.3711741"><ele>264.42857142857144</ele><time>2026-04-25T14:48:40.307Z</time></trkpt><trkpt lat="43.9918145" lon="11.3711228"><ele>263.1428571428571</ele><time>2026-04-25T14:48:41.318Z</time></trkpt><trkpt lat="43.9917619" lon="11.3710746"><ele>261.8571428571429</ele><time>2026-04-25T14:48:42.317Z</time></trkpt><trkpt lat="43.9917074" lon="11.3710282"><ele>260.57142857142856</ele><time>2026-04-25T14:48:43.321Z</time></trkpt><trkpt lat="43.9916557" lon="11.3709753"><ele>259.2857142857143</ele><time>2026-04-25T14:48:44.316Z</time></trkpt><trkpt lat="43.9915904" lon="11.370923"><ele>258.0</ele><time>2026-04-25T14:48:45.319Z</time></trkpt><trkpt lat="43.9915175" lon="11.3708657"><ele>258.0</ele><time>2026-04-25T14:48:46.314Z</time></trkpt><trkpt lat="43.9914426" lon="11.3708065"><ele>258.0</ele><time>2026-04-25T14:48:47.314Z</time></trkpt><trkpt lat="43.9913694" lon="11.3707456"><ele>258.0</ele><time>2026-04-25T14:48:48.322Z</time></trkpt><trkpt lat="43.9912977" lon="11.370687"><ele>258.0</ele><time>2026-04-25T14:48:49.318Z</time></trkpt><trkpt lat="43.9912325" lon="11.3706246"><ele>258.0</ele><time>2026-04-25T14:48:50.325Z</time></trkpt><trkpt lat="43.9911743" lon="11.370565"><ele>258.0</ele><time>2026-04-25T14:48:51.292Z</time></trkpt><trkpt lat="43.9910989" lon="11.3704491"><ele>256.2</ele><time>2026-04-25T14:48:53.297Z</time></trkpt><trkpt lat="43.9910551" lon="11.3703417"><ele>254.4</ele><time>2026-04-25T14:48:56.306Z</time></trkpt><trkpt lat="43.9909911" lon="11.3702529"><ele>252.59999999999997</ele><time>2026-04-25T14:48:58.293Z</time></trkpt><trkpt lat="43.9908975" lon="11.3701395"><ele>250.79999999999998</ele><time>2026-04-25T14:49:00.324Z</time></trkpt><trkpt lat="43.9908394" lon="11.3701054"><ele>249.0</ele><time>2026-04-25T14:49:01.314Z</time></trkpt><trkpt lat="43.9907448" lon="11.3700226"><ele>248.6</ele><time>2026-04-25T14:49:03.32Z</time></trkpt><trkpt lat="43.9906742" lon="11.3699421"><ele>248.2</ele><time>2026-04-25T14:49:05.315Z</time></trkpt><trkpt lat="43.9905967" lon="11.3698419"><ele>247.79999999999998</ele><time>2026-04-25T14:49:07.296Z</time></trkpt><trkpt lat="43.9905271" lon="11.3697307"><ele>247.39999999999998</ele><time>2026-04-25T14:49:09.309Z</time></trkpt><trkpt lat="43.9904927" lon="11.3695715"><ele>247.0</ele><time>2026-04-25T14:49:11.306Z</time></trkpt><trkpt lat="43.9904937" lon="11.3694484"><ele>246.0</ele><time>2026-04-25T14:49:12.303Z</time></trkpt><trkpt lat="43.9905121" lon="11.3693052"><ele>245.0</ele><time>2026-04-25T14:49:13.3Z</time></trkpt><trkpt lat="43.9905502" lon="11.3691782"><ele>244.0</ele><time>2026-04-25T14:49:14.31Z</time></trkpt><trkpt lat="43.9905922" lon="11.3690137"><ele>243.0</ele><time>2026-04-25T14:49:15.304Z</time></trkpt><trkpt lat="43.9906386" lon="11.3688336"><ele>242.66666666666669</ele><time>2026-04-25T14:49:16.312Z</time></trkpt><trkpt lat="43.9906943" lon="11.3686366"><ele>242.33333333333334</ele><time>2026-04-25T14:49:17.322Z</time></trkpt><trkpt lat="43.9907503" lon="11.3684252"><ele>242.0</ele><time>2026-04-25T14:49:18.307Z</time></trkpt><trkpt lat="43.9908107" lon="11.3682008"><ele>244.0</ele><time>2026-04-25T14:49:19.318Z</time></trkpt><trkpt lat="43.9908735" lon="11.3679685"><ele>246.0</ele><time>2026-04-25T14:49:20.329Z</time></trkpt><trkpt lat="43.9909373" lon="11.3677425"><ele>248.0</ele><time>2026-04-25T14:49:21.319Z</time></trkpt><trkpt lat="43.9910011" lon="11.3675227"><ele>248.0</ele><time>2026-04-25T14:49:22.311Z</time></trkpt><trkpt lat="43.9910662" lon="11.3673206"><ele>248.0</ele><time>2026-04-25T14:49:23.339Z</time></trkpt><trkpt lat="43.9911322" lon="11.3671224"><ele>248.0</ele><time>2026-04-25T14:49:24.333Z</time></trkpt><trkpt lat="43.9911976" lon="11.366934"><ele>249.25</ele><time>2026-04-25T14:49:25.326Z</time></trkpt><trkpt lat="43.9912638" lon="11.3667481"><ele>250.5</ele><time>2026-04-25T14:49:26.327Z</time></trkpt><trkpt lat="43.9913298" lon="11.3665813"><ele>251.75</ele><time>2026-04-25T14:49:27.304Z</time></trkpt><trkpt lat="43.9913842" lon="11.3664296"><ele>253.0</ele><time>2026-04-25T14:49:28.336Z</time></trkpt><trkpt lat="43.9914409" lon="11.3662749"><ele>254.75</ele><time>2026-04-25T14:49:29.321Z</time></trkpt><trkpt lat="43.9914994" lon="11.3661045"><ele>256.5</ele><time>2026-04-25T14:49:30.335Z</time></trkpt><trkpt lat="43.9915618" lon="11.3659142"><ele>258.25</ele><time>2026-04-25T14:49:31.303Z</time></trkpt><trkpt lat="43.9916288" lon="11.3657377"><ele>260.0</ele><time>2026-04-25T14:49:32.322Z</time></trkpt><trkpt lat="43.9917013" lon="11.3655596"><ele>262.25</ele><time>2026-04-25T14:49:33.318Z</time></trkpt><trkpt lat="43.991773" lon="11.365388"><ele>264.5</ele><time>2026-04-25T14:49:34.304Z</time></trkpt><trkpt lat="43.9918411" lon="11.3652159"><ele>266.75</ele><time>2026-04-25T14:49:35.327Z</time></trkpt><trkpt lat="43.9919061" lon="11.3650399"><ele>269.0</ele><time>2026-04-25T14:49:36.323Z</time></trkpt><trkpt lat="43.9919725" lon="11.3648646"><ele>271.5</ele><time>2026-04-25T14:49:37.312Z</time></trkpt><trkpt lat="43.9920398" lon="11.3646843"><ele>274.0</ele><time>2026-04-25T14:49:38.318Z</time></trkpt><trkpt lat="43.9921083" lon="11.3645079"><ele>276.5</ele><time>2026-04-25T14:49:39.308Z</time></trkpt><trkpt lat="43.9921742" lon="11.3643353"><ele>279.0</ele><time>2026-04-25T14:49:40.315Z</time></trkpt><trkpt lat="43.9922466" lon="11.3641706"><ele>279.0</ele><time>2026-04-25T14:49:41.33Z</time></trkpt><trkpt lat="43.9923236" lon="11.3640139"><ele>279.0</ele><time>2026-04-25T14:49:42.31Z</time></trkpt><trkpt lat="43.9923973" lon="11.3638749"><ele>279.0</ele><time>2026-04-25T14:49:43.301Z</time></trkpt><trkpt lat="43.9924767" lon="11.363755"><ele>279.0</ele><time>2026-04-25T14:49:44.33Z</time></trkpt><trkpt lat="43.9925545" lon="11.3636508"><ele>280.5</ele><time>2026-04-25T14:49:45.306Z</time></trkpt><trkpt lat="43.9926427" lon="11.3635731"><ele>282.0</ele><time>2026-04-25T14:49:46.309Z</time></trkpt><trkpt lat="43.9927248" lon="11.363537"><ele>283.5</ele><time>2026-04-25T14:49:47.34Z</time></trkpt><trkpt lat="43.9927949" lon="11.3635263"><ele>285.0</ele><time>2026-04-25T14:49:48.317Z</time></trkpt><trkpt lat="43.9928661" lon="11.3635196"><ele>286.5</ele><time>2026-04-25T14:49:49.317Z</time></trkpt><trkpt lat="43.9929266" lon="11.3634825"><ele>288.0</ele><time>2026-04-25T14:49:50.326Z</time></trkpt><trkpt lat="43.9929796" lon="11.3634097"><ele>288.0</ele><time>2026-04-25T14:49:51.298Z</time></trkpt><trkpt lat="43.9929956" lon="11.363288"><ele>288.0</ele><time>2026-04-25T14:49:52.314Z</time></trkpt><trkpt lat="43.9929793" lon="11.3631696"><ele>288.0</ele><time>2026-04-25T14:49:53.339Z</time></trkpt><trkpt lat="43.9929364" lon="11.3630759"><ele>288.0</ele><time>2026-04-25T14:49:54.31Z</time></trkpt><trkpt lat="43.9928926" lon="11.3629826"><ele>288.0</ele><time>2026-04-25T14:49:55.337Z</time></trkpt><trkpt lat="43.9928704" lon="11.3628767"><ele>288.0</ele><time>2026-04-25T14:49:56.323Z</time></trkpt><trkpt lat="43.992878" lon="11.3627411"><ele>287.6</ele><time>2026-04-25T14:49:57.309Z</time></trkpt><trkpt lat="43.9928929" lon="11.3626147"><ele>287.20000000000005</ele><time>2026-04-25T14:49:58.302Z</time></trkpt><trkpt lat="43.9929063" lon="11.362477"><ele>286.8</ele><time>2026-04-25T14:49:59.287Z</time></trkpt><trkpt lat="43.9929407" lon="11.3623431"><ele>286.40000000000003</ele><time>2026-04-25T14:50:00.306Z</time></trkpt><trkpt lat="43.9929865" lon="11.3622182"><ele>286.0</ele><time>2026-04-25T14:50:01.297Z</time></trkpt><trkpt lat="43.9930306" lon="11.362092"><ele>284.6</ele><time>2026-04-25T14:50:02.309Z</time></trkpt><trkpt lat="43.9930803" lon="11.3619702"><ele>283.20000000000005</ele><time>2026-04-25T14:50:03.301Z</time></trkpt><trkpt lat="43.9931465" lon="11.3618638"><ele>281.79999999999995</ele><time>2026-04-25T14:50:04.301Z</time></trkpt><trkpt lat="43.9932281" lon="11.361777"><ele>280.4</ele><time>2026-04-25T14:50:05.295Z</time></trkpt><trkpt lat="43.9933312" lon="11.361719"><ele>279.0</ele><time>2026-04-25T14:50:06.315Z</time></trkpt><trkpt lat="43.9934527" lon="11.3617025"><ele>278.0</ele><time>2026-04-25T14:50:07.314Z</time></trkpt><trkpt lat="43.993588" lon="11.3617134"><ele>277.0</ele><time>2026-04-25T14:50:08.303Z</time></trkpt><trkpt lat="43.9937171" lon="11.3616985"><ele>276.0</ele><time>2026-04-25T14:50:09.312Z</time></trkpt><trkpt lat="43.9938437" lon="11.3616445"><ele>275.0</ele><time>2026-04-25T14:50:10.313Z</time></trkpt><trkpt lat="43.9939652" lon="11.3615287"><ele>275.0</ele><time>2026-04-25T14:50:11.329Z</time></trkpt><trkpt lat="43.994058" lon="11.3613885"><ele>275.0</ele><time>2026-04-25T14:50:12.325Z</time></trkpt><trkpt lat="43.9941287" lon="11.3612298"><ele>275.0</ele><time>2026-04-25T14:50:13.317Z</time></trkpt><trkpt lat="43.9941617" lon="11.3610338"><ele>275.0</ele><time>2026-04-25T14:50:14.326Z</time></trkpt><trkpt lat="43.9941743" lon="11.3608101"><ele>273.33333333333337</ele><time>2026-04-25T14:50:15.317Z</time></trkpt><trkpt lat="43.9941707" lon="11.3605911"><ele>271.6666666666667</ele><time>2026-04-25T14:50:16.3Z</time></trkpt><trkpt lat="43.9941788" lon="11.3603772"><ele>270.0</ele><time>2026-04-25T14:50:17.314Z</time></trkpt><trkpt lat="43.9942002" lon="11.3601804"><ele>270.0</ele><time>2026-04-25T14:50:18.333Z</time></trkpt><trkpt lat="43.9942303" lon="11.3600029"><ele>270.0</ele><time>2026-04-25T14:50:19.31Z</time></trkpt><trkpt lat="43.9942712" lon="11.3598453"><ele>270.0</ele><time>2026-04-25T14:50:20.297Z</time></trkpt><trkpt lat="43.9943076" lon="11.3596845"><ele>270.0</ele><time>2026-04-25T14:50:21.321Z</time></trkpt><trkpt lat="43.9943434" lon="11.3595379"><ele>271.4</ele><time>2026-04-25T14:50:22.319Z</time></trkpt><trkpt lat="43.9943703" lon="11.3594009"><ele>272.8</ele><time>2026-04-25T14:50:23.311Z</time></trkpt><trkpt lat="43.9944002" lon="11.3592674"><ele>274.2</ele><time>2026-04-25T14:50:24.317Z</time></trkpt><trkpt lat="43.9944143" lon="11.3591193"><ele>275.6</ele><time>2026-04-25T14:50:25.313Z</time></trkpt><trkpt lat="43.9944154" lon="11.3589865"><ele>277.0</ele><time>2026-04-25T14:50:26.325Z</time></trkpt><trkpt lat="43.9944193" lon="11.3588861"><ele>278.0</ele><time>2026-04-25T14:50:27.316Z</time></trkpt><trkpt lat="43.9944402" lon="11.3587424"><ele>279.0</ele><time>2026-04-25T14:50:29.335Z</time></trkpt><trkpt lat="43.9944872" lon="11.3585914"><ele>280.0</ele><time>2026-04-25T14:50:31.322Z</time></trkpt><trkpt lat="43.9945216" lon="11.3585157"><ele>281.0</ele><time>2026-04-25T14:50:32.333Z</time></trkpt><trkpt lat="43.9945714" lon="11.3584596"><ele>282.0</ele><time>2026-04-25T14:50:33.325Z</time></trkpt><trkpt lat="43.9946377" lon="11.3584116"><ele>283.0</ele><time>2026-04-25T14:50:34.311Z</time></trkpt><trkpt lat="43.9947115" lon="11.3583676"><ele>283.0</ele><time>2026-04-25T14:50:35.313Z</time></trkpt><trkpt lat="43.9947805" lon="11.3583139"><ele>283.0</ele><time>2026-04-25T14:50:36.319Z</time></trkpt><trkpt lat="43.9948494" lon="11.3582471"><ele>283.0</ele><time>2026-04-25T14:50:37.323Z</time></trkpt><trkpt lat="43.9949063" lon="11.3581778"><ele>283.0</ele><time>2026-04-25T14:50:38.294Z</time></trkpt><trkpt lat="43.9949609" lon="11.3580887"><ele>283.0</ele><time>2026-04-25T14:50:39.316Z</time></trkpt><trkpt lat="43.9950189" lon="11.3579958"><ele>283.0</ele><time>2026-04-25T14:50:40.318Z</time></trkpt><trkpt lat="43.9950707" lon="11.3579273"><ele>284.6</ele><time>2026-04-25T14:50:41.312Z</time></trkpt><trkpt lat="43.9951199" lon="11.357864"><ele>286.20000000000005</ele><time>2026-04-25T14:50:42.319Z</time></trkpt><trkpt lat="43.9951976" lon="11.3577628"><ele>287.8</ele><time>2026-04-25T14:50:44.318Z</time></trkpt><trkpt lat="43.9952467" lon="11.3576774"><ele>289.40000000000003</ele><time>2026-04-25T14:50:46.309Z</time></trkpt><trkpt lat="43.9953039" lon="11.3575928"><ele>291.0</ele><time>2026-04-25T14:50:48.299Z</time></trkpt><trkpt lat="43.9953815" lon="11.3574686"><ele>291.0</ele><time>2026-04-25T14:50:50.322Z</time></trkpt><trkpt lat="43.9954209" lon="11.3573887"><ele>291.0</ele><time>2026-04-25T14:50:51.302Z</time></trkpt><trkpt lat="43.9954574" lon="11.357304"><ele>291.0</ele><time>2026-04-25T14:50:52.316Z</time></trkpt><trkpt lat="43.995492" lon="11.3572109"><ele>291.0</ele><time>2026-04-25T14:50:53.306Z</time></trkpt><trkpt lat="43.9955195" lon="11.3571201"><ele>291.0</ele><time>2026-04-25T14:50:54.314Z</time></trkpt><trkpt lat="43.9955468" lon="11.3570328"><ele>291.0</ele><time>2026-04-25T14:50:55.324Z</time></trkpt><trkpt lat="43.9955706" lon="11.3569431"><ele>291.0</ele><time>2026-04-25T14:50:56.298Z</time></trkpt><trkpt lat="43.9955944" lon="11.3568511"><ele>291.8</ele><time>2026-04-25T14:50:57.324Z</time></trkpt><trkpt lat="43.995621" lon="11.3567668"><ele>292.6</ele><time>2026-04-25T14:50:58.329Z</time></trkpt><trkpt lat="43.9956672" lon="11.3566186"><ele>293.4</ele><time>2026-04-25T14:51:00.308Z</time></trkpt><trkpt lat="43.9957019" lon="11.3565082"><ele>294.2</ele><time>2026-04-25T14:51:02.32Z</time></trkpt><trkpt lat="43.995702" lon="11.3563825"><ele>295.0</ele><time>2026-04-25T14:51:19.32Z</time></trkpt><trkpt lat="43.9956276" lon="11.356275"><ele>295.0</ele><time>2026-04-25T14:51:21.297Z</time></trkpt><trkpt lat="43.9955579" lon="11.3562453"><ele>295.0</ele><time>2026-04-25T14:51:22.317Z</time></trkpt><trkpt lat="43.9954914" lon="11.3562047"><ele>295.0</ele><time>2026-04-25T14:51:23.313Z</time></trkpt><trkpt lat="43.9954259" lon="11.3561649"><ele>295.0</ele><time>2026-04-25T14:51:24.309Z</time></trkpt><trkpt lat="43.9953585" lon="11.3561296"><ele>295.0</ele><time>2026-04-25T14:51:25.295Z</time></trkpt><trkpt lat="43.9952963" lon="11.3561003"><ele>295.0</ele><time>2026-04-25T14:51:26.31Z</time></trkpt><trkpt lat="43.9951733" lon="11.3560509"><ele>295.0</ele><time>2026-04-25T14:51:28.328Z</time></trkpt><trkpt lat="43.995108" lon="11.3560092"><ele>295.0</ele><time>2026-04-25T14:51:29.318Z</time></trkpt><trkpt lat="43.9950403" lon="11.3559749"><ele>295.0</ele><time>2026-04-25T14:51:30.312Z</time></trkpt><trkpt lat="43.9949717" lon="11.3559369"><ele>295.0</ele><time>2026-04-25T14:51:31.321Z</time></trkpt><trkpt lat="43.9948789" lon="11.3558809"><ele>295.0</ele><time>2026-04-25T14:51:33.328Z</time></trkpt><trkpt lat="43.9948056" lon="11.3558394"><ele>295.0</ele><time>2026-04-25T14:51:38.312Z</time></trkpt><trkpt lat="43.9947052" lon="11.3557979"><ele>294.66666666666663</ele><time>2026-04-25T14:51:40.323Z</time></trkpt><trkpt lat="43.9945963" lon="11.3557349"><ele>294.3333333333333</ele><time>2026-04-25T14:51:42.327Z</time></trkpt><trkpt lat="43.9945355" lon="11.3557064"><ele>294.0</ele><time>2026-04-25T14:51:43.309Z</time></trkpt><trkpt lat="43.9944262" lon="11.3556458"><ele>293.6666666666667</ele><time>2026-04-25T14:51:45.322Z</time></trkpt><trkpt lat="43.9943666" lon="11.3556042"><ele>293.33333333333337</ele><time>2026-04-25T14:51:46.308Z</time></trkpt><trkpt lat="43.9943015" lon="11.3555619"><ele>293.0</ele><time>2026-04-25T14:51:47.304Z</time></trkpt><trkpt lat="43.9942283" lon="11.3555204"><ele>292.5</ele><time>2026-04-25T14:51:48.314Z</time></trkpt><trkpt lat="43.9941515" lon="11.3554828"><ele>292.0</ele><time>2026-04-25T14:51:49.319Z</time></trkpt><trkpt lat="43.9940705" lon="11.3554446"><ele>291.5</ele><time>2026-04-25T14:51:50.308Z</time></trkpt><trkpt lat="43.9939966" lon="11.3554097"><ele>291.0</ele><time>2026-04-25T14:51:51.313Z</time></trkpt><trkpt lat="43.9939157" lon="11.3553676"><ele>290.5</ele><time>2026-04-25T14:51:52.329Z</time></trkpt><trkpt lat="43.9938328" lon="11.3553219"><ele>290.0</ele><time>2026-04-25T14:51:53.319Z</time></trkpt><trkpt lat="43.9937501" lon="11.3552804"><ele>290.0</ele><time>2026-04-25T14:51:54.324Z</time></trkpt><trkpt lat="43.9936656" lon="11.3552352"><ele>290.0</ele><time>2026-04-25T14:51:55.335Z</time></trkpt><trkpt lat="43.9935874" lon="11.3551868"><ele>290.0</ele><time>2026-04-25T14:51:56.307Z</time></trkpt><trkpt lat="43.9935074" lon="11.3551424"><ele>290.0</ele><time>2026-04-25T14:51:57.339Z</time></trkpt><trkpt lat="43.99343" lon="11.3550915"><ele>290.0</ele><time>2026-04-25T14:51:58.308Z</time></trkpt><trkpt lat="43.9933518" lon="11.3550543"><ele>290.0</ele><time>2026-04-25T14:51:59.32Z</time></trkpt><trkpt lat="43.9932736" lon="11.3550118"><ele>289.4</ele><time>2026-04-25T14:52:00.326Z</time></trkpt><trkpt lat="43.9931947" lon="11.3549642"><ele>288.8</ele><time>2026-04-25T14:52:01.326Z</time></trkpt><trkpt lat="43.9931142" lon="11.3549056"><ele>288.2</ele><time>2026-04-25T14:52:02.327Z</time></trkpt><trkpt lat="43.9930227" lon="11.3548475"><ele>287.6</ele><time>2026-04-25T14:52:03.314Z</time></trkpt><trkpt lat="43.9929313" lon="11.3547828"><ele>287.0</ele><time>2026-04-25T14:52:04.313Z</time></trkpt><trkpt lat="43.9928306" lon="11.354718"><ele>287.0</ele><time>2026-04-25T14:52:05.318Z</time></trkpt><trkpt lat="43.9927301" lon="11.3546506"><ele>287.0</ele><time>2026-04-25T14:52:06.33Z</time></trkpt><trkpt lat="43.9926386" lon="11.3545854"><ele>287.0</ele><time>2026-04-25T14:52:07.332Z</time></trkpt><trkpt lat="43.9925496" lon="11.3545284"><ele>287.0</ele><time>2026-04-25T14:52:08.339Z</time></trkpt><trkpt lat="43.9924631" lon="11.3544763"><ele>287.0</ele><time>2026-04-25T14:52:09.336Z</time></trkpt><trkpt lat="43.992383" lon="11.3544322"><ele>286.2</ele><time>2026-04-25T14:52:10.322Z</time></trkpt><trkpt lat="43.9922999" lon="11.3543793"><ele>285.4</ele><time>2026-04-25T14:52:11.337Z</time></trkpt><trkpt lat="43.9922124" lon="11.3543329"><ele>284.6</ele><time>2026-04-25T14:52:12.331Z</time></trkpt><trkpt lat="43.992123" lon="11.3542879"><ele>283.8</ele><time>2026-04-25T14:52:13.323Z</time></trkpt><trkpt lat="43.9920405" lon="11.3542364"><ele>283.0</ele><time>2026-04-25T14:52:14.306Z</time></trkpt><trkpt lat="43.9919573" lon="11.3541749"><ele>283.0</ele><time>2026-04-25T14:52:15.336Z</time></trkpt><trkpt lat="43.9918769" lon="11.3541221"><ele>283.0</ele><time>2026-04-25T14:52:16.327Z</time></trkpt><trkpt lat="43.991806" lon="11.3540783"><ele>283.0</ele><time>2026-04-25T14:52:17.318Z</time></trkpt><trkpt lat="43.9917233" lon="11.3540078"><ele>283.0</ele><time>2026-04-25T14:52:19.317Z</time></trkpt><trkpt lat="43.991657" lon="11.35394"><ele>283.0</ele><time>2026-04-25T14:52:22.312Z</time></trkpt><trkpt lat="43.9915848" lon="11.3538847"><ele>283.0</ele><time>2026-04-25T14:52:24.311Z</time></trkpt><trkpt lat="43.9914691" lon="11.3538354"><ele>282.5</ele><time>2026-04-25T14:52:26.325Z</time></trkpt><trkpt lat="43.9913975" lon="11.3537867"><ele>282.0</ele><time>2026-04-25T14:52:27.317Z</time></trkpt><trkpt lat="43.9913178" lon="11.3537426"><ele>281.5</ele><time>2026-04-25T14:52:28.32Z</time></trkpt><trkpt lat="43.9912448" lon="11.3537021"><ele>281.0</ele><time>2026-04-25T14:52:29.327Z</time></trkpt><trkpt lat="43.9911772" lon="11.3536568"><ele>280.5</ele><time>2026-04-25T14:52:30.32Z</time></trkpt><trkpt lat="43.9911108" lon="11.3536006"><ele>280.0</ele><time>2026-04-25T14:52:31.318Z</time></trkpt><trkpt lat="43.9910323" lon="11.3535423"><ele>280.0</ele><time>2026-04-25T14:52:32.322Z</time></trkpt><trkpt lat="43.9909616" lon="11.3534836"><ele>280.0</ele><time>2026-04-25T14:52:33.323Z</time></trkpt><trkpt lat="43.9908984" lon="11.3534401"><ele>280.0</ele><time>2026-04-25T14:52:34.314Z</time></trkpt><trkpt lat="43.9908266" lon="11.3534028"><ele>280.0</ele><time>2026-04-25T14:52:35.327Z</time></trkpt><trkpt lat="43.9907422" lon="11.3533484"><ele>280.0</ele><time>2026-04-25T14:52:36.328Z</time></trkpt><trkpt lat="43.9906465" lon="11.3532888"><ele>280.0</ele><time>2026-04-25T14:52:37.315Z</time></trkpt><trkpt lat="43.9905481" lon="11.3532194"><ele>279.5</ele><time>2026-04-25T14:52:38.317Z</time></trkpt><trkpt lat="43.990448" lon="11.3531447"><ele>279.0</ele><time>2026-04-25T14:52:39.327Z</time></trkpt><trkpt lat="43.9903439" lon="11.3530637"><ele>278.5</ele><time>2026-04-25T14:52:40.319Z</time></trkpt><trkpt lat="43.9902398" lon="11.3529881"><ele>278.0</ele><time>2026-04-25T14:52:41.321Z</time></trkpt><trkpt lat="43.9901451" lon="11.3529023"><ele>277.8</ele><time>2026-04-25T14:52:42.306Z</time></trkpt><trkpt lat="43.9900571" lon="11.3528183"><ele>277.6</ele><time>2026-04-25T14:52:43.319Z</time></trkpt><trkpt lat="43.9899791" lon="11.3527244"><ele>277.4</ele><time>2026-04-25T14:52:44.321Z</time></trkpt><trkpt lat="43.9899101" lon="11.3526275"><ele>277.2</ele><time>2026-04-25T14:52:45.328Z</time></trkpt><trkpt lat="43.9898519" lon="11.352515"><ele>277.0</ele><time>2026-04-25T14:52:46.314Z</time></trkpt><trkpt lat="43.9898206" lon="11.3523717"><ele>276.25</ele><time>2026-04-25T14:52:47.305Z</time></trkpt><trkpt lat="43.9897906" lon="11.3522148"><ele>275.5</ele><time>2026-04-25T14:52:48.338Z</time></trkpt><trkpt lat="43.9897674" lon="11.3520493"><ele>274.75</ele><time>2026-04-25T14:52:49.33Z</time></trkpt><trkpt lat="43.9897566" lon="11.3518838"><ele>274.0</ele><time>2026-04-25T14:52:50.326Z</time></trkpt><trkpt lat="43.9897537" lon="11.3517219"><ele>274.0</ele><time>2026-04-25T14:52:51.301Z</time></trkpt><trkpt lat="43.9897566" lon="11.3515685"><ele>274.0</ele><time>2026-04-25T14:52:52.322Z</time></trkpt><trkpt lat="43.9897624" lon="11.3514204"><ele>274.0</ele><time>2026-04-25T14:52:53.3Z</time></trkpt><trkpt lat="43.989765" lon="11.3512837"><ele>274.0</ele><time>2026-04-25T14:52:54.315Z</time></trkpt><trkpt lat="43.9897808" lon="11.3511588"><ele>274.0</ele><time>2026-04-25T14:52:55.32Z</time></trkpt><trkpt lat="43.9898027" lon="11.3510574"><ele>274.0</ele><time>2026-04-25T14:52:56.326Z</time></trkpt><trkpt lat="43.9898609" lon="11.350918"><ele>274.0</ele><time>2026-04-25T14:52:58.307Z</time></trkpt><trkpt lat="43.9898233" lon="11.3507547"><ele>274.0</ele><time>2026-04-25T14:53:00.304Z</time></trkpt><trkpt lat="43.9897356" lon="11.3506838"><ele>274.0</ele><time>2026-04-25T14:53:01.337Z</time></trkpt><trkpt lat="43.9896448" lon="11.3506185"><ele>274.0</ele><time>2026-04-25T14:53:02.307Z</time></trkpt><trkpt lat="43.9895578" lon="11.3505419"><ele>273.75</ele><time>2026-04-25T14:53:03.318Z</time></trkpt><trkpt lat="43.9894718" lon="11.3504628"><ele>273.5</ele><time>2026-04-25T14:53:04.304Z</time></trkpt><trkpt lat="43.9893766" lon="11.35038"><ele>273.25</ele><time>2026-04-25T14:53:05.312Z</time></trkpt><trkpt lat="43.9892789" lon="11.3502905"><ele>273.0</ele><time>2026-04-25T14:53:06.312Z</time></trkpt><trkpt lat="43.9891812" lon="11.3501982"><ele>273.0</ele><time>2026-04-25T14:53:07.318Z</time></trkpt><trkpt lat="43.9890806" lon="11.3501072"><ele>273.0</ele><time>2026-04-25T14:53:08.318Z</time></trkpt><trkpt lat="43.9889813" lon="11.3500158"><ele>273.0</ele><time>2026-04-25T14:53:09.318Z</time></trkpt><trkpt lat="43.9888732" lon="11.3499253"><ele>273.0</ele><time>2026-04-25T14:53:10.311Z</time></trkpt><trkpt lat="43.9887675" lon="11.3498306"><ele>273.0</ele><time>2026-04-25T14:53:11.305Z</time></trkpt><trkpt lat="43.9886628" lon="11.3497344"><ele>273.0</ele><time>2026-04-25T14:53:12.311Z</time></trkpt><trkpt lat="43.9885627" lon="11.3496383"><ele>273.0</ele><time>2026-04-25T14:53:13.307Z</time></trkpt><trkpt lat="43.9884629" lon="11.3495426"><ele>273.0</ele><time>2026-04-25T14:53:14.322Z</time></trkpt><trkpt lat="43.9883643" lon="11.3494416"><ele>271.75</ele><time>2026-04-25T14:53:15.32Z</time></trkpt><trkpt lat="43.9882608" lon="11.3493482"><ele>270.5</ele><time>2026-04-25T14:53:16.303Z</time></trkpt><trkpt lat="43.9881509" lon="11.3492529"><ele>269.25</ele><time>2026-04-25T14:53:17.313Z</time></trkpt><trkpt lat="43.9880488" lon="11.3491625"><ele>268.0</ele><time>2026-04-25T14:53:18.324Z</time></trkpt><trkpt lat="43.9879531" lon="11.3490698"><ele>268.0</ele><time>2026-04-25T14:53:19.321Z</time></trkpt><trkpt lat="43.9878577" lon="11.3489757"><ele>268.0</ele><time>2026-04-25T14:53:20.31Z</time></trkpt><trkpt lat="43.9877668" lon="11.3488786"><ele>268.0</ele><time>2026-04-25T14:53:21.321Z</time></trkpt><trkpt lat="43.9876744" lon="11.348793"><ele>268.0</ele><time>2026-04-25T14:53:22.31Z</time></trkpt><trkpt lat="43.987578" lon="11.3487113"><ele>266.6</ele><time>2026-04-25T14:53:23.314Z</time></trkpt><trkpt lat="43.9874881" lon="11.3486291"><ele>265.20000000000005</ele><time>2026-04-25T14:53:24.305Z</time></trkpt><trkpt lat="43.9874019" lon="11.348547"><ele>263.8</ele><time>2026-04-25T14:53:25.316Z</time></trkpt><trkpt lat="43.9873183" lon="11.3484589"><ele>262.40000000000003</ele><time>2026-04-25T14:53:26.324Z</time></trkpt><trkpt lat="43.9872294" lon="11.3483717"><ele>261.0</ele><time>2026-04-25T14:53:27.319Z</time></trkpt><trkpt lat="43.987139" lon="11.3482893"><ele>261.0</ele><time>2026-04-25T14:53:28.321Z</time></trkpt><trkpt lat="43.987047" lon="11.3482033"><ele>261.0</ele><time>2026-04-25T14:53:29.328Z</time></trkpt><trkpt lat="43.9869617" lon="11.3481065"><ele>261.0</ele><time>2026-04-25T14:53:30.325Z</time></trkpt><trkpt lat="43.9868814" lon="11.3480054"><ele>261.0</ele><time>2026-04-25T14:53:31.329Z</time></trkpt><trkpt lat="43.9868072" lon="11.3478963"><ele>261.0</ele><time>2026-04-25T14:53:32.311Z</time></trkpt><trkpt lat="43.9867331" lon="11.3477749"><ele>260.25</ele><time>2026-04-25T14:53:33.328Z</time></trkpt><trkpt lat="43.9866621" lon="11.3476432"><ele>259.5</ele><time>2026-04-25T14:53:34.326Z</time></trkpt><trkpt lat="43.986611" lon="11.3474926"><ele>258.75</ele><time>2026-04-25T14:53:35.322Z</time></trkpt><trkpt lat="43.9865561" lon="11.3473339"><ele>258.0</ele><time>2026-04-25T14:53:36.307Z</time></trkpt><trkpt lat="43.9864976" lon="11.3471781"><ele>256.0</ele><time>2026-04-25T14:53:37.328Z</time></trkpt><trkpt lat="43.9864423" lon="11.3470105"><ele>254.0</ele><time>2026-04-25T14:53:38.324Z</time></trkpt><trkpt lat="43.9863811" lon="11.3468415"><ele>252.0</ele><time>2026-04-25T14:53:39.321Z</time></trkpt><trkpt lat="43.9863209" lon="11.3466816"><ele>250.0</ele><time>2026-04-25T14:53:40.322Z</time></trkpt><trkpt lat="43.9862594" lon="11.346516"><ele>248.25</ele><time>2026-04-25T14:53:41.3Z</time></trkpt><trkpt lat="43.9861952" lon="11.3463563"><ele>246.5</ele><time>2026-04-25T14:53:42.311Z</time></trkpt><trkpt lat="43.9861245" lon="11.3461836"><ele>244.75</ele><time>2026-04-25T14:53:43.318Z</time></trkpt><trkpt lat="43.986055" lon="11.3460075"><ele>243.0</ele><time>2026-04-25T14:53:44.297Z</time></trkpt><trkpt lat="43.9859918" lon="11.34583"><ele>243.0</ele><time>2026-04-25T14:53:45.321Z</time></trkpt><trkpt lat="43.9859226" lon="11.3456576"><ele>243.0</ele><time>2026-04-25T14:53:46.331Z</time></trkpt><trkpt lat="43.9858551" lon="11.3454785"><ele>243.0</ele><time>2026-04-25T14:53:47.301Z</time></trkpt><trkpt lat="43.9857893" lon="11.3453043"><ele>243.0</ele><time>2026-04-25T14:53:48.311Z</time></trkpt><trkpt lat="43.9857158" lon="11.3451281"><ele>243.0</ele><time>2026-04-25T14:53:49.293Z</time></trkpt><trkpt lat="43.9856438" lon="11.3449517"><ele>243.0</ele><time>2026-04-25T14:53:50.314Z</time></trkpt><trkpt lat="43.9855702" lon="11.3447702"><ele>243.0</ele><time>2026-04-25T14:53:51.287Z</time></trkpt><trkpt lat="43.9854987" lon="11.3445864"><ele>243.0</ele><time>2026-04-25T14:53:52.325Z</time></trkpt><trkpt lat="43.9854264" lon="11.344401"><ele>241.25</ele><time>2026-04-25T14:53:53.312Z</time></trkpt><trkpt lat="43.9853531" lon="11.3442211"><ele>239.5</ele><time>2026-04-25T14:53:54.311Z</time></trkpt><trkpt lat="43.985285" lon="11.344046"><ele>237.75</ele><time>2026-04-25T14:53:55.329Z</time></trkpt><trkpt lat="43.9852158" lon="11.3438767"><ele>236.0</ele><time>2026-04-25T14:53:56.304Z</time></trkpt><trkpt lat="43.9851457" lon="11.34372"><ele>234.5</ele><time>2026-04-25T14:53:57.306Z</time></trkpt><trkpt lat="43.9850881" lon="11.3435639"><ele>233.0</ele><time>2026-04-25T14:53:58.312Z</time></trkpt><trkpt lat="43.9850359" lon="11.3434257"><ele>231.5</ele><time>2026-04-25T14:53:59.327Z</time></trkpt><trkpt lat="43.9849793" lon="11.3432889"><ele>230.0</ele><time>2026-04-25T14:54:00.326Z</time></trkpt><trkpt lat="43.9849322" lon="11.3431468"><ele>229.25</ele><time>2026-04-25T14:54:01.306Z</time></trkpt><trkpt lat="43.9849034" lon="11.3429815"><ele>228.5</ele><time>2026-04-25T14:54:02.332Z</time></trkpt><trkpt lat="43.984895" lon="11.3428049"><ele>227.75</ele><time>2026-04-25T14:54:03.311Z</time></trkpt><trkpt lat="43.9849114" lon="11.3426302"><ele>227.0</ele><time>2026-04-25T14:54:04.303Z</time></trkpt><trkpt lat="43.9849456" lon="11.3424334"><ele>227.0</ele><time>2026-04-25T14:54:05.324Z</time></trkpt><trkpt lat="43.9849786" lon="11.3422376"><ele>227.0</ele><time>2026-04-25T14:54:06.322Z</time></trkpt><trkpt lat="43.9850084" lon="11.3420412"><ele>227.0</ele><time>2026-04-25T14:54:07.313Z</time></trkpt><trkpt lat="43.9850404" lon="11.341845"><ele>227.0</ele><time>2026-04-25T14:54:08.336Z</time></trkpt><trkpt lat="43.985073" lon="11.3416388"><ele>226.75</ele><time>2026-04-25T14:54:09.33Z</time></trkpt><trkpt lat="43.9851083" lon="11.3414403"><ele>226.5</ele><time>2026-04-25T14:54:10.328Z</time></trkpt><trkpt lat="43.9851419" lon="11.3412547"><ele>226.25</ele><time>2026-04-25T14:54:11.315Z</time></trkpt><trkpt lat="43.9851692" lon="11.3410843"><ele>226.0</ele><time>2026-04-25T14:54:12.314Z</time></trkpt><trkpt lat="43.9851969" lon="11.3409318"><ele>226.4</ele><time>2026-04-25T14:54:13.328Z</time></trkpt><trkpt lat="43.9852224" lon="11.3407889"><ele>226.8</ele><time>2026-04-25T14:54:14.33Z</time></trkpt><trkpt lat="43.9852498" lon="11.3406411"><ele>227.20000000000002</ele><time>2026-04-25T14:54:15.323Z</time></trkpt><trkpt lat="43.9852733" lon="11.3404987"><ele>227.60000000000002</ele><time>2026-04-25T14:54:16.314Z</time></trkpt><trkpt lat="43.9852938" lon="11.3403485"><ele>228.0</ele><time>2026-04-25T14:54:17.327Z</time></trkpt><trkpt lat="43.9853157" lon="11.340218"><ele>228.66666666666666</ele><time>2026-04-25T14:54:18.329Z</time></trkpt><trkpt lat="43.9853518" lon="11.3401232"><ele>229.33333333333331</ele><time>2026-04-25T14:54:19.327Z</time></trkpt><trkpt lat="43.9854079" lon="11.3400471"><ele>230.0</ele><time>2026-04-25T14:54:20.315Z</time></trkpt><trkpt lat="43.9854679" lon="11.3399687"><ele>230.66666666666666</ele><time>2026-04-25T14:54:21.31Z</time></trkpt><trkpt lat="43.9855067" lon="11.3398661"><ele>231.33333333333331</ele><time>2026-04-25T14:54:22.302Z</time></trkpt><trkpt lat="43.9855008" lon="11.3397502"><ele>232.0</ele><time>2026-04-25T14:54:23.317Z</time></trkpt><trkpt lat="43.9854547" lon="11.3396516"><ele>232.8</ele><time>2026-04-25T14:54:24.324Z</time></trkpt><trkpt lat="43.98538" lon="11.3395986"><ele>233.6</ele><time>2026-04-25T14:54:25.316Z</time></trkpt><trkpt lat="43.9852739" lon="11.3396033"><ele>234.40000000000003</ele><time>2026-04-25T14:54:26.332Z</time></trkpt><trkpt lat="43.9851728" lon="11.3396241"><ele>235.20000000000002</ele><time>2026-04-25T14:54:27.331Z</time></trkpt><trkpt lat="43.9850883" lon="11.3396027"><ele>236.0</ele><time>2026-04-25T14:54:28.303Z</time></trkpt><trkpt lat="43.9849715" lon="11.3395178"><ele>237.0</ele><time>2026-04-25T14:54:29.31Z</time></trkpt><trkpt lat="43.9848513" lon="11.3394262"><ele>238.0</ele><time>2026-04-25T14:54:30.321Z</time></trkpt><trkpt lat="43.9847338" lon="11.3393225"><ele>239.0</ele><time>2026-04-25T14:54:31.298Z</time></trkpt><trkpt lat="43.9845953" lon="11.3392468"><ele>240.0</ele><time>2026-04-25T14:54:32.313Z</time></trkpt><trkpt lat="43.9844396" lon="11.3392141"><ele>240.0</ele><time>2026-04-25T14:54:33.309Z</time></trkpt><trkpt lat="43.9842731" lon="11.3391928"><ele>240.0</ele><time>2026-04-25T14:54:34.321Z</time></trkpt><trkpt lat="43.9841158" lon="11.339174"><ele>240.0</ele><time>2026-04-25T14:54:35.304Z</time></trkpt><trkpt lat="43.9839773" lon="11.3391597"><ele>239.75</ele><time>2026-04-25T14:54:36.321Z</time></trkpt><trkpt lat="43.9838474" lon="11.3391477"><ele>239.5</ele><time>2026-04-25T14:54:37.328Z</time></trkpt><trkpt lat="43.9837162" lon="11.339133"><ele>239.25</ele><time>2026-04-25T14:54:38.317Z</time></trkpt><trkpt lat="43.9835837" lon="11.3391229"><ele>239.0</ele><time>2026-04-25T14:54:39.329Z</time></trkpt><trkpt lat="43.9834488" lon="11.3391094"><ele>239.0</ele><time>2026-04-25T14:54:40.318Z</time></trkpt><trkpt lat="43.9833127" lon="11.33912"><ele>239.0</ele><time>2026-04-25T14:54:41.316Z</time></trkpt><trkpt lat="43.983171" lon="11.3391527"><ele>239.0</ele><time>2026-04-25T14:54:42.321Z</time></trkpt><trkpt lat="43.9830408" lon="11.339217"><ele>239.0</ele><time>2026-04-25T14:54:43.333Z</time></trkpt><trkpt lat="43.9829123" lon="11.3392766"><ele>239.0</ele><time>2026-04-25T14:54:44.296Z</time></trkpt><trkpt lat="43.9827789" lon="11.3393361"><ele>239.0</ele><time>2026-04-25T14:54:45.325Z</time></trkpt><trkpt lat="43.9826466" lon="11.3393943"><ele>239.0</ele><time>2026-04-25T14:54:46.333Z</time></trkpt><trkpt lat="43.9825208" lon="11.3394474"><ele>239.0</ele><time>2026-04-25T14:54:47.32Z</time></trkpt><trkpt lat="43.9823922" lon="11.3394825"><ele>239.25</ele><time>2026-04-25T14:54:48.31Z</time></trkpt><trkpt lat="43.9822497" lon="11.3394979"><ele>239.5</ele><time>2026-04-25T14:54:49.322Z</time></trkpt><trkpt lat="43.9821123" lon="11.3394813"><ele>239.75</ele><time>2026-04-25T14:54:50.32Z</time></trkpt><trkpt lat="43.9819772" lon="11.3394309"><ele>240.0</ele><time>2026-04-25T14:54:51.29Z</time></trkpt><trkpt lat="43.9818395" lon="11.3393463"><ele>240.0</ele><time>2026-04-25T14:54:52.308Z</time></trkpt><trkpt lat="43.9817068" lon="11.3392477"><ele>240.0</ele><time>2026-04-25T14:54:53.326Z</time></trkpt><trkpt lat="43.9815761" lon="11.3391458"><ele>240.0</ele><time>2026-04-25T14:54:54.319Z</time></trkpt><trkpt lat="43.9814481" lon="11.3390449"><ele>240.0</ele><time>2026-04-25T14:54:55.32Z</time></trkpt><trkpt lat="43.9813244" lon="11.3389325"><ele>239.25</ele><time>2026-04-25T14:54:56.327Z</time></trkpt><trkpt lat="43.9812016" lon="11.3388263"><ele>238.5</ele><time>2026-04-25T14:54:57.319Z</time></trkpt><trkpt lat="43.9810781" lon="11.3387146"><ele>237.75</ele><time>2026-04-25T14:54:58.323Z</time></trkpt><trkpt lat="43.9809529" lon="11.3385934"><ele>237.0</ele><time>2026-04-25T14:54:59.324Z</time></trkpt><trkpt lat="43.980823" lon="11.3384655"><ele>236.66666666666669</ele><time>2026-04-25T14:55:00.321Z</time></trkpt><trkpt lat="43.9806962" lon="11.3383417"><ele>236.33333333333334</ele><time>2026-04-25T14:55:01.32Z</time></trkpt><trkpt lat="43.9805605" lon="11.3382148"><ele>236.0</ele><time>2026-04-25T14:55:02.325Z</time></trkpt><trkpt lat="43.9804276" lon="11.3380849"><ele>236.0</ele><time>2026-04-25T14:55:03.307Z</time></trkpt><trkpt lat="43.9802906" lon="11.3379683"><ele>236.0</ele><time>2026-04-25T14:55:04.325Z</time></trkpt><trkpt lat="43.9801491" lon="11.3378563"><ele>236.0</ele><time>2026-04-25T14:55:05.326Z</time></trkpt><trkpt lat="43.9800059" lon="11.3377589"><ele>235.0</ele><time>2026-04-25T14:55:06.313Z</time></trkpt><trkpt lat="43.9798622" lon="11.3376745"><ele>234.0</ele><time>2026-04-25T14:55:07.342Z</time></trkpt><trkpt lat="43.9797191" lon="11.3375892"><ele>233.0</ele><time>2026-04-25T14:55:08.324Z</time></trkpt><trkpt lat="43.9795798" lon="11.3375048"><ele>233.0</ele><time>2026-04-25T14:55:09.329Z</time></trkpt><trkpt lat="43.9794451" lon="11.337431"><ele>233.0</ele><time>2026-04-25T14:55:10.318Z</time></trkpt><trkpt lat="43.979313" lon="11.3373598"><ele>233.0</ele><time>2026-04-25T14:55:11.334Z</time></trkpt><trkpt lat="43.9791802" lon="11.3372837"><ele>233.0</ele><time>2026-04-25T14:55:12.32Z</time></trkpt><trkpt lat="43.9790466" lon="11.3372018"><ele>232.66666666666669</ele><time>2026-04-25T14:55:13.314Z</time></trkpt><trkpt lat="43.9789098" lon="11.3371238"><ele>232.33333333333331</ele><time>2026-04-25T14:55:14.294Z</time></trkpt><trkpt lat="43.9787651" lon="11.3370494"><ele>232.0</ele><time>2026-04-25T14:55:15.338Z</time></trkpt><trkpt lat="43.9786197" lon="11.3369772"><ele>232.0</ele><time>2026-04-25T14:55:16.312Z</time></trkpt><trkpt lat="43.9784753" lon="11.3368946"><ele>232.0</ele><time>2026-04-25T14:55:17.322Z</time></trkpt><trkpt lat="43.9783318" lon="11.3368083"><ele>232.0</ele><time>2026-04-25T14:55:18.333Z</time></trkpt><trkpt lat="43.9781884" lon="11.3367242"><ele>231.66666666666666</ele><time>2026-04-25T14:55:19.32Z</time></trkpt><trkpt lat="43.9780436" lon="11.3366474"><ele>231.33333333333331</ele><time>2026-04-25T14:55:20.318Z</time></trkpt><trkpt lat="43.9779087" lon="11.3365645"><ele>231.0</ele><time>2026-04-25T14:55:21.324Z</time></trkpt><trkpt lat="43.9777704" lon="11.3364872"><ele>231.0</ele><time>2026-04-25T14:55:22.332Z</time></trkpt><trkpt lat="43.9776409" lon="11.3364052"><ele>231.0</ele><time>2026-04-25T14:55:23.327Z</time></trkpt><trkpt lat="43.97751" lon="11.3363307"><ele>231.0</ele><time>2026-04-25T14:55:24.328Z</time></trkpt><trkpt lat="43.9773809" lon="11.3362521"><ele>231.0</ele><time>2026-04-25T14:55:25.321Z</time></trkpt><trkpt lat="43.9772543" lon="11.3361707"><ele>231.0</ele><time>2026-04-25T14:55:26.294Z</time></trkpt><trkpt lat="43.9771225" lon="11.3360986"><ele>231.0</ele><time>2026-04-25T14:55:27.298Z</time></trkpt><trkpt lat="43.9769942" lon="11.3360216"><ele>231.0</ele><time>2026-04-25T14:55:28.301Z</time></trkpt><trkpt lat="43.9768605" lon="11.3359469"><ele>231.0</ele><time>2026-04-25T14:55:29.324Z</time></trkpt><trkpt lat="43.9767248" lon="11.3358694"><ele>230.66666666666669</ele><time>2026-04-25T14:55:30.323Z</time></trkpt><trkpt lat="43.9765899" lon="11.3357859"><ele>230.33333333333334</ele><time>2026-04-25T14:55:31.313Z</time></trkpt><trkpt lat="43.9764577" lon="11.3357024"><ele>230.0</ele><time>2026-04-25T14:55:32.32Z</time></trkpt><trkpt lat="43.9763119" lon="11.3356125"><ele>230.33333333333334</ele><time>2026-04-25T14:55:33.315Z</time></trkpt><trkpt lat="43.9761711" lon="11.335529"><ele>230.66666666666669</ele><time>2026-04-25T14:55:34.322Z</time></trkpt><trkpt lat="43.9760304" lon="11.3354358"><ele>231.0</ele><time>2026-04-25T14:55:35.302Z</time></trkpt><trkpt lat="43.9758877" lon="11.3353466"><ele>230.0</ele><time>2026-04-25T14:55:36.342Z</time></trkpt><trkpt lat="43.9757472" lon="11.3352602"><ele>229.0</ele><time>2026-04-25T14:55:37.309Z</time></trkpt><trkpt lat="43.975598" lon="11.3351741"><ele>228.0</ele><time>2026-04-25T14:55:38.327Z</time></trkpt><trkpt lat="43.9754532" lon="11.3350815"><ele>228.0</ele><time>2026-04-25T14:55:39.301Z</time></trkpt><trkpt lat="43.9753079" lon="11.3349899"><ele>228.0</ele><time>2026-04-25T14:55:40.312Z</time></trkpt><trkpt lat="43.9751699" lon="11.334902"><ele>228.0</ele><time>2026-04-25T14:55:41.322Z</time></trkpt><trkpt lat="43.9750337" lon="11.3348166"><ele>227.33333333333331</ele><time>2026-04-25T14:55:42.297Z</time></trkpt><trkpt lat="43.9748891" lon="11.3347304"><ele>226.66666666666666</ele><time>2026-04-25T14:55:43.317Z</time></trkpt><trkpt lat="43.9747424" lon="11.3346484"><ele>226.0</ele><time>2026-04-25T14:55:44.319Z</time></trkpt><trkpt lat="43.9745953" lon="11.3345674"><ele>226.0</ele><time>2026-04-25T14:55:45.317Z</time></trkpt><trkpt lat="43.9744494" lon="11.3344851"><ele>226.0</ele><time>2026-04-25T14:55:46.298Z</time></trkpt><trkpt lat="43.9743005" lon="11.3344019"><ele>226.0</ele><time>2026-04-25T14:55:47.308Z</time></trkpt><trkpt lat="43.9741472" lon="11.3343153"><ele>225.66666666666666</ele><time>2026-04-25T14:55:48.318Z</time></trkpt><trkpt lat="43.9739972" lon="11.3342403"><ele>225.33333333333331</ele><time>2026-04-25T14:55:49.32Z</time></trkpt><trkpt lat="43.9738423" lon="11.3341607"><ele>225.0</ele><time>2026-04-25T14:55:50.309Z</time></trkpt><trkpt lat="43.9736908" lon="11.3340904"><ele>225.0</ele><time>2026-04-25T14:55:51.287Z</time></trkpt><trkpt lat="43.9735379" lon="11.3340189"><ele>225.0</ele><time>2026-04-25T14:55:52.319Z</time></trkpt><trkpt lat="43.9733939" lon="11.3339434"><ele>225.0</ele><time>2026-04-25T14:55:53.32Z</time></trkpt><trkpt lat="43.9732481" lon="11.3338741"><ele>224.66666666666669</ele><time>2026-04-25T14:55:54.32Z</time></trkpt><trkpt lat="43.9730988" lon="11.3338031"><ele>224.33333333333334</ele><time>2026-04-25T14:55:55.312Z</time></trkpt><trkpt lat="43.9729535" lon="11.3337317"><ele>224.0</ele><time>2026-04-25T14:55:56.316Z</time></trkpt><trkpt lat="43.9728054" lon="11.3336621"><ele>224.0</ele><time>2026-04-25T14:55:57.308Z</time></trkpt><trkpt lat="43.9726595" lon="11.3335946"><ele>224.0</ele><time>2026-04-25T14:55:58.317Z</time></trkpt><trkpt lat="43.9725142" lon="11.3335282"><ele>224.0</ele><time>2026-04-25T14:55:59.318Z</time></trkpt><trkpt lat="43.9723657" lon="11.3334532"><ele>222.66666666666669</ele><time>2026-04-25T14:56:00.325Z</time></trkpt><trkpt lat="43.9722188" lon="11.3333833"><ele>221.33333333333331</ele><time>2026-04-25T14:56:01.315Z</time></trkpt><trkpt lat="43.9720725" lon="11.3333103"><ele>220.0</ele><time>2026-04-25T14:56:02.319Z</time></trkpt><trkpt lat="43.971932" lon="11.3332457"><ele>220.0</ele><time>2026-04-25T14:56:03.329Z</time></trkpt><trkpt lat="43.9717926" lon="11.3331771"><ele>220.0</ele><time>2026-04-25T14:56:04.316Z</time></trkpt><trkpt lat="43.9716552" lon="11.333101"><ele>220.0</ele><time>2026-04-25T14:56:05.315Z</time></trkpt><trkpt lat="43.9715208" lon="11.3330421"><ele>220.0</ele><time>2026-04-25T14:56:06.309Z</time></trkpt><trkpt lat="43.9713922" lon="11.3329814"><ele>219.75</ele><time>2026-04-25T14:56:07.318Z</time></trkpt><trkpt lat="43.9712711" lon="11.3329216"><ele>219.5</ele><time>2026-04-25T14:56:08.316Z</time></trkpt><trkpt lat="43.9711525" lon="11.3328642"><ele>219.25</ele><time>2026-04-25T14:56:09.316Z</time></trkpt><trkpt lat="43.97104" lon="11.3328163"><ele>219.0</ele><time>2026-04-25T14:56:10.294Z</time></trkpt><trkpt lat="43.9709265" lon="11.3327594"><ele>218.75</ele><time>2026-04-25T14:56:11.322Z</time></trkpt><trkpt lat="43.970806" lon="11.3327031"><ele>218.5</ele><time>2026-04-25T14:56:12.31Z</time></trkpt><trkpt lat="43.9706769" lon="11.3326376"><ele>218.25</ele><time>2026-04-25T14:56:13.326Z</time></trkpt><trkpt lat="43.9705533" lon="11.3325768"><ele>218.0</ele><time>2026-04-25T14:56:14.31Z</time></trkpt><trkpt lat="43.9704393" lon="11.3325244"><ele>218.0</ele><time>2026-04-25T14:56:15.297Z</time></trkpt><trkpt lat="43.9703338" lon="11.3324622"><ele>218.0</ele><time>2026-04-25T14:56:16.321Z</time></trkpt><trkpt lat="43.9702376" lon="11.33238"><ele>218.0</ele><time>2026-04-25T14:56:17.323Z</time></trkpt><trkpt lat="43.97016" lon="11.3322862"><ele>218.0</ele><time>2026-04-25T14:56:18.303Z</time></trkpt><trkpt lat="43.9700875" lon="11.3321895"><ele>218.0</ele><time>2026-04-25T14:56:19.316Z</time></trkpt><trkpt lat="43.9700229" lon="11.3320799"><ele>217.8</ele><time>2026-04-25T14:56:20.317Z</time></trkpt><trkpt lat="43.9699711" lon="11.3319656"><ele>217.60000000000002</ele><time>2026-04-25T14:56:21.317Z</time></trkpt><trkpt lat="43.9699364" lon="11.3318285"><ele>217.39999999999998</ele><time>2026-04-25T14:56:22.306Z</time></trkpt><trkpt lat="43.9699345" lon="11.3316716"><ele>217.2</ele><time>2026-04-25T14:56:23.31Z</time></trkpt><trkpt lat="43.9699617" lon="11.3314953"><ele>217.0</ele><time>2026-04-25T14:56:24.309Z</time></trkpt><trkpt lat="43.9700076" lon="11.331286"><ele>217.33333333333331</ele><time>2026-04-25T14:56:25.322Z</time></trkpt><trkpt lat="43.9700588" lon="11.3310849"><ele>217.66666666666669</ele><time>2026-04-25T14:56:26.32Z</time></trkpt><trkpt lat="43.9701159" lon="11.3308822"><ele>218.0</ele><time>2026-04-25T14:56:27.315Z</time></trkpt><trkpt lat="43.9701673" lon="11.3306846"><ele>217.25</ele><time>2026-04-25T14:56:28.318Z</time></trkpt><trkpt lat="43.9702152" lon="11.3304891"><ele>216.5</ele><time>2026-04-25T14:56:29.326Z</time></trkpt><trkpt lat="43.9702577" lon="11.3303128"><ele>215.75</ele><time>2026-04-25T14:56:30.31Z</time></trkpt><trkpt lat="43.9702949" lon="11.3301438"><ele>215.0</ele><time>2026-04-25T14:56:31.32Z</time></trkpt><trkpt lat="43.9703282" lon="11.3299717"><ele>215.0</ele><time>2026-04-25T14:56:32.322Z</time></trkpt><trkpt lat="43.9703541" lon="11.3297743"><ele>215.0</ele><time>2026-04-25T14:56:33.324Z</time></trkpt><trkpt lat="43.9703834" lon="11.3295728"><ele>215.0</ele><time>2026-04-25T14:56:34.321Z</time></trkpt><trkpt lat="43.9703995" lon="11.3293663"><ele>215.0</ele><time>2026-04-25T14:56:35.32Z</time></trkpt><trkpt lat="43.9704078" lon="11.3291543"><ele>213.66666666666669</ele><time>2026-04-25T14:56:36.322Z</time></trkpt><trkpt lat="43.9704122" lon="11.3289372"><ele>212.33333333333331</ele><time>2026-04-25T14:56:37.316Z</time></trkpt><trkpt lat="43.9704156" lon="11.328727"><ele>211.0</ele><time>2026-04-25T14:56:38.311Z</time></trkpt><trkpt lat="43.9704212" lon="11.3285155"><ele>209.66666666666666</ele><time>2026-04-25T14:56:39.296Z</time></trkpt><trkpt lat="43.9704228" lon="11.3283073"><ele>208.33333333333331</ele><time>2026-04-25T14:56:40.311Z</time></trkpt><trkpt lat="43.9704286" lon="11.3280806"><ele>207.0</ele><time>2026-04-25T14:56:41.328Z</time></trkpt><trkpt lat="43.9704354" lon="11.3278428"><ele>207.0</ele><time>2026-04-25T14:56:42.303Z</time></trkpt><trkpt lat="43.9704378" lon="11.327585"><ele>207.0</ele><time>2026-04-25T14:56:43.313Z</time></trkpt><trkpt lat="43.9704475" lon="11.3273221"><ele>207.0</ele><time>2026-04-25T14:56:44.316Z</time></trkpt><trkpt lat="43.9704505" lon="11.3270609"><ele>207.0</ele><time>2026-04-25T14:56:45.319Z</time></trkpt><trkpt lat="43.9704524" lon="11.3267872"><ele>207.0</ele><time>2026-04-25T14:56:46.308Z</time></trkpt><trkpt lat="43.9704508" lon="11.3265082"><ele>207.0</ele><time>2026-04-25T14:56:47.312Z</time></trkpt><trkpt lat="43.9704524" lon="11.3262283"><ele>205.66666666666669</ele><time>2026-04-25T14:56:48.323Z</time></trkpt><trkpt lat="43.9704537" lon="11.3259456"><ele>204.33333333333334</ele><time>2026-04-25T14:56:49.309Z</time></trkpt><trkpt lat="43.970459" lon="11.3256652"><ele>203.0</ele><time>2026-04-25T14:56:50.287Z</time></trkpt><trkpt lat="43.9704625" lon="11.3253863"><ele>203.0</ele><time>2026-04-25T14:56:51.302Z</time></trkpt><trkpt lat="43.9704665" lon="11.3251124"><ele>203.0</ele><time>2026-04-25T14:56:52.322Z</time></trkpt><trkpt lat="43.9704686" lon="11.3248463"><ele>203.0</ele><time>2026-04-25T14:56:53.322Z</time></trkpt><trkpt lat="43.9704751" lon="11.3245735"><ele>203.0</ele><time>2026-04-25T14:56:54.312Z</time></trkpt><trkpt lat="43.9704787" lon="11.3243051"><ele>203.0</ele><time>2026-04-25T14:56:55.312Z</time></trkpt><trkpt lat="43.9704825" lon="11.3240371"><ele>203.0</ele><time>2026-04-25T14:56:56.297Z</time></trkpt><trkpt lat="43.9704802" lon="11.3237684"><ele>203.33333333333334</ele><time>2026-04-25T14:56:57.317Z</time></trkpt><trkpt lat="43.9704802" lon="11.3234991"><ele>203.66666666666669</ele><time>2026-04-25T14:56:58.304Z</time></trkpt><trkpt lat="43.9704749" lon="11.323242"><ele>204.0</ele><time>2026-04-25T14:56:59.328Z</time></trkpt><trkpt lat="43.9704658" lon="11.323001"><ele>204.0</ele><time>2026-04-25T14:57:00.297Z</time></trkpt><trkpt lat="43.9704452" lon="11.3227664"><ele>204.0</ele><time>2026-04-25T14:57:01.317Z</time></trkpt><trkpt lat="43.9704108" lon="11.3225417"><ele>204.0</ele><time>2026-04-25T14:57:02.312Z</time></trkpt><trkpt lat="43.9703671" lon="11.3223183"><ele>204.0</ele><time>2026-04-25T14:57:03.308Z</time></trkpt><trkpt lat="43.9703234" lon="11.3221054"><ele>204.0</ele><time>2026-04-25T14:57:04.319Z</time></trkpt><trkpt lat="43.9702736" lon="11.3218905"><ele>204.0</ele><time>2026-04-25T14:57:05.305Z</time></trkpt><trkpt lat="43.9702158" lon="11.3216712"><ele>204.0</ele><time>2026-04-25T14:57:06.31Z</time></trkpt><trkpt lat="43.9701467" lon="11.3214545"><ele>204.0</ele><time>2026-04-25T14:57:07.33Z</time></trkpt><trkpt lat="43.9700736" lon="11.3212457"><ele>204.0</ele><time>2026-04-25T14:57:08.331Z</time></trkpt><trkpt lat="43.9700009" lon="11.3210463"><ele>203.66666666666669</ele><time>2026-04-25T14:57:09.318Z</time></trkpt><trkpt lat="43.9699191" lon="11.3208471"><ele>203.33333333333334</ele><time>2026-04-25T14:57:10.312Z</time></trkpt><trkpt lat="43.9698375" lon="11.3206458"><ele>203.0</ele><time>2026-04-25T14:57:11.31Z</time></trkpt><trkpt lat="43.9697628" lon="11.3204501"><ele>204.0</ele><time>2026-04-25T14:57:12.315Z</time></trkpt><trkpt lat="43.969688" lon="11.3202581"><ele>205.0</ele><time>2026-04-25T14:57:13.317Z</time></trkpt><trkpt lat="43.9696128" lon="11.3200634"><ele>206.0</ele><time>2026-04-25T14:57:14.316Z</time></trkpt><trkpt lat="43.9695359" lon="11.3198595"><ele>206.0</ele><time>2026-04-25T14:57:15.321Z</time></trkpt><trkpt lat="43.9694626" lon="11.3196545"><ele>206.0</ele><time>2026-04-25T14:57:16.301Z</time></trkpt><trkpt lat="43.9693935" lon="11.3194651"><ele>206.0</ele><time>2026-04-25T14:57:17.309Z</time></trkpt><trkpt lat="43.969331" lon="11.3192993"><ele>206.0</ele><time>2026-04-25T14:57:18.316Z</time></trkpt><trkpt lat="43.9692765" lon="11.3191509"><ele>206.0</ele><time>2026-04-25T14:57:19.313Z</time></trkpt><trkpt lat="43.9692233" lon="11.3189996"><ele>206.0</ele><time>2026-04-25T14:57:20.309Z</time></trkpt><trkpt lat="43.9691601" lon="11.3188376"><ele>206.0</ele><time>2026-04-25T14:57:21.32Z</time></trkpt><trkpt lat="43.9691012" lon="11.3186658"><ele>206.25</ele><time>2026-04-25T14:57:22.326Z</time></trkpt><trkpt lat="43.9690402" lon="11.3184848"><ele>206.5</ele><time>2026-04-25T14:57:23.289Z</time></trkpt><trkpt lat="43.9689749" lon="11.3183093"><ele>206.75</ele><time>2026-04-25T14:57:24.298Z</time></trkpt><trkpt lat="43.9689061" lon="11.3181415"><ele>207.0</ele><time>2026-04-25T14:57:25.323Z</time></trkpt><trkpt lat="43.9688401" lon="11.317968"><ele>207.0</ele><time>2026-04-25T14:57:26.311Z</time></trkpt><trkpt lat="43.9687758" lon="11.3177945"><ele>207.0</ele><time>2026-04-25T14:57:27.311Z</time></trkpt><trkpt lat="43.9687048" lon="11.3176141"><ele>207.0</ele><time>2026-04-25T14:57:28.32Z</time></trkpt><trkpt lat="43.9686322" lon="11.317429"><ele>207.0</ele><time>2026-04-25T14:57:29.306Z</time></trkpt><trkpt lat="43.968559" lon="11.3172448"><ele>207.0</ele><time>2026-04-25T14:57:30.31Z</time></trkpt><trkpt lat="43.9684867" lon="11.3170629"><ele>207.0</ele><time>2026-04-25T14:57:31.309Z</time></trkpt><trkpt lat="43.968423" lon="11.3168722"><ele>207.0</ele><time>2026-04-25T14:57:32.314Z</time></trkpt><trkpt lat="43.9683505" lon="11.3166818"><ele>207.0</ele><time>2026-04-25T14:57:33.311Z</time></trkpt><trkpt lat="43.9682819" lon="11.3164811"><ele>207.0</ele><time>2026-04-25T14:57:34.314Z</time></trkpt><trkpt lat="43.9682058" lon="11.316285"><ele>207.0</ele><time>2026-04-25T14:57:35.305Z</time></trkpt><trkpt lat="43.96813" lon="11.3160806"><ele>208.0</ele><time>2026-04-25T14:57:36.319Z</time></trkpt><trkpt lat="43.9680512" lon="11.3158744"><ele>209.0</ele><time>2026-04-25T14:57:37.329Z</time></trkpt><trkpt lat="43.9679772" lon="11.3156696"><ele>210.0</ele><time>2026-04-25T14:57:38.291Z</time></trkpt><trkpt lat="43.9678995" lon="11.3154694"><ele>210.66666666666669</ele><time>2026-04-25T14:57:39.308Z</time></trkpt><trkpt lat="43.9678259" lon="11.3152672"><ele>211.33333333333334</ele><time>2026-04-25T14:57:40.324Z</time></trkpt><trkpt lat="43.9677564" lon="11.3150696"><ele>212.0</ele><time>2026-04-25T14:57:41.312Z</time></trkpt><trkpt lat="43.9676887" lon="11.314875"><ele>212.0</ele><time>2026-04-25T14:57:42.324Z</time></trkpt><trkpt lat="43.9676192" lon="11.3146876"><ele>212.0</ele><time>2026-04-25T14:57:43.302Z</time></trkpt><trkpt lat="43.9675527" lon="11.3144939"><ele>212.0</ele><time>2026-04-25T14:57:44.31Z</time></trkpt><trkpt lat="43.967485" lon="11.3143055"><ele>212.0</ele><time>2026-04-25T14:57:45.292Z</time></trkpt><trkpt lat="43.9674155" lon="11.3141163"><ele>212.0</ele><time>2026-04-25T14:57:46.303Z</time></trkpt><trkpt lat="43.9673448" lon="11.313933"><ele>212.0</ele><time>2026-04-25T14:57:47.317Z</time></trkpt><trkpt lat="43.9672764" lon="11.3137376"><ele>212.66666666666669</ele><time>2026-04-25T14:57:48.297Z</time></trkpt><trkpt lat="43.9672022" lon="11.3135408"><ele>213.33333333333331</ele><time>2026-04-25T14:57:49.3Z</time></trkpt><trkpt lat="43.9671318" lon="11.3133525"><ele>214.0</ele><time>2026-04-25T14:57:50.304Z</time></trkpt><trkpt lat="43.9670633" lon="11.3131697"><ele>213.33333333333331</ele><time>2026-04-25T14:57:51.292Z</time></trkpt><trkpt lat="43.9669984" lon="11.3129836"><ele>212.66666666666669</ele><time>2026-04-25T14:57:52.313Z</time></trkpt><trkpt lat="43.9669316" lon="11.3127954"><ele>212.0</ele><time>2026-04-25T14:57:53.31Z</time></trkpt><trkpt lat="43.9668608" lon="11.3126111"><ele>212.0</ele><time>2026-04-25T14:57:54.329Z</time></trkpt><trkpt lat="43.9667901" lon="11.3124288"><ele>212.0</ele><time>2026-04-25T14:57:55.308Z</time></trkpt><trkpt lat="43.9667151" lon="11.3122514"><ele>212.0</ele><time>2026-04-25T14:57:56.332Z</time></trkpt><trkpt lat="43.9666317" lon="11.3120758"><ele>212.0</ele><time>2026-04-25T14:57:57.314Z</time></trkpt><trkpt lat="43.9665317" lon="11.311913"><ele>212.0</ele><time>2026-04-25T14:57:58.316Z</time></trkpt><trkpt lat="43.9664242" lon="11.3117587"><ele>212.0</ele><time>2026-04-25T14:57:59.312Z</time></trkpt><trkpt lat="43.9663076" lon="11.3116113"><ele>212.0</ele><time>2026-04-25T14:58:00.321Z</time></trkpt><trkpt lat="43.96618" lon="11.3114756"><ele>212.0</ele><time>2026-04-25T14:58:01.325Z</time></trkpt><trkpt lat="43.9660506" lon="11.3113419"><ele>212.0</ele><time>2026-04-25T14:58:02.285Z</time></trkpt><trkpt lat="43.9659125" lon="11.3112192"><ele>212.0</ele><time>2026-04-25T14:58:03.318Z</time></trkpt><trkpt lat="43.9657622" lon="11.3111116"><ele>212.0</ele><time>2026-04-25T14:58:04.309Z</time></trkpt><trkpt lat="43.9655872" lon="11.3110285"><ele>212.0</ele><time>2026-04-25T14:58:05.328Z</time></trkpt><trkpt lat="43.9654055" lon="11.3109614"><ele>212.0</ele><time>2026-04-25T14:58:06.296Z</time></trkpt><trkpt lat="43.9652163" lon="11.3108998"><ele>212.0</ele><time>2026-04-25T14:58:07.322Z</time></trkpt><trkpt lat="43.9650329" lon="11.3108359"><ele>212.0</ele><time>2026-04-25T14:58:08.318Z</time></trkpt><trkpt lat="43.9648619" lon="11.3107731"><ele>212.0</ele><time>2026-04-25T14:58:09.312Z</time></trkpt><trkpt lat="43.9646974" lon="11.3107017"><ele>211.33333333333334</ele><time>2026-04-25T14:58:10.31Z</time></trkpt><trkpt lat="43.9645315" lon="11.3106398"><ele>210.66666666666669</ele><time>2026-04-25T14:58:11.308Z</time></trkpt><trkpt lat="43.9643698" lon="11.3105836"><ele>210.0</ele><time>2026-04-25T14:58:12.313Z</time></trkpt><trkpt lat="43.9642113" lon="11.3105069"><ele>210.66666666666669</ele><time>2026-04-25T14:58:13.305Z</time></trkpt><trkpt lat="43.9640519" lon="11.3104145"><ele>211.33333333333334</ele><time>2026-04-25T14:58:14.307Z</time></trkpt><trkpt lat="43.963886" lon="11.3103128"><ele>212.0</ele><time>2026-04-25T14:58:15.309Z</time></trkpt><trkpt lat="43.9637244" lon="11.3101939"><ele>212.0</ele><time>2026-04-25T14:58:16.298Z</time></trkpt><trkpt lat="43.9635822" lon="11.3100557"><ele>212.0</ele><time>2026-04-25T14:58:17.311Z</time></trkpt><trkpt lat="43.9634505" lon="11.309902"><ele>212.0</ele><time>2026-04-25T14:58:18.313Z</time></trkpt><trkpt lat="43.9633328" lon="11.3097372"><ele>213.66666666666669</ele><time>2026-04-25T14:58:19.295Z</time></trkpt><trkpt lat="43.9632224" lon="11.3095623"><ele>215.33333333333331</ele><time>2026-04-25T14:58:20.3Z</time></trkpt><trkpt lat="43.9631234" lon="11.3093765"><ele>217.0</ele><time>2026-04-25T14:58:21.302Z</time></trkpt><trkpt lat="43.9630335" lon="11.3091758"><ele>217.0</ele><time>2026-04-25T14:58:22.297Z</time></trkpt><trkpt lat="43.9629532" lon="11.3089638"><ele>217.0</ele><time>2026-04-25T14:58:23.306Z</time></trkpt><trkpt lat="43.9628794" lon="11.3087355"><ele>217.0</ele><time>2026-04-25T14:58:24.308Z</time></trkpt><trkpt lat="43.9628072" lon="11.3085015"><ele>215.0</ele><time>2026-04-25T14:58:25.294Z</time></trkpt><trkpt lat="43.9627308" lon="11.3082636"><ele>213.0</ele><time>2026-04-25T14:58:26.311Z</time></trkpt><trkpt lat="43.9626505" lon="11.3080186"><ele>211.0</ele><time>2026-04-25T14:58:27.299Z</time></trkpt><trkpt lat="43.9625793" lon="11.3077773"><ele>211.0</ele><time>2026-04-25T14:58:28.31Z</time></trkpt><trkpt lat="43.9625144" lon="11.3075481"><ele>211.0</ele><time>2026-04-25T14:58:29.322Z</time></trkpt><trkpt lat="43.9624465" lon="11.3073295"><ele>211.0</ele><time>2026-04-25T14:58:30.311Z</time></trkpt><trkpt lat="43.9623845" lon="11.3071166"><ele>211.0</ele><time>2026-04-25T14:58:31.298Z</time></trkpt><trkpt lat="43.9623219" lon="11.3069044"><ele>211.0</ele><time>2026-04-25T14:58:32.295Z</time></trkpt><trkpt lat="43.9622558" lon="11.3066991"><ele>211.0</ele><time>2026-04-25T14:58:33.286Z</time></trkpt><trkpt lat="43.9621917" lon="11.3064999"><ele>210.33333333333331</ele><time>2026-04-25T14:58:34.291Z</time></trkpt><trkpt lat="43.9621242" lon="11.306295"><ele>209.66666666666669</ele><time>2026-04-25T14:58:35.308Z</time></trkpt><trkpt lat="43.962067" lon="11.3061003"><ele>209.0</ele><time>2026-04-25T14:58:36.304Z</time></trkpt><trkpt lat="43.9620055" lon="11.3059137"><ele>209.0</ele><time>2026-04-25T14:58:37.307Z</time></trkpt><trkpt lat="43.9619433" lon="11.3057418"><ele>209.0</ele><time>2026-04-25T14:58:38.316Z</time></trkpt><trkpt lat="43.9618853" lon="11.3055685"><ele>209.0</ele><time>2026-04-25T14:58:39.31Z</time></trkpt><trkpt lat="43.9618321" lon="11.3053962"><ele>209.0</ele><time>2026-04-25T14:58:40.297Z</time></trkpt><trkpt lat="43.9617785" lon="11.3052211"><ele>209.5</ele><time>2026-04-25T14:58:41.299Z</time></trkpt><trkpt lat="43.9617248" lon="11.3050549"><ele>210.0</ele><time>2026-04-25T14:58:42.308Z</time></trkpt><trkpt lat="43.9616816" lon="11.3049021"><ele>210.5</ele><time>2026-04-25T14:58:43.301Z</time></trkpt><trkpt lat="43.9616303" lon="11.3047557"><ele>211.0</ele><time>2026-04-25T14:58:44.3Z</time></trkpt><trkpt lat="43.9615764" lon="11.3046168"><ele>211.20000000000002</ele><time>2026-04-25T14:58:45.323Z</time></trkpt><trkpt lat="43.9615328" lon="11.3044811"><ele>211.4</ele><time>2026-04-25T14:58:46.301Z</time></trkpt><trkpt lat="43.9614963" lon="11.304349"><ele>211.6</ele><time>2026-04-25T14:58:47.305Z</time></trkpt><trkpt lat="43.9614656" lon="11.3042148"><ele>211.8</ele><time>2026-04-25T14:58:48.305Z</time></trkpt><trkpt lat="43.9614417" lon="11.3040846"><ele>212.0</ele><time>2026-04-25T14:58:49.303Z</time></trkpt><trkpt lat="43.9614283" lon="11.3039477"><ele>212.2</ele><time>2026-04-25T14:58:50.317Z</time></trkpt><trkpt lat="43.9614226" lon="11.3038011"><ele>212.39999999999998</ele><time>2026-04-25T14:58:51.289Z</time></trkpt><trkpt lat="43.9614422" lon="11.3036548"><ele>212.60000000000002</ele><time>2026-04-25T14:58:52.301Z</time></trkpt><trkpt lat="43.9614854" lon="11.3035072"><ele>212.8</ele><time>2026-04-25T14:58:53.296Z</time></trkpt><trkpt lat="43.961537" lon="11.3033615"><ele>213.0</ele><time>2026-04-25T14:58:54.301Z</time></trkpt><trkpt lat="43.9615863" lon="11.3032208"><ele>213.5</ele><time>2026-04-25T14:58:55.313Z</time></trkpt><trkpt lat="43.9616408" lon="11.3030775"><ele>214.0</ele><time>2026-04-25T14:58:56.284Z</time></trkpt><trkpt lat="43.9617075" lon="11.3029376"><ele>214.5</ele><time>2026-04-25T14:58:57.314Z</time></trkpt><trkpt lat="43.9617862" lon="11.3027964"><ele>215.0</ele><time>2026-04-25T14:58:58.311Z</time></trkpt><trkpt lat="43.9618551" lon="11.3026458"><ele>215.25</ele><time>2026-04-25T14:58:59.312Z</time></trkpt><trkpt lat="43.9619146" lon="11.3024909"><ele>215.5</ele><time>2026-04-25T14:59:00.304Z</time></trkpt><trkpt lat="43.9619804" lon="11.3023415"><ele>215.75</ele><time>2026-04-25T14:59:01.314Z</time></trkpt><trkpt lat="43.9620488" lon="11.302201"><ele>216.0</ele><time>2026-04-25T14:59:02.309Z</time></trkpt><trkpt lat="43.9621424" lon="11.3020706"><ele>216.0</ele><time>2026-04-25T14:59:03.316Z</time></trkpt><trkpt lat="43.9622582" lon="11.3019783"><ele>216.0</ele><time>2026-04-25T14:59:04.297Z</time></trkpt><trkpt lat="43.9623833" lon="11.3019218"><ele>216.0</ele><time>2026-04-25T14:59:05.287Z</time></trkpt><trkpt lat="43.962512" lon="11.3018995"><ele>216.0</ele><time>2026-04-25T14:59:06.309Z</time></trkpt><trkpt lat="43.9626345" lon="11.3018873"><ele>215.75</ele><time>2026-04-25T14:59:07.312Z</time></trkpt><trkpt lat="43.9627572" lon="11.3018835"><ele>215.5</ele><time>2026-04-25T14:59:08.314Z</time></trkpt><trkpt lat="43.9628847" lon="11.3018576"><ele>215.25</ele><time>2026-04-25T14:59:09.309Z</time></trkpt><trkpt lat="43.9630107" lon="11.3018194"><ele>215.0</ele><time>2026-04-25T14:59:10.307Z</time></trkpt><trkpt lat="43.9631303" lon="11.3017441"><ele>215.0</ele><time>2026-04-25T14:59:11.31Z</time></trkpt><trkpt lat="43.9632408" lon="11.3016477"><ele>215.0</ele><time>2026-04-25T14:59:12.311Z</time></trkpt><trkpt lat="43.9633388" lon="11.3015343"><ele>215.0</ele><time>2026-04-25T14:59:13.326Z</time></trkpt><trkpt lat="43.9634298" lon="11.3014216"><ele>215.0</ele><time>2026-04-25T14:59:14.299Z</time></trkpt><trkpt lat="43.9635177" lon="11.3013157"><ele>215.0</ele><time>2026-04-25T14:59:15.327Z</time></trkpt><trkpt lat="43.9636073" lon="11.3012019"><ele>215.0</ele><time>2026-04-25T14:59:16.311Z</time></trkpt><trkpt lat="43.9637072" lon="11.3010762"><ele>215.0</ele><time>2026-04-25T14:59:17.315Z</time></trkpt><trkpt lat="43.9638098" lon="11.3009528"><ele>215.0</ele><time>2026-04-25T14:59:18.317Z</time></trkpt><trkpt lat="43.9639146" lon="11.3008318"><ele>215.0</ele><time>2026-04-25T14:59:19.31Z</time></trkpt><trkpt lat="43.9640166" lon="11.3007077"><ele>215.0</ele><time>2026-04-25T14:59:20.303Z</time></trkpt><trkpt lat="43.9641193" lon="11.3005766"><ele>215.0</ele><time>2026-04-25T14:59:21.303Z</time></trkpt><trkpt lat="43.9642271" lon="11.3004445"><ele>215.0</ele><time>2026-04-25T14:59:22.309Z</time></trkpt><trkpt lat="43.9643323" lon="11.3003073"><ele>215.0</ele><time>2026-04-25T14:59:23.302Z</time></trkpt><trkpt lat="43.9644365" lon="11.3001696"><ele>215.0</ele><time>2026-04-25T14:59:24.321Z</time></trkpt><trkpt lat="43.9645359" lon="11.3000353"><ele>215.0</ele><time>2026-04-25T14:59:25.305Z</time></trkpt><trkpt lat="43.9646413" lon="11.2999061"><ele>215.0</ele><time>2026-04-25T14:59:26.32Z</time></trkpt><trkpt lat="43.9647392" lon="11.2997737"><ele>215.5</ele><time>2026-04-25T14:59:27.311Z</time></trkpt><trkpt lat="43.9648303" lon="11.2996366"><ele>216.0</ele><time>2026-04-25T14:59:28.318Z</time></trkpt><trkpt lat="43.9649014" lon="11.2994953"><ele>216.5</ele><time>2026-04-25T14:59:29.301Z</time></trkpt><trkpt lat="43.9649431" lon="11.299327"><ele>217.0</ele><time>2026-04-25T14:59:30.325Z</time></trkpt><trkpt lat="43.9649642" lon="11.2991658"><ele>217.0</ele><time>2026-04-25T14:59:31.31Z</time></trkpt><trkpt lat="43.964971" lon="11.2989988"><ele>217.0</ele><time>2026-04-25T14:59:32.309Z</time></trkpt><trkpt lat="43.9649629" lon="11.2988346"><ele>217.0</ele><time>2026-04-25T14:59:33.322Z</time></trkpt><trkpt lat="43.9649545" lon="11.2986742"><ele>217.0</ele><time>2026-04-25T14:59:34.317Z</time></trkpt><trkpt lat="43.9649425" lon="11.2985077"><ele>217.39999999999998</ele><time>2026-04-25T14:59:35.328Z</time></trkpt><trkpt lat="43.9649365" lon="11.2983437"><ele>217.79999999999998</ele><time>2026-04-25T14:59:36.316Z</time></trkpt><trkpt lat="43.9649291" lon="11.2981852"><ele>218.2</ele><time>2026-04-25T14:59:37.322Z</time></trkpt><trkpt lat="43.9649198" lon="11.2980387"><ele>218.6</ele><time>2026-04-25T14:59:38.308Z</time></trkpt><trkpt lat="43.9649125" lon="11.2978955"><ele>219.0</ele><time>2026-04-25T14:59:39.31Z</time></trkpt><trkpt lat="43.9649014" lon="11.2977489"><ele>219.75</ele><time>2026-04-25T14:59:40.325Z</time></trkpt><trkpt lat="43.9648907" lon="11.2975957"><ele>220.5</ele><time>2026-04-25T14:59:41.326Z</time></trkpt><trkpt lat="43.9648749" lon="11.2974232"><ele>221.25</ele><time>2026-04-25T14:59:42.327Z</time></trkpt><trkpt lat="43.9648535" lon="11.2972272"><ele>222.0</ele><time>2026-04-25T14:59:43.318Z</time></trkpt><trkpt lat="43.9648379" lon="11.2970168"><ele>222.75</ele><time>2026-04-25T14:59:44.327Z</time></trkpt><trkpt lat="43.9648333" lon="11.296818"><ele>223.5</ele><time>2026-04-25T14:59:45.312Z</time></trkpt><trkpt lat="43.9648257" lon="11.2966327"><ele>224.25</ele><time>2026-04-25T14:59:46.311Z</time></trkpt><trkpt lat="43.9648244" lon="11.2964703"><ele>225.0</ele><time>2026-04-25T14:59:47.31Z</time></trkpt><trkpt lat="43.9648454" lon="11.2963157"><ele>225.25</ele><time>2026-04-25T14:59:48.307Z</time></trkpt><trkpt lat="43.9648955" lon="11.2961676"><ele>225.5</ele><time>2026-04-25T14:59:49.321Z</time></trkpt><trkpt lat="43.9649803" lon="11.2960478"><ele>225.75</ele><time>2026-04-25T14:59:50.31Z</time></trkpt><trkpt lat="43.9650855" lon="11.2959431"><ele>226.0</ele><time>2026-04-25T14:59:51.305Z</time></trkpt><trkpt lat="43.9651903" lon="11.2958402"><ele>226.0</ele><time>2026-04-25T14:59:52.309Z</time></trkpt><trkpt lat="43.9652833" lon="11.2957497"><ele>226.0</ele><time>2026-04-25T14:59:53.317Z</time></trkpt><trkpt lat="43.9653813" lon="11.2956473"><ele>226.0</ele><time>2026-04-25T14:59:54.312Z</time></trkpt><trkpt lat="43.9654848" lon="11.2955339"><ele>226.0</ele><time>2026-04-25T14:59:55.314Z</time></trkpt><trkpt lat="43.9655962" lon="11.2954212"><ele>226.25</ele><time>2026-04-25T14:59:56.311Z</time></trkpt><trkpt lat="43.9657078" lon="11.2953052"><ele>226.5</ele><time>2026-04-25T14:59:57.318Z</time></trkpt><trkpt lat="43.9658283" lon="11.2952037"><ele>226.75</ele><time>2026-04-25T14:59:58.329Z</time></trkpt><trkpt lat="43.9659518" lon="11.2951034"><ele>227.0</ele><time>2026-04-25T14:59:59.316Z</time></trkpt><trkpt lat="43.9660677" lon="11.2950044"><ele>227.0</ele><time>2026-04-25T15:00:00.341Z</time></trkpt><trkpt lat="43.9661795" lon="11.2949066"><ele>227.0</ele><time>2026-04-25T15:00:01.327Z</time></trkpt><trkpt lat="43.9662888" lon="11.2947974"><ele>227.0</ele><time>2026-04-25T15:00:02.32Z</time></trkpt><trkpt lat="43.9664055" lon="11.2946996"><ele>227.0</ele><time>2026-04-25T15:00:03.323Z</time></trkpt><trkpt lat="43.9665172" lon="11.294606"><ele>227.0</ele><time>2026-04-25T15:00:04.326Z</time></trkpt><trkpt lat="43.9666261" lon="11.2945128"><ele>227.0</ele><time>2026-04-25T15:00:05.324Z</time></trkpt><trkpt lat="43.9667303" lon="11.2944195"><ele>227.0</ele><time>2026-04-25T15:00:06.327Z</time></trkpt><trkpt lat="43.9668405" lon="11.2943217"><ele>227.0</ele><time>2026-04-25T15:00:07.32Z</time></trkpt><trkpt lat="43.9669565" lon="11.2942171"><ele>226.75</ele><time>2026-04-25T15:00:08.329Z</time></trkpt><trkpt lat="43.9670712" lon="11.2941145"><ele>226.5</ele><time>2026-04-25T15:00:09.328Z</time></trkpt><trkpt lat="43.9671931" lon="11.2940039"><ele>226.25</ele><time>2026-04-25T15:00:10.321Z</time></trkpt><trkpt lat="43.9673187" lon="11.2938867"><ele>226.0</ele><time>2026-04-25T15:00:11.308Z</time></trkpt><trkpt lat="43.967443" lon="11.2937723"><ele>225.75</ele><time>2026-04-25T15:00:12.321Z</time></trkpt><trkpt lat="43.9675708" lon="11.2936545"><ele>225.5</ele><time>2026-04-25T15:00:13.329Z</time></trkpt><trkpt lat="43.9676959" lon="11.2935465"><ele>225.25</ele><time>2026-04-25T15:00:14.317Z</time></trkpt><trkpt lat="43.9678151" lon="11.2934364"><ele>225.0</ele><time>2026-04-25T15:00:15.31Z</time></trkpt><trkpt lat="43.9679433" lon="11.2933243"><ele>225.0</ele><time>2026-04-25T15:00:16.318Z</time></trkpt><trkpt lat="43.9680738" lon="11.2932089"><ele>225.0</ele><time>2026-04-25T15:00:17.32Z</time></trkpt><trkpt lat="43.9681982" lon="11.293096"><ele>225.0</ele><time>2026-04-25T15:00:18.318Z</time></trkpt><trkpt lat="43.9683225" lon="11.2929832"><ele>224.66666666666669</ele><time>2026-04-25T15:00:19.312Z</time></trkpt><trkpt lat="43.96845" lon="11.2928755"><ele>224.33333333333334</ele><time>2026-04-25T15:00:20.298Z</time></trkpt><trkpt lat="43.9685804" lon="11.2927596"><ele>224.0</ele><time>2026-04-25T15:00:21.314Z</time></trkpt><trkpt lat="43.968706" lon="11.2926445"><ele>224.0</ele><time>2026-04-25T15:00:22.305Z</time></trkpt><trkpt lat="43.9688312" lon="11.292534"><ele>224.0</ele><time>2026-04-25T15:00:23.323Z</time></trkpt><trkpt lat="43.968957" lon="11.2924266"><ele>224.0</ele><time>2026-04-25T15:00:24.321Z</time></trkpt><trkpt lat="43.9690825" lon="11.2923165"><ele>224.0</ele><time>2026-04-25T15:00:25.282Z</time></trkpt><trkpt lat="43.9692024" lon="11.2922083"><ele>224.0</ele><time>2026-04-25T15:00:26.315Z</time></trkpt><trkpt lat="43.9693245" lon="11.2920994"><ele>224.0</ele><time>2026-04-25T15:00:27.319Z</time></trkpt><trkpt lat="43.9694414" lon="11.2919901"><ele>224.0</ele><time>2026-04-25T15:00:28.322Z</time></trkpt><trkpt lat="43.9695574" lon="11.2918862"><ele>224.0</ele><time>2026-04-25T15:00:29.307Z</time></trkpt><trkpt lat="43.969671" lon="11.2917846"><ele>224.0</ele><time>2026-04-25T15:00:30.317Z</time></trkpt><trkpt lat="43.9697838" lon="11.2916895"><ele>224.0</ele><time>2026-04-25T15:00:31.327Z</time></trkpt><trkpt lat="43.9698975" lon="11.291591"><ele>224.0</ele><time>2026-04-25T15:00:32.324Z</time></trkpt><trkpt lat="43.9700142" lon="11.2914867"><ele>224.0</ele><time>2026-04-25T15:00:33.325Z</time></trkpt><trkpt lat="43.9701383" lon="11.2913866"><ele>223.66666666666669</ele><time>2026-04-25T15:00:34.299Z</time></trkpt><trkpt lat="43.9702698" lon="11.2912753"><ele>223.33333333333331</ele><time>2026-04-25T15:00:35.311Z</time></trkpt><trkpt lat="43.970395" lon="11.2911617"><ele>223.0</ele><time>2026-04-25T15:00:36.311Z</time></trkpt><trkpt lat="43.9705219" lon="11.2910453"><ele>223.0</ele><time>2026-04-25T15:00:37.312Z</time></trkpt><trkpt lat="43.9706559" lon="11.2909302"><ele>223.0</ele><time>2026-04-25T15:00:38.315Z</time></trkpt><trkpt lat="43.9707857" lon="11.29081"><ele>223.0</ele><time>2026-04-25T15:00:39.315Z</time></trkpt><trkpt lat="43.9709123" lon="11.2906894"><ele>222.75</ele><time>2026-04-25T15:00:40.328Z</time></trkpt><trkpt lat="43.9710448" lon="11.2905725"><ele>222.5</ele><time>2026-04-25T15:00:41.323Z</time></trkpt><trkpt lat="43.9711705" lon="11.2904651"><ele>222.25</ele><time>2026-04-25T15:00:42.319Z</time></trkpt><trkpt lat="43.9712894" lon="11.2903627"><ele>222.0</ele><time>2026-04-25T15:00:43.321Z</time></trkpt><trkpt lat="43.9714002" lon="11.2902623"><ele>222.0</ele><time>2026-04-25T15:00:44.307Z</time></trkpt><trkpt lat="43.971504" lon="11.2901683"><ele>222.0</ele><time>2026-04-25T15:00:45.318Z</time></trkpt><trkpt lat="43.9716035" lon="11.290075"><ele>222.0</ele><time>2026-04-25T15:00:46.326Z</time></trkpt><trkpt lat="43.9717046" lon="11.2899874"><ele>222.0</ele><time>2026-04-25T15:00:47.314Z</time></trkpt><trkpt lat="43.9718069" lon="11.2898995"><ele>222.0</ele><time>2026-04-25T15:00:48.316Z</time></trkpt><trkpt lat="43.971913" lon="11.2898096"><ele>222.0</ele><time>2026-04-25T15:00:49.314Z</time></trkpt><trkpt lat="43.972014" lon="11.2897206"><ele>222.0</ele><time>2026-04-25T15:00:50.319Z</time></trkpt><trkpt lat="43.9721155" lon="11.2896304"><ele>222.0</ele><time>2026-04-25T15:00:51.303Z</time></trkpt><trkpt lat="43.9722192" lon="11.2895406"><ele>222.0</ele><time>2026-04-25T15:00:52.321Z</time></trkpt><trkpt lat="43.9723184" lon="11.2894503"><ele>222.0</ele><time>2026-04-25T15:00:53.32Z</time></trkpt><trkpt lat="43.9724121" lon="11.289368"><ele>222.0</ele><time>2026-04-25T15:00:54.324Z</time></trkpt><trkpt lat="43.9725041" lon="11.2892911"><ele>222.0</ele><time>2026-04-25T15:00:55.306Z</time></trkpt><trkpt lat="43.972591" lon="11.2892183"><ele>222.0</ele><time>2026-04-25T15:00:56.329Z</time></trkpt><trkpt lat="43.972681" lon="11.2891533"><ele>222.0</ele><time>2026-04-25T15:00:57.316Z</time></trkpt><trkpt lat="43.9727664" lon="11.2891176"><ele>222.0</ele><time>2026-04-25T15:00:58.326Z</time></trkpt><trkpt lat="43.9728345" lon="11.2891113"><ele>222.0</ele><time>2026-04-25T15:00:59.315Z</time></trkpt><trkpt lat="43.9729137" lon="11.2891403"><ele>222.0</ele><time>2026-04-25T15:01:00.306Z</time></trkpt><trkpt lat="43.9729937" lon="11.289182"><ele>222.0</ele><time>2026-04-25T15:01:01.313Z</time></trkpt><trkpt lat="43.9730687" lon="11.289214"><ele>222.0</ele><time>2026-04-25T15:01:02.306Z</time></trkpt><trkpt lat="43.9731593" lon="11.2891941"><ele>222.0</ele><time>2026-04-25T15:01:03.315Z</time></trkpt><trkpt lat="43.9732515" lon="11.2891318"><ele>222.0</ele><time>2026-04-25T15:01:04.288Z</time></trkpt><trkpt lat="43.9733227" lon="11.2890437"><ele>222.0</ele><time>2026-04-25T15:01:05.309Z</time></trkpt><trkpt lat="43.9733779" lon="11.2889282"><ele>222.0</ele><time>2026-04-25T15:01:06.3Z</time></trkpt><trkpt lat="43.9734236" lon="11.2888176"><ele>222.0</ele><time>2026-04-25T15:01:07.316Z</time></trkpt><trkpt lat="43.9734782" lon="11.2886987"><ele>222.0</ele><time>2026-04-25T15:01:08.324Z</time></trkpt><trkpt lat="43.9735506" lon="11.2885923"><ele>222.0</ele><time>2026-04-25T15:01:09.316Z</time></trkpt><trkpt lat="43.9736471" lon="11.2885086"><ele>222.0</ele><time>2026-04-25T15:01:10.305Z</time></trkpt><trkpt lat="43.9737637" lon="11.2884603"><ele>222.0</ele><time>2026-04-25T15:01:11.319Z</time></trkpt><trkpt lat="43.973875" lon="11.2884125"><ele>222.0</ele><time>2026-04-25T15:01:12.317Z</time></trkpt><trkpt lat="43.9740067" lon="11.2883694"><ele>222.0</ele><time>2026-04-25T15:01:13.308Z</time></trkpt><trkpt lat="43.9741552" lon="11.2883249"><ele>222.0</ele><time>2026-04-25T15:01:14.315Z</time></trkpt><trkpt lat="43.9743146" lon="11.2882651"><ele>222.66666666666669</ele><time>2026-04-25T15:01:15.306Z</time></trkpt><trkpt lat="43.974487" lon="11.2882176"><ele>223.33333333333334</ele><time>2026-04-25T15:01:16.314Z</time></trkpt><trkpt lat="43.9746562" lon="11.2881788"><ele>224.0</ele><time>2026-04-25T15:01:17.311Z</time></trkpt><trkpt lat="43.9748272" lon="11.2881532"><ele>224.0</ele><time>2026-04-25T15:01:18.288Z</time></trkpt><trkpt lat="43.9750023" lon="11.2881301"><ele>224.0</ele><time>2026-04-25T15:01:19.287Z</time></trkpt><trkpt lat="43.9751833" lon="11.2881186"><ele>224.0</ele><time>2026-04-25T15:01:20.298Z</time></trkpt><trkpt lat="43.9753703" lon="11.2881097"><ele>223.33333333333334</ele><time>2026-04-25T15:01:21.321Z</time></trkpt><trkpt lat="43.975559" lon="11.2881158"><ele>222.66666666666669</ele><time>2026-04-25T15:01:22.297Z</time></trkpt><trkpt lat="43.9757479" lon="11.2881196"><ele>222.0</ele><time>2026-04-25T15:01:23.287Z</time></trkpt><trkpt lat="43.9759373" lon="11.2881262"><ele>222.0</ele><time>2026-04-25T15:01:24.278Z</time></trkpt><trkpt lat="43.9761263" lon="11.2881543"><ele>222.0</ele><time>2026-04-25T15:01:25.287Z</time></trkpt><trkpt lat="43.9763109" lon="11.2881885"><ele>222.0</ele><time>2026-04-25T15:01:26.281Z</time></trkpt><trkpt lat="43.9764973" lon="11.2882264"><ele>222.0</ele><time>2026-04-25T15:01:27.287Z</time></trkpt><trkpt lat="43.9766829" lon="11.2882605"><ele>222.0</ele><time>2026-04-25T15:01:28.287Z</time></trkpt><trkpt lat="43.976871" lon="11.2883005"><ele>222.0</ele><time>2026-04-25T15:01:29.293Z</time></trkpt><trkpt lat="43.9770608" lon="11.2883394"><ele>224.0</ele><time>2026-04-25T15:01:30.284Z</time></trkpt><trkpt lat="43.9772497" lon="11.2883713"><ele>226.0</ele><time>2026-04-25T15:01:31.287Z</time></trkpt><trkpt lat="43.9774309" lon="11.2884061"><ele>228.0</ele><time>2026-04-25T15:01:32.29Z</time></trkpt><trkpt lat="43.9776162" lon="11.2884307"><ele>229.33333333333331</ele><time>2026-04-25T15:01:33.278Z</time></trkpt><trkpt lat="43.9778031" lon="11.2884552"><ele>230.66666666666666</ele><time>2026-04-25T15:01:34.297Z</time></trkpt><trkpt lat="43.9779808" lon="11.2884744"><ele>232.0</ele><time>2026-04-25T15:01:35.289Z</time></trkpt><trkpt lat="43.9781539" lon="11.2884939"><ele>232.0</ele><time>2026-04-25T15:01:36.295Z</time></trkpt><trkpt lat="43.9783308" lon="11.288502"><ele>232.0</ele><time>2026-04-25T15:01:37.288Z</time></trkpt><trkpt lat="43.9785079" lon="11.2885139"><ele>232.0</ele><time>2026-04-25T15:01:38.29Z</time></trkpt><trkpt lat="43.978688" lon="11.2885109"><ele>233.66666666666666</ele><time>2026-04-25T15:01:39.288Z</time></trkpt><trkpt lat="43.9788672" lon="11.2885059"><ele>235.33333333333331</ele><time>2026-04-25T15:01:40.287Z</time></trkpt><trkpt lat="43.9790516" lon="11.2884962"><ele>237.0</ele><time>2026-04-25T15:01:41.282Z</time></trkpt><trkpt lat="43.9792382" lon="11.2884814"><ele>237.66666666666669</ele><time>2026-04-25T15:01:42.294Z</time></trkpt><trkpt lat="43.9794222" lon="11.2884542"><ele>238.33333333333334</ele><time>2026-04-25T15:01:43.301Z</time></trkpt><trkpt lat="43.9796039" lon="11.288418"><ele>239.0</ele><time>2026-04-25T15:01:44.321Z</time></trkpt><trkpt lat="43.9797862" lon="11.2883702"><ele>239.0</ele><time>2026-04-25T15:01:45.285Z</time></trkpt><trkpt lat="43.9799683" lon="11.2883158"><ele>239.0</ele><time>2026-04-25T15:01:46.285Z</time></trkpt><trkpt lat="43.9801492" lon="11.2882527"><ele>239.0</ele><time>2026-04-25T15:01:47.304Z</time></trkpt><trkpt lat="43.9803279" lon="11.2881669"><ele>240.66666666666669</ele><time>2026-04-25T15:01:48.3Z</time></trkpt><trkpt lat="43.9804973" lon="11.2880685"><ele>242.33333333333331</ele><time>2026-04-25T15:01:49.308Z</time></trkpt><trkpt lat="43.9806625" lon="11.287955"><ele>244.0</ele><time>2026-04-25T15:01:50.297Z</time></trkpt><trkpt lat="43.9808305" lon="11.2878327"><ele>245.66666666666666</ele><time>2026-04-25T15:01:51.289Z</time></trkpt><trkpt lat="43.9809849" lon="11.2876921"><ele>247.33333333333331</ele><time>2026-04-25T15:01:52.308Z</time></trkpt><trkpt lat="43.9811344" lon="11.2875372"><ele>249.0</ele><time>2026-04-25T15:01:53.295Z</time></trkpt><trkpt lat="43.9812803" lon="11.287369"><ele>248.66666666666669</ele><time>2026-04-25T15:01:54.308Z</time></trkpt><trkpt lat="43.9814269" lon="11.2871922"><ele>248.33333333333334</ele><time>2026-04-25T15:01:55.295Z</time></trkpt><trkpt lat="43.9815659" lon="11.2870079"><ele>248.0</ele><time>2026-04-25T15:01:56.302Z</time></trkpt><trkpt lat="43.9816989" lon="11.2868111"><ele>248.0</ele><time>2026-04-25T15:01:57.295Z</time></trkpt><trkpt lat="43.981818" lon="11.2866044"><ele>248.0</ele><time>2026-04-25T15:01:58.293Z</time></trkpt><trkpt lat="43.9819362" lon="11.2863921"><ele>248.0</ele><time>2026-04-25T15:01:59.3Z</time></trkpt><trkpt lat="43.9820498" lon="11.286162"><ele>249.0</ele><time>2026-04-25T15:02:00.311Z</time></trkpt><trkpt lat="43.9821523" lon="11.2859211"><ele>250.0</ele><time>2026-04-25T15:02:01.3Z</time></trkpt><trkpt lat="43.9822399" lon="11.2856691"><ele>251.0</ele><time>2026-04-25T15:02:02.304Z</time></trkpt><trkpt lat="43.9823247" lon="11.2854193"><ele>252.33333333333334</ele><time>2026-04-25T15:02:03.305Z</time></trkpt><trkpt lat="43.9824032" lon="11.2851582"><ele>253.66666666666669</ele><time>2026-04-25T15:02:04.295Z</time></trkpt><trkpt lat="43.9824691" lon="11.2848867"><ele>255.0</ele><time>2026-04-25T15:02:05.287Z</time></trkpt><trkpt lat="43.9825262" lon="11.2846175"><ele>260.0</ele><time>2026-04-25T15:02:06.284Z</time></trkpt><trkpt lat="43.9825725" lon="11.2843306"><ele>265.0</ele><time>2026-04-25T15:02:07.291Z</time></trkpt><trkpt lat="43.982618" lon="11.28404"><ele>270.0</ele><time>2026-04-25T15:02:08.283Z</time></trkpt><trkpt lat="43.9826543" lon="11.2837552"><ele>270.6666666666667</ele><time>2026-04-25T15:02:09.282Z</time></trkpt><trkpt lat="43.9826794" lon="11.2834752"><ele>271.33333333333337</ele><time>2026-04-25T15:02:10.304Z</time></trkpt><trkpt lat="43.9826965" lon="11.283194"><ele>272.0</ele><time>2026-04-25T15:02:11.298Z</time></trkpt><trkpt lat="43.9827104" lon="11.2829038"><ele>272.33333333333337</ele><time>2026-04-25T15:02:12.282Z</time></trkpt><trkpt lat="43.9827193" lon="11.2826088"><ele>272.6666666666667</ele><time>2026-04-25T15:02:13.29Z</time></trkpt><trkpt lat="43.9827209" lon="11.2823183"><ele>273.0</ele><time>2026-04-25T15:02:14.283Z</time></trkpt><trkpt lat="43.9827206" lon="11.2820422"><ele>274.0</ele><time>2026-04-25T15:02:15.296Z</time></trkpt><trkpt lat="43.9827223" lon="11.2817814"><ele>275.0</ele><time>2026-04-25T15:02:16.296Z</time></trkpt><trkpt lat="43.9827263" lon="11.2815292"><ele>276.0</ele><time>2026-04-25T15:02:17.295Z</time></trkpt><trkpt lat="43.9827263" lon="11.2812794"><ele>276.0</ele><time>2026-04-25T15:02:18.298Z</time></trkpt><trkpt lat="43.9827215" lon="11.2810332"><ele>276.0</ele><time>2026-04-25T15:02:19.293Z</time></trkpt><trkpt lat="43.9827262" lon="11.2807963"><ele>276.0</ele><time>2026-04-25T15:02:20.286Z</time></trkpt><trkpt lat="43.9827424" lon="11.2805612"><ele>268.3333333333333</ele><time>2026-04-25T15:02:21.292Z</time></trkpt><trkpt lat="43.9827734" lon="11.2803266"><ele>260.66666666666663</ele><time>2026-04-25T15:02:22.291Z</time></trkpt><trkpt lat="43.982812" lon="11.2800938"><ele>253.0</ele><time>2026-04-25T15:02:23.301Z</time></trkpt><trkpt lat="43.9828585" lon="11.2798599"><ele>250.0</ele><time>2026-04-25T15:02:24.286Z</time></trkpt><trkpt lat="43.982912" lon="11.2796396"><ele>247.0</ele><time>2026-04-25T15:02:25.301Z</time></trkpt><trkpt lat="43.9829594" lon="11.2794162"><ele>244.0</ele><time>2026-04-25T15:02:26.3Z</time></trkpt><trkpt lat="43.9830136" lon="11.2791884"><ele>244.0</ele><time>2026-04-25T15:02:27.295Z</time></trkpt><trkpt lat="43.9830659" lon="11.278953"><ele>244.0</ele><time>2026-04-25T15:02:28.287Z</time></trkpt><trkpt lat="43.9831146" lon="11.2787218"><ele>244.0</ele><time>2026-04-25T15:02:29.285Z</time></trkpt><trkpt lat="43.9831649" lon="11.2784851"><ele>243.0</ele><time>2026-04-25T15:02:30.295Z</time></trkpt><trkpt lat="43.9832192" lon="11.2782364"><ele>242.0</ele><time>2026-04-25T15:02:31.289Z</time></trkpt><trkpt lat="43.9832752" lon="11.2779899"><ele>241.0</ele><time>2026-04-25T15:02:32.304Z</time></trkpt><trkpt lat="43.9833256" lon="11.2777454"><ele>241.0</ele><time>2026-04-25T15:02:33.296Z</time></trkpt><trkpt lat="43.9833714" lon="11.2775103"><ele>241.0</ele><time>2026-04-25T15:02:34.293Z</time></trkpt><trkpt lat="43.9834188" lon="11.277274"><ele>241.0</ele><time>2026-04-25T15:02:35.296Z</time></trkpt><trkpt lat="43.9834673" lon="11.2770392"><ele>244.0</ele><time>2026-04-25T15:02:36.295Z</time></trkpt><trkpt lat="43.9835199" lon="11.2768057"><ele>247.0</ele><time>2026-04-25T15:02:37.29Z</time></trkpt><trkpt lat="43.98357" lon="11.276571"><ele>250.0</ele><time>2026-04-25T15:02:38.295Z</time></trkpt><trkpt lat="43.9836241" lon="11.2763292"><ele>257.3333333333333</ele><time>2026-04-25T15:02:39.298Z</time></trkpt><trkpt lat="43.9836729" lon="11.2760929"><ele>264.6666666666667</ele><time>2026-04-25T15:02:40.289Z</time></trkpt><trkpt lat="43.9837163" lon="11.2758627"><ele>272.0</ele><time>2026-04-25T15:02:41.288Z</time></trkpt><trkpt lat="43.9837691" lon="11.2756462"><ele>272.6666666666667</ele><time>2026-04-25T15:02:42.291Z</time></trkpt><trkpt lat="43.9838208" lon="11.275435"><ele>273.3333333333333</ele><time>2026-04-25T15:02:43.289Z</time></trkpt><trkpt lat="43.9838813" lon="11.2752294"><ele>274.0</ele><time>2026-04-25T15:02:44.281Z</time></trkpt><trkpt lat="43.9839544" lon="11.2750329"><ele>274.0</ele><time>2026-04-25T15:02:45.283Z</time></trkpt><trkpt lat="43.9840492" lon="11.2748467"><ele>274.0</ele><time>2026-04-25T15:02:46.278Z</time></trkpt><trkpt lat="43.9841482" lon="11.2746721"><ele>274.0</ele><time>2026-04-25T15:02:47.286Z</time></trkpt><trkpt lat="43.9842546" lon="11.2745052"><ele>276.25</ele><time>2026-04-25T15:02:48.284Z</time></trkpt><trkpt lat="43.9843648" lon="11.274353"><ele>278.5</ele><time>2026-04-25T15:02:49.289Z</time></trkpt><trkpt lat="43.9844692" lon="11.2742245"><ele>280.75</ele><time>2026-04-25T15:02:50.291Z</time></trkpt><trkpt lat="43.9845707" lon="11.2741234"><ele>283.0</ele><time>2026-04-25T15:02:51.291Z</time></trkpt><trkpt lat="43.9846783" lon="11.2740354"><ele>283.0</ele><time>2026-04-25T15:02:52.291Z</time></trkpt><trkpt lat="43.9847767" lon="11.2739621"><ele>283.0</ele><time>2026-04-25T15:02:53.284Z</time></trkpt><trkpt lat="43.9848741" lon="11.2738976"><ele>283.0</ele><time>2026-04-25T15:02:54.292Z</time></trkpt><trkpt lat="43.9849667" lon="11.273836"><ele>283.0</ele><time>2026-04-25T15:02:55.29Z</time></trkpt><trkpt lat="43.9850581" lon="11.2737862"><ele>283.0</ele><time>2026-04-25T15:02:56.289Z</time></trkpt><trkpt lat="43.9851445" lon="11.273744"><ele>283.0</ele><time>2026-04-25T15:02:57.291Z</time></trkpt><trkpt lat="43.9852248" lon="11.2737114"><ele>283.0</ele><time>2026-04-25T15:02:58.281Z</time></trkpt><trkpt lat="43.9853051" lon="11.2736869"><ele>283.0</ele><time>2026-04-25T15:02:59.29Z</time></trkpt><trkpt lat="43.9854023" lon="11.2736643"><ele>283.0</ele><time>2026-04-25T15:03:00.282Z</time></trkpt><trkpt lat="43.9854968" lon="11.2736282"><ele>283.0</ele><time>2026-04-25T15:03:01.289Z</time></trkpt><trkpt lat="43.9855954" lon="11.2735924"><ele>283.0</ele><time>2026-04-25T15:03:02.301Z</time></trkpt><trkpt lat="43.9856996" lon="11.2735531"><ele>283.0</ele><time>2026-04-25T15:03:03.283Z</time></trkpt><trkpt lat="43.9857957" lon="11.2735107"><ele>283.0</ele><time>2026-04-25T15:03:04.287Z</time></trkpt><trkpt lat="43.9858621" lon="11.2734052"><ele>283.0</ele><time>2026-04-25T15:03:05.281Z</time></trkpt><trkpt lat="43.9858812" lon="11.2732785"><ele>283.0</ele><time>2026-04-25T15:03:06.283Z</time></trkpt><trkpt lat="43.9858969" lon="11.2731418"><ele>282.4</ele><time>2026-04-25T15:03:07.29Z</time></trkpt><trkpt lat="43.9859304" lon="11.2730286"><ele>281.8</ele><time>2026-04-25T15:03:08.283Z</time></trkpt><trkpt lat="43.9860084" lon="11.2729189"><ele>281.2</ele><time>2026-04-25T15:03:09.292Z</time></trkpt><trkpt lat="43.9861141" lon="11.2728412"><ele>280.6</ele><time>2026-04-25T15:03:10.296Z</time></trkpt><trkpt lat="43.9862303" lon="11.2727716"><ele>280.0</ele><time>2026-04-25T15:03:11.292Z</time></trkpt><trkpt lat="43.9863451" lon="11.2727012"><ele>280.0</ele><time>2026-04-25T15:03:12.278Z</time></trkpt><trkpt lat="43.9864483" lon="11.2726323"><ele>280.0</ele><time>2026-04-25T15:03:13.289Z</time></trkpt><trkpt lat="43.9865564" lon="11.2725711"><ele>280.0</ele><time>2026-04-25T15:03:14.29Z</time></trkpt><trkpt lat="43.9866744" lon="11.2725027"><ele>280.0</ele><time>2026-04-25T15:03:15.299Z</time></trkpt><trkpt lat="43.9867859" lon="11.2724159"><ele>280.0</ele><time>2026-04-25T15:03:16.285Z</time></trkpt><trkpt lat="43.986895" lon="11.2723261"><ele>280.0</ele><time>2026-04-25T15:03:17.3Z</time></trkpt><trkpt lat="43.987005" lon="11.2722206"><ele>280.0</ele><time>2026-04-25T15:03:18.284Z</time></trkpt><trkpt lat="43.9871173" lon="11.2721091"><ele>280.0</ele><time>2026-04-25T15:03:19.289Z</time></trkpt><trkpt lat="43.9872284" lon="11.271983"><ele>279.0</ele><time>2026-04-25T15:03:20.297Z</time></trkpt><trkpt lat="43.9873374" lon="11.2718364"><ele>278.0</ele><time>2026-04-25T15:03:21.29Z</time></trkpt><trkpt lat="43.9874449" lon="11.2716833"><ele>277.0</ele><time>2026-04-25T15:03:22.293Z</time></trkpt><trkpt lat="43.9875552" lon="11.2715277"><ele>275.0</ele><time>2026-04-25T15:03:23.288Z</time></trkpt><trkpt lat="43.9876632" lon="11.2713592"><ele>273.0</ele><time>2026-04-25T15:03:24.298Z</time></trkpt><trkpt lat="43.9877706" lon="11.2711843"><ele>271.0</ele><time>2026-04-25T15:03:25.295Z</time></trkpt><trkpt lat="43.9878689" lon="11.2709981"><ele>271.0</ele><time>2026-04-25T15:03:26.297Z</time></trkpt><trkpt lat="43.9879603" lon="11.2708033"><ele>271.0</ele><time>2026-04-25T15:03:27.294Z</time></trkpt><trkpt lat="43.9880524" lon="11.2706071"><ele>271.0</ele><time>2026-04-25T15:03:28.291Z</time></trkpt><trkpt lat="43.9881425" lon="11.2704025"><ele>272.0</ele><time>2026-04-25T15:03:29.293Z</time></trkpt><trkpt lat="43.9882253" lon="11.2701943"><ele>273.0</ele><time>2026-04-25T15:03:30.286Z</time></trkpt><trkpt lat="43.9883019" lon="11.2699792"><ele>274.0</ele><time>2026-04-25T15:03:31.299Z</time></trkpt><trkpt lat="43.9883752" lon="11.2697572"><ele>274.0</ele><time>2026-04-25T15:03:32.304Z</time></trkpt><trkpt lat="43.9884389" lon="11.2695287"><ele>274.0</ele><time>2026-04-25T15:03:33.3Z</time></trkpt><trkpt lat="43.9884986" lon="11.2692904"><ele>274.0</ele><time>2026-04-25T15:03:34.3Z</time></trkpt><trkpt lat="43.9885532" lon="11.2690519"><ele>276.3333333333333</ele><time>2026-04-25T15:03:35.305Z</time></trkpt><trkpt lat="43.9885964" lon="11.2688089"><ele>278.6666666666667</ele><time>2026-04-25T15:03:36.297Z</time></trkpt><trkpt lat="43.9886333" lon="11.268561"><ele>281.0</ele><time>2026-04-25T15:03:37.293Z</time></trkpt><trkpt lat="43.9886644" lon="11.2683178"><ele>282.0</ele><time>2026-04-25T15:03:38.3Z</time></trkpt><trkpt lat="43.9886871" lon="11.2680758"><ele>283.0</ele><time>2026-04-25T15:03:39.302Z</time></trkpt><trkpt lat="43.98871" lon="11.267829"><ele>284.0</ele><time>2026-04-25T15:03:40.318Z</time></trkpt><trkpt lat="43.9887217" lon="11.2675858"><ele>284.0</ele><time>2026-04-25T15:03:41.291Z</time></trkpt><trkpt lat="43.9887274" lon="11.2673334"><ele>284.0</ele><time>2026-04-25T15:03:42.294Z</time></trkpt><trkpt lat="43.9887346" lon="11.2670801"><ele>284.0</ele><time>2026-04-25T15:03:43.291Z</time></trkpt><trkpt lat="43.9887396" lon="11.2668263"><ele>283.6666666666667</ele><time>2026-04-25T15:03:44.303Z</time></trkpt><trkpt lat="43.9887444" lon="11.2665622"><ele>283.3333333333333</ele><time>2026-04-25T15:03:45.291Z</time></trkpt><trkpt lat="43.9887469" lon="11.266302"><ele>283.0</ele><time>2026-04-25T15:03:46.292Z</time></trkpt><trkpt lat="43.9887483" lon="11.2660304"><ele>282.3333333333333</ele><time>2026-04-25T15:03:47.297Z</time></trkpt><trkpt lat="43.9887498" lon="11.2657687"><ele>281.6666666666667</ele><time>2026-04-25T15:03:48.294Z</time></trkpt><trkpt lat="43.9887464" lon="11.265507"><ele>281.0</ele><time>2026-04-25T15:03:49.302Z</time></trkpt><trkpt lat="43.9887383" lon="11.265246"><ele>278.6666666666667</ele><time>2026-04-25T15:03:50.308Z</time></trkpt><trkpt lat="43.9887323" lon="11.2649891"><ele>276.3333333333333</ele><time>2026-04-25T15:03:51.294Z</time></trkpt><trkpt lat="43.9887215" lon="11.2647348"><ele>274.0</ele><time>2026-04-25T15:03:52.327Z</time></trkpt><trkpt lat="43.9887078" lon="11.2644801"><ele>270.66666666666663</ele><time>2026-04-25T15:03:53.306Z</time></trkpt><trkpt lat="43.9886903" lon="11.2642152"><ele>267.3333333333333</ele><time>2026-04-25T15:03:54.315Z</time></trkpt><trkpt lat="43.9886676" lon="11.2639495"><ele>264.0</ele><time>2026-04-25T15:03:55.318Z</time></trkpt><trkpt lat="43.9886414" lon="11.2636851"><ele>258.3333333333333</ele><time>2026-04-25T15:03:56.318Z</time></trkpt><trkpt lat="43.988614" lon="11.2634291"><ele>252.66666666666666</ele><time>2026-04-25T15:03:57.317Z</time></trkpt><trkpt lat="43.9885807" lon="11.26318"><ele>247.0</ele><time>2026-04-25T15:03:58.327Z</time></trkpt><trkpt lat="43.9885419" lon="11.2629363"><ele>246.33333333333331</ele><time>2026-04-25T15:03:59.317Z</time></trkpt><trkpt lat="43.9885006" lon="11.2626993"><ele>245.66666666666669</ele><time>2026-04-25T15:04:00.327Z</time></trkpt><trkpt lat="43.9884547" lon="11.2624703"><ele>245.0</ele><time>2026-04-25T15:04:01.324Z</time></trkpt><trkpt lat="43.9884043" lon="11.2622408"><ele>246.33333333333334</ele><time>2026-04-25T15:04:02.315Z</time></trkpt><trkpt lat="43.988353" lon="11.2620086"><ele>247.66666666666669</ele><time>2026-04-25T15:04:03.322Z</time></trkpt><trkpt lat="43.9883007" lon="11.2617757"><ele>249.0</ele><time>2026-04-25T15:04:04.309Z</time></trkpt><trkpt lat="43.9882451" lon="11.2615438"><ele>254.0</ele><time>2026-04-25T15:04:05.32Z</time></trkpt><trkpt lat="43.9881872" lon="11.2613047"><ele>259.0</ele><time>2026-04-25T15:04:06.323Z</time></trkpt><trkpt lat="43.9881271" lon="11.2610603"><ele>264.0</ele><time>2026-04-25T15:04:07.311Z</time></trkpt><trkpt lat="43.9880681" lon="11.2608141"><ele>265.0</ele><time>2026-04-25T15:04:08.31Z</time></trkpt><trkpt lat="43.9880143" lon="11.2605824"><ele>266.0</ele><time>2026-04-25T15:04:09.33Z</time></trkpt><trkpt lat="43.987961" lon="11.2603544"><ele>267.0</ele><time>2026-04-25T15:04:10.298Z</time></trkpt><trkpt lat="43.9879137" lon="11.2601372"><ele>267.0</ele><time>2026-04-25T15:04:11.296Z</time></trkpt><trkpt lat="43.9878621" lon="11.2599236"><ele>267.0</ele><time>2026-04-25T15:04:12.316Z</time></trkpt><trkpt lat="43.9878129" lon="11.2597181"><ele>267.0</ele><time>2026-04-25T15:04:13.323Z</time></trkpt><trkpt lat="43.9877618" lon="11.2595036"><ele>270.3333333333333</ele><time>2026-04-25T15:04:14.307Z</time></trkpt><trkpt lat="43.9877064" lon="11.2592839"><ele>273.66666666666663</ele><time>2026-04-25T15:04:15.321Z</time></trkpt><trkpt lat="43.9876516" lon="11.2590621"><ele>277.0</ele><time>2026-04-25T15:04:16.327Z</time></trkpt><trkpt lat="43.9876057" lon="11.2588384"><ele>280.3333333333333</ele><time>2026-04-25T15:04:17.316Z</time></trkpt><trkpt lat="43.9875707" lon="11.2586207"><ele>283.6666666666667</ele><time>2026-04-25T15:04:18.306Z</time></trkpt><trkpt lat="43.987543" lon="11.2584065"><ele>287.0</ele><time>2026-04-25T15:04:19.316Z</time></trkpt><trkpt lat="43.98752" lon="11.2582014"><ele>288.0</ele><time>2026-04-25T15:04:20.326Z</time></trkpt><trkpt lat="43.9875086" lon="11.2579944"><ele>289.0</ele><time>2026-04-25T15:04:21.329Z</time></trkpt><trkpt lat="43.9875094" lon="11.2577777"><ele>290.0</ele><time>2026-04-25T15:04:22.284Z</time></trkpt><trkpt lat="43.9875163" lon="11.2575559"><ele>291.33333333333337</ele><time>2026-04-25T15:04:23.315Z</time></trkpt><trkpt lat="43.9875345" lon="11.2573294"><ele>292.6666666666667</ele><time>2026-04-25T15:04:24.322Z</time></trkpt><trkpt lat="43.9875624" lon="11.2571105"><ele>294.0</ele><time>2026-04-25T15:04:25.305Z</time></trkpt><trkpt lat="43.987596" lon="11.256892"><ele>294.3333333333333</ele><time>2026-04-25T15:04:26.31Z</time></trkpt><trkpt lat="43.9876424" lon="11.2566763"><ele>294.66666666666663</ele><time>2026-04-25T15:04:27.317Z</time></trkpt><trkpt lat="43.9876963" lon="11.2564622"><ele>295.0</ele><time>2026-04-25T15:04:28.31Z</time></trkpt><trkpt lat="43.9877535" lon="11.2562475"><ele>293.66666666666663</ele><time>2026-04-25T15:04:29.315Z</time></trkpt><trkpt lat="43.9878205" lon="11.2560382"><ele>292.3333333333333</ele><time>2026-04-25T15:04:30.312Z</time></trkpt><trkpt lat="43.9878982" lon="11.2558255"><ele>291.0</ele><time>2026-04-25T15:04:31.321Z</time></trkpt><trkpt lat="43.9879868" lon="11.2556128"><ele>289.0</ele><time>2026-04-25T15:04:32.32Z</time></trkpt><trkpt lat="43.9880879" lon="11.2554067"><ele>287.0</ele><time>2026-04-25T15:04:33.321Z</time></trkpt><trkpt lat="43.9881964" lon="11.2552081"><ele>285.0</ele><time>2026-04-25T15:04:34.308Z</time></trkpt><trkpt lat="43.9883102" lon="11.2550247"><ele>285.6666666666667</ele><time>2026-04-25T15:04:35.323Z</time></trkpt><trkpt lat="43.9884271" lon="11.2548599"><ele>286.33333333333337</ele><time>2026-04-25T15:04:36.318Z</time></trkpt><trkpt lat="43.9885519" lon="11.254706"><ele>287.0</ele><time>2026-04-25T15:04:37.308Z</time></trkpt><trkpt lat="43.9886836" lon="11.2545481"><ele>287.0</ele><time>2026-04-25T15:04:38.314Z</time></trkpt><trkpt lat="43.9888259" lon="11.2543926"><ele>287.0</ele><time>2026-04-25T15:04:39.334Z</time></trkpt><trkpt lat="43.9889713" lon="11.2542287"><ele>287.0</ele><time>2026-04-25T15:04:40.316Z</time></trkpt><trkpt lat="43.9891224" lon="11.2540621"><ele>287.33333333333337</ele><time>2026-04-25T15:04:41.317Z</time></trkpt><trkpt lat="43.9892721" lon="11.2538832"><ele>287.6666666666667</ele><time>2026-04-25T15:04:42.319Z</time></trkpt><trkpt lat="43.9894299" lon="11.2536853"><ele>288.0</ele><time>2026-04-25T15:04:43.32Z</time></trkpt><trkpt lat="43.9895981" lon="11.2534804"><ele>288.0</ele><time>2026-04-25T15:04:44.324Z</time></trkpt><trkpt lat="43.9897754" lon="11.2532614"><ele>288.0</ele><time>2026-04-25T15:04:45.317Z</time></trkpt><trkpt lat="43.9899548" lon="11.2530573"><ele>288.3333333333333</ele><time>2026-04-25T15:04:46.317Z</time></trkpt><trkpt lat="43.9901298" lon="11.2528628"><ele>288.66666666666663</ele><time>2026-04-25T15:04:47.303Z</time></trkpt><trkpt lat="43.9902993" lon="11.2526665"><ele>289.0</ele><time>2026-04-25T15:04:48.319Z</time></trkpt><trkpt lat="43.9904629" lon="11.2524695"><ele>288.3333333333333</ele><time>2026-04-25T15:04:49.318Z</time></trkpt><trkpt lat="43.9906289" lon="11.2522673"><ele>287.6666666666667</ele><time>2026-04-25T15:04:50.322Z</time></trkpt><trkpt lat="43.9907938" lon="11.2520718"><ele>287.0</ele><time>2026-04-25T15:04:51.335Z</time></trkpt><trkpt lat="43.9909546" lon="11.2518811"><ele>287.0</ele><time>2026-04-25T15:04:52.31Z</time></trkpt><trkpt lat="43.9911148" lon="11.2516948"><ele>287.0</ele><time>2026-04-25T15:04:53.309Z</time></trkpt><trkpt lat="43.9912731" lon="11.2515103"><ele>287.0</ele><time>2026-04-25T15:04:54.295Z</time></trkpt><trkpt lat="43.9914266" lon="11.2513299"><ele>285.33333333333337</ele><time>2026-04-25T15:04:55.313Z</time></trkpt><trkpt lat="43.991584" lon="11.2511458"><ele>283.6666666666667</ele><time>2026-04-25T15:04:56.312Z</time></trkpt><trkpt lat="43.9917391" lon="11.2509574"><ele>282.0</ele><time>2026-04-25T15:04:57.287Z</time></trkpt><trkpt lat="43.9918827" lon="11.2507658"><ele>279.3333333333333</ele><time>2026-04-25T15:04:58.312Z</time></trkpt><trkpt lat="43.9920134" lon="11.2505659"><ele>276.66666666666663</ele><time>2026-04-25T15:04:59.316Z</time></trkpt><trkpt lat="43.992133" lon="11.2503592"><ele>274.0</ele><time>2026-04-25T15:05:00.304Z</time></trkpt><trkpt lat="43.9922469" lon="11.2501459"><ele>274.0</ele><time>2026-04-25T15:05:01.311Z</time></trkpt><trkpt lat="43.9923484" lon="11.2499169"><ele>274.0</ele><time>2026-04-25T15:05:02.324Z</time></trkpt><trkpt lat="43.9924374" lon="11.2496884"><ele>274.0</ele><time>2026-04-25T15:05:03.328Z</time></trkpt><trkpt lat="43.9925172" lon="11.2494538"><ele>274.66666666666663</ele><time>2026-04-25T15:05:04.312Z</time></trkpt><trkpt lat="43.9925814" lon="11.2492097"><ele>275.3333333333333</ele><time>2026-04-25T15:05:05.312Z</time></trkpt><trkpt lat="43.9926333" lon="11.2489572"><ele>276.0</ele><time>2026-04-25T15:05:06.317Z</time></trkpt><trkpt lat="43.9926754" lon="11.2486969"><ele>274.3333333333333</ele><time>2026-04-25T15:05:07.296Z</time></trkpt><trkpt lat="43.992704" lon="11.248429"><ele>272.66666666666663</ele><time>2026-04-25T15:05:08.318Z</time></trkpt><trkpt lat="43.9927112" lon="11.2481477"><ele>271.0</ele><time>2026-04-25T15:05:09.307Z</time></trkpt><trkpt lat="43.9927071" lon="11.247856"><ele>269.66666666666663</ele><time>2026-04-25T15:05:10.306Z</time></trkpt><trkpt lat="43.9926912" lon="11.2475648"><ele>268.3333333333333</ele><time>2026-04-25T15:05:11.327Z</time></trkpt><trkpt lat="43.9926594" lon="11.2472641"><ele>267.0</ele><time>2026-04-25T15:05:12.346Z</time></trkpt><trkpt lat="43.9926105" lon="11.2469813"><ele>265.0</ele><time>2026-04-25T15:05:13.348Z</time></trkpt><trkpt lat="43.9925436" lon="11.2466932"><ele>263.0</ele><time>2026-04-25T15:05:14.314Z</time></trkpt><trkpt lat="43.9924541" lon="11.2464229"><ele>261.0</ele><time>2026-04-25T15:05:15.297Z</time></trkpt><trkpt lat="43.9923555" lon="11.2461555"><ele>259.6666666666667</ele><time>2026-04-25T15:05:16.321Z</time></trkpt><trkpt lat="43.9922495" lon="11.2458962"><ele>258.33333333333337</ele><time>2026-04-25T15:05:17.315Z</time></trkpt><trkpt lat="43.9921466" lon="11.2456423"><ele>257.0</ele><time>2026-04-25T15:05:18.31Z</time></trkpt><trkpt lat="43.9920382" lon="11.2453952"><ele>256.0</ele><time>2026-04-25T15:05:19.329Z</time></trkpt><trkpt lat="43.9919318" lon="11.2451433"><ele>255.0</ele><time>2026-04-25T15:05:20.296Z</time></trkpt><trkpt lat="43.9918256" lon="11.2449038"><ele>254.0</ele><time>2026-04-25T15:05:21.321Z</time></trkpt><trkpt lat="43.9917235" lon="11.244671"><ele>253.0</ele><time>2026-04-25T15:05:22.324Z</time></trkpt><trkpt lat="43.9916211" lon="11.2444367"><ele>252.0</ele><time>2026-04-25T15:05:23.324Z</time></trkpt><trkpt lat="43.9915237" lon="11.2442055"><ele>251.0</ele><time>2026-04-25T15:05:24.311Z</time></trkpt><trkpt lat="43.9914214" lon="11.2439788"><ele>250.33333333333334</ele><time>2026-04-25T15:05:25.313Z</time></trkpt><trkpt lat="43.9913276" lon="11.2437644"><ele>249.66666666666669</ele><time>2026-04-25T15:05:26.328Z</time></trkpt><trkpt lat="43.9912439" lon="11.2435596"><ele>249.0</ele><time>2026-04-25T15:05:27.31Z</time></trkpt><trkpt lat="43.9911586" lon="11.2433601"><ele>249.0</ele><time>2026-04-25T15:05:28.315Z</time></trkpt><trkpt lat="43.9910711" lon="11.2431612"><ele>249.0</ele><time>2026-04-25T15:05:29.313Z</time></trkpt><trkpt lat="43.990981" lon="11.2429529"><ele>249.0</ele><time>2026-04-25T15:05:30.324Z</time></trkpt><trkpt lat="43.9908877" lon="11.2427381"><ele>251.33333333333331</ele><time>2026-04-25T15:05:31.337Z</time></trkpt><trkpt lat="43.9907979" lon="11.242529"><ele>253.66666666666666</ele><time>2026-04-25T15:05:32.324Z</time></trkpt><trkpt lat="43.9907104" lon="11.2423287"><ele>256.0</ele><time>2026-04-25T15:05:33.341Z</time></trkpt><trkpt lat="43.9906281" lon="11.2421217"><ele>256.3333333333333</ele><time>2026-04-25T15:05:34.331Z</time></trkpt><trkpt lat="43.9905406" lon="11.2419187"><ele>256.6666666666667</ele><time>2026-04-25T15:05:35.32Z</time></trkpt><trkpt lat="43.9904559" lon="11.2417191"><ele>257.0</ele><time>2026-04-25T15:05:36.333Z</time></trkpt><trkpt lat="43.9903716" lon="11.241524"><ele>257.33333333333337</ele><time>2026-04-25T15:05:37.313Z</time></trkpt><trkpt lat="43.9902845" lon="11.2413247"><ele>257.6666666666667</ele><time>2026-04-25T15:05:38.314Z</time></trkpt><trkpt lat="43.9901976" lon="11.2411195"><ele>258.0</ele><time>2026-04-25T15:05:39.328Z</time></trkpt><trkpt lat="43.9901113" lon="11.2409053"><ele>258.0</ele><time>2026-04-25T15:05:40.317Z</time></trkpt><trkpt lat="43.990025" lon="11.2406885"><ele>258.0</ele><time>2026-04-25T15:05:41.315Z</time></trkpt><trkpt lat="43.9899396" lon="11.2404798"><ele>258.0</ele><time>2026-04-25T15:05:42.3Z</time></trkpt><trkpt lat="43.9898544" lon="11.2402847"><ele>258.0</ele><time>2026-04-25T15:05:43.309Z</time></trkpt><trkpt lat="43.9897663" lon="11.2400909"><ele>258.0</ele><time>2026-04-25T15:05:44.297Z</time></trkpt><trkpt lat="43.9896815" lon="11.2399066"><ele>258.0</ele><time>2026-04-25T15:05:45.312Z</time></trkpt><trkpt lat="43.9896058" lon="11.2397333"><ele>258.3333333333333</ele><time>2026-04-25T15:05:46.31Z</time></trkpt><trkpt lat="43.9895238" lon="11.2395506"><ele>258.66666666666663</ele><time>2026-04-25T15:05:47.311Z</time></trkpt><trkpt lat="43.9894434" lon="11.2393557"><ele>259.0</ele><time>2026-04-25T15:05:48.32Z</time></trkpt><trkpt lat="43.9893639" lon="11.2391529"><ele>259.0</ele><time>2026-04-25T15:05:49.315Z</time></trkpt><trkpt lat="43.9892793" lon="11.2389493"><ele>259.0</ele><time>2026-04-25T15:05:50.314Z</time></trkpt><trkpt lat="43.9892045" lon="11.2387507"><ele>259.0</ele><time>2026-04-25T15:05:51.329Z</time></trkpt><trkpt lat="43.9891369" lon="11.238546"><ele>258.66666666666663</ele><time>2026-04-25T15:05:52.313Z</time></trkpt><trkpt lat="43.989072" lon="11.2383342"><ele>258.3333333333333</ele><time>2026-04-25T15:05:53.342Z</time></trkpt><trkpt lat="43.9890236" lon="11.2381089"><ele>258.0</ele><time>2026-04-25T15:05:54.314Z</time></trkpt><trkpt lat="43.9889846" lon="11.2378847"><ele>258.0</ele><time>2026-04-25T15:05:55.331Z</time></trkpt><trkpt lat="43.9889567" lon="11.2376576"><ele>258.0</ele><time>2026-04-25T15:05:56.29Z</time></trkpt><trkpt lat="43.988938" lon="11.2374359"><ele>258.0</ele><time>2026-04-25T15:05:57.317Z</time></trkpt><trkpt lat="43.9889263" lon="11.2372173"><ele>258.25</ele><time>2026-04-25T15:05:58.29Z</time></trkpt><trkpt lat="43.9889332" lon="11.2370095"><ele>258.5</ele><time>2026-04-25T15:05:59.303Z</time></trkpt><trkpt lat="43.9889442" lon="11.2368017"><ele>258.75</ele><time>2026-04-25T15:06:00.326Z</time></trkpt><trkpt lat="43.9889607" lon="11.2365955"><ele>259.0</ele><time>2026-04-25T15:06:01.295Z</time></trkpt><trkpt lat="43.9889864" lon="11.2363902"><ele>259.66666666666663</ele><time>2026-04-25T15:06:02.313Z</time></trkpt><trkpt lat="43.9890176" lon="11.2361786"><ele>260.3333333333333</ele><time>2026-04-25T15:06:03.324Z</time></trkpt><trkpt lat="43.9890575" lon="11.2359635"><ele>261.0</ele><time>2026-04-25T15:06:04.325Z</time></trkpt><trkpt lat="43.9891143" lon="11.235755"><ele>261.0</ele><time>2026-04-25T15:06:05.321Z</time></trkpt><trkpt lat="43.9891733" lon="11.2355551"><ele>261.0</ele><time>2026-04-25T15:06:06.301Z</time></trkpt><trkpt lat="43.9892382" lon="11.2353682"><ele>261.0</ele><time>2026-04-25T15:06:07.324Z</time></trkpt><trkpt lat="43.989314" lon="11.2351784"><ele>261.0</ele><time>2026-04-25T15:06:08.324Z</time></trkpt><trkpt lat="43.9893868" lon="11.2349878"><ele>261.0</ele><time>2026-04-25T15:06:09.315Z</time></trkpt><trkpt lat="43.9894615" lon="11.234795"><ele>261.0</ele><time>2026-04-25T15:06:10.312Z</time></trkpt><trkpt lat="43.9895341" lon="11.2345997"><ele>260.6666666666667</ele><time>2026-04-25T15:06:11.317Z</time></trkpt><trkpt lat="43.9896106" lon="11.2344123"><ele>260.33333333333337</ele><time>2026-04-25T15:06:12.323Z</time></trkpt><trkpt lat="43.9896865" lon="11.2342231"><ele>260.0</ele><time>2026-04-25T15:06:13.298Z</time></trkpt><trkpt lat="43.989759" lon="11.2340378"><ele>259.75</ele><time>2026-04-25T15:06:14.337Z</time></trkpt><trkpt lat="43.989831" lon="11.2338546"><ele>259.5</ele><time>2026-04-25T15:06:15.325Z</time></trkpt><trkpt lat="43.9898978" lon="11.2336733"><ele>259.25</ele><time>2026-04-25T15:06:16.321Z</time></trkpt><trkpt lat="43.9899622" lon="11.2335044"><ele>259.0</ele><time>2026-04-25T15:06:17.325Z</time></trkpt><trkpt lat="43.9900263" lon="11.2333412"><ele>259.5</ele><time>2026-04-25T15:06:18.32Z</time></trkpt><trkpt lat="43.9900999" lon="11.2331665"><ele>260.0</ele><time>2026-04-25T15:06:19.333Z</time></trkpt><trkpt lat="43.990171" lon="11.2329919"><ele>260.5</ele><time>2026-04-25T15:06:20.322Z</time></trkpt><trkpt lat="43.9902444" lon="11.2328075"><ele>261.0</ele><time>2026-04-25T15:06:21.299Z</time></trkpt><trkpt lat="43.9903136" lon="11.2326096"><ele>261.0</ele><time>2026-04-25T15:06:22.324Z</time></trkpt><trkpt lat="43.9903794" lon="11.2324001"><ele>261.0</ele><time>2026-04-25T15:06:23.302Z</time></trkpt><trkpt lat="43.9904338" lon="11.2321853"><ele>261.0</ele><time>2026-04-25T15:06:24.32Z</time></trkpt><trkpt lat="43.9904784" lon="11.2319641"><ele>260.6666666666667</ele><time>2026-04-25T15:06:25.31Z</time></trkpt><trkpt lat="43.9905163" lon="11.2317373"><ele>260.33333333333337</ele><time>2026-04-25T15:06:26.32Z</time></trkpt><trkpt lat="43.9905476" lon="11.2315068"><ele>260.0</ele><time>2026-04-25T15:06:27.319Z</time></trkpt><trkpt lat="43.9905659" lon="11.2312658"><ele>260.33333333333337</ele><time>2026-04-25T15:06:28.304Z</time></trkpt><trkpt lat="43.9905767" lon="11.2310209"><ele>260.6666666666667</ele><time>2026-04-25T15:06:29.32Z</time></trkpt><trkpt lat="43.9905698" lon="11.230777"><ele>261.0</ele><time>2026-04-25T15:06:30.327Z</time></trkpt><trkpt lat="43.9905592" lon="11.230541"><ele>261.0</ele><time>2026-04-25T15:06:31.323Z</time></trkpt><trkpt lat="43.9905324" lon="11.230312"><ele>261.0</ele><time>2026-04-25T15:06:32.308Z</time></trkpt><trkpt lat="43.9905006" lon="11.2300821"><ele>261.0</ele><time>2026-04-25T15:06:33.291Z</time></trkpt><trkpt lat="43.9904517" lon="11.2298605"><ele>261.3333333333333</ele><time>2026-04-25T15:06:34.284Z</time></trkpt><trkpt lat="43.9903952" lon="11.2296214"><ele>261.66666666666663</ele><time>2026-04-25T15:06:35.32Z</time></trkpt><trkpt lat="43.9903269" lon="11.2293983"><ele>262.0</ele><time>2026-04-25T15:06:36.294Z</time></trkpt><trkpt lat="43.9902502" lon="11.2291874"><ele>263.66666666666663</ele><time>2026-04-25T15:06:37.279Z</time></trkpt><trkpt lat="43.9901618" lon="11.2289692"><ele>265.3333333333333</ele><time>2026-04-25T15:06:38.281Z</time></trkpt><trkpt lat="43.9900633" lon="11.2287731"><ele>267.0</ele><time>2026-04-25T15:06:39.308Z</time></trkpt><trkpt lat="43.989953" lon="11.2285842"><ele>267.6666666666667</ele><time>2026-04-25T15:06:40.306Z</time></trkpt><trkpt lat="43.9898368" lon="11.2284141"><ele>268.33333333333337</ele><time>2026-04-25T15:06:41.3Z</time></trkpt><trkpt lat="43.9897199" lon="11.2282573"><ele>269.0</ele><time>2026-04-25T15:06:42.323Z</time></trkpt><trkpt lat="43.989594" lon="11.2281109"><ele>270.0</ele><time>2026-04-25T15:06:43.32Z</time></trkpt><trkpt lat="43.9894671" lon="11.2279769"><ele>271.0</ele><time>2026-04-25T15:06:44.314Z</time></trkpt><trkpt lat="43.9893331" lon="11.2278502"><ele>272.0</ele><time>2026-04-25T15:06:45.321Z</time></trkpt><trkpt lat="43.9891939" lon="11.2277239"><ele>272.6666666666667</ele><time>2026-04-25T15:06:46.313Z</time></trkpt><trkpt lat="43.9890519" lon="11.227623"><ele>273.3333333333333</ele><time>2026-04-25T15:06:47.316Z</time></trkpt><trkpt lat="43.9889133" lon="11.2275319"><ele>274.0</ele><time>2026-04-25T15:06:48.316Z</time></trkpt><trkpt lat="43.9887776" lon="11.2274526"><ele>274.0</ele><time>2026-04-25T15:06:49.328Z</time></trkpt><trkpt lat="43.988633" lon="11.2273731"><ele>274.0</ele><time>2026-04-25T15:06:50.316Z</time></trkpt><trkpt lat="43.9884816" lon="11.2272799"><ele>274.0</ele><time>2026-04-25T15:06:51.309Z</time></trkpt><trkpt lat="43.9883336" lon="11.2271945"><ele>276.3333333333333</ele><time>2026-04-25T15:06:52.312Z</time></trkpt><trkpt lat="43.9881852" lon="11.227109"><ele>278.6666666666667</ele><time>2026-04-25T15:06:53.325Z</time></trkpt><trkpt lat="43.9880345" lon="11.2270249"><ele>281.0</ele><time>2026-04-25T15:06:54.326Z</time></trkpt><trkpt lat="43.9878864" lon="11.2269343"><ele>281.0</ele><time>2026-04-25T15:06:55.308Z</time></trkpt><trkpt lat="43.9877409" lon="11.2268395"><ele>281.0</ele><time>2026-04-25T15:06:56.317Z</time></trkpt><trkpt lat="43.9875996" lon="11.2267314"><ele>281.0</ele><time>2026-04-25T15:06:57.319Z</time></trkpt><trkpt lat="43.9874625" lon="11.2266078"><ele>281.33333333333337</ele><time>2026-04-25T15:06:58.295Z</time></trkpt><trkpt lat="43.987333" lon="11.2264795"><ele>281.6666666666667</ele><time>2026-04-25T15:06:59.317Z</time></trkpt><trkpt lat="43.9872081" lon="11.2263359"><ele>282.0</ele><time>2026-04-25T15:07:00.325Z</time></trkpt><trkpt lat="43.9870882" lon="11.2261823"><ele>283.3333333333333</ele><time>2026-04-25T15:07:01.308Z</time></trkpt><trkpt lat="43.9869668" lon="11.2260287"><ele>284.66666666666663</ele><time>2026-04-25T15:07:02.321Z</time></trkpt><trkpt lat="43.986837" lon="11.2258578"><ele>286.0</ele><time>2026-04-25T15:07:03.312Z</time></trkpt><trkpt lat="43.9867161" lon="11.2256792"><ele>285.66666666666663</ele><time>2026-04-25T15:07:04.319Z</time></trkpt><trkpt lat="43.9866155" lon="11.2254989"><ele>285.3333333333333</ele><time>2026-04-25T15:07:05.322Z</time></trkpt><trkpt lat="43.9865116" lon="11.2253212"><ele>285.0</ele><time>2026-04-25T15:07:06.297Z</time></trkpt><trkpt lat="43.9864162" lon="11.2251483"><ele>285.0</ele><time>2026-04-25T15:07:07.325Z</time></trkpt><trkpt lat="43.9863216" lon="11.2249762"><ele>285.0</ele><time>2026-04-25T15:07:08.315Z</time></trkpt><trkpt lat="43.9862354" lon="11.224815"><ele>285.0</ele><time>2026-04-25T15:07:09.301Z</time></trkpt><trkpt lat="43.986142" lon="11.2246553"><ele>285.0</ele><time>2026-04-25T15:07:10.312Z</time></trkpt><trkpt lat="43.9860478" lon="11.224503"><ele>284.25</ele><time>2026-04-25T15:07:11.321Z</time></trkpt><trkpt lat="43.9859588" lon="11.2243481"><ele>283.5</ele><time>2026-04-25T15:07:12.32Z</time></trkpt><trkpt lat="43.9858723" lon="11.2242001"><ele>282.75</ele><time>2026-04-25T15:07:13.296Z</time></trkpt><trkpt lat="43.9857845" lon="11.2240516"><ele>282.0</ele><time>2026-04-25T15:07:14.336Z</time></trkpt><trkpt lat="43.9857069" lon="11.2239102"><ele>280.5</ele><time>2026-04-25T15:07:15.33Z</time></trkpt><trkpt lat="43.9856389" lon="11.2237723"><ele>279.0</ele><time>2026-04-25T15:07:16.33Z</time></trkpt><trkpt lat="43.9855787" lon="11.2236199"><ele>277.5</ele><time>2026-04-25T15:07:17.329Z</time></trkpt><trkpt lat="43.9855282" lon="11.2234597"><ele>276.0</ele><time>2026-04-25T15:07:18.305Z</time></trkpt><trkpt lat="43.9854967" lon="11.223282"><ele>275.6</ele><time>2026-04-25T15:07:19.32Z</time></trkpt><trkpt lat="43.9854976" lon="11.2231161"><ele>275.20000000000005</ele><time>2026-04-25T15:07:20.324Z</time></trkpt><trkpt lat="43.9855269" lon="11.2229577"><ele>274.79999999999995</ele><time>2026-04-25T15:07:21.314Z</time></trkpt><trkpt lat="43.9855636" lon="11.2228387"><ele>274.4</ele><time>2026-04-25T15:07:22.303Z</time></trkpt><trkpt lat="43.9856025" lon="11.2227197"><ele>274.0</ele><time>2026-04-25T15:07:23.293Z</time></trkpt><trkpt lat="43.9856384" lon="11.2226138"><ele>274.0</ele><time>2026-04-25T15:07:24.31Z</time></trkpt><trkpt lat="43.9856657" lon="11.2225152"><ele>274.0</ele><time>2026-04-25T15:07:25.3Z</time></trkpt><trkpt lat="43.9856975" lon="11.2224313"><ele>274.0</ele><time>2026-04-25T15:07:26.305Z</time></trkpt><trkpt lat="43.9857327" lon="11.222355"><ele>274.0</ele><time>2026-04-25T15:07:27.318Z</time></trkpt><trkpt lat="43.9857562" lon="11.2221983"><ele>274.0</ele><time>2026-04-25T15:07:29.335Z</time></trkpt><trkpt lat="43.9857446" lon="11.2221035"><ele>274.0</ele><time>2026-04-25T15:07:30.312Z</time></trkpt><trkpt lat="43.9857036" lon="11.2220305"><ele>274.0</ele><time>2026-04-25T15:07:31.321Z</time></trkpt><trkpt lat="43.9856443" lon="11.2219741"><ele>274.0</ele><time>2026-04-25T15:07:32.323Z</time></trkpt><trkpt lat="43.9855782" lon="11.2219599"><ele>274.0</ele><time>2026-04-25T15:07:33.331Z</time></trkpt><trkpt lat="43.985497" lon="11.2220091"><ele>274.0</ele><time>2026-04-25T15:07:34.312Z</time></trkpt><trkpt lat="43.9854357" lon="11.2220907"><ele>274.0</ele><time>2026-04-25T15:07:35.311Z</time></trkpt><trkpt lat="43.9853955" lon="11.2222406"><ele>274.0</ele><time>2026-04-25T15:07:36.297Z</time></trkpt><trkpt lat="43.9853565" lon="11.2224099"><ele>274.0</ele><time>2026-04-25T15:07:37.316Z</time></trkpt><trkpt lat="43.9852877" lon="11.2225457"><ele>274.0</ele><time>2026-04-25T15:07:38.311Z</time></trkpt><trkpt lat="43.9852009" lon="11.2226724"><ele>274.0</ele><time>2026-04-25T15:07:39.307Z</time></trkpt><trkpt lat="43.9850992" lon="11.2227932"><ele>274.0</ele><time>2026-04-25T15:07:40.313Z</time></trkpt><trkpt lat="43.9850058" lon="11.2229047"><ele>274.2</ele><time>2026-04-25T15:07:41.32Z</time></trkpt><trkpt lat="43.9849212" lon="11.2230076"><ele>274.4</ele><time>2026-04-25T15:07:42.31Z</time></trkpt><trkpt lat="43.98484" lon="11.2230998"><ele>274.6</ele><time>2026-04-25T15:07:43.322Z</time></trkpt><trkpt lat="43.9847486" lon="11.2231486"><ele>274.8</ele><time>2026-04-25T15:07:44.291Z</time></trkpt><trkpt lat="43.9846346" lon="11.223174"><ele>275.0</ele><time>2026-04-25T15:07:45.311Z</time></trkpt><trkpt lat="43.9845023" lon="11.2231821"><ele>274.25</ele><time>2026-04-25T15:07:46.314Z</time></trkpt><trkpt lat="43.9843683" lon="11.2231383"><ele>273.5</ele><time>2026-04-25T15:07:47.325Z</time></trkpt><trkpt lat="43.9842349" lon="11.2230684"><ele>272.75</ele><time>2026-04-25T15:07:48.32Z</time></trkpt><trkpt lat="43.9840964" lon="11.2230168"><ele>272.0</ele><time>2026-04-25T15:07:49.306Z</time></trkpt><trkpt lat="43.9839335" lon="11.2229997"><ele>271.6666666666667</ele><time>2026-04-25T15:07:50.319Z</time></trkpt><trkpt lat="43.9837689" lon="11.2229893"><ele>271.3333333333333</ele><time>2026-04-25T15:07:51.298Z</time></trkpt><trkpt lat="43.9836109" lon="11.2230004"><ele>271.0</ele><time>2026-04-25T15:07:52.304Z</time></trkpt><trkpt lat="43.9834547" lon="11.2230181"><ele>271.25</ele><time>2026-04-25T15:07:53.319Z</time></trkpt><trkpt lat="43.9833059" lon="11.2230469"><ele>271.5</ele><time>2026-04-25T15:07:54.292Z</time></trkpt><trkpt lat="43.9831597" lon="11.2230963"><ele>271.75</ele><time>2026-04-25T15:07:55.291Z</time></trkpt><trkpt lat="43.9830216" lon="11.2231502"><ele>272.0</ele><time>2026-04-25T15:07:56.31Z</time></trkpt><trkpt lat="43.9828828" lon="11.2232223"><ele>272.0</ele><time>2026-04-25T15:07:57.321Z</time></trkpt><trkpt lat="43.982746" lon="11.2232969"><ele>272.0</ele><time>2026-04-25T15:07:58.314Z</time></trkpt><trkpt lat="43.9826065" lon="11.2233832"><ele>272.0</ele><time>2026-04-25T15:07:59.311Z</time></trkpt><trkpt lat="43.9824611" lon="11.2234718"><ele>272.6666666666667</ele><time>2026-04-25T15:08:00.311Z</time></trkpt><trkpt lat="43.9823211" lon="11.2235648"><ele>273.3333333333333</ele><time>2026-04-25T15:08:01.312Z</time></trkpt><trkpt lat="43.9821874" lon="11.2236595"><ele>274.0</ele><time>2026-04-25T15:08:02.319Z</time></trkpt><trkpt lat="43.982056" lon="11.2237524"><ele>274.0</ele><time>2026-04-25T15:08:03.311Z</time></trkpt><trkpt lat="43.9819346" lon="11.2238428"><ele>274.0</ele><time>2026-04-25T15:08:04.314Z</time></trkpt><trkpt lat="43.9818148" lon="11.2239259"><ele>274.0</ele><time>2026-04-25T15:08:05.316Z</time></trkpt><trkpt lat="43.981703" lon="11.2239894"><ele>274.0</ele><time>2026-04-25T15:08:06.302Z</time></trkpt><trkpt lat="43.9815904" lon="11.224034"><ele>275.0</ele><time>2026-04-25T15:08:07.301Z</time></trkpt><trkpt lat="43.9814838" lon="11.2240479"><ele>276.0</ele><time>2026-04-25T15:08:08.31Z</time></trkpt><trkpt lat="43.9813859" lon="11.2240534"><ele>277.0</ele><time>2026-04-25T15:08:09.297Z</time></trkpt><trkpt lat="43.9812789" lon="11.224035"><ele>278.0</ele><time>2026-04-25T15:08:10.312Z</time></trkpt><trkpt lat="43.9811895" lon="11.2239947"><ele>279.0</ele><time>2026-04-25T15:08:11.307Z</time></trkpt><trkpt lat="43.9811003" lon="11.2239488"><ele>279.0</ele><time>2026-04-25T15:08:12.317Z</time></trkpt><trkpt lat="43.981006" lon="11.2238909"><ele>279.0</ele><time>2026-04-25T15:08:13.317Z</time></trkpt><trkpt lat="43.9809071" lon="11.2238298"><ele>279.0</ele><time>2026-04-25T15:08:14.289Z</time></trkpt><trkpt lat="43.980796" lon="11.2237826"><ele>279.0</ele><time>2026-04-25T15:08:15.309Z</time></trkpt><trkpt lat="43.9806799" lon="11.223731"><ele>279.0</ele><time>2026-04-25T15:08:16.308Z</time></trkpt><trkpt lat="43.9805629" lon="11.2236831"><ele>275.25</ele><time>2026-04-25T15:08:17.325Z</time></trkpt><trkpt lat="43.980453" lon="11.2236298"><ele>271.5</ele><time>2026-04-25T15:08:18.319Z</time></trkpt><trkpt lat="43.9803515" lon="11.2235465"><ele>267.75</ele><time>2026-04-25T15:08:19.316Z</time></trkpt><trkpt lat="43.9802613" lon="11.2234389"><ele>264.0</ele><time>2026-04-25T15:08:20.317Z</time></trkpt><trkpt lat="43.9801984" lon="11.223302"><ele>264.75</ele><time>2026-04-25T15:08:21.317Z</time></trkpt><trkpt lat="43.9801554" lon="11.2231424"><ele>265.5</ele><time>2026-04-25T15:08:22.3Z</time></trkpt><trkpt lat="43.980133" lon="11.2229538"><ele>266.25</ele><time>2026-04-25T15:08:23.313Z</time></trkpt><trkpt lat="43.9801301" lon="11.2227602"><ele>267.0</ele><time>2026-04-25T15:08:24.325Z</time></trkpt><trkpt lat="43.9801353" lon="11.2225488"><ele>267.0</ele><time>2026-04-25T15:08:25.308Z</time></trkpt><trkpt lat="43.9801586" lon="11.2223411"><ele>267.0</ele><time>2026-04-25T15:08:26.309Z</time></trkpt><trkpt lat="43.9801908" lon="11.2221377"><ele>267.0</ele><time>2026-04-25T15:08:27.318Z</time></trkpt><trkpt lat="43.9802308" lon="11.2219288"><ele>266.0</ele><time>2026-04-25T15:08:28.296Z</time></trkpt><trkpt lat="43.9802665" lon="11.2217221"><ele>265.0</ele><time>2026-04-25T15:08:29.302Z</time></trkpt><trkpt lat="43.9803023" lon="11.2215385"><ele>264.0</ele><time>2026-04-25T15:08:30.316Z</time></trkpt><trkpt lat="43.980331" lon="11.2213688"><ele>263.0</ele><time>2026-04-25T15:08:31.314Z</time></trkpt><trkpt lat="43.9803553" lon="11.2212204"><ele>263.0</ele><time>2026-04-25T15:08:32.322Z</time></trkpt><trkpt lat="43.9803748" lon="11.2210848"><ele>263.0</ele><time>2026-04-25T15:08:33.313Z</time></trkpt><trkpt lat="43.9803972" lon="11.2209508"><ele>263.0</ele><time>2026-04-25T15:08:34.312Z</time></trkpt><trkpt lat="43.9804167" lon="11.2208126"><ele>263.0</ele><time>2026-04-25T15:08:35.31Z</time></trkpt><trkpt lat="43.9804272" lon="11.2206901"><ele>263.0</ele><time>2026-04-25T15:08:36.303Z</time></trkpt><trkpt lat="43.9804279" lon="11.2205788"><ele>263.4</ele><time>2026-04-25T15:08:37.315Z</time></trkpt><trkpt lat="43.9804209" lon="11.2204789"><ele>263.8</ele><time>2026-04-25T15:08:38.311Z</time></trkpt><trkpt lat="43.9803974" lon="11.2203865"><ele>264.2</ele><time>2026-04-25T15:08:39.309Z</time></trkpt><trkpt lat="43.9803026" lon="11.2203461"><ele>264.6</ele><time>2026-04-25T15:08:41.323Z</time></trkpt><trkpt lat="43.9802687" lon="11.2204576"><ele>265.0</ele><time>2026-04-25T15:08:43.316Z</time></trkpt><trkpt lat="43.9803472" lon="11.220599"><ele>264.6</ele><time>2026-04-25T15:08:45.315Z</time></trkpt><trkpt lat="43.9803826" lon="11.2206782"><ele>264.2</ele><time>2026-04-25T15:08:46.313Z</time></trkpt><trkpt lat="43.9804046" lon="11.2207889"><ele>263.8</ele><time>2026-04-25T15:08:47.312Z</time></trkpt><trkpt lat="43.9803836" lon="11.220921"><ele>263.4</ele><time>2026-04-25T15:08:48.311Z</time></trkpt><trkpt lat="43.9803509" lon="11.2210765"><ele>263.0</ele><time>2026-04-25T15:08:49.309Z</time></trkpt><trkpt lat="43.9803159" lon="11.2212839"><ele>262.6666666666667</ele><time>2026-04-25T15:08:50.304Z</time></trkpt><trkpt lat="43.9802824" lon="11.2215136"><ele>262.3333333333333</ele><time>2026-04-25T15:08:51.283Z</time></trkpt><trkpt lat="43.9802409" lon="11.2217405"><ele>262.0</ele><time>2026-04-25T15:08:52.303Z</time></trkpt><trkpt lat="43.9802012" lon="11.2219648"><ele>262.0</ele><time>2026-04-25T15:08:53.312Z</time></trkpt><trkpt lat="43.9801624" lon="11.2221813"><ele>262.0</ele><time>2026-04-25T15:08:54.306Z</time></trkpt><trkpt lat="43.980128" lon="11.2224069"><ele>262.0</ele><time>2026-04-25T15:08:55.297Z</time></trkpt><trkpt lat="43.9801131" lon="11.2226239"><ele>262.5</ele><time>2026-04-25T15:08:56.304Z</time></trkpt><trkpt lat="43.9801093" lon="11.2228313"><ele>263.0</ele><time>2026-04-25T15:08:57.32Z</time></trkpt><trkpt lat="43.9801197" lon="11.2230255"><ele>263.5</ele><time>2026-04-25T15:08:58.3Z</time></trkpt><trkpt lat="43.9801309" lon="11.2231758"><ele>264.0</ele><time>2026-04-25T15:08:59.302Z</time></trkpt><trkpt lat="43.9801693" lon="11.2233238"><ele>264.0</ele><time>2026-04-25T15:09:00.313Z</time></trkpt><trkpt lat="43.9802357" lon="11.2234673"><ele>264.0</ele><time>2026-04-25T15:09:01.313Z</time></trkpt><trkpt lat="43.980327" lon="11.2235729"><ele>264.0</ele><time>2026-04-25T15:09:02.31Z</time></trkpt><trkpt lat="43.9804486" lon="11.2236632"><ele>264.0</ele><time>2026-04-25T15:09:03.334Z</time></trkpt><trkpt lat="43.9805775" lon="11.2237408"><ele>264.0</ele><time>2026-04-25T15:09:04.313Z</time></trkpt><trkpt lat="43.9807071" lon="11.2238195"><ele>264.0</ele><time>2026-04-25T15:09:05.307Z</time></trkpt><trkpt lat="43.9808236" lon="11.2238915"><ele>264.0</ele><time>2026-04-25T15:09:06.319Z</time></trkpt><trkpt lat="43.9809246" lon="11.223971"><ele>264.0</ele><time>2026-04-25T15:09:07.31Z</time></trkpt><trkpt lat="43.9810109" lon="11.2240743"><ele>264.75</ele><time>2026-04-25T15:09:08.289Z</time></trkpt><trkpt lat="43.9810793" lon="11.2242213"><ele>265.5</ele><time>2026-04-25T15:09:09.303Z</time></trkpt><trkpt lat="43.9811144" lon="11.2243625"><ele>266.25</ele><time>2026-04-25T15:09:10.297Z</time></trkpt><trkpt lat="43.9811296" lon="11.2245281"><ele>267.0</ele><time>2026-04-25T15:09:11.309Z</time></trkpt><trkpt lat="43.9811099" lon="11.2247149"><ele>267.5</ele><time>2026-04-25T15:09:12.312Z</time></trkpt><trkpt lat="43.9810573" lon="11.2249033"><ele>268.0</ele><time>2026-04-25T15:09:13.308Z</time></trkpt><trkpt lat="43.9810007" lon="11.225093"><ele>268.5</ele><time>2026-04-25T15:09:14.314Z</time></trkpt><trkpt lat="43.9809411" lon="11.2252868"><ele>269.0</ele><time>2026-04-25T15:09:15.312Z</time></trkpt><trkpt lat="43.9808904" lon="11.2254677"><ele>266.75</ele><time>2026-04-25T15:09:16.317Z</time></trkpt><trkpt lat="43.9808324" lon="11.225637"><ele>264.5</ele><time>2026-04-25T15:09:17.315Z</time></trkpt><trkpt lat="43.9807521" lon="11.2257659"><ele>262.25</ele><time>2026-04-25T15:09:18.314Z</time></trkpt><trkpt lat="43.9806542" lon="11.2258412"><ele>260.0</ele><time>2026-04-25T15:09:19.304Z</time></trkpt><trkpt lat="43.9805515" lon="11.2258949"><ele>260.0</ele><time>2026-04-25T15:09:20.316Z</time></trkpt><trkpt lat="43.9804368" lon="11.2259433"><ele>260.0</ele><time>2026-04-25T15:09:21.321Z</time></trkpt><trkpt lat="43.9803068" lon="11.2259625"><ele>260.0</ele><time>2026-04-25T15:09:22.309Z</time></trkpt><trkpt lat="43.98018" lon="11.2259394"><ele>260.0</ele><time>2026-04-25T15:09:23.318Z</time></trkpt><trkpt lat="43.9800466" lon="11.2258701"><ele>260.0</ele><time>2026-04-25T15:09:24.303Z</time></trkpt><trkpt lat="43.9798776" lon="11.2257827"><ele>260.0</ele><time>2026-04-25T15:09:25.304Z</time></trkpt><trkpt lat="43.979703" lon="11.2256755"><ele>260.0</ele><time>2026-04-25T15:09:26.317Z</time></trkpt><trkpt lat="43.9795358" lon="11.2255739"><ele>260.0</ele><time>2026-04-25T15:09:27.309Z</time></trkpt><trkpt lat="43.9793666" lon="11.2254804"><ele>260.0</ele><time>2026-04-25T15:09:28.314Z</time></trkpt><trkpt lat="43.9791972" lon="11.2253879"><ele>260.0</ele><time>2026-04-25T15:09:29.329Z</time></trkpt><trkpt lat="43.979014" lon="11.2252917"><ele>260.6666666666667</ele><time>2026-04-25T15:09:30.308Z</time></trkpt><trkpt lat="43.9788365" lon="11.2251974"><ele>261.3333333333333</ele><time>2026-04-25T15:09:31.314Z</time></trkpt><trkpt lat="43.9786513" lon="11.2251168"><ele>262.0</ele><time>2026-04-25T15:09:32.317Z</time></trkpt><trkpt lat="43.9784655" lon="11.2250375"><ele>263.3333333333333</ele><time>2026-04-25T15:09:33.314Z</time></trkpt><trkpt lat="43.97828" lon="11.2249591"><ele>264.6666666666667</ele><time>2026-04-25T15:09:34.305Z</time></trkpt><trkpt lat="43.9780947" lon="11.224883"><ele>266.0</ele><time>2026-04-25T15:09:35.315Z</time></trkpt><trkpt lat="43.9779177" lon="11.2248052"><ele>268.0</ele><time>2026-04-25T15:09:36.315Z</time></trkpt><trkpt lat="43.9777545" lon="11.2247368"><ele>270.0</ele><time>2026-04-25T15:09:37.297Z</time></trkpt><trkpt lat="43.9776036" lon="11.224666"><ele>272.0</ele><time>2026-04-25T15:09:38.317Z</time></trkpt><trkpt lat="43.9774572" lon="11.2246"><ele>274.33333333333337</ele><time>2026-04-25T15:09:39.32Z</time></trkpt><trkpt lat="43.9773159" lon="11.2245348"><ele>276.6666666666667</ele><time>2026-04-25T15:09:40.325Z</time></trkpt><trkpt lat="43.977167" lon="11.2244696"><ele>279.0</ele><time>2026-04-25T15:09:41.302Z</time></trkpt><trkpt lat="43.977016" lon="11.2244026"><ele>279.0</ele><time>2026-04-25T15:09:42.318Z</time></trkpt><trkpt lat="43.976861" lon="11.2243334"><ele>279.0</ele><time>2026-04-25T15:09:43.311Z</time></trkpt><trkpt lat="43.9767039" lon="11.2242657"><ele>279.0</ele><time>2026-04-25T15:09:44.316Z</time></trkpt><trkpt lat="43.9765521" lon="11.2242034"><ele>279.0</ele><time>2026-04-25T15:09:45.31Z</time></trkpt><trkpt lat="43.9764123" lon="11.2241373"><ele>279.0</ele><time>2026-04-25T15:09:46.313Z</time></trkpt><trkpt lat="43.9762866" lon="11.2240432"><ele>279.0</ele><time>2026-04-25T15:09:47.302Z</time></trkpt><trkpt lat="43.9761782" lon="11.2239185"><ele>279.0</ele><time>2026-04-25T15:09:48.305Z</time></trkpt><trkpt lat="43.9760975" lon="11.2237511"><ele>282.0</ele><time>2026-04-25T15:09:49.313Z</time></trkpt><trkpt lat="43.9760761" lon="11.2235404"><ele>285.0</ele><time>2026-04-25T15:09:50.305Z</time></trkpt><trkpt lat="43.9760801" lon="11.2233349"><ele>288.0</ele><time>2026-04-25T15:09:51.313Z</time></trkpt><trkpt lat="43.9760982" lon="11.2231464"><ele>291.0</ele><time>2026-04-25T15:09:52.31Z</time></trkpt><trkpt lat="43.9761222" lon="11.2229525"><ele>292.25</ele><time>2026-04-25T15:09:53.308Z</time></trkpt><trkpt lat="43.9761291" lon="11.2227613"><ele>293.5</ele><time>2026-04-25T15:09:54.302Z</time></trkpt><trkpt lat="43.9761334" lon="11.222563"><ele>294.75</ele><time>2026-04-25T15:09:55.307Z</time></trkpt><trkpt lat="43.9761408" lon="11.2223584"><ele>296.0</ele><time>2026-04-25T15:09:56.308Z</time></trkpt><trkpt lat="43.9761483" lon="11.2221535"><ele>296.0</ele><time>2026-04-25T15:09:57.325Z</time></trkpt><trkpt lat="43.9761612" lon="11.2219373"><ele>296.0</ele><time>2026-04-25T15:09:58.316Z</time></trkpt><trkpt lat="43.9761735" lon="11.2217112"><ele>296.0</ele><time>2026-04-25T15:09:59.313Z</time></trkpt><trkpt lat="43.9761829" lon="11.2214786"><ele>296.33333333333337</ele><time>2026-04-25T15:10:00.304Z</time></trkpt><trkpt lat="43.9761922" lon="11.2212466"><ele>296.6666666666667</ele><time>2026-04-25T15:10:01.311Z</time></trkpt><trkpt lat="43.9761756" lon="11.2210016"><ele>297.0</ele><time>2026-04-25T15:10:02.332Z</time></trkpt><trkpt lat="43.9761242" lon="11.2207865"><ele>299.3333333333333</ele><time>2026-04-25T15:10:03.318Z</time></trkpt><trkpt lat="43.9760378" lon="11.2205771"><ele>301.66666666666663</ele><time>2026-04-25T15:10:04.308Z</time></trkpt><trkpt lat="43.9759503" lon="11.2203755"><ele>304.0</ele><time>2026-04-25T15:10:05.305Z</time></trkpt><trkpt lat="43.9758555" lon="11.2201903"><ele>302.0</ele><time>2026-04-25T15:10:06.317Z</time></trkpt><trkpt lat="43.9757544" lon="11.2200005"><ele>300.0</ele><time>2026-04-25T15:10:07.318Z</time></trkpt><trkpt lat="43.9756608" lon="11.2198108"><ele>298.0</ele><time>2026-04-25T15:10:08.316Z</time></trkpt><trkpt lat="43.9755647" lon="11.2196304"><ele>298.0</ele><time>2026-04-25T15:10:09.311Z</time></trkpt><trkpt lat="43.9754721" lon="11.2194452"><ele>298.0</ele><time>2026-04-25T15:10:10.299Z</time></trkpt><trkpt lat="43.9753858" lon="11.2192595"><ele>298.0</ele><time>2026-04-25T15:10:11.319Z</time></trkpt><trkpt lat="43.9752996" lon="11.2190869"><ele>297.75</ele><time>2026-04-25T15:10:12.323Z</time></trkpt><trkpt lat="43.9752108" lon="11.2189275"><ele>297.5</ele><time>2026-04-25T15:10:13.32Z</time></trkpt><trkpt lat="43.9751056" lon="11.2187974"><ele>297.25</ele><time>2026-04-25T15:10:14.315Z</time></trkpt><trkpt lat="43.9749837" lon="11.2186787"><ele>297.0</ele><time>2026-04-25T15:10:15.304Z</time></trkpt><trkpt lat="43.9748633" lon="11.2185798"><ele>298.0</ele><time>2026-04-25T15:10:16.316Z</time></trkpt><trkpt lat="43.9747347" lon="11.2184812"><ele>299.0</ele><time>2026-04-25T15:10:17.306Z</time></trkpt><trkpt lat="43.9746035" lon="11.218396"><ele>300.0</ele><time>2026-04-25T15:10:18.314Z</time></trkpt><trkpt lat="43.9744745" lon="11.2183224"><ele>301.0</ele><time>2026-04-25T15:10:19.308Z</time></trkpt><trkpt lat="43.9743529" lon="11.218253"><ele>301.0</ele><time>2026-04-25T15:10:20.313Z</time></trkpt><trkpt lat="43.9742254" lon="11.2181864"><ele>301.0</ele><time>2026-04-25T15:10:21.319Z</time></trkpt><trkpt lat="43.9741001" lon="11.2180866"><ele>301.0</ele><time>2026-04-25T15:10:22.301Z</time></trkpt><trkpt lat="43.9739569" lon="11.2179471"><ele>303.66666666666663</ele><time>2026-04-25T15:10:23.308Z</time></trkpt><trkpt lat="43.9738003" lon="11.2177866"><ele>306.3333333333333</ele><time>2026-04-25T15:10:24.31Z</time></trkpt><trkpt lat="43.973644" lon="11.2176219"><ele>309.0</ele><time>2026-04-25T15:10:25.292Z</time></trkpt><trkpt lat="43.9734901" lon="11.2174696"><ele>308.3333333333333</ele><time>2026-04-25T15:10:26.312Z</time></trkpt><trkpt lat="43.9733469" lon="11.2173364"><ele>307.66666666666663</ele><time>2026-04-25T15:10:27.305Z</time></trkpt><trkpt lat="43.9732099" lon="11.2172205"><ele>307.0</ele><time>2026-04-25T15:10:28.313Z</time></trkpt><trkpt lat="43.9730812" lon="11.2171229"><ele>307.0</ele><time>2026-04-25T15:10:29.313Z</time></trkpt><trkpt lat="43.9729533" lon="11.2170345"><ele>307.0</ele><time>2026-04-25T15:10:30.307Z</time></trkpt><trkpt lat="43.9728263" lon="11.2169387"><ele>307.0</ele><time>2026-04-25T15:10:31.309Z</time></trkpt><trkpt lat="43.9726985" lon="11.2168495"><ele>307.0</ele><time>2026-04-25T15:10:32.311Z</time></trkpt><trkpt lat="43.9725679" lon="11.2167778"><ele>307.0</ele><time>2026-04-25T15:10:33.319Z</time></trkpt><trkpt lat="43.9724197" lon="11.2167488"><ele>307.0</ele><time>2026-04-25T15:10:34.324Z</time></trkpt><trkpt lat="43.9722692" lon="11.2167535"><ele>307.0</ele><time>2026-04-25T15:10:35.31Z</time></trkpt><trkpt lat="43.9720921" lon="11.2167824"><ele>307.0</ele><time>2026-04-25T15:10:36.312Z</time></trkpt><trkpt lat="43.9719236" lon="11.2168135"><ele>307.0</ele><time>2026-04-25T15:10:37.303Z</time></trkpt><trkpt lat="43.9717701" lon="11.2168445"><ele>307.0</ele><time>2026-04-25T15:10:38.307Z</time></trkpt><trkpt lat="43.9716383" lon="11.2168668"><ele>309.25</ele><time>2026-04-25T15:10:39.306Z</time></trkpt><trkpt lat="43.9715068" lon="11.2168818"><ele>311.5</ele><time>2026-04-25T15:10:40.294Z</time></trkpt><trkpt lat="43.9713851" lon="11.2168902"><ele>313.75</ele><time>2026-04-25T15:10:41.307Z</time></trkpt><trkpt lat="43.9712702" lon="11.2168697"><ele>316.0</ele><time>2026-04-25T15:10:42.297Z</time></trkpt><trkpt lat="43.971157" lon="11.2168407"><ele>316.0</ele><time>2026-04-25T15:10:43.299Z</time></trkpt><trkpt lat="43.9710325" lon="11.2168244"><ele>316.0</ele><time>2026-04-25T15:10:44.294Z</time></trkpt><trkpt lat="43.9709096" lon="11.216838"><ele>316.0</ele><time>2026-04-25T15:10:45.307Z</time></trkpt><trkpt lat="43.9707911" lon="11.2169205"><ele>316.0</ele><time>2026-04-25T15:10:46.303Z</time></trkpt><trkpt lat="43.9706904" lon="11.2170158"><ele>317.5</ele><time>2026-04-25T15:10:47.309Z</time></trkpt><trkpt lat="43.9705758" lon="11.2171125"><ele>319.0</ele><time>2026-04-25T15:10:48.31Z</time></trkpt><trkpt lat="43.9704509" lon="11.2171843"><ele>320.5</ele><time>2026-04-25T15:10:49.285Z</time></trkpt><trkpt lat="43.9703109" lon="11.2172499"><ele>322.0</ele><time>2026-04-25T15:10:50.291Z</time></trkpt><trkpt lat="43.9701697" lon="11.2172827"><ele>322.3333333333333</ele><time>2026-04-25T15:10:51.301Z</time></trkpt><trkpt lat="43.9700183" lon="11.2172626"><ele>322.6666666666667</ele><time>2026-04-25T15:10:52.304Z</time></trkpt><trkpt lat="43.9698383" lon="11.2172181"><ele>323.0</ele><time>2026-04-25T15:10:53.301Z</time></trkpt><trkpt lat="43.9696429" lon="11.2171791"><ele>323.0</ele><time>2026-04-25T15:10:54.296Z</time></trkpt><trkpt lat="43.9694341" lon="11.2171426"><ele>323.0</ele><time>2026-04-25T15:10:55.3Z</time></trkpt><trkpt lat="43.9692279" lon="11.2171011"><ele>323.0</ele><time>2026-04-25T15:10:56.304Z</time></trkpt><trkpt lat="43.9690358" lon="11.2170574"><ele>320.6666666666667</ele><time>2026-04-25T15:10:57.297Z</time></trkpt><trkpt lat="43.9688678" lon="11.2170384"><ele>318.3333333333333</ele><time>2026-04-25T15:10:58.301Z</time></trkpt><trkpt lat="43.9687121" lon="11.2170344"><ele>316.0</ele><time>2026-04-25T15:10:59.282Z</time></trkpt><trkpt lat="43.9685527" lon="11.2170491"><ele>316.0</ele><time>2026-04-25T15:11:00.273Z</time></trkpt><trkpt lat="43.9684038" lon="11.2170818"><ele>316.0</ele><time>2026-04-25T15:11:01.298Z</time></trkpt><trkpt lat="43.9682514" lon="11.2171246"><ele>316.0</ele><time>2026-04-25T15:11:02.306Z</time></trkpt><trkpt lat="43.9681042" lon="11.21714"><ele>312.66666666666663</ele><time>2026-04-25T15:11:03.278Z</time></trkpt><trkpt lat="43.9679637" lon="11.2171275"><ele>309.3333333333333</ele><time>2026-04-25T15:11:04.295Z</time></trkpt><trkpt lat="43.9678159" lon="11.2170768"><ele>306.0</ele><time>2026-04-25T15:11:05.276Z</time></trkpt><trkpt lat="43.9676768" lon="11.2169761"><ele>306.0</ele><time>2026-04-25T15:11:06.271Z</time></trkpt><trkpt lat="43.9675385" lon="11.2168609"><ele>306.0</ele><time>2026-04-25T15:11:07.302Z</time></trkpt><trkpt lat="43.9673996" lon="11.2167559"><ele>306.0</ele><time>2026-04-25T15:11:08.296Z</time></trkpt><trkpt lat="43.9672714" lon="11.216644"><ele>303.3333333333333</ele><time>2026-04-25T15:11:09.305Z</time></trkpt><trkpt lat="43.9671287" lon="11.2165643"><ele>300.66666666666663</ele><time>2026-04-25T15:11:10.3Z</time></trkpt><trkpt lat="43.9669771" lon="11.2165015"><ele>298.0</ele><time>2026-04-25T15:11:11.332Z</time></trkpt><trkpt lat="43.9667913" lon="11.2164943"><ele>297.0</ele><time>2026-04-25T15:11:12.312Z</time></trkpt><trkpt lat="43.9665774" lon="11.2165646"><ele>296.0</ele><time>2026-04-25T15:11:13.308Z</time></trkpt><trkpt lat="43.9663665" lon="11.2166418"><ele>295.0</ele><time>2026-04-25T15:11:14.313Z</time></trkpt><trkpt lat="43.9661627" lon="11.2167141"><ele>295.0</ele><time>2026-04-25T15:11:15.33Z</time></trkpt><trkpt lat="43.9659872" lon="11.2167554"><ele>295.0</ele><time>2026-04-25T15:11:16.286Z</time></trkpt><trkpt lat="43.9658164" lon="11.2167787"><ele>295.0</ele><time>2026-04-25T15:11:17.324Z</time></trkpt><trkpt lat="43.9656256" lon="11.2167834"><ele>295.0</ele><time>2026-04-25T15:11:18.316Z</time></trkpt><trkpt lat="43.9654307" lon="11.2167656"><ele>295.0</ele><time>2026-04-25T15:11:19.329Z</time></trkpt><trkpt lat="43.9652579" lon="11.2167155"><ele>295.0</ele><time>2026-04-25T15:11:20.329Z</time></trkpt><trkpt lat="43.9650877" lon="11.2166648"><ele>296.0</ele><time>2026-04-25T15:11:21.308Z</time></trkpt><trkpt lat="43.9649321" lon="11.2166225"><ele>297.0</ele><time>2026-04-25T15:11:22.311Z</time></trkpt><trkpt lat="43.964788" lon="11.2165683"><ele>298.0</ele><time>2026-04-25T15:11:23.308Z</time></trkpt><trkpt lat="43.9646561" lon="11.216518"><ele>299.0</ele><time>2026-04-25T15:11:24.317Z</time></trkpt><trkpt lat="43.9645305" lon="11.2164713"><ele>300.0</ele><time>2026-04-25T15:11:25.33Z</time></trkpt><trkpt lat="43.9644074" lon="11.2164529"><ele>301.0</ele><time>2026-04-25T15:11:26.298Z</time></trkpt><trkpt lat="43.9642845" lon="11.2164481"><ele>302.0</ele><time>2026-04-25T15:11:27.315Z</time></trkpt><trkpt lat="43.9641479" lon="11.2164604"><ele>303.0</ele><time>2026-04-25T15:11:28.316Z</time></trkpt><trkpt lat="43.9640111" lon="11.2164875"><ele>303.0</ele><time>2026-04-25T15:11:29.309Z</time></trkpt><trkpt lat="43.9638813" lon="11.2165287"><ele>303.0</ele><time>2026-04-25T15:11:30.305Z</time></trkpt><trkpt lat="43.9637538" lon="11.2165803"><ele>303.0</ele><time>2026-04-25T15:11:31.312Z</time></trkpt><trkpt lat="43.9636321" lon="11.2166249"><ele>303.0</ele><time>2026-04-25T15:11:32.308Z</time></trkpt><trkpt lat="43.9635054" lon="11.2166475"><ele>303.0</ele><time>2026-04-25T15:11:33.303Z</time></trkpt><trkpt lat="43.9633913" lon="11.2166451"><ele>303.0</ele><time>2026-04-25T15:11:34.314Z</time></trkpt><trkpt lat="43.9632813" lon="11.216624"><ele>303.0</ele><time>2026-04-25T15:11:35.317Z</time></trkpt><trkpt lat="43.9631668" lon="11.2165799"><ele>303.0</ele><time>2026-04-25T15:11:36.32Z</time></trkpt><trkpt lat="43.9630579" lon="11.2165097"><ele>305.75</ele><time>2026-04-25T15:11:37.323Z</time></trkpt><trkpt lat="43.9629454" lon="11.2164275"><ele>308.5</ele><time>2026-04-25T15:11:38.313Z</time></trkpt><trkpt lat="43.9628241" lon="11.2163473"><ele>311.25</ele><time>2026-04-25T15:11:39.311Z</time></trkpt><trkpt lat="43.9627062" lon="11.2162621"><ele>314.0</ele><time>2026-04-25T15:11:40.324Z</time></trkpt><trkpt lat="43.9626026" lon="11.2161856"><ele>312.0</ele><time>2026-04-25T15:11:41.318Z</time></trkpt><trkpt lat="43.9624918" lon="11.2160945"><ele>310.0</ele><time>2026-04-25T15:11:42.319Z</time></trkpt><trkpt lat="43.9623836" lon="11.2160085"><ele>308.0</ele><time>2026-04-25T15:11:43.286Z</time></trkpt><trkpt lat="43.9622746" lon="11.215919"><ele>306.0</ele><time>2026-04-25T15:11:44.312Z</time></trkpt><trkpt lat="43.9621632" lon="11.2158347"><ele>306.0</ele><time>2026-04-25T15:11:45.311Z</time></trkpt><trkpt lat="43.9620593" lon="11.2157511"><ele>306.0</ele><time>2026-04-25T15:11:46.318Z</time></trkpt><trkpt lat="43.9619579" lon="11.215678"><ele>306.0</ele><time>2026-04-25T15:11:47.305Z</time></trkpt><trkpt lat="43.9618699" lon="11.2156134"><ele>306.0</ele><time>2026-04-25T15:11:48.315Z</time></trkpt><trkpt lat="43.9617843" lon="11.2155497"><ele>306.0</ele><time>2026-04-25T15:11:49.309Z</time></trkpt><trkpt lat="43.9617046" lon="11.2155014"><ele>306.0</ele><time>2026-04-25T15:11:50.301Z</time></trkpt><trkpt lat="43.9616158" lon="11.2154388"><ele>306.0</ele><time>2026-04-25T15:11:51.321Z</time></trkpt><trkpt lat="43.9615137" lon="11.2153642"><ele>306.0</ele><time>2026-04-25T15:11:52.307Z</time></trkpt><trkpt lat="43.961407" lon="11.2152857"><ele>306.0</ele><time>2026-04-25T15:11:53.316Z</time></trkpt><trkpt lat="43.9612957" lon="11.2151975"><ele>306.0</ele><time>2026-04-25T15:11:54.318Z</time></trkpt><trkpt lat="43.9611759" lon="11.2151129"><ele>306.0</ele><time>2026-04-25T15:11:55.32Z</time></trkpt><trkpt lat="43.9610542" lon="11.215024"><ele>306.0</ele><time>2026-04-25T15:11:56.318Z</time></trkpt><trkpt lat="43.9609349" lon="11.2149273"><ele>306.0</ele><time>2026-04-25T15:11:57.311Z</time></trkpt><trkpt lat="43.9608187" lon="11.2148414"><ele>306.2</ele><time>2026-04-25T15:11:58.308Z</time></trkpt><trkpt lat="43.9607145" lon="11.2147637"><ele>306.40000000000003</ele><time>2026-04-25T15:11:59.321Z</time></trkpt><trkpt lat="43.9606224" lon="11.2146948"><ele>306.6</ele><time>2026-04-25T15:12:00.323Z</time></trkpt><trkpt lat="43.9605298" lon="11.2146303"><ele>306.8</ele><time>2026-04-25T15:12:01.311Z</time></trkpt><trkpt lat="43.9604424" lon="11.2145663"><ele>307.0</ele><time>2026-04-25T15:12:02.314Z</time></trkpt><trkpt lat="43.9603527" lon="11.2145171"><ele>307.0</ele><time>2026-04-25T15:12:03.32Z</time></trkpt><trkpt lat="43.9602584" lon="11.214483"><ele>307.0</ele><time>2026-04-25T15:12:04.319Z</time></trkpt><trkpt lat="43.9601635" lon="11.2144568"><ele>307.0</ele><time>2026-04-25T15:12:05.321Z</time></trkpt><trkpt lat="43.9600402" lon="11.2144468"><ele>307.0</ele><time>2026-04-25T15:12:06.327Z</time></trkpt><trkpt lat="43.9598989" lon="11.2144644"><ele>308.3333333333333</ele><time>2026-04-25T15:12:07.321Z</time></trkpt><trkpt lat="43.9597442" lon="11.2144831"><ele>309.6666666666667</ele><time>2026-04-25T15:12:08.328Z</time></trkpt><trkpt lat="43.9595875" lon="11.2144908"><ele>311.0</ele><time>2026-04-25T15:12:09.311Z</time></trkpt><trkpt lat="43.959427" lon="11.2144856"><ele>311.0</ele><time>2026-04-25T15:12:10.309Z</time></trkpt><trkpt lat="43.9592724" lon="11.214468"><ele>311.0</ele><time>2026-04-25T15:12:11.317Z</time></trkpt><trkpt lat="43.959141" lon="11.2144384"><ele>311.0</ele><time>2026-04-25T15:12:12.302Z</time></trkpt><trkpt lat="43.9590135" lon="11.2143924"><ele>311.0</ele><time>2026-04-25T15:12:13.3Z</time></trkpt><trkpt lat="43.9588879" lon="11.214326"><ele>311.0</ele><time>2026-04-25T15:12:14.308Z</time></trkpt><trkpt lat="43.9587636" lon="11.2142353"><ele>311.0</ele><time>2026-04-25T15:12:15.316Z</time></trkpt><trkpt lat="43.9586303" lon="11.2141316"><ele>311.0</ele><time>2026-04-25T15:12:16.315Z</time></trkpt><trkpt lat="43.9585042" lon="11.2140239"><ele>311.0</ele><time>2026-04-25T15:12:17.303Z</time></trkpt><trkpt lat="43.9583933" lon="11.213911"><ele>313.25</ele><time>2026-04-25T15:12:18.31Z</time></trkpt><trkpt lat="43.9582855" lon="11.2138207"><ele>315.5</ele><time>2026-04-25T15:12:19.301Z</time></trkpt><trkpt lat="43.9581721" lon="11.2137441"><ele>317.75</ele><time>2026-04-25T15:12:20.312Z</time></trkpt><trkpt lat="43.9580612" lon="11.2136825"><ele>320.0</ele><time>2026-04-25T15:12:21.306Z</time></trkpt><trkpt lat="43.9579607" lon="11.2136088"><ele>320.0</ele><time>2026-04-25T15:12:22.309Z</time></trkpt><trkpt lat="43.9578848" lon="11.2135287"><ele>320.0</ele><time>2026-04-25T15:12:23.302Z</time></trkpt><trkpt lat="43.9578203" lon="11.2134365"><ele>320.0</ele><time>2026-04-25T15:12:24.31Z</time></trkpt><trkpt lat="43.9577424" lon="11.2133872"><ele>320.0</ele><time>2026-04-25T15:12:25.326Z</time></trkpt><trkpt lat="43.9576344" lon="11.2133573"><ele>320.0</ele><time>2026-04-25T15:12:26.297Z</time></trkpt><trkpt lat="43.957503" lon="11.2133471"><ele>323.5</ele><time>2026-04-25T15:12:27.288Z</time></trkpt><trkpt lat="43.9573736" lon="11.2133502"><ele>327.0</ele><time>2026-04-25T15:12:28.293Z</time></trkpt><trkpt lat="43.9572376" lon="11.2133499"><ele>330.5</ele><time>2026-04-25T15:12:29.312Z</time></trkpt><trkpt lat="43.9570985" lon="11.213352"><ele>334.0</ele><time>2026-04-25T15:12:30.309Z</time></trkpt><trkpt lat="43.9569369" lon="11.2133625"><ele>334.0</ele><time>2026-04-25T15:12:31.301Z</time></trkpt><trkpt lat="43.9567704" lon="11.2133737"><ele>334.0</ele><time>2026-04-25T15:12:32.304Z</time></trkpt><trkpt lat="43.9566187" lon="11.2133491"><ele>334.0</ele><time>2026-04-25T15:12:33.285Z</time></trkpt><trkpt lat="43.9564541" lon="11.2133242"><ele>338.0</ele><time>2026-04-25T15:12:34.3Z</time></trkpt><trkpt lat="43.9562978" lon="11.2132989"><ele>342.0</ele><time>2026-04-25T15:12:35.304Z</time></trkpt><trkpt lat="43.9561391" lon="11.2132719"><ele>346.0</ele><time>2026-04-25T15:12:36.317Z</time></trkpt><trkpt lat="43.9559778" lon="11.2132446"><ele>349.0</ele><time>2026-04-25T15:12:37.305Z</time></trkpt><trkpt lat="43.9558188" lon="11.2132249"><ele>352.0</ele><time>2026-04-25T15:12:38.312Z</time></trkpt><trkpt lat="43.9556572" lon="11.2132318"><ele>355.0</ele><time>2026-04-25T15:12:39.312Z</time></trkpt><trkpt lat="43.955493" lon="11.2132687"><ele>355.0</ele><time>2026-04-25T15:12:40.313Z</time></trkpt><trkpt lat="43.9553247" lon="11.2133121"><ele>355.0</ele><time>2026-04-25T15:12:41.292Z</time></trkpt><trkpt lat="43.9551576" lon="11.213371"><ele>355.0</ele><time>2026-04-25T15:12:42.312Z</time></trkpt><trkpt lat="43.9549919" lon="11.2134364"><ele>359.3333333333333</ele><time>2026-04-25T15:12:43.31Z</time></trkpt><trkpt lat="43.954829" lon="11.2135021"><ele>363.6666666666667</ele><time>2026-04-25T15:12:44.325Z</time></trkpt><trkpt lat="43.9546598" lon="11.2135527"><ele>368.0</ele><time>2026-04-25T15:12:45.284Z</time></trkpt><trkpt lat="43.9544971" lon="11.2135911"><ele>368.0</ele><time>2026-04-25T15:12:46.289Z</time></trkpt><trkpt lat="43.9543331" lon="11.2136002"><ele>368.0</ele><time>2026-04-25T15:12:47.291Z</time></trkpt><trkpt lat="43.9541785" lon="11.2135611"><ele>368.0</ele><time>2026-04-25T15:12:48.278Z</time></trkpt><trkpt lat="43.9540379" lon="11.2134847"><ele>371.33333333333337</ele><time>2026-04-25T15:12:49.29Z</time></trkpt><trkpt lat="43.9539063" lon="11.213392"><ele>374.6666666666667</ele><time>2026-04-25T15:12:50.295Z</time></trkpt><trkpt lat="43.9537629" lon="11.2133363"><ele>378.0</ele><time>2026-04-25T15:12:51.305Z</time></trkpt><trkpt lat="43.9536009" lon="11.2133397"><ele>378.0</ele><time>2026-04-25T15:12:52.311Z</time></trkpt><trkpt lat="43.9534417" lon="11.2133649"><ele>378.0</ele><time>2026-04-25T15:12:53.32Z</time></trkpt><trkpt lat="43.9532662" lon="11.2133718"><ele>378.0</ele><time>2026-04-25T15:12:54.317Z</time></trkpt><trkpt lat="43.9531002" lon="11.2133591"><ele>377.3333333333333</ele><time>2026-04-25T15:12:55.308Z</time></trkpt><trkpt lat="43.9529375" lon="11.2133172"><ele>376.66666666666663</ele><time>2026-04-25T15:12:56.305Z</time></trkpt><trkpt lat="43.9527808" lon="11.2132561"><ele>376.0</ele><time>2026-04-25T15:12:57.306Z</time></trkpt><trkpt lat="43.9526351" lon="11.2131634"><ele>379.66666666666663</ele><time>2026-04-25T15:12:58.29Z</time></trkpt><trkpt lat="43.952499" lon="11.2130525"><ele>383.3333333333333</ele><time>2026-04-25T15:12:59.319Z</time></trkpt><trkpt lat="43.952368" lon="11.2129474"><ele>387.0</ele><time>2026-04-25T15:13:00.317Z</time></trkpt><trkpt lat="43.9522306" lon="11.2128376"><ele>387.0</ele><time>2026-04-25T15:13:01.314Z</time></trkpt><trkpt lat="43.9520933" lon="11.2127257"><ele>387.0</ele><time>2026-04-25T15:13:02.321Z</time></trkpt><trkpt lat="43.9519557" lon="11.2125927"><ele>387.0</ele><time>2026-04-25T15:13:03.305Z</time></trkpt><trkpt lat="43.9518284" lon="11.2124422"><ele>391.33333333333337</ele><time>2026-04-25T15:13:04.331Z</time></trkpt><trkpt lat="43.9516966" lon="11.2122632"><ele>395.6666666666667</ele><time>2026-04-25T15:13:05.31Z</time></trkpt><trkpt lat="43.9515567" lon="11.2120701"><ele>400.0</ele><time>2026-04-25T15:13:06.308Z</time></trkpt><trkpt lat="43.9514196" lon="11.2118715"><ele>400.0</ele><time>2026-04-25T15:13:07.302Z</time></trkpt><trkpt lat="43.9512865" lon="11.2116689"><ele>400.0</ele><time>2026-04-25T15:13:08.282Z</time></trkpt><trkpt lat="43.9511556" lon="11.2114829"><ele>400.0</ele><time>2026-04-25T15:13:09.329Z</time></trkpt><trkpt lat="43.9510484" lon="11.2113028"><ele>399.33333333333337</ele><time>2026-04-25T15:13:10.309Z</time></trkpt><trkpt lat="43.9509554" lon="11.2111206"><ele>398.66666666666663</ele><time>2026-04-25T15:13:11.321Z</time></trkpt><trkpt lat="43.9509005" lon="11.2109115"><ele>398.0</ele><time>2026-04-25T15:13:12.326Z</time></trkpt><trkpt lat="43.9508548" lon="11.2106523"><ele>398.0</ele><time>2026-04-25T15:13:13.323Z</time></trkpt><trkpt lat="43.9508195" lon="11.2103978"><ele>398.0</ele><time>2026-04-25T15:13:14.32Z</time></trkpt><trkpt lat="43.950792" lon="11.2101673"><ele>398.0</ele><time>2026-04-25T15:13:15.296Z</time></trkpt><trkpt lat="43.9507632" lon="11.2099562"><ele>399.5</ele><time>2026-04-25T15:13:16.309Z</time></trkpt><trkpt lat="43.9507362" lon="11.2097542"><ele>401.0</ele><time>2026-04-25T15:13:17.312Z</time></trkpt><trkpt lat="43.9506934" lon="11.2095674"><ele>402.5</ele><time>2026-04-25T15:13:18.289Z</time></trkpt><trkpt lat="43.9506415" lon="11.2094305"><ele>404.0</ele><time>2026-04-25T15:13:19.313Z</time></trkpt><trkpt lat="43.9505646" lon="11.209319"><ele>404.0</ele><time>2026-04-25T15:13:20.307Z</time></trkpt><trkpt lat="43.9504719" lon="11.209257"><ele>404.0</ele><time>2026-04-25T15:13:21.318Z</time></trkpt><trkpt lat="43.9503608" lon="11.2092334"><ele>404.0</ele><time>2026-04-25T15:13:22.309Z</time></trkpt><trkpt lat="43.950245" lon="11.2092722"><ele>404.0</ele><time>2026-04-25T15:13:23.293Z</time></trkpt><trkpt lat="43.9501492" lon="11.2093748"><ele>404.0</ele><time>2026-04-25T15:13:24.298Z</time></trkpt><trkpt lat="43.9500683" lon="11.2095137"><ele>404.0</ele><time>2026-04-25T15:13:25.332Z</time></trkpt><trkpt lat="43.9500078" lon="11.2097143"><ele>404.0</ele><time>2026-04-25T15:13:26.311Z</time></trkpt><trkpt lat="43.9499459" lon="11.2099371"><ele>403.66666666666663</ele><time>2026-04-25T15:13:27.322Z</time></trkpt><trkpt lat="43.9498722" lon="11.2101515"><ele>403.33333333333337</ele><time>2026-04-25T15:13:28.31Z</time></trkpt><trkpt lat="43.9497877" lon="11.2103559"><ele>403.0</ele><time>2026-04-25T15:13:29.317Z</time></trkpt><trkpt lat="43.9496863" lon="11.210522"><ele>403.0</ele><time>2026-04-25T15:13:30.308Z</time></trkpt><trkpt lat="43.9495491" lon="11.2106567"><ele>403.0</ele><time>2026-04-25T15:13:31.304Z</time></trkpt><trkpt lat="43.9494056" lon="11.2107473"><ele>403.0</ele><time>2026-04-25T15:13:32.312Z</time></trkpt><trkpt lat="43.949257" lon="11.2107942"><ele>402.75</ele><time>2026-04-25T15:13:33.306Z</time></trkpt><trkpt lat="43.9491036" lon="11.210798"><ele>402.5</ele><time>2026-04-25T15:13:34.312Z</time></trkpt><trkpt lat="43.9489727" lon="11.2107579"><ele>402.25</ele><time>2026-04-25T15:13:35.295Z</time></trkpt><trkpt lat="43.9488486" lon="11.2106789"><ele>402.0</ele><time>2026-04-25T15:13:36.3Z</time></trkpt><trkpt lat="43.9487217" lon="11.2105808"><ele>405.25</ele><time>2026-04-25T15:13:37.29Z</time></trkpt><trkpt lat="43.9486063" lon="11.2104906"><ele>408.5</ele><time>2026-04-25T15:13:38.296Z</time></trkpt><trkpt lat="43.9484816" lon="11.2104259"><ele>411.75</ele><time>2026-04-25T15:13:39.3Z</time></trkpt><trkpt lat="43.9483514" lon="11.2104204"><ele>415.0</ele><time>2026-04-25T15:13:40.298Z</time></trkpt><trkpt lat="43.9482157" lon="11.2104694"><ele>415.0</ele><time>2026-04-25T15:13:41.303Z</time></trkpt><trkpt lat="43.948094" lon="11.2105689"><ele>415.0</ele><time>2026-04-25T15:13:42.288Z</time></trkpt><trkpt lat="43.9479826" lon="11.2107345"><ele>415.0</ele><time>2026-04-25T15:13:43.305Z</time></trkpt><trkpt lat="43.9479132" lon="11.2109417"><ele>411.5</ele><time>2026-04-25T15:13:44.287Z</time></trkpt><trkpt lat="43.9478603" lon="11.2111504"><ele>408.0</ele><time>2026-04-25T15:13:45.281Z</time></trkpt><trkpt lat="43.9478463" lon="11.2113484"><ele>404.5</ele><time>2026-04-25T15:13:46.322Z</time></trkpt><trkpt lat="43.9478159" lon="11.2115308"><ele>401.0</ele><time>2026-04-25T15:13:47.31Z</time></trkpt><trkpt lat="43.9477704" lon="11.2116827"><ele>400.66666666666663</ele><time>2026-04-25T15:13:48.325Z</time></trkpt><trkpt lat="43.9476912" lon="11.2118366"><ele>400.33333333333337</ele><time>2026-04-25T15:13:49.314Z</time></trkpt><trkpt lat="43.9475767" lon="11.2119734"><ele>400.0</ele><time>2026-04-25T15:13:50.33Z</time></trkpt><trkpt lat="43.947423" lon="11.2121172"><ele>403.0</ele><time>2026-04-25T15:13:51.313Z</time></trkpt><trkpt lat="43.947274" lon="11.2122745"><ele>406.0</ele><time>2026-04-25T15:13:52.3Z</time></trkpt><trkpt lat="43.9471342" lon="11.2124799"><ele>409.0</ele><time>2026-04-25T15:13:53.325Z</time></trkpt><trkpt lat="43.9470447" lon="11.2126931"><ele>409.0</ele><time>2026-04-25T15:13:54.324Z</time></trkpt><trkpt lat="43.9469468" lon="11.2128745"><ele>409.0</ele><time>2026-04-25T15:13:55.302Z</time></trkpt><trkpt lat="43.9468334" lon="11.2130131"><ele>409.0</ele><time>2026-04-25T15:13:56.314Z</time></trkpt><trkpt lat="43.9466882" lon="11.2131054"><ele>412.0</ele><time>2026-04-25T15:13:57.29Z</time></trkpt><trkpt lat="43.9465168" lon="11.2131298"><ele>415.0</ele><time>2026-04-25T15:13:58.313Z</time></trkpt><trkpt lat="43.9463324" lon="11.2131809"><ele>418.0</ele><time>2026-04-25T15:13:59.307Z</time></trkpt><trkpt lat="43.9461655" lon="11.2132358"><ele>418.0</ele><time>2026-04-25T15:14:00.319Z</time></trkpt><trkpt lat="43.9460216" lon="11.2133021"><ele>418.0</ele><time>2026-04-25T15:14:01.315Z</time></trkpt><trkpt lat="43.9458886" lon="11.2133785"><ele>418.0</ele><time>2026-04-25T15:14:02.297Z</time></trkpt><trkpt lat="43.9457667" lon="11.2134558"><ele>418.0</ele><time>2026-04-25T15:14:03.312Z</time></trkpt><trkpt lat="43.9456548" lon="11.2135391"><ele>420.75</ele><time>2026-04-25T15:14:04.314Z</time></trkpt><trkpt lat="43.9455497" lon="11.2136133"><ele>423.5</ele><time>2026-04-25T15:14:05.311Z</time></trkpt><trkpt lat="43.9454424" lon="11.2136702"><ele>426.25</ele><time>2026-04-25T15:14:06.314Z</time></trkpt><trkpt lat="43.9453267" lon="11.213726"><ele>429.0</ele><time>2026-04-25T15:14:07.308Z</time></trkpt><trkpt lat="43.9452075" lon="11.2137486"><ele>429.0</ele><time>2026-04-25T15:14:08.307Z</time></trkpt><trkpt lat="43.9450872" lon="11.2137475"><ele>429.0</ele><time>2026-04-25T15:14:09.32Z</time></trkpt><trkpt lat="43.9449781" lon="11.2137381"><ele>429.0</ele><time>2026-04-25T15:14:10.322Z</time></trkpt><trkpt lat="43.9448783" lon="11.2137499"><ele>429.0</ele><time>2026-04-25T15:14:11.321Z</time></trkpt><trkpt lat="43.9447794" lon="11.2138365"><ele>429.0</ele><time>2026-04-25T15:14:12.316Z</time></trkpt><trkpt lat="43.9446923" lon="11.2139719"><ele>428.33333333333337</ele><time>2026-04-25T15:14:13.316Z</time></trkpt><trkpt lat="43.9445965" lon="11.2141375"><ele>427.6666666666667</ele><time>2026-04-25T15:14:14.304Z</time></trkpt><trkpt lat="43.9444964" lon="11.2142915"><ele>427.0</ele><time>2026-04-25T15:14:15.322Z</time></trkpt><trkpt lat="43.9443935" lon="11.2144562"><ele>427.0</ele><time>2026-04-25T15:14:16.307Z</time></trkpt><trkpt lat="43.9442943" lon="11.2146233"><ele>427.0</ele><time>2026-04-25T15:14:17.317Z</time></trkpt><trkpt lat="43.9441949" lon="11.2147919"><ele>427.0</ele><time>2026-04-25T15:14:18.329Z</time></trkpt><trkpt lat="43.9440929" lon="11.2149594"><ele>425.0</ele><time>2026-04-25T15:14:19.312Z</time></trkpt><trkpt lat="43.943989" lon="11.2151246"><ele>423.0</ele><time>2026-04-25T15:14:20.316Z</time></trkpt><trkpt lat="43.9438902" lon="11.2152832"><ele>421.0</ele><time>2026-04-25T15:14:21.307Z</time></trkpt><trkpt lat="43.9437944" lon="11.2154388"><ele>421.0</ele><time>2026-04-25T15:14:22.311Z</time></trkpt><trkpt lat="43.9436886" lon="11.2155841"><ele>421.0</ele><time>2026-04-25T15:14:23.315Z</time></trkpt><trkpt lat="43.9435784" lon="11.2157156"><ele>421.0</ele><time>2026-04-25T15:14:24.302Z</time></trkpt><trkpt lat="43.943452" lon="11.2158251"><ele>421.0</ele><time>2026-04-25T15:14:25.309Z</time></trkpt><trkpt lat="43.943267" lon="11.2158818"><ele>418.6666666666667</ele><time>2026-04-25T15:14:26.306Z</time></trkpt><trkpt lat="43.9430801" lon="11.215945"><ele>416.33333333333337</ele><time>2026-04-25T15:14:27.307Z</time></trkpt><trkpt lat="43.9429038" lon="11.2160329"><ele>414.0</ele><time>2026-04-25T15:14:28.312Z</time></trkpt><trkpt lat="43.9427327" lon="11.2161303"><ele>414.0</ele><time>2026-04-25T15:14:29.302Z</time></trkpt><trkpt lat="43.9425698" lon="11.216221"><ele>414.0</ele><time>2026-04-25T15:14:30.29Z</time></trkpt><trkpt lat="43.9424143" lon="11.2163138"><ele>414.0</ele><time>2026-04-25T15:14:31.304Z</time></trkpt><trkpt lat="43.9422635" lon="11.2164348"><ele>413.0</ele><time>2026-04-25T15:14:32.302Z</time></trkpt><trkpt lat="43.9421555" lon="11.2165999"><ele>412.0</ele><time>2026-04-25T15:14:33.3Z</time></trkpt><trkpt lat="43.9420726" lon="11.2167759"><ele>411.0</ele><time>2026-04-25T15:14:34.293Z</time></trkpt><trkpt lat="43.9419998" lon="11.2169264"><ele>410.0</ele><time>2026-04-25T15:14:35.321Z</time></trkpt><trkpt lat="43.9419218" lon="11.2170248"><ele>410.0</ele><time>2026-04-25T15:14:36.309Z</time></trkpt><trkpt lat="43.9418112" lon="11.2170962"><ele>410.0</ele><time>2026-04-25T15:14:37.312Z</time></trkpt><trkpt lat="43.9416897" lon="11.2170812"><ele>410.0</ele><time>2026-04-25T15:14:38.309Z</time></trkpt><trkpt lat="43.9415826" lon="11.2170126"><ele>410.0</ele><time>2026-04-25T15:14:39.308Z</time></trkpt><trkpt lat="43.9415049" lon="11.2168677"><ele>407.0</ele><time>2026-04-25T15:14:40.308Z</time></trkpt><trkpt lat="43.9414745" lon="11.216676"><ele>404.0</ele><time>2026-04-25T15:14:41.306Z</time></trkpt><trkpt lat="43.9414896" lon="11.2164763"><ele>401.0</ele><time>2026-04-25T15:14:42.311Z</time></trkpt><trkpt lat="43.9415352" lon="11.216276"><ele>398.0</ele><time>2026-04-25T15:14:43.316Z</time></trkpt><trkpt lat="43.9416099" lon="11.2161012"><ele>399.0</ele><time>2026-04-25T15:14:44.305Z</time></trkpt><trkpt lat="43.9416974" lon="11.215977"><ele>400.0</ele><time>2026-04-25T15:14:45.293Z</time></trkpt><trkpt lat="43.9418106" lon="11.2159041"><ele>401.0</ele><time>2026-04-25T15:14:46.313Z</time></trkpt><trkpt lat="43.9419296" lon="11.2158509"><ele>402.0</ele><time>2026-04-25T15:14:47.299Z</time></trkpt><trkpt lat="43.9420184" lon="11.2157537"><ele>400.6</ele><time>2026-04-25T15:14:48.317Z</time></trkpt><trkpt lat="43.9420504" lon="11.2156079"><ele>399.20000000000005</ele><time>2026-04-25T15:14:49.307Z</time></trkpt><trkpt lat="43.9420346" lon="11.2154575"><ele>397.8</ele><time>2026-04-25T15:14:50.304Z</time></trkpt><trkpt lat="43.9419951" lon="11.2153107"><ele>396.4</ele><time>2026-04-25T15:14:51.302Z</time></trkpt><trkpt lat="43.9419168" lon="11.2151973"><ele>395.0</ele><time>2026-04-25T15:14:52.314Z</time></trkpt><trkpt lat="43.9418229" lon="11.2151524"><ele>392.0</ele><time>2026-04-25T15:14:53.305Z</time></trkpt><trkpt lat="43.9416958" lon="11.2151632"><ele>389.0</ele><time>2026-04-25T15:14:54.308Z</time></trkpt><trkpt lat="43.9415632" lon="11.2152345"><ele>386.0</ele><time>2026-04-25T15:14:55.302Z</time></trkpt><trkpt lat="43.9414204" lon="11.2153216"><ele>383.0</ele><time>2026-04-25T15:14:56.308Z</time></trkpt><trkpt lat="43.9412591" lon="11.2153961"><ele>383.0</ele><time>2026-04-25T15:14:57.298Z</time></trkpt><trkpt lat="43.9410933" lon="11.2154668"><ele>383.0</ele><time>2026-04-25T15:14:58.313Z</time></trkpt><trkpt lat="43.9409248" lon="11.2155445"><ele>383.0</ele><time>2026-04-25T15:14:59.307Z</time></trkpt><trkpt lat="43.9407556" lon="11.2156241"><ele>382.0</ele><time>2026-04-25T15:15:00.315Z</time></trkpt><trkpt lat="43.9405864" lon="11.2156988"><ele>381.0</ele><time>2026-04-25T15:15:01.32Z</time></trkpt><trkpt lat="43.9404151" lon="11.2157608"><ele>380.0</ele><time>2026-04-25T15:15:02.309Z</time></trkpt><trkpt lat="43.9402438" lon="11.215815"><ele>380.0</ele><time>2026-04-25T15:15:03.31Z</time></trkpt><trkpt lat="43.9400788" lon="11.2158638"><ele>380.0</ele><time>2026-04-25T15:15:04.319Z</time></trkpt><trkpt lat="43.9399167" lon="11.215907"><ele>380.0</ele><time>2026-04-25T15:15:05.311Z</time></trkpt><trkpt lat="43.9397426" lon="11.2159432"><ele>377.33333333333337</ele><time>2026-04-25T15:15:06.294Z</time></trkpt><trkpt lat="43.9395724" lon="11.2159663"><ele>374.6666666666667</ele><time>2026-04-25T15:15:07.307Z</time></trkpt><trkpt lat="43.939409" lon="11.215956"><ele>372.0</ele><time>2026-04-25T15:15:08.314Z</time></trkpt><trkpt lat="43.9392539" lon="11.2158859"><ele>369.6666666666667</ele><time>2026-04-25T15:15:09.321Z</time></trkpt><trkpt lat="43.9391058" lon="11.2157677"><ele>367.33333333333337</ele><time>2026-04-25T15:15:10.307Z</time></trkpt><trkpt lat="43.9389535" lon="11.2156651"><ele>365.0</ele><time>2026-04-25T15:15:11.309Z</time></trkpt><trkpt lat="43.9387958" lon="11.2155768"><ele>361.33333333333337</ele><time>2026-04-25T15:15:12.312Z</time></trkpt><trkpt lat="43.9386228" lon="11.2154937"><ele>357.6666666666667</ele><time>2026-04-25T15:15:13.308Z</time></trkpt><trkpt lat="43.9384454" lon="11.2154122"><ele>354.0</ele><time>2026-04-25T15:15:14.3Z</time></trkpt><trkpt lat="43.9382729" lon="11.2153332"><ele>352.6666666666667</ele><time>2026-04-25T15:15:15.317Z</time></trkpt><trkpt lat="43.9380912" lon="11.2152649"><ele>351.33333333333337</ele><time>2026-04-25T15:15:16.304Z</time></trkpt><trkpt lat="43.9379043" lon="11.2151891"><ele>350.0</ele><time>2026-04-25T15:15:17.324Z</time></trkpt><trkpt lat="43.9377251" lon="11.2151266"><ele>350.6666666666667</ele><time>2026-04-25T15:15:18.313Z</time></trkpt><trkpt lat="43.9375502" lon="11.2150929"><ele>351.3333333333333</ele><time>2026-04-25T15:15:19.306Z</time></trkpt><trkpt lat="43.9373774" lon="11.2150703"><ele>352.0</ele><time>2026-04-25T15:15:20.313Z</time></trkpt><trkpt lat="43.9372303" lon="11.2150123"><ele>352.0</ele><time>2026-04-25T15:15:21.308Z</time></trkpt><trkpt lat="43.9371142" lon="11.2148831"><ele>352.0</ele><time>2026-04-25T15:15:22.308Z</time></trkpt><trkpt lat="43.9370121" lon="11.2147376"><ele>352.0</ele><time>2026-04-25T15:15:23.306Z</time></trkpt><trkpt lat="43.936902" lon="11.2145941"><ele>352.0</ele><time>2026-04-25T15:15:24.322Z</time></trkpt><trkpt lat="43.9367766" lon="11.2144941"><ele>346.66666666666663</ele><time>2026-04-25T15:15:25.312Z</time></trkpt><trkpt lat="43.9366332" lon="11.2144608"><ele>341.3333333333333</ele><time>2026-04-25T15:15:26.313Z</time></trkpt><trkpt lat="43.9364686" lon="11.2144889"><ele>336.0</ele><time>2026-04-25T15:15:27.308Z</time></trkpt><trkpt lat="43.9363074" lon="11.2145023"><ele>336.0</ele><time>2026-04-25T15:15:28.296Z</time></trkpt><trkpt lat="43.9361394" lon="11.2145148"><ele>336.0</ele><time>2026-04-25T15:15:29.301Z</time></trkpt><trkpt lat="43.9359782" lon="11.2144824"><ele>336.0</ele><time>2026-04-25T15:15:30.294Z</time></trkpt><trkpt lat="43.9358178" lon="11.2143837"><ele>335.6666666666667</ele><time>2026-04-25T15:15:31.309Z</time></trkpt><trkpt lat="43.9356708" lon="11.2142627"><ele>335.33333333333337</ele><time>2026-04-25T15:15:32.316Z</time></trkpt><trkpt lat="43.93553" lon="11.2141364"><ele>335.0</ele><time>2026-04-25T15:15:33.297Z</time></trkpt><trkpt lat="43.935397" lon="11.2140079"><ele>328.0</ele><time>2026-04-25T15:15:34.323Z</time></trkpt><trkpt lat="43.9352372" lon="11.2138982"><ele>321.0</ele><time>2026-04-25T15:15:35.322Z</time></trkpt><trkpt lat="43.9350586" lon="11.2138087"><ele>314.0</ele><time>2026-04-25T15:15:36.304Z</time></trkpt><trkpt lat="43.9348686" lon="11.2137377"><ele>314.0</ele><time>2026-04-25T15:15:37.314Z</time></trkpt><trkpt lat="43.9346792" lon="11.2136717"><ele>314.0</ele><time>2026-04-25T15:15:38.304Z</time></trkpt><trkpt lat="43.9344963" lon="11.2135945"><ele>314.0</ele><time>2026-04-25T15:15:39.308Z</time></trkpt><trkpt lat="43.9343127" lon="11.2135148"><ele>315.33333333333337</ele><time>2026-04-25T15:15:40.328Z</time></trkpt><trkpt lat="43.9341387" lon="11.2134386"><ele>316.6666666666667</ele><time>2026-04-25T15:15:41.325Z</time></trkpt><trkpt lat="43.933986" lon="11.2133767"><ele>318.0</ele><time>2026-04-25T15:15:42.306Z</time></trkpt><trkpt lat="43.9338489" lon="11.2132985"><ele>318.0</ele><time>2026-04-25T15:15:43.323Z</time></trkpt><trkpt lat="43.9337099" lon="11.2132257"><ele>318.0</ele><time>2026-04-25T15:15:44.324Z</time></trkpt><trkpt lat="43.933556" lon="11.2131229"><ele>318.0</ele><time>2026-04-25T15:15:45.317Z</time></trkpt><trkpt lat="43.9334153" lon="11.212985"><ele>312.3333333333333</ele><time>2026-04-25T15:15:46.303Z</time></trkpt><trkpt lat="43.9333014" lon="11.2128194"><ele>306.66666666666663</ele><time>2026-04-25T15:15:47.313Z</time></trkpt><trkpt lat="43.9331944" lon="11.2126575"><ele>301.0</ele><time>2026-04-25T15:15:48.31Z</time></trkpt><trkpt lat="43.9330769" lon="11.2125528"><ele>301.0</ele><time>2026-04-25T15:15:49.304Z</time></trkpt><trkpt lat="43.9329508" lon="11.2124965"><ele>301.0</ele><time>2026-04-25T15:15:50.307Z</time></trkpt><trkpt lat="43.9328233" lon="11.2125056"><ele>301.0</ele><time>2026-04-25T15:15:51.291Z</time></trkpt><trkpt lat="43.9326961" lon="11.2125346"><ele>301.0</ele><time>2026-04-25T15:15:52.317Z</time></trkpt><trkpt lat="43.9325733" lon="11.2125246"><ele>303.66666666666663</ele><time>2026-04-25T15:15:53.307Z</time></trkpt><trkpt lat="43.9324366" lon="11.2124623"><ele>306.3333333333333</ele><time>2026-04-25T15:15:54.305Z</time></trkpt><trkpt lat="43.9323382" lon="11.2123056"><ele>309.0</ele><time>2026-04-25T15:15:55.305Z</time></trkpt><trkpt lat="43.932243" lon="11.2121115"><ele>298.6666666666667</ele><time>2026-04-25T15:15:56.301Z</time></trkpt><trkpt lat="43.9321391" lon="11.2119179"><ele>288.33333333333337</ele><time>2026-04-25T15:15:57.298Z</time></trkpt><trkpt lat="43.9320007" lon="11.2117478"><ele>278.0</ele><time>2026-04-25T15:15:58.306Z</time></trkpt><trkpt lat="43.9318453" lon="11.2116031"><ele>273.33333333333337</ele><time>2026-04-25T15:15:59.308Z</time></trkpt><trkpt lat="43.9316907" lon="11.2114645"><ele>268.6666666666667</ele><time>2026-04-25T15:16:00.307Z</time></trkpt><trkpt lat="43.9315342" lon="11.211339"><ele>264.0</ele><time>2026-04-25T15:16:01.296Z</time></trkpt><trkpt lat="43.931383" lon="11.2112047"><ele>264.0</ele><time>2026-04-25T15:16:02.305Z</time></trkpt><trkpt lat="43.9312248" lon="11.2110824"><ele>264.0</ele><time>2026-04-25T15:16:03.312Z</time></trkpt><trkpt lat="43.9310502" lon="11.2109708"><ele>264.0</ele><time>2026-04-25T15:16:04.306Z</time></trkpt><trkpt lat="43.9308778" lon="11.2108553"><ele>259.3333333333333</ele><time>2026-04-25T15:16:05.308Z</time></trkpt><trkpt lat="43.930696" lon="11.2107564"><ele>254.66666666666666</ele><time>2026-04-25T15:16:06.297Z</time></trkpt><trkpt lat="43.9305226" lon="11.2106465"><ele>250.0</ele><time>2026-04-25T15:16:07.3Z</time></trkpt><trkpt lat="43.9303493" lon="11.2105453"><ele>250.0</ele><time>2026-04-25T15:16:08.31Z</time></trkpt><trkpt lat="43.9301876" lon="11.2104332"><ele>250.0</ele><time>2026-04-25T15:16:09.31Z</time></trkpt><trkpt lat="43.930029" lon="11.210298"><ele>250.0</ele><time>2026-04-25T15:16:10.315Z</time></trkpt><trkpt lat="43.9298944" lon="11.210129"><ele>254.0</ele><time>2026-04-25T15:16:11.306Z</time></trkpt><trkpt lat="43.9297672" lon="11.2099223"><ele>258.0</ele><time>2026-04-25T15:16:12.305Z</time></trkpt><trkpt lat="43.9296279" lon="11.2097156"><ele>262.0</ele><time>2026-04-25T15:16:13.29Z</time></trkpt><trkpt lat="43.9294754" lon="11.2095245"><ele>259.0</ele><time>2026-04-25T15:16:14.3Z</time></trkpt><trkpt lat="43.9293175" lon="11.2093383"><ele>256.0</ele><time>2026-04-25T15:16:15.313Z</time></trkpt><trkpt lat="43.9291469" lon="11.2091744"><ele>253.0</ele><time>2026-04-25T15:16:16.309Z</time></trkpt><trkpt lat="43.9289745" lon="11.209017"><ele>245.0</ele><time>2026-04-25T15:16:17.325Z</time></trkpt><trkpt lat="43.9287987" lon="11.2088689"><ele>237.0</ele><time>2026-04-25T15:16:18.32Z</time></trkpt><trkpt lat="43.9286165" lon="11.2087296"><ele>229.0</ele><time>2026-04-25T15:16:19.326Z</time></trkpt><trkpt lat="43.928437" lon="11.2086055"><ele>232.33333333333331</ele><time>2026-04-25T15:16:20.309Z</time></trkpt><trkpt lat="43.928253" lon="11.2084909"><ele>235.66666666666669</ele><time>2026-04-25T15:16:21.306Z</time></trkpt><trkpt lat="43.9280782" lon="11.2083875"><ele>239.0</ele><time>2026-04-25T15:16:22.309Z</time></trkpt><trkpt lat="43.9279023" lon="11.2082909"><ele>239.0</ele><time>2026-04-25T15:16:23.307Z</time></trkpt><trkpt lat="43.9277312" lon="11.2082"><ele>239.0</ele><time>2026-04-25T15:16:24.312Z</time></trkpt><trkpt lat="43.9275624" lon="11.2081214"><ele>239.0</ele><time>2026-04-25T15:16:25.32Z</time></trkpt><trkpt lat="43.927387" lon="11.208071"><ele>232.66666666666669</ele><time>2026-04-25T15:16:26.274Z</time></trkpt><trkpt lat="43.9272014" lon="11.2080415"><ele>226.33333333333331</ele><time>2026-04-25T15:16:27.307Z</time></trkpt><trkpt lat="43.9270142" lon="11.2080254"><ele>220.0</ele><time>2026-04-25T15:16:28.307Z</time></trkpt><trkpt lat="43.9268259" lon="11.2080093"><ele>219.0</ele><time>2026-04-25T15:16:29.313Z</time></trkpt><trkpt lat="43.9266445" lon="11.2079741"><ele>218.0</ele><time>2026-04-25T15:16:30.305Z</time></trkpt><trkpt lat="43.9264714" lon="11.2079513"><ele>217.0</ele><time>2026-04-25T15:16:31.309Z</time></trkpt><trkpt lat="43.9262993" lon="11.2079072"><ele>217.0</ele><time>2026-04-25T15:16:32.298Z</time></trkpt><trkpt lat="43.9261264" lon="11.2078603"><ele>217.0</ele><time>2026-04-25T15:16:33.313Z</time></trkpt><trkpt lat="43.9259521" lon="11.2078166"><ele>217.0</ele><time>2026-04-25T15:16:34.318Z</time></trkpt><trkpt lat="43.9257725" lon="11.2077784"><ele>216.33333333333331</ele><time>2026-04-25T15:16:35.303Z</time></trkpt><trkpt lat="43.9255919" lon="11.2077581"><ele>215.66666666666669</ele><time>2026-04-25T15:16:36.295Z</time></trkpt><trkpt lat="43.9254095" lon="11.207754"><ele>215.0</ele><time>2026-04-25T15:16:37.305Z</time></trkpt><trkpt lat="43.9252389" lon="11.2077638"><ele>215.0</ele><time>2026-04-25T15:16:38.313Z</time></trkpt><trkpt lat="43.9250683" lon="11.2078115"><ele>215.0</ele><time>2026-04-25T15:16:39.324Z</time></trkpt><trkpt lat="43.9249116" lon="11.2078824"><ele>215.0</ele><time>2026-04-25T15:16:40.314Z</time></trkpt><trkpt lat="43.9247744" lon="11.2080057"><ele>218.0</ele><time>2026-04-25T15:16:41.303Z</time></trkpt><trkpt lat="43.9246594" lon="11.2081482"><ele>221.0</ele><time>2026-04-25T15:16:42.311Z</time></trkpt><trkpt lat="43.9245319" lon="11.2082764"><ele>224.0</ele><time>2026-04-25T15:16:43.315Z</time></trkpt><trkpt lat="43.9243794" lon="11.2083752"><ele>216.66666666666669</ele><time>2026-04-25T15:16:44.303Z</time></trkpt><trkpt lat="43.9241996" lon="11.2084293"><ele>209.33333333333331</ele><time>2026-04-25T15:16:45.303Z</time></trkpt><trkpt lat="43.9240212" lon="11.208415"><ele>202.0</ele><time>2026-04-25T15:16:46.31Z</time></trkpt><trkpt lat="43.923858" lon="11.2083394"><ele>202.0</ele><time>2026-04-25T15:16:47.298Z</time></trkpt><trkpt lat="43.9237075" lon="11.2082209"><ele>202.0</ele><time>2026-04-25T15:16:48.311Z</time></trkpt><trkpt lat="43.9235621" lon="11.2080575"><ele>202.0</ele><time>2026-04-25T15:16:49.31Z</time></trkpt><trkpt lat="43.9234256" lon="11.2078909"><ele>201.33333333333331</ele><time>2026-04-25T15:16:50.31Z</time></trkpt><trkpt lat="43.9233029" lon="11.2077005"><ele>200.66666666666669</ele><time>2026-04-25T15:16:51.312Z</time></trkpt><trkpt lat="43.9231792" lon="11.2074991"><ele>200.0</ele><time>2026-04-25T15:16:52.314Z</time></trkpt><trkpt lat="43.9230483" lon="11.2073005"><ele>197.33333333333334</ele><time>2026-04-25T15:16:53.297Z</time></trkpt><trkpt lat="43.9229292" lon="11.2071033"><ele>194.66666666666669</ele><time>2026-04-25T15:16:54.31Z</time></trkpt><trkpt lat="43.9228214" lon="11.2069211"><ele>192.0</ele><time>2026-04-25T15:16:55.304Z</time></trkpt><trkpt lat="43.9227306" lon="11.2067309"><ele>192.0</ele><time>2026-04-25T15:16:56.294Z</time></trkpt><trkpt lat="43.9226536" lon="11.2065439"><ele>192.0</ele><time>2026-04-25T15:16:57.31Z</time></trkpt><trkpt lat="43.9225829" lon="11.2063639"><ele>192.0</ele><time>2026-04-25T15:16:58.308Z</time></trkpt><trkpt lat="43.9225137" lon="11.206174"><ele>194.0</ele><time>2026-04-25T15:16:59.315Z</time></trkpt><trkpt lat="43.9224423" lon="11.2059713"><ele>196.0</ele><time>2026-04-25T15:17:00.304Z</time></trkpt><trkpt lat="43.9223707" lon="11.205772"><ele>198.0</ele><time>2026-04-25T15:17:01.314Z</time></trkpt><trkpt lat="43.9223082" lon="11.2055757"><ele>198.0</ele><time>2026-04-25T15:17:02.306Z</time></trkpt><trkpt lat="43.9222401" lon="11.2053803"><ele>198.0</ele><time>2026-04-25T15:17:03.327Z</time></trkpt><trkpt lat="43.9221698" lon="11.2051849"><ele>198.0</ele><time>2026-04-25T15:17:04.322Z</time></trkpt><trkpt lat="43.9220987" lon="11.2049853"><ele>196.0</ele><time>2026-04-25T15:17:05.285Z</time></trkpt><trkpt lat="43.9220165" lon="11.2047743"><ele>194.0</ele><time>2026-04-25T15:17:06.312Z</time></trkpt><trkpt lat="43.9219321" lon="11.2045512"><ele>192.0</ele><time>2026-04-25T15:17:07.311Z</time></trkpt><trkpt lat="43.9218301" lon="11.2043425"><ele>193.33333333333331</ele><time>2026-04-25T15:17:08.295Z</time></trkpt><trkpt lat="43.9217074" lon="11.2041501"><ele>194.66666666666666</ele><time>2026-04-25T15:17:09.309Z</time></trkpt><trkpt lat="43.9215588" lon="11.2039851"><ele>196.0</ele><time>2026-04-25T15:17:10.31Z</time></trkpt><trkpt lat="43.921394" lon="11.2038531"><ele>196.0</ele><time>2026-04-25T15:17:11.317Z</time></trkpt><trkpt lat="43.9212262" lon="11.2037332"><ele>196.0</ele><time>2026-04-25T15:17:12.318Z</time></trkpt><trkpt lat="43.9210601" lon="11.2036163"><ele>196.0</ele><time>2026-04-25T15:17:13.291Z</time></trkpt><trkpt lat="43.9209083" lon="11.2034857"><ele>197.0</ele><time>2026-04-25T15:17:14.302Z</time></trkpt><trkpt lat="43.9207746" lon="11.2033224"><ele>198.0</ele><time>2026-04-25T15:17:15.314Z</time></trkpt><trkpt lat="43.9206513" lon="11.2031435"><ele>199.0</ele><time>2026-04-25T15:17:16.321Z</time></trkpt><trkpt lat="43.920541" lon="11.2029619"><ele>199.0</ele><time>2026-04-25T15:17:17.308Z</time></trkpt><trkpt lat="43.9204469" lon="11.2027627"><ele>199.0</ele><time>2026-04-25T15:17:18.314Z</time></trkpt><trkpt lat="43.9203599" lon="11.2025531"><ele>199.0</ele><time>2026-04-25T15:17:19.312Z</time></trkpt><trkpt lat="43.9202775" lon="11.2023343"><ele>198.66666666666666</ele><time>2026-04-25T15:17:20.314Z</time></trkpt><trkpt lat="43.9201841" lon="11.2021156"><ele>198.33333333333331</ele><time>2026-04-25T15:17:21.302Z</time></trkpt><trkpt lat="43.9200807" lon="11.2018942"><ele>198.0</ele><time>2026-04-25T15:17:22.308Z</time></trkpt><trkpt lat="43.9199498" lon="11.2016624"><ele>191.5</ele><time>2026-04-25T15:17:23.309Z</time></trkpt><trkpt lat="43.9198017" lon="11.2014264"><ele>185.0</ele><time>2026-04-25T15:17:24.3Z</time></trkpt><trkpt lat="43.91965" lon="11.2011829"><ele>185.0</ele><time>2026-04-25T15:17:25.309Z</time></trkpt><trkpt lat="43.9195018" lon="11.2009528"><ele>185.0</ele><time>2026-04-25T15:17:26.318Z</time></trkpt><trkpt lat="43.9193528" lon="11.2007447"><ele>185.0</ele><time>2026-04-25T15:17:27.31Z</time></trkpt><trkpt lat="43.9192116" lon="11.2005484"><ele>184.33333333333331</ele><time>2026-04-25T15:17:28.33Z</time></trkpt><trkpt lat="43.9190753" lon="11.2003627"><ele>183.66666666666666</ele><time>2026-04-25T15:17:29.321Z</time></trkpt><trkpt lat="43.918942" lon="11.200172"><ele>183.0</ele><time>2026-04-25T15:17:30.31Z</time></trkpt><trkpt lat="43.9188122" lon="11.199963"><ele>179.66666666666666</ele><time>2026-04-25T15:17:31.307Z</time></trkpt><trkpt lat="43.9187004" lon="11.199746"><ele>176.33333333333331</ele><time>2026-04-25T15:17:32.311Z</time></trkpt><trkpt lat="43.9185874" lon="11.1995373"><ele>173.0</ele><time>2026-04-25T15:17:33.298Z</time></trkpt><trkpt lat="43.9184765" lon="11.1993358"><ele>172.33333333333331</ele><time>2026-04-25T15:17:34.298Z</time></trkpt><trkpt lat="43.9183537" lon="11.1991436"><ele>171.66666666666666</ele><time>2026-04-25T15:17:35.287Z</time></trkpt><trkpt lat="43.9182044" lon="11.1989611"><ele>171.0</ele><time>2026-04-25T15:17:36.305Z</time></trkpt><trkpt lat="43.9180302" lon="11.1987946"><ele>171.0</ele><time>2026-04-25T15:17:37.311Z</time></trkpt><trkpt lat="43.9178277" lon="11.1986404"><ele>171.0</ele><time>2026-04-25T15:17:38.28Z</time></trkpt><trkpt lat="43.9176066" lon="11.1984816"><ele>172.5</ele><time>2026-04-25T15:17:39.305Z</time></trkpt><trkpt lat="43.9173771" lon="11.1983212"><ele>174.0</ele><time>2026-04-25T15:17:40.319Z</time></trkpt><trkpt lat="43.9171443" lon="11.1981729"><ele>173.5</ele><time>2026-04-25T15:17:41.312Z</time></trkpt><trkpt lat="43.9169126" lon="11.1980291"><ele>173.0</ele><time>2026-04-25T15:17:42.324Z</time></trkpt><trkpt lat="43.9166814" lon="11.1978843"><ele>170.0</ele><time>2026-04-25T15:17:43.304Z</time></trkpt><trkpt lat="43.9164554" lon="11.1977434"><ele>167.0</ele><time>2026-04-25T15:17:44.296Z</time></trkpt><trkpt lat="43.9162363" lon="11.1976064"><ele>167.0</ele><time>2026-04-25T15:17:45.304Z</time></trkpt><trkpt lat="43.9160233" lon="11.1974806"><ele>167.0</ele><time>2026-04-25T15:17:46.308Z</time></trkpt><trkpt lat="43.9158057" lon="11.1973502"><ele>164.0</ele><time>2026-04-25T15:17:47.304Z</time></trkpt><trkpt lat="43.9155923" lon="11.1972213"><ele>161.0</ele><time>2026-04-25T15:17:48.304Z</time></trkpt><trkpt lat="43.915386" lon="11.1970939"><ele>161.0</ele><time>2026-04-25T15:17:49.316Z</time></trkpt><trkpt lat="43.9151815" lon="11.1969602"><ele>161.0</ele><time>2026-04-25T15:17:50.302Z</time></trkpt><trkpt lat="43.9149898" lon="11.1968322"><ele>161.0</ele><time>2026-04-25T15:17:51.299Z</time></trkpt><trkpt lat="43.9148063" lon="11.1967072"><ele>161.33333333333331</ele><time>2026-04-25T15:17:52.311Z</time></trkpt><trkpt lat="43.9146357" lon="11.1965839"><ele>161.66666666666666</ele><time>2026-04-25T15:17:53.299Z</time></trkpt><trkpt lat="43.9144704" lon="11.1964573"><ele>162.0</ele><time>2026-04-25T15:17:54.309Z</time></trkpt><trkpt lat="43.9143083" lon="11.1963264"><ele>161.0</ele><time>2026-04-25T15:17:55.313Z</time></trkpt><trkpt lat="43.9141511" lon="11.1961837"><ele>160.0</ele><time>2026-04-25T15:17:56.285Z</time></trkpt><trkpt lat="43.914004" lon="11.1960179"><ele>159.0</ele><time>2026-04-25T15:17:57.309Z</time></trkpt><trkpt lat="43.9138734" lon="11.1958348"><ele>157.66666666666666</ele><time>2026-04-25T15:17:58.306Z</time></trkpt><trkpt lat="43.9137492" lon="11.1956512"><ele>156.33333333333331</ele><time>2026-04-25T15:17:59.299Z</time></trkpt><trkpt lat="43.9136176" lon="11.1954629"><ele>155.0</ele><time>2026-04-25T15:18:00.29Z</time></trkpt><trkpt lat="43.9134751" lon="11.1952899"><ele>156.0</ele><time>2026-04-25T15:18:01.322Z</time></trkpt><trkpt lat="43.913298" lon="11.1951554"><ele>157.0</ele><time>2026-04-25T15:18:02.299Z</time></trkpt><trkpt lat="43.9131101" lon="11.1950231"><ele>158.0</ele><time>2026-04-25T15:18:03.304Z</time></trkpt><trkpt lat="43.9129129" lon="11.1948881"><ele>155.0</ele><time>2026-04-25T15:18:04.303Z</time></trkpt><trkpt lat="43.9127077" lon="11.1947384"><ele>152.0</ele><time>2026-04-25T15:18:05.301Z</time></trkpt><trkpt lat="43.9125021" lon="11.1945891"><ele>152.0</ele><time>2026-04-25T15:18:06.309Z</time></trkpt><trkpt lat="43.9123072" lon="11.1944406"><ele>152.0</ele><time>2026-04-25T15:18:07.314Z</time></trkpt><trkpt lat="43.9121215" lon="11.1943129"><ele>152.0</ele><time>2026-04-25T15:18:08.29Z</time></trkpt><trkpt lat="43.9119412" lon="11.1941849"><ele>152.0</ele><time>2026-04-25T15:18:09.324Z</time></trkpt><trkpt lat="43.9117653" lon="11.194064"><ele>152.0</ele><time>2026-04-25T15:18:10.306Z</time></trkpt><trkpt lat="43.9116043" lon="11.1939514"><ele>152.0</ele><time>2026-04-25T15:18:11.315Z</time></trkpt><trkpt lat="43.9114403" lon="11.1938409"><ele>151.33333333333331</ele><time>2026-04-25T15:18:12.301Z</time></trkpt><trkpt lat="43.911277" lon="11.1937245"><ele>150.66666666666666</ele><time>2026-04-25T15:18:13.319Z</time></trkpt><trkpt lat="43.9111046" lon="11.1936132"><ele>150.0</ele><time>2026-04-25T15:18:14.291Z</time></trkpt><trkpt lat="43.9109351" lon="11.193503"><ele>149.0</ele><time>2026-04-25T15:18:15.294Z</time></trkpt><trkpt lat="43.9107655" lon="11.1933969"><ele>148.0</ele><time>2026-04-25T15:18:16.31Z</time></trkpt><trkpt lat="43.9105957" lon="11.1932823"><ele>147.0</ele><time>2026-04-25T15:18:17.306Z</time></trkpt><trkpt lat="43.9104216" lon="11.1931541"><ele>147.0</ele><time>2026-04-25T15:18:18.305Z</time></trkpt><trkpt lat="43.9102414" lon="11.1930225"><ele>147.0</ele><time>2026-04-25T15:18:19.301Z</time></trkpt><trkpt lat="43.9100553" lon="11.1928871"><ele>147.0</ele><time>2026-04-25T15:18:20.304Z</time></trkpt><trkpt lat="43.9098653" lon="11.1927513"><ele>146.0</ele><time>2026-04-25T15:18:21.308Z</time></trkpt><trkpt lat="43.9096735" lon="11.1926132"><ele>145.0</ele><time>2026-04-25T15:18:22.301Z</time></trkpt><trkpt lat="43.9094839" lon="11.1924886"><ele>144.0</ele><time>2026-04-25T15:18:23.321Z</time></trkpt><trkpt lat="43.9092911" lon="11.1923685"><ele>143.33333333333334</ele><time>2026-04-25T15:18:24.316Z</time></trkpt><trkpt lat="43.909094" lon="11.1922687"><ele>142.66666666666669</ele><time>2026-04-25T15:18:25.327Z</time></trkpt><trkpt lat="43.9088832" lon="11.1922007"><ele>142.0</ele><time>2026-04-25T15:18:26.32Z</time></trkpt><trkpt lat="43.9086748" lon="11.1921566"><ele>142.0</ele><time>2026-04-25T15:18:27.309Z</time></trkpt><trkpt lat="43.9084758" lon="11.1921173"><ele>142.0</ele><time>2026-04-25T15:18:28.309Z</time></trkpt><trkpt lat="43.908285" lon="11.1920824"><ele>142.0</ele><time>2026-04-25T15:18:29.325Z</time></trkpt><trkpt lat="43.9081003" lon="11.1920164"><ele>141.66666666666669</ele><time>2026-04-25T15:18:30.304Z</time></trkpt><trkpt lat="43.9079128" lon="11.1919054"><ele>141.33333333333334</ele><time>2026-04-25T15:18:31.311Z</time></trkpt><trkpt lat="43.9077228" lon="11.1917674"><ele>141.0</ele><time>2026-04-25T15:18:32.308Z</time></trkpt><trkpt lat="43.9075282" lon="11.1916106"><ele>139.0</ele><time>2026-04-25T15:18:33.308Z</time></trkpt><trkpt lat="43.9073377" lon="11.1914469"><ele>137.0</ele><time>2026-04-25T15:18:34.294Z</time></trkpt><trkpt lat="43.9071467" lon="11.1912792"><ele>137.0</ele><time>2026-04-25T15:18:35.302Z</time></trkpt><trkpt lat="43.9069528" lon="11.1911207"><ele>137.0</ele><time>2026-04-25T15:18:36.305Z</time></trkpt><trkpt lat="43.9067606" lon="11.1909886"><ele>137.0</ele><time>2026-04-25T15:18:37.31Z</time></trkpt><trkpt lat="43.9065705" lon="11.1908963"><ele>136.33333333333331</ele><time>2026-04-25T15:18:38.31Z</time></trkpt><trkpt lat="43.9063835" lon="11.190801"><ele>135.66666666666666</ele><time>2026-04-25T15:18:39.306Z</time></trkpt><trkpt lat="43.9062018" lon="11.1906702"><ele>135.0</ele><time>2026-04-25T15:18:40.302Z</time></trkpt><trkpt lat="43.906012" lon="11.1905202"><ele>133.66666666666666</ele><time>2026-04-25T15:18:41.312Z</time></trkpt><trkpt lat="43.9058279" lon="11.1903684"><ele>132.33333333333331</ele><time>2026-04-25T15:18:42.316Z</time></trkpt><trkpt lat="43.9056415" lon="11.1902143"><ele>131.0</ele><time>2026-04-25T15:18:43.299Z</time></trkpt><trkpt lat="43.9054537" lon="11.1900564"><ele>131.0</ele><time>2026-04-25T15:18:44.297Z</time></trkpt><trkpt lat="43.9052726" lon="11.1899024"><ele>131.0</ele><time>2026-04-25T15:18:45.315Z</time></trkpt><trkpt lat="43.9050943" lon="11.1897557"><ele>131.0</ele><time>2026-04-25T15:18:46.314Z</time></trkpt><trkpt lat="43.9049288" lon="11.1896054"><ele>130.0</ele><time>2026-04-25T15:18:47.312Z</time></trkpt><trkpt lat="43.9047683" lon="11.1894672"><ele>129.0</ele><time>2026-04-25T15:18:48.292Z</time></trkpt><trkpt lat="43.90461" lon="11.1893475"><ele>128.0</ele><time>2026-04-25T15:18:49.316Z</time></trkpt><trkpt lat="43.9044449" lon="11.1892586"><ele>128.0</ele><time>2026-04-25T15:18:50.329Z</time></trkpt><trkpt lat="43.9042474" lon="11.1892388"><ele>128.0</ele><time>2026-04-25T15:18:51.318Z</time></trkpt><trkpt lat="43.9040388" lon="11.1892173"><ele>128.0</ele><time>2026-04-25T15:18:52.299Z</time></trkpt><trkpt lat="43.9038212" lon="11.1892014"><ele>128.0</ele><time>2026-04-25T15:18:53.297Z</time></trkpt><trkpt lat="43.9036051" lon="11.1891724"><ele>128.0</ele><time>2026-04-25T15:18:54.299Z</time></trkpt><trkpt lat="43.9033854" lon="11.1891619"><ele>128.0</ele><time>2026-04-25T15:18:55.304Z</time></trkpt><trkpt lat="43.90316" lon="11.1891566"><ele>127.0</ele><time>2026-04-25T15:18:56.317Z</time></trkpt><trkpt lat="43.9029368" lon="11.1891493"><ele>126.0</ele><time>2026-04-25T15:18:57.297Z</time></trkpt><trkpt lat="43.9027134" lon="11.1891458"><ele>125.0</ele><time>2026-04-25T15:18:58.307Z</time></trkpt><trkpt lat="43.9024901" lon="11.1891413"><ele>124.33333333333333</ele><time>2026-04-25T15:18:59.304Z</time></trkpt><trkpt lat="43.9022655" lon="11.1891331"><ele>123.66666666666666</ele><time>2026-04-25T15:19:00.31Z</time></trkpt><trkpt lat="43.902045" lon="11.1891316"><ele>123.0</ele><time>2026-04-25T15:19:01.315Z</time></trkpt><trkpt lat="43.901831" lon="11.189127"><ele>122.66666666666666</ele><time>2026-04-25T15:19:02.306Z</time></trkpt><trkpt lat="43.9016255" lon="11.189119"><ele>122.33333333333333</ele><time>2026-04-25T15:19:03.298Z</time></trkpt><trkpt lat="43.901426" lon="11.189103"><ele>122.0</ele><time>2026-04-25T15:19:04.306Z</time></trkpt><trkpt lat="43.9012407" lon="11.1890729"><ele>122.0</ele><time>2026-04-25T15:19:05.308Z</time></trkpt><trkpt lat="43.9010608" lon="11.1890329"><ele>122.0</ele><time>2026-04-25T15:19:06.314Z</time></trkpt><trkpt lat="43.9008888" lon="11.1889901"><ele>122.0</ele><time>2026-04-25T15:19:07.31Z</time></trkpt><trkpt lat="43.9007157" lon="11.1889495"><ele>121.66666666666666</ele><time>2026-04-25T15:19:08.306Z</time></trkpt><trkpt lat="43.9005472" lon="11.18889"><ele>121.33333333333334</ele><time>2026-04-25T15:19:09.321Z</time></trkpt><trkpt lat="43.9003736" lon="11.1887893"><ele>121.0</ele><time>2026-04-25T15:19:10.311Z</time></trkpt><trkpt lat="43.9002165" lon="11.1886689"><ele>120.66666666666667</ele><time>2026-04-25T15:19:11.305Z</time></trkpt><trkpt lat="43.9000725" lon="11.1885425"><ele>120.33333333333334</ele><time>2026-04-25T15:19:12.305Z</time></trkpt><trkpt lat="43.8999236" lon="11.1884212"><ele>120.0</ele><time>2026-04-25T15:19:13.306Z</time></trkpt><trkpt lat="43.899782" lon="11.1883049"><ele>120.0</ele><time>2026-04-25T15:19:14.302Z</time></trkpt><trkpt lat="43.899653" lon="11.188193"><ele>120.0</ele><time>2026-04-25T15:19:15.285Z</time></trkpt><trkpt lat="43.8995178" lon="11.1880891"><ele>120.0</ele><time>2026-04-25T15:19:16.311Z</time></trkpt><trkpt lat="43.8994071" lon="11.1879998"><ele>120.0</ele><time>2026-04-25T15:19:17.316Z</time></trkpt><trkpt lat="43.8993202" lon="11.1879393"><ele>119.33333333333333</ele><time>2026-04-25T15:19:18.318Z</time></trkpt><trkpt lat="43.8992396" lon="11.1878932"><ele>118.66666666666666</ele><time>2026-04-25T15:19:19.332Z</time></trkpt><trkpt lat="43.8991588" lon="11.187858"><ele>118.0</ele><time>2026-04-25T15:19:20.308Z</time></trkpt><trkpt lat="43.8990858" lon="11.1878168"><ele>117.33333333333333</ele><time>2026-04-25T15:19:21.324Z</time></trkpt><trkpt lat="43.8990319" lon="11.1877572"><ele>116.66666666666666</ele><time>2026-04-25T15:19:22.288Z</time></trkpt><trkpt lat="43.8989771" lon="11.1877123"><ele>116.0</ele><time>2026-04-25T15:19:23.314Z</time></trkpt><trkpt lat="43.8989103" lon="11.1876988"><ele>116.0</ele><time>2026-04-25T15:19:24.317Z</time></trkpt><trkpt lat="43.8988172" lon="11.1877764"><ele>116.0</ele><time>2026-04-25T15:19:26.314Z</time></trkpt><trkpt lat="43.8987531" lon="11.1879051"><ele>116.0</ele><time>2026-04-25T15:19:28.315Z</time></trkpt><trkpt lat="43.8987009" lon="11.1879937"><ele>116.0</ele><time>2026-04-25T15:19:29.313Z</time></trkpt><trkpt lat="43.8986212" lon="11.1880748"><ele>116.0</ele><time>2026-04-25T15:19:30.326Z</time></trkpt><trkpt lat="43.8985334" lon="11.1881327"><ele>116.75</ele><time>2026-04-25T15:19:31.318Z</time></trkpt><trkpt lat="43.8984319" lon="11.1881871"><ele>117.5</ele><time>2026-04-25T15:19:32.328Z</time></trkpt><trkpt lat="43.8983111" lon="11.188231"><ele>118.25</ele><time>2026-04-25T15:19:33.315Z</time></trkpt><trkpt lat="43.8981901" lon="11.1882638"><ele>119.0</ele><time>2026-04-25T15:19:34.321Z</time></trkpt><trkpt lat="43.8980591" lon="11.1882795"><ele>120.0</ele><time>2026-04-25T15:19:35.301Z</time></trkpt><trkpt lat="43.8979221" lon="11.1882696"><ele>121.0</ele><time>2026-04-25T15:19:36.326Z</time></trkpt><trkpt lat="43.8977853" lon="11.1882527"><ele>122.0</ele><time>2026-04-25T15:19:37.303Z</time></trkpt><trkpt lat="43.8976444" lon="11.1882319"><ele>123.0</ele><time>2026-04-25T15:19:38.312Z</time></trkpt><trkpt lat="43.8975074" lon="11.1882059"><ele>121.75</ele><time>2026-04-25T15:19:39.317Z</time></trkpt><trkpt lat="43.8973694" lon="11.1881798"><ele>120.5</ele><time>2026-04-25T15:19:40.318Z</time></trkpt><trkpt lat="43.8972254" lon="11.1881488"><ele>119.25</ele><time>2026-04-25T15:19:41.322Z</time></trkpt><trkpt lat="43.8970814" lon="11.1881118"><ele>118.0</ele><time>2026-04-25T15:19:42.318Z</time></trkpt><trkpt lat="43.8969392" lon="11.1880776"><ele>118.0</ele><time>2026-04-25T15:19:43.316Z</time></trkpt><trkpt lat="43.8967903" lon="11.1880393"><ele>118.0</ele><time>2026-04-25T15:19:44.313Z</time></trkpt><trkpt lat="43.8966429" lon="11.1880066"><ele>118.0</ele><time>2026-04-25T15:19:45.296Z</time></trkpt><trkpt lat="43.8964926" lon="11.187961"><ele>119.0</ele><time>2026-04-25T15:19:46.316Z</time></trkpt><trkpt lat="43.8963451" lon="11.1879076"><ele>120.0</ele><time>2026-04-25T15:19:47.31Z</time></trkpt><trkpt lat="43.8961946" lon="11.1878497"><ele>121.0</ele><time>2026-04-25T15:19:48.315Z</time></trkpt><trkpt lat="43.8960463" lon="11.1877809"><ele>123.33333333333334</ele><time>2026-04-25T15:19:49.311Z</time></trkpt><trkpt lat="43.8958908" lon="11.1877093"><ele>125.66666666666666</ele><time>2026-04-25T15:19:50.306Z</time></trkpt><trkpt lat="43.8957395" lon="11.1876237"><ele>128.0</ele><time>2026-04-25T15:19:51.318Z</time></trkpt><trkpt lat="43.8955902" lon="11.1875314"><ele>128.0</ele><time>2026-04-25T15:19:52.324Z</time></trkpt><trkpt lat="43.8954407" lon="11.1874318"><ele>128.0</ele><time>2026-04-25T15:19:53.303Z</time></trkpt><trkpt lat="43.8953" lon="11.1873298"><ele>128.0</ele><time>2026-04-25T15:19:54.299Z</time></trkpt><trkpt lat="43.8951653" lon="11.1872161"><ele>128.0</ele><time>2026-04-25T15:19:55.293Z</time></trkpt><trkpt lat="43.8950281" lon="11.1870959"><ele>128.0</ele><time>2026-04-25T15:19:56.287Z</time></trkpt><trkpt lat="43.8948954" lon="11.1869629"><ele>128.0</ele><time>2026-04-25T15:19:57.294Z</time></trkpt><trkpt lat="43.8947675" lon="11.1868283"><ele>128.0</ele><time>2026-04-25T15:19:58.304Z</time></trkpt><trkpt lat="43.8946439" lon="11.1866857"><ele>128.0</ele><time>2026-04-25T15:19:59.302Z</time></trkpt><trkpt lat="43.8945322" lon="11.1865342"><ele>128.0</ele><time>2026-04-25T15:20:00.311Z</time></trkpt><trkpt lat="43.8944123" lon="11.1863847"><ele>126.0</ele><time>2026-04-25T15:20:01.307Z</time></trkpt><trkpt lat="43.8942946" lon="11.1862263"><ele>124.0</ele><time>2026-04-25T15:20:02.307Z</time></trkpt><trkpt lat="43.8941814" lon="11.1860578"><ele>122.0</ele><time>2026-04-25T15:20:03.309Z</time></trkpt><trkpt lat="43.8940642" lon="11.1858717"><ele>122.0</ele><time>2026-04-25T15:20:04.319Z</time></trkpt><trkpt lat="43.8939393" lon="11.1856798"><ele>122.0</ele><time>2026-04-25T15:20:05.305Z</time></trkpt><trkpt lat="43.8938147" lon="11.1854899"><ele>122.0</ele><time>2026-04-25T15:20:06.315Z</time></trkpt><trkpt lat="43.8936943" lon="11.1853047"><ele>119.33333333333333</ele><time>2026-04-25T15:20:07.322Z</time></trkpt><trkpt lat="43.8935762" lon="11.1851241"><ele>116.66666666666666</ele><time>2026-04-25T15:20:08.308Z</time></trkpt><trkpt lat="43.8934665" lon="11.1849556"><ele>114.0</ele><time>2026-04-25T15:20:09.318Z</time></trkpt><trkpt lat="43.8933655" lon="11.1847898"><ele>113.0</ele><time>2026-04-25T15:20:10.314Z</time></trkpt><trkpt lat="43.8932621" lon="11.18462"><ele>112.0</ele><time>2026-04-25T15:20:11.318Z</time></trkpt><trkpt lat="43.8931617" lon="11.1844565"><ele>111.0</ele><time>2026-04-25T15:20:12.326Z</time></trkpt><trkpt lat="43.8930655" lon="11.1842933"><ele>111.0</ele><time>2026-04-25T15:20:13.321Z</time></trkpt><trkpt lat="43.8929703" lon="11.184137"><ele>111.0</ele><time>2026-04-25T15:20:14.312Z</time></trkpt><trkpt lat="43.892872" lon="11.1839965"><ele>111.0</ele><time>2026-04-25T15:20:15.318Z</time></trkpt><trkpt lat="43.8927731" lon="11.1838663"><ele>111.0</ele><time>2026-04-25T15:20:16.314Z</time></trkpt><trkpt lat="43.8926779" lon="11.183747"><ele>110.83333333333333</ele><time>2026-04-25T15:20:17.315Z</time></trkpt><trkpt lat="43.8925913" lon="11.1836499"><ele>110.66666666666666</ele><time>2026-04-25T15:20:18.3Z</time></trkpt><trkpt lat="43.8925147" lon="11.1835662"><ele>110.5</ele><time>2026-04-25T15:20:19.322Z</time></trkpt><trkpt lat="43.8924473" lon="11.1834951"><ele>110.33333333333333</ele><time>2026-04-25T15:20:20.31Z</time></trkpt><trkpt lat="43.8923818" lon="11.1834363"><ele>110.16666666666666</ele><time>2026-04-25T15:20:21.312Z</time></trkpt><trkpt lat="43.8923268" lon="11.183387"><ele>110.0</ele><time>2026-04-25T15:20:22.314Z</time></trkpt><trkpt lat="43.8922748" lon="11.1833332"><ele>110.0</ele><time>2026-04-25T15:20:23.332Z</time></trkpt><trkpt lat="43.8922258" lon="11.1832669"><ele>110.0</ele><time>2026-04-25T15:20:24.322Z</time></trkpt><trkpt lat="43.8921749" lon="11.1831837"><ele>110.0</ele><time>2026-04-25T15:20:25.32Z</time></trkpt><trkpt lat="43.8920983" lon="11.1831315"><ele>110.0</ele><time>2026-04-25T15:20:26.306Z</time></trkpt><trkpt lat="43.8919928" lon="11.1830902"><ele>110.0</ele><time>2026-04-25T15:20:27.326Z</time></trkpt><trkpt lat="43.891878" lon="11.1830419"><ele>108.5</ele><time>2026-04-25T15:20:28.32Z</time></trkpt><trkpt lat="43.8917618" lon="11.182962"><ele>107.0</ele><time>2026-04-25T15:20:29.314Z</time></trkpt><trkpt lat="43.8916263" lon="11.1828915"><ele>105.5</ele><time>2026-04-25T15:20:30.315Z</time></trkpt><trkpt lat="43.8914736" lon="11.1828366"><ele>104.0</ele><time>2026-04-25T15:20:31.314Z</time></trkpt><trkpt lat="43.8913009" lon="11.1827797"><ele>104.0</ele><time>2026-04-25T15:20:32.309Z</time></trkpt><trkpt lat="43.8911315" lon="11.1827292"><ele>104.0</ele><time>2026-04-25T15:20:33.316Z</time></trkpt><trkpt lat="43.8909687" lon="11.1826857"><ele>104.0</ele><time>2026-04-25T15:20:34.314Z</time></trkpt><trkpt lat="43.8907969" lon="11.1826456"><ele>103.66666666666666</ele><time>2026-04-25T15:20:35.328Z</time></trkpt><trkpt lat="43.8906086" lon="11.1826207"><ele>103.33333333333334</ele><time>2026-04-25T15:20:36.302Z</time></trkpt><trkpt lat="43.8904128" lon="11.1825943"><ele>103.0</ele><time>2026-04-25T15:20:37.321Z</time></trkpt><trkpt lat="43.8902063" lon="11.1825789"><ele>102.33333333333334</ele><time>2026-04-25T15:20:38.312Z</time></trkpt><trkpt lat="43.8899827" lon="11.1825638"><ele>101.66666666666666</ele><time>2026-04-25T15:20:39.313Z</time></trkpt><trkpt lat="43.8897643" lon="11.1825394"><ele>101.0</ele><time>2026-04-25T15:20:40.312Z</time></trkpt><trkpt lat="43.8895561" lon="11.1825136"><ele>101.0</ele><time>2026-04-25T15:20:41.307Z</time></trkpt><trkpt lat="43.8893602" lon="11.1824913"><ele>101.0</ele><time>2026-04-25T15:20:42.312Z</time></trkpt><trkpt lat="43.8891827" lon="11.182472"><ele>101.0</ele><time>2026-04-25T15:20:43.324Z</time></trkpt><trkpt lat="43.8890116" lon="11.1824555"><ele>101.66666666666666</ele><time>2026-04-25T15:20:44.313Z</time></trkpt><trkpt lat="43.8888486" lon="11.1824433"><ele>102.33333333333334</ele><time>2026-04-25T15:20:45.307Z</time></trkpt><trkpt lat="43.8886889" lon="11.1824329"><ele>103.0</ele><time>2026-04-25T15:20:46.3Z</time></trkpt><trkpt lat="43.8885246" lon="11.1824114"><ele>102.66666666666667</ele><time>2026-04-25T15:20:47.324Z</time></trkpt><trkpt lat="43.888358" lon="11.1823746"><ele>102.33333333333334</ele><time>2026-04-25T15:20:48.319Z</time></trkpt><trkpt lat="43.8881827" lon="11.1823336"><ele>102.0</ele><time>2026-04-25T15:20:49.287Z</time></trkpt><trkpt lat="43.888006" lon="11.1822835"><ele>99.33333333333333</ele><time>2026-04-25T15:20:50.314Z</time></trkpt><trkpt lat="43.8878241" lon="11.1822328"><ele>96.66666666666666</ele><time>2026-04-25T15:20:51.306Z</time></trkpt><trkpt lat="43.8876502" lon="11.1821968"><ele>94.0</ele><time>2026-04-25T15:20:52.304Z</time></trkpt><trkpt lat="43.8874794" lon="11.1821664"><ele>94.0</ele><time>2026-04-25T15:20:53.317Z</time></trkpt><trkpt lat="43.8873139" lon="11.1821323"><ele>94.0</ele><time>2026-04-25T15:20:54.33Z</time></trkpt><trkpt lat="43.8871572" lon="11.1820969"><ele>94.0</ele><time>2026-04-25T15:20:55.304Z</time></trkpt><trkpt lat="43.887003" lon="11.182064"><ele>94.0</ele><time>2026-04-25T15:20:56.296Z</time></trkpt><trkpt lat="43.8868481" lon="11.1820135"><ele>94.0</ele><time>2026-04-25T15:20:57.316Z</time></trkpt><trkpt lat="43.8867057" lon="11.1819382"><ele>94.0</ele><time>2026-04-25T15:20:58.317Z</time></trkpt><trkpt lat="43.8865825" lon="11.1818534"><ele>94.0</ele><time>2026-04-25T15:20:59.316Z</time></trkpt><trkpt lat="43.8864804" lon="11.1817649"><ele>94.0</ele><time>2026-04-25T15:21:00.313Z</time></trkpt><trkpt lat="43.8863705" lon="11.1816931"><ele>94.0</ele><time>2026-04-25T15:21:01.326Z</time></trkpt><trkpt lat="43.8862501" lon="11.1816191"><ele>94.0</ele><time>2026-04-25T15:21:02.311Z</time></trkpt><trkpt lat="43.8861141" lon="11.181522"><ele>94.0</ele><time>2026-04-25T15:21:03.321Z</time></trkpt><trkpt lat="43.8859662" lon="11.1814269"><ele>93.25</ele><time>2026-04-25T15:21:04.314Z</time></trkpt><trkpt lat="43.8858225" lon="11.181336"><ele>92.5</ele><time>2026-04-25T15:21:05.322Z</time></trkpt><trkpt lat="43.885691" lon="11.1812551"><ele>91.75</ele><time>2026-04-25T15:21:06.3Z</time></trkpt><trkpt lat="43.8855632" lon="11.1811909"><ele>91.0</ele><time>2026-04-25T15:21:07.31Z</time></trkpt><trkpt lat="43.885444" lon="11.1811357"><ele>91.0</ele><time>2026-04-25T15:21:08.305Z</time></trkpt><trkpt lat="43.8853179" lon="11.1810835"><ele>91.0</ele><time>2026-04-25T15:21:09.309Z</time></trkpt><trkpt lat="43.8851812" lon="11.1810552"><ele>91.0</ele><time>2026-04-25T15:21:10.329Z</time></trkpt><trkpt lat="43.8850285" lon="11.1810189"><ele>91.0</ele><time>2026-04-25T15:21:11.304Z</time></trkpt><trkpt lat="43.8848482" lon="11.1809855"><ele>91.0</ele><time>2026-04-25T15:21:12.318Z</time></trkpt><trkpt lat="43.8846599" lon="11.1809468"><ele>91.0</ele><time>2026-04-25T15:21:13.309Z</time></trkpt><trkpt lat="43.8844834" lon="11.180916"><ele>91.0</ele><time>2026-04-25T15:21:14.32Z</time></trkpt><trkpt lat="43.8843182" lon="11.1809019"><ele>91.0</ele><time>2026-04-25T15:21:15.312Z</time></trkpt><trkpt lat="43.8841601" lon="11.180891"><ele>91.0</ele><time>2026-04-25T15:21:16.31Z</time></trkpt><trkpt lat="43.8840164" lon="11.1808836"><ele>91.0</ele><time>2026-04-25T15:21:17.308Z</time></trkpt><trkpt lat="43.88389" lon="11.1808561"><ele>91.0</ele><time>2026-04-25T15:21:18.321Z</time></trkpt><trkpt lat="43.8837815" lon="11.1807998"><ele>91.0</ele><time>2026-04-25T15:21:19.301Z</time></trkpt><trkpt lat="43.8836922" lon="11.1807169"><ele>91.0</ele><time>2026-04-25T15:21:20.306Z</time></trkpt><trkpt lat="43.8836186" lon="11.1806496"><ele>91.0</ele><time>2026-04-25T15:21:21.306Z</time></trkpt><trkpt lat="43.8835132" lon="11.1806636"><ele>91.0</ele><time>2026-04-25T15:21:22.302Z</time></trkpt><trkpt lat="43.8834082" lon="11.1806907"><ele>91.0</ele><time>2026-04-25T15:21:23.301Z</time></trkpt><trkpt lat="43.8832967" lon="11.1807217"><ele>91.0</ele><time>2026-04-25T15:21:24.321Z</time></trkpt><trkpt lat="43.8831727" lon="11.1806872"><ele>91.0</ele><time>2026-04-25T15:21:25.319Z</time></trkpt><trkpt lat="43.8830449" lon="11.1806208"><ele>91.0</ele><time>2026-04-25T15:21:26.309Z</time></trkpt><trkpt lat="43.8829244" lon="11.1805607"><ele>91.0</ele><time>2026-04-25T15:21:27.305Z</time></trkpt><trkpt lat="43.8828132" lon="11.1805139"><ele>91.0</ele><time>2026-04-25T15:21:28.307Z</time></trkpt><trkpt lat="43.8826869" lon="11.1804683"><ele>91.0</ele><time>2026-04-25T15:21:29.31Z</time></trkpt><trkpt lat="43.8825625" lon="11.1804124"><ele>91.0</ele><time>2026-04-25T15:21:30.286Z</time></trkpt><trkpt lat="43.8824362" lon="11.1803559"><ele>91.0</ele><time>2026-04-25T15:21:31.324Z</time></trkpt><trkpt lat="43.8823007" lon="11.1803073"><ele>91.0</ele><time>2026-04-25T15:21:32.322Z</time></trkpt><trkpt lat="43.882174" lon="11.1802623"><ele>91.0</ele><time>2026-04-25T15:21:33.318Z</time></trkpt><trkpt lat="43.8820497" lon="11.1802176"><ele>91.0</ele><time>2026-04-25T15:21:34.31Z</time></trkpt><trkpt lat="43.8819436" lon="11.180165"><ele>91.0</ele><time>2026-04-25T15:21:35.298Z</time></trkpt><trkpt lat="43.8818446" lon="11.1801152"><ele>90.4</ele><time>2026-04-25T15:21:36.314Z</time></trkpt><trkpt lat="43.8817525" lon="11.1801056"><ele>89.8</ele><time>2026-04-25T15:21:37.298Z</time></trkpt><trkpt lat="43.8816736" lon="11.1801526"><ele>89.2</ele><time>2026-04-25T15:21:38.307Z</time></trkpt><trkpt lat="43.8815998" lon="11.1802323"><ele>88.60000000000001</ele><time>2026-04-25T15:21:39.312Z</time></trkpt><trkpt lat="43.8815133" lon="11.1803245"><ele>88.0</ele><time>2026-04-25T15:21:40.312Z</time></trkpt><trkpt lat="43.8814096" lon="11.1803977"><ele>88.0</ele><time>2026-04-25T15:21:41.31Z</time></trkpt><trkpt lat="43.8812867" lon="11.1804469"><ele>88.0</ele><time>2026-04-25T15:21:42.309Z</time></trkpt><trkpt lat="43.8811589" lon="11.1804571"><ele>88.0</ele><time>2026-04-25T15:21:43.308Z</time></trkpt><trkpt lat="43.8810311" lon="11.180427"><ele>88.0</ele><time>2026-04-25T15:21:44.327Z</time></trkpt><trkpt lat="43.8809094" lon="11.1804023"><ele>87.75</ele><time>2026-04-25T15:21:45.311Z</time></trkpt><trkpt lat="43.8807827" lon="11.1803624"><ele>87.5</ele><time>2026-04-25T15:21:46.319Z</time></trkpt><trkpt lat="43.8806582" lon="11.180304"><ele>87.25</ele><time>2026-04-25T15:21:47.314Z</time></trkpt><trkpt lat="43.880531" lon="11.1802243"><ele>87.0</ele><time>2026-04-25T15:21:48.323Z</time></trkpt><trkpt lat="43.880393" lon="11.1801148"><ele>87.0</ele><time>2026-04-25T15:21:49.305Z</time></trkpt><trkpt lat="43.8802526" lon="11.1799777"><ele>87.0</ele><time>2026-04-25T15:21:50.322Z</time></trkpt><trkpt lat="43.8801203" lon="11.1798058"><ele>87.0</ele><time>2026-04-25T15:21:51.309Z</time></trkpt><trkpt lat="43.8799896" lon="11.1796084"><ele>87.0</ele><time>2026-04-25T15:21:52.287Z</time></trkpt><trkpt lat="43.8798831" lon="11.1793908"><ele>87.0</ele><time>2026-04-25T15:21:53.316Z</time></trkpt><trkpt lat="43.8797721" lon="11.1791757"><ele>87.0</ele><time>2026-04-25T15:21:54.315Z</time></trkpt><trkpt lat="43.8796726" lon="11.1789664"><ele>85.33333333333333</ele><time>2026-04-25T15:21:55.3Z</time></trkpt><trkpt lat="43.8795809" lon="11.1787756"><ele>83.66666666666666</ele><time>2026-04-25T15:21:56.304Z</time></trkpt><trkpt lat="43.8794882" lon="11.1785831"><ele>82.0</ele><time>2026-04-25T15:21:57.312Z</time></trkpt><trkpt lat="43.8793958" lon="11.178391"><ele>82.0</ele><time>2026-04-25T15:21:58.3Z</time></trkpt><trkpt lat="43.8792994" lon="11.1782139"><ele>82.0</ele><time>2026-04-25T15:21:59.31Z</time></trkpt><trkpt lat="43.8791985" lon="11.1780417"><ele>82.0</ele><time>2026-04-25T15:22:00.305Z</time></trkpt><trkpt lat="43.8790947" lon="11.1778736"><ele>82.66666666666666</ele><time>2026-04-25T15:22:01.307Z</time></trkpt><trkpt lat="43.8789871" lon="11.1777027"><ele>83.33333333333333</ele><time>2026-04-25T15:22:02.31Z</time></trkpt><trkpt lat="43.8788884" lon="11.1775386"><ele>84.0</ele><time>2026-04-25T15:22:03.31Z</time></trkpt><trkpt lat="43.8787903" lon="11.1773879"><ele>83.0</ele><time>2026-04-25T15:22:04.311Z</time></trkpt><trkpt lat="43.8787044" lon="11.1772413"><ele>82.0</ele><time>2026-04-25T15:22:05.321Z</time></trkpt><trkpt lat="43.8786186" lon="11.177111"><ele>81.0</ele><time>2026-04-25T15:22:06.308Z</time></trkpt><trkpt lat="43.8785355" lon="11.1769882"><ele>80.0</ele><time>2026-04-25T15:22:07.3Z</time></trkpt><trkpt lat="43.8784513" lon="11.1768611"><ele>80.5</ele><time>2026-04-25T15:22:08.322Z</time></trkpt><trkpt lat="43.878365" lon="11.1767314"><ele>81.0</ele><time>2026-04-25T15:22:09.316Z</time></trkpt><trkpt lat="43.8782628" lon="11.1765975"><ele>81.5</ele><time>2026-04-25T15:22:10.316Z</time></trkpt><trkpt lat="43.8781553" lon="11.1764698"><ele>82.0</ele><time>2026-04-25T15:22:11.307Z</time></trkpt><trkpt lat="43.8780367" lon="11.1763409"><ele>82.0</ele><time>2026-04-25T15:22:12.301Z</time></trkpt><trkpt lat="43.877912" lon="11.176216"><ele>82.0</ele><time>2026-04-25T15:22:13.309Z</time></trkpt><trkpt lat="43.8777815" lon="11.1760904"><ele>82.0</ele><time>2026-04-25T15:22:14.298Z</time></trkpt><trkpt lat="43.8776478" lon="11.1759666"><ele>81.66666666666666</ele><time>2026-04-25T15:22:15.292Z</time></trkpt><trkpt lat="43.8775084" lon="11.1758518"><ele>81.33333333333333</ele><time>2026-04-25T15:22:16.295Z</time></trkpt><trkpt lat="43.877379" lon="11.1757388"><ele>81.0</ele><time>2026-04-25T15:22:17.298Z</time></trkpt><trkpt lat="43.8772444" lon="11.1756269"><ele>81.0</ele><time>2026-04-25T15:22:18.315Z</time></trkpt><trkpt lat="43.8771124" lon="11.1755149"><ele>81.0</ele><time>2026-04-25T15:22:19.295Z</time></trkpt><trkpt lat="43.8769714" lon="11.1753953"><ele>81.0</ele><time>2026-04-25T15:22:20.305Z</time></trkpt><trkpt lat="43.8768218" lon="11.1752673"><ele>82.33333333333333</ele><time>2026-04-25T15:22:21.31Z</time></trkpt><trkpt lat="43.8766775" lon="11.1751424"><ele>83.66666666666666</ele><time>2026-04-25T15:22:22.305Z</time></trkpt><trkpt lat="43.8765391" lon="11.1750216"><ele>85.0</ele><time>2026-04-25T15:22:23.305Z</time></trkpt><trkpt lat="43.8764076" lon="11.1749112"><ele>83.33333333333333</ele><time>2026-04-25T15:22:24.309Z</time></trkpt><trkpt lat="43.8762788" lon="11.1747935"><ele>81.66666666666667</ele><time>2026-04-25T15:22:25.296Z</time></trkpt><trkpt lat="43.8761462" lon="11.174677"><ele>80.0</ele><time>2026-04-25T15:22:26.317Z</time></trkpt><trkpt lat="43.876012" lon="11.1745562"><ele>80.33333333333334</ele><time>2026-04-25T15:22:27.344Z</time></trkpt><trkpt lat="43.8758769" lon="11.1744345"><ele>80.66666666666667</ele><time>2026-04-25T15:22:28.315Z</time></trkpt><trkpt lat="43.8757404" lon="11.1743092"><ele>81.0</ele><time>2026-04-25T15:22:29.312Z</time></trkpt><trkpt lat="43.8755987" lon="11.1741738"><ele>81.0</ele><time>2026-04-25T15:22:30.305Z</time></trkpt><trkpt lat="43.8754573" lon="11.1740278"><ele>81.0</ele><time>2026-04-25T15:22:31.312Z</time></trkpt><trkpt lat="43.8753148" lon="11.1738801"><ele>81.0</ele><time>2026-04-25T15:22:32.31Z</time></trkpt><trkpt lat="43.8751673" lon="11.1737309"><ele>81.66666666666667</ele><time>2026-04-25T15:22:33.301Z</time></trkpt><trkpt lat="43.8750171" lon="11.1735927"><ele>82.33333333333334</ele><time>2026-04-25T15:22:34.308Z</time></trkpt><trkpt lat="43.8748663" lon="11.1734513"><ele>83.0</ele><time>2026-04-25T15:22:35.315Z</time></trkpt><trkpt lat="43.8747099" lon="11.1733177"><ele>83.0</ele><time>2026-04-25T15:22:36.309Z</time></trkpt><trkpt lat="43.8745483" lon="11.1731992"><ele>83.0</ele><time>2026-04-25T15:22:37.308Z</time></trkpt><trkpt lat="43.8743947" lon="11.1730887"><ele>83.0</ele><time>2026-04-25T15:22:38.307Z</time></trkpt><trkpt lat="43.8742457" lon="11.1729698"><ele>81.66666666666667</ele><time>2026-04-25T15:22:39.312Z</time></trkpt><trkpt lat="43.8740962" lon="11.1728564"><ele>80.33333333333333</ele><time>2026-04-25T15:22:40.308Z</time></trkpt><trkpt lat="43.8739432" lon="11.1727472"><ele>79.0</ele><time>2026-04-25T15:22:41.31Z</time></trkpt><trkpt lat="43.8737893" lon="11.1726324"><ele>79.0</ele><time>2026-04-25T15:22:42.323Z</time></trkpt><trkpt lat="43.8736451" lon="11.1725064"><ele>79.0</ele><time>2026-04-25T15:22:43.306Z</time></trkpt><trkpt lat="43.873509" lon="11.1723625"><ele>79.0</ele><time>2026-04-25T15:22:44.314Z</time></trkpt><trkpt lat="43.8733867" lon="11.172207"><ele>77.66666666666666</ele><time>2026-04-25T15:22:45.317Z</time></trkpt><trkpt lat="43.8732725" lon="11.1720341"><ele>76.33333333333333</ele><time>2026-04-25T15:22:46.322Z</time></trkpt><trkpt lat="43.8731621" lon="11.1718713"><ele>75.0</ele><time>2026-04-25T15:22:47.307Z</time></trkpt><trkpt lat="43.87305" lon="11.171703"><ele>75.0</ele><time>2026-04-25T15:22:48.317Z</time></trkpt><trkpt lat="43.8729426" lon="11.1715372"><ele>75.0</ele><time>2026-04-25T15:22:49.31Z</time></trkpt><trkpt lat="43.8728392" lon="11.1713758"><ele>75.0</ele><time>2026-04-25T15:22:50.316Z</time></trkpt><trkpt lat="43.872748" lon="11.1712212"><ele>74.75</ele><time>2026-04-25T15:22:51.311Z</time></trkpt><trkpt lat="43.8726631" lon="11.1710753"><ele>74.5</ele><time>2026-04-25T15:22:52.305Z</time></trkpt><trkpt lat="43.8725789" lon="11.1709358"><ele>74.25</ele><time>2026-04-25T15:22:53.319Z</time></trkpt><trkpt lat="43.8724965" lon="11.17081"><ele>74.0</ele><time>2026-04-25T15:22:54.32Z</time></trkpt><trkpt lat="43.8724196" lon="11.1706799"><ele>73.8</ele><time>2026-04-25T15:22:55.317Z</time></trkpt><trkpt lat="43.8723366" lon="11.1705554"><ele>73.60000000000001</ele><time>2026-04-25T15:22:56.318Z</time></trkpt><trkpt lat="43.8722579" lon="11.1704386"><ele>73.4</ele><time>2026-04-25T15:22:57.312Z</time></trkpt><trkpt lat="43.8721902" lon="11.1703314"><ele>73.2</ele><time>2026-04-25T15:22:58.311Z</time></trkpt><trkpt lat="43.8721363" lon="11.1702402"><ele>73.0</ele><time>2026-04-25T15:22:59.304Z</time></trkpt><trkpt lat="43.8720969" lon="11.1701494"><ele>73.0</ele><time>2026-04-25T15:23:00.309Z</time></trkpt><trkpt lat="43.8720683" lon="11.1700546"><ele>73.0</ele><time>2026-04-25T15:23:01.31Z</time></trkpt><trkpt lat="43.8720594" lon="11.1699449"><ele>73.0</ele><time>2026-04-25T15:23:02.308Z</time></trkpt><trkpt lat="43.8720501" lon="11.1698251"><ele>73.0</ele><time>2026-04-25T15:23:03.292Z</time></trkpt><trkpt lat="43.872007" lon="11.1697522"><ele>73.0</ele><time>2026-04-25T15:23:04.32Z</time></trkpt><trkpt lat="43.8719436" lon="11.1696932"><ele>73.0</ele><time>2026-04-25T15:23:05.305Z</time></trkpt><trkpt lat="43.8718562" lon="11.1696551"><ele>72.8</ele><time>2026-04-25T15:23:06.313Z</time></trkpt><trkpt lat="43.8717777" lon="11.1696115"><ele>72.6</ele><time>2026-04-25T15:23:07.314Z</time></trkpt><trkpt lat="43.8716884" lon="11.1695367"><ele>72.4</ele><time>2026-04-25T15:23:08.295Z</time></trkpt><trkpt lat="43.8716019" lon="11.1694191"><ele>72.2</ele><time>2026-04-25T15:23:09.302Z</time></trkpt><trkpt lat="43.8715178" lon="11.1692897"><ele>72.0</ele><time>2026-04-25T15:23:10.295Z</time></trkpt><trkpt lat="43.8714289" lon="11.1691513"><ele>71.75</ele><time>2026-04-25T15:23:11.306Z</time></trkpt><trkpt lat="43.8713215" lon="11.1690246"><ele>71.5</ele><time>2026-04-25T15:23:12.318Z</time></trkpt><trkpt lat="43.8712072" lon="11.1688909"><ele>71.25</ele><time>2026-04-25T15:23:13.298Z</time></trkpt><trkpt lat="43.8710814" lon="11.1687582"><ele>71.0</ele><time>2026-04-25T15:23:14.331Z</time></trkpt><trkpt lat="43.8709366" lon="11.1686144"><ele>70.33333333333334</ele><time>2026-04-25T15:23:15.312Z</time></trkpt><trkpt lat="43.8707761" lon="11.1684447"><ele>69.66666666666667</ele><time>2026-04-25T15:23:16.319Z</time></trkpt><trkpt lat="43.8706132" lon="11.1682693"><ele>69.0</ele><time>2026-04-25T15:23:17.295Z</time></trkpt><trkpt lat="43.8704446" lon="11.168083"><ele>69.0</ele><time>2026-04-25T15:23:18.321Z</time></trkpt><trkpt lat="43.8702741" lon="11.1678893"><ele>69.0</ele><time>2026-04-25T15:23:19.311Z</time></trkpt><trkpt lat="43.8700951" lon="11.1676906"><ele>69.33333333333333</ele><time>2026-04-25T15:23:20.32Z</time></trkpt><trkpt lat="43.8699187" lon="11.1674986"><ele>69.66666666666666</ele><time>2026-04-25T15:23:21.306Z</time></trkpt><trkpt lat="43.8697444" lon="11.1673157"><ele>70.0</ele><time>2026-04-25T15:23:22.314Z</time></trkpt><trkpt lat="43.8695721" lon="11.1671436"><ele>70.0</ele><time>2026-04-25T15:23:23.307Z</time></trkpt><trkpt lat="43.8694062" lon="11.1669725"><ele>70.0</ele><time>2026-04-25T15:23:24.31Z</time></trkpt><trkpt lat="43.8692439" lon="11.1668001"><ele>70.0</ele><time>2026-04-25T15:23:25.318Z</time></trkpt><trkpt lat="43.8690867" lon="11.1666307"><ele>69.66666666666666</ele><time>2026-04-25T15:23:26.312Z</time></trkpt><trkpt lat="43.8689342" lon="11.1664525"><ele>69.33333333333333</ele><time>2026-04-25T15:23:27.324Z</time></trkpt><trkpt lat="43.8687823" lon="11.1662656"><ele>69.0</ele><time>2026-04-25T15:23:28.317Z</time></trkpt><trkpt lat="43.8686285" lon="11.1660747"><ele>69.0</ele><time>2026-04-25T15:23:29.311Z</time></trkpt><trkpt lat="43.8684832" lon="11.1658884"><ele>69.0</ele><time>2026-04-25T15:23:30.308Z</time></trkpt><trkpt lat="43.8683489" lon="11.1657031"><ele>69.0</ele><time>2026-04-25T15:23:31.322Z</time></trkpt><trkpt lat="43.8682206" lon="11.1655212"><ele>68.0</ele><time>2026-04-25T15:23:32.323Z</time></trkpt><trkpt lat="43.8680965" lon="11.1653354"><ele>67.0</ele><time>2026-04-25T15:23:33.309Z</time></trkpt><trkpt lat="43.867981" lon="11.1651569"><ele>66.0</ele><time>2026-04-25T15:23:34.31Z</time></trkpt><trkpt lat="43.8678692" lon="11.1649876"><ele>65.66666666666667</ele><time>2026-04-25T15:23:35.315Z</time></trkpt><trkpt lat="43.8677596" lon="11.1648268"><ele>65.33333333333334</ele><time>2026-04-25T15:23:36.328Z</time></trkpt><trkpt lat="43.8676484" lon="11.16467"><ele>65.0</ele><time>2026-04-25T15:23:37.319Z</time></trkpt><trkpt lat="43.86754" lon="11.1645097"><ele>65.33333333333334</ele><time>2026-04-25T15:23:38.32Z</time></trkpt><trkpt lat="43.8674311" lon="11.1643447"><ele>65.66666666666667</ele><time>2026-04-25T15:23:39.313Z</time></trkpt><trkpt lat="43.8673181" lon="11.1641738"><ele>66.0</ele><time>2026-04-25T15:23:40.32Z</time></trkpt><trkpt lat="43.8672042" lon="11.1640002"><ele>66.0</ele><time>2026-04-25T15:23:41.318Z</time></trkpt><trkpt lat="43.867083" lon="11.1638279"><ele>66.0</ele><time>2026-04-25T15:23:42.321Z</time></trkpt><trkpt lat="43.8669697" lon="11.1636501"><ele>66.0</ele><time>2026-04-25T15:23:43.303Z</time></trkpt><trkpt lat="43.866859" lon="11.1634843"><ele>65.5</ele><time>2026-04-25T15:23:44.314Z</time></trkpt><trkpt lat="43.8667599" lon="11.1633349"><ele>65.0</ele><time>2026-04-25T15:23:45.314Z</time></trkpt><trkpt lat="43.866687" lon="11.1631936"><ele>64.5</ele><time>2026-04-25T15:23:46.325Z</time></trkpt><trkpt lat="43.8666433" lon="11.1630415"><ele>64.0</ele><time>2026-04-25T15:23:47.318Z</time></trkpt><trkpt lat="43.8665968" lon="11.1628953"><ele>63.75</ele><time>2026-04-25T15:23:48.318Z</time></trkpt><trkpt lat="43.866532" lon="11.1627596"><ele>63.5</ele><time>2026-04-25T15:23:49.317Z</time></trkpt><trkpt lat="43.8664286" lon="11.1626477"><ele>63.25</ele><time>2026-04-25T15:23:50.314Z</time></trkpt><trkpt lat="43.8662979" lon="11.1625495"><ele>63.0</ele><time>2026-04-25T15:23:51.309Z</time></trkpt><trkpt lat="43.8661578" lon="11.1624221"><ele>63.33333333333333</ele><time>2026-04-25T15:23:52.313Z</time></trkpt><trkpt lat="43.8660364" lon="11.1622415"><ele>63.666666666666664</ele><time>2026-04-25T15:23:53.31Z</time></trkpt><trkpt lat="43.865906" lon="11.1620471"><ele>64.0</ele><time>2026-04-25T15:23:54.303Z</time></trkpt><trkpt lat="43.8657673" lon="11.1618574"><ele>64.33333333333333</ele><time>2026-04-25T15:23:55.306Z</time></trkpt><trkpt lat="43.8656213" lon="11.1616667"><ele>64.66666666666667</ele><time>2026-04-25T15:23:56.319Z</time></trkpt><trkpt lat="43.8654872" lon="11.1614807"><ele>65.0</ele><time>2026-04-25T15:23:57.322Z</time></trkpt><trkpt lat="43.8653592" lon="11.1612949"><ele>65.0</ele><time>2026-04-25T15:23:58.305Z</time></trkpt><trkpt lat="43.865249" lon="11.1611139"><ele>65.0</ele><time>2026-04-25T15:23:59.307Z</time></trkpt><trkpt lat="43.8651501" lon="11.1609399"><ele>65.0</ele><time>2026-04-25T15:24:00.316Z</time></trkpt><trkpt lat="43.8650541" lon="11.1607549"><ele>65.33333333333334</ele><time>2026-04-25T15:24:01.322Z</time></trkpt><trkpt lat="43.8649601" lon="11.1605871"><ele>65.66666666666667</ele><time>2026-04-25T15:24:02.318Z</time></trkpt><trkpt lat="43.8648721" lon="11.1604094"><ele>66.0</ele><time>2026-04-25T15:24:03.298Z</time></trkpt><trkpt lat="43.8647903" lon="11.1602376"><ele>66.0</ele><time>2026-04-25T15:24:04.301Z</time></trkpt><trkpt lat="43.8647213" lon="11.1600778"><ele>66.0</ele><time>2026-04-25T15:24:05.314Z</time></trkpt><trkpt lat="43.8646592" lon="11.1599197"><ele>66.0</ele><time>2026-04-25T15:24:06.297Z</time></trkpt><trkpt lat="43.8646056" lon="11.1597488"><ele>66.0</ele><time>2026-04-25T15:24:07.31Z</time></trkpt><trkpt lat="43.8645495" lon="11.1595769"><ele>66.39999999999999</ele><time>2026-04-25T15:24:08.322Z</time></trkpt><trkpt lat="43.8645036" lon="11.1594176"><ele>66.8</ele><time>2026-04-25T15:24:09.301Z</time></trkpt><trkpt lat="43.8644609" lon="11.1592761"><ele>67.19999999999999</ele><time>2026-04-25T15:24:10.311Z</time></trkpt><trkpt lat="43.8644304" lon="11.1591584"><ele>67.6</ele><time>2026-04-25T15:24:11.302Z</time></trkpt><trkpt lat="43.8644094" lon="11.1590605"><ele>68.0</ele><time>2026-04-25T15:24:12.308Z</time></trkpt><trkpt lat="43.8643929" lon="11.1589756"><ele>68.0</ele><time>2026-04-25T15:24:13.316Z</time></trkpt><trkpt lat="43.8643856" lon="11.158888"><ele>68.0</ele><time>2026-04-25T15:24:14.317Z</time></trkpt><trkpt lat="43.8643973" lon="11.1587249"><ele>68.0</ele><time>2026-04-25T15:24:16.311Z</time></trkpt><trkpt lat="43.8643979" lon="11.1585684"><ele>68.0</ele><time>2026-04-25T15:24:18.317Z</time></trkpt><trkpt lat="43.8643432" lon="11.158467"><ele>68.0</ele><time>2026-04-25T15:24:20.302Z</time></trkpt><trkpt lat="43.8642636" lon="11.1583492"><ele>68.25</ele><time>2026-04-25T15:24:22.327Z</time></trkpt><trkpt lat="43.8642192" lon="11.1582384"><ele>68.5</ele><time>2026-04-25T15:24:23.297Z</time></trkpt><trkpt lat="43.8641765" lon="11.1580769"><ele>68.75</ele><time>2026-04-25T15:24:24.321Z</time></trkpt><trkpt lat="43.8641346" lon="11.1579027"><ele>69.0</ele><time>2026-04-25T15:24:25.304Z</time></trkpt><trkpt lat="43.8640891" lon="11.157727"><ele>67.33333333333333</ele><time>2026-04-25T15:24:26.315Z</time></trkpt><trkpt lat="43.864038" lon="11.1575438"><ele>65.66666666666666</ele><time>2026-04-25T15:24:27.314Z</time></trkpt><trkpt lat="43.8639857" lon="11.1573458"><ele>64.0</ele><time>2026-04-25T15:24:28.314Z</time></trkpt><trkpt lat="43.8639345" lon="11.1571415"><ele>63.33333333333333</ele><time>2026-04-25T15:24:29.317Z</time></trkpt><trkpt lat="43.8638818" lon="11.1569085"><ele>62.66666666666667</ele><time>2026-04-25T15:24:30.32Z</time></trkpt><trkpt lat="43.8638283" lon="11.1566744"><ele>62.0</ele><time>2026-04-25T15:24:31.306Z</time></trkpt><trkpt lat="43.8637762" lon="11.1564482"><ele>61.66666666666667</ele><time>2026-04-25T15:24:32.303Z</time></trkpt><trkpt lat="43.8637207" lon="11.1562144"><ele>61.33333333333333</ele><time>2026-04-25T15:24:33.313Z</time></trkpt><trkpt lat="43.8636623" lon="11.1559773"><ele>61.0</ele><time>2026-04-25T15:24:34.302Z</time></trkpt><trkpt lat="43.8636057" lon="11.1557494"><ele>61.0</ele><time>2026-04-25T15:24:35.307Z</time></trkpt><trkpt lat="43.8635544" lon="11.155523"><ele>61.0</ele><time>2026-04-25T15:24:36.317Z</time></trkpt><trkpt lat="43.8635034" lon="11.1552987"><ele>61.0</ele><time>2026-04-25T15:24:37.31Z</time></trkpt><trkpt lat="43.8634559" lon="11.1550922"><ele>60.33333333333333</ele><time>2026-04-25T15:24:38.298Z</time></trkpt><trkpt lat="43.8634067" lon="11.1548879"><ele>59.66666666666667</ele><time>2026-04-25T15:24:39.31Z</time></trkpt><trkpt lat="43.8633582" lon="11.1546875"><ele>59.0</ele><time>2026-04-25T15:24:40.303Z</time></trkpt><trkpt lat="43.8633022" lon="11.1544825"><ele>59.0</ele><time>2026-04-25T15:24:41.319Z</time></trkpt><trkpt lat="43.8632509" lon="11.1542736"><ele>59.0</ele><time>2026-04-25T15:24:42.327Z</time></trkpt><trkpt lat="43.863195" lon="11.1540659"><ele>59.0</ele><time>2026-04-25T15:24:43.309Z</time></trkpt><trkpt lat="43.8631408" lon="11.1538558"><ele>58.66666666666667</ele><time>2026-04-25T15:24:44.298Z</time></trkpt><trkpt lat="43.8630872" lon="11.1536352"><ele>58.33333333333333</ele><time>2026-04-25T15:24:45.309Z</time></trkpt><trkpt lat="43.8630258" lon="11.1534043"><ele>58.0</ele><time>2026-04-25T15:24:46.306Z</time></trkpt><trkpt lat="43.8629645" lon="11.1531573"><ele>58.0</ele><time>2026-04-25T15:24:47.305Z</time></trkpt><trkpt lat="43.8629005" lon="11.1529019"><ele>58.0</ele><time>2026-04-25T15:24:48.32Z</time></trkpt><trkpt lat="43.862832" lon="11.1526361"><ele>58.0</ele><time>2026-04-25T15:24:49.298Z</time></trkpt><trkpt lat="43.862764" lon="11.1523664"><ele>58.0</ele><time>2026-04-25T15:24:50.294Z</time></trkpt><trkpt lat="43.8627075" lon="11.1521043"><ele>58.0</ele><time>2026-04-25T15:24:51.322Z</time></trkpt><trkpt lat="43.8626532" lon="11.1518577"><ele>58.0</ele><time>2026-04-25T15:24:52.309Z</time></trkpt><trkpt lat="43.8626043" lon="11.1516254"><ele>57.666666666666664</ele><time>2026-04-25T15:24:53.324Z</time></trkpt><trkpt lat="43.8625416" lon="11.1514056"><ele>57.33333333333333</ele><time>2026-04-25T15:24:54.315Z</time></trkpt><trkpt lat="43.8624732" lon="11.1511917"><ele>57.0</ele><time>2026-04-25T15:24:55.318Z</time></trkpt><trkpt lat="43.8623983" lon="11.1509542"><ele>57.0</ele><time>2026-04-25T15:24:56.305Z</time></trkpt><trkpt lat="43.8623216" lon="11.1507114"><ele>57.0</ele><time>2026-04-25T15:24:57.318Z</time></trkpt><trkpt lat="43.8622442" lon="11.150466"><ele>57.0</ele><time>2026-04-25T15:24:58.31Z</time></trkpt><trkpt lat="43.8621694" lon="11.1502212"><ele>56.33333333333333</ele><time>2026-04-25T15:24:59.315Z</time></trkpt><trkpt lat="43.8620892" lon="11.1499847"><ele>55.666666666666664</ele><time>2026-04-25T15:25:00.311Z</time></trkpt><trkpt lat="43.8620004" lon="11.1497488"><ele>55.0</ele><time>2026-04-25T15:25:01.31Z</time></trkpt><trkpt lat="43.8619162" lon="11.1495284"><ele>55.0</ele><time>2026-04-25T15:25:02.321Z</time></trkpt><trkpt lat="43.8618256" lon="11.1493204"><ele>55.0</ele><time>2026-04-25T15:25:03.307Z</time></trkpt><trkpt lat="43.8617377" lon="11.1491269"><ele>55.0</ele><time>2026-04-25T15:25:04.31Z</time></trkpt><trkpt lat="43.8616521" lon="11.1489432"><ele>54.666666666666664</ele><time>2026-04-25T15:25:05.321Z</time></trkpt><trkpt lat="43.8615665" lon="11.1487652"><ele>54.33333333333333</ele><time>2026-04-25T15:25:06.324Z</time></trkpt><trkpt lat="43.8614839" lon="11.148592"><ele>54.0</ele><time>2026-04-25T15:25:07.31Z</time></trkpt><trkpt lat="43.8613939" lon="11.1484197"><ele>54.0</ele><time>2026-04-25T15:25:08.31Z</time></trkpt><trkpt lat="43.861298" lon="11.1482438"><ele>54.0</ele><time>2026-04-25T15:25:09.301Z</time></trkpt><trkpt lat="43.8612012" lon="11.1480709"><ele>54.0</ele><time>2026-04-25T15:25:10.305Z</time></trkpt><trkpt lat="43.8610981" lon="11.1478996"><ele>54.33333333333333</ele><time>2026-04-25T15:25:11.326Z</time></trkpt><trkpt lat="43.8609841" lon="11.1477173"><ele>54.666666666666664</ele><time>2026-04-25T15:25:12.324Z</time></trkpt><trkpt lat="43.8608784" lon="11.1475313"><ele>55.0</ele><time>2026-04-25T15:25:13.303Z</time></trkpt><trkpt lat="43.8607773" lon="11.1473454"><ele>55.25</ele><time>2026-04-25T15:25:14.321Z</time></trkpt><trkpt lat="43.8606732" lon="11.1471795"><ele>55.5</ele><time>2026-04-25T15:25:15.313Z</time></trkpt><trkpt lat="43.8605712" lon="11.1470327"><ele>55.75</ele><time>2026-04-25T15:25:16.324Z</time></trkpt><trkpt lat="43.8604736" lon="11.1468886"><ele>56.0</ele><time>2026-04-25T15:25:17.312Z</time></trkpt><trkpt lat="43.860379" lon="11.1467497"><ele>56.0</ele><time>2026-04-25T15:25:18.315Z</time></trkpt><trkpt lat="43.8602913" lon="11.1466254"><ele>56.0</ele><time>2026-04-25T15:25:19.308Z</time></trkpt><trkpt lat="43.8602027" lon="11.1465016"><ele>56.0</ele><time>2026-04-25T15:25:20.316Z</time></trkpt><trkpt lat="43.86011" lon="11.1463791"><ele>56.0</ele><time>2026-04-25T15:25:21.313Z</time></trkpt><trkpt lat="43.8600132" lon="11.1462589"><ele>55.5</ele><time>2026-04-25T15:25:22.325Z</time></trkpt><trkpt lat="43.8599167" lon="11.1461429"><ele>55.0</ele><time>2026-04-25T15:25:23.321Z</time></trkpt><trkpt lat="43.8598209" lon="11.1460263"><ele>54.5</ele><time>2026-04-25T15:25:24.319Z</time></trkpt><trkpt lat="43.8597277" lon="11.1459116"><ele>54.0</ele><time>2026-04-25T15:25:25.317Z</time></trkpt><trkpt lat="43.8596375" lon="11.1458013"><ele>53.75</ele><time>2026-04-25T15:25:26.308Z</time></trkpt><trkpt lat="43.8595461" lon="11.1456939"><ele>53.5</ele><time>2026-04-25T15:25:27.316Z</time></trkpt><trkpt lat="43.8594563" lon="11.1455867"><ele>53.25</ele><time>2026-04-25T15:25:28.293Z</time></trkpt><trkpt lat="43.8593704" lon="11.145487"><ele>53.0</ele><time>2026-04-25T15:25:29.321Z</time></trkpt><trkpt lat="43.8592864" lon="11.1453972"><ele>53.0</ele><time>2026-04-25T15:25:30.311Z</time></trkpt><trkpt lat="43.8591955" lon="11.1453098"><ele>53.0</ele><time>2026-04-25T15:25:31.323Z</time></trkpt><trkpt lat="43.8591077" lon="11.1452253"><ele>53.0</ele><time>2026-04-25T15:25:32.322Z</time></trkpt><trkpt lat="43.859022" lon="11.1451556"><ele>53.0</ele><time>2026-04-25T15:25:33.313Z</time></trkpt><trkpt lat="43.8589482" lon="11.1450975"><ele>53.0</ele><time>2026-04-25T15:25:34.315Z</time></trkpt><trkpt lat="43.8588825" lon="11.1450341"><ele>53.00000000000001</ele><time>2026-04-25T15:25:35.332Z</time></trkpt><trkpt lat="43.8588248" lon="11.1449783"><ele>53.0</ele><time>2026-04-25T15:25:36.316Z</time></trkpt><trkpt lat="43.858776" lon="11.1449228"><ele>53.0</ele><time>2026-04-25T15:25:37.306Z</time></trkpt><trkpt lat="43.8587045" lon="11.1448085"><ele>53.0</ele><time>2026-04-25T15:25:39.315Z</time></trkpt><trkpt lat="43.8586607" lon="11.1447007"><ele>53.00000000000001</ele><time>2026-04-25T15:25:41.316Z</time></trkpt><trkpt lat="43.8586024" lon="11.1445985"><ele>53.0</ele><time>2026-04-25T15:25:43.312Z</time></trkpt><trkpt lat="43.8585461" lon="11.1445543"><ele>53.2</ele><time>2026-04-25T15:25:44.304Z</time></trkpt><trkpt lat="43.8584627" lon="11.1445329"><ele>53.4</ele><time>2026-04-25T15:25:45.313Z</time></trkpt><trkpt lat="43.8583603" lon="11.1445254"><ele>53.60000000000001</ele><time>2026-04-25T15:25:46.304Z</time></trkpt><trkpt lat="43.8582637" lon="11.1444645"><ele>53.800000000000004</ele><time>2026-04-25T15:25:47.303Z</time></trkpt><trkpt lat="43.8581589" lon="11.144387"><ele>54.0</ele><time>2026-04-25T15:25:48.317Z</time></trkpt><trkpt lat="43.8580445" lon="11.144285"><ele>54.0</ele><time>2026-04-25T15:25:49.314Z</time></trkpt><trkpt lat="43.857917" lon="11.1441576"><ele>54.0</ele><time>2026-04-25T15:25:50.301Z</time></trkpt><trkpt lat="43.8577771" lon="11.1440129"><ele>54.0</ele><time>2026-04-25T15:25:51.302Z</time></trkpt><trkpt lat="43.8576318" lon="11.1438725"><ele>54.33333333333333</ele><time>2026-04-25T15:25:52.305Z</time></trkpt><trkpt lat="43.8574916" lon="11.1437295"><ele>54.666666666666664</ele><time>2026-04-25T15:25:53.304Z</time></trkpt><trkpt lat="43.8573491" lon="11.1435912"><ele>55.0</ele><time>2026-04-25T15:25:54.305Z</time></trkpt><trkpt lat="43.8572052" lon="11.1434375"><ele>55.0</ele><time>2026-04-25T15:25:55.297Z</time></trkpt><trkpt lat="43.8570587" lon="11.1432801"><ele>55.0</ele><time>2026-04-25T15:25:56.306Z</time></trkpt><trkpt lat="43.856903" lon="11.1431281"><ele>55.0</ele><time>2026-04-25T15:25:57.296Z</time></trkpt><trkpt lat="43.8567521" lon="11.1429841"><ele>54.0</ele><time>2026-04-25T15:25:58.311Z</time></trkpt><trkpt lat="43.8566001" lon="11.1428485"><ele>53.0</ele><time>2026-04-25T15:25:59.314Z</time></trkpt><trkpt lat="43.8564567" lon="11.1427267"><ele>52.0</ele><time>2026-04-25T15:26:00.309Z</time></trkpt><trkpt lat="43.8563189" lon="11.1426054"><ele>52.0</ele><time>2026-04-25T15:26:01.304Z</time></trkpt><trkpt lat="43.8561761" lon="11.1424982"><ele>52.0</ele><time>2026-04-25T15:26:02.312Z</time></trkpt><trkpt lat="43.8560262" lon="11.1424067"><ele>52.0</ele><time>2026-04-25T15:26:03.31Z</time></trkpt><trkpt lat="43.8558728" lon="11.1423247"><ele>51.33333333333333</ele><time>2026-04-25T15:26:04.319Z</time></trkpt><trkpt lat="43.8557128" lon="11.1422614"><ele>50.66666666666667</ele><time>2026-04-25T15:26:05.331Z</time></trkpt><trkpt lat="43.8555492" lon="11.1422221"><ele>50.0</ele><time>2026-04-25T15:26:06.322Z</time></trkpt><trkpt lat="43.8553891" lon="11.1421863"><ele>50.0</ele><time>2026-04-25T15:26:07.318Z</time></trkpt><trkpt lat="43.8552423" lon="11.1421534"><ele>50.0</ele><time>2026-04-25T15:26:08.325Z</time></trkpt><trkpt lat="43.8551089" lon="11.1421301"><ele>50.0</ele><time>2026-04-25T15:26:09.329Z</time></trkpt><trkpt lat="43.8549816" lon="11.1421193"><ele>50.0</ele><time>2026-04-25T15:26:10.314Z</time></trkpt><trkpt lat="43.8548683" lon="11.1421048"><ele>49.6</ele><time>2026-04-25T15:26:11.308Z</time></trkpt><trkpt lat="43.8547597" lon="11.1420867"><ele>49.2</ele><time>2026-04-25T15:26:12.329Z</time></trkpt><trkpt lat="43.8546593" lon="11.1420595"><ele>48.8</ele><time>2026-04-25T15:26:13.326Z</time></trkpt><trkpt lat="43.8545761" lon="11.1420215"><ele>48.4</ele><time>2026-04-25T15:26:14.322Z</time></trkpt><trkpt lat="43.8545017" lon="11.1419517"><ele>48.0</ele><time>2026-04-25T15:26:15.304Z</time></trkpt><trkpt lat="43.8544313" lon="11.141896"><ele>48.0</ele><time>2026-04-25T15:26:16.308Z</time></trkpt><trkpt lat="43.8543471" lon="11.1418783"><ele>48.0</ele><time>2026-04-25T15:26:17.304Z</time></trkpt><trkpt lat="43.8542436" lon="11.1419104"><ele>48.0</ele><time>2026-04-25T15:26:18.32Z</time></trkpt><trkpt lat="43.8541254" lon="11.141946"><ele>48.0</ele><time>2026-04-25T15:26:19.303Z</time></trkpt><trkpt lat="43.8540032" lon="11.1419487"><ele>48.0</ele><time>2026-04-25T15:26:20.307Z</time></trkpt><trkpt lat="43.8538884" lon="11.1419279"><ele>47.75</ele><time>2026-04-25T15:26:21.299Z</time></trkpt><trkpt lat="43.8537661" lon="11.1419151"><ele>47.5</ele><time>2026-04-25T15:26:22.321Z</time></trkpt><trkpt lat="43.8536493" lon="11.1418968"><ele>47.25</ele><time>2026-04-25T15:26:23.316Z</time></trkpt><trkpt lat="43.8535337" lon="11.1418668"><ele>47.0</ele><time>2026-04-25T15:26:24.315Z</time></trkpt><trkpt lat="43.8534048" lon="11.1418313"><ele>47.5</ele><time>2026-04-25T15:26:25.318Z</time></trkpt><trkpt lat="43.8532732" lon="11.1417635"><ele>48.0</ele><time>2026-04-25T15:26:26.294Z</time></trkpt><trkpt lat="43.8531378" lon="11.1417019"><ele>48.5</ele><time>2026-04-25T15:26:27.312Z</time></trkpt><trkpt lat="43.8530084" lon="11.1416383"><ele>49.0</ele><time>2026-04-25T15:26:28.32Z</time></trkpt><trkpt lat="43.852897" lon="11.1415783"><ele>49.400000000000006</ele><time>2026-04-25T15:26:29.31Z</time></trkpt><trkpt lat="43.8527887" lon="11.1415317"><ele>49.8</ele><time>2026-04-25T15:26:30.319Z</time></trkpt><trkpt lat="43.8526882" lon="11.1414862"><ele>50.2</ele><time>2026-04-25T15:26:31.317Z</time></trkpt><trkpt lat="43.8525926" lon="11.141448"><ele>50.599999999999994</ele><time>2026-04-25T15:26:32.321Z</time></trkpt><trkpt lat="43.8524976" lon="11.1414046"><ele>51.0</ele><time>2026-04-25T15:26:33.319Z</time></trkpt><trkpt lat="43.8524026" lon="11.1413559"><ele>50.199999999999996</ele><time>2026-04-25T15:26:34.319Z</time></trkpt><trkpt lat="43.8523062" lon="11.1413191"><ele>49.4</ele><time>2026-04-25T15:26:35.314Z</time></trkpt><trkpt lat="43.8522081" lon="11.1412867"><ele>48.6</ele><time>2026-04-25T15:26:36.296Z</time></trkpt><trkpt lat="43.8521183" lon="11.1412524"><ele>47.8</ele><time>2026-04-25T15:26:37.314Z</time></trkpt><trkpt lat="43.8520446" lon="11.1411992"><ele>47.0</ele><time>2026-04-25T15:26:38.317Z</time></trkpt><trkpt lat="43.8519802" lon="11.1411401"><ele>47.0</ele><time>2026-04-25T15:26:39.308Z</time></trkpt><trkpt lat="43.8519309" lon="11.1410836"><ele>47.0</ele><time>2026-04-25T15:26:40.32Z</time></trkpt><trkpt lat="43.8518738" lon="11.1410037"><ele>47.0</ele><time>2026-04-25T15:26:45.319Z</time></trkpt><trkpt lat="43.8518198" lon="11.1409153"><ele>47.0</ele><time>2026-04-25T15:26:46.318Z</time></trkpt><trkpt lat="43.8517593" lon="11.1408389"><ele>47.0</ele><time>2026-04-25T15:26:47.319Z</time></trkpt><trkpt lat="43.8517044" lon="11.1407823"><ele>47.0</ele><time>2026-04-25T15:26:48.31Z</time></trkpt><trkpt lat="43.8516397" lon="11.1407567"><ele>47.0</ele><time>2026-04-25T15:26:49.321Z</time></trkpt><trkpt lat="43.8515651" lon="11.1407681"><ele>46.6</ele><time>2026-04-25T15:26:50.319Z</time></trkpt><trkpt lat="43.8514912" lon="11.1408289"><ele>46.2</ele><time>2026-04-25T15:26:51.32Z</time></trkpt><trkpt lat="43.8514196" lon="11.1409208"><ele>45.8</ele><time>2026-04-25T15:26:52.306Z</time></trkpt><trkpt lat="43.8513479" lon="11.1410218"><ele>45.4</ele><time>2026-04-25T15:26:53.281Z</time></trkpt><trkpt lat="43.8512538" lon="11.1410911"><ele>45.0</ele><time>2026-04-25T15:26:54.298Z</time></trkpt><trkpt lat="43.8511407" lon="11.1411146"><ele>45.0</ele><time>2026-04-25T15:26:55.311Z</time></trkpt><trkpt lat="43.8510212" lon="11.1410882"><ele>45.0</ele><time>2026-04-25T15:26:56.302Z</time></trkpt><trkpt lat="43.8508784" lon="11.1410209"><ele>45.0</ele><time>2026-04-25T15:26:57.312Z</time></trkpt><trkpt lat="43.8507405" lon="11.1409386"><ele>45.0</ele><time>2026-04-25T15:26:58.305Z</time></trkpt><trkpt lat="43.8506065" lon="11.1408545"><ele>45.0</ele><time>2026-04-25T15:26:59.319Z</time></trkpt><trkpt lat="43.8504713" lon="11.1407589"><ele>45.0</ele><time>2026-04-25T15:27:00.316Z</time></trkpt><trkpt lat="43.85034" lon="11.1406509"><ele>45.0</ele><time>2026-04-25T15:27:01.297Z</time></trkpt><trkpt lat="43.85021" lon="11.1405313"><ele>44.0</ele><time>2026-04-25T15:27:02.318Z</time></trkpt><trkpt lat="43.8500778" lon="11.1404194"><ele>43.0</ele><time>2026-04-25T15:27:03.309Z</time></trkpt><trkpt lat="43.8499446" lon="11.1403133"><ele>42.0</ele><time>2026-04-25T15:27:04.319Z</time></trkpt><trkpt lat="43.8498085" lon="11.1402028"><ele>42.0</ele><time>2026-04-25T15:27:05.317Z</time></trkpt><trkpt lat="43.8496826" lon="11.1400953"><ele>42.0</ele><time>2026-04-25T15:27:06.325Z</time></trkpt><trkpt lat="43.8495611" lon="11.1399949"><ele>42.0</ele><time>2026-04-25T15:27:07.323Z</time></trkpt><trkpt lat="43.8494436" lon="11.1398966"><ele>42.0</ele><time>2026-04-25T15:27:08.294Z</time></trkpt><trkpt lat="43.8493276" lon="11.1397993"><ele>42.25</ele><time>2026-04-25T15:27:09.307Z</time></trkpt><trkpt lat="43.849217" lon="11.139707"><ele>42.5</ele><time>2026-04-25T15:27:10.315Z</time></trkpt><trkpt lat="43.8491123" lon="11.1396245"><ele>42.75</ele><time>2026-04-25T15:27:11.311Z</time></trkpt><trkpt lat="43.8490242" lon="11.1395445"><ele>43.0</ele><time>2026-04-25T15:27:12.29Z</time></trkpt><trkpt lat="43.8489589" lon="11.139442"><ele>43.0</ele><time>2026-04-25T15:27:13.312Z</time></trkpt><trkpt lat="43.848913" lon="11.1393524"><ele>43.0</ele><time>2026-04-25T15:27:14.322Z</time></trkpt><trkpt lat="43.8488681" lon="11.139272"><ele>43.0</ele><time>2026-04-25T15:27:15.313Z</time></trkpt><trkpt lat="43.8487861" lon="11.1391767"><ele>43.0</ele><time>2026-04-25T15:27:17.337Z</time></trkpt><trkpt lat="43.8487235" lon="11.1391564"><ele>43.0</ele><time>2026-04-25T15:27:18.324Z</time></trkpt><trkpt lat="43.8486503" lon="11.1391276"><ele>43.0</ele><time>2026-04-25T15:27:19.304Z</time></trkpt><trkpt lat="43.8485622" lon="11.1390915"><ele>43.5</ele><time>2026-04-25T15:27:20.311Z</time></trkpt><trkpt lat="43.8484648" lon="11.1390276"><ele>44.0</ele><time>2026-04-25T15:27:21.301Z</time></trkpt><trkpt lat="43.8483794" lon="11.1389338"><ele>44.5</ele><time>2026-04-25T15:27:22.307Z</time></trkpt><trkpt lat="43.8482755" lon="11.1388342"><ele>45.0</ele><time>2026-04-25T15:27:23.301Z</time></trkpt><trkpt lat="43.8481636" lon="11.1387328"><ele>45.0</ele><time>2026-04-25T15:27:24.306Z</time></trkpt><trkpt lat="43.8480465" lon="11.1386199"><ele>45.0</ele><time>2026-04-25T15:27:25.32Z</time></trkpt><trkpt lat="43.8479331" lon="11.1385033"><ele>45.0</ele><time>2026-04-25T15:27:26.302Z</time></trkpt><trkpt lat="43.8478195" lon="11.1383949"><ele>45.0</ele><time>2026-04-25T15:27:27.321Z</time></trkpt><trkpt lat="43.8477069" lon="11.138281"><ele>44.5</ele><time>2026-04-25T15:27:28.308Z</time></trkpt><trkpt lat="43.8475959" lon="11.1381681"><ele>44.0</ele><time>2026-04-25T15:27:29.316Z</time></trkpt><trkpt lat="43.847489" lon="11.1380664"><ele>43.5</ele><time>2026-04-25T15:27:30.324Z</time></trkpt><trkpt lat="43.8473974" lon="11.1379738"><ele>43.0</ele><time>2026-04-25T15:27:31.309Z</time></trkpt><trkpt lat="43.8473189" lon="11.1378884"><ele>43.0</ele><time>2026-04-25T15:27:32.322Z</time></trkpt><trkpt lat="43.8472538" lon="11.1377958"><ele>43.0</ele><time>2026-04-25T15:27:33.3Z</time></trkpt><trkpt lat="43.8472019" lon="11.1376919"><ele>43.0</ele><time>2026-04-25T15:27:34.319Z</time></trkpt><trkpt lat="43.8471631" lon="11.1375897"><ele>43.0</ele><time>2026-04-25T15:27:35.315Z</time></trkpt><trkpt lat="43.8471299" lon="11.1374641"><ele>43.0</ele><time>2026-04-25T15:27:36.326Z</time></trkpt><trkpt lat="43.8470936" lon="11.1373562"><ele>43.16666666666667</ele><time>2026-04-25T15:27:37.309Z</time></trkpt><trkpt lat="43.8470496" lon="11.1372559"><ele>43.333333333333336</ele><time>2026-04-25T15:27:38.32Z</time></trkpt><trkpt lat="43.8469823" lon="11.1371937"><ele>43.5</ele><time>2026-04-25T15:27:39.321Z</time></trkpt><trkpt lat="43.846891" lon="11.1371933"><ele>43.666666666666664</ele><time>2026-04-25T15:27:40.312Z</time></trkpt><trkpt lat="43.846802" lon="11.137253"><ele>43.83333333333333</ele><time>2026-04-25T15:27:41.315Z</time></trkpt><trkpt lat="43.8467389" lon="11.137346"><ele>44.0</ele><time>2026-04-25T15:27:42.313Z</time></trkpt><trkpt lat="43.846697" lon="11.137437"><ele>44.0</ele><time>2026-04-25T15:27:43.309Z</time></trkpt><trkpt lat="43.8466793" lon="11.1375361"><ele>44.0</ele><time>2026-04-25T15:27:44.306Z</time></trkpt><trkpt lat="43.8466862" lon="11.1376285"><ele>44.0</ele><time>2026-04-25T15:27:45.309Z</time></trkpt><trkpt lat="43.8467622" lon="11.1377453"><ele>44.0</ele><time>2026-04-25T15:27:47.302Z</time></trkpt><trkpt lat="43.8468315" lon="11.1377819"><ele>44.0</ele><time>2026-04-25T15:27:48.308Z</time></trkpt><trkpt lat="43.8469082" lon="11.137805"><ele>44.0</ele><time>2026-04-25T15:27:49.293Z</time></trkpt><trkpt lat="43.8469845" lon="11.1378076"><ele>43.83333333333333</ele><time>2026-04-25T15:27:50.306Z</time></trkpt><trkpt lat="43.8470404" lon="11.137764"><ele>43.666666666666664</ele><time>2026-04-25T15:27:51.318Z</time></trkpt><trkpt lat="43.8471073" lon="11.1376373"><ele>43.5</ele><time>2026-04-25T15:27:53.298Z</time></trkpt><trkpt lat="43.847118" lon="11.137541"><ele>43.333333333333336</ele><time>2026-04-25T15:27:54.3Z</time></trkpt><trkpt lat="43.8471163" lon="11.1374385"><ele>43.16666666666667</ele><time>2026-04-25T15:27:55.328Z</time></trkpt><trkpt lat="43.8470817" lon="11.1373428"><ele>43.0</ele><time>2026-04-25T15:27:56.304Z</time></trkpt><trkpt lat="43.8470392" lon="11.1372693"><ele>43.2</ele><time>2026-04-25T15:27:57.302Z</time></trkpt><trkpt lat="43.8469346" lon="11.1371954"><ele>43.4</ele><time>2026-04-25T15:27:59.313Z</time></trkpt><trkpt lat="43.8468215" lon="11.1372267"><ele>43.6</ele><time>2026-04-25T15:28:01.31Z</time></trkpt><trkpt lat="43.8467668" lon="11.1372829"><ele>43.800000000000004</ele><time>2026-04-25T15:28:02.332Z</time></trkpt><trkpt lat="43.8467238" lon="11.1373533"><ele>44.0</ele><time>2026-04-25T15:28:03.312Z</time></trkpt><trkpt lat="43.8466941" lon="11.137474"><ele>44.0</ele><time>2026-04-25T15:28:04.326Z</time></trkpt><trkpt lat="43.8466858" lon="11.1376167"><ele>44.0</ele><time>2026-04-25T15:28:05.321Z</time></trkpt><trkpt lat="43.8466669" lon="11.1377798"><ele>44.0</ele><time>2026-04-25T15:28:06.321Z</time></trkpt><trkpt lat="43.8466191" lon="11.1379387"><ele>44.0</ele><time>2026-04-25T15:28:07.307Z</time></trkpt><trkpt lat="43.8465466" lon="11.1380873"><ele>44.0</ele><time>2026-04-25T15:28:08.292Z</time></trkpt><trkpt lat="43.8464638" lon="11.1382273"><ele>44.0</ele><time>2026-04-25T15:28:09.306Z</time></trkpt><trkpt lat="43.8463872" lon="11.1383604"><ele>44.0</ele><time>2026-04-25T15:28:10.311Z</time></trkpt><trkpt lat="43.8463108" lon="11.1384939"><ele>44.0</ele><time>2026-04-25T15:28:11.31Z</time></trkpt><trkpt lat="43.8462279" lon="11.1386271"><ele>44.0</ele><time>2026-04-25T15:28:12.317Z</time></trkpt><trkpt lat="43.8461477" lon="11.138763"><ele>44.0</ele><time>2026-04-25T15:28:13.31Z</time></trkpt><trkpt lat="43.8460651" lon="11.1388968"><ele>44.0</ele><time>2026-04-25T15:28:14.317Z</time></trkpt><trkpt lat="43.8459863" lon="11.1390216"><ele>44.0</ele><time>2026-04-25T15:28:15.31Z</time></trkpt><trkpt lat="43.845905" lon="11.1391472"><ele>44.25</ele><time>2026-04-25T15:28:16.318Z</time></trkpt><trkpt lat="43.8458215" lon="11.139287"><ele>44.5</ele><time>2026-04-25T15:28:17.318Z</time></trkpt><trkpt lat="43.8457357" lon="11.1394326"><ele>44.75</ele><time>2026-04-25T15:28:18.325Z</time></trkpt><trkpt lat="43.8456484" lon="11.1395752"><ele>45.0</ele><time>2026-04-25T15:28:19.317Z</time></trkpt><trkpt lat="43.8455604" lon="11.1397146"><ele>45.0</ele><time>2026-04-25T15:28:20.298Z</time></trkpt><trkpt lat="43.8454702" lon="11.1398557"><ele>45.0</ele><time>2026-04-25T15:28:21.323Z</time></trkpt><trkpt lat="43.8453921" lon="11.139992"><ele>45.0</ele><time>2026-04-25T15:28:22.32Z</time></trkpt><trkpt lat="43.8453065" lon="11.1401394"><ele>45.0</ele><time>2026-04-25T15:28:23.324Z</time></trkpt><trkpt lat="43.8452315" lon="11.1402878"><ele>44.75</ele><time>2026-04-25T15:28:24.325Z</time></trkpt><trkpt lat="43.8451467" lon="11.1404264"><ele>44.5</ele><time>2026-04-25T15:28:25.322Z</time></trkpt><trkpt lat="43.8450723" lon="11.1405613"><ele>44.25</ele><time>2026-04-25T15:28:26.316Z</time></trkpt><trkpt lat="43.8449969" lon="11.1406913"><ele>44.0</ele><time>2026-04-25T15:28:27.326Z</time></trkpt><trkpt lat="43.8449225" lon="11.1408179"><ele>44.5</ele><time>2026-04-25T15:28:28.304Z</time></trkpt><trkpt lat="43.8448483" lon="11.1409412"><ele>45.0</ele><time>2026-04-25T15:28:29.315Z</time></trkpt><trkpt lat="43.8447717" lon="11.1410627"><ele>45.5</ele><time>2026-04-25T15:28:30.306Z</time></trkpt><trkpt lat="43.8446968" lon="11.1411828"><ele>46.0</ele><time>2026-04-25T15:28:31.325Z</time></trkpt><trkpt lat="43.8446232" lon="11.1413046"><ele>46.0</ele><time>2026-04-25T15:28:32.327Z</time></trkpt><trkpt lat="43.8445548" lon="11.1414269"><ele>46.0</ele><time>2026-04-25T15:28:33.323Z</time></trkpt><trkpt lat="43.844489" lon="11.1415363"><ele>46.0</ele><time>2026-04-25T15:28:34.309Z</time></trkpt><trkpt lat="43.8444225" lon="11.1416364"><ele>46.0</ele><time>2026-04-25T15:28:35.321Z</time></trkpt><trkpt lat="43.8443634" lon="11.1417182"><ele>46.0</ele><time>2026-04-25T15:28:36.324Z</time></trkpt><trkpt lat="43.8442456" lon="11.1417674"><ele>45.5</ele><time>2026-04-25T15:28:38.338Z</time></trkpt><trkpt lat="43.8441232" lon="11.1418046"><ele>45.0</ele><time>2026-04-25T15:28:40.304Z</time></trkpt><trkpt lat="43.8440581" lon="11.1418325"><ele>44.5</ele><time>2026-04-25T15:28:41.32Z</time></trkpt><trkpt lat="43.843997" lon="11.1418607"><ele>44.0</ele><time>2026-04-25T15:28:42.324Z</time></trkpt><trkpt lat="43.8439425" lon="11.1419162"><ele>43.5</ele><time>2026-04-25T15:28:43.311Z</time></trkpt><trkpt lat="43.8439212" lon="11.1420103"><ele>43.0</ele><time>2026-04-25T15:28:44.312Z</time></trkpt><trkpt lat="43.8439138" lon="11.142114"><ele>43.0</ele><time>2026-04-25T15:28:45.318Z</time></trkpt><trkpt lat="43.8439275" lon="11.1422215"><ele>43.0</ele><time>2026-04-25T15:28:46.304Z</time></trkpt><trkpt lat="43.8439417" lon="11.1423394"><ele>43.0</ele><time>2026-04-25T15:28:47.331Z</time></trkpt><trkpt lat="43.8439464" lon="11.1424558"><ele>43.0</ele><time>2026-04-25T15:28:48.322Z</time></trkpt><trkpt lat="43.8439485" lon="11.1425703"><ele>43.0</ele><time>2026-04-25T15:28:49.297Z</time></trkpt><trkpt lat="43.8439328" lon="11.1426857"><ele>43.0</ele><time>2026-04-25T15:28:50.306Z</time></trkpt><trkpt lat="43.8439208" lon="11.1428257"><ele>43.0</ele><time>2026-04-25T15:28:51.301Z</time></trkpt><trkpt lat="43.8438556" lon="11.1429556"><ele>43.0</ele><time>2026-04-25T15:28:52.301Z</time></trkpt><trkpt lat="43.8437843" lon="11.1430717"><ele>43.0</ele><time>2026-04-25T15:28:53.302Z</time></trkpt><trkpt lat="43.8437136" lon="11.1431862"><ele>43.0</ele><time>2026-04-25T15:28:54.312Z</time></trkpt><trkpt lat="43.8436411" lon="11.1432972"><ele>43.0</ele><time>2026-04-25T15:28:55.317Z</time></trkpt><trkpt lat="43.8435673" lon="11.1434215"><ele>43.0</ele><time>2026-04-25T15:28:56.291Z</time></trkpt><trkpt lat="43.843497" lon="11.143542"><ele>43.0</ele><time>2026-04-25T15:28:57.311Z</time></trkpt><trkpt lat="43.843426" lon="11.1436652"><ele>43.0</ele><time>2026-04-25T15:28:58.297Z</time></trkpt><trkpt lat="43.8433504" lon="11.1438002"><ele>43.0</ele><time>2026-04-25T15:28:59.322Z</time></trkpt><trkpt lat="43.8432795" lon="11.1439393"><ele>43.0</ele><time>2026-04-25T15:29:00.318Z</time></trkpt><trkpt lat="43.8432132" lon="11.1440797"><ele>43.0</ele><time>2026-04-25T15:29:01.314Z</time></trkpt><trkpt lat="43.8431458" lon="11.1442369"><ele>43.0</ele><time>2026-04-25T15:29:02.318Z</time></trkpt><trkpt lat="43.843076" lon="11.1443941"><ele>43.0</ele><time>2026-04-25T15:29:03.312Z</time></trkpt><trkpt lat="43.8430034" lon="11.1445818"><ele>43.0</ele><time>2026-04-25T15:29:04.326Z</time></trkpt><trkpt lat="43.8429233" lon="11.1447808"><ele>43.0</ele><time>2026-04-25T15:29:05.314Z</time></trkpt><trkpt lat="43.8428428" lon="11.1449892"><ele>43.0</ele><time>2026-04-25T15:29:06.309Z</time></trkpt><trkpt lat="43.8427468" lon="11.1451987"><ele>43.333333333333336</ele><time>2026-04-25T15:29:07.307Z</time></trkpt><trkpt lat="43.8426438" lon="11.1454124"><ele>43.666666666666664</ele><time>2026-04-25T15:29:08.298Z</time></trkpt><trkpt lat="43.8425484" lon="11.1456244"><ele>44.0</ele><time>2026-04-25T15:29:09.296Z</time></trkpt><trkpt lat="43.8424546" lon="11.1458409"><ele>44.0</ele><time>2026-04-25T15:29:10.303Z</time></trkpt><trkpt lat="43.842357" lon="11.1460459"><ele>44.0</ele><time>2026-04-25T15:29:11.314Z</time></trkpt><trkpt lat="43.8422637" lon="11.1462386"><ele>44.0</ele><time>2026-04-25T15:29:12.321Z</time></trkpt><trkpt lat="43.8421744" lon="11.1464051"><ele>44.0</ele><time>2026-04-25T15:29:13.32Z</time></trkpt><trkpt lat="43.8420808" lon="11.1465683"><ele>44.0</ele><time>2026-04-25T15:29:14.333Z</time></trkpt><trkpt lat="43.8419962" lon="11.1467355"><ele>44.0</ele><time>2026-04-25T15:29:15.314Z</time></trkpt><trkpt lat="43.841917" lon="11.1468967"><ele>44.0</ele><time>2026-04-25T15:29:16.309Z</time></trkpt><trkpt lat="43.8418371" lon="11.1470515"><ele>43.666666666666664</ele><time>2026-04-25T15:29:17.289Z</time></trkpt><trkpt lat="43.8417473" lon="11.147227"><ele>43.333333333333336</ele><time>2026-04-25T15:29:18.306Z</time></trkpt><trkpt lat="43.8416536" lon="11.147417"><ele>43.0</ele><time>2026-04-25T15:29:19.321Z</time></trkpt><trkpt lat="43.8415566" lon="11.1476243"><ele>43.0</ele><time>2026-04-25T15:29:20.313Z</time></trkpt><trkpt lat="43.8414637" lon="11.147819"><ele>43.0</ele><time>2026-04-25T15:29:21.325Z</time></trkpt><trkpt lat="43.8413825" lon="11.148001"><ele>43.0</ele><time>2026-04-25T15:29:22.31Z</time></trkpt><trkpt lat="43.8413025" lon="11.1481677"><ele>42.75</ele><time>2026-04-25T15:29:23.313Z</time></trkpt><trkpt lat="43.8412271" lon="11.1483398"><ele>42.5</ele><time>2026-04-25T15:29:24.305Z</time></trkpt><trkpt lat="43.8411604" lon="11.1485015"><ele>42.25</ele><time>2026-04-25T15:29:25.309Z</time></trkpt><trkpt lat="43.841088" lon="11.1486532"><ele>42.0</ele><time>2026-04-25T15:29:26.327Z</time></trkpt><trkpt lat="43.8410289" lon="11.1487969"><ele>42.0</ele><time>2026-04-25T15:29:27.322Z</time></trkpt><trkpt lat="43.8409727" lon="11.1489394"><ele>42.0</ele><time>2026-04-25T15:29:28.307Z</time></trkpt><trkpt lat="43.8409121" lon="11.149083"><ele>42.0</ele><time>2026-04-25T15:29:29.307Z</time></trkpt><trkpt lat="43.8408508" lon="11.1492299"><ele>42.0</ele><time>2026-04-25T15:29:30.296Z</time></trkpt><trkpt lat="43.8407905" lon="11.1493656"><ele>42.0</ele><time>2026-04-25T15:29:31.314Z</time></trkpt><trkpt lat="43.8407361" lon="11.1494849"><ele>42.0</ele><time>2026-04-25T15:29:32.302Z</time></trkpt><trkpt lat="43.8406839" lon="11.149608"><ele>42.0</ele><time>2026-04-25T15:29:33.311Z</time></trkpt><trkpt lat="43.8406298" lon="11.1497221"><ele>42.0</ele><time>2026-04-25T15:29:34.306Z</time></trkpt><trkpt lat="43.8405766" lon="11.149856"><ele>42.0</ele><time>2026-04-25T15:29:35.315Z</time></trkpt><trkpt lat="43.8405135" lon="11.1499995"><ele>42.0</ele><time>2026-04-25T15:29:36.315Z</time></trkpt><trkpt lat="43.84045" lon="11.1501426"><ele>42.0</ele><time>2026-04-25T15:29:37.316Z</time></trkpt><trkpt lat="43.8403876" lon="11.1502813"><ele>42.0</ele><time>2026-04-25T15:29:38.315Z</time></trkpt><trkpt lat="43.8403214" lon="11.1504222"><ele>42.0</ele><time>2026-04-25T15:29:39.316Z</time></trkpt><trkpt lat="43.8402445" lon="11.1505777"><ele>42.666666666666664</ele><time>2026-04-25T15:29:40.289Z</time></trkpt><trkpt lat="43.8401642" lon="11.150758"><ele>43.33333333333333</ele><time>2026-04-25T15:29:41.315Z</time></trkpt><trkpt lat="43.8400615" lon="11.150953"><ele>44.0</ele><time>2026-04-25T15:29:42.31Z</time></trkpt><trkpt lat="43.8399599" lon="11.1511663"><ele>44.0</ele><time>2026-04-25T15:29:43.308Z</time></trkpt><trkpt lat="43.8398563" lon="11.1513838"><ele>44.0</ele><time>2026-04-25T15:29:44.279Z</time></trkpt><trkpt lat="43.8397492" lon="11.1515919"><ele>44.0</ele><time>2026-04-25T15:29:45.306Z</time></trkpt><trkpt lat="43.8396479" lon="11.1517947"><ele>44.0</ele><time>2026-04-25T15:29:46.283Z</time></trkpt><trkpt lat="43.8395516" lon="11.1519842"><ele>44.0</ele><time>2026-04-25T15:29:47.316Z</time></trkpt><trkpt lat="43.8394599" lon="11.1521729"><ele>44.0</ele><time>2026-04-25T15:29:48.311Z</time></trkpt><trkpt lat="43.8393724" lon="11.1523602"><ele>43.0</ele><time>2026-04-25T15:29:49.312Z</time></trkpt><trkpt lat="43.8392907" lon="11.1525507"><ele>42.0</ele><time>2026-04-25T15:29:50.316Z</time></trkpt><trkpt lat="43.8392091" lon="11.1527328"><ele>41.0</ele><time>2026-04-25T15:29:51.301Z</time></trkpt><trkpt lat="43.8391256" lon="11.1529376"><ele>41.0</ele><time>2026-04-25T15:29:52.308Z</time></trkpt><trkpt lat="43.8390413" lon="11.1531403"><ele>41.0</ele><time>2026-04-25T15:29:53.299Z</time></trkpt><trkpt lat="43.8389565" lon="11.1533402"><ele>41.0</ele><time>2026-04-25T15:29:54.303Z</time></trkpt><trkpt lat="43.838876" lon="11.1535245"><ele>40.75</ele><time>2026-04-25T15:29:55.315Z</time></trkpt><trkpt lat="43.8388017" lon="11.1537032"><ele>40.5</ele><time>2026-04-25T15:29:56.325Z</time></trkpt><trkpt lat="43.8387385" lon="11.1538565"><ele>40.25</ele><time>2026-04-25T15:29:57.313Z</time></trkpt><trkpt lat="43.8386777" lon="11.1539868"><ele>40.0</ele><time>2026-04-25T15:29:58.313Z</time></trkpt><trkpt lat="43.8386239" lon="11.1540968"><ele>40.0</ele><time>2026-04-25T15:29:59.326Z</time></trkpt><trkpt lat="43.8385808" lon="11.1541617"><ele>40.0</ele><time>2026-04-25T15:30:00.309Z</time></trkpt><trkpt lat="43.8385214" lon="11.1542332"><ele>40.0</ele><time>2026-04-25T15:30:03.313Z</time></trkpt><trkpt lat="43.8384527" lon="11.1543231"><ele>40.0</ele><time>2026-04-25T15:30:05.306Z</time></trkpt><trkpt lat="43.8383878" lon="11.1544793"><ele>40.0</ele><time>2026-04-25T15:30:07.306Z</time></trkpt><trkpt lat="43.838387" lon="11.1546579"><ele>40.0</ele><time>2026-04-25T15:30:09.298Z</time></trkpt><trkpt lat="43.8384072" lon="11.1547428"><ele>40.0</ele><time>2026-04-25T15:30:10.31Z</time></trkpt><trkpt lat="43.8384596" lon="11.1547988"><ele>40.0</ele><time>2026-04-25T15:30:11.308Z</time></trkpt><trkpt lat="43.838542" lon="11.1548334"><ele>40.0</ele><time>2026-04-25T15:30:12.311Z</time></trkpt><trkpt lat="43.8386237" lon="11.1548196"><ele>40.0</ele><time>2026-04-25T15:30:13.297Z</time></trkpt><trkpt lat="43.8386993" lon="11.1547936"><ele>40.0</ele><time>2026-04-25T15:30:14.316Z</time></trkpt><trkpt lat="43.8387951" lon="11.1547859"><ele>40.0</ele><time>2026-04-25T15:30:15.296Z</time></trkpt><trkpt lat="43.8389265" lon="11.154795"><ele>40.0</ele><time>2026-04-25T15:30:16.309Z</time></trkpt><trkpt lat="43.8390665" lon="11.1548271"><ele>40.0</ele><time>2026-04-25T15:30:17.314Z</time></trkpt><trkpt lat="43.8392211" lon="11.1548857"><ele>40.0</ele><time>2026-04-25T15:30:18.298Z</time></trkpt><trkpt lat="43.8393773" lon="11.1549505"><ele>40.66666666666667</ele><time>2026-04-25T15:30:19.304Z</time></trkpt><trkpt lat="43.8395462" lon="11.1550191"><ele>41.333333333333336</ele><time>2026-04-25T15:30:20.304Z</time></trkpt><trkpt lat="43.839727" lon="11.1550982"><ele>42.0</ele><time>2026-04-25T15:30:21.305Z</time></trkpt><trkpt lat="43.83991" lon="11.1551949"><ele>42.0</ele><time>2026-04-25T15:30:22.328Z</time></trkpt><trkpt lat="43.8401018" lon="11.155294"><ele>42.0</ele><time>2026-04-25T15:30:23.305Z</time></trkpt><trkpt lat="43.8402925" lon="11.155408"><ele>42.0</ele><time>2026-04-25T15:30:24.313Z</time></trkpt><trkpt lat="43.8404712" lon="11.155535"><ele>42.0</ele><time>2026-04-25T15:30:25.292Z</time></trkpt><trkpt lat="43.8406375" lon="11.1556551"><ele>42.0</ele><time>2026-04-25T15:30:26.313Z</time></trkpt><trkpt lat="43.8407918" lon="11.1557842"><ele>42.0</ele><time>2026-04-25T15:30:27.321Z</time></trkpt><trkpt lat="43.8409391" lon="11.1559126"><ele>41.666666666666664</ele><time>2026-04-25T15:30:28.306Z</time></trkpt><trkpt lat="43.8410836" lon="11.1560482"><ele>41.33333333333333</ele><time>2026-04-25T15:30:29.301Z</time></trkpt><trkpt lat="43.841227" lon="11.1561722"><ele>41.0</ele><time>2026-04-25T15:30:30.319Z</time></trkpt><trkpt lat="43.841373" lon="11.1562986"><ele>41.0</ele><time>2026-04-25T15:30:31.297Z</time></trkpt><trkpt lat="43.8415217" lon="11.1564326"><ele>41.0</ele><time>2026-04-25T15:30:32.314Z</time></trkpt><trkpt lat="43.841667" lon="11.1565673"><ele>41.0</ele><time>2026-04-25T15:30:33.315Z</time></trkpt><trkpt lat="43.8418107" lon="11.1566941"><ele>40.75</ele><time>2026-04-25T15:30:34.306Z</time></trkpt><trkpt lat="43.841939" lon="11.1568176"><ele>40.5</ele><time>2026-04-25T15:30:35.323Z</time></trkpt><trkpt lat="43.8420615" lon="11.1569349"><ele>40.25</ele><time>2026-04-25T15:30:36.312Z</time></trkpt><trkpt lat="43.8421479" lon="11.1570548"><ele>40.0</ele><time>2026-04-25T15:30:37.317Z</time></trkpt><trkpt lat="43.8422016" lon="11.1571817"><ele>40.0</ele><time>2026-04-25T15:30:38.326Z</time></trkpt><trkpt lat="43.8422348" lon="11.1573059"><ele>40.0</ele><time>2026-04-25T15:30:39.329Z</time></trkpt><trkpt lat="43.8422264" lon="11.1574124"><ele>40.0</ele><time>2026-04-25T15:30:40.317Z</time></trkpt><trkpt lat="43.8422301" lon="11.1575052"><ele>40.0</ele><time>2026-04-25T15:30:41.305Z</time></trkpt><trkpt lat="43.842234" lon="11.1576233"><ele>40.0</ele><time>2026-04-25T15:30:42.282Z</time></trkpt><trkpt lat="43.842249" lon="11.1577583"><ele>40.0</ele><time>2026-04-25T15:30:43.311Z</time></trkpt><trkpt lat="43.8422885" lon="11.157877"><ele>40.0</ele><time>2026-04-25T15:30:44.291Z</time></trkpt><trkpt lat="43.8423565" lon="11.1579869"><ele>40.0</ele><time>2026-04-25T15:30:45.298Z</time></trkpt><trkpt lat="43.8424406" lon="11.1580759"><ele>40.0</ele><time>2026-04-25T15:30:46.315Z</time></trkpt><trkpt lat="43.8425481" lon="11.1581693"><ele>40.0</ele><time>2026-04-25T15:30:47.294Z</time></trkpt><trkpt lat="43.84267" lon="11.1582853"><ele>40.0</ele><time>2026-04-25T15:30:48.315Z</time></trkpt><trkpt lat="43.8427926" lon="11.1584036"><ele>40.0</ele><time>2026-04-25T15:30:49.319Z</time></trkpt><trkpt lat="43.8429109" lon="11.158509"><ele>40.0</ele><time>2026-04-25T15:30:50.299Z</time></trkpt><trkpt lat="43.843022" lon="11.1585933"><ele>40.0</ele><time>2026-04-25T15:30:51.304Z</time></trkpt><trkpt lat="43.8431239" lon="11.1586482"><ele>40.0</ele><time>2026-04-25T15:30:52.307Z</time></trkpt><trkpt lat="43.8432156" lon="11.1587022"><ele>40.0</ele><time>2026-04-25T15:30:53.296Z</time></trkpt><trkpt lat="43.8433154" lon="11.1587243"><ele>40.0</ele><time>2026-04-25T15:30:54.309Z</time></trkpt><trkpt lat="43.8434129" lon="11.1587181"><ele>40.0</ele><time>2026-04-25T15:30:55.319Z</time></trkpt><trkpt lat="43.8435209" lon="11.1587145"><ele>40.0</ele><time>2026-04-25T15:30:56.309Z</time></trkpt><trkpt lat="43.8436478" lon="11.1587216"><ele>41.25</ele><time>2026-04-25T15:30:57.297Z</time></trkpt><trkpt lat="43.8437901" lon="11.1587239"><ele>42.5</ele><time>2026-04-25T15:30:58.311Z</time></trkpt><trkpt lat="43.8439331" lon="11.1587404"><ele>43.75</ele><time>2026-04-25T15:30:59.298Z</time></trkpt><trkpt lat="43.8440619" lon="11.1587518"><ele>45.0</ele><time>2026-04-25T15:31:00.293Z</time></trkpt><trkpt lat="43.8441931" lon="11.1587666"><ele>45.5</ele><time>2026-04-25T15:31:01.289Z</time></trkpt><trkpt lat="43.8443226" lon="11.1587884"><ele>46.0</ele><time>2026-04-25T15:31:02.283Z</time></trkpt><trkpt lat="43.8444385" lon="11.158819"><ele>46.5</ele><time>2026-04-25T15:31:03.301Z</time></trkpt><trkpt lat="43.8445517" lon="11.1588771"><ele>47.0</ele><time>2026-04-25T15:31:04.302Z</time></trkpt><trkpt lat="43.8446714" lon="11.1589492"><ele>47.0</ele><time>2026-04-25T15:31:05.314Z</time></trkpt><trkpt lat="43.8447942" lon="11.1590144"><ele>47.0</ele><time>2026-04-25T15:31:06.32Z</time></trkpt><trkpt lat="43.8449216" lon="11.159115"><ele>47.0</ele><time>2026-04-25T15:31:07.329Z</time></trkpt><trkpt lat="43.8450547" lon="11.1592325"><ele>47.0</ele><time>2026-04-25T15:31:08.316Z</time></trkpt><trkpt lat="43.845202" lon="11.1593712"><ele>47.33333333333333</ele><time>2026-04-25T15:31:09.313Z</time></trkpt><trkpt lat="43.8453586" lon="11.159512"><ele>47.666666666666664</ele><time>2026-04-25T15:31:10.308Z</time></trkpt><trkpt lat="43.8455202" lon="11.1596583"><ele>48.0</ele><time>2026-04-25T15:31:11.309Z</time></trkpt><trkpt lat="43.8456821" lon="11.1598094"><ele>48.0</ele><time>2026-04-25T15:31:12.316Z</time></trkpt><trkpt lat="43.8458349" lon="11.1599529"><ele>48.0</ele><time>2026-04-25T15:31:13.315Z</time></trkpt><trkpt lat="43.8459838" lon="11.1600866"><ele>48.0</ele><time>2026-04-25T15:31:14.329Z</time></trkpt><trkpt lat="43.8461276" lon="11.1602139"><ele>48.0</ele><time>2026-04-25T15:31:15.307Z</time></trkpt><trkpt lat="43.8462653" lon="11.1603363"><ele>48.0</ele><time>2026-04-25T15:31:16.314Z</time></trkpt><trkpt lat="43.8464068" lon="11.1604583"><ele>48.0</ele><time>2026-04-25T15:31:17.286Z</time></trkpt><trkpt lat="43.8465417" lon="11.1605805"><ele>48.0</ele><time>2026-04-25T15:31:18.306Z</time></trkpt><trkpt lat="43.8466708" lon="11.1606947"><ele>48.0</ele><time>2026-04-25T15:31:19.308Z</time></trkpt><trkpt lat="43.8468015" lon="11.1608049"><ele>48.0</ele><time>2026-04-25T15:31:20.301Z</time></trkpt><trkpt lat="43.8469265" lon="11.1609116"><ele>48.0</ele><time>2026-04-25T15:31:21.306Z</time></trkpt><trkpt lat="43.8470413" lon="11.1610213"><ele>48.0</ele><time>2026-04-25T15:31:22.306Z</time></trkpt><trkpt lat="43.8471511" lon="11.1611246"><ele>48.0</ele><time>2026-04-25T15:31:23.314Z</time></trkpt><trkpt lat="43.8472513" lon="11.161216"><ele>48.0</ele><time>2026-04-25T15:31:24.333Z</time></trkpt><trkpt lat="43.8473498" lon="11.1613092"><ele>48.0</ele><time>2026-04-25T15:31:25.315Z</time></trkpt><trkpt lat="43.8474354" lon="11.1614079"><ele>48.0</ele><time>2026-04-25T15:31:26.314Z</time></trkpt><trkpt lat="43.8474964" lon="11.1615227"><ele>48.0</ele><time>2026-04-25T15:31:27.324Z</time></trkpt><trkpt lat="43.8475334" lon="11.1616453"><ele>48.0</ele><time>2026-04-25T15:31:28.314Z</time></trkpt><trkpt lat="43.8475801" lon="11.1617528"><ele>48.0</ele><time>2026-04-25T15:31:29.31Z</time></trkpt><trkpt lat="43.84765" lon="11.1618209"><ele>48.0</ele><time>2026-04-25T15:31:30.318Z</time></trkpt><trkpt lat="43.8477313" lon="11.1618476"><ele>48.0</ele><time>2026-04-25T15:31:31.304Z</time></trkpt><trkpt lat="43.8478384" lon="11.1618489"><ele>48.0</ele><time>2026-04-25T15:31:32.306Z</time></trkpt><trkpt lat="43.8479516" lon="11.1618236"><ele>48.0</ele><time>2026-04-25T15:31:33.32Z</time></trkpt><trkpt lat="43.848073" lon="11.1618307"><ele>48.0</ele><time>2026-04-25T15:31:34.31Z</time></trkpt><trkpt lat="43.8481758" lon="11.1619055"><ele>48.0</ele><time>2026-04-25T15:31:35.317Z</time></trkpt><trkpt lat="43.8482802" lon="11.1620147"><ele>48.0</ele><time>2026-04-25T15:31:36.316Z</time></trkpt><trkpt lat="43.8484035" lon="11.162123"><ele>48.0</ele><time>2026-04-25T15:31:37.319Z</time></trkpt><trkpt lat="43.8485414" lon="11.1622468"><ele>48.0</ele><time>2026-04-25T15:31:38.297Z</time></trkpt><trkpt lat="43.8486793" lon="11.1623762"><ele>49.33333333333333</ele><time>2026-04-25T15:31:39.311Z</time></trkpt><trkpt lat="43.8488199" lon="11.1625108"><ele>50.666666666666664</ele><time>2026-04-25T15:31:40.316Z</time></trkpt><trkpt lat="43.8489514" lon="11.1626483"><ele>52.0</ele><time>2026-04-25T15:31:41.306Z</time></trkpt><trkpt lat="43.8490795" lon="11.1627629"><ele>52.0</ele><time>2026-04-25T15:31:42.308Z</time></trkpt><trkpt lat="43.8491986" lon="11.1628749"><ele>52.0</ele><time>2026-04-25T15:31:43.315Z</time></trkpt><trkpt lat="43.8493242" lon="11.1629836"><ele>52.0</ele><time>2026-04-25T15:31:44.294Z</time></trkpt><trkpt lat="43.849444" lon="11.1630963"><ele>52.0</ele><time>2026-04-25T15:31:45.311Z</time></trkpt><trkpt lat="43.8495682" lon="11.1632213"><ele>52.5</ele><time>2026-04-25T15:31:46.324Z</time></trkpt><trkpt lat="43.8496842" lon="11.1633492"><ele>53.0</ele><time>2026-04-25T15:31:47.314Z</time></trkpt><trkpt lat="43.8497816" lon="11.1634657"><ele>53.5</ele><time>2026-04-25T15:31:48.317Z</time></trkpt><trkpt lat="43.8498777" lon="11.1635839"><ele>54.0</ele><time>2026-04-25T15:31:49.32Z</time></trkpt><trkpt lat="43.8499711" lon="11.163693"><ele>54.0</ele><time>2026-04-25T15:31:50.314Z</time></trkpt><trkpt lat="43.8500597" lon="11.1637984"><ele>54.00000000000001</ele><time>2026-04-25T15:31:51.313Z</time></trkpt><trkpt lat="43.8501429" lon="11.163897"><ele>54.00000000000001</ele><time>2026-04-25T15:31:52.296Z</time></trkpt><trkpt lat="43.8502203" lon="11.1639956"><ele>54.0</ele><time>2026-04-25T15:31:53.304Z</time></trkpt><trkpt lat="43.8502902" lon="11.1641077"><ele>54.0</ele><time>2026-04-25T15:31:54.305Z</time></trkpt><trkpt lat="43.8503595" lon="11.1642143"><ele>53.800000000000004</ele><time>2026-04-25T15:31:55.325Z</time></trkpt><trkpt lat="43.8504204" lon="11.1643149"><ele>53.60000000000001</ele><time>2026-04-25T15:31:56.321Z</time></trkpt><trkpt lat="43.850482" lon="11.1644189"><ele>53.4</ele><time>2026-04-25T15:31:57.3Z</time></trkpt><trkpt lat="43.850542" lon="11.1645188"><ele>53.2</ele><time>2026-04-25T15:31:58.322Z</time></trkpt><trkpt lat="43.8506098" lon="11.1646322"><ele>53.0</ele><time>2026-04-25T15:31:59.32Z</time></trkpt><trkpt lat="43.8506765" lon="11.1647439"><ele>53.00000000000001</ele><time>2026-04-25T15:32:00.306Z</time></trkpt><trkpt lat="43.85073" lon="11.1648496"><ele>53.0</ele><time>2026-04-25T15:32:01.318Z</time></trkpt><trkpt lat="43.8507817" lon="11.1649514"><ele>53.0</ele><time>2026-04-25T15:32:02.317Z</time></trkpt><trkpt lat="43.8508293" lon="11.1650502"><ele>53.0</ele><time>2026-04-25T15:32:03.293Z</time></trkpt><trkpt lat="43.8508773" lon="11.165146"><ele>53.00000000000001</ele><time>2026-04-25T15:32:04.299Z</time></trkpt><trkpt lat="43.8509187" lon="11.165239"><ele>53.0</ele><time>2026-04-25T15:32:05.323Z</time></trkpt><trkpt lat="43.8509571" lon="11.1653261"><ele>52.8</ele><time>2026-04-25T15:32:06.303Z</time></trkpt><trkpt lat="43.8510186" lon="11.1654743"><ele>52.599999999999994</ele><time>2026-04-25T15:32:08.289Z</time></trkpt><trkpt lat="43.8510355" lon="11.1655658"><ele>52.400000000000006</ele><time>2026-04-25T15:32:09.285Z</time></trkpt><trkpt lat="43.8510471" lon="11.1657115"><ele>52.2</ele><time>2026-04-25T15:32:11.324Z</time></trkpt><trkpt lat="43.8510401" lon="11.1658185"><ele>52.0</ele><time>2026-04-25T15:32:13.31Z</time></trkpt><trkpt lat="43.8510127" lon="11.1659625"><ele>52.49999999999999</ele><time>2026-04-25T15:32:15.325Z</time></trkpt><trkpt lat="43.8509956" lon="11.1660473"><ele>53.0</ele><time>2026-04-25T15:32:16.325Z</time></trkpt><trkpt lat="43.8509808" lon="11.1662107"><ele>53.5</ele><time>2026-04-25T15:32:18.295Z</time></trkpt><trkpt lat="43.8509923" lon="11.1663151"><ele>54.0</ele><time>2026-04-25T15:32:19.313Z</time></trkpt><trkpt lat="43.8510298" lon="11.166414"><ele>54.49999999999999</ele><time>2026-04-25T15:32:20.301Z</time></trkpt><trkpt lat="43.8510915" lon="11.166478"><ele>55.0</ele><time>2026-04-25T15:32:21.327Z</time></trkpt><trkpt lat="43.8511666" lon="11.1665083"><ele>55.0</ele><time>2026-04-25T15:32:22.31Z</time></trkpt><trkpt lat="43.8512604" lon="11.1665224"><ele>55.0</ele><time>2026-04-25T15:32:23.312Z</time></trkpt><trkpt lat="43.8513491" lon="11.1665507"><ele>55.0</ele><time>2026-04-25T15:32:24.293Z</time></trkpt><trkpt lat="43.8514402" lon="11.1666227"><ele>55.0</ele><time>2026-04-25T15:32:25.303Z</time></trkpt><trkpt lat="43.8515249" lon="11.1667184"><ele>55.0</ele><time>2026-04-25T15:32:26.318Z</time></trkpt><trkpt lat="43.8515914" lon="11.1668317"><ele>55.4</ele><time>2026-04-25T15:32:27.302Z</time></trkpt><trkpt lat="43.8516516" lon="11.166948"><ele>55.8</ele><time>2026-04-25T15:32:28.309Z</time></trkpt><trkpt lat="43.8517053" lon="11.1670787"><ele>56.2</ele><time>2026-04-25T15:32:29.305Z</time></trkpt><trkpt lat="43.851748" lon="11.1671985"><ele>56.6</ele><time>2026-04-25T15:32:30.304Z</time></trkpt><trkpt lat="43.8517773" lon="11.1673141"><ele>57.0</ele><time>2026-04-25T15:32:31.304Z</time></trkpt><trkpt lat="43.8517945" lon="11.1674377"><ele>57.0</ele><time>2026-04-25T15:32:32.317Z</time></trkpt><trkpt lat="43.8518135" lon="11.1675596"><ele>57.0</ele><time>2026-04-25T15:32:33.312Z</time></trkpt><trkpt lat="43.8518316" lon="11.1676737"><ele>57.0</ele><time>2026-04-25T15:32:34.321Z</time></trkpt><trkpt lat="43.851852" lon="11.1677879"><ele>57.0</ele><time>2026-04-25T15:32:35.31Z</time></trkpt><trkpt lat="43.8518701" lon="11.1678964"><ele>57.0</ele><time>2026-04-25T15:32:36.325Z</time></trkpt><trkpt lat="43.8518826" lon="11.1680124"><ele>57.0</ele><time>2026-04-25T15:32:37.304Z</time></trkpt><trkpt lat="43.8518881" lon="11.1681281"><ele>57.0</ele><time>2026-04-25T15:32:38.288Z</time></trkpt><trkpt lat="43.8518954" lon="11.1682381"><ele>57.0</ele><time>2026-04-25T15:32:39.291Z</time></trkpt><trkpt lat="43.8519044" lon="11.1683453"><ele>57.0</ele><time>2026-04-25T15:32:40.283Z</time></trkpt><trkpt lat="43.8519132" lon="11.1684522"><ele>57.0</ele><time>2026-04-25T15:32:41.286Z</time></trkpt><trkpt lat="43.851907" lon="11.1686236"><ele>57.0</ele><time>2026-04-25T15:32:43.286Z</time></trkpt><trkpt lat="43.8518917" lon="11.1687723"><ele>57.0</ele><time>2026-04-25T15:32:45.285Z</time></trkpt><trkpt lat="43.8518879" lon="11.1688621"><ele>57.0</ele><time>2026-04-25T15:32:47.29Z</time></trkpt><trkpt lat="43.8518844" lon="11.1689543"><ele>57.0</ele><time>2026-04-25T15:32:58.311Z</time></trkpt><trkpt lat="43.8518786" lon="11.1690446"><ele>57.0</ele><time>2026-04-25T15:32:59.311Z</time></trkpt><trkpt lat="43.8518918" lon="11.1691917"><ele>57.0</ele><time>2026-04-25T15:33:00.318Z</time></trkpt><trkpt lat="43.8519464" lon="11.1693518"><ele>57.0</ele><time>2026-04-25T15:33:01.309Z</time></trkpt><trkpt lat="43.8520359" lon="11.1694885"><ele>57.25</ele><time>2026-04-25T15:33:02.308Z</time></trkpt><trkpt lat="43.8521164" lon="11.16964"><ele>57.5</ele><time>2026-04-25T15:33:03.314Z</time></trkpt><trkpt lat="43.8521823" lon="11.1698302"><ele>57.75</ele><time>2026-04-25T15:33:04.332Z</time></trkpt><trkpt lat="43.8522275" lon="11.1700319"><ele>58.0</ele><time>2026-04-25T15:33:05.314Z</time></trkpt><trkpt lat="43.8522639" lon="11.1702513"><ele>58.0</ele><time>2026-04-25T15:33:06.32Z</time></trkpt><trkpt lat="43.8523083" lon="11.1704893"><ele>58.0</ele><time>2026-04-25T15:33:07.311Z</time></trkpt><trkpt lat="43.8523524" lon="11.1707507"><ele>58.0</ele><time>2026-04-25T15:33:08.313Z</time></trkpt><trkpt lat="43.8524027" lon="11.1710029"><ele>58.666666666666664</ele><time>2026-04-25T15:33:09.321Z</time></trkpt><trkpt lat="43.8524403" lon="11.1712202"><ele>59.33333333333333</ele><time>2026-04-25T15:33:10.321Z</time></trkpt><trkpt lat="43.8524591" lon="11.1714277"><ele>60.0</ele><time>2026-04-25T15:33:11.319Z</time></trkpt><trkpt lat="43.8524626" lon="11.1716406"><ele>60.66666666666667</ele><time>2026-04-25T15:33:12.309Z</time></trkpt><trkpt lat="43.8524322" lon="11.1718419"><ele>61.333333333333336</ele><time>2026-04-25T15:33:13.325Z</time></trkpt><trkpt lat="43.852365" lon="11.1720241"><ele>62.0</ele><time>2026-04-25T15:33:14.308Z</time></trkpt><trkpt lat="43.8522478" lon="11.1722034"><ele>62.0</ele><time>2026-04-25T15:33:15.318Z</time></trkpt><trkpt lat="43.8520964" lon="11.1723319"><ele>62.0</ele><time>2026-04-25T15:33:16.308Z</time></trkpt><trkpt lat="43.8519451" lon="11.1723967"><ele>62.0</ele><time>2026-04-25T15:33:17.3Z</time></trkpt><trkpt lat="43.8517666" lon="11.1724244"><ele>61.333333333333336</ele><time>2026-04-25T15:33:18.317Z</time></trkpt><trkpt lat="43.8515726" lon="11.1724174"><ele>60.66666666666667</ele><time>2026-04-25T15:33:19.314Z</time></trkpt><trkpt lat="43.8513709" lon="11.1723863"><ele>60.0</ele><time>2026-04-25T15:33:20.307Z</time></trkpt><trkpt lat="43.8511668" lon="11.1723196"><ele>59.66666666666667</ele><time>2026-04-25T15:33:21.305Z</time></trkpt><trkpt lat="43.8509728" lon="11.1722197"><ele>59.333333333333336</ele><time>2026-04-25T15:33:22.304Z</time></trkpt><trkpt lat="43.8507848" lon="11.1720869"><ele>59.0</ele><time>2026-04-25T15:33:23.307Z</time></trkpt><trkpt lat="43.8505902" lon="11.1719314"><ele>58.5</ele><time>2026-04-25T15:33:24.324Z</time></trkpt><trkpt lat="43.8503933" lon="11.1717699"><ele>58.0</ele><time>2026-04-25T15:33:25.318Z</time></trkpt><trkpt lat="43.8501867" lon="11.1716018"><ele>57.5</ele><time>2026-04-25T15:33:26.312Z</time></trkpt><trkpt lat="43.849959" lon="11.1714234"><ele>57.0</ele><time>2026-04-25T15:33:27.297Z</time></trkpt><trkpt lat="43.8497228" lon="11.1712363"><ele>57.0</ele><time>2026-04-25T15:33:28.32Z</time></trkpt><trkpt lat="43.8494907" lon="11.1710348"><ele>57.0</ele><time>2026-04-25T15:33:29.31Z</time></trkpt><trkpt lat="43.849254" lon="11.170836"><ele>58.0</ele><time>2026-04-25T15:33:30.309Z</time></trkpt><trkpt lat="43.8490154" lon="11.1706437"><ele>59.0</ele><time>2026-04-25T15:33:31.308Z</time></trkpt><trkpt lat="43.8487807" lon="11.1704485"><ele>59.0</ele><time>2026-04-25T15:33:32.315Z</time></trkpt><trkpt lat="43.8485457" lon="11.1702574"><ele>59.0</ele><time>2026-04-25T15:33:33.319Z</time></trkpt><trkpt lat="43.8483065" lon="11.1700561"><ele>57.5</ele><time>2026-04-25T15:33:34.313Z</time></trkpt><trkpt lat="43.8480745" lon="11.1698553"><ele>56.0</ele><time>2026-04-25T15:33:35.31Z</time></trkpt><trkpt lat="43.8478366" lon="11.1696551"><ele>55.0</ele><time>2026-04-25T15:33:36.316Z</time></trkpt><trkpt lat="43.847604" lon="11.1694521"><ele>54.0</ele><time>2026-04-25T15:33:37.311Z</time></trkpt><trkpt lat="43.8473715" lon="11.1692532"><ele>54.0</ele><time>2026-04-25T15:33:38.322Z</time></trkpt><trkpt lat="43.8471344" lon="11.1690568"><ele>54.0</ele><time>2026-04-25T15:33:39.318Z</time></trkpt><trkpt lat="43.8468973" lon="11.1688584"><ele>53.0</ele><time>2026-04-25T15:33:40.328Z</time></trkpt><trkpt lat="43.8466557" lon="11.168659"><ele>52.0</ele><time>2026-04-25T15:33:41.331Z</time></trkpt><trkpt lat="43.8464119" lon="11.1684569"><ele>52.0</ele><time>2026-04-25T15:33:42.314Z</time></trkpt><trkpt lat="43.8461673" lon="11.1682538"><ele>52.0</ele><time>2026-04-25T15:33:43.315Z</time></trkpt><trkpt lat="43.845924" lon="11.1680446"><ele>51.5</ele><time>2026-04-25T15:33:44.319Z</time></trkpt><trkpt lat="43.8456792" lon="11.1678345"><ele>51.0</ele><time>2026-04-25T15:33:45.325Z</time></trkpt><trkpt lat="43.8454362" lon="11.1676153"><ele>51.0</ele><time>2026-04-25T15:33:46.321Z</time></trkpt><trkpt lat="43.8451911" lon="11.167407"><ele>51.0</ele><time>2026-04-25T15:33:47.295Z</time></trkpt><trkpt lat="43.8449441" lon="11.1672008"><ele>50.5</ele><time>2026-04-25T15:33:48.335Z</time></trkpt><trkpt lat="43.8446935" lon="11.1669959"><ele>50.0</ele><time>2026-04-25T15:33:49.312Z</time></trkpt><trkpt lat="43.8444474" lon="11.1667928"><ele>49.5</ele><time>2026-04-25T15:33:50.319Z</time></trkpt><trkpt lat="43.8442045" lon="11.1665884"><ele>49.0</ele><time>2026-04-25T15:33:51.31Z</time></trkpt><trkpt lat="43.8439559" lon="11.1663835"><ele>48.5</ele><time>2026-04-25T15:33:52.323Z</time></trkpt><trkpt lat="43.8437125" lon="11.1661769"><ele>48.0</ele><time>2026-04-25T15:33:53.305Z</time></trkpt><trkpt lat="43.8434684" lon="11.1659739"><ele>48.0</ele><time>2026-04-25T15:33:54.319Z</time></trkpt><trkpt lat="43.843221" lon="11.1657662"><ele>48.0</ele><time>2026-04-25T15:33:55.319Z</time></trkpt><trkpt lat="43.8429743" lon="11.165562"><ele>47.0</ele><time>2026-04-25T15:33:56.307Z</time></trkpt><trkpt lat="43.8427281" lon="11.1653536"><ele>46.0</ele><time>2026-04-25T15:33:57.298Z</time></trkpt><trkpt lat="43.8424772" lon="11.1651374"><ele>45.5</ele><time>2026-04-25T15:33:58.33Z</time></trkpt><trkpt lat="43.8422284" lon="11.1649244"><ele>45.0</ele><time>2026-04-25T15:33:59.314Z</time></trkpt><trkpt lat="43.841977" lon="11.1647134"><ele>45.0</ele><time>2026-04-25T15:34:00.326Z</time></trkpt><trkpt lat="43.841724" lon="11.1645044"><ele>45.0</ele><time>2026-04-25T15:34:01.305Z</time></trkpt><trkpt lat="43.8414707" lon="11.1642903"><ele>45.0</ele><time>2026-04-25T15:34:02.317Z</time></trkpt><trkpt lat="43.8412174" lon="11.1640707"><ele>45.0</ele><time>2026-04-25T15:34:03.309Z</time></trkpt><trkpt lat="43.8409582" lon="11.16385"><ele>43.0</ele><time>2026-04-25T15:34:04.323Z</time></trkpt><trkpt lat="43.8406958" lon="11.1636272"><ele>41.0</ele><time>2026-04-25T15:34:05.313Z</time></trkpt><trkpt lat="43.8404409" lon="11.1634009"><ele>41.0</ele><time>2026-04-25T15:34:06.314Z</time></trkpt><trkpt lat="43.8401787" lon="11.1631773"><ele>41.0</ele><time>2026-04-25T15:34:07.299Z</time></trkpt><trkpt lat="43.8399163" lon="11.1629533"><ele>41.0</ele><time>2026-04-25T15:34:08.316Z</time></trkpt><trkpt lat="43.839653" lon="11.1627257"><ele>41.0</ele><time>2026-04-25T15:34:09.313Z</time></trkpt><trkpt lat="43.8393914" lon="11.1625028"><ele>41.5</ele><time>2026-04-25T15:34:10.315Z</time></trkpt><trkpt lat="43.8391287" lon="11.1622792"><ele>42.0</ele><time>2026-04-25T15:34:11.317Z</time></trkpt><trkpt lat="43.8388637" lon="11.1620533"><ele>42.0</ele><time>2026-04-25T15:34:12.316Z</time></trkpt><trkpt lat="43.8385962" lon="11.1618256"><ele>42.0</ele><time>2026-04-25T15:34:13.314Z</time></trkpt><trkpt lat="43.8383284" lon="11.1615972"><ele>43.0</ele><time>2026-04-25T15:34:14.331Z</time></trkpt><trkpt lat="43.8380549" lon="11.1613582"><ele>44.0</ele><time>2026-04-25T15:34:15.309Z</time></trkpt><trkpt lat="43.8377717" lon="11.1611139"><ele>43.0</ele><time>2026-04-25T15:34:16.301Z</time></trkpt><trkpt lat="43.8374863" lon="11.1608687"><ele>42.0</ele><time>2026-04-25T15:34:17.299Z</time></trkpt><trkpt lat="43.8372054" lon="11.160623"><ele>41.5</ele><time>2026-04-25T15:34:18.309Z</time></trkpt><trkpt lat="43.8369288" lon="11.1603901"><ele>41.0</ele><time>2026-04-25T15:34:19.298Z</time></trkpt><trkpt lat="43.8366577" lon="11.1601588"><ele>41.0</ele><time>2026-04-25T15:34:20.301Z</time></trkpt><trkpt lat="43.8363825" lon="11.1599302"><ele>41.0</ele><time>2026-04-25T15:34:21.314Z</time></trkpt><trkpt lat="43.8361134" lon="11.1597087"><ele>39.0</ele><time>2026-04-25T15:34:22.299Z</time></trkpt><trkpt lat="43.8358467" lon="11.1594853"><ele>37.0</ele><time>2026-04-25T15:34:23.295Z</time></trkpt><trkpt lat="43.8355875" lon="11.1592557"><ele>37.0</ele><time>2026-04-25T15:34:24.29Z</time></trkpt><trkpt lat="43.8353272" lon="11.1590265"><ele>37.0</ele><time>2026-04-25T15:34:25.301Z</time></trkpt><trkpt lat="43.8350684" lon="11.1587984"><ele>37.0</ele><time>2026-04-25T15:34:26.3Z</time></trkpt><trkpt lat="43.8348069" lon="11.158569"><ele>37.0</ele><time>2026-04-25T15:34:27.294Z</time></trkpt><trkpt lat="43.8345429" lon="11.1583426"><ele>38.0</ele><time>2026-04-25T15:34:28.317Z</time></trkpt><trkpt lat="43.8342757" lon="11.1581113"><ele>39.0</ele><time>2026-04-25T15:34:29.309Z</time></trkpt><trkpt lat="43.8340133" lon="11.1578869"><ele>39.0</ele><time>2026-04-25T15:34:30.331Z</time></trkpt><trkpt lat="43.8337437" lon="11.1576605"><ele>39.0</ele><time>2026-04-25T15:34:31.318Z</time></trkpt><trkpt lat="43.833479" lon="11.1574271"><ele>38.0</ele><time>2026-04-25T15:34:32.304Z</time></trkpt><trkpt lat="43.8332162" lon="11.15719"><ele>37.0</ele><time>2026-04-25T15:34:33.309Z</time></trkpt><trkpt lat="43.8329474" lon="11.1569564"><ele>37.0</ele><time>2026-04-25T15:34:34.287Z</time></trkpt><trkpt lat="43.8326785" lon="11.1567237"><ele>37.0</ele><time>2026-04-25T15:34:35.309Z</time></trkpt><trkpt lat="43.8324111" lon="11.1564986"><ele>38.5</ele><time>2026-04-25T15:34:36.315Z</time></trkpt><trkpt lat="43.8321425" lon="11.156272"><ele>40.0</ele><time>2026-04-25T15:34:37.317Z</time></trkpt><trkpt lat="43.8318778" lon="11.1560438"><ele>40.5</ele><time>2026-04-25T15:34:38.313Z</time></trkpt><trkpt lat="43.8316094" lon="11.1558177"><ele>41.0</ele><time>2026-04-25T15:34:39.325Z</time></trkpt><trkpt lat="43.8313487" lon="11.1555944"><ele>40.0</ele><time>2026-04-25T15:34:40.311Z</time></trkpt><trkpt lat="43.8310843" lon="11.1553717"><ele>39.0</ele><time>2026-04-25T15:34:41.331Z</time></trkpt><trkpt lat="43.8308256" lon="11.1551469"><ele>39.0</ele><time>2026-04-25T15:34:42.313Z</time></trkpt><trkpt lat="43.8305645" lon="11.154925"><ele>39.0</ele><time>2026-04-25T15:34:43.299Z</time></trkpt><trkpt lat="43.8303063" lon="11.1547088"><ele>39.0</ele><time>2026-04-25T15:34:44.296Z</time></trkpt><trkpt lat="43.8300507" lon="11.1544937"><ele>39.0</ele><time>2026-04-25T15:34:45.298Z</time></trkpt><trkpt lat="43.8297986" lon="11.1542831"><ele>39.0</ele><time>2026-04-25T15:34:46.307Z</time></trkpt><trkpt lat="43.8295478" lon="11.154072"><ele>39.0</ele><time>2026-04-25T15:34:47.296Z</time></trkpt><trkpt lat="43.8292933" lon="11.1538561"><ele>39.5</ele><time>2026-04-25T15:34:48.341Z</time></trkpt><trkpt lat="43.8290415" lon="11.1536463"><ele>40.0</ele><time>2026-04-25T15:34:49.308Z</time></trkpt><trkpt lat="43.8287846" lon="11.1534432"><ele>40.0</ele><time>2026-04-25T15:34:50.31Z</time></trkpt><trkpt lat="43.8285285" lon="11.1532426"><ele>40.0</ele><time>2026-04-25T15:34:51.325Z</time></trkpt><trkpt lat="43.8282742" lon="11.1530443"><ele>39.0</ele><time>2026-04-25T15:34:52.317Z</time></trkpt><trkpt lat="43.8280108" lon="11.1528536"><ele>38.0</ele><time>2026-04-25T15:34:53.301Z</time></trkpt><trkpt lat="43.8277398" lon="11.1526683"><ele>38.0</ele><time>2026-04-25T15:34:54.3Z</time></trkpt><trkpt lat="43.8274644" lon="11.1524917"><ele>38.0</ele><time>2026-04-25T15:34:55.313Z</time></trkpt><trkpt lat="43.827179" lon="11.1523183"><ele>37.5</ele><time>2026-04-25T15:34:56.299Z</time></trkpt><trkpt lat="43.8268716" lon="11.1521518"><ele>37.0</ele><time>2026-04-25T15:34:57.308Z</time></trkpt><trkpt lat="43.8265511" lon="11.1519981"><ele>37.0</ele><time>2026-04-25T15:34:58.326Z</time></trkpt><trkpt lat="43.8262173" lon="11.1518521"><ele>37.0</ele><time>2026-04-25T15:34:59.306Z</time></trkpt><trkpt lat="43.8258742" lon="11.1517308"><ele>37.5</ele><time>2026-04-25T15:35:00.294Z</time></trkpt><trkpt lat="43.8255317" lon="11.1516431"><ele>38.0</ele><time>2026-04-25T15:35:01.322Z</time></trkpt><trkpt lat="43.8251902" lon="11.1515659"><ele>38.0</ele><time>2026-04-25T15:35:02.308Z</time></trkpt><trkpt lat="43.8248449" lon="11.1515105"><ele>38.0</ele><time>2026-04-25T15:35:03.298Z</time></trkpt><trkpt lat="43.8245082" lon="11.1514738"><ele>37.0</ele><time>2026-04-25T15:35:04.302Z</time></trkpt><trkpt lat="43.8241678" lon="11.1514495"><ele>36.0</ele><time>2026-04-25T15:35:05.316Z</time></trkpt><trkpt lat="43.8238353" lon="11.1514344"><ele>36.0</ele><time>2026-04-25T15:35:06.327Z</time></trkpt><trkpt lat="43.8235056" lon="11.1514229"><ele>36.0</ele><time>2026-04-25T15:35:07.294Z</time></trkpt><trkpt lat="43.8231764" lon="11.1514224"><ele>36.0</ele><time>2026-04-25T15:35:08.302Z</time></trkpt><trkpt lat="43.8228488" lon="11.1514151"><ele>36.0</ele><time>2026-04-25T15:35:09.308Z</time></trkpt><trkpt lat="43.822522" lon="11.1514133"><ele>35.5</ele><time>2026-04-25T15:35:10.333Z</time></trkpt><trkpt lat="43.8221987" lon="11.1514034"><ele>35.0</ele><time>2026-04-25T15:35:11.314Z</time></trkpt><trkpt lat="43.8218721" lon="11.1513952"><ele>35.0</ele><time>2026-04-25T15:35:12.323Z</time></trkpt><trkpt lat="43.8215444" lon="11.1513898"><ele>35.0</ele><time>2026-04-25T15:35:13.305Z</time></trkpt><trkpt lat="43.8212187" lon="11.1513815"><ele>35.5</ele><time>2026-04-25T15:35:14.32Z</time></trkpt><trkpt lat="43.8208922" lon="11.1513742"><ele>36.0</ele><time>2026-04-25T15:35:15.302Z</time></trkpt><trkpt lat="43.8205688" lon="11.1513668"><ele>36.0</ele><time>2026-04-25T15:35:16.32Z</time></trkpt><trkpt lat="43.8202499" lon="11.1513643"><ele>36.0</ele><time>2026-04-25T15:35:17.306Z</time></trkpt><trkpt lat="43.8199354" lon="11.1513663"><ele>36.0</ele><time>2026-04-25T15:35:18.321Z</time></trkpt><trkpt lat="43.8196187" lon="11.1513689"><ele>36.0</ele><time>2026-04-25T15:35:19.322Z</time></trkpt><trkpt lat="43.819304" lon="11.1513637"><ele>36.5</ele><time>2026-04-25T15:35:20.318Z</time></trkpt><trkpt lat="43.818996" lon="11.1513594"><ele>37.0</ele><time>2026-04-25T15:35:21.295Z</time></trkpt><trkpt lat="43.8186845" lon="11.1513549"><ele>35.5</ele><time>2026-04-25T15:35:22.322Z</time></trkpt><trkpt lat="43.8183737" lon="11.1513511"><ele>34.0</ele><time>2026-04-25T15:35:23.313Z</time></trkpt><trkpt lat="43.8180669" lon="11.1513432"><ele>34.0</ele><time>2026-04-25T15:35:24.316Z</time></trkpt><trkpt lat="43.8177586" lon="11.1513386"><ele>34.0</ele><time>2026-04-25T15:35:25.32Z</time></trkpt><trkpt lat="43.8174523" lon="11.1513386"><ele>34.5</ele><time>2026-04-25T15:35:26.31Z</time></trkpt><trkpt lat="43.8171487" lon="11.1513362"><ele>35.0</ele><time>2026-04-25T15:35:27.288Z</time></trkpt><trkpt lat="43.8168424" lon="11.151336"><ele>36.0</ele><time>2026-04-25T15:35:28.287Z</time></trkpt><trkpt lat="43.8165369" lon="11.1513344"><ele>37.0</ele><time>2026-04-25T15:35:29.31Z</time></trkpt><trkpt lat="43.816227" lon="11.1513354"><ele>35.5</ele><time>2026-04-25T15:35:30.29Z</time></trkpt><trkpt lat="43.8159123" lon="11.1513278"><ele>34.0</ele><time>2026-04-25T15:35:31.297Z</time></trkpt><trkpt lat="43.8156004" lon="11.151327"><ele>34.0</ele><time>2026-04-25T15:35:32.324Z</time></trkpt><trkpt lat="43.8152868" lon="11.1513227"><ele>34.0</ele><time>2026-04-25T15:35:33.289Z</time></trkpt><trkpt lat="43.8149701" lon="11.151318"><ele>34.0</ele><time>2026-04-25T15:35:34.295Z</time></trkpt><trkpt lat="43.8146548" lon="11.1513202"><ele>34.0</ele><time>2026-04-25T15:35:35.287Z</time></trkpt><trkpt lat="43.8143387" lon="11.151326"><ele>34.0</ele><time>2026-04-25T15:35:36.322Z</time></trkpt><trkpt lat="43.8140229" lon="11.151328"><ele>34.0</ele><time>2026-04-25T15:35:37.317Z</time></trkpt><trkpt lat="43.8137052" lon="11.1513417"><ele>34.0</ele><time>2026-04-25T15:35:38.307Z</time></trkpt><trkpt lat="43.8133957" lon="11.1513696"><ele>34.0</ele><time>2026-04-25T15:35:39.333Z</time></trkpt><trkpt lat="43.8130832" lon="11.1514127"><ele>34.0</ele><time>2026-04-25T15:35:40.302Z</time></trkpt><trkpt lat="43.8127732" lon="11.1514608"><ele>34.0</ele><time>2026-04-25T15:35:41.315Z</time></trkpt><trkpt lat="43.8124606" lon="11.1515255"><ele>34.5</ele><time>2026-04-25T15:35:42.294Z</time></trkpt><trkpt lat="43.8121453" lon="11.151595"><ele>35.0</ele><time>2026-04-25T15:35:43.313Z</time></trkpt><trkpt lat="43.8118327" lon="11.1516688"><ele>34.5</ele><time>2026-04-25T15:35:44.297Z</time></trkpt><trkpt lat="43.8115254" lon="11.1517577"><ele>34.0</ele><time>2026-04-25T15:35:45.324Z</time></trkpt><trkpt lat="43.8112161" lon="11.1518408"><ele>34.0</ele><time>2026-04-25T15:35:46.324Z</time></trkpt><trkpt lat="43.8109003" lon="11.1519337"><ele>34.0</ele><time>2026-04-25T15:35:47.311Z</time></trkpt><trkpt lat="43.8105879" lon="11.152021"><ele>34.0</ele><time>2026-04-25T15:35:48.307Z</time></trkpt><trkpt lat="43.8102721" lon="11.1521079"><ele>34.0</ele><time>2026-04-25T15:35:49.323Z</time></trkpt><trkpt lat="43.8099591" lon="11.1521932"><ele>36.0</ele><time>2026-04-25T15:35:50.315Z</time></trkpt><trkpt lat="43.8096441" lon="11.1522842"><ele>38.0</ele><time>2026-04-25T15:35:51.317Z</time></trkpt><trkpt lat="43.8093323" lon="11.1523702"><ele>37.0</ele><time>2026-04-25T15:35:52.31Z</time></trkpt><trkpt lat="43.8090238" lon="11.1524616"><ele>36.0</ele><time>2026-04-25T15:35:53.309Z</time></trkpt><trkpt lat="43.8087181" lon="11.1525446"><ele>35.0</ele><time>2026-04-25T15:35:54.309Z</time></trkpt><trkpt lat="43.8084102" lon="11.1526334"><ele>34.0</ele><time>2026-04-25T15:35:55.31Z</time></trkpt><trkpt lat="43.8080986" lon="11.1527169"><ele>34.0</ele><time>2026-04-25T15:35:56.301Z</time></trkpt><trkpt lat="43.8077894" lon="11.1528024"><ele>34.0</ele><time>2026-04-25T15:35:57.327Z</time></trkpt><trkpt lat="43.8074833" lon="11.1528843"><ele>34.0</ele><time>2026-04-25T15:35:58.324Z</time></trkpt><trkpt lat="43.8071752" lon="11.1529651"><ele>34.0</ele><time>2026-04-25T15:35:59.31Z</time></trkpt><trkpt lat="43.8068699" lon="11.1530438"><ele>33.5</ele><time>2026-04-25T15:36:00.323Z</time></trkpt><trkpt lat="43.8065634" lon="11.153131"><ele>33.0</ele><time>2026-04-25T15:36:01.307Z</time></trkpt><trkpt lat="43.8062561" lon="11.1532186"><ele>33.5</ele><time>2026-04-25T15:36:02.305Z</time></trkpt><trkpt lat="43.8059476" lon="11.1533049"><ele>34.0</ele><time>2026-04-25T15:36:03.316Z</time></trkpt><trkpt lat="43.8056372" lon="11.1533954"><ele>34.0</ele><time>2026-04-25T15:36:04.309Z</time></trkpt><trkpt lat="43.8053264" lon="11.1534803"><ele>34.0</ele><time>2026-04-25T15:36:05.316Z</time></trkpt><trkpt lat="43.8050121" lon="11.1535696"><ele>35.5</ele><time>2026-04-25T15:36:06.323Z</time></trkpt><trkpt lat="43.804698" lon="11.1536569"><ele>37.0</ele><time>2026-04-25T15:36:07.312Z</time></trkpt><trkpt lat="43.8043845" lon="11.1537405"><ele>36.0</ele><time>2026-04-25T15:36:08.313Z</time></trkpt><trkpt lat="43.8040723" lon="11.1538233"><ele>35.0</ele><time>2026-04-25T15:36:09.317Z</time></trkpt><trkpt lat="43.8037602" lon="11.1539083"><ele>34.5</ele><time>2026-04-25T15:36:10.308Z</time></trkpt><trkpt lat="43.8034465" lon="11.1539963"><ele>34.0</ele><time>2026-04-25T15:36:11.305Z</time></trkpt><trkpt lat="43.8031369" lon="11.1540818"><ele>34.0</ele><time>2026-04-25T15:36:12.31Z</time></trkpt><trkpt lat="43.8028321" lon="11.1541715"><ele>34.0</ele><time>2026-04-25T15:36:13.316Z</time></trkpt><trkpt lat="43.80253" lon="11.1542601"><ele>35.0</ele><time>2026-04-25T15:36:14.3Z</time></trkpt><trkpt lat="43.8022349" lon="11.1543442"><ele>36.0</ele><time>2026-04-25T15:36:15.312Z</time></trkpt><trkpt lat="43.8019335" lon="11.1544224"><ele>36.5</ele><time>2026-04-25T15:36:16.319Z</time></trkpt><trkpt lat="43.8016383" lon="11.15451"><ele>37.0</ele><time>2026-04-25T15:36:17.311Z</time></trkpt><trkpt lat="43.8013469" lon="11.1545901"><ele>37.0</ele><time>2026-04-25T15:36:18.308Z</time></trkpt><trkpt lat="43.8010548" lon="11.1546699"><ele>37.0</ele><time>2026-04-25T15:36:19.291Z</time></trkpt><trkpt lat="43.800765" lon="11.1547564"><ele>36.0</ele><time>2026-04-25T15:36:20.311Z</time></trkpt><trkpt lat="43.8004728" lon="11.1548475"><ele>35.0</ele><time>2026-04-25T15:36:21.317Z</time></trkpt><trkpt lat="43.800178" lon="11.1549356"><ele>35.5</ele><time>2026-04-25T15:36:22.317Z</time></trkpt><trkpt lat="43.7998768" lon="11.1550269"><ele>36.0</ele><time>2026-04-25T15:36:23.313Z</time></trkpt><trkpt lat="43.7995719" lon="11.1551175"><ele>35.5</ele><time>2026-04-25T15:36:24.328Z</time></trkpt><trkpt lat="43.7992615" lon="11.155206"><ele>35.0</ele><time>2026-04-25T15:36:25.305Z</time></trkpt><trkpt lat="43.7989525" lon="11.1552858"><ele>35.0</ele><time>2026-04-25T15:36:26.307Z</time></trkpt><trkpt lat="43.798645" lon="11.1553701"><ele>35.0</ele><time>2026-04-25T15:36:27.311Z</time></trkpt><trkpt lat="43.798338" lon="11.1554521"><ele>35.5</ele><time>2026-04-25T15:36:28.308Z</time></trkpt><trkpt lat="43.798029" lon="11.1555366"><ele>36.0</ele><time>2026-04-25T15:36:29.289Z</time></trkpt><trkpt lat="43.7977203" lon="11.1556259"><ele>36.0</ele><time>2026-04-25T15:36:30.282Z</time></trkpt><trkpt lat="43.7974095" lon="11.1557144"><ele>36.0</ele><time>2026-04-25T15:36:31.309Z</time></trkpt><trkpt lat="43.7970991" lon="11.1558038"><ele>35.5</ele><time>2026-04-25T15:36:32.319Z</time></trkpt><trkpt lat="43.7967844" lon="11.1558867"><ele>35.0</ele><time>2026-04-25T15:36:33.334Z</time></trkpt><trkpt lat="43.7964735" lon="11.1559809"><ele>35.0</ele><time>2026-04-25T15:36:34.303Z</time></trkpt><trkpt lat="43.7961656" lon="11.1560736"><ele>35.0</ele><time>2026-04-25T15:36:35.305Z</time></trkpt><trkpt lat="43.7958569" lon="11.1561686"><ele>35.0</ele><time>2026-04-25T15:36:36.32Z</time></trkpt><trkpt lat="43.7955508" lon="11.1562553"><ele>35.0</ele><time>2026-04-25T15:36:37.314Z</time></trkpt><trkpt lat="43.795245" lon="11.1563389"><ele>35.0</ele><time>2026-04-25T15:36:38.32Z</time></trkpt><trkpt lat="43.7949439" lon="11.1564245"><ele>35.0</ele><time>2026-04-25T15:36:39.321Z</time></trkpt><trkpt lat="43.7946393" lon="11.1565105"><ele>35.0</ele><time>2026-04-25T15:36:40.316Z</time></trkpt><trkpt lat="43.7943396" lon="11.1565909"><ele>35.0</ele><time>2026-04-25T15:36:41.313Z</time></trkpt><trkpt lat="43.7940401" lon="11.1566744"><ele>35.5</ele><time>2026-04-25T15:36:42.315Z</time></trkpt><trkpt lat="43.7937375" lon="11.1567597"><ele>36.0</ele><time>2026-04-25T15:36:43.318Z</time></trkpt><trkpt lat="43.7934339" lon="11.1568434"><ele>37.5</ele><time>2026-04-25T15:36:44.298Z</time></trkpt><trkpt lat="43.7931324" lon="11.1569237"><ele>39.0</ele><time>2026-04-25T15:36:45.305Z</time></trkpt><trkpt lat="43.7928238" lon="11.157007"><ele>37.5</ele><time>2026-04-25T15:36:46.312Z</time></trkpt><trkpt lat="43.792516" lon="11.1570912"><ele>36.0</ele><time>2026-04-25T15:36:47.303Z</time></trkpt><trkpt lat="43.7922023" lon="11.1571801"><ele>36.0</ele><time>2026-04-25T15:36:48.298Z</time></trkpt><trkpt lat="43.7918785" lon="11.1572706"><ele>36.0</ele><time>2026-04-25T15:36:49.309Z</time></trkpt><trkpt lat="43.7915472" lon="11.1573546"><ele>36.5</ele><time>2026-04-25T15:36:50.297Z</time></trkpt><trkpt lat="43.7912104" lon="11.1574417"><ele>37.0</ele><time>2026-04-25T15:36:51.287Z</time></trkpt><trkpt lat="43.7908803" lon="11.157529"><ele>37.0</ele><time>2026-04-25T15:36:52.311Z</time></trkpt><trkpt lat="43.7905585" lon="11.1576145"><ele>37.0</ele><time>2026-04-25T15:36:53.31Z</time></trkpt><trkpt lat="43.7902406" lon="11.1577031"><ele>37.0</ele><time>2026-04-25T15:36:54.314Z</time></trkpt><trkpt lat="43.7899226" lon="11.1577911"><ele>37.0</ele><time>2026-04-25T15:36:55.311Z</time></trkpt><trkpt lat="43.7896034" lon="11.1578794"><ele>36.5</ele><time>2026-04-25T15:36:56.314Z</time></trkpt><trkpt lat="43.7892795" lon="11.1579711"><ele>36.0</ele><time>2026-04-25T15:36:57.314Z</time></trkpt><trkpt lat="43.7889609" lon="11.158056"><ele>36.0</ele><time>2026-04-25T15:36:58.308Z</time></trkpt><trkpt lat="43.7886464" lon="11.1581419"><ele>36.0</ele><time>2026-04-25T15:36:59.306Z</time></trkpt><trkpt lat="43.7883284" lon="11.1582303"><ele>37.5</ele><time>2026-04-25T15:37:00.29Z</time></trkpt><trkpt lat="43.7880126" lon="11.1583216"><ele>39.0</ele><time>2026-04-25T15:37:01.325Z</time></trkpt><trkpt lat="43.7876985" lon="11.1584169"><ele>38.5</ele><time>2026-04-25T15:37:02.303Z</time></trkpt><trkpt lat="43.7873887" lon="11.1585025"><ele>38.0</ele><time>2026-04-25T15:37:03.323Z</time></trkpt><trkpt lat="43.7870782" lon="11.158587"><ele>37.0</ele><time>2026-04-25T15:37:04.307Z</time></trkpt><trkpt lat="43.7867723" lon="11.1586746"><ele>36.0</ele><time>2026-04-25T15:37:05.304Z</time></trkpt><trkpt lat="43.7864705" lon="11.1587558"><ele>36.0</ele><time>2026-04-25T15:37:06.316Z</time></trkpt><trkpt lat="43.7861721" lon="11.1588327"><ele>36.0</ele><time>2026-04-25T15:37:07.309Z</time></trkpt><trkpt lat="43.7858741" lon="11.1589161"><ele>36.5</ele><time>2026-04-25T15:37:08.313Z</time></trkpt><trkpt lat="43.7855745" lon="11.1590035"><ele>37.0</ele><time>2026-04-25T15:37:09.31Z</time></trkpt><trkpt lat="43.7852681" lon="11.1590881"><ele>37.5</ele><time>2026-04-25T15:37:10.315Z</time></trkpt><trkpt lat="43.7849571" lon="11.1591715"><ele>38.0</ele><time>2026-04-25T15:37:11.307Z</time></trkpt><trkpt lat="43.7846489" lon="11.1592597"><ele>37.5</ele><time>2026-04-25T15:37:12.31Z</time></trkpt><trkpt lat="43.7843393" lon="11.1593418"><ele>37.0</ele><time>2026-04-25T15:37:13.316Z</time></trkpt><trkpt lat="43.7840275" lon="11.1594284"><ele>37.0</ele><time>2026-04-25T15:37:14.3Z</time></trkpt><trkpt lat="43.7837203" lon="11.1595257"><ele>37.0</ele><time>2026-04-25T15:37:15.314Z</time></trkpt><trkpt lat="43.7834158" lon="11.1596204"><ele>37.0</ele><time>2026-04-25T15:37:16.31Z</time></trkpt><trkpt lat="43.783106" lon="11.1597129"><ele>37.0</ele><time>2026-04-25T15:37:17.31Z</time></trkpt><trkpt lat="43.7827988" lon="11.1598065"><ele>36.0</ele><time>2026-04-25T15:37:18.29Z</time></trkpt><trkpt lat="43.7824902" lon="11.1599001"><ele>35.0</ele><time>2026-04-25T15:37:19.288Z</time></trkpt><trkpt lat="43.782178" lon="11.1599881"><ele>35.0</ele><time>2026-04-25T15:37:20.319Z</time></trkpt><trkpt lat="43.7818644" lon="11.1600751"><ele>35.0</ele><time>2026-04-25T15:37:21.305Z</time></trkpt><trkpt lat="43.781547" lon="11.1601602"><ele>34.5</ele><time>2026-04-25T15:37:22.316Z</time></trkpt><trkpt lat="43.7812343" lon="11.1602493"><ele>34.0</ele><time>2026-04-25T15:37:23.325Z</time></trkpt><trkpt lat="43.7809157" lon="11.1603354"><ele>35.0</ele><time>2026-04-25T15:37:24.316Z</time></trkpt><trkpt lat="43.7806053" lon="11.1604179"><ele>36.0</ele><time>2026-04-25T15:37:25.326Z</time></trkpt><trkpt lat="43.7802959" lon="11.1605052"><ele>35.0</ele><time>2026-04-25T15:37:26.32Z</time></trkpt><trkpt lat="43.7799896" lon="11.1605941"><ele>34.0</ele><time>2026-04-25T15:37:27.316Z</time></trkpt><trkpt lat="43.779682" lon="11.1606758"><ele>35.0</ele><time>2026-04-25T15:37:28.319Z</time></trkpt><trkpt lat="43.7793747" lon="11.1607579"><ele>36.0</ele><time>2026-04-25T15:37:29.314Z</time></trkpt><trkpt lat="43.7790698" lon="11.1608373"><ele>36.5</ele><time>2026-04-25T15:37:30.324Z</time></trkpt><trkpt lat="43.7787686" lon="11.1609212"><ele>37.0</ele><time>2026-04-25T15:37:31.317Z</time></trkpt><trkpt lat="43.7784664" lon="11.1609989"><ele>36.0</ele><time>2026-04-25T15:37:32.315Z</time></trkpt><trkpt lat="43.7781692" lon="11.1610841"><ele>35.0</ele><time>2026-04-25T15:37:33.327Z</time></trkpt><trkpt lat="43.7778653" lon="11.1611669"><ele>34.5</ele><time>2026-04-25T15:37:34.293Z</time></trkpt><trkpt lat="43.7775629" lon="11.1612557"><ele>34.0</ele><time>2026-04-25T15:37:35.313Z</time></trkpt><trkpt lat="43.7772577" lon="11.161347"><ele>34.0</ele><time>2026-04-25T15:37:36.316Z</time></trkpt><trkpt lat="43.7769473" lon="11.1614442"><ele>34.0</ele><time>2026-04-25T15:37:37.314Z</time></trkpt><trkpt lat="43.7766345" lon="11.1615376"><ele>34.0</ele><time>2026-04-25T15:37:38.322Z</time></trkpt><trkpt lat="43.7763151" lon="11.1616267"><ele>34.0</ele><time>2026-04-25T15:37:39.313Z</time></trkpt><trkpt lat="43.775999" lon="11.1617142"><ele>34.0</ele><time>2026-04-25T15:37:40.308Z</time></trkpt><trkpt lat="43.7756812" lon="11.1618059"><ele>34.0</ele><time>2026-04-25T15:37:41.318Z</time></trkpt><trkpt lat="43.7753631" lon="11.1618953"><ele>34.5</ele><time>2026-04-25T15:37:42.315Z</time></trkpt><trkpt lat="43.7750492" lon="11.1619863"><ele>35.0</ele><time>2026-04-25T15:37:43.32Z</time></trkpt><trkpt lat="43.7747349" lon="11.1620768"><ele>35.0</ele><time>2026-04-25T15:37:44.299Z</time></trkpt><trkpt lat="43.7744213" lon="11.162166"><ele>35.0</ele><time>2026-04-25T15:37:45.308Z</time></trkpt><trkpt lat="43.7741094" lon="11.162259"><ele>35.0</ele><time>2026-04-25T15:37:46.286Z</time></trkpt><trkpt lat="43.7738022" lon="11.1623488"><ele>35.0</ele><time>2026-04-25T15:37:47.295Z</time></trkpt><trkpt lat="43.7734851" lon="11.1624478"><ele>35.0</ele><time>2026-04-25T15:37:48.303Z</time></trkpt><trkpt lat="43.7731724" lon="11.1625445"><ele>35.0</ele><time>2026-04-25T15:37:49.315Z</time></trkpt><trkpt lat="43.7728585" lon="11.1626443"><ele>35.0</ele><time>2026-04-25T15:37:50.307Z</time></trkpt><trkpt lat="43.7725538" lon="11.1627571"><ele>35.0</ele><time>2026-04-25T15:37:51.332Z</time></trkpt><trkpt lat="43.7722456" lon="11.1628804"><ele>35.0</ele><time>2026-04-25T15:37:52.319Z</time></trkpt><trkpt lat="43.7719375" lon="11.1630088"><ele>35.0</ele><time>2026-04-25T15:37:53.318Z</time></trkpt><trkpt lat="43.7716328" lon="11.163151"><ele>35.5</ele><time>2026-04-25T15:37:54.307Z</time></trkpt><trkpt lat="43.7713248" lon="11.1632972"><ele>36.0</ele><time>2026-04-25T15:37:55.292Z</time></trkpt><trkpt lat="43.771023" lon="11.1634627"><ele>36.0</ele><time>2026-04-25T15:37:56.307Z</time></trkpt><trkpt lat="43.770724" lon="11.1636396"><ele>36.0</ele><time>2026-04-25T15:37:57.311Z</time></trkpt><trkpt lat="43.770436" lon="11.1638228"><ele>36.5</ele><time>2026-04-25T15:37:58.285Z</time></trkpt><trkpt lat="43.7701389" lon="11.1640112"><ele>37.0</ele><time>2026-04-25T15:37:59.286Z</time></trkpt><trkpt lat="43.7698451" lon="11.1642033"><ele>37.0</ele><time>2026-04-25T15:38:00.29Z</time></trkpt><trkpt lat="43.7695526" lon="11.1644049"><ele>37.0</ele><time>2026-04-25T15:38:01.322Z</time></trkpt><trkpt lat="43.7692614" lon="11.1646098"><ele>38.5</ele><time>2026-04-25T15:38:02.311Z</time></trkpt><trkpt lat="43.7689754" lon="11.1648094"><ele>40.0</ele><time>2026-04-25T15:38:03.326Z</time></trkpt><trkpt lat="43.7686875" lon="11.1650176"><ele>39.0</ele><time>2026-04-25T15:38:04.31Z</time></trkpt><trkpt lat="43.7684008" lon="11.1652315"><ele>38.0</ele><time>2026-04-25T15:38:05.313Z</time></trkpt><trkpt lat="43.7681127" lon="11.1654375"><ele>38.0</ele><time>2026-04-25T15:38:06.314Z</time></trkpt><trkpt lat="43.7678252" lon="11.165647"><ele>38.0</ele><time>2026-04-25T15:38:07.32Z</time></trkpt><trkpt lat="43.7675438" lon="11.1658485"><ele>37.5</ele><time>2026-04-25T15:38:08.31Z</time></trkpt><trkpt lat="43.7672647" lon="11.1660571"><ele>37.0</ele><time>2026-04-25T15:38:09.318Z</time></trkpt><trkpt lat="43.7669897" lon="11.1662631"><ele>37.0</ele><time>2026-04-25T15:38:10.317Z</time></trkpt><trkpt lat="43.7667047" lon="11.1664714"><ele>37.0</ele><time>2026-04-25T15:38:11.316Z</time></trkpt><trkpt lat="43.766425" lon="11.1666733"><ele>37.0</ele><time>2026-04-25T15:38:12.309Z</time></trkpt><trkpt lat="43.7661524" lon="11.1668746"><ele>37.0</ele><time>2026-04-25T15:38:13.316Z</time></trkpt><trkpt lat="43.7658854" lon="11.1670821"><ele>37.5</ele><time>2026-04-25T15:38:14.307Z</time></trkpt><trkpt lat="43.7656238" lon="11.1672792"><ele>38.0</ele><time>2026-04-25T15:38:15.286Z</time></trkpt><trkpt lat="43.7620933" lon="11.1693735"><ele>39.0</ele><time>2026-04-25T15:38:27.293Z</time></trkpt><trkpt lat="43.7618122" lon="11.1694289"><ele>40.0</ele><time>2026-04-25T15:38:28.29Z</time></trkpt><trkpt lat="43.7614818" lon="11.1695458"><ele>40.0</ele><time>2026-04-25T15:38:29.301Z</time></trkpt><trkpt lat="43.7611736" lon="11.1696268"><ele>40.0</ele><time>2026-04-25T15:38:30.301Z</time></trkpt><trkpt lat="43.7608619" lon="11.1697043"><ele>40.0</ele><time>2026-04-25T15:38:31.319Z</time></trkpt><trkpt lat="43.760542" lon="11.169759"><ele>40.0</ele><time>2026-04-25T15:38:32.324Z</time></trkpt><trkpt lat="43.7602271" lon="11.1698087"><ele>40.0</ele><time>2026-04-25T15:38:33.313Z</time></trkpt><trkpt lat="43.7599053" lon="11.169883"><ele>40.0</ele><time>2026-04-25T15:38:34.318Z</time></trkpt><trkpt lat="43.7595816" lon="11.1699478"><ele>41.0</ele><time>2026-04-25T15:38:35.307Z</time></trkpt><trkpt lat="43.7592653" lon="11.1700121"><ele>42.0</ele><time>2026-04-25T15:38:36.308Z</time></trkpt><trkpt lat="43.7589513" lon="11.1700677"><ele>42.0</ele><time>2026-04-25T15:38:37.313Z</time></trkpt><trkpt lat="43.758639" lon="11.1701352"><ele>42.0</ele><time>2026-04-25T15:38:38.31Z</time></trkpt><trkpt lat="43.75833" lon="11.1701962"><ele>41.5</ele><time>2026-04-25T15:38:39.284Z</time></trkpt><trkpt lat="43.758016" lon="11.1702486"><ele>41.0</ele><time>2026-04-25T15:38:40.31Z</time></trkpt><trkpt lat="43.7577021" lon="11.1703065"><ele>41.0</ele><time>2026-04-25T15:38:41.306Z</time></trkpt><trkpt lat="43.7573921" lon="11.1703645"><ele>41.0</ele><time>2026-04-25T15:38:42.324Z</time></trkpt><trkpt lat="43.7570845" lon="11.1704237"><ele>42.0</ele><time>2026-04-25T15:38:43.313Z</time></trkpt><trkpt lat="43.7567755" lon="11.1704866"><ele>43.0</ele><time>2026-04-25T15:38:44.306Z</time></trkpt><trkpt lat="43.7564655" lon="11.1705413"><ele>43.0</ele><time>2026-04-25T15:38:45.3Z</time></trkpt><trkpt lat="43.7561576" lon="11.1705936"><ele>43.0</ele><time>2026-04-25T15:38:46.314Z</time></trkpt><trkpt lat="43.7558477" lon="11.1706567"><ele>43.5</ele><time>2026-04-25T15:38:47.306Z</time></trkpt><trkpt lat="43.7555478" lon="11.1707198"><ele>44.0</ele><time>2026-04-25T15:38:48.309Z</time></trkpt><trkpt lat="43.7552514" lon="11.1707771"><ele>43.5</ele><time>2026-04-25T15:38:49.313Z</time></trkpt><trkpt lat="43.7549485" lon="11.1708338"><ele>43.0</ele><time>2026-04-25T15:38:50.32Z</time></trkpt><trkpt lat="43.7546429" lon="11.1708907"><ele>43.5</ele><time>2026-04-25T15:38:51.31Z</time></trkpt><trkpt lat="43.7543467" lon="11.1709418"><ele>44.0</ele><time>2026-04-25T15:38:52.329Z</time></trkpt><trkpt lat="43.7540413" lon="11.1709959"><ele>44.0</ele><time>2026-04-25T15:38:53.317Z</time></trkpt><trkpt lat="43.7537406" lon="11.1710476"><ele>44.0</ele><time>2026-04-25T15:38:54.324Z</time></trkpt><trkpt lat="43.7534405" lon="11.1711067"><ele>45.0</ele><time>2026-04-25T15:38:55.306Z</time></trkpt><trkpt lat="43.7531393" lon="11.1711562"><ele>46.0</ele><time>2026-04-25T15:38:56.313Z</time></trkpt><trkpt lat="43.7528348" lon="11.1712068"><ele>45.5</ele><time>2026-04-25T15:38:57.323Z</time></trkpt><trkpt lat="43.7525291" lon="11.1712595"><ele>45.0</ele><time>2026-04-25T15:38:58.32Z</time></trkpt><trkpt lat="43.7522248" lon="11.1713146"><ele>45.0</ele><time>2026-04-25T15:38:59.313Z</time></trkpt><trkpt lat="43.7519248" lon="11.1713666"><ele>45.0</ele><time>2026-04-25T15:39:00.32Z</time></trkpt><trkpt lat="43.751626" lon="11.1714215"><ele>45.0</ele><time>2026-04-25T15:39:01.336Z</time></trkpt><trkpt lat="43.7513257" lon="11.1714721"><ele>45.0</ele><time>2026-04-25T15:39:02.307Z</time></trkpt><trkpt lat="43.7510244" lon="11.1715222"><ele>46.0</ele><time>2026-04-25T15:39:03.313Z</time></trkpt><trkpt lat="43.750724" lon="11.1715727"><ele>47.0</ele><time>2026-04-25T15:39:04.322Z</time></trkpt><trkpt lat="43.7504224" lon="11.1716245"><ele>47.0</ele><time>2026-04-25T15:39:05.307Z</time></trkpt><trkpt lat="43.7501218" lon="11.1716786"><ele>47.0</ele><time>2026-04-25T15:39:06.305Z</time></trkpt><trkpt lat="43.7498217" lon="11.1717274"><ele>47.0</ele><time>2026-04-25T15:39:07.31Z</time></trkpt><trkpt lat="43.7495184" lon="11.1717873"><ele>47.0</ele><time>2026-04-25T15:39:08.301Z</time></trkpt><trkpt lat="43.7492168" lon="11.1718449"><ele>48.0</ele><time>2026-04-25T15:39:09.289Z</time></trkpt><trkpt lat="43.7489108" lon="11.1719021"><ele>49.0</ele><time>2026-04-25T15:39:10.308Z</time></trkpt><trkpt lat="43.7486058" lon="11.1719636"><ele>49.0</ele><time>2026-04-25T15:39:11.285Z</time></trkpt><trkpt lat="43.7483046" lon="11.1720411"><ele>49.0</ele><time>2026-04-25T15:39:12.32Z</time></trkpt><trkpt lat="43.7480025" lon="11.1721304"><ele>49.0</ele><time>2026-04-25T15:39:13.317Z</time></trkpt><trkpt lat="43.7477099" lon="11.172247"><ele>49.0</ele><time>2026-04-25T15:39:14.314Z</time></trkpt><trkpt lat="43.7474241" lon="11.1723805"><ele>49.0</ele><time>2026-04-25T15:39:15.295Z</time></trkpt><trkpt lat="43.7471395" lon="11.1725437"><ele>49.0</ele><time>2026-04-25T15:39:16.312Z</time></trkpt><trkpt lat="43.7468649" lon="11.1727432"><ele>50.5</ele><time>2026-04-25T15:39:17.313Z</time></trkpt><trkpt lat="43.7466018" lon="11.1729625"><ele>52.0</ele><time>2026-04-25T15:39:18.304Z</time></trkpt><trkpt lat="43.7463538" lon="11.1731987"><ele>52.0</ele><time>2026-04-25T15:39:19.31Z</time></trkpt><trkpt lat="43.7461039" lon="11.1734639"><ele>52.0</ele><time>2026-04-25T15:39:20.293Z</time></trkpt><trkpt lat="43.7458778" lon="11.173759"><ele>53.0</ele><time>2026-04-25T15:39:21.305Z</time></trkpt><trkpt lat="43.7456681" lon="11.1740695"><ele>54.0</ele><time>2026-04-25T15:39:22.282Z</time></trkpt><trkpt lat="43.7454797" lon="11.1743939"><ele>54.0</ele><time>2026-04-25T15:39:23.299Z</time></trkpt><trkpt lat="43.7453017" lon="11.1747363"><ele>54.0</ele><time>2026-04-25T15:39:24.313Z</time></trkpt><trkpt lat="43.7451498" lon="11.1751001"><ele>54.0</ele><time>2026-04-25T15:39:25.307Z</time></trkpt><trkpt lat="43.7450084" lon="11.1754652"><ele>54.0</ele><time>2026-04-25T15:39:26.317Z</time></trkpt><trkpt lat="43.7448793" lon="11.1758507"><ele>54.0</ele><time>2026-04-25T15:39:27.324Z</time></trkpt><trkpt lat="43.7447606" lon="11.1762428"><ele>54.0</ele><time>2026-04-25T15:39:28.307Z</time></trkpt><trkpt lat="43.7446452" lon="11.1766361"><ele>56.0</ele><time>2026-04-25T15:39:29.324Z</time></trkpt><trkpt lat="43.7445279" lon="11.177035"><ele>58.0</ele><time>2026-04-25T15:39:30.318Z</time></trkpt><trkpt lat="43.7444148" lon="11.1774379"><ele>59.5</ele><time>2026-04-25T15:39:31.321Z</time></trkpt><trkpt lat="43.744287" lon="11.1778366"><ele>61.0</ele><time>2026-04-25T15:39:32.313Z</time></trkpt><trkpt lat="43.7441581" lon="11.1782337"><ele>61.0</ele><time>2026-04-25T15:39:33.31Z</time></trkpt><trkpt lat="43.7440126" lon="11.1786238"><ele>61.0</ele><time>2026-04-25T15:39:34.321Z</time></trkpt><trkpt lat="43.7438398" lon="11.1789951"><ele>61.0</ele><time>2026-04-25T15:39:35.316Z</time></trkpt><trkpt lat="43.743652" lon="11.1793414"><ele>61.0</ele><time>2026-04-25T15:39:36.325Z</time></trkpt><trkpt lat="43.7434444" lon="11.1796725"><ele>59.5</ele><time>2026-04-25T15:39:37.296Z</time></trkpt><trkpt lat="43.7432281" lon="11.1799703"><ele>58.0</ele><time>2026-04-25T15:39:38.322Z</time></trkpt><trkpt lat="43.7429934" lon="11.1802584"><ele>58.0</ele><time>2026-04-25T15:39:39.308Z</time></trkpt><trkpt lat="43.7427369" lon="11.1805294"><ele>58.0</ele><time>2026-04-25T15:39:40.311Z</time></trkpt><trkpt lat="43.7424689" lon="11.1807968"><ele>57.5</ele><time>2026-04-25T15:39:41.309Z</time></trkpt><trkpt lat="43.7422004" lon="11.1810549"><ele>57.0</ele><time>2026-04-25T15:39:42.31Z</time></trkpt><trkpt lat="43.7419345" lon="11.181306"><ele>58.0</ele><time>2026-04-25T15:39:43.315Z</time></trkpt><trkpt lat="43.7416723" lon="11.1815523"><ele>59.0</ele><time>2026-04-25T15:39:44.31Z</time></trkpt><trkpt lat="43.7414098" lon="11.1817975"><ele>59.0</ele><time>2026-04-25T15:39:45.301Z</time></trkpt><trkpt lat="43.7411505" lon="11.1820502"><ele>59.0</ele><time>2026-04-25T15:39:46.314Z</time></trkpt><trkpt lat="43.7408928" lon="11.1822939"><ele>61.0</ele><time>2026-04-25T15:39:47.298Z</time></trkpt><trkpt lat="43.7406359" lon="11.1825339"><ele>63.0</ele><time>2026-04-25T15:39:48.304Z</time></trkpt><trkpt lat="43.740375" lon="11.1827836"><ele>63.0</ele><time>2026-04-25T15:39:49.312Z</time></trkpt><trkpt lat="43.7401061" lon="11.1830247"><ele>63.0</ele><time>2026-04-25T15:39:50.312Z</time></trkpt><trkpt lat="43.7398431" lon="11.1832723"><ele>63.0</ele><time>2026-04-25T15:39:51.31Z</time></trkpt><trkpt lat="43.7395825" lon="11.183514"><ele>63.0</ele><time>2026-04-25T15:39:52.309Z</time></trkpt><trkpt lat="43.7393239" lon="11.1837554"><ele>64.0</ele><time>2026-04-25T15:39:53.304Z</time></trkpt><trkpt lat="43.7390661" lon="11.183988"><ele>65.0</ele><time>2026-04-25T15:39:54.313Z</time></trkpt><trkpt lat="43.7388096" lon="11.1842167"><ele>65.0</ele><time>2026-04-25T15:39:55.307Z</time></trkpt><trkpt lat="43.7385526" lon="11.184457"><ele>65.0</ele><time>2026-04-25T15:39:56.296Z</time></trkpt><trkpt lat="43.7383039" lon="11.1846919"><ele>66.0</ele><time>2026-04-25T15:39:57.306Z</time></trkpt><trkpt lat="43.7380507" lon="11.1849288"><ele>67.0</ele><time>2026-04-25T15:39:58.308Z</time></trkpt><trkpt lat="43.7377922" lon="11.1851609"><ele>72.5</ele><time>2026-04-25T15:39:59.311Z</time></trkpt><trkpt lat="43.737526" lon="11.1853918"><ele>78.0</ele><time>2026-04-25T15:40:00.316Z</time></trkpt><trkpt lat="43.7372554" lon="11.1856129"><ele>76.5</ele><time>2026-04-25T15:40:01.309Z</time></trkpt><trkpt lat="43.7369769" lon="11.1858163"><ele>75.0</ele><time>2026-04-25T15:40:02.309Z</time></trkpt><trkpt lat="43.7366921" lon="11.1860099"><ele>80.5</ele><time>2026-04-25T15:40:03.281Z</time></trkpt><trkpt lat="43.7363996" lon="11.1861906"><ele>86.0</ele><time>2026-04-25T15:40:04.309Z</time></trkpt><trkpt lat="43.7360999" lon="11.1863653"><ele>83.5</ele><time>2026-04-25T15:40:05.308Z</time></trkpt><trkpt lat="43.7358086" lon="11.1865256"><ele>81.0</ele><time>2026-04-25T15:40:06.292Z</time></trkpt><trkpt lat="43.7355161" lon="11.1866834"><ele>81.0</ele><time>2026-04-25T15:40:07.312Z</time></trkpt><trkpt lat="43.7352257" lon="11.1868397"><ele>81.0</ele><time>2026-04-25T15:40:08.307Z</time></trkpt><trkpt lat="43.7349379" lon="11.1869975"><ele>83.5</ele><time>2026-04-25T15:40:09.308Z</time></trkpt><trkpt lat="43.73465" lon="11.1871392"><ele>86.0</ele><time>2026-04-25T15:40:10.322Z</time></trkpt><trkpt lat="43.7343547" lon="11.187287"><ele>81.5</ele><time>2026-04-25T15:40:11.306Z</time></trkpt><trkpt lat="43.7340622" lon="11.187436"><ele>77.0</ele><time>2026-04-25T15:40:12.309Z</time></trkpt><trkpt lat="43.7337764" lon="11.1875778"><ele>74.5</ele><time>2026-04-25T15:40:13.286Z</time></trkpt><trkpt lat="43.7334926" lon="11.1877281"><ele>72.0</ele><time>2026-04-25T15:40:14.311Z</time></trkpt><trkpt lat="43.7332125" lon="11.1878799"><ele>72.0</ele><time>2026-04-25T15:40:15.305Z</time></trkpt><trkpt lat="43.7329372" lon="11.1880415"><ele>72.0</ele><time>2026-04-25T15:40:16.316Z</time></trkpt><trkpt lat="43.7326728" lon="11.18824"><ele>76.5</ele><time>2026-04-25T15:40:17.302Z</time></trkpt><trkpt lat="43.7324169" lon="11.1884519"><ele>81.0</ele><time>2026-04-25T15:40:18.317Z</time></trkpt><trkpt lat="43.7321599" lon="11.1886949"><ele>81.0</ele><time>2026-04-25T15:40:19.294Z</time></trkpt><trkpt lat="43.7319072" lon="11.1889522"><ele>81.0</ele><time>2026-04-25T15:40:20.317Z</time></trkpt><trkpt lat="43.7316679" lon="11.189226"><ele>83.5</ele><time>2026-04-25T15:40:21.315Z</time></trkpt><trkpt lat="43.7314347" lon="11.1895214"><ele>86.0</ele><time>2026-04-25T15:40:22.319Z</time></trkpt><trkpt lat="43.7312169" lon="11.1898339"><ele>82.5</ele><time>2026-04-25T15:40:23.301Z</time></trkpt><trkpt lat="43.7310091" lon="11.1901654"><ele>79.0</ele><time>2026-04-25T15:40:24.323Z</time></trkpt><trkpt lat="43.7308195" lon="11.1905214"><ele>81.5</ele><time>2026-04-25T15:40:25.32Z</time></trkpt><trkpt lat="43.7306318" lon="11.1908992"><ele>84.0</ele><time>2026-04-25T15:40:26.309Z</time></trkpt><trkpt lat="43.7304492" lon="11.1912761"><ele>85.0</ele><time>2026-04-25T15:40:27.301Z</time></trkpt><trkpt lat="43.7302735" lon="11.1916558"><ele>86.0</ele><time>2026-04-25T15:40:28.317Z</time></trkpt><trkpt lat="43.7300918" lon="11.1920251"><ele>89.5</ele><time>2026-04-25T15:40:29.319Z</time></trkpt><trkpt lat="43.7299164" lon="11.192382"><ele>93.0</ele><time>2026-04-25T15:40:30.302Z</time></trkpt><trkpt lat="43.7297406" lon="11.1927442"><ele>93.0</ele><time>2026-04-25T15:40:31.297Z</time></trkpt><trkpt lat="43.7295707" lon="11.1931155"><ele>93.0</ele><time>2026-04-25T15:40:32.308Z</time></trkpt><trkpt lat="43.7293985" lon="11.1934932"><ele>103.0</ele><time>2026-04-25T15:40:33.293Z</time></trkpt><trkpt lat="43.729231" lon="11.1938791"><ele>113.0</ele><time>2026-04-25T15:40:34.276Z</time></trkpt><trkpt lat="43.7268478" lon="11.2068218"><ele>114.0</ele><time>2026-04-25T15:41:05.295Z</time></trkpt><trkpt lat="43.7269412" lon="11.2074019"><ele>115.0</ele><time>2026-04-25T15:41:06.278Z</time></trkpt><trkpt lat="43.7269358" lon="11.2078558"><ele>113.5</ele><time>2026-04-25T15:41:07.279Z</time></trkpt><trkpt lat="43.7269334" lon="11.2082753"><ele>112.0</ele><time>2026-04-25T15:41:08.285Z</time></trkpt><trkpt lat="43.7269173" lon="11.2086791"><ele>112.5</ele><time>2026-04-25T15:41:09.276Z</time></trkpt><trkpt lat="43.7269392" lon="11.2091168"><ele>113.0</ele><time>2026-04-25T15:41:10.302Z</time></trkpt><trkpt lat="43.726932" lon="11.2095818"><ele>114.0</ele><time>2026-04-25T15:41:11.288Z</time></trkpt><trkpt lat="43.7269141" lon="11.210071"><ele>115.0</ele><time>2026-04-25T15:41:12.302Z</time></trkpt><trkpt lat="43.7268915" lon="11.2105423"><ele>111.5</ele><time>2026-04-25T15:41:13.296Z</time></trkpt><trkpt lat="43.7268716" lon="11.2110079"><ele>108.0</ele><time>2026-04-25T15:41:14.298Z</time></trkpt><trkpt lat="43.7268343" lon="11.2114947"><ele>103.5</ele><time>2026-04-25T15:41:15.293Z</time></trkpt><trkpt lat="43.7268012" lon="11.2119893"><ele>99.0</ele><time>2026-04-25T15:41:16.303Z</time></trkpt><trkpt lat="43.7267645" lon="11.2124677"><ele>99.0</ele><time>2026-04-25T15:41:17.304Z</time></trkpt><trkpt lat="43.7267276" lon="11.2129153"><ele>99.0</ele><time>2026-04-25T15:41:18.307Z</time></trkpt><trkpt lat="43.7266935" lon="11.213352"><ele>97.5</ele><time>2026-04-25T15:41:19.317Z</time></trkpt><trkpt lat="43.7266547" lon="11.2137741"><ele>96.0</ele><time>2026-04-25T15:41:20.318Z</time></trkpt><trkpt lat="43.7266066" lon="11.2141908"><ele>95.5</ele><time>2026-04-25T15:41:21.285Z</time></trkpt><trkpt lat="43.7265516" lon="11.214595"><ele>95.0</ele><time>2026-04-25T15:41:22.298Z</time></trkpt><trkpt lat="43.726485" lon="11.2149913"><ele>94.5</ele><time>2026-04-25T15:41:23.317Z</time></trkpt><trkpt lat="43.7264096" lon="11.2153587"><ele>94.0</ele><time>2026-04-25T15:41:24.311Z</time></trkpt><trkpt lat="43.7263351" lon="11.2157028"><ele>91.5</ele><time>2026-04-25T15:41:25.306Z</time></trkpt><trkpt lat="43.7262491" lon="11.2160248"><ele>89.0</ele><time>2026-04-25T15:41:26.308Z</time></trkpt><trkpt lat="43.7261486" lon="11.2163316"><ele>93.0</ele><time>2026-04-25T15:41:27.311Z</time></trkpt><trkpt lat="43.7260504" lon="11.2166224"><ele>97.0</ele><time>2026-04-25T15:41:28.324Z</time></trkpt><trkpt lat="43.7259501" lon="11.2169064"><ele>97.0</ele><time>2026-04-25T15:41:29.304Z</time></trkpt><trkpt lat="43.7258582" lon="11.2171997"><ele>97.0</ele><time>2026-04-25T15:41:30.3Z</time></trkpt><trkpt lat="43.7257494" lon="11.2174943"><ele>95.0</ele><time>2026-04-25T15:41:31.301Z</time></trkpt><trkpt lat="43.7256419" lon="11.2177798"><ele>93.0</ele><time>2026-04-25T15:41:32.307Z</time></trkpt><trkpt lat="43.7255152" lon="11.2180453"><ele>93.66666666666667</ele><time>2026-04-25T15:41:33.311Z</time></trkpt><trkpt lat="43.7253732" lon="11.2182977"><ele>94.33333333333334</ele><time>2026-04-25T15:41:34.31Z</time></trkpt><trkpt lat="43.7252391" lon="11.2185221"><ele>95.0</ele><time>2026-04-25T15:41:35.302Z</time></trkpt><trkpt lat="43.7250894" lon="11.2187442"><ele>95.0</ele><time>2026-04-25T15:41:36.294Z</time></trkpt><trkpt lat="43.7249498" lon="11.2189826"><ele>95.0</ele><time>2026-04-25T15:41:37.304Z</time></trkpt><trkpt lat="43.7247956" lon="11.2192205"><ele>90.0</ele><time>2026-04-25T15:41:38.308Z</time></trkpt><trkpt lat="43.7246495" lon="11.2194604"><ele>85.0</ele><time>2026-04-25T15:41:39.311Z</time></trkpt><trkpt lat="43.7245147" lon="11.2197079"><ele>82.33333333333333</ele><time>2026-04-25T15:41:40.31Z</time></trkpt><trkpt lat="43.7243746" lon="11.21996"><ele>79.66666666666667</ele><time>2026-04-25T15:41:41.303Z</time></trkpt><trkpt lat="43.7242468" lon="11.2202052"><ele>77.0</ele><time>2026-04-25T15:41:42.327Z</time></trkpt><trkpt lat="43.7241243" lon="11.2204309"><ele>78.33333333333334</ele><time>2026-04-25T15:41:43.314Z</time></trkpt><trkpt lat="43.7240008" lon="11.2206536"><ele>79.66666666666667</ele><time>2026-04-25T15:41:44.31Z</time></trkpt><trkpt lat="43.7238961" lon="11.2208712"><ele>81.0</ele><time>2026-04-25T15:41:45.305Z</time></trkpt><trkpt lat="43.7237841" lon="11.2210699"><ele>81.0</ele><time>2026-04-25T15:41:46.309Z</time></trkpt><trkpt lat="43.7236712" lon="11.2212586"><ele>81.0</ele><time>2026-04-25T15:41:47.303Z</time></trkpt><trkpt lat="43.7235477" lon="11.2213967"><ele>81.0</ele><time>2026-04-25T15:41:48.303Z</time></trkpt><trkpt lat="43.7234088" lon="11.2214866"><ele>79.0</ele><time>2026-04-25T15:41:49.295Z</time></trkpt><trkpt lat="43.7232571" lon="11.2215434"><ele>77.0</ele><time>2026-04-25T15:41:50.319Z</time></trkpt><trkpt lat="43.7231083" lon="11.2215797"><ele>75.0</ele><time>2026-04-25T15:41:51.31Z</time></trkpt><trkpt lat="43.7229614" lon="11.2216125"><ele>75.0</ele><time>2026-04-25T15:41:52.301Z</time></trkpt><trkpt lat="43.7228216" lon="11.221645"><ele>75.0</ele><time>2026-04-25T15:41:53.299Z</time></trkpt><trkpt lat="43.7226879" lon="11.221684"><ele>75.0</ele><time>2026-04-25T15:41:54.317Z</time></trkpt><trkpt lat="43.7225678" lon="11.2217509"><ele>75.0</ele><time>2026-04-25T15:41:55.323Z</time></trkpt><trkpt lat="43.722448" lon="11.2218199"><ele>73.25</ele><time>2026-04-25T15:41:56.304Z</time></trkpt><trkpt lat="43.7223333" lon="11.2218877"><ele>71.5</ele><time>2026-04-25T15:41:57.3Z</time></trkpt><trkpt lat="43.7222175" lon="11.2219446"><ele>69.75</ele><time>2026-04-25T15:41:58.303Z</time></trkpt><trkpt lat="43.7221061" lon="11.2219918"><ele>68.0</ele><time>2026-04-25T15:41:59.316Z</time></trkpt><trkpt lat="43.721999" lon="11.2220249"><ele>68.0</ele><time>2026-04-25T15:42:00.324Z</time></trkpt><trkpt lat="43.7219009" lon="11.2220545"><ele>68.0</ele><time>2026-04-25T15:42:01.312Z</time></trkpt><trkpt lat="43.7218156" lon="11.2220655"><ele>68.0</ele><time>2026-04-25T15:42:02.307Z</time></trkpt><trkpt lat="43.7217404" lon="11.222064"><ele>68.0</ele><time>2026-04-25T15:42:03.31Z</time></trkpt><trkpt lat="43.7216744" lon="11.2220614"><ele>68.0</ele><time>2026-04-25T15:42:04.314Z</time></trkpt><trkpt lat="43.7215842" lon="11.2220145"><ele>68.0</ele><time>2026-04-25T15:42:06.313Z</time></trkpt><trkpt lat="43.7215105" lon="11.2220039"><ele>67.33333333333334</ele><time>2026-04-25T15:42:08.317Z</time></trkpt><trkpt lat="43.7214419" lon="11.2220328"><ele>66.66666666666667</ele><time>2026-04-25T15:42:10.298Z</time></trkpt><trkpt lat="43.7213571" lon="11.2220607"><ele>66.0</ele><time>2026-04-25T15:42:13.321Z</time></trkpt><trkpt lat="43.7212808" lon="11.2220971"><ele>65.33333333333333</ele><time>2026-04-25T15:42:17.305Z</time></trkpt><trkpt lat="43.721215" lon="11.2221203"><ele>64.66666666666666</ele><time>2026-04-25T15:42:20.322Z</time></trkpt><trkpt lat="43.7211447" lon="11.2221614"><ele>64.0</ele><time>2026-04-25T15:43:07.307Z</time></trkpt><trkpt lat="43.7210764" lon="11.2222026"><ele>63.99999999999999</ele><time>2026-04-25T15:43:09.299Z</time></trkpt><trkpt lat="43.7210143" lon="11.2222427"><ele>64.0</ele><time>2026-04-25T15:43:10.311Z</time></trkpt><trkpt lat="43.7209598" lon="11.2223073"><ele>64.0</ele><time>2026-04-25T15:43:11.313Z</time></trkpt><trkpt lat="43.7208764" lon="11.2223524"><ele>64.0</ele><time>2026-04-25T15:43:13.317Z</time></trkpt><trkpt lat="43.7208146" lon="11.222382"><ele>63.99999999999999</ele><time>2026-04-25T15:43:17.304Z</time></trkpt><trkpt lat="43.7207417" lon="11.2225065"><ele>64.0</ele><time>2026-04-25T15:43:36.304Z</time></trkpt><trkpt lat="43.7206661" lon="11.2225816"><ele>64.4</ele><time>2026-04-25T15:43:37.293Z</time></trkpt><trkpt lat="43.7205852" lon="11.2226365"><ele>64.80000000000001</ele><time>2026-04-25T15:43:38.323Z</time></trkpt><trkpt lat="43.7205032" lon="11.2227143"><ele>65.19999999999999</ele><time>2026-04-25T15:43:39.312Z</time></trkpt><trkpt lat="43.7204217" lon="11.2227554"><ele>65.6</ele><time>2026-04-25T15:43:40.329Z</time></trkpt><trkpt lat="43.7203308" lon="11.2227695"><ele>66.0</ele><time>2026-04-25T15:43:41.307Z</time></trkpt><trkpt lat="43.7202405" lon="11.2227421"><ele>65.6</ele><time>2026-04-25T15:43:42.302Z</time></trkpt><trkpt lat="43.7201411" lon="11.2226985"><ele>65.19999999999999</ele><time>2026-04-25T15:43:43.308Z</time></trkpt><trkpt lat="43.7200566" lon="11.2226416"><ele>64.80000000000001</ele><time>2026-04-25T15:43:44.315Z</time></trkpt><trkpt lat="43.7199859" lon="11.2225641"><ele>64.4</ele><time>2026-04-25T15:43:45.313Z</time></trkpt><trkpt lat="43.7199386" lon="11.2224431"><ele>64.0</ele><time>2026-04-25T15:43:46.312Z</time></trkpt><trkpt lat="43.719917" lon="11.2222872"><ele>64.0</ele><time>2026-04-25T15:43:47.305Z</time></trkpt><trkpt lat="43.7199098" lon="11.2221054"><ele>64.0</ele><time>2026-04-25T15:43:48.289Z</time></trkpt><trkpt lat="43.7199106" lon="11.2219238"><ele>64.0</ele><time>2026-04-25T15:43:49.305Z</time></trkpt><trkpt lat="43.719904" lon="11.2217571"><ele>64.0</ele><time>2026-04-25T15:43:50.313Z</time></trkpt><trkpt lat="43.7198942" lon="11.2215827"><ele>64.5</ele><time>2026-04-25T15:43:51.316Z</time></trkpt><trkpt lat="43.7198907" lon="11.2214073"><ele>65.0</ele><time>2026-04-25T15:43:52.301Z</time></trkpt><trkpt lat="43.7198906" lon="11.2212285"><ele>65.5</ele><time>2026-04-25T15:43:53.302Z</time></trkpt><trkpt lat="43.7198626" lon="11.2210497"><ele>66.0</ele><time>2026-04-25T15:43:54.304Z</time></trkpt><trkpt lat="43.7198034" lon="11.2208925"><ele>66.0</ele><time>2026-04-25T15:43:55.317Z</time></trkpt><trkpt lat="43.719724" lon="11.2207469"><ele>66.0</ele><time>2026-04-25T15:43:56.32Z</time></trkpt><trkpt lat="43.7196254" lon="11.2206168"><ele>66.0</ele><time>2026-04-25T15:43:57.307Z</time></trkpt><trkpt lat="43.7194969" lon="11.2205166"><ele>66.0</ele><time>2026-04-25T15:43:58.305Z</time></trkpt><trkpt lat="43.7193604" lon="11.2204412"><ele>69.25</ele><time>2026-04-25T15:43:59.295Z</time></trkpt><trkpt lat="43.7192299" lon="11.2204103"><ele>72.5</ele><time>2026-04-25T15:44:00.306Z</time></trkpt><trkpt lat="43.7190893" lon="11.220388"><ele>75.75</ele><time>2026-04-25T15:44:01.309Z</time></trkpt><trkpt lat="43.7189587" lon="11.220376"><ele>79.0</ele><time>2026-04-25T15:44:02.309Z</time></trkpt><trkpt lat="43.7188139" lon="11.2203735"><ele>79.0</ele><time>2026-04-25T15:44:03.32Z</time></trkpt><trkpt lat="43.7186665" lon="11.2203764"><ele>79.0</ele><time>2026-04-25T15:44:04.305Z</time></trkpt><trkpt lat="43.7185145" lon="11.2203786"><ele>79.0</ele><time>2026-04-25T15:44:05.302Z</time></trkpt><trkpt lat="43.7183615" lon="11.2203836"><ele>80.33333333333333</ele><time>2026-04-25T15:44:06.308Z</time></trkpt><trkpt lat="43.7182071" lon="11.2203832"><ele>81.66666666666667</ele><time>2026-04-25T15:44:07.313Z</time></trkpt><trkpt lat="43.7180537" lon="11.2203796"><ele>83.0</ele><time>2026-04-25T15:44:08.303Z</time></trkpt><trkpt lat="43.7178991" lon="11.2203791"><ele>83.0</ele><time>2026-04-25T15:44:09.306Z</time></trkpt><trkpt lat="43.7177432" lon="11.2203824"><ele>83.0</ele><time>2026-04-25T15:44:10.313Z</time></trkpt><trkpt lat="43.7175879" lon="11.220383"><ele>83.0</ele><time>2026-04-25T15:44:11.312Z</time></trkpt><trkpt lat="43.7174285" lon="11.2203779"><ele>83.66666666666667</ele><time>2026-04-25T15:44:12.315Z</time></trkpt><trkpt lat="43.7172548" lon="11.2203676"><ele>84.33333333333333</ele><time>2026-04-25T15:44:13.32Z</time></trkpt><trkpt lat="43.7170586" lon="11.22033"><ele>85.0</ele><time>2026-04-25T15:44:14.32Z</time></trkpt><trkpt lat="43.7168581" lon="11.2202771"><ele>83.66666666666666</ele><time>2026-04-25T15:44:15.313Z</time></trkpt><trkpt lat="43.7166539" lon="11.2202116"><ele>82.33333333333333</ele><time>2026-04-25T15:44:16.302Z</time></trkpt><trkpt lat="43.7164721" lon="11.2201334"><ele>81.0</ele><time>2026-04-25T15:44:17.326Z</time></trkpt><trkpt lat="43.7162962" lon="11.2200465"><ele>81.0</ele><time>2026-04-25T15:44:18.316Z</time></trkpt><trkpt lat="43.7161181" lon="11.2199467"><ele>81.0</ele><time>2026-04-25T15:44:19.303Z</time></trkpt><trkpt lat="43.7159317" lon="11.2198215"><ele>81.0</ele><time>2026-04-25T15:44:20.294Z</time></trkpt><trkpt lat="43.7157462" lon="11.2196822"><ele>83.5</ele><time>2026-04-25T15:44:21.307Z</time></trkpt><trkpt lat="43.7155522" lon="11.2195174"><ele>86.0</ele><time>2026-04-25T15:44:22.311Z</time></trkpt><trkpt lat="43.7153591" lon="11.2193124"><ele>84.5</ele><time>2026-04-25T15:44:23.307Z</time></trkpt><trkpt lat="43.715167" lon="11.2190911"><ele>83.0</ele><time>2026-04-25T15:44:24.314Z</time></trkpt><trkpt lat="43.7149811" lon="11.2188653"><ele>83.0</ele><time>2026-04-25T15:44:25.309Z</time></trkpt><trkpt lat="43.7148105" lon="11.2186202"><ele>83.0</ele><time>2026-04-25T15:44:26.311Z</time></trkpt><trkpt lat="43.7146588" lon="11.2183742"><ele>85.5</ele><time>2026-04-25T15:44:27.309Z</time></trkpt><trkpt lat="43.714512" lon="11.2181098"><ele>88.0</ele><time>2026-04-25T15:44:28.293Z</time></trkpt><trkpt lat="43.7143832" lon="11.2178337"><ele>81.5</ele><time>2026-04-25T15:44:29.304Z</time></trkpt><trkpt lat="43.7142645" lon="11.2175482"><ele>75.0</ele><time>2026-04-25T15:44:30.318Z</time></trkpt><trkpt lat="43.7141523" lon="11.2172695"><ele>75.0</ele><time>2026-04-25T15:44:31.305Z</time></trkpt><trkpt lat="43.7140397" lon="11.217"><ele>75.0</ele><time>2026-04-25T15:44:32.315Z</time></trkpt><trkpt lat="43.7139187" lon="11.2167584"><ele>75.0</ele><time>2026-04-25T15:44:33.314Z</time></trkpt><trkpt lat="43.7137961" lon="11.2165075"><ele>76.66666666666667</ele><time>2026-04-25T15:44:34.317Z</time></trkpt><trkpt lat="43.7136661" lon="11.2162643"><ele>78.33333333333334</ele><time>2026-04-25T15:44:35.313Z</time></trkpt><trkpt lat="43.7135161" lon="11.2160367"><ele>80.0</ele><time>2026-04-25T15:44:36.31Z</time></trkpt><trkpt lat="43.7133567" lon="11.2158242"><ele>80.33333333333334</ele><time>2026-04-25T15:44:37.305Z</time></trkpt><trkpt lat="43.7131943" lon="11.2156168"><ele>80.66666666666667</ele><time>2026-04-25T15:44:38.311Z</time></trkpt><trkpt lat="43.7130246" lon="11.2154129"><ele>81.0</ele><time>2026-04-25T15:44:39.304Z</time></trkpt><trkpt lat="43.712842" lon="11.2152299"><ele>77.0</ele><time>2026-04-25T15:44:40.293Z</time></trkpt><trkpt lat="43.7126472" lon="11.2150635"><ele>73.0</ele><time>2026-04-25T15:44:41.312Z</time></trkpt><trkpt lat="43.7124466" lon="11.2149037"><ele>76.0</ele><time>2026-04-25T15:44:42.314Z</time></trkpt><trkpt lat="43.7122349" lon="11.2147585"><ele>79.0</ele><time>2026-04-25T15:44:43.314Z</time></trkpt><trkpt lat="43.7120151" lon="11.2146162"><ele>77.0</ele><time>2026-04-25T15:44:44.321Z</time></trkpt><trkpt lat="43.7117915" lon="11.2144777"><ele>75.0</ele><time>2026-04-25T15:44:45.292Z</time></trkpt><trkpt lat="43.7115665" lon="11.2143308"><ele>75.0</ele><time>2026-04-25T15:44:46.325Z</time></trkpt><trkpt lat="43.7113406" lon="11.2141803"><ele>75.0</ele><time>2026-04-25T15:44:47.319Z</time></trkpt><trkpt lat="43.7111122" lon="11.2140357"><ele>73.5</ele><time>2026-04-25T15:44:48.283Z</time></trkpt><trkpt lat="43.7108824" lon="11.2138916"><ele>72.0</ele><time>2026-04-25T15:44:49.313Z</time></trkpt><trkpt lat="43.7106528" lon="11.2137462"><ele>72.0</ele><time>2026-04-25T15:44:50.315Z</time></trkpt><trkpt lat="43.7104255" lon="11.2135976"><ele>72.0</ele><time>2026-04-25T15:44:51.312Z</time></trkpt><trkpt lat="43.7101938" lon="11.2134549"><ele>72.5</ele><time>2026-04-25T15:44:52.316Z</time></trkpt><trkpt lat="43.7099594" lon="11.213327"><ele>73.0</ele><time>2026-04-25T15:44:53.316Z</time></trkpt><trkpt lat="43.7097165" lon="11.2132177"><ele>72.5</ele><time>2026-04-25T15:44:54.309Z</time></trkpt><trkpt lat="43.7094747" lon="11.2131243"><ele>72.0</ele><time>2026-04-25T15:44:55.318Z</time></trkpt><trkpt lat="43.7092258" lon="11.2130429"><ele>73.0</ele><time>2026-04-25T15:44:56.312Z</time></trkpt><trkpt lat="43.7089785" lon="11.2129703"><ele>74.0</ele><time>2026-04-25T15:44:57.313Z</time></trkpt><trkpt lat="43.7087291" lon="11.2129193"><ele>74.5</ele><time>2026-04-25T15:44:58.302Z</time></trkpt><trkpt lat="43.708473" lon="11.2128889"><ele>75.0</ele><time>2026-04-25T15:44:59.312Z</time></trkpt><trkpt lat="43.7082202" lon="11.2128703"><ele>75.0</ele><time>2026-04-25T15:45:00.306Z</time></trkpt><trkpt lat="43.7079704" lon="11.2128789"><ele>75.0</ele><time>2026-04-25T15:45:01.309Z</time></trkpt><trkpt lat="43.7077249" lon="11.2129085"><ele>77.5</ele><time>2026-04-25T15:45:02.289Z</time></trkpt><trkpt lat="43.7074672" lon="11.2129485"><ele>80.0</ele><time>2026-04-25T15:45:03.319Z</time></trkpt><trkpt lat="43.7072083" lon="11.2130016"><ele>80.0</ele><time>2026-04-25T15:45:04.318Z</time></trkpt><trkpt lat="43.7069398" lon="11.2130593"><ele>80.0</ele><time>2026-04-25T15:45:05.31Z</time></trkpt><trkpt lat="43.706651" lon="11.2131046"><ele>90.5</ele><time>2026-04-25T15:45:06.31Z</time></trkpt><trkpt lat="43.7063606" lon="11.2131607"><ele>101.0</ele><time>2026-04-25T15:45:07.293Z</time></trkpt><trkpt lat="43.7060528" lon="11.2132179"><ele>97.0</ele><time>2026-04-25T15:45:08.302Z</time></trkpt><trkpt lat="43.7027523" lon="11.2137292"><ele>95.5</ele><time>2026-04-25T15:45:19.314Z</time></trkpt><trkpt lat="43.7024495" lon="11.2138048"><ele>94.0</ele><time>2026-04-25T15:45:20.305Z</time></trkpt><trkpt lat="43.7021407" lon="11.2138632"><ele>94.5</ele><time>2026-04-25T15:45:21.312Z</time></trkpt><trkpt lat="43.7018635" lon="11.2138778"><ele>95.0</ele><time>2026-04-25T15:45:22.326Z</time></trkpt><trkpt lat="43.7016" lon="11.2138509"><ele>95.0</ele><time>2026-04-25T15:45:23.315Z</time></trkpt><trkpt lat="43.7013264" lon="11.2138175"><ele>95.0</ele><time>2026-04-25T15:45:24.298Z</time></trkpt><trkpt lat="43.7010576" lon="11.2137611"><ele>90.5</ele><time>2026-04-25T15:45:25.31Z</time></trkpt><trkpt lat="43.7007913" lon="11.2136784"><ele>86.0</ele><time>2026-04-25T15:45:26.305Z</time></trkpt><trkpt lat="43.7005238" lon="11.2135829"><ele>86.0</ele><time>2026-04-25T15:45:27.305Z</time></trkpt><trkpt lat="43.70027" lon="11.2134685"><ele>86.0</ele><time>2026-04-25T15:45:28.314Z</time></trkpt><trkpt lat="43.7000262" lon="11.2133136"><ele>85.0</ele><time>2026-04-25T15:45:29.307Z</time></trkpt><trkpt lat="43.6997874" lon="11.2131428"><ele>84.0</ele><time>2026-04-25T15:45:30.302Z</time></trkpt><trkpt lat="43.6995582" lon="11.2129579"><ele>86.5</ele><time>2026-04-25T15:45:31.315Z</time></trkpt><trkpt lat="43.6993363" lon="11.212769"><ele>89.0</ele><time>2026-04-25T15:45:32.282Z</time></trkpt><trkpt lat="43.6991184" lon="11.2125796"><ele>89.0</ele><time>2026-04-25T15:45:33.306Z</time></trkpt><trkpt lat="43.6989066" lon="11.2123927"><ele>89.0</ele><time>2026-04-25T15:45:34.285Z</time></trkpt><trkpt lat="43.6986965" lon="11.2122133"><ele>89.0</ele><time>2026-04-25T15:45:35.28Z</time></trkpt><trkpt lat="43.698478" lon="11.2120404"><ele>89.0</ele><time>2026-04-25T15:45:36.282Z</time></trkpt><trkpt lat="43.6982562" lon="11.2118872"><ele>89.0</ele><time>2026-04-25T15:45:37.281Z</time></trkpt><trkpt lat="43.698031" lon="11.2117622"><ele>89.0</ele><time>2026-04-25T15:45:38.283Z</time></trkpt><trkpt lat="43.6978077" lon="11.2116656"><ele>90.33333333333334</ele><time>2026-04-25T15:45:39.302Z</time></trkpt><trkpt lat="43.6975831" lon="11.2115838"><ele>91.66666666666667</ele><time>2026-04-25T15:45:40.307Z</time></trkpt><trkpt lat="43.6973792" lon="11.2115222"><ele>93.0</ele><time>2026-04-25T15:45:41.303Z</time></trkpt><trkpt lat="43.6971896" lon="11.2114724"><ele>92.0</ele><time>2026-04-25T15:45:42.317Z</time></trkpt><trkpt lat="43.697023" lon="11.2114397"><ele>91.0</ele><time>2026-04-25T15:45:43.31Z</time></trkpt><trkpt lat="43.696878" lon="11.2114037"><ele>90.0</ele><time>2026-04-25T15:45:44.308Z</time></trkpt><trkpt lat="43.6967411" lon="11.2113904"><ele>90.0</ele><time>2026-04-25T15:45:45.287Z</time></trkpt><trkpt lat="43.6966232" lon="11.2113696"><ele>90.0</ele><time>2026-04-25T15:45:46.318Z</time></trkpt><trkpt lat="43.6965208" lon="11.2113541"><ele>90.0</ele><time>2026-04-25T15:45:47.299Z</time></trkpt><trkpt lat="43.6964338" lon="11.2113184"><ele>90.0</ele><time>2026-04-25T15:45:48.32Z</time></trkpt><trkpt lat="43.6963779" lon="11.2112227"><ele>90.0</ele><time>2026-04-25T15:45:49.302Z</time></trkpt><trkpt lat="43.6963653" lon="11.2110878"><ele>90.0</ele><time>2026-04-25T15:45:50.3Z</time></trkpt><trkpt lat="43.696341" lon="11.2109724"><ele>90.0</ele><time>2026-04-25T15:45:51.313Z</time></trkpt><trkpt lat="43.6962886" lon="11.2109008"><ele>90.0</ele><time>2026-04-25T15:45:52.321Z</time></trkpt><trkpt lat="43.696213" lon="11.2108567"><ele>90.0</ele><time>2026-04-25T15:45:53.308Z</time></trkpt><trkpt lat="43.6961328" lon="11.2108718"><ele>90.0</ele><time>2026-04-25T15:45:54.31Z</time></trkpt><trkpt lat="43.6960585" lon="11.2109112"><ele>90.0</ele><time>2026-04-25T15:45:55.309Z</time></trkpt><trkpt lat="43.6959816" lon="11.2109534"><ele>90.0</ele><time>2026-04-25T15:45:56.316Z</time></trkpt><trkpt lat="43.6959053" lon="11.2109929"><ele>90.0</ele><time>2026-04-25T15:45:57.311Z</time></trkpt><trkpt lat="43.6958246" lon="11.2110397"><ele>90.0</ele><time>2026-04-25T15:45:58.316Z</time></trkpt><trkpt lat="43.695739" lon="11.2110862"><ele>90.0</ele><time>2026-04-25T15:45:59.332Z</time></trkpt><trkpt lat="43.6956576" lon="11.2111194"><ele>90.0</ele><time>2026-04-25T15:46:00.318Z</time></trkpt><trkpt lat="43.6955781" lon="11.2111619"><ele>90.0</ele><time>2026-04-25T15:46:01.318Z</time></trkpt><trkpt lat="43.6954993" lon="11.2112044"><ele>90.0</ele><time>2026-04-25T15:46:02.316Z</time></trkpt><trkpt lat="43.6954164" lon="11.2112486"><ele>90.0</ele><time>2026-04-25T15:46:03.319Z</time></trkpt><trkpt lat="43.6953401" lon="11.2112932"><ele>90.0</ele><time>2026-04-25T15:46:04.317Z</time></trkpt><trkpt lat="43.6952688" lon="11.2113355"><ele>90.0</ele><time>2026-04-25T15:46:05.319Z</time></trkpt><trkpt lat="43.6952031" lon="11.2113717"><ele>90.0</ele><time>2026-04-25T15:46:06.314Z</time></trkpt><trkpt lat="43.6951323" lon="11.2114067"><ele>90.0</ele><time>2026-04-25T15:46:07.318Z</time></trkpt><trkpt lat="43.695061" lon="11.2114383"><ele>90.4</ele><time>2026-04-25T15:46:08.309Z</time></trkpt><trkpt lat="43.6949792" lon="11.2114779"><ele>90.8</ele><time>2026-04-25T15:46:09.289Z</time></trkpt><trkpt lat="43.6948975" lon="11.2115308"><ele>91.19999999999999</ele><time>2026-04-25T15:46:10.303Z</time></trkpt><trkpt lat="43.6948052" lon="11.2116066"><ele>91.6</ele><time>2026-04-25T15:46:11.312Z</time></trkpt><trkpt lat="43.6946842" lon="11.211681"><ele>92.0</ele><time>2026-04-25T15:46:12.304Z</time></trkpt><trkpt lat="43.6945489" lon="11.2117628"><ele>90.66666666666667</ele><time>2026-04-25T15:46:13.311Z</time></trkpt><trkpt lat="43.6943942" lon="11.2118437"><ele>89.33333333333333</ele><time>2026-04-25T15:46:14.31Z</time></trkpt><trkpt lat="43.6942417" lon="11.21192"><ele>88.0</ele><time>2026-04-25T15:46:15.293Z</time></trkpt><trkpt lat="43.6940857" lon="11.2120051"><ele>88.0</ele><time>2026-04-25T15:46:16.306Z</time></trkpt><trkpt lat="43.6939175" lon="11.2120876"><ele>88.0</ele><time>2026-04-25T15:46:17.31Z</time></trkpt><trkpt lat="43.6937578" lon="11.2121747"><ele>88.0</ele><time>2026-04-25T15:46:18.312Z</time></trkpt><trkpt lat="43.6936055" lon="11.2122554"><ele>90.25</ele><time>2026-04-25T15:46:19.3Z</time></trkpt><trkpt lat="43.6934576" lon="11.2123379"><ele>92.5</ele><time>2026-04-25T15:46:20.312Z</time></trkpt><trkpt lat="43.6933335" lon="11.2124124"><ele>94.75</ele><time>2026-04-25T15:46:21.314Z</time></trkpt><trkpt lat="43.6932186" lon="11.2124783"><ele>97.0</ele><time>2026-04-25T15:46:22.305Z</time></trkpt><trkpt lat="43.6930977" lon="11.2125398"><ele>97.0</ele><time>2026-04-25T15:46:23.303Z</time></trkpt><trkpt lat="43.6929727" lon="11.2126078"><ele>97.0</ele><time>2026-04-25T15:46:24.309Z</time></trkpt><trkpt lat="43.6928451" lon="11.2126691"><ele>97.0</ele><time>2026-04-25T15:46:25.31Z</time></trkpt><trkpt lat="43.6927148" lon="11.2127134"><ele>97.0</ele><time>2026-04-25T15:46:26.324Z</time></trkpt><trkpt lat="43.6925875" lon="11.2127414"><ele>95.5</ele><time>2026-04-25T15:46:27.293Z</time></trkpt><trkpt lat="43.6924637" lon="11.2127616"><ele>94.0</ele><time>2026-04-25T15:46:28.284Z</time></trkpt><trkpt lat="43.6923452" lon="11.2127694"><ele>92.5</ele><time>2026-04-25T15:46:29.274Z</time></trkpt><trkpt lat="43.6922291" lon="11.2127537"><ele>91.0</ele><time>2026-04-25T15:46:30.284Z</time></trkpt><trkpt lat="43.6921143" lon="11.2127294"><ele>91.0</ele><time>2026-04-25T15:46:31.316Z</time></trkpt><trkpt lat="43.6919912" lon="11.2126986"><ele>91.0</ele><time>2026-04-25T15:46:32.291Z</time></trkpt><trkpt lat="43.6918756" lon="11.2126572"><ele>91.0</ele><time>2026-04-25T15:46:33.298Z</time></trkpt><trkpt lat="43.6917576" lon="11.2126107"><ele>91.0</ele><time>2026-04-25T15:46:34.29Z</time></trkpt><trkpt lat="43.691632" lon="11.2125575"><ele>91.25</ele><time>2026-04-25T15:46:35.312Z</time></trkpt><trkpt lat="43.6915043" lon="11.2125032"><ele>91.5</ele><time>2026-04-25T15:46:36.31Z</time></trkpt><trkpt lat="43.6913716" lon="11.2124488"><ele>91.75</ele><time>2026-04-25T15:46:37.309Z</time></trkpt><trkpt lat="43.6912468" lon="11.2123968"><ele>92.0</ele><time>2026-04-25T15:46:38.291Z</time></trkpt><trkpt lat="43.6911252" lon="11.2123412"><ele>92.25</ele><time>2026-04-25T15:46:39.295Z</time></trkpt><trkpt lat="43.6910009" lon="11.2122925"><ele>92.5</ele><time>2026-04-25T15:46:40.293Z</time></trkpt><trkpt lat="43.6908769" lon="11.2122454"><ele>92.75</ele><time>2026-04-25T15:46:41.313Z</time></trkpt><trkpt lat="43.6907505" lon="11.2121832"><ele>93.0</ele><time>2026-04-25T15:46:42.304Z</time></trkpt><trkpt lat="43.6906215" lon="11.2121198"><ele>93.0</ele><time>2026-04-25T15:46:43.304Z</time></trkpt><trkpt lat="43.6904955" lon="11.2120591"><ele>93.0</ele><time>2026-04-25T15:46:44.3Z</time></trkpt><trkpt lat="43.6903717" lon="11.2119974"><ele>93.0</ele><time>2026-04-25T15:46:45.277Z</time></trkpt><trkpt lat="43.6902518" lon="11.2119508"><ele>93.0</ele><time>2026-04-25T15:46:46.28Z</time></trkpt><trkpt lat="43.6901333" lon="11.2118923"><ele>92.75</ele><time>2026-04-25T15:46:47.282Z</time></trkpt><trkpt lat="43.6900154" lon="11.2118398"><ele>92.5</ele><time>2026-04-25T15:46:48.28Z</time></trkpt><trkpt lat="43.6899031" lon="11.2117891"><ele>92.25</ele><time>2026-04-25T15:46:49.306Z</time></trkpt><trkpt lat="43.6897942" lon="11.2117412"><ele>92.0</ele><time>2026-04-25T15:46:50.311Z</time></trkpt><trkpt lat="43.6896862" lon="11.2116934"><ele>92.0</ele><time>2026-04-25T15:46:51.304Z</time></trkpt><trkpt lat="43.6895653" lon="11.2116472"><ele>92.0</ele><time>2026-04-25T15:46:52.313Z</time></trkpt><trkpt lat="43.6894366" lon="11.2116035"><ele>92.0</ele><time>2026-04-25T15:46:53.311Z</time></trkpt><trkpt lat="43.6893021" lon="11.2115599"><ele>92.0</ele><time>2026-04-25T15:46:54.321Z</time></trkpt><trkpt lat="43.6891721" lon="11.211524"><ele>92.25</ele><time>2026-04-25T15:46:55.294Z</time></trkpt><trkpt lat="43.6890506" lon="11.2115039"><ele>92.5</ele><time>2026-04-25T15:46:56.307Z</time></trkpt><trkpt lat="43.6889283" lon="11.2114883"><ele>92.75</ele><time>2026-04-25T15:46:57.288Z</time></trkpt><trkpt lat="43.6888065" lon="11.2114711"><ele>93.0</ele><time>2026-04-25T15:46:58.303Z</time></trkpt><trkpt lat="43.688696" lon="11.2114602"><ele>92.5</ele><time>2026-04-25T15:46:59.301Z</time></trkpt><trkpt lat="43.6885932" lon="11.2114635"><ele>92.0</ele><time>2026-04-25T15:47:00.323Z</time></trkpt><trkpt lat="43.6884739" lon="11.2114585"><ele>91.5</ele><time>2026-04-25T15:47:01.299Z</time></trkpt><trkpt lat="43.6883542" lon="11.2114514"><ele>91.0</ele><time>2026-04-25T15:47:02.312Z</time></trkpt><trkpt lat="43.6882295" lon="11.2114736"><ele>93.5</ele><time>2026-04-25T15:47:03.32Z</time></trkpt><trkpt lat="43.6880944" lon="11.2114947"><ele>96.0</ele><time>2026-04-25T15:47:04.311Z</time></trkpt><trkpt lat="43.6879455" lon="11.2115061"><ele>98.5</ele><time>2026-04-25T15:47:05.307Z</time></trkpt><trkpt lat="43.6877882" lon="11.2115084"><ele>101.0</ele><time>2026-04-25T15:47:06.318Z</time></trkpt><trkpt lat="43.6876174" lon="11.2115129"><ele>101.33333333333333</ele><time>2026-04-25T15:47:07.309Z</time></trkpt><trkpt lat="43.6874489" lon="11.2115223"><ele>101.66666666666666</ele><time>2026-04-25T15:47:08.303Z</time></trkpt><trkpt lat="43.6872866" lon="11.2115357"><ele>102.0</ele><time>2026-04-25T15:47:09.286Z</time></trkpt><trkpt lat="43.6871193" lon="11.21155"><ele>102.0</ele><time>2026-04-25T15:47:10.306Z</time></trkpt><trkpt lat="43.6869469" lon="11.2115638"><ele>102.0</ele><time>2026-04-25T15:47:11.275Z</time></trkpt><trkpt lat="43.6867755" lon="11.2115739"><ele>102.0</ele><time>2026-04-25T15:47:12.306Z</time></trkpt><trkpt lat="43.686601" lon="11.2115897"><ele>102.66666666666666</ele><time>2026-04-25T15:47:13.276Z</time></trkpt><trkpt lat="43.6864232" lon="11.2116054"><ele>103.33333333333333</ele><time>2026-04-25T15:47:14.302Z</time></trkpt><trkpt lat="43.6862397" lon="11.2116296"><ele>104.0</ele><time>2026-04-25T15:47:15.286Z</time></trkpt><trkpt lat="43.6860555" lon="11.2116609"><ele>105.0</ele><time>2026-04-25T15:47:16.293Z</time></trkpt><trkpt lat="43.6858633" lon="11.2117013"><ele>106.0</ele><time>2026-04-25T15:47:17.287Z</time></trkpt><trkpt lat="43.6856706" lon="11.2117442"><ele>107.0</ele><time>2026-04-25T15:47:18.3Z</time></trkpt><trkpt lat="43.6854782" lon="11.2117957"><ele>107.0</ele><time>2026-04-25T15:47:19.299Z</time></trkpt><trkpt lat="43.6852873" lon="11.2118468"><ele>107.0</ele><time>2026-04-25T15:47:20.3Z</time></trkpt><trkpt lat="43.6851011" lon="11.2118928"><ele>107.0</ele><time>2026-04-25T15:47:21.293Z</time></trkpt><trkpt lat="43.6849159" lon="11.2119422"><ele>108.66666666666666</ele><time>2026-04-25T15:47:22.302Z</time></trkpt><trkpt lat="43.6847273" lon="11.2119867"><ele>110.33333333333334</ele><time>2026-04-25T15:47:23.296Z</time></trkpt><trkpt lat="43.6845458" lon="11.2120361"><ele>112.0</ele><time>2026-04-25T15:47:24.293Z</time></trkpt><trkpt lat="43.684373" lon="11.2120771"><ele>112.0</ele><time>2026-04-25T15:47:25.304Z</time></trkpt><trkpt lat="43.6842026" lon="11.2121193"><ele>112.0</ele><time>2026-04-25T15:47:26.31Z</time></trkpt><trkpt lat="43.6840354" lon="11.212154"><ele>112.0</ele><time>2026-04-25T15:47:27.304Z</time></trkpt><trkpt lat="43.6838761" lon="11.2121929"><ele>112.0</ele><time>2026-04-25T15:47:28.298Z</time></trkpt><trkpt lat="43.6837207" lon="11.2122346"><ele>112.0</ele><time>2026-04-25T15:47:29.277Z</time></trkpt><trkpt lat="43.6835705" lon="11.2122903"><ele>112.0</ele><time>2026-04-25T15:47:30.277Z</time></trkpt><trkpt lat="43.6834144" lon="11.2123812"><ele>107.0</ele><time>2026-04-25T15:47:31.292Z</time></trkpt><trkpt lat="43.6832566" lon="11.212494"><ele>102.0</ele><time>2026-04-25T15:47:32.296Z</time></trkpt><trkpt lat="43.6830982" lon="11.2126117"><ele>97.0</ele><time>2026-04-25T15:47:33.286Z</time></trkpt><trkpt lat="43.6829456" lon="11.2127193"><ele>97.0</ele><time>2026-04-25T15:47:34.3Z</time></trkpt><trkpt lat="43.6827768" lon="11.2128112"><ele>97.0</ele><time>2026-04-25T15:47:35.289Z</time></trkpt><trkpt lat="43.6826046" lon="11.2128688"><ele>97.0</ele><time>2026-04-25T15:47:36.284Z</time></trkpt><trkpt lat="43.6824189" lon="11.2128845"><ele>97.0</ele><time>2026-04-25T15:47:37.309Z</time></trkpt><trkpt lat="43.6822422" lon="11.212874"><ele>97.0</ele><time>2026-04-25T15:47:38.3Z</time></trkpt><trkpt lat="43.6820669" lon="11.2128279"><ele>97.0</ele><time>2026-04-25T15:47:39.3Z</time></trkpt><trkpt lat="43.681881" lon="11.2127585"><ele>97.33333333333334</ele><time>2026-04-25T15:47:40.293Z</time></trkpt><trkpt lat="43.68169" lon="11.212693"><ele>97.66666666666666</ele><time>2026-04-25T15:47:41.303Z</time></trkpt><trkpt lat="43.6815163" lon="11.21264"><ele>98.0</ele><time>2026-04-25T15:47:42.298Z</time></trkpt><trkpt lat="43.6813555" lon="11.2125762"><ele>98.0</ele><time>2026-04-25T15:47:43.276Z</time></trkpt><trkpt lat="43.6812129" lon="11.2125057"><ele>98.0</ele><time>2026-04-25T15:47:44.287Z</time></trkpt><trkpt lat="43.681075" lon="11.2124052"><ele>98.0</ele><time>2026-04-25T15:47:45.293Z</time></trkpt><trkpt lat="43.6809476" lon="11.212296"><ele>97.33333333333333</ele><time>2026-04-25T15:47:46.29Z</time></trkpt><trkpt lat="43.6808021" lon="11.2121301"><ele>96.66666666666666</ele><time>2026-04-25T15:47:47.291Z</time></trkpt><trkpt lat="43.6806477" lon="11.2119645"><ele>96.0</ele><time>2026-04-25T15:47:48.319Z</time></trkpt><trkpt lat="43.6804866" lon="11.2117791"><ele>96.0</ele><time>2026-04-25T15:47:49.292Z</time></trkpt><trkpt lat="43.6803204" lon="11.2115981"><ele>96.0</ele><time>2026-04-25T15:47:50.314Z</time></trkpt><trkpt lat="43.6801575" lon="11.2114223"><ele>96.0</ele><time>2026-04-25T15:47:51.311Z</time></trkpt><trkpt lat="43.6799947" lon="11.2112523"><ele>96.0</ele><time>2026-04-25T15:47:52.318Z</time></trkpt><trkpt lat="43.6798348" lon="11.2110857"><ele>96.0</ele><time>2026-04-25T15:47:53.286Z</time></trkpt><trkpt lat="43.6796801" lon="11.210921"><ele>96.0</ele><time>2026-04-25T15:47:54.315Z</time></trkpt><trkpt lat="43.6795281" lon="11.2107571"><ele>96.33333333333334</ele><time>2026-04-25T15:47:55.317Z</time></trkpt><trkpt lat="43.679381" lon="11.2105955"><ele>96.66666666666667</ele><time>2026-04-25T15:47:56.322Z</time></trkpt><trkpt lat="43.6792425" lon="11.2104269"><ele>97.0</ele><time>2026-04-25T15:47:57.313Z</time></trkpt><trkpt lat="43.6791072" lon="11.21025"><ele>97.0</ele><time>2026-04-25T15:47:58.318Z</time></trkpt><trkpt lat="43.6789704" lon="11.2100733"><ele>97.0</ele><time>2026-04-25T15:47:59.313Z</time></trkpt><trkpt lat="43.6788316" lon="11.209908"><ele>97.0</ele><time>2026-04-25T15:48:00.301Z</time></trkpt><trkpt lat="43.6786757" lon="11.2097563"><ele>97.0</ele><time>2026-04-25T15:48:01.309Z</time></trkpt><trkpt lat="43.6785077" lon="11.2096296"><ele>97.0</ele><time>2026-04-25T15:48:02.313Z</time></trkpt><trkpt lat="43.6783297" lon="11.2095336"><ele>97.0</ele><time>2026-04-25T15:48:03.318Z</time></trkpt><trkpt lat="43.6781374" lon="11.209476"><ele>97.0</ele><time>2026-04-25T15:48:04.31Z</time></trkpt><trkpt lat="43.6779474" lon="11.2094421"><ele>97.0</ele><time>2026-04-25T15:48:05.315Z</time></trkpt><trkpt lat="43.6777472" lon="11.2094313"><ele>97.0</ele><time>2026-04-25T15:48:06.307Z</time></trkpt><trkpt lat="43.6775581" lon="11.2094597"><ele>98.0</ele><time>2026-04-25T15:48:07.312Z</time></trkpt><trkpt lat="43.6773703" lon="11.2095236"><ele>99.0</ele><time>2026-04-25T15:48:08.315Z</time></trkpt><trkpt lat="43.6771977" lon="11.2096064"><ele>100.0</ele><time>2026-04-25T15:48:09.311Z</time></trkpt><trkpt lat="43.6770364" lon="11.2097088"><ele>99.33333333333334</ele><time>2026-04-25T15:48:10.303Z</time></trkpt><trkpt lat="43.6768939" lon="11.2098219"><ele>98.66666666666666</ele><time>2026-04-25T15:48:11.324Z</time></trkpt><trkpt lat="43.6767601" lon="11.2099467"><ele>98.0</ele><time>2026-04-25T15:48:12.317Z</time></trkpt><trkpt lat="43.6766492" lon="11.2100932"><ele>100.0</ele><time>2026-04-25T15:48:13.31Z</time></trkpt><trkpt lat="43.676544" lon="11.2102539"><ele>102.0</ele><time>2026-04-25T15:48:14.311Z</time></trkpt><trkpt lat="43.6764552" lon="11.2104357"><ele>104.0</ele><time>2026-04-25T15:48:15.288Z</time></trkpt><trkpt lat="43.6763715" lon="11.2106341"><ele>107.66666666666666</ele><time>2026-04-25T15:48:16.304Z</time></trkpt><trkpt lat="43.6763034" lon="11.2108525"><ele>111.33333333333334</ele><time>2026-04-25T15:48:17.292Z</time></trkpt><trkpt lat="43.6762498" lon="11.2110767"><ele>115.0</ele><time>2026-04-25T15:48:18.297Z</time></trkpt><trkpt lat="43.676218" lon="11.2113132"><ele>114.66666666666667</ele><time>2026-04-25T15:48:19.294Z</time></trkpt><trkpt lat="43.676199" lon="11.211546"><ele>114.33333333333334</ele><time>2026-04-25T15:48:20.287Z</time></trkpt><trkpt lat="43.6761926" lon="11.2117737"><ele>114.0</ele><time>2026-04-25T15:48:21.289Z</time></trkpt><trkpt lat="43.6761863" lon="11.2120075"><ele>114.0</ele><time>2026-04-25T15:48:22.296Z</time></trkpt><trkpt lat="43.6761887" lon="11.2122187"><ele>114.0</ele><time>2026-04-25T15:48:23.292Z</time></trkpt><trkpt lat="43.6761923" lon="11.2124208"><ele>114.0</ele><time>2026-04-25T15:48:24.287Z</time></trkpt><trkpt lat="43.676195" lon="11.2126132"><ele>114.0</ele><time>2026-04-25T15:48:25.319Z</time></trkpt><trkpt lat="43.6761977" lon="11.2128009"><ele>113.5</ele><time>2026-04-25T15:48:26.315Z</time></trkpt><trkpt lat="43.6761954" lon="11.2129781"><ele>113.0</ele><time>2026-04-25T15:48:27.306Z</time></trkpt><trkpt lat="43.6761679" lon="11.2131396"><ele>112.5</ele><time>2026-04-25T15:48:28.325Z</time></trkpt><trkpt lat="43.6761171" lon="11.2133065"><ele>112.0</ele><time>2026-04-25T15:48:29.306Z</time></trkpt><trkpt lat="43.6760584" lon="11.2134548"><ele>110.0</ele><time>2026-04-25T15:48:30.309Z</time></trkpt><trkpt lat="43.6759892" lon="11.2135893"><ele>108.0</ele><time>2026-04-25T15:48:31.298Z</time></trkpt><trkpt lat="43.6759128" lon="11.2137275"><ele>106.0</ele><time>2026-04-25T15:48:32.307Z</time></trkpt><trkpt lat="43.675817" lon="11.2138618"><ele>104.0</ele><time>2026-04-25T15:48:33.315Z</time></trkpt><trkpt lat="43.6756699" lon="11.2139868"><ele>104.0</ele><time>2026-04-25T15:48:34.313Z</time></trkpt><trkpt lat="43.6755098" lon="11.2141224"><ele>104.0</ele><time>2026-04-25T15:48:35.306Z</time></trkpt><trkpt lat="43.6753471" lon="11.2142493"><ele>104.0</ele><time>2026-04-25T15:48:36.31Z</time></trkpt><trkpt lat="43.6751982" lon="11.2143528"><ele>105.66666666666666</ele><time>2026-04-25T15:48:37.309Z</time></trkpt><trkpt lat="43.6750282" lon="11.214414"><ele>107.33333333333334</ele><time>2026-04-25T15:48:38.301Z</time></trkpt><trkpt lat="43.6748592" lon="11.2144367"><ele>109.0</ele><time>2026-04-25T15:48:39.311Z</time></trkpt><trkpt lat="43.6746913" lon="11.2143866"><ele>109.0</ele><time>2026-04-25T15:48:40.304Z</time></trkpt><trkpt lat="43.6745417" lon="11.214289"><ele>109.0</ele><time>2026-04-25T15:48:41.29Z</time></trkpt><trkpt lat="43.6744023" lon="11.2141446"><ele>109.0</ele><time>2026-04-25T15:48:42.316Z</time></trkpt><trkpt lat="43.6742873" lon="11.2139894"><ele>114.0</ele><time>2026-04-25T15:48:43.298Z</time></trkpt><trkpt lat="43.6741922" lon="11.2137879"><ele>119.0</ele><time>2026-04-25T15:48:44.317Z</time></trkpt><trkpt lat="43.674088" lon="11.2135526"><ele>124.0</ele><time>2026-04-25T15:48:45.289Z</time></trkpt><trkpt lat="43.6739984" lon="11.2132843"><ele>126.33333333333334</ele><time>2026-04-25T15:48:46.313Z</time></trkpt><trkpt lat="43.673917" lon="11.2130254"><ele>128.66666666666666</ele><time>2026-04-25T15:48:47.31Z</time></trkpt><trkpt lat="43.6738487" lon="11.2127959"><ele>131.0</ele><time>2026-04-25T15:48:48.314Z</time></trkpt><trkpt lat="43.6738147" lon="11.2125793"><ele>131.0</ele><time>2026-04-25T15:48:49.302Z</time></trkpt><trkpt lat="43.6737996" lon="11.2123509"><ele>131.0</ele><time>2026-04-25T15:48:50.308Z</time></trkpt><trkpt lat="43.6737881" lon="11.2121262"><ele>131.0</ele><time>2026-04-25T15:48:51.322Z</time></trkpt><trkpt lat="43.6737816" lon="11.2119097"><ele>130.66666666666666</ele><time>2026-04-25T15:48:52.31Z</time></trkpt><trkpt lat="43.6737264" lon="11.2117002"><ele>130.33333333333334</ele><time>2026-04-25T15:48:53.324Z</time></trkpt><trkpt lat="43.6736214" lon="11.2115214"><ele>130.0</ele><time>2026-04-25T15:48:54.305Z</time></trkpt><trkpt lat="43.6734732" lon="11.2113696"><ele>130.0</ele><time>2026-04-25T15:48:55.305Z</time></trkpt><trkpt lat="43.6733127" lon="11.2112161"><ele>130.0</ele><time>2026-04-25T15:48:56.313Z</time></trkpt><trkpt lat="43.6731622" lon="11.2110889"><ele>130.0</ele><time>2026-04-25T15:48:57.308Z</time></trkpt><trkpt lat="43.6729983" lon="11.2109651"><ele>130.0</ele><time>2026-04-25T15:48:58.302Z</time></trkpt><trkpt lat="43.6727975" lon="11.2108882"><ele>130.0</ele><time>2026-04-25T15:48:59.309Z</time></trkpt><trkpt lat="43.6725747" lon="11.210839"><ele>130.0</ele><time>2026-04-25T15:49:00.303Z</time></trkpt><trkpt lat="43.672368" lon="11.2108196"><ele>130.33333333333334</ele><time>2026-04-25T15:49:01.317Z</time></trkpt><trkpt lat="43.672164" lon="11.2108346"><ele>130.66666666666666</ele><time>2026-04-25T15:49:02.323Z</time></trkpt><trkpt lat="43.6719664" lon="11.2108479"><ele>131.0</ele><time>2026-04-25T15:49:03.309Z</time></trkpt><trkpt lat="43.6717611" lon="11.2108684"><ele>133.66666666666666</ele><time>2026-04-25T15:49:04.312Z</time></trkpt><trkpt lat="43.6715719" lon="11.2108708"><ele>136.33333333333334</ele><time>2026-04-25T15:49:05.301Z</time></trkpt><trkpt lat="43.6714066" lon="11.2108843"><ele>139.0</ele><time>2026-04-25T15:49:06.302Z</time></trkpt><trkpt lat="43.6712688" lon="11.210961"><ele>139.0</ele><time>2026-04-25T15:49:07.297Z</time></trkpt><trkpt lat="43.671165" lon="11.2111194"><ele>139.0</ele><time>2026-04-25T15:49:08.294Z</time></trkpt><trkpt lat="43.6710624" lon="11.211279"><ele>139.0</ele><time>2026-04-25T15:49:09.303Z</time></trkpt><trkpt lat="43.6709712" lon="11.2114183"><ele>139.0</ele><time>2026-04-25T15:49:10.306Z</time></trkpt><trkpt lat="43.6708574" lon="11.2115063"><ele>138.0</ele><time>2026-04-25T15:49:11.308Z</time></trkpt><trkpt lat="43.6707275" lon="11.211512"><ele>137.0</ele><time>2026-04-25T15:49:12.303Z</time></trkpt><trkpt lat="43.6705527" lon="11.2114348"><ele>136.0</ele><time>2026-04-25T15:49:13.308Z</time></trkpt><trkpt lat="43.6703704" lon="11.2113457"><ele>138.66666666666669</ele><time>2026-04-25T15:49:14.307Z</time></trkpt><trkpt lat="43.6701907" lon="11.2112631"><ele>141.33333333333334</ele><time>2026-04-25T15:49:15.293Z</time></trkpt><trkpt lat="43.6700185" lon="11.2111528"><ele>144.0</ele><time>2026-04-25T15:49:16.309Z</time></trkpt><trkpt lat="43.6698508" lon="11.2110039"><ele>144.0</ele><time>2026-04-25T15:49:17.318Z</time></trkpt><trkpt lat="43.6696938" lon="11.2108537"><ele>144.0</ele><time>2026-04-25T15:49:18.302Z</time></trkpt><trkpt lat="43.6695353" lon="11.2106983"><ele>144.0</ele><time>2026-04-25T15:49:19.306Z</time></trkpt><trkpt lat="43.6693746" lon="11.2105483"><ele>147.66666666666666</ele><time>2026-04-25T15:49:20.32Z</time></trkpt><trkpt lat="43.6691999" lon="11.2104137"><ele>151.33333333333331</ele><time>2026-04-25T15:49:21.301Z</time></trkpt><trkpt lat="43.6690202" lon="11.2102828"><ele>155.0</ele><time>2026-04-25T15:49:22.308Z</time></trkpt><trkpt lat="43.6688257" lon="11.2101969"><ele>155.0</ele><time>2026-04-25T15:49:23.31Z</time></trkpt><trkpt lat="43.6686151" lon="11.2101315"><ele>155.0</ele><time>2026-04-25T15:49:24.316Z</time></trkpt><trkpt lat="43.6683899" lon="11.2101127"><ele>155.0</ele><time>2026-04-25T15:49:25.304Z</time></trkpt><trkpt lat="43.6681612" lon="11.2100954"><ele>155.33333333333331</ele><time>2026-04-25T15:49:26.307Z</time></trkpt><trkpt lat="43.6679526" lon="11.2100825"><ele>155.66666666666666</ele><time>2026-04-25T15:49:27.307Z</time></trkpt><trkpt lat="43.6677584" lon="11.21007"><ele>156.0</ele><time>2026-04-25T15:49:28.293Z</time></trkpt><trkpt lat="43.6675913" lon="11.2100574"><ele>156.5</ele><time>2026-04-25T15:49:29.309Z</time></trkpt><trkpt lat="43.6674546" lon="11.2100221"><ele>157.0</ele><time>2026-04-25T15:49:30.311Z</time></trkpt><trkpt lat="43.6673415" lon="11.2099639"><ele>157.5</ele><time>2026-04-25T15:49:31.306Z</time></trkpt><trkpt lat="43.6672476" lon="11.2098648"><ele>158.0</ele><time>2026-04-25T15:49:32.316Z</time></trkpt><trkpt lat="43.6672018" lon="11.2097151"><ele>160.75</ele><time>2026-04-25T15:49:33.301Z</time></trkpt><trkpt lat="43.6672047" lon="11.2095358"><ele>163.5</ele><time>2026-04-25T15:49:34.3Z</time></trkpt><trkpt lat="43.6672363" lon="11.2093673"><ele>166.25</ele><time>2026-04-25T15:49:35.306Z</time></trkpt><trkpt lat="43.667307" lon="11.2092023"><ele>169.0</ele><time>2026-04-25T15:49:36.297Z</time></trkpt><trkpt lat="43.6673985" lon="11.2090739"><ele>169.0</ele><time>2026-04-25T15:49:37.287Z</time></trkpt><trkpt lat="43.6674837" lon="11.2090261"><ele>169.0</ele><time>2026-04-25T15:49:38.306Z</time></trkpt><trkpt lat="43.6675788" lon="11.2090244"><ele>169.0</ele><time>2026-04-25T15:49:39.311Z</time></trkpt><trkpt lat="43.667677" lon="11.2090796"><ele>169.0</ele><time>2026-04-25T15:49:40.305Z</time></trkpt><trkpt lat="43.6677673" lon="11.2091852"><ele>169.0</ele><time>2026-04-25T15:49:41.303Z</time></trkpt><trkpt lat="43.6677984" lon="11.2093362"><ele>169.0</ele><time>2026-04-25T15:49:42.313Z</time></trkpt><trkpt lat="43.6677684" lon="11.2094442"><ele>169.0</ele><time>2026-04-25T15:49:43.306Z</time></trkpt><trkpt lat="43.6676955" lon="11.2095031"><ele>169.0</ele><time>2026-04-25T15:49:45.33Z</time></trkpt><trkpt lat="43.6676182" lon="11.2095267"><ele>169.0</ele><time>2026-04-25T15:49:50.3Z</time></trkpt><trkpt lat="43.6675295" lon="11.2095069"><ele>169.0</ele><time>2026-04-25T15:49:51.299Z</time></trkpt><trkpt lat="43.6674174" lon="11.2094797"><ele>169.0</ele><time>2026-04-25T15:49:52.3Z</time></trkpt><trkpt lat="43.6672861" lon="11.20946"><ele>169.0</ele><time>2026-04-25T15:49:53.319Z</time></trkpt><trkpt lat="43.6671323" lon="11.2094329"><ele>169.0</ele><time>2026-04-25T15:49:54.305Z</time></trkpt><trkpt lat="43.6669556" lon="11.2094005"><ele>170.66666666666669</ele><time>2026-04-25T15:49:55.314Z</time></trkpt><trkpt lat="43.666768" lon="11.2093707"><ele>172.33333333333334</ele><time>2026-04-25T15:49:56.298Z</time></trkpt><trkpt lat="43.666562" lon="11.209324"><ele>174.0</ele><time>2026-04-25T15:49:57.301Z</time></trkpt><trkpt lat="43.6663454" lon="11.2092638"><ele>174.0</ele><time>2026-04-25T15:49:58.305Z</time></trkpt><trkpt lat="43.6661346" lon="11.209175"><ele>174.0</ele><time>2026-04-25T15:49:59.316Z</time></trkpt><trkpt lat="43.6659267" lon="11.2090697"><ele>174.0</ele><time>2026-04-25T15:50:00.32Z</time></trkpt><trkpt lat="43.6657309" lon="11.2089599"><ele>182.0</ele><time>2026-04-25T15:50:01.301Z</time></trkpt><trkpt lat="43.6655239" lon="11.2088293"><ele>190.0</ele><time>2026-04-25T15:50:02.315Z</time></trkpt><trkpt lat="43.665316" lon="11.208695"><ele>184.5</ele><time>2026-04-25T15:50:03.314Z</time></trkpt><trkpt lat="43.6651117" lon="11.2085363"><ele>179.0</ele><time>2026-04-25T15:50:04.309Z</time></trkpt><trkpt lat="43.6649041" lon="11.2083695"><ele>179.0</ele><time>2026-04-25T15:50:05.318Z</time></trkpt><trkpt lat="43.6647029" lon="11.2082059"><ele>179.0</ele><time>2026-04-25T15:50:06.326Z</time></trkpt><trkpt lat="43.6644971" lon="11.2080309"><ele>177.5</ele><time>2026-04-25T15:50:07.324Z</time></trkpt><trkpt lat="43.6642793" lon="11.2078513"><ele>176.0</ele><time>2026-04-25T15:50:08.32Z</time></trkpt><trkpt lat="43.6640621" lon="11.2076652"><ele>176.0</ele><time>2026-04-25T15:50:09.312Z</time></trkpt><trkpt lat="43.663837" lon="11.2074764"><ele>176.0</ele><time>2026-04-25T15:50:10.309Z</time></trkpt><trkpt lat="43.6636166" lon="11.2072846"><ele>172.5</ele><time>2026-04-25T15:50:11.303Z</time></trkpt><trkpt lat="43.663392" lon="11.2070861"><ele>169.0</ele><time>2026-04-25T15:50:12.307Z</time></trkpt><trkpt lat="43.6631678" lon="11.2068836"><ele>169.0</ele><time>2026-04-25T15:50:13.31Z</time></trkpt><trkpt lat="43.662943" lon="11.2066859"><ele>169.0</ele><time>2026-04-25T15:50:14.302Z</time></trkpt><trkpt lat="43.6627212" lon="11.2064916"><ele>181.0</ele><time>2026-04-25T15:50:15.295Z</time></trkpt><trkpt lat="43.6624976" lon="11.2063025"><ele>193.0</ele><time>2026-04-25T15:50:16.308Z</time></trkpt><trkpt lat="43.6622749" lon="11.2061103"><ele>193.0</ele><time>2026-04-25T15:50:17.299Z</time></trkpt><trkpt lat="43.6620528" lon="11.2059202"><ele>193.0</ele><time>2026-04-25T15:50:18.306Z</time></trkpt><trkpt lat="43.6618297" lon="11.2057316"><ele>199.5</ele><time>2026-04-25T15:50:19.321Z</time></trkpt><trkpt lat="43.6615987" lon="11.2055335"><ele>206.0</ele><time>2026-04-25T15:50:20.303Z</time></trkpt><trkpt lat="43.6613679" lon="11.2053378"><ele>206.0</ele><time>2026-04-25T15:50:21.308Z</time></trkpt><trkpt lat="43.6611405" lon="11.2051362"><ele>206.0</ele><time>2026-04-25T15:50:22.31Z</time></trkpt><trkpt lat="43.6609102" lon="11.2049374"><ele>215.0</ele><time>2026-04-25T15:50:23.314Z</time></trkpt><trkpt lat="43.6606794" lon="11.204747"><ele>224.0</ele><time>2026-04-25T15:50:24.312Z</time></trkpt><trkpt lat="43.6604436" lon="11.2045444"><ele>216.5</ele><time>2026-04-25T15:50:25.304Z</time></trkpt><trkpt lat="43.660211" lon="11.2043439"><ele>209.0</ele><time>2026-04-25T15:50:26.305Z</time></trkpt><trkpt lat="43.6599841" lon="11.2041423"><ele>216.5</ele><time>2026-04-25T15:50:27.305Z</time></trkpt><trkpt lat="43.6597678" lon="11.2039235"><ele>224.0</ele><time>2026-04-25T15:50:28.308Z</time></trkpt><trkpt lat="43.6595581" lon="11.2037057"><ele>216.0</ele><time>2026-04-25T15:50:29.312Z</time></trkpt><trkpt lat="43.6593587" lon="11.2034653"><ele>208.0</ele><time>2026-04-25T15:50:30.312Z</time></trkpt><trkpt lat="43.6591716" lon="11.2032112"><ele>217.0</ele><time>2026-04-25T15:50:31.292Z</time></trkpt><trkpt lat="43.6589982" lon="11.2029352"><ele>226.0</ele><time>2026-04-25T15:50:32.304Z</time></trkpt><trkpt lat="43.6588292" lon="11.2026479"><ele>226.0</ele><time>2026-04-25T15:50:33.314Z</time></trkpt><trkpt lat="43.6586673" lon="11.2023428"><ele>226.0</ele><time>2026-04-25T15:50:34.307Z</time></trkpt><trkpt lat="43.6585137" lon="11.2020213"><ele>224.0</ele><time>2026-04-25T15:50:35.314Z</time></trkpt><trkpt lat="43.6583757" lon="11.2016733"><ele>222.0</ele><time>2026-04-25T15:50:36.299Z</time></trkpt><trkpt lat="43.6582555" lon="11.2013213"><ele>222.0</ele><time>2026-04-25T15:50:37.323Z</time></trkpt><trkpt lat="43.6581459" lon="11.2009647"><ele>222.0</ele><time>2026-04-25T15:50:38.3Z</time></trkpt><trkpt lat="43.6580393" lon="11.2006081"><ele>225.5</ele><time>2026-04-25T15:50:39.301Z</time></trkpt><trkpt lat="43.6579273" lon="11.2002576"><ele>229.0</ele><time>2026-04-25T15:50:40.303Z</time></trkpt><trkpt lat="43.6578112" lon="11.1999049"><ele>224.5</ele><time>2026-04-25T15:50:41.305Z</time></trkpt><trkpt lat="43.6576906" lon="11.1995492"><ele>220.0</ele><time>2026-04-25T15:50:42.32Z</time></trkpt><trkpt lat="43.6575657" lon="11.1992006"><ele>222.5</ele><time>2026-04-25T15:50:43.313Z</time></trkpt><trkpt lat="43.6574357" lon="11.198852"><ele>225.0</ele><time>2026-04-25T15:50:44.295Z</time></trkpt><trkpt lat="43.6572966" lon="11.1985121"><ele>225.0</ele><time>2026-04-25T15:50:45.302Z</time></trkpt><trkpt lat="43.6571479" lon="11.198184"><ele>225.0</ele><time>2026-04-25T15:50:46.305Z</time></trkpt><trkpt lat="43.6569807" lon="11.1978547"><ele>227.0</ele><time>2026-04-25T15:50:47.308Z</time></trkpt><trkpt lat="43.6568085" lon="11.1975472"><ele>229.0</ele><time>2026-04-25T15:50:48.311Z</time></trkpt><trkpt lat="43.6566277" lon="11.1972466"><ele>229.0</ele><time>2026-04-25T15:50:49.302Z</time></trkpt><trkpt lat="43.6564463" lon="11.1969478"><ele>229.0</ele><time>2026-04-25T15:50:50.316Z</time></trkpt><trkpt lat="43.6562536" lon="11.1966582"><ele>237.5</ele><time>2026-04-25T15:50:51.298Z</time></trkpt><trkpt lat="43.6560575" lon="11.1963722"><ele>246.0</ele><time>2026-04-25T15:50:52.304Z</time></trkpt><trkpt lat="43.6558576" lon="11.1960851"><ele>246.0</ele><time>2026-04-25T15:50:53.31Z</time></trkpt><trkpt lat="43.6556587" lon="11.1957947"><ele>246.0</ele><time>2026-04-25T15:50:54.312Z</time></trkpt><trkpt lat="43.6554567" lon="11.1954984"><ele>263.0</ele><time>2026-04-25T15:50:55.283Z</time></trkpt><trkpt lat="43.6552564" lon="11.1952093"><ele>280.0</ele><time>2026-04-25T15:50:56.296Z</time></trkpt><trkpt lat="43.6550567" lon="11.1949244"><ele>252.0</ele><time>2026-04-25T15:50:57.299Z</time></trkpt><trkpt lat="43.6526268" lon="11.1913071"><ele>252.0</ele><time>2026-04-25T15:51:09.288Z</time></trkpt><trkpt lat="43.6524389" lon="11.1910212"><ele>252.0</ele><time>2026-04-25T15:51:10.295Z</time></trkpt><trkpt lat="43.6522222" lon="11.1907361"><ele>254.5</ele><time>2026-04-25T15:51:11.291Z</time></trkpt><trkpt lat="43.6520264" lon="11.190447"><ele>257.0</ele><time>2026-04-25T15:51:12.306Z</time></trkpt><trkpt lat="43.6518317" lon="11.1901587"><ele>253.5</ele><time>2026-04-25T15:51:13.302Z</time></trkpt><trkpt lat="43.6516574" lon="11.1898679"><ele>250.0</ele><time>2026-04-25T15:51:14.3Z</time></trkpt><trkpt lat="43.6514781" lon="11.1895569"><ele>250.0</ele><time>2026-04-25T15:51:15.293Z</time></trkpt><trkpt lat="43.6513129" lon="11.1892502"><ele>250.0</ele><time>2026-04-25T15:51:16.307Z</time></trkpt><trkpt lat="43.6511556" lon="11.188941"><ele>243.0</ele><time>2026-04-25T15:51:17.312Z</time></trkpt><trkpt lat="43.6509984" lon="11.1886332"><ele>236.0</ele><time>2026-04-25T15:51:18.324Z</time></trkpt><trkpt lat="43.6508474" lon="11.1883168"><ele>236.0</ele><time>2026-04-25T15:51:19.302Z</time></trkpt><trkpt lat="43.6507048" lon="11.1880082"><ele>236.0</ele><time>2026-04-25T15:51:20.308Z</time></trkpt><trkpt lat="43.6505605" lon="11.1876966"><ele>236.0</ele><time>2026-04-25T15:51:21.308Z</time></trkpt><trkpt lat="43.6504148" lon="11.1873889"><ele>236.0</ele><time>2026-04-25T15:51:22.317Z</time></trkpt><trkpt lat="43.6502718" lon="11.1870793"><ele>230.5</ele><time>2026-04-25T15:51:23.304Z</time></trkpt><trkpt lat="43.6501266" lon="11.1867638"><ele>225.0</ele><time>2026-04-25T15:51:24.319Z</time></trkpt><trkpt lat="43.6499764" lon="11.1864498"><ele>223.0</ele><time>2026-04-25T15:51:25.296Z</time></trkpt><trkpt lat="43.6498248" lon="11.1861331"><ele>221.0</ele><time>2026-04-25T15:51:26.297Z</time></trkpt><trkpt lat="43.6496782" lon="11.1858079"><ele>218.5</ele><time>2026-04-25T15:51:27.325Z</time></trkpt><trkpt lat="43.6495316" lon="11.1854906"><ele>216.0</ele><time>2026-04-25T15:51:28.309Z</time></trkpt><trkpt lat="43.6493792" lon="11.1851697"><ele>216.0</ele><time>2026-04-25T15:51:29.292Z</time></trkpt><trkpt lat="43.6492277" lon="11.1848393"><ele>216.0</ele><time>2026-04-25T15:51:30.314Z</time></trkpt><trkpt lat="43.6490745" lon="11.1845152"><ele>216.0</ele><time>2026-04-25T15:51:31.306Z</time></trkpt><trkpt lat="43.6489243" lon="11.1841893"><ele>216.0</ele><time>2026-04-25T15:51:32.322Z</time></trkpt><trkpt lat="43.6487746" lon="11.1838654"><ele>219.5</ele><time>2026-04-25T15:51:33.313Z</time></trkpt><trkpt lat="43.6486226" lon="11.1835472"><ele>223.0</ele><time>2026-04-25T15:51:34.303Z</time></trkpt><trkpt lat="43.6484667" lon="11.1832324"><ele>214.5</ele><time>2026-04-25T15:51:35.327Z</time></trkpt><trkpt lat="43.6483003" lon="11.1829174"><ele>206.0</ele><time>2026-04-25T15:51:36.308Z</time></trkpt><trkpt lat="43.6481313" lon="11.1826113"><ele>206.0</ele><time>2026-04-25T15:51:37.313Z</time></trkpt><trkpt lat="43.6479541" lon="11.1823176"><ele>206.0</ele><time>2026-04-25T15:51:38.302Z</time></trkpt><trkpt lat="43.6477654" lon="11.1820396"><ele>206.0</ele><time>2026-04-25T15:51:39.319Z</time></trkpt><trkpt lat="43.6475772" lon="11.1817747"><ele>206.0</ele><time>2026-04-25T15:51:40.311Z</time></trkpt><trkpt lat="43.6473778" lon="11.1815099"><ele>204.0</ele><time>2026-04-25T15:51:41.309Z</time></trkpt><trkpt lat="43.6471692" lon="11.1812522"><ele>202.0</ele><time>2026-04-25T15:51:42.298Z</time></trkpt><trkpt lat="43.6469541" lon="11.1810086"><ele>202.0</ele><time>2026-04-25T15:51:43.321Z</time></trkpt><trkpt lat="43.6467306" lon="11.1807737"><ele>202.0</ele><time>2026-04-25T15:51:44.318Z</time></trkpt><trkpt lat="43.6465031" lon="11.180543"><ele>199.0</ele><time>2026-04-25T15:51:45.329Z</time></trkpt><trkpt lat="43.6462761" lon="11.1803144"><ele>196.0</ele><time>2026-04-25T15:51:46.311Z</time></trkpt><trkpt lat="43.6460579" lon="11.1800852"><ele>196.0</ele><time>2026-04-25T15:51:47.312Z</time></trkpt><trkpt lat="43.6458351" lon="11.1798565"><ele>196.0</ele><time>2026-04-25T15:51:48.318Z</time></trkpt><trkpt lat="43.6456157" lon="11.1796256"><ele>194.5</ele><time>2026-04-25T15:51:49.31Z</time></trkpt><trkpt lat="43.6453928" lon="11.1794005"><ele>193.0</ele><time>2026-04-25T15:51:50.315Z</time></trkpt><trkpt lat="43.6451723" lon="11.1791821"><ele>185.5</ele><time>2026-04-25T15:51:51.309Z</time></trkpt><trkpt lat="43.6449449" lon="11.1789735"><ele>178.0</ele><time>2026-04-25T15:51:52.323Z</time></trkpt><trkpt lat="43.6447055" lon="11.1787788"><ele>182.0</ele><time>2026-04-25T15:51:53.323Z</time></trkpt><trkpt lat="43.6444507" lon="11.1786031"><ele>186.0</ele><time>2026-04-25T15:51:54.314Z</time></trkpt><trkpt lat="43.6441827" lon="11.1784424"><ele>186.0</ele><time>2026-04-25T15:51:55.319Z</time></trkpt><trkpt lat="43.6439066" lon="11.1783035"><ele>186.0</ele><time>2026-04-25T15:51:56.316Z</time></trkpt><trkpt lat="43.6436324" lon="11.1782139"><ele>184.0</ele><time>2026-04-25T15:51:57.321Z</time></trkpt><trkpt lat="43.6433482" lon="11.1781324"><ele>182.0</ele><time>2026-04-25T15:51:58.315Z</time></trkpt><trkpt lat="43.6430632" lon="11.1780793"><ele>184.0</ele><time>2026-04-25T15:51:59.319Z</time></trkpt><trkpt lat="43.6427796" lon="11.1780502"><ele>186.0</ele><time>2026-04-25T15:52:00.296Z</time></trkpt><trkpt lat="43.6425007" lon="11.1780451"><ele>186.0</ele><time>2026-04-25T15:52:01.317Z</time></trkpt><trkpt lat="43.6422251" lon="11.1780647"><ele>186.0</ele><time>2026-04-25T15:52:02.316Z</time></trkpt><trkpt lat="43.6419491" lon="11.1781144"><ele>186.0</ele><time>2026-04-25T15:52:03.305Z</time></trkpt><trkpt lat="43.6416709" lon="11.178184"><ele>186.0</ele><time>2026-04-25T15:52:04.313Z</time></trkpt><trkpt lat="43.6413997" lon="11.1782691"><ele>180.0</ele><time>2026-04-25T15:52:05.314Z</time></trkpt><trkpt lat="43.6411282" lon="11.1783703"><ele>174.0</ele><time>2026-04-25T15:52:06.308Z</time></trkpt><trkpt lat="43.6408624" lon="11.1784744"><ele>174.0</ele><time>2026-04-25T15:52:07.303Z</time></trkpt><trkpt lat="43.6405972" lon="11.1785802"><ele>174.0</ele><time>2026-04-25T15:52:08.291Z</time></trkpt><trkpt lat="43.6403333" lon="11.1786732"><ele>178.5</ele><time>2026-04-25T15:52:09.308Z</time></trkpt><trkpt lat="43.6400754" lon="11.1787699"><ele>183.0</ele><time>2026-04-25T15:52:10.316Z</time></trkpt><trkpt lat="43.6398107" lon="11.1788676"><ele>183.0</ele><time>2026-04-25T15:52:11.317Z</time></trkpt><trkpt lat="43.6395498" lon="11.1789701"><ele>183.0</ele><time>2026-04-25T15:52:12.311Z</time></trkpt><trkpt lat="43.6392826" lon="11.1790674"><ele>179.5</ele><time>2026-04-25T15:52:13.308Z</time></trkpt><trkpt lat="43.6390221" lon="11.1791663"><ele>176.0</ele><time>2026-04-25T15:52:14.282Z</time></trkpt><trkpt lat="43.6387645" lon="11.1792663"><ele>171.5</ele><time>2026-04-25T15:52:15.283Z</time></trkpt><trkpt lat="43.638503" lon="11.179367"><ele>167.0</ele><time>2026-04-25T15:52:16.3Z</time></trkpt><trkpt lat="43.6382393" lon="11.1794711"><ele>167.0</ele><time>2026-04-25T15:52:17.312Z</time></trkpt><trkpt lat="43.6379754" lon="11.1795644"><ele>167.0</ele><time>2026-04-25T15:52:18.319Z</time></trkpt><trkpt lat="43.6377107" lon="11.1796654"><ele>168.0</ele><time>2026-04-25T15:52:19.304Z</time></trkpt><trkpt lat="43.6374482" lon="11.1797605"><ele>169.0</ele><time>2026-04-25T15:52:20.31Z</time></trkpt><trkpt lat="43.6371916" lon="11.1798637"><ele>163.5</ele><time>2026-04-25T15:52:21.294Z</time></trkpt><trkpt lat="43.6369287" lon="11.1799764"><ele>158.0</ele><time>2026-04-25T15:52:22.294Z</time></trkpt><trkpt lat="43.6366657" lon="11.1800974"><ele>158.0</ele><time>2026-04-25T15:52:23.314Z</time></trkpt><trkpt lat="43.6364005" lon="11.1802277"><ele>158.0</ele><time>2026-04-25T15:52:24.312Z</time></trkpt><trkpt lat="43.6361419" lon="11.18036"><ele>150.0</ele><time>2026-04-25T15:52:25.322Z</time></trkpt><trkpt lat="43.6358832" lon="11.1805059"><ele>142.0</ele><time>2026-04-25T15:52:26.323Z</time></trkpt><trkpt lat="43.6356269" lon="11.1806623"><ele>141.0</ele><time>2026-04-25T15:52:27.309Z</time></trkpt><trkpt lat="43.6353698" lon="11.1808197"><ele>140.0</ele><time>2026-04-25T15:52:28.296Z</time></trkpt><trkpt lat="43.6351121" lon="11.1809853"><ele>140.0</ele><time>2026-04-25T15:52:29.284Z</time></trkpt><trkpt lat="43.6348553" lon="11.1811529"><ele>140.0</ele><time>2026-04-25T15:52:30.298Z</time></trkpt><trkpt lat="43.6345971" lon="11.1813127"><ele>138.0</ele><time>2026-04-25T15:52:31.314Z</time></trkpt><trkpt lat="43.6343404" lon="11.1814727"><ele>136.0</ele><time>2026-04-25T15:52:32.29Z</time></trkpt><trkpt lat="43.6340889" lon="11.1816406"><ele>136.0</ele><time>2026-04-25T15:52:33.311Z</time></trkpt><trkpt lat="43.6338422" lon="11.181813"><ele>136.0</ele><time>2026-04-25T15:52:34.308Z</time></trkpt><trkpt lat="43.6335916" lon="11.1819751"><ele>138.5</ele><time>2026-04-25T15:52:35.305Z</time></trkpt><trkpt lat="43.6333464" lon="11.1821336"><ele>141.0</ele><time>2026-04-25T15:52:36.302Z</time></trkpt><trkpt lat="43.6330983" lon="11.1822854"><ele>143.0</ele><time>2026-04-25T15:52:37.311Z</time></trkpt><trkpt lat="43.6328468" lon="11.1824284"><ele>145.0</ele><time>2026-04-25T15:52:38.31Z</time></trkpt><trkpt lat="43.6325896" lon="11.1825629"><ele>145.0</ele><time>2026-04-25T15:52:39.317Z</time></trkpt><trkpt lat="43.6323303" lon="11.1826804"><ele>145.0</ele><time>2026-04-25T15:52:40.314Z</time></trkpt><trkpt lat="43.6320681" lon="11.1827849"><ele>141.0</ele><time>2026-04-25T15:52:41.316Z</time></trkpt><trkpt lat="43.6318014" lon="11.1828759"><ele>137.0</ele><time>2026-04-25T15:52:42.295Z</time></trkpt><trkpt lat="43.6315277" lon="11.1829493"><ele>137.0</ele><time>2026-04-25T15:52:43.311Z</time></trkpt><trkpt lat="43.631252" lon="11.1830141"><ele>137.0</ele><time>2026-04-25T15:52:44.316Z</time></trkpt><trkpt lat="43.6309789" lon="11.183062"><ele>136.0</ele><time>2026-04-25T15:52:45.31Z</time></trkpt><trkpt lat="43.6307038" lon="11.1830993"><ele>135.0</ele><time>2026-04-25T15:52:46.32Z</time></trkpt><trkpt lat="43.6304272" lon="11.1831292"><ele>135.0</ele><time>2026-04-25T15:52:47.322Z</time></trkpt><trkpt lat="43.6301431" lon="11.1831354"><ele>135.0</ele><time>2026-04-25T15:52:48.309Z</time></trkpt><trkpt lat="43.6298656" lon="11.1831219"><ele>135.0</ele><time>2026-04-25T15:52:49.331Z</time></trkpt><trkpt lat="43.6295844" lon="11.1831046"><ele>135.0</ele><time>2026-04-25T15:52:50.3Z</time></trkpt><trkpt lat="43.6293054" lon="11.1831001"><ele>133.5</ele><time>2026-04-25T15:52:51.315Z</time></trkpt><trkpt lat="43.6290244" lon="11.183091"><ele>132.0</ele><time>2026-04-25T15:52:52.312Z</time></trkpt><trkpt lat="43.6287434" lon="11.1830824"><ele>132.5</ele><time>2026-04-25T15:52:53.322Z</time></trkpt><trkpt lat="43.628462" lon="11.1830717"><ele>133.0</ele><time>2026-04-25T15:52:54.32Z</time></trkpt><trkpt lat="43.6281845" lon="11.1830646"><ele>133.0</ele><time>2026-04-25T15:52:55.316Z</time></trkpt><trkpt lat="43.6279017" lon="11.1830569"><ele>133.0</ele><time>2026-04-25T15:52:56.313Z</time></trkpt><trkpt lat="43.6276188" lon="11.1830489"><ele>133.0</ele><time>2026-04-25T15:52:57.31Z</time></trkpt><trkpt lat="43.6273345" lon="11.183045"><ele>133.0</ele><time>2026-04-25T15:52:58.311Z</time></trkpt><trkpt lat="43.6270517" lon="11.1830523"><ele>134.0</ele><time>2026-04-25T15:52:59.302Z</time></trkpt><trkpt lat="43.6267721" lon="11.1830724"><ele>135.0</ele><time>2026-04-25T15:53:00.296Z</time></trkpt><trkpt lat="43.6264944" lon="11.1830982"><ele>135.0</ele><time>2026-04-25T15:53:01.307Z</time></trkpt><trkpt lat="43.6262198" lon="11.1831397"><ele>135.0</ele><time>2026-04-25T15:53:02.307Z</time></trkpt><trkpt lat="43.6259485" lon="11.1832031"><ele>137.5</ele><time>2026-04-25T15:53:03.307Z</time></trkpt><trkpt lat="43.625676" lon="11.1832791"><ele>140.0</ele><time>2026-04-25T15:53:04.309Z</time></trkpt><trkpt lat="43.6254007" lon="11.1833546"><ele>139.0</ele><time>2026-04-25T15:53:05.305Z</time></trkpt><trkpt lat="43.6251303" lon="11.1834457"><ele>138.0</ele><time>2026-04-25T15:53:06.307Z</time></trkpt><trkpt lat="43.6248609" lon="11.1835508"><ele>138.0</ele><time>2026-04-25T15:53:07.302Z</time></trkpt><trkpt lat="43.6245985" lon="11.1836635"><ele>138.0</ele><time>2026-04-25T15:53:08.308Z</time></trkpt><trkpt lat="43.6243315" lon="11.1837884"><ele>137.0</ele><time>2026-04-25T15:53:09.306Z</time></trkpt><trkpt lat="43.6240762" lon="11.1839286"><ele>136.0</ele><time>2026-04-25T15:53:10.298Z</time></trkpt><trkpt lat="43.6238163" lon="11.1840807"><ele>136.5</ele><time>2026-04-25T15:53:11.312Z</time></trkpt><trkpt lat="43.6235582" lon="11.1842317"><ele>137.0</ele><time>2026-04-25T15:53:12.315Z</time></trkpt><trkpt lat="43.6232944" lon="11.1843896"><ele>137.0</ele><time>2026-04-25T15:53:13.302Z</time></trkpt><trkpt lat="43.6230287" lon="11.184547"><ele>137.0</ele><time>2026-04-25T15:53:14.315Z</time></trkpt><trkpt lat="43.6227671" lon="11.1846972"><ele>136.0</ele><time>2026-04-25T15:53:15.296Z</time></trkpt><trkpt lat="43.6225062" lon="11.1848465"><ele>135.0</ele><time>2026-04-25T15:53:16.31Z</time></trkpt><trkpt lat="43.6222475" lon="11.1849976"><ele>135.0</ele><time>2026-04-25T15:53:17.312Z</time></trkpt><trkpt lat="43.6219872" lon="11.1851496"><ele>135.0</ele><time>2026-04-25T15:53:18.302Z</time></trkpt><trkpt lat="43.6217282" lon="11.1852977"><ele>135.0</ele><time>2026-04-25T15:53:19.314Z</time></trkpt><trkpt lat="43.6214715" lon="11.1854551"><ele>135.0</ele><time>2026-04-25T15:53:20.33Z</time></trkpt><trkpt lat="43.6212141" lon="11.1856117"><ele>135.5</ele><time>2026-04-25T15:53:21.309Z</time></trkpt><trkpt lat="43.6209505" lon="11.1857756"><ele>136.0</ele><time>2026-04-25T15:53:22.333Z</time></trkpt><trkpt lat="43.6206783" lon="11.1859332"><ele>136.0</ele><time>2026-04-25T15:53:23.302Z</time></trkpt><trkpt lat="43.6204104" lon="11.1860966"><ele>136.0</ele><time>2026-04-25T15:53:24.323Z</time></trkpt><trkpt lat="43.6201344" lon="11.1862618"><ele>135.5</ele><time>2026-04-25T15:53:25.288Z</time></trkpt><trkpt lat="43.6198539" lon="11.1864306"><ele>135.0</ele><time>2026-04-25T15:53:26.3Z</time></trkpt><trkpt lat="43.619572" lon="11.1865913"><ele>136.0</ele><time>2026-04-25T15:53:27.314Z</time></trkpt><trkpt lat="43.6192978" lon="11.186749"><ele>137.0</ele><time>2026-04-25T15:53:28.31Z</time></trkpt><trkpt lat="43.6190252" lon="11.1868969"><ele>137.0</ele><time>2026-04-25T15:53:29.306Z</time></trkpt><trkpt lat="43.6187543" lon="11.1870433"><ele>137.0</ele><time>2026-04-25T15:53:30.3Z</time></trkpt><trkpt lat="43.6184894" lon="11.1871983"><ele>138.5</ele><time>2026-04-25T15:53:31.315Z</time></trkpt><trkpt lat="43.6182234" lon="11.1873489"><ele>140.0</ele><time>2026-04-25T15:53:32.309Z</time></trkpt><trkpt lat="43.6179601" lon="11.1875019"><ele>140.5</ele><time>2026-04-25T15:53:33.3Z</time></trkpt><trkpt lat="43.6176977" lon="11.1876501"><ele>141.0</ele><time>2026-04-25T15:53:34.31Z</time></trkpt><trkpt lat="43.6174395" lon="11.1878032"><ele>141.0</ele><time>2026-04-25T15:53:35.314Z</time></trkpt><trkpt lat="43.6171718" lon="11.1879521"><ele>141.0</ele><time>2026-04-25T15:53:36.322Z</time></trkpt><trkpt lat="43.6169068" lon="11.1881018"><ele>142.5</ele><time>2026-04-25T15:53:37.303Z</time></trkpt><trkpt lat="43.6166426" lon="11.1882535"><ele>144.0</ele><time>2026-04-25T15:53:38.299Z</time></trkpt><trkpt lat="43.616376" lon="11.1884088"><ele>143.0</ele><time>2026-04-25T15:53:39.298Z</time></trkpt><trkpt lat="43.6161101" lon="11.1885658"><ele>142.0</ele><time>2026-04-25T15:53:40.293Z</time></trkpt><trkpt lat="43.61584" lon="11.1887203"><ele>142.0</ele><time>2026-04-25T15:53:41.291Z</time></trkpt><trkpt lat="43.6155723" lon="11.1888779"><ele>142.0</ele><time>2026-04-25T15:53:42.283Z</time></trkpt><trkpt lat="43.6153041" lon="11.1890339"><ele>141.5</ele><time>2026-04-25T15:53:43.283Z</time></trkpt><trkpt lat="43.6150349" lon="11.1891888"><ele>141.0</ele><time>2026-04-25T15:53:44.306Z</time></trkpt><trkpt lat="43.6147666" lon="11.1893534"><ele>141.0</ele><time>2026-04-25T15:53:45.308Z</time></trkpt><trkpt lat="43.6144993" lon="11.1895157"><ele>141.0</ele><time>2026-04-25T15:53:46.295Z</time></trkpt><trkpt lat="43.6142283" lon="11.1896832"><ele>142.5</ele><time>2026-04-25T15:53:47.305Z</time></trkpt><trkpt lat="43.6139555" lon="11.1898428"><ele>144.0</ele><time>2026-04-25T15:53:48.32Z</time></trkpt><trkpt lat="43.6136797" lon="11.1899986"><ele>144.0</ele><time>2026-04-25T15:53:49.308Z</time></trkpt><trkpt lat="43.613401" lon="11.1901435"><ele>144.0</ele><time>2026-04-25T15:53:50.306Z</time></trkpt><trkpt lat="43.6131189" lon="11.1902598"><ele>144.0</ele><time>2026-04-25T15:53:51.321Z</time></trkpt><trkpt lat="43.6128297" lon="11.1903626"><ele>144.0</ele><time>2026-04-25T15:53:52.319Z</time></trkpt><trkpt lat="43.6125442" lon="11.1904603"><ele>143.5</ele><time>2026-04-25T15:53:53.3Z</time></trkpt><trkpt lat="43.6122498" lon="11.1905461"><ele>143.0</ele><time>2026-04-25T15:53:54.306Z</time></trkpt><trkpt lat="43.6119583" lon="11.1906192"><ele>143.0</ele><time>2026-04-25T15:53:55.302Z</time></trkpt><trkpt lat="43.6116639" lon="11.1906741"><ele>143.0</ele><time>2026-04-25T15:53:56.301Z</time></trkpt><trkpt lat="43.611374" lon="11.1907161"><ele>143.0</ele><time>2026-04-25T15:53:57.317Z</time></trkpt><trkpt lat="43.6110792" lon="11.190751"><ele>143.0</ele><time>2026-04-25T15:53:58.304Z</time></trkpt><trkpt lat="43.6107894" lon="11.1907938"><ele>143.0</ele><time>2026-04-25T15:53:59.308Z</time></trkpt><trkpt lat="43.6104992" lon="11.1908322"><ele>143.0</ele><time>2026-04-25T15:54:00.315Z</time></trkpt><trkpt lat="43.6102048" lon="11.1908645"><ele>143.5</ele><time>2026-04-25T15:54:01.312Z</time></trkpt><trkpt lat="43.6099116" lon="11.1909055"><ele>144.0</ele><time>2026-04-25T15:54:02.301Z</time></trkpt><trkpt lat="43.6096179" lon="11.1909425"><ele>145.5</ele><time>2026-04-25T15:54:03.316Z</time></trkpt><trkpt lat="43.6093209" lon="11.1909766"><ele>147.0</ele><time>2026-04-25T15:54:04.284Z</time></trkpt><trkpt lat="43.6090195" lon="11.1910035"><ele>147.0</ele><time>2026-04-25T15:54:05.306Z</time></trkpt><trkpt lat="43.6087202" lon="11.1910298"><ele>147.0</ele><time>2026-04-25T15:54:06.301Z</time></trkpt><trkpt lat="43.6084157" lon="11.1910639"><ele>147.0</ele><time>2026-04-25T15:54:07.291Z</time></trkpt><trkpt lat="43.6081115" lon="11.1910962"><ele>147.0</ele><time>2026-04-25T15:54:08.308Z</time></trkpt><trkpt lat="43.6078039" lon="11.1911222"><ele>146.0</ele><time>2026-04-25T15:54:09.315Z</time></trkpt><trkpt lat="43.607501" lon="11.1911464"><ele>145.0</ele><time>2026-04-25T15:54:10.304Z</time></trkpt><trkpt lat="43.6071979" lon="11.1911769"><ele>145.5</ele><time>2026-04-25T15:54:11.324Z</time></trkpt><trkpt lat="43.6069018" lon="11.1912032"><ele>146.0</ele><time>2026-04-25T15:54:12.312Z</time></trkpt><trkpt lat="43.606602" lon="11.1912358"><ele>146.0</ele><time>2026-04-25T15:54:13.309Z</time></trkpt><trkpt lat="43.6063046" lon="11.1912757"><ele>146.0</ele><time>2026-04-25T15:54:14.308Z</time></trkpt><trkpt lat="43.6060074" lon="11.1913119"><ele>146.5</ele><time>2026-04-25T15:54:15.304Z</time></trkpt><trkpt lat="43.6057092" lon="11.1913447"><ele>147.0</ele><time>2026-04-25T15:54:16.292Z</time></trkpt><trkpt lat="43.605412" lon="11.1913914"><ele>149.5</ele><time>2026-04-25T15:54:17.302Z</time></trkpt><trkpt lat="43.605115" lon="11.1914371"><ele>152.0</ele><time>2026-04-25T15:54:18.319Z</time></trkpt><trkpt lat="43.6048234" lon="11.1914889"><ele>151.5</ele><time>2026-04-25T15:54:19.312Z</time></trkpt><trkpt lat="43.6045277" lon="11.1915523"><ele>151.0</ele><time>2026-04-25T15:54:20.285Z</time></trkpt><trkpt lat="43.6042407" lon="11.1916269"><ele>151.0</ele><time>2026-04-25T15:54:21.298Z</time></trkpt><trkpt lat="43.6039582" lon="11.1917221"><ele>151.0</ele><time>2026-04-25T15:54:22.311Z</time></trkpt><trkpt lat="43.6036689" lon="11.1918309"><ele>151.0</ele><time>2026-04-25T15:54:23.338Z</time></trkpt><trkpt lat="43.6033946" lon="11.1919486"><ele>151.0</ele><time>2026-04-25T15:54:24.286Z</time></trkpt><trkpt lat="43.6031088" lon="11.1920774"><ele>150.5</ele><time>2026-04-25T15:54:25.307Z</time></trkpt><trkpt lat="43.6028269" lon="11.1922032"><ele>150.0</ele><time>2026-04-25T15:54:26.295Z</time></trkpt><trkpt lat="43.6025444" lon="11.192324"><ele>149.5</ele><time>2026-04-25T15:54:27.3Z</time></trkpt><trkpt lat="43.6022612" lon="11.1924436"><ele>149.0</ele><time>2026-04-25T15:54:28.312Z</time></trkpt><trkpt lat="43.6019769" lon="11.1925574"><ele>150.0</ele><time>2026-04-25T15:54:29.309Z</time></trkpt><trkpt lat="43.6016915" lon="11.1926739"><ele>151.0</ele><time>2026-04-25T15:54:30.313Z</time></trkpt><trkpt lat="43.601406" lon="11.1927876"><ele>151.5</ele><time>2026-04-25T15:54:31.316Z</time></trkpt><trkpt lat="43.6011208" lon="11.1929001"><ele>152.0</ele><time>2026-04-25T15:54:32.306Z</time></trkpt><trkpt lat="43.6008312" lon="11.1930146"><ele>152.0</ele><time>2026-04-25T15:54:33.303Z</time></trkpt><trkpt lat="43.6005365" lon="11.1931235"><ele>152.0</ele><time>2026-04-25T15:54:34.303Z</time></trkpt><trkpt lat="43.6002451" lon="11.1932328"><ele>152.0</ele><time>2026-04-25T15:54:35.284Z</time></trkpt><trkpt lat="43.5999608" lon="11.1933406"><ele>152.0</ele><time>2026-04-25T15:54:36.297Z</time></trkpt><trkpt lat="43.5996776" lon="11.1934507"><ele>151.5</ele><time>2026-04-25T15:54:37.305Z</time></trkpt><trkpt lat="43.5993941" lon="11.1935648"><ele>151.0</ele><time>2026-04-25T15:54:38.292Z</time></trkpt><trkpt lat="43.5991162" lon="11.1936915"><ele>151.0</ele><time>2026-04-25T15:54:39.299Z</time></trkpt><trkpt lat="43.5988382" lon="11.193818"><ele>151.0</ele><time>2026-04-25T15:54:40.3Z</time></trkpt><trkpt lat="43.5985623" lon="11.1939596"><ele>152.0</ele><time>2026-04-25T15:54:41.29Z</time></trkpt><trkpt lat="43.5982881" lon="11.1941126"><ele>153.0</ele><time>2026-04-25T15:54:42.31Z</time></trkpt><trkpt lat="43.598017" lon="11.194277"><ele>155.5</ele><time>2026-04-25T15:54:43.311Z</time></trkpt><trkpt lat="43.5977512" lon="11.1944497"><ele>158.0</ele><time>2026-04-25T15:54:44.306Z</time></trkpt><trkpt lat="43.5974887" lon="11.1946375"><ele>156.5</ele><time>2026-04-25T15:54:45.334Z</time></trkpt><trkpt lat="43.5972327" lon="11.1948408"><ele>155.0</ele><time>2026-04-25T15:54:46.316Z</time></trkpt><trkpt lat="43.5969849" lon="11.1950515"><ele>159.0</ele><time>2026-04-25T15:54:47.326Z</time></trkpt><trkpt lat="43.5967379" lon="11.1952725"><ele>163.0</ele><time>2026-04-25T15:54:48.308Z</time></trkpt><trkpt lat="43.5964958" lon="11.1955034"><ele>162.0</ele><time>2026-04-25T15:54:49.306Z</time></trkpt><trkpt lat="43.5962481" lon="11.1957432"><ele>161.0</ele><time>2026-04-25T15:54:50.307Z</time></trkpt><trkpt lat="43.5959968" lon="11.1959799"><ele>161.0</ele><time>2026-04-25T15:54:51.309Z</time></trkpt><trkpt lat="43.5957421" lon="11.1962129"><ele>161.0</ele><time>2026-04-25T15:54:52.308Z</time></trkpt><trkpt lat="43.5954876" lon="11.1964406"><ele>160.5</ele><time>2026-04-25T15:54:53.329Z</time></trkpt><trkpt lat="43.5952362" lon="11.1966685"><ele>160.0</ele><time>2026-04-25T15:54:54.312Z</time></trkpt><trkpt lat="43.5949815" lon="11.1968942"><ele>160.0</ele><time>2026-04-25T15:54:55.3Z</time></trkpt><trkpt lat="43.5947303" lon="11.1971273"><ele>160.0</ele><time>2026-04-25T15:54:56.317Z</time></trkpt><trkpt lat="43.5944856" lon="11.197368"><ele>161.0</ele><time>2026-04-25T15:54:57.303Z</time></trkpt><trkpt lat="43.5942453" lon="11.1975987"><ele>162.0</ele><time>2026-04-25T15:54:58.301Z</time></trkpt><trkpt lat="43.5940064" lon="11.1978169"><ele>162.0</ele><time>2026-04-25T15:54:59.289Z</time></trkpt><trkpt lat="43.5937645" lon="11.1980255"><ele>162.0</ele><time>2026-04-25T15:55:00.302Z</time></trkpt><trkpt lat="43.5935333" lon="11.1982169"><ele>162.5</ele><time>2026-04-25T15:55:01.314Z</time></trkpt><trkpt lat="43.5933071" lon="11.1983788"><ele>163.0</ele><time>2026-04-25T15:55:02.291Z</time></trkpt><trkpt lat="43.5930888" lon="11.198522"><ele>163.0</ele><time>2026-04-25T15:55:03.303Z</time></trkpt><trkpt lat="43.592875" lon="11.1986579"><ele>163.0</ele><time>2026-04-25T15:55:04.297Z</time></trkpt><trkpt lat="43.5926598" lon="11.1987947"><ele>162.33333333333334</ele><time>2026-04-25T15:55:05.317Z</time></trkpt><trkpt lat="43.5924493" lon="11.1989271"><ele>161.66666666666666</ele><time>2026-04-25T15:55:06.316Z</time></trkpt><trkpt lat="43.5922469" lon="11.1990385"><ele>161.0</ele><time>2026-04-25T15:55:07.306Z</time></trkpt><trkpt lat="43.5920481" lon="11.1991427"><ele>161.0</ele><time>2026-04-25T15:55:08.303Z</time></trkpt><trkpt lat="43.5918598" lon="11.1992486"><ele>161.0</ele><time>2026-04-25T15:55:09.303Z</time></trkpt><trkpt lat="43.5916719" lon="11.1993474"><ele>161.0</ele><time>2026-04-25T15:55:10.303Z</time></trkpt><trkpt lat="43.5914754" lon="11.199451"><ele>161.0</ele><time>2026-04-25T15:55:11.311Z</time></trkpt><trkpt lat="43.5912661" lon="11.1995561"><ele>161.0</ele><time>2026-04-25T15:55:12.314Z</time></trkpt><trkpt lat="43.5910553" lon="11.1996506"><ele>161.0</ele><time>2026-04-25T15:55:13.299Z</time></trkpt><trkpt lat="43.5908388" lon="11.1997659"><ele>160.5</ele><time>2026-04-25T15:55:14.311Z</time></trkpt><trkpt lat="43.5906203" lon="11.1998735"><ele>160.0</ele><time>2026-04-25T15:55:15.332Z</time></trkpt><trkpt lat="43.5904008" lon="11.1999772"><ele>160.5</ele><time>2026-04-25T15:55:16.32Z</time></trkpt><trkpt lat="43.590168" lon="11.2000849"><ele>161.0</ele><time>2026-04-25T15:55:17.311Z</time></trkpt><trkpt lat="43.5899223" lon="11.2002179"><ele>161.0</ele><time>2026-04-25T15:55:18.298Z</time></trkpt><trkpt lat="43.5896563" lon="11.2003501"><ele>161.0</ele><time>2026-04-25T15:55:19.302Z</time></trkpt><trkpt lat="43.5893801" lon="11.200497"><ele>161.5</ele><time>2026-04-25T15:55:20.311Z</time></trkpt><trkpt lat="43.589104" lon="11.2006429"><ele>162.0</ele><time>2026-04-25T15:55:21.305Z</time></trkpt><trkpt lat="43.5888284" lon="11.2007887"><ele>163.5</ele><time>2026-04-25T15:55:22.318Z</time></trkpt><trkpt lat="43.5885545" lon="11.2009286"><ele>165.0</ele><time>2026-04-25T15:55:23.309Z</time></trkpt><trkpt lat="43.5882832" lon="11.2010598"><ele>165.0</ele><time>2026-04-25T15:55:24.31Z</time></trkpt><trkpt lat="43.588014" lon="11.2011809"><ele>165.0</ele><time>2026-04-25T15:55:25.308Z</time></trkpt><trkpt lat="43.5877346" lon="11.2012887"><ele>167.0</ele><time>2026-04-25T15:55:26.307Z</time></trkpt><trkpt lat="43.5874555" lon="11.2013881"><ele>169.0</ele><time>2026-04-25T15:55:27.304Z</time></trkpt><trkpt lat="43.5871651" lon="11.2014863"><ele>169.5</ele><time>2026-04-25T15:55:28.309Z</time></trkpt><trkpt lat="43.5868667" lon="11.2015729"><ele>170.0</ele><time>2026-04-25T15:55:29.303Z</time></trkpt><trkpt lat="43.5865596" lon="11.2016666"><ele>170.0</ele><time>2026-04-25T15:55:30.319Z</time></trkpt><trkpt lat="43.586242" lon="11.2017656"><ele>170.0</ele><time>2026-04-25T15:55:31.287Z</time></trkpt><trkpt lat="43.5859122" lon="11.2018664"><ele>172.5</ele><time>2026-04-25T15:55:32.305Z</time></trkpt><trkpt lat="43.5855755" lon="11.2019651"><ele>175.0</ele><time>2026-04-25T15:55:33.312Z</time></trkpt><trkpt lat="43.5852365" lon="11.2020671"><ele>175.0</ele><time>2026-04-25T15:55:34.309Z</time></trkpt><trkpt lat="43.5848874" lon="11.2021718"><ele>175.0</ele><time>2026-04-25T15:55:35.324Z</time></trkpt><trkpt lat="43.5845342" lon="11.2022783"><ele>174.5</ele><time>2026-04-25T15:55:36.311Z</time></trkpt><trkpt lat="43.5841736" lon="11.2023829"><ele>174.0</ele><time>2026-04-25T15:55:37.307Z</time></trkpt><trkpt lat="43.5838129" lon="11.2024828"><ele>175.0</ele><time>2026-04-25T15:55:38.319Z</time></trkpt><trkpt lat="43.5834416" lon="11.2025967"><ele>176.0</ele><time>2026-04-25T15:55:39.308Z</time></trkpt><trkpt lat="43.583068" lon="11.2026989"><ele>179.0</ele><time>2026-04-25T15:55:40.315Z</time></trkpt><trkpt lat="43.5826895" lon="11.2028112"><ele>182.0</ele><time>2026-04-25T15:55:41.305Z</time></trkpt><trkpt lat="43.5823073" lon="11.2029235"><ele>183.0</ele><time>2026-04-25T15:55:42.31Z</time></trkpt><trkpt lat="43.5819219" lon="11.2030368"><ele>184.0</ele><time>2026-04-25T15:55:43.315Z</time></trkpt><trkpt lat="43.5815351" lon="11.2031491"><ele>184.5</ele><time>2026-04-25T15:55:44.298Z</time></trkpt><trkpt lat="43.5811655" lon="11.2032632"><ele>185.0</ele><time>2026-04-25T15:55:45.314Z</time></trkpt><trkpt lat="43.5808291" lon="11.2033617"><ele>185.0</ele><time>2026-04-25T15:55:46.309Z</time></trkpt><trkpt lat="43.5805022" lon="11.2034626"><ele>185.0</ele><time>2026-04-25T15:55:47.313Z</time></trkpt><trkpt lat="43.5801776" lon="11.2035659"><ele>189.5</ele><time>2026-04-25T15:55:48.306Z</time></trkpt><trkpt lat="43.5798614" lon="11.2036679"><ele>194.0</ele><time>2026-04-25T15:55:49.31Z</time></trkpt><trkpt lat="43.5795526" lon="11.203764"><ele>199.5</ele><time>2026-04-25T15:55:50.293Z</time></trkpt><trkpt lat="43.5792468" lon="11.2038637"><ele>205.0</ele><time>2026-04-25T15:55:51.31Z</time></trkpt><trkpt lat="43.5789465" lon="11.2039654"><ele>200.5</ele><time>2026-04-25T15:55:52.314Z</time></trkpt><trkpt lat="43.57865" lon="11.2040535"><ele>196.0</ele><time>2026-04-25T15:55:53.308Z</time></trkpt><trkpt lat="43.5783575" lon="11.2041408"><ele>196.0</ele><time>2026-04-25T15:55:54.286Z</time></trkpt><trkpt lat="43.5780632" lon="11.204238"><ele>196.0</ele><time>2026-04-25T15:55:55.307Z</time></trkpt><trkpt lat="43.5777759" lon="11.2043378"><ele>199.0</ele><time>2026-04-25T15:55:56.313Z</time></trkpt><trkpt lat="43.5774971" lon="11.2044408"><ele>202.0</ele><time>2026-04-25T15:55:57.313Z</time></trkpt><trkpt lat="43.5772169" lon="11.2045475"><ele>205.0</ele><time>2026-04-25T15:55:58.308Z</time></trkpt><trkpt lat="43.5769419" lon="11.204658"><ele>208.0</ele><time>2026-04-25T15:55:59.308Z</time></trkpt><trkpt lat="43.5766665" lon="11.2047802"><ele>208.5</ele><time>2026-04-25T15:56:00.318Z</time></trkpt><trkpt lat="43.5763912" lon="11.2048988"><ele>209.0</ele><time>2026-04-25T15:56:01.309Z</time></trkpt><trkpt lat="43.5761241" lon="11.2050308"><ele>209.0</ele><time>2026-04-25T15:56:02.302Z</time></trkpt><trkpt lat="43.5758545" lon="11.2051614"><ele>209.0</ele><time>2026-04-25T15:56:03.304Z</time></trkpt><trkpt lat="43.5755831" lon="11.2052996"><ele>213.5</ele><time>2026-04-25T15:56:04.292Z</time></trkpt><trkpt lat="43.5753174" lon="11.2054456"><ele>218.0</ele><time>2026-04-25T15:56:05.306Z</time></trkpt><trkpt lat="43.5750599" lon="11.2055927"><ele>214.0</ele><time>2026-04-25T15:56:06.31Z</time></trkpt><trkpt lat="43.5747973" lon="11.2057415"><ele>210.0</ele><time>2026-04-25T15:56:07.308Z</time></trkpt><trkpt lat="43.5745385" lon="11.2058834"><ele>220.0</ele><time>2026-04-25T15:56:08.294Z</time></trkpt><trkpt lat="43.5742804" lon="11.2060308"><ele>230.0</ele><time>2026-04-25T15:56:09.302Z</time></trkpt><trkpt lat="43.5740212" lon="11.206166"><ele>230.0</ele><time>2026-04-25T15:56:10.293Z</time></trkpt><trkpt lat="43.5737628" lon="11.2063108"><ele>230.0</ele><time>2026-04-25T15:56:11.308Z</time></trkpt><trkpt lat="43.5735054" lon="11.2064484"><ele>224.5</ele><time>2026-04-25T15:56:12.298Z</time></trkpt><trkpt lat="43.5732519" lon="11.2065996"><ele>219.0</ele><time>2026-04-25T15:56:13.303Z</time></trkpt><trkpt lat="43.5730005" lon="11.2067433"><ele>217.0</ele><time>2026-04-25T15:56:14.281Z</time></trkpt><trkpt lat="43.572744" lon="11.2068826"><ele>215.0</ele><time>2026-04-25T15:56:15.283Z</time></trkpt><trkpt lat="43.5724922" lon="11.207028"><ele>215.0</ele><time>2026-04-25T15:56:16.314Z</time></trkpt><trkpt lat="43.5722459" lon="11.2071599"><ele>215.0</ele><time>2026-04-25T15:56:17.305Z</time></trkpt><trkpt lat="43.5719974" lon="11.2072967"><ele>217.0</ele><time>2026-04-25T15:56:18.306Z</time></trkpt><trkpt lat="43.5717559" lon="11.2074315"><ele>219.0</ele><time>2026-04-25T15:56:19.313Z</time></trkpt><trkpt lat="43.5715223" lon="11.2075716"><ele>219.0</ele><time>2026-04-25T15:56:20.317Z</time></trkpt><trkpt lat="43.5712922" lon="11.2077095"><ele>219.0</ele><time>2026-04-25T15:56:21.31Z</time></trkpt><trkpt lat="43.5710664" lon="11.2078615"><ele>223.5</ele><time>2026-04-25T15:56:22.309Z</time></trkpt><trkpt lat="43.5708548" lon="11.2080143"><ele>228.0</ele><time>2026-04-25T15:56:23.327Z</time></trkpt><trkpt lat="43.5706493" lon="11.2081914"><ele>228.0</ele><time>2026-04-25T15:56:24.309Z</time></trkpt><trkpt lat="43.5704437" lon="11.2083894"><ele>228.0</ele><time>2026-04-25T15:56:25.306Z</time></trkpt><trkpt lat="43.5702511" lon="11.2085915"><ele>229.5</ele><time>2026-04-25T15:56:26.318Z</time></trkpt><trkpt lat="43.5700562" lon="11.2088107"><ele>231.0</ele><time>2026-04-25T15:56:27.311Z</time></trkpt><trkpt lat="43.5698622" lon="11.2090246"><ele>231.0</ele><time>2026-04-25T15:56:28.308Z</time></trkpt><trkpt lat="43.5696684" lon="11.2092379"><ele>231.0</ele><time>2026-04-25T15:56:29.313Z</time></trkpt><trkpt lat="43.5694791" lon="11.2094499"><ele>234.0</ele><time>2026-04-25T15:56:30.314Z</time></trkpt><trkpt lat="43.5692927" lon="11.2096548"><ele>237.0</ele><time>2026-04-25T15:56:31.318Z</time></trkpt><trkpt lat="43.5691075" lon="11.2098554"><ele>237.0</ele><time>2026-04-25T15:56:32.309Z</time></trkpt><trkpt lat="43.5689249" lon="11.2100539"><ele>237.0</ele><time>2026-04-25T15:56:33.306Z</time></trkpt><trkpt lat="43.5687508" lon="11.2102456"><ele>237.66666666666669</ele><time>2026-04-25T15:56:34.309Z</time></trkpt><trkpt lat="43.5685786" lon="11.210443"><ele>238.33333333333334</ele><time>2026-04-25T15:56:35.312Z</time></trkpt><trkpt lat="43.568403" lon="11.2106367"><ele>239.0</ele><time>2026-04-25T15:56:36.308Z</time></trkpt><trkpt lat="43.5682335" lon="11.2108348"><ele>239.0</ele><time>2026-04-25T15:56:37.311Z</time></trkpt><trkpt lat="43.5680592" lon="11.2110318"><ele>239.0</ele><time>2026-04-25T15:56:38.309Z</time></trkpt><trkpt lat="43.567882" lon="11.2112249"><ele>238.66666666666669</ele><time>2026-04-25T15:56:39.305Z</time></trkpt><trkpt lat="43.5677122" lon="11.2114054"><ele>238.33333333333331</ele><time>2026-04-25T15:56:40.309Z</time></trkpt><trkpt lat="43.5675462" lon="11.2115878"><ele>238.0</ele><time>2026-04-25T15:56:41.312Z</time></trkpt><trkpt lat="43.5673757" lon="11.2117683"><ele>238.66666666666666</ele><time>2026-04-25T15:56:42.312Z</time></trkpt><trkpt lat="43.5672033" lon="11.2119447"><ele>239.33333333333331</ele><time>2026-04-25T15:56:43.306Z</time></trkpt><trkpt lat="43.5670312" lon="11.212131"><ele>240.0</ele><time>2026-04-25T15:56:44.301Z</time></trkpt><trkpt lat="43.5668508" lon="11.2123113"><ele>251.0</ele><time>2026-04-25T15:56:45.321Z</time></trkpt><trkpt lat="43.5666589" lon="11.2124873"><ele>262.0</ele><time>2026-04-25T15:56:46.302Z</time></trkpt><trkpt lat="43.5664498" lon="11.2126686"><ele>262.0</ele><time>2026-04-25T15:56:47.305Z</time></trkpt><trkpt lat="43.5662261" lon="11.2128389"><ele>262.0</ele><time>2026-04-25T15:56:48.318Z</time></trkpt><trkpt lat="43.5659911" lon="11.2129993"><ele>262.5</ele><time>2026-04-25T15:56:49.312Z</time></trkpt><trkpt lat="43.5657292" lon="11.2131405"><ele>263.0</ele><time>2026-04-25T15:56:50.283Z</time></trkpt><trkpt lat="43.5654461" lon="11.2132397"><ele>266.0</ele><time>2026-04-25T15:56:51.298Z</time></trkpt><trkpt lat="43.5651356" lon="11.2133096"><ele>269.0</ele><time>2026-04-25T15:56:52.308Z</time></trkpt><trkpt lat="43.5648294" lon="11.2133609"><ele>267.5</ele><time>2026-04-25T15:56:53.308Z</time></trkpt><trkpt lat="43.5645109" lon="11.2133772"><ele>266.0</ele><time>2026-04-25T15:56:54.316Z</time></trkpt><trkpt lat="43.5641897" lon="11.2133695"><ele>266.0</ele><time>2026-04-25T15:56:55.301Z</time></trkpt><trkpt lat="43.563857" lon="11.2133277"><ele>266.0</ele><time>2026-04-25T15:56:56.291Z</time></trkpt><trkpt lat="43.5635123" lon="11.2132642"><ele>263.0</ele><time>2026-04-25T15:56:57.324Z</time></trkpt><trkpt lat="43.5631669" lon="11.2131931"><ele>260.0</ele><time>2026-04-25T15:56:58.31Z</time></trkpt><trkpt lat="43.5628147" lon="11.2131343"><ele>268.0</ele><time>2026-04-25T15:56:59.303Z</time></trkpt><trkpt lat="43.5624614" lon="11.2130862"><ele>276.0</ele><time>2026-04-25T15:57:00.302Z</time></trkpt><trkpt lat="43.5621021" lon="11.2130377"><ele>276.0</ele><time>2026-04-25T15:57:01.296Z</time></trkpt><trkpt lat="43.5617383" lon="11.2129929"><ele>276.0</ele><time>2026-04-25T15:57:02.314Z</time></trkpt><trkpt lat="43.5613803" lon="11.2129324"><ele>277.0</ele><time>2026-04-25T15:57:03.293Z</time></trkpt><trkpt lat="43.5610403" lon="11.2128859"><ele>278.0</ele><time>2026-04-25T15:57:04.309Z</time></trkpt><trkpt lat="43.5607137" lon="11.212843"><ele>278.0</ele><time>2026-04-25T15:57:05.306Z</time></trkpt><trkpt lat="43.5604043" lon="11.2127991"><ele>278.0</ele><time>2026-04-25T15:57:06.289Z</time></trkpt><trkpt lat="43.5601071" lon="11.2127524"><ele>282.0</ele><time>2026-04-25T15:57:07.301Z</time></trkpt><trkpt lat="43.5598068" lon="11.2127102"><ele>286.0</ele><time>2026-04-25T15:57:08.319Z</time></trkpt><trkpt lat="43.5595125" lon="11.2126797"><ele>287.0</ele><time>2026-04-25T15:57:09.307Z</time></trkpt><trkpt lat="43.5592177" lon="11.2126351"><ele>288.0</ele><time>2026-04-25T15:57:10.31Z</time></trkpt><trkpt lat="43.5589253" lon="11.2125768"><ele>288.0</ele><time>2026-04-25T15:57:11.319Z</time></trkpt><trkpt lat="43.5586333" lon="11.2125081"><ele>288.0</ele><time>2026-04-25T15:57:12.317Z</time></trkpt><trkpt lat="43.558346" lon="11.2124101"><ele>287.5</ele><time>2026-04-25T15:57:13.313Z</time></trkpt><trkpt lat="43.5580669" lon="11.2122898"><ele>287.0</ele><time>2026-04-25T15:57:14.302Z</time></trkpt><trkpt lat="43.5577931" lon="11.2121344"><ele>287.0</ele><time>2026-04-25T15:57:15.314Z</time></trkpt><trkpt lat="43.5575185" lon="11.2119439"><ele>287.0</ele><time>2026-04-25T15:57:16.299Z</time></trkpt><trkpt lat="43.5572581" lon="11.2117384"><ele>287.5</ele><time>2026-04-25T15:57:17.306Z</time></trkpt><trkpt lat="43.5570044" lon="11.2115175"><ele>288.0</ele><time>2026-04-25T15:57:18.302Z</time></trkpt><trkpt lat="43.5567564" lon="11.2112964"><ele>293.0</ele><time>2026-04-25T15:57:19.316Z</time></trkpt><trkpt lat="43.5565129" lon="11.2110875"><ele>298.0</ele><time>2026-04-25T15:57:20.319Z</time></trkpt><trkpt lat="43.5562593" lon="11.210889"><ele>300.5</ele><time>2026-04-25T15:57:21.306Z</time></trkpt><trkpt lat="43.5559974" lon="11.2107061"><ele>303.0</ele><time>2026-04-25T15:57:22.304Z</time></trkpt><trkpt lat="43.5557314" lon="11.2105477"><ele>307.5</ele><time>2026-04-25T15:57:23.313Z</time></trkpt><trkpt lat="43.5554562" lon="11.2104249"><ele>312.0</ele><time>2026-04-25T15:57:24.32Z</time></trkpt><trkpt lat="43.5551733" lon="11.2103362"><ele>312.0</ele><time>2026-04-25T15:57:25.309Z</time></trkpt><trkpt lat="43.5548855" lon="11.2102673"><ele>312.0</ele><time>2026-04-25T15:57:26.31Z</time></trkpt><trkpt lat="43.5545936" lon="11.2102205"><ele>315.0</ele><time>2026-04-25T15:57:27.298Z</time></trkpt><trkpt lat="43.5542995" lon="11.2101861"><ele>318.0</ele><time>2026-04-25T15:57:28.323Z</time></trkpt><trkpt lat="43.5540078" lon="11.2101825"><ele>318.0</ele><time>2026-04-25T15:57:29.297Z</time></trkpt><trkpt lat="43.5537155" lon="11.2101803"><ele>318.0</ele><time>2026-04-25T15:57:30.302Z</time></trkpt><trkpt lat="43.5534164" lon="11.2101899"><ele>316.5</ele><time>2026-04-25T15:57:31.312Z</time></trkpt><trkpt lat="43.5531235" lon="11.2102031"><ele>315.0</ele><time>2026-04-25T15:57:32.314Z</time></trkpt><trkpt lat="43.5528314" lon="11.2102145"><ele>314.5</ele><time>2026-04-25T15:57:33.322Z</time></trkpt><trkpt lat="43.5525386" lon="11.2102238"><ele>314.0</ele><time>2026-04-25T15:57:34.302Z</time></trkpt><trkpt lat="43.552242" lon="11.2102295"><ele>310.0</ele><time>2026-04-25T15:57:35.319Z</time></trkpt><trkpt lat="43.5519529" lon="11.2102316"><ele>306.0</ele><time>2026-04-25T15:57:36.319Z</time></trkpt><trkpt lat="43.5516617" lon="11.2102303"><ele>306.0</ele><time>2026-04-25T15:57:37.32Z</time></trkpt><trkpt lat="43.5513761" lon="11.2102319"><ele>306.0</ele><time>2026-04-25T15:57:38.307Z</time></trkpt><trkpt lat="43.5510879" lon="11.2102383"><ele>303.0</ele><time>2026-04-25T15:57:39.319Z</time></trkpt><trkpt lat="43.5507967" lon="11.2102373"><ele>300.0</ele><time>2026-04-25T15:57:40.299Z</time></trkpt><trkpt lat="43.550504" lon="11.2102383"><ele>305.0</ele><time>2026-04-25T15:57:41.315Z</time></trkpt><trkpt lat="43.5502077" lon="11.2102398"><ele>310.0</ele><time>2026-04-25T15:57:42.312Z</time></trkpt><trkpt lat="43.5499144" lon="11.2102479"><ele>310.0</ele><time>2026-04-25T15:57:43.308Z</time></trkpt><trkpt lat="43.5496264" lon="11.2102397"><ele>310.0</ele><time>2026-04-25T15:57:44.303Z</time></trkpt><trkpt lat="43.5493436" lon="11.2102394"><ele>310.5</ele><time>2026-04-25T15:57:45.31Z</time></trkpt><trkpt lat="43.5490574" lon="11.2102473"><ele>311.0</ele><time>2026-04-25T15:57:46.304Z</time></trkpt><trkpt lat="43.5487706" lon="11.2102756"><ele>307.0</ele><time>2026-04-25T15:57:47.304Z</time></trkpt><trkpt lat="43.5484887" lon="11.210329"><ele>303.0</ele><time>2026-04-25T15:57:48.318Z</time></trkpt><trkpt lat="43.5482147" lon="11.2104072"><ele>303.0</ele><time>2026-04-25T15:57:49.301Z</time></trkpt><trkpt lat="43.5479339" lon="11.2105196"><ele>303.0</ele><time>2026-04-25T15:57:50.3Z</time></trkpt><trkpt lat="43.5476595" lon="11.2106538"><ele>305.5</ele><time>2026-04-25T15:57:51.281Z</time></trkpt><trkpt lat="43.5473931" lon="11.2108101"><ele>308.0</ele><time>2026-04-25T15:57:52.317Z</time></trkpt><trkpt lat="43.5471355" lon="11.2109952"><ele>301.0</ele><time>2026-04-25T15:57:53.324Z</time></trkpt><trkpt lat="43.5468906" lon="11.2111952"><ele>294.0</ele><time>2026-04-25T15:57:54.297Z</time></trkpt><trkpt lat="43.5466442" lon="11.2114208"><ele>294.5</ele><time>2026-04-25T15:57:55.313Z</time></trkpt><trkpt lat="43.5464041" lon="11.2116595"><ele>295.0</ele><time>2026-04-25T15:57:56.324Z</time></trkpt><trkpt lat="43.5461701" lon="11.2119136"><ele>294.5</ele><time>2026-04-25T15:57:57.307Z</time></trkpt><trkpt lat="43.5459402" lon="11.2121808"><ele>294.0</ele><time>2026-04-25T15:57:58.319Z</time></trkpt><trkpt lat="43.5457078" lon="11.2124543"><ele>294.0</ele><time>2026-04-25T15:57:59.311Z</time></trkpt><trkpt lat="43.5454768" lon="11.2127372"><ele>294.0</ele><time>2026-04-25T15:58:00.309Z</time></trkpt><trkpt lat="43.5452506" lon="11.2130114"><ele>295.0</ele><time>2026-04-25T15:58:01.321Z</time></trkpt><trkpt lat="43.545027" lon="11.2132909"><ele>296.0</ele><time>2026-04-25T15:58:02.317Z</time></trkpt><trkpt lat="43.5448009" lon="11.2135714"><ele>296.0</ele><time>2026-04-25T15:58:03.328Z</time></trkpt><trkpt lat="43.5445833" lon="11.2138529"><ele>296.0</ele><time>2026-04-25T15:58:04.303Z</time></trkpt><trkpt lat="43.5443679" lon="11.2141432"><ele>296.0</ele><time>2026-04-25T15:58:05.305Z</time></trkpt><trkpt lat="43.5441545" lon="11.2144353"><ele>296.0</ele><time>2026-04-25T15:58:06.308Z</time></trkpt><trkpt lat="43.5439463" lon="11.2147345"><ele>297.5</ele><time>2026-04-25T15:58:07.32Z</time></trkpt><trkpt lat="43.5437403" lon="11.2150392"><ele>299.0</ele><time>2026-04-25T15:58:08.31Z</time></trkpt><trkpt lat="43.5435431" lon="11.2153453"><ele>295.5</ele><time>2026-04-25T15:58:09.322Z</time></trkpt><trkpt lat="43.5433445" lon="11.2156495"><ele>292.0</ele><time>2026-04-25T15:58:10.317Z</time></trkpt><trkpt lat="43.5431514" lon="11.2159526"><ele>292.0</ele><time>2026-04-25T15:58:11.31Z</time></trkpt><trkpt lat="43.5429617" lon="11.2162555"><ele>292.0</ele><time>2026-04-25T15:58:12.305Z</time></trkpt><trkpt lat="43.5427739" lon="11.2165606"><ele>293.5</ele><time>2026-04-25T15:58:13.313Z</time></trkpt><trkpt lat="43.542583" lon="11.216856"><ele>295.0</ele><time>2026-04-25T15:58:14.306Z</time></trkpt><trkpt lat="43.5423994" lon="11.2171506"><ele>296.5</ele><time>2026-04-25T15:58:15.302Z</time></trkpt><trkpt lat="43.542217" lon="11.2174373"><ele>298.0</ele><time>2026-04-25T15:58:16.315Z</time></trkpt><trkpt lat="43.5420363" lon="11.2177237"><ele>298.0</ele><time>2026-04-25T15:58:17.312Z</time></trkpt><trkpt lat="43.5418542" lon="11.2180064"><ele>298.0</ele><time>2026-04-25T15:58:18.314Z</time></trkpt><trkpt lat="43.5416724" lon="11.2182813"><ele>300.5</ele><time>2026-04-25T15:58:19.331Z</time></trkpt><trkpt lat="43.5414792" lon="11.2185453"><ele>303.0</ele><time>2026-04-25T15:58:20.312Z</time></trkpt><trkpt lat="43.5412737" lon="11.218798"><ele>306.0</ele><time>2026-04-25T15:58:21.301Z</time></trkpt><trkpt lat="43.5410542" lon="11.2190295"><ele>309.0</ele><time>2026-04-25T15:58:22.32Z</time></trkpt><trkpt lat="43.5408272" lon="11.2192548"><ele>309.0</ele><time>2026-04-25T15:58:23.321Z</time></trkpt><trkpt lat="43.540596" lon="11.2194657"><ele>309.0</ele><time>2026-04-25T15:58:24.302Z</time></trkpt><trkpt lat="43.5403548" lon="11.2196745"><ele>311.5</ele><time>2026-04-25T15:58:25.328Z</time></trkpt><trkpt lat="43.5401085" lon="11.2198605"><ele>314.0</ele><time>2026-04-25T15:58:26.319Z</time></trkpt><trkpt lat="43.5398461" lon="11.2200217"><ele>314.0</ele><time>2026-04-25T15:58:27.313Z</time></trkpt><trkpt lat="43.5395739" lon="11.2201519"><ele>314.0</ele><time>2026-04-25T15:58:28.317Z</time></trkpt><trkpt lat="43.5392969" lon="11.2202534"><ele>312.5</ele><time>2026-04-25T15:58:29.308Z</time></trkpt><trkpt lat="43.539021" lon="11.2203411"><ele>311.0</ele><time>2026-04-25T15:58:30.334Z</time></trkpt><trkpt lat="43.5387412" lon="11.2204138"><ele>311.5</ele><time>2026-04-25T15:58:31.318Z</time></trkpt><trkpt lat="43.5384511" lon="11.2204651"><ele>312.0</ele><time>2026-04-25T15:58:32.296Z</time></trkpt><trkpt lat="43.5381603" lon="11.2204983"><ele>315.0</ele><time>2026-04-25T15:58:33.298Z</time></trkpt><trkpt lat="43.5378736" lon="11.22051"><ele>318.0</ele><time>2026-04-25T15:58:34.314Z</time></trkpt><trkpt lat="43.5375821" lon="11.220506"><ele>318.0</ele><time>2026-04-25T15:58:35.316Z</time></trkpt><trkpt lat="43.5372983" lon="11.2204923"><ele>318.0</ele><time>2026-04-25T15:58:36.278Z</time></trkpt><trkpt lat="43.5370096" lon="11.2204587"><ele>320.0</ele><time>2026-04-25T15:58:37.301Z</time></trkpt><trkpt lat="43.5367231" lon="11.2203833"><ele>322.0</ele><time>2026-04-25T15:58:38.311Z</time></trkpt><trkpt lat="43.5364419" lon="11.2202852"><ele>320.0</ele><time>2026-04-25T15:58:39.313Z</time></trkpt><trkpt lat="43.5361538" lon="11.2201669"><ele>318.0</ele><time>2026-04-25T15:58:40.298Z</time></trkpt><trkpt lat="43.5358661" lon="11.2200241"><ele>318.0</ele><time>2026-04-25T15:58:41.305Z</time></trkpt><trkpt lat="43.5355934" lon="11.2198714"><ele>318.0</ele><time>2026-04-25T15:58:42.308Z</time></trkpt><trkpt lat="43.5353537" lon="11.2196957"><ele>316.5</ele><time>2026-04-25T15:58:43.299Z</time></trkpt><trkpt lat="43.535117" lon="11.2195311"><ele>315.0</ele><time>2026-04-25T15:58:44.306Z</time></trkpt><trkpt lat="43.5349028" lon="11.2193475"><ele>315.0</ele><time>2026-04-25T15:58:45.317Z</time></trkpt><trkpt lat="43.534688" lon="11.2191564"><ele>315.0</ele><time>2026-04-25T15:58:46.303Z</time></trkpt><trkpt lat="43.5344872" lon="11.2189487"><ele>312.5</ele><time>2026-04-25T15:58:47.315Z</time></trkpt><trkpt lat="43.5343006" lon="11.2187287"><ele>310.0</ele><time>2026-04-25T15:58:48.312Z</time></trkpt><trkpt lat="43.5341227" lon="11.2185032"><ele>310.0</ele><time>2026-04-25T15:58:49.314Z</time></trkpt><trkpt lat="43.533965" lon="11.2182731"><ele>310.0</ele><time>2026-04-25T15:58:50.314Z</time></trkpt><trkpt lat="43.5338082" lon="11.2180429"><ele>307.5</ele><time>2026-04-25T15:58:51.309Z</time></trkpt><trkpt lat="43.533645" lon="11.2178028"><ele>305.0</ele><time>2026-04-25T15:58:52.308Z</time></trkpt><trkpt lat="43.5334885" lon="11.2175557"><ele>306.5</ele><time>2026-04-25T15:58:53.321Z</time></trkpt><trkpt lat="43.5333333" lon="11.2173134"><ele>308.0</ele><time>2026-04-25T15:58:54.315Z</time></trkpt><trkpt lat="43.5331848" lon="11.2170644"><ele>308.0</ele><time>2026-04-25T15:58:55.316Z</time></trkpt><trkpt lat="43.5330326" lon="11.2168146"><ele>308.0</ele><time>2026-04-25T15:58:56.306Z</time></trkpt><trkpt lat="43.5328851" lon="11.2165698"><ele>303.0</ele><time>2026-04-25T15:58:57.304Z</time></trkpt><trkpt lat="43.5327179" lon="11.2163242"><ele>298.0</ele><time>2026-04-25T15:58:58.328Z</time></trkpt><trkpt lat="43.5325519" lon="11.2160757"><ele>298.0</ele><time>2026-04-25T15:58:59.312Z</time></trkpt><trkpt lat="43.5323917" lon="11.2158273"><ele>298.0</ele><time>2026-04-25T15:59:00.284Z</time></trkpt><trkpt lat="43.5322309" lon="11.215576"><ele>296.5</ele><time>2026-04-25T15:59:01.303Z</time></trkpt><trkpt lat="43.5320789" lon="11.2153388"><ele>295.0</ele><time>2026-04-25T15:59:02.319Z</time></trkpt><trkpt lat="43.5319353" lon="11.2151023"><ele>287.0</ele><time>2026-04-25T15:59:03.323Z</time></trkpt><trkpt lat="43.5317869" lon="11.2148634"><ele>279.0</ele><time>2026-04-25T15:59:04.303Z</time></trkpt><trkpt lat="43.5316352" lon="11.2146124"><ele>278.0</ele><time>2026-04-25T15:59:05.293Z</time></trkpt><trkpt lat="43.5314971" lon="11.214351"><ele>277.0</ele><time>2026-04-25T15:59:06.298Z</time></trkpt><trkpt lat="43.5313632" lon="11.2140769"><ele>275.0</ele><time>2026-04-25T15:59:07.327Z</time></trkpt><trkpt lat="43.5312432" lon="11.2137768"><ele>273.0</ele><time>2026-04-25T15:59:08.311Z</time></trkpt><trkpt lat="43.5311293" lon="11.2134604"><ele>282.5</ele><time>2026-04-25T15:59:09.306Z</time></trkpt><trkpt lat="43.5310308" lon="11.2131408"><ele>292.0</ele><time>2026-04-25T15:59:10.303Z</time></trkpt><trkpt lat="43.5309376" lon="11.2128029"><ele>292.0</ele><time>2026-04-25T15:59:11.31Z</time></trkpt><trkpt lat="43.5308402" lon="11.2124647"><ele>292.0</ele><time>2026-04-25T15:59:12.307Z</time></trkpt><trkpt lat="43.5307378" lon="11.2121172"><ele>290.0</ele><time>2026-04-25T15:59:13.304Z</time></trkpt><trkpt lat="43.5306333" lon="11.2117697"><ele>288.0</ele><time>2026-04-25T15:59:14.319Z</time></trkpt><trkpt lat="43.5305233" lon="11.2114205"><ele>285.0</ele><time>2026-04-25T15:59:15.33Z</time></trkpt><trkpt lat="43.5304138" lon="11.211077"><ele>282.0</ele><time>2026-04-25T15:59:16.301Z</time></trkpt><trkpt lat="43.5302857" lon="11.2107491"><ele>286.0</ele><time>2026-04-25T15:59:17.309Z</time></trkpt><trkpt lat="43.5301227" lon="11.2104256"><ele>290.0</ele><time>2026-04-25T15:59:18.317Z</time></trkpt><trkpt lat="43.5299488" lon="11.2101057"><ele>289.5</ele><time>2026-04-25T15:59:19.302Z</time></trkpt><trkpt lat="43.5297507" lon="11.209794"><ele>289.0</ele><time>2026-04-25T15:59:20.303Z</time></trkpt><trkpt lat="43.529531" lon="11.2094851"><ele>287.0</ele><time>2026-04-25T15:59:21.317Z</time></trkpt><trkpt lat="43.529306" lon="11.209179"><ele>285.0</ele><time>2026-04-25T15:59:22.31Z</time></trkpt><trkpt lat="43.529084" lon="11.208866"><ele>285.0</ele><time>2026-04-25T15:59:23.315Z</time></trkpt><trkpt lat="43.5288738" lon="11.2085399"><ele>285.0</ele><time>2026-04-25T15:59:24.29Z</time></trkpt><trkpt lat="43.5286817" lon="11.2082026"><ele>288.0</ele><time>2026-04-25T15:59:25.285Z</time></trkpt><trkpt lat="43.5285113" lon="11.2078466"><ele>291.0</ele><time>2026-04-25T15:59:26.284Z</time></trkpt><trkpt lat="43.5283482" lon="11.2074775"><ele>292.5</ele><time>2026-04-25T15:59:27.305Z</time></trkpt><trkpt lat="43.5281865" lon="11.2070978"><ele>294.0</ele><time>2026-04-25T15:59:28.319Z</time></trkpt><trkpt lat="43.5280189" lon="11.2067041"><ele>294.0</ele><time>2026-04-25T15:59:29.309Z</time></trkpt><trkpt lat="43.5278578" lon="11.2063188"><ele>294.0</ele><time>2026-04-25T15:59:30.307Z</time></trkpt><trkpt lat="43.5276918" lon="11.205942"><ele>289.5</ele><time>2026-04-25T15:59:31.313Z</time></trkpt><trkpt lat="43.5275395" lon="11.2055746"><ele>285.0</ele><time>2026-04-25T15:59:32.329Z</time></trkpt><trkpt lat="43.527389" lon="11.2052147"><ele>285.0</ele><time>2026-04-25T15:59:33.312Z</time></trkpt><trkpt lat="43.5272438" lon="11.2048702"><ele>285.0</ele><time>2026-04-25T15:59:34.303Z</time></trkpt><trkpt lat="43.5270996" lon="11.2045385"><ele>287.0</ele><time>2026-04-25T15:59:35.31Z</time></trkpt><trkpt lat="43.5269586" lon="11.2042209"><ele>289.0</ele><time>2026-04-25T15:59:36.31Z</time></trkpt><trkpt lat="43.5268235" lon="11.2039015"><ele>289.0</ele><time>2026-04-25T15:59:37.304Z</time></trkpt><trkpt lat="43.5266876" lon="11.2035939"><ele>289.0</ele><time>2026-04-25T15:59:38.303Z</time></trkpt><trkpt lat="43.526547" lon="11.2032872"><ele>292.0</ele><time>2026-04-25T15:59:39.316Z</time></trkpt><trkpt lat="43.5264046" lon="11.2030003"><ele>295.0</ele><time>2026-04-25T15:59:40.309Z</time></trkpt><trkpt lat="43.526265" lon="11.202733"><ele>293.0</ele><time>2026-04-25T15:59:41.308Z</time></trkpt><trkpt lat="43.5261248" lon="11.2024673"><ele>291.0</ele><time>2026-04-25T15:59:42.309Z</time></trkpt><trkpt lat="43.5259761" lon="11.2022269"><ele>291.0</ele><time>2026-04-25T15:59:43.313Z</time></trkpt><trkpt lat="43.52583" lon="11.2019963"><ele>291.0</ele><time>2026-04-25T15:59:44.309Z</time></trkpt><trkpt lat="43.5256823" lon="11.2017578"><ele>291.0</ele><time>2026-04-25T15:59:45.328Z</time></trkpt><trkpt lat="43.5255247" lon="11.2015285"><ele>286.5</ele><time>2026-04-25T15:59:46.301Z</time></trkpt><trkpt lat="43.5253588" lon="11.2013059"><ele>282.0</ele><time>2026-04-25T15:59:47.306Z</time></trkpt><trkpt lat="43.5251793" lon="11.2010817"><ele>282.0</ele><time>2026-04-25T15:59:48.303Z</time></trkpt><trkpt lat="43.524991" lon="11.2008547"><ele>282.0</ele><time>2026-04-25T15:59:49.297Z</time></trkpt><trkpt lat="43.5247891" lon="11.2006255"><ele>282.5</ele><time>2026-04-25T15:59:50.315Z</time></trkpt><trkpt lat="43.5245787" lon="11.2003976"><ele>283.0</ele><time>2026-04-25T15:59:51.316Z</time></trkpt><trkpt lat="43.52436" lon="11.2001717"><ele>280.5</ele><time>2026-04-25T15:59:52.312Z</time></trkpt><trkpt lat="43.5241414" lon="11.1999555"><ele>278.0</ele><time>2026-04-25T15:59:53.324Z</time></trkpt><trkpt lat="43.5239116" lon="11.1997455"><ele>275.0</ele><time>2026-04-25T15:59:54.315Z</time></trkpt><trkpt lat="43.5236675" lon="11.1995369"><ele>272.0</ele><time>2026-04-25T15:59:55.325Z</time></trkpt><trkpt lat="43.5234164" lon="11.199341"><ele>272.0</ele><time>2026-04-25T15:59:56.3Z</time></trkpt><trkpt lat="43.5231478" lon="11.1991408"><ele>272.0</ele><time>2026-04-25T15:59:57.31Z</time></trkpt><trkpt lat="43.5228475" lon="11.1989494"><ele>270.0</ele><time>2026-04-25T15:59:58.314Z</time></trkpt><trkpt lat="43.5225379" lon="11.1987715"><ele>268.0</ele><time>2026-04-25T15:59:59.332Z</time></trkpt><trkpt lat="43.5222323" lon="11.1985992"><ele>269.5</ele><time>2026-04-25T16:00:00.301Z</time></trkpt><trkpt lat="43.5219281" lon="11.1984342"><ele>271.0</ele><time>2026-04-25T16:00:01.285Z</time></trkpt><trkpt lat="43.5216308" lon="11.1982759"><ele>267.0</ele><time>2026-04-25T16:00:02.295Z</time></trkpt><trkpt lat="43.5213379" lon="11.1981179"><ele>263.0</ele><time>2026-04-25T16:00:03.32Z</time></trkpt><trkpt lat="43.5210615" lon="11.1979653"><ele>262.5</ele><time>2026-04-25T16:00:04.311Z</time></trkpt><trkpt lat="43.520786" lon="11.1978124"><ele>262.0</ele><time>2026-04-25T16:00:05.306Z</time></trkpt><trkpt lat="43.5205146" lon="11.1976626"><ele>264.5</ele><time>2026-04-25T16:00:06.307Z</time></trkpt><trkpt lat="43.5202512" lon="11.1975275"><ele>267.0</ele><time>2026-04-25T16:00:07.318Z</time></trkpt><trkpt lat="43.5199851" lon="11.1974025"><ele>262.5</ele><time>2026-04-25T16:00:08.308Z</time></trkpt><trkpt lat="43.5197129" lon="11.1972952"><ele>258.0</ele><time>2026-04-25T16:00:09.32Z</time></trkpt><trkpt lat="43.5194371" lon="11.1972166"><ele>257.0</ele><time>2026-04-25T16:00:10.314Z</time></trkpt><trkpt lat="43.5191531" lon="11.1971489"><ele>256.0</ele><time>2026-04-25T16:00:11.301Z</time></trkpt><trkpt lat="43.5188691" lon="11.1971018"><ele>255.5</ele><time>2026-04-25T16:00:12.302Z</time></trkpt><trkpt lat="43.5185816" lon="11.197057"><ele>255.0</ele><time>2026-04-25T16:00:13.308Z</time></trkpt><trkpt lat="43.5182945" lon="11.1970352"><ele>255.0</ele><time>2026-04-25T16:00:14.304Z</time></trkpt><trkpt lat="43.5180126" lon="11.1970239"><ele>255.0</ele><time>2026-04-25T16:00:15.32Z</time></trkpt><trkpt lat="43.517733" lon="11.1970152"><ele>254.0</ele><time>2026-04-25T16:00:16.302Z</time></trkpt><trkpt lat="43.5174519" lon="11.1970062"><ele>253.0</ele><time>2026-04-25T16:00:17.281Z</time></trkpt><trkpt lat="43.5171698" lon="11.1969991"><ele>249.5</ele><time>2026-04-25T16:00:18.309Z</time></trkpt><trkpt lat="43.5168852" lon="11.1969845"><ele>246.0</ele><time>2026-04-25T16:00:19.317Z</time></trkpt><trkpt lat="43.5166034" lon="11.1969637"><ele>246.0</ele><time>2026-04-25T16:00:20.297Z</time></trkpt><trkpt lat="43.5163303" lon="11.1969405"><ele>246.0</ele><time>2026-04-25T16:00:21.298Z</time></trkpt><trkpt lat="43.5160747" lon="11.1968959"><ele>240.0</ele><time>2026-04-25T16:00:22.308Z</time></trkpt><trkpt lat="43.515821" lon="11.1968262"><ele>234.0</ele><time>2026-04-25T16:00:23.301Z</time></trkpt><trkpt lat="43.5155769" lon="11.1967218"><ele>232.5</ele><time>2026-04-25T16:00:24.312Z</time></trkpt><trkpt lat="43.5153327" lon="11.1965954"><ele>231.0</ele><time>2026-04-25T16:00:25.305Z</time></trkpt><trkpt lat="43.515099" lon="11.1964435"><ele>229.5</ele><time>2026-04-25T16:00:26.307Z</time></trkpt><trkpt lat="43.5148711" lon="11.1962771"><ele>228.0</ele><time>2026-04-25T16:00:27.308Z</time></trkpt><trkpt lat="43.5146511" lon="11.1960933"><ele>235.0</ele><time>2026-04-25T16:00:28.29Z</time></trkpt><trkpt lat="43.5144432" lon="11.1958985"><ele>242.0</ele><time>2026-04-25T16:00:29.307Z</time></trkpt><trkpt lat="43.5142409" lon="11.1956815"><ele>239.5</ele><time>2026-04-25T16:00:30.334Z</time></trkpt><trkpt lat="43.5140484" lon="11.1954335"><ele>237.0</ele><time>2026-04-25T16:00:31.309Z</time></trkpt><trkpt lat="43.5138698" lon="11.1951703"><ele>237.5</ele><time>2026-04-25T16:00:32.309Z</time></trkpt><trkpt lat="43.5137024" lon="11.1948943"><ele>238.0</ele><time>2026-04-25T16:00:33.301Z</time></trkpt><trkpt lat="43.5135643" lon="11.1946068"><ele>238.0</ele><time>2026-04-25T16:00:34.299Z</time></trkpt><trkpt lat="43.5134241" lon="11.1943019"><ele>238.0</ele><time>2026-04-25T16:00:35.338Z</time></trkpt><trkpt lat="43.513304" lon="11.1939998"><ele>233.0</ele><time>2026-04-25T16:00:36.32Z</time></trkpt><trkpt lat="43.5131699" lon="11.1937052"><ele>228.0</ele><time>2026-04-25T16:00:37.313Z</time></trkpt><trkpt lat="43.5130354" lon="11.1934111"><ele>228.0</ele><time>2026-04-25T16:00:38.314Z</time></trkpt><trkpt lat="43.5128782" lon="11.1931137"><ele>228.0</ele><time>2026-04-25T16:00:39.309Z</time></trkpt><trkpt lat="43.5126975" lon="11.1928301"><ele>228.0</ele><time>2026-04-25T16:00:40.326Z</time></trkpt><trkpt lat="43.5125036" lon="11.1925577"><ele>228.0</ele><time>2026-04-25T16:00:41.32Z</time></trkpt><trkpt lat="43.5122851" lon="11.1922925"><ele>226.0</ele><time>2026-04-25T16:00:42.302Z</time></trkpt><trkpt lat="43.5120508" lon="11.1920439"><ele>224.0</ele><time>2026-04-25T16:00:43.32Z</time></trkpt><trkpt lat="43.5118022" lon="11.1917955"><ele>224.0</ele><time>2026-04-25T16:00:44.307Z</time></trkpt><trkpt lat="43.5115474" lon="11.1915673"><ele>224.0</ele><time>2026-04-25T16:00:45.319Z</time></trkpt><trkpt lat="43.5112916" lon="11.1913496"><ele>220.0</ele><time>2026-04-25T16:00:46.306Z</time></trkpt><trkpt lat="43.5110413" lon="11.1911371"><ele>216.0</ele><time>2026-04-25T16:00:47.306Z</time></trkpt><trkpt lat="43.5107851" lon="11.1909269"><ele>216.0</ele><time>2026-04-25T16:00:48.311Z</time></trkpt><trkpt lat="43.5105266" lon="11.1907328"><ele>216.0</ele><time>2026-04-25T16:00:49.308Z</time></trkpt><trkpt lat="43.5102587" lon="11.1905605"><ele>212.5</ele><time>2026-04-25T16:00:50.277Z</time></trkpt><trkpt lat="43.5099813" lon="11.1904136"><ele>209.0</ele><time>2026-04-25T16:00:51.286Z</time></trkpt><trkpt lat="43.5097039" lon="11.190288"><ele>211.0</ele><time>2026-04-25T16:00:52.299Z</time></trkpt><trkpt lat="43.5094224" lon="11.1901799"><ele>213.0</ele><time>2026-04-25T16:00:53.289Z</time></trkpt><trkpt lat="43.5091411" lon="11.190082"><ele>213.0</ele><time>2026-04-25T16:00:54.304Z</time></trkpt><trkpt lat="43.508849" lon="11.1899931"><ele>213.0</ele><time>2026-04-25T16:00:55.305Z</time></trkpt><trkpt lat="43.5085609" lon="11.1899096"><ele>209.0</ele><time>2026-04-25T16:00:56.307Z</time></trkpt><trkpt lat="43.5082716" lon="11.1898225"><ele>205.0</ele><time>2026-04-25T16:00:57.312Z</time></trkpt><trkpt lat="43.5079798" lon="11.1897412"><ele>205.0</ele><time>2026-04-25T16:00:58.312Z</time></trkpt><trkpt lat="43.5076836" lon="11.1896484"><ele>205.0</ele><time>2026-04-25T16:00:59.314Z</time></trkpt><trkpt lat="43.5073869" lon="11.1895554"><ele>205.0</ele><time>2026-04-25T16:01:00.306Z</time></trkpt><trkpt lat="43.507087" lon="11.189463"><ele>205.0</ele><time>2026-04-25T16:01:01.31Z</time></trkpt><trkpt lat="43.5067837" lon="11.189376"><ele>204.5</ele><time>2026-04-25T16:01:02.32Z</time></trkpt><trkpt lat="43.506489" lon="11.189291"><ele>204.0</ele><time>2026-04-25T16:01:03.32Z</time></trkpt><trkpt lat="43.5061961" lon="11.1892038"><ele>203.0</ele><time>2026-04-25T16:01:04.314Z</time></trkpt><trkpt lat="43.5059024" lon="11.1891071"><ele>202.0</ele><time>2026-04-25T16:01:05.3Z</time></trkpt><trkpt lat="43.5056119" lon="11.1889992"><ele>198.0</ele><time>2026-04-25T16:01:06.317Z</time></trkpt><trkpt lat="43.5053227" lon="11.1888873"><ele>194.0</ele><time>2026-04-25T16:01:07.32Z</time></trkpt><trkpt lat="43.5050339" lon="11.1887622"><ele>194.0</ele><time>2026-04-25T16:01:08.312Z</time></trkpt><trkpt lat="43.5047473" lon="11.1886233"><ele>194.0</ele><time>2026-04-25T16:01:09.312Z</time></trkpt><trkpt lat="43.5044573" lon="11.1884819"><ele>195.5</ele><time>2026-04-25T16:01:10.29Z</time></trkpt><trkpt lat="43.5041731" lon="11.1883445"><ele>197.0</ele><time>2026-04-25T16:01:11.306Z</time></trkpt><trkpt lat="43.5038851" lon="11.1882104"><ele>194.0</ele><time>2026-04-25T16:01:12.309Z</time></trkpt><trkpt lat="43.5036011" lon="11.1880748"><ele>191.0</ele><time>2026-04-25T16:01:13.321Z</time></trkpt><trkpt lat="43.5033263" lon="11.1879455"><ele>191.0</ele><time>2026-04-25T16:01:14.297Z</time></trkpt><trkpt lat="43.5030571" lon="11.1878172"><ele>191.0</ele><time>2026-04-25T16:01:15.313Z</time></trkpt><trkpt lat="43.5028082" lon="11.1877051"><ele>192.5</ele><time>2026-04-25T16:01:16.316Z</time></trkpt><trkpt lat="43.5025693" lon="11.1875928"><ele>194.0</ele><time>2026-04-25T16:01:17.296Z</time></trkpt><trkpt lat="43.5023282" lon="11.1874788"><ele>195.5</ele><time>2026-04-25T16:01:18.306Z</time></trkpt><trkpt lat="43.5020807" lon="11.1873581"><ele>197.0</ele><time>2026-04-25T16:01:19.318Z</time></trkpt><trkpt lat="43.5018392" lon="11.1872309"><ele>190.0</ele><time>2026-04-25T16:01:20.305Z</time></trkpt><trkpt lat="43.5015998" lon="11.1870841"><ele>183.0</ele><time>2026-04-25T16:01:21.296Z</time></trkpt><trkpt lat="43.5013631" lon="11.1869196"><ele>185.5</ele><time>2026-04-25T16:01:22.317Z</time></trkpt><trkpt lat="43.5011307" lon="11.1867305"><ele>188.0</ele><time>2026-04-25T16:01:23.309Z</time></trkpt><trkpt lat="43.5009172" lon="11.1865368"><ele>185.5</ele><time>2026-04-25T16:01:24.312Z</time></trkpt><trkpt lat="43.500703" lon="11.1863136"><ele>183.0</ele><time>2026-04-25T16:01:25.306Z</time></trkpt><trkpt lat="43.5005039" lon="11.186071"><ele>182.5</ele><time>2026-04-25T16:01:26.305Z</time></trkpt><trkpt lat="43.500313" lon="11.185812"><ele>182.0</ele><time>2026-04-25T16:01:27.303Z</time></trkpt><trkpt lat="43.5001258" lon="11.1855451"><ele>182.0</ele><time>2026-04-25T16:01:28.302Z</time></trkpt><trkpt lat="43.4999543" lon="11.1852599"><ele>182.0</ele><time>2026-04-25T16:01:29.313Z</time></trkpt><trkpt lat="43.4997951" lon="11.1849708"><ele>182.5</ele><time>2026-04-25T16:01:30.273Z</time></trkpt><trkpt lat="43.4996427" lon="11.1846687"><ele>183.0</ele><time>2026-04-25T16:01:31.272Z</time></trkpt><trkpt lat="43.4994967" lon="11.1843675"><ele>184.5</ele><time>2026-04-25T16:01:32.314Z</time></trkpt><trkpt lat="43.4993535" lon="11.1840727"><ele>186.0</ele><time>2026-04-25T16:01:33.315Z</time></trkpt><trkpt lat="43.4991983" lon="11.1837781"><ele>182.0</ele><time>2026-04-25T16:01:34.297Z</time></trkpt><trkpt lat="43.4990472" lon="11.1834875"><ele>178.0</ele><time>2026-04-25T16:01:35.306Z</time></trkpt><trkpt lat="43.498887" lon="11.1831981"><ele>178.5</ele><time>2026-04-25T16:01:36.295Z</time></trkpt><trkpt lat="43.4987294" lon="11.1829029"><ele>179.0</ele><time>2026-04-25T16:01:37.302Z</time></trkpt><trkpt lat="43.4985718" lon="11.1826077"><ele>177.5</ele><time>2026-04-25T16:01:38.294Z</time></trkpt><trkpt lat="43.4984043" lon="11.1823143"><ele>176.0</ele><time>2026-04-25T16:01:39.31Z</time></trkpt><trkpt lat="43.4982261" lon="11.1820231"><ele>176.0</ele><time>2026-04-25T16:01:40.272Z</time></trkpt><trkpt lat="43.4980384" lon="11.1817483"><ele>176.0</ele><time>2026-04-25T16:01:41.307Z</time></trkpt><trkpt lat="43.4978379" lon="11.1814945"><ele>172.5</ele><time>2026-04-25T16:01:42.274Z</time></trkpt><trkpt lat="43.4976376" lon="11.1812449"><ele>169.0</ele><time>2026-04-25T16:01:43.302Z</time></trkpt><trkpt lat="43.497431" lon="11.1810032"><ele>169.0</ele><time>2026-04-25T16:01:44.318Z</time></trkpt><trkpt lat="43.4972238" lon="11.1807647"><ele>169.0</ele><time>2026-04-25T16:01:45.306Z</time></trkpt><trkpt lat="43.4970188" lon="11.1805409"><ele>168.0</ele><time>2026-04-25T16:01:46.289Z</time></trkpt><trkpt lat="43.4968058" lon="11.1803269"><ele>167.0</ele><time>2026-04-25T16:01:47.312Z</time></trkpt><trkpt lat="43.4965825" lon="11.1801176"><ele>167.0</ele><time>2026-04-25T16:01:48.312Z</time></trkpt><trkpt lat="43.4963511" lon="11.1799156"><ele>167.0</ele><time>2026-04-25T16:01:49.317Z</time></trkpt><trkpt lat="43.4961133" lon="11.1797227"><ele>164.5</ele><time>2026-04-25T16:01:50.314Z</time></trkpt><trkpt lat="43.4958661" lon="11.1795358"><ele>162.0</ele><time>2026-04-25T16:01:51.292Z</time></trkpt><trkpt lat="43.4956127" lon="11.179367"><ele>163.0</ele><time>2026-04-25T16:01:52.306Z</time></trkpt><trkpt lat="43.4953516" lon="11.1792033"><ele>164.0</ele><time>2026-04-25T16:01:53.311Z</time></trkpt><trkpt lat="43.4950877" lon="11.1790469"><ele>162.0</ele><time>2026-04-25T16:01:54.319Z</time></trkpt><trkpt lat="43.4948199" lon="11.1788974"><ele>160.0</ele><time>2026-04-25T16:01:55.287Z</time></trkpt><trkpt lat="43.494555" lon="11.1787659"><ele>157.5</ele><time>2026-04-25T16:01:56.287Z</time></trkpt><trkpt lat="43.4942936" lon="11.1786299"><ele>155.0</ele><time>2026-04-25T16:01:57.311Z</time></trkpt><trkpt lat="43.4940369" lon="11.1784707"><ele>155.0</ele><time>2026-04-25T16:01:58.315Z</time></trkpt><trkpt lat="43.4937875" lon="11.1782916"><ele>155.0</ele><time>2026-04-25T16:01:59.317Z</time></trkpt><trkpt lat="43.4935421" lon="11.1781023"><ele>155.0</ele><time>2026-04-25T16:02:00.31Z</time></trkpt><trkpt lat="43.4933074" lon="11.177892"><ele>155.0</ele><time>2026-04-25T16:02:01.321Z</time></trkpt><trkpt lat="43.4930864" lon="11.1776571"><ele>154.5</ele><time>2026-04-25T16:02:02.323Z</time></trkpt><trkpt lat="43.4928746" lon="11.177411"><ele>154.0</ele><time>2026-04-25T16:02:03.309Z</time></trkpt><trkpt lat="43.4926696" lon="11.1771497"><ele>156.0</ele><time>2026-04-25T16:02:04.313Z</time></trkpt><trkpt lat="43.4924732" lon="11.1768795"><ele>158.0</ele><time>2026-04-25T16:02:05.311Z</time></trkpt><trkpt lat="43.4922892" lon="11.176587"><ele>153.5</ele><time>2026-04-25T16:02:06.313Z</time></trkpt><trkpt lat="43.4921179" lon="11.1762937"><ele>149.0</ele><time>2026-04-25T16:02:07.308Z</time></trkpt><trkpt lat="43.4919594" lon="11.1759996"><ele>149.0</ele><time>2026-04-25T16:02:08.288Z</time></trkpt><trkpt lat="43.4917993" lon="11.175692"><ele>149.0</ele><time>2026-04-25T16:02:09.291Z</time></trkpt><trkpt lat="43.4916459" lon="11.1753814"><ele>149.0</ele><time>2026-04-25T16:02:10.312Z</time></trkpt><trkpt lat="43.4914876" lon="11.1750689"><ele>149.0</ele><time>2026-04-25T16:02:11.315Z</time></trkpt><trkpt lat="43.4913275" lon="11.1747562"><ele>145.5</ele><time>2026-04-25T16:02:12.309Z</time></trkpt><trkpt lat="43.4911625" lon="11.1744446"><ele>142.0</ele><time>2026-04-25T16:02:13.319Z</time></trkpt><trkpt lat="43.491004" lon="11.1741261"><ele>141.5</ele><time>2026-04-25T16:02:14.323Z</time></trkpt><trkpt lat="43.4908412" lon="11.1738087"><ele>141.0</ele><time>2026-04-25T16:02:15.299Z</time></trkpt><trkpt lat="43.4906823" lon="11.1734939"><ele>141.5</ele><time>2026-04-25T16:02:16.309Z</time></trkpt><trkpt lat="43.4905277" lon="11.1731824"><ele>142.0</ele><time>2026-04-25T16:02:17.317Z</time></trkpt><trkpt lat="43.4903667" lon="11.1728735"><ele>141.5</ele><time>2026-04-25T16:02:18.318Z</time></trkpt><trkpt lat="43.4902096" lon="11.1725682"><ele>141.0</ele><time>2026-04-25T16:02:19.312Z</time></trkpt><trkpt lat="43.4900564" lon="11.1722586"><ele>141.0</ele><time>2026-04-25T16:02:20.305Z</time></trkpt><trkpt lat="43.4899051" lon="11.1719401"><ele>141.0</ele><time>2026-04-25T16:02:21.312Z</time></trkpt><trkpt lat="43.4897573" lon="11.1716161"><ele>142.5</ele><time>2026-04-25T16:02:22.324Z</time></trkpt><trkpt lat="43.4896148" lon="11.171279"><ele>144.0</ele><time>2026-04-25T16:02:23.314Z</time></trkpt><trkpt lat="43.4894708" lon="11.1709424"><ele>141.0</ele><time>2026-04-25T16:02:24.31Z</time></trkpt><trkpt lat="43.4893308" lon="11.1706031"><ele>138.0</ele><time>2026-04-25T16:02:25.292Z</time></trkpt><trkpt lat="43.4892006" lon="11.1702627"><ele>138.0</ele><time>2026-04-25T16:02:26.316Z</time></trkpt><trkpt lat="43.4890789" lon="11.1699211"><ele>138.0</ele><time>2026-04-25T16:02:27.315Z</time></trkpt><trkpt lat="43.4889654" lon="11.1695811"><ele>138.5</ele><time>2026-04-25T16:02:28.318Z</time></trkpt><trkpt lat="43.4888492" lon="11.1692337"><ele>139.0</ele><time>2026-04-25T16:02:29.323Z</time></trkpt><trkpt lat="43.4887391" lon="11.1688882"><ele>135.0</ele><time>2026-04-25T16:02:30.313Z</time></trkpt><trkpt lat="43.4886342" lon="11.1685433"><ele>131.0</ele><time>2026-04-25T16:02:31.306Z</time></trkpt><trkpt lat="43.4885348" lon="11.168201"><ele>131.0</ele><time>2026-04-25T16:02:32.304Z</time></trkpt><trkpt lat="43.4884447" lon="11.1678509"><ele>131.0</ele><time>2026-04-25T16:02:33.32Z</time></trkpt><trkpt lat="43.4883628" lon="11.1675045"><ele>131.5</ele><time>2026-04-25T16:02:34.308Z</time></trkpt><trkpt lat="43.4882865" lon="11.1671527"><ele>132.0</ele><time>2026-04-25T16:02:35.325Z</time></trkpt><trkpt lat="43.4882133" lon="11.1667998"><ele>130.0</ele><time>2026-04-25T16:02:36.279Z</time></trkpt><trkpt lat="43.488145" lon="11.166448"><ele>128.0</ele><time>2026-04-25T16:02:37.309Z</time></trkpt><trkpt lat="43.4880801" lon="11.1660914"><ele>128.0</ele><time>2026-04-25T16:02:38.342Z</time></trkpt><trkpt lat="43.4880241" lon="11.1657298"><ele>128.0</ele><time>2026-04-25T16:02:39.321Z</time></trkpt><trkpt lat="43.4879692" lon="11.1653585"><ele>126.0</ele><time>2026-04-25T16:02:40.322Z</time></trkpt><trkpt lat="43.4879164" lon="11.1649837"><ele>124.0</ele><time>2026-04-25T16:02:41.316Z</time></trkpt><trkpt lat="43.4878645" lon="11.1646077"><ele>124.0</ele><time>2026-04-25T16:02:42.323Z</time></trkpt><trkpt lat="43.4878113" lon="11.1642257"><ele>124.0</ele><time>2026-04-25T16:02:43.317Z</time></trkpt><trkpt lat="43.4877574" lon="11.1638325"><ele>123.5</ele><time>2026-04-25T16:02:44.327Z</time></trkpt><trkpt lat="43.4877031" lon="11.1634421"><ele>123.0</ele><time>2026-04-25T16:02:45.301Z</time></trkpt><trkpt lat="43.4876533" lon="11.1630495"><ele>124.0</ele><time>2026-04-25T16:02:46.316Z</time></trkpt><trkpt lat="43.4876025" lon="11.1626574"><ele>125.0</ele><time>2026-04-25T16:02:47.307Z</time></trkpt><trkpt lat="43.4875554" lon="11.1622633"><ele>125.0</ele><time>2026-04-25T16:02:48.312Z</time></trkpt><trkpt lat="43.4875019" lon="11.16186"><ele>125.0</ele><time>2026-04-25T16:02:49.315Z</time></trkpt><trkpt lat="43.4874513" lon="11.1614568"><ele>125.5</ele><time>2026-04-25T16:02:50.316Z</time></trkpt><trkpt lat="43.487395" lon="11.1610447"><ele>126.0</ele><time>2026-04-25T16:02:51.304Z</time></trkpt><trkpt lat="43.4873425" lon="11.1606265"><ele>126.0</ele><time>2026-04-25T16:02:52.317Z</time></trkpt><trkpt lat="43.4872922" lon="11.1602146"><ele>126.0</ele><time>2026-04-25T16:02:53.332Z</time></trkpt><trkpt lat="43.4872419" lon="11.1598087"><ele>126.0</ele><time>2026-04-25T16:02:54.323Z</time></trkpt><trkpt lat="43.4871907" lon="11.1594112"><ele>126.0</ele><time>2026-04-25T16:02:55.308Z</time></trkpt><trkpt lat="43.4871399" lon="11.1590146"><ele>123.0</ele><time>2026-04-25T16:02:56.307Z</time></trkpt><trkpt lat="43.4870863" lon="11.1586339"><ele>120.0</ele><time>2026-04-25T16:02:57.303Z</time></trkpt><trkpt lat="43.4870413" lon="11.1582488"><ele>120.5</ele><time>2026-04-25T16:02:58.309Z</time></trkpt><trkpt lat="43.48699" lon="11.1578711"><ele>121.0</ele><time>2026-04-25T16:02:59.314Z</time></trkpt><trkpt lat="43.4869384" lon="11.157494"><ele>121.0</ele><time>2026-04-25T16:03:00.318Z</time></trkpt><trkpt lat="43.4868876" lon="11.1571207"><ele>121.0</ele><time>2026-04-25T16:03:01.313Z</time></trkpt><trkpt lat="43.4868368" lon="11.1567492"><ele>120.5</ele><time>2026-04-25T16:03:02.3Z</time></trkpt><trkpt lat="43.4867853" lon="11.1563836"><ele>120.0</ele><time>2026-04-25T16:03:03.313Z</time></trkpt><trkpt lat="43.4867264" lon="11.1560331"><ele>118.5</ele><time>2026-04-25T16:03:04.327Z</time></trkpt><trkpt lat="43.486648" lon="11.1556798"><ele>117.0</ele><time>2026-04-25T16:03:05.304Z</time></trkpt><trkpt lat="43.4865461" lon="11.1553306"><ele>117.0</ele><time>2026-04-25T16:03:06.31Z</time></trkpt><trkpt lat="43.4864264" lon="11.1549839"><ele>117.0</ele><time>2026-04-25T16:03:07.308Z</time></trkpt><trkpt lat="43.4862935" lon="11.1546374"><ele>115.0</ele><time>2026-04-25T16:03:08.321Z</time></trkpt><trkpt lat="43.486133" lon="11.1542972"><ele>113.0</ele><time>2026-04-25T16:03:09.313Z</time></trkpt><trkpt lat="43.4859578" lon="11.1539758"><ele>113.0</ele><time>2026-04-25T16:03:10.317Z</time></trkpt><trkpt lat="43.4857667" lon="11.1536634"><ele>113.0</ele><time>2026-04-25T16:03:11.3Z</time></trkpt><trkpt lat="43.4855636" lon="11.153375"><ele>111.5</ele><time>2026-04-25T16:03:12.298Z</time></trkpt><trkpt lat="43.4853529" lon="11.1531003"><ele>110.0</ele><time>2026-04-25T16:03:13.304Z</time></trkpt><trkpt lat="43.48513" lon="11.1528338"><ele>110.0</ele><time>2026-04-25T16:03:14.296Z</time></trkpt><trkpt lat="43.4849031" lon="11.1525818"><ele>110.0</ele><time>2026-04-25T16:03:15.295Z</time></trkpt><trkpt lat="43.4846654" lon="11.1523347"><ele>110.5</ele><time>2026-04-25T16:03:16.283Z</time></trkpt><trkpt lat="43.4844259" lon="11.152094"><ele>111.0</ele><time>2026-04-25T16:03:17.291Z</time></trkpt><trkpt lat="43.4841783" lon="11.1518474"><ele>111.0</ele><time>2026-04-25T16:03:18.295Z</time></trkpt><trkpt lat="43.4839311" lon="11.1515978"><ele>111.0</ele><time>2026-04-25T16:03:19.304Z</time></trkpt><trkpt lat="43.4836832" lon="11.1513484"><ele>115.0</ele><time>2026-04-25T16:03:20.292Z</time></trkpt><trkpt lat="43.4834312" lon="11.1511018"><ele>119.0</ele><time>2026-04-25T16:03:21.292Z</time></trkpt><trkpt lat="43.4831845" lon="11.150856"><ele>118.5</ele><time>2026-04-25T16:03:22.31Z</time></trkpt><trkpt lat="43.4829352" lon="11.1506281"><ele>118.0</ele><time>2026-04-25T16:03:23.291Z</time></trkpt><trkpt lat="43.4826771" lon="11.1504295"><ele>120.0</ele><time>2026-04-25T16:03:24.299Z</time></trkpt><trkpt lat="43.4824118" lon="11.1502639"><ele>122.0</ele><time>2026-04-25T16:03:25.314Z</time></trkpt><trkpt lat="43.4821403" lon="11.1501367"><ele>124.0</ele><time>2026-04-25T16:03:26.283Z</time></trkpt><trkpt lat="43.4818698" lon="11.1500104"><ele>126.0</ele><time>2026-04-25T16:03:27.291Z</time></trkpt><trkpt lat="43.48159" lon="11.1498991"><ele>126.5</ele><time>2026-04-25T16:03:28.281Z</time></trkpt><trkpt lat="43.4813077" lon="11.1498125"><ele>127.0</ele><time>2026-04-25T16:03:29.288Z</time></trkpt><trkpt lat="43.4810237" lon="11.1497475"><ele>127.0</ele><time>2026-04-25T16:03:30.28Z</time></trkpt><trkpt lat="43.4807412" lon="11.1497152"><ele>127.0</ele><time>2026-04-25T16:03:31.284Z</time></trkpt><trkpt lat="43.4804472" lon="11.1497214"><ele>122.0</ele><time>2026-04-25T16:03:32.286Z</time></trkpt><trkpt lat="43.4801575" lon="11.1497511"><ele>117.0</ele><time>2026-04-25T16:03:33.288Z</time></trkpt><trkpt lat="43.4798721" lon="11.1498075"><ele>118.5</ele><time>2026-04-25T16:03:34.289Z</time></trkpt><trkpt lat="43.4795854" lon="11.1498846"><ele>120.0</ele><time>2026-04-25T16:03:35.293Z</time></trkpt><trkpt lat="43.4793138" lon="11.1499876"><ele>120.0</ele><time>2026-04-25T16:03:36.294Z</time></trkpt><trkpt lat="43.4790377" lon="11.1501074"><ele>120.0</ele><time>2026-04-25T16:03:37.301Z</time></trkpt><trkpt lat="43.4787593" lon="11.1502542"><ele>123.5</ele><time>2026-04-25T16:03:38.293Z</time></trkpt><trkpt lat="43.4784972" lon="11.1504056"><ele>127.0</ele><time>2026-04-25T16:03:39.292Z</time></trkpt><trkpt lat="43.4782252" lon="11.1505594"><ele>130.0</ele><time>2026-04-25T16:03:40.292Z</time></trkpt><trkpt lat="43.4779556" lon="11.1507181"><ele>133.0</ele><time>2026-04-25T16:03:41.288Z</time></trkpt><trkpt lat="43.4776819" lon="11.1508718"><ele>133.0</ele><time>2026-04-25T16:03:42.293Z</time></trkpt><trkpt lat="43.477406" lon="11.1510223"><ele>133.0</ele><time>2026-04-25T16:03:43.294Z</time></trkpt><trkpt lat="43.4771307" lon="11.1511702"><ele>133.0</ele><time>2026-04-25T16:03:44.28Z</time></trkpt><trkpt lat="43.4768603" lon="11.1513222"><ele>133.0</ele><time>2026-04-25T16:03:45.28Z</time></trkpt><trkpt lat="43.4765992" lon="11.1514688"><ele>133.0</ele><time>2026-04-25T16:03:46.281Z</time></trkpt><trkpt lat="43.4763643" lon="11.1516117"><ele>133.0</ele><time>2026-04-25T16:03:47.291Z</time></trkpt><trkpt lat="43.4761312" lon="11.1517301"><ele>128.5</ele><time>2026-04-25T16:03:48.297Z</time></trkpt><trkpt lat="43.4759068" lon="11.1518285"><ele>124.0</ele><time>2026-04-25T16:03:49.316Z</time></trkpt><trkpt lat="43.4756833" lon="11.1518948"><ele>124.0</ele><time>2026-04-25T16:03:50.315Z</time></trkpt><trkpt lat="43.4754596" lon="11.1519534"><ele>124.0</ele><time>2026-04-25T16:03:51.317Z</time></trkpt><trkpt lat="43.4752396" lon="11.1520052"><ele>121.0</ele><time>2026-04-25T16:03:52.3Z</time></trkpt><trkpt lat="43.4750049" lon="11.15206"><ele>118.0</ele><time>2026-04-25T16:03:53.312Z</time></trkpt><trkpt lat="43.4747629" lon="11.1521259"><ele>112.0</ele><time>2026-04-25T16:03:54.301Z</time></trkpt><trkpt lat="43.4745121" lon="11.152202"><ele>106.0</ele><time>2026-04-25T16:03:55.303Z</time></trkpt><trkpt lat="43.474247" lon="11.1523042"><ele>107.0</ele><time>2026-04-25T16:03:56.315Z</time></trkpt><trkpt lat="43.4739811" lon="11.1524268"><ele>108.0</ele><time>2026-04-25T16:03:57.312Z</time></trkpt><trkpt lat="43.4737004" lon="11.152571"><ele>108.0</ele><time>2026-04-25T16:03:58.299Z</time></trkpt><trkpt lat="43.4734074" lon="11.15271"><ele>108.0</ele><time>2026-04-25T16:03:59.317Z</time></trkpt><trkpt lat="43.4731117" lon="11.1528475"><ele>106.0</ele><time>2026-04-25T16:04:00.311Z</time></trkpt><trkpt lat="43.4728111" lon="11.1529879"><ele>104.0</ele><time>2026-04-25T16:04:01.305Z</time></trkpt><trkpt lat="43.4725133" lon="11.1531223"><ele>105.0</ele><time>2026-04-25T16:04:02.305Z</time></trkpt><trkpt lat="43.4721992" lon="11.1532738"><ele>106.0</ele><time>2026-04-25T16:04:03.319Z</time></trkpt><trkpt lat="43.4718806" lon="11.1534137"><ele>106.0</ele><time>2026-04-25T16:04:04.311Z</time></trkpt><trkpt lat="43.4715836" lon="11.1535596"><ele>106.0</ele><time>2026-04-25T16:04:05.313Z</time></trkpt><trkpt lat="43.471303" lon="11.1537086"><ele>106.0</ele><time>2026-04-25T16:04:06.322Z</time></trkpt><trkpt lat="43.4710398" lon="11.1538695"><ele>106.0</ele><time>2026-04-25T16:04:07.295Z</time></trkpt><trkpt lat="43.470787" lon="11.1540479"><ele>106.0</ele><time>2026-04-25T16:04:08.296Z</time></trkpt><trkpt lat="43.4705368" lon="11.1542419"><ele>106.0</ele><time>2026-04-25T16:04:09.312Z</time></trkpt><trkpt lat="43.4702903" lon="11.1544492"><ele>105.0</ele><time>2026-04-25T16:04:10.312Z</time></trkpt><trkpt lat="43.4700438" lon="11.1546832"><ele>104.0</ele><time>2026-04-25T16:04:11.319Z</time></trkpt><trkpt lat="43.4698027" lon="11.1549251"><ele>103.5</ele><time>2026-04-25T16:04:12.314Z</time></trkpt><trkpt lat="43.4695725" lon="11.1551901"><ele>103.0</ele><time>2026-04-25T16:04:13.308Z</time></trkpt><trkpt lat="43.4693443" lon="11.1554592"><ele>103.0</ele><time>2026-04-25T16:04:14.312Z</time></trkpt><trkpt lat="43.4691346" lon="11.1557424"><ele>103.0</ele><time>2026-04-25T16:04:15.312Z</time></trkpt><trkpt lat="43.4689336" lon="11.1560406"><ele>103.0</ele><time>2026-04-25T16:04:16.315Z</time></trkpt><trkpt lat="43.4687499" lon="11.1563545"><ele>103.0</ele><time>2026-04-25T16:04:17.322Z</time></trkpt><trkpt lat="43.4685782" lon="11.1566779"><ele>103.0</ele><time>2026-04-25T16:04:18.314Z</time></trkpt><trkpt lat="43.4684115" lon="11.1570092"><ele>103.0</ele><time>2026-04-25T16:04:19.301Z</time></trkpt><trkpt lat="43.4682479" lon="11.1573483"><ele>102.5</ele><time>2026-04-25T16:04:20.296Z</time></trkpt><trkpt lat="43.4680841" lon="11.1576986"><ele>102.0</ele><time>2026-04-25T16:04:21.31Z</time></trkpt><trkpt lat="43.4679168" lon="11.1580566"><ele>101.5</ele><time>2026-04-25T16:04:22.314Z</time></trkpt><trkpt lat="43.4677438" lon="11.1584256"><ele>101.0</ele><time>2026-04-25T16:04:23.3Z</time></trkpt><trkpt lat="43.4675633" lon="11.158805"><ele>101.0</ele><time>2026-04-25T16:04:24.315Z</time></trkpt><trkpt lat="43.4673818" lon="11.1591866"><ele>101.0</ele><time>2026-04-25T16:04:25.309Z</time></trkpt><trkpt lat="43.4672003" lon="11.1595704"><ele>102.0</ele><time>2026-04-25T16:04:26.319Z</time></trkpt><trkpt lat="43.467016" lon="11.1599356"><ele>103.0</ele><time>2026-04-25T16:04:27.313Z</time></trkpt><trkpt lat="43.46683" lon="11.1602856"><ele>103.0</ele><time>2026-04-25T16:04:28.275Z</time></trkpt><trkpt lat="43.4666311" lon="11.1605965"><ele>103.0</ele><time>2026-04-25T16:04:29.314Z</time></trkpt><trkpt lat="43.4664223" lon="11.1608886"><ele>103.5</ele><time>2026-04-25T16:04:30.309Z</time></trkpt><trkpt lat="43.4662115" lon="11.1611632"><ele>104.0</ele><time>2026-04-25T16:04:31.315Z</time></trkpt><trkpt lat="43.4659964" lon="11.1614366"><ele>106.5</ele><time>2026-04-25T16:04:32.302Z</time></trkpt><trkpt lat="43.4657716" lon="11.1616972"><ele>109.0</ele><time>2026-04-25T16:04:33.315Z</time></trkpt><trkpt lat="43.4655387" lon="11.1619378"><ele>108.5</ele><time>2026-04-25T16:04:34.318Z</time></trkpt><trkpt lat="43.4652972" lon="11.1621695"><ele>108.0</ele><time>2026-04-25T16:04:35.311Z</time></trkpt><trkpt lat="43.4650504" lon="11.1623829"><ele>108.0</ele><time>2026-04-25T16:04:36.31Z</time></trkpt><trkpt lat="43.46479" lon="11.1625756"><ele>108.0</ele><time>2026-04-25T16:04:37.299Z</time></trkpt><trkpt lat="43.464521" lon="11.1627474"><ele>107.5</ele><time>2026-04-25T16:04:38.312Z</time></trkpt><trkpt lat="43.4642518" lon="11.162906"><ele>107.0</ele><time>2026-04-25T16:04:39.31Z</time></trkpt><trkpt lat="43.463975" lon="11.1630483"><ele>106.5</ele><time>2026-04-25T16:04:40.315Z</time></trkpt><trkpt lat="43.4636911" lon="11.1631699"><ele>106.0</ele><time>2026-04-25T16:04:41.308Z</time></trkpt><trkpt lat="43.4634034" lon="11.1632651"><ele>107.5</ele><time>2026-04-25T16:04:42.315Z</time></trkpt><trkpt lat="43.4631107" lon="11.1633419"><ele>109.0</ele><time>2026-04-25T16:04:43.312Z</time></trkpt><trkpt lat="43.4628131" lon="11.1634012"><ele>109.0</ele><time>2026-04-25T16:04:44.314Z</time></trkpt><trkpt lat="43.4625161" lon="11.1634471"><ele>109.0</ele><time>2026-04-25T16:04:45.304Z</time></trkpt><trkpt lat="43.4622128" lon="11.1634784"><ele>107.5</ele><time>2026-04-25T16:04:46.318Z</time></trkpt><trkpt lat="43.4619109" lon="11.1634968"><ele>106.0</ele><time>2026-04-25T16:04:47.322Z</time></trkpt><trkpt lat="43.4616054" lon="11.1635002"><ele>106.0</ele><time>2026-04-25T16:04:48.307Z</time></trkpt><trkpt lat="43.4613039" lon="11.1635041"><ele>106.0</ele><time>2026-04-25T16:04:49.31Z</time></trkpt><trkpt lat="43.4610111" lon="11.1635069"><ele>106.5</ele><time>2026-04-25T16:04:50.316Z</time></trkpt><trkpt lat="43.4607162" lon="11.1635145"><ele>107.0</ele><time>2026-04-25T16:04:51.324Z</time></trkpt><trkpt lat="43.4604228" lon="11.1634865"><ele>107.0</ele><time>2026-04-25T16:04:52.309Z</time></trkpt><trkpt lat="43.4601388" lon="11.1634238"><ele>107.0</ele><time>2026-04-25T16:04:53.313Z</time></trkpt><trkpt lat="43.459862" lon="11.1633336"><ele>107.5</ele><time>2026-04-25T16:04:54.32Z</time></trkpt><trkpt lat="43.4595836" lon="11.1632227"><ele>108.0</ele><time>2026-04-25T16:04:55.319Z</time></trkpt><trkpt lat="43.4593176" lon="11.1630869"><ele>108.0</ele><time>2026-04-25T16:04:56.303Z</time></trkpt><trkpt lat="43.4590669" lon="11.1629311"><ele>108.0</ele><time>2026-04-25T16:04:57.322Z</time></trkpt><trkpt lat="43.4588154" lon="11.1627528"><ele>106.5</ele><time>2026-04-25T16:04:58.316Z</time></trkpt><trkpt lat="43.4585761" lon="11.162567"><ele>105.0</ele><time>2026-04-25T16:04:59.302Z</time></trkpt><trkpt lat="43.45835" lon="11.1623616"><ele>105.0</ele><time>2026-04-25T16:05:00.317Z</time></trkpt><trkpt lat="43.4581317" lon="11.1621328"><ele>105.0</ele><time>2026-04-25T16:05:01.328Z</time></trkpt><trkpt lat="43.4579138" lon="11.1618866"><ele>106.5</ele><time>2026-04-25T16:05:02.301Z</time></trkpt><trkpt lat="43.4577022" lon="11.1616245"><ele>108.0</ele><time>2026-04-25T16:05:03.313Z</time></trkpt><trkpt lat="43.4574958" lon="11.1613464"><ele>108.0</ele><time>2026-04-25T16:05:04.312Z</time></trkpt><trkpt lat="43.4572847" lon="11.1610601"><ele>108.0</ele><time>2026-04-25T16:05:05.316Z</time></trkpt><trkpt lat="43.4570779" lon="11.1607818"><ele>108.5</ele><time>2026-04-25T16:05:06.317Z</time></trkpt><trkpt lat="43.4568852" lon="11.160518"><ele>109.0</ele><time>2026-04-25T16:05:07.302Z</time></trkpt><trkpt lat="43.4567021" lon="11.1602621"><ele>109.0</ele><time>2026-04-25T16:05:08.312Z</time></trkpt><trkpt lat="43.4565312" lon="11.1600209"><ele>109.0</ele><time>2026-04-25T16:05:09.315Z</time></trkpt><trkpt lat="43.4563637" lon="11.1597986"><ele>110.33333333333334</ele><time>2026-04-25T16:05:10.309Z</time></trkpt><trkpt lat="43.456207" lon="11.159583"><ele>111.66666666666666</ele><time>2026-04-25T16:05:11.315Z</time></trkpt><trkpt lat="43.456058" lon="11.1593832"><ele>113.0</ele><time>2026-04-25T16:05:12.31Z</time></trkpt><trkpt lat="43.4559038" lon="11.1591746"><ele>111.0</ele><time>2026-04-25T16:05:13.31Z</time></trkpt><trkpt lat="43.4557484" lon="11.1589553"><ele>109.0</ele><time>2026-04-25T16:05:14.318Z</time></trkpt><trkpt lat="43.4555832" lon="11.1587311"><ele>112.5</ele><time>2026-04-25T16:05:15.316Z</time></trkpt><trkpt lat="43.455411" lon="11.1584915"><ele>116.0</ele><time>2026-04-25T16:05:16.309Z</time></trkpt><trkpt lat="43.4552311" lon="11.1582497"><ele>112.0</ele><time>2026-04-25T16:05:17.291Z</time></trkpt><trkpt lat="43.4550442" lon="11.1579918"><ele>108.0</ele><time>2026-04-25T16:05:18.284Z</time></trkpt><trkpt lat="43.4548495" lon="11.1577137"><ele>108.0</ele><time>2026-04-25T16:05:19.282Z</time></trkpt><trkpt lat="43.4546519" lon="11.1574384"><ele>108.0</ele><time>2026-04-25T16:05:20.291Z</time></trkpt><trkpt lat="43.4544482" lon="11.157157"><ele>109.0</ele><time>2026-04-25T16:05:21.311Z</time></trkpt><trkpt lat="43.4542425" lon="11.1568686"><ele>110.0</ele><time>2026-04-25T16:05:22.318Z</time></trkpt><trkpt lat="43.4540307" lon="11.1565885"><ele>110.5</ele><time>2026-04-25T16:05:23.31Z</time></trkpt><trkpt lat="43.4538123" lon="11.1563126"><ele>111.0</ele><time>2026-04-25T16:05:24.286Z</time></trkpt><trkpt lat="43.4535867" lon="11.1560446"><ele>111.0</ele><time>2026-04-25T16:05:25.287Z</time></trkpt><trkpt lat="43.4533531" lon="11.155788"><ele>111.0</ele><time>2026-04-25T16:05:26.317Z</time></trkpt><trkpt lat="43.4531084" lon="11.1555508"><ele>111.0</ele><time>2026-04-25T16:05:27.306Z</time></trkpt><trkpt lat="43.4528537" lon="11.1553422"><ele>111.0</ele><time>2026-04-25T16:05:28.314Z</time></trkpt><trkpt lat="43.4525897" lon="11.1551358"><ele>111.0</ele><time>2026-04-25T16:05:29.301Z</time></trkpt><trkpt lat="43.4523165" lon="11.1549581"><ele>111.0</ele><time>2026-04-25T16:05:30.309Z</time></trkpt><trkpt lat="43.45204" lon="11.1548034"><ele>111.0</ele><time>2026-04-25T16:05:31.324Z</time></trkpt><trkpt lat="43.4517625" lon="11.1546549"><ele>111.0</ele><time>2026-04-25T16:05:32.316Z</time></trkpt><trkpt lat="43.4514823" lon="11.1545072"><ele>116.0</ele><time>2026-04-25T16:05:33.324Z</time></trkpt><trkpt lat="43.451211" lon="11.1543535"><ele>121.0</ele><time>2026-04-25T16:05:34.331Z</time></trkpt><trkpt lat="43.4509366" lon="11.1542017"><ele>121.0</ele><time>2026-04-25T16:05:35.322Z</time></trkpt><trkpt lat="43.45066" lon="11.1540528"><ele>121.0</ele><time>2026-04-25T16:05:36.309Z</time></trkpt><trkpt lat="43.4503858" lon="11.1538965"><ele>122.5</ele><time>2026-04-25T16:05:37.305Z</time></trkpt><trkpt lat="43.4501104" lon="11.1537472"><ele>124.0</ele><time>2026-04-25T16:05:38.307Z</time></trkpt><trkpt lat="43.4498318" lon="11.1535978"><ele>122.5</ele><time>2026-04-25T16:05:39.296Z</time></trkpt><trkpt lat="43.4495586" lon="11.1534406"><ele>121.0</ele><time>2026-04-25T16:05:40.307Z</time></trkpt><trkpt lat="43.4492895" lon="11.1532728"><ele>117.5</ele><time>2026-04-25T16:05:41.312Z</time></trkpt><trkpt lat="43.4490242" lon="11.1530921"><ele>114.0</ele><time>2026-04-25T16:05:42.309Z</time></trkpt><trkpt lat="43.4487606" lon="11.1529009"><ele>114.0</ele><time>2026-04-25T16:05:43.317Z</time></trkpt><trkpt lat="43.4485035" lon="11.1527035"><ele>114.0</ele><time>2026-04-25T16:05:44.315Z</time></trkpt><trkpt lat="43.4482516" lon="11.152484"><ele>114.0</ele><time>2026-04-25T16:05:45.28Z</time></trkpt><trkpt lat="43.4479973" lon="11.1522518"><ele>114.0</ele><time>2026-04-25T16:05:46.317Z</time></trkpt><trkpt lat="43.4477559" lon="11.152001"><ele>115.5</ele><time>2026-04-25T16:05:47.322Z</time></trkpt><trkpt lat="43.4475159" lon="11.151744"><ele>117.0</ele><time>2026-04-25T16:05:48.305Z</time></trkpt><trkpt lat="43.4472806" lon="11.1514846"><ele>119.0</ele><time>2026-04-25T16:05:49.312Z</time></trkpt><trkpt lat="43.4470447" lon="11.1512437"><ele>121.0</ele><time>2026-04-25T16:05:50.305Z</time></trkpt><trkpt lat="43.4468132" lon="11.1510112"><ele>121.0</ele><time>2026-04-25T16:05:51.32Z</time></trkpt><trkpt lat="43.4465724" lon="11.1507869"><ele>121.0</ele><time>2026-04-25T16:05:52.312Z</time></trkpt><trkpt lat="43.4463335" lon="11.1505844"><ele>125.0</ele><time>2026-04-25T16:05:53.31Z</time></trkpt><trkpt lat="43.4460799" lon="11.1504223"><ele>129.0</ele><time>2026-04-25T16:05:54.317Z</time></trkpt><trkpt lat="43.4458117" lon="11.1502769"><ele>129.0</ele><time>2026-04-25T16:05:55.324Z</time></trkpt><trkpt lat="43.4455446" lon="11.1501505"><ele>129.0</ele><time>2026-04-25T16:05:56.297Z</time></trkpt><trkpt lat="43.4452725" lon="11.1500451"><ele>127.5</ele><time>2026-04-25T16:05:57.321Z</time></trkpt><trkpt lat="43.444996" lon="11.1499652"><ele>126.0</ele><time>2026-04-25T16:05:58.317Z</time></trkpt><trkpt lat="43.4447224" lon="11.1498971"><ele>129.5</ele><time>2026-04-25T16:05:59.317Z</time></trkpt><trkpt lat="43.4444384" lon="11.1498637"><ele>133.0</ele><time>2026-04-25T16:06:00.299Z</time></trkpt><trkpt lat="43.4441546" lon="11.1498596"><ele>133.0</ele><time>2026-04-25T16:06:01.332Z</time></trkpt><trkpt lat="43.4438621" lon="11.1498621"><ele>133.0</ele><time>2026-04-25T16:06:02.315Z</time></trkpt><trkpt lat="43.4435625" lon="11.1498758"><ele>132.5</ele><time>2026-04-25T16:06:03.327Z</time></trkpt><trkpt lat="43.4432624" lon="11.1498893"><ele>132.0</ele><time>2026-04-25T16:06:04.317Z</time></trkpt><trkpt lat="43.4429666" lon="11.1498943"><ele>134.5</ele><time>2026-04-25T16:06:05.322Z</time></trkpt><trkpt lat="43.4426729" lon="11.1498972"><ele>137.0</ele><time>2026-04-25T16:06:06.3Z</time></trkpt><trkpt lat="43.4423847" lon="11.1499048"><ele>140.0</ele><time>2026-04-25T16:06:07.315Z</time></trkpt><trkpt lat="43.4421042" lon="11.1499055"><ele>143.0</ele><time>2026-04-25T16:06:08.309Z</time></trkpt><trkpt lat="43.4418191" lon="11.1499114"><ele>143.0</ele><time>2026-04-25T16:06:09.308Z</time></trkpt><trkpt lat="43.4415402" lon="11.149913"><ele>143.0</ele><time>2026-04-25T16:06:10.315Z</time></trkpt><trkpt lat="43.4412626" lon="11.1499058"><ele>144.5</ele><time>2026-04-25T16:06:11.315Z</time></trkpt><trkpt lat="43.4409872" lon="11.1498759"><ele>146.0</ele><time>2026-04-25T16:06:12.317Z</time></trkpt><trkpt lat="43.4407034" lon="11.1498307"><ele>153.0</ele><time>2026-04-25T16:06:13.303Z</time></trkpt><trkpt lat="43.4404263" lon="11.1497581"><ele>160.0</ele><time>2026-04-25T16:06:14.305Z</time></trkpt><trkpt lat="43.440149" lon="11.1496483"><ele>160.0</ele><time>2026-04-25T16:06:15.312Z</time></trkpt><trkpt lat="43.4398696" lon="11.1495147"><ele>160.0</ele><time>2026-04-25T16:06:16.301Z</time></trkpt><trkpt lat="43.4395933" lon="11.1493523"><ele>160.0</ele><time>2026-04-25T16:06:17.288Z</time></trkpt><trkpt lat="43.4393233" lon="11.1491609"><ele>160.0</ele><time>2026-04-25T16:06:18.282Z</time></trkpt><trkpt lat="43.439067" lon="11.1489534"><ele>161.0</ele><time>2026-04-25T16:06:19.312Z</time></trkpt><trkpt lat="43.4388291" lon="11.1487409"><ele>162.0</ele><time>2026-04-25T16:06:20.309Z</time></trkpt><trkpt lat="43.4386086" lon="11.1485372"><ele>162.0</ele><time>2026-04-25T16:06:21.311Z</time></trkpt><trkpt lat="43.4384164" lon="11.1483188"><ele>162.0</ele><time>2026-04-25T16:06:22.314Z</time></trkpt><trkpt lat="43.4382235" lon="11.148095"><ele>161.5</ele><time>2026-04-25T16:06:23.304Z</time></trkpt><trkpt lat="43.4380346" lon="11.1478673"><ele>161.0</ele><time>2026-04-25T16:06:24.294Z</time></trkpt><trkpt lat="43.4378442" lon="11.1476518"><ele>161.0</ele><time>2026-04-25T16:06:25.307Z</time></trkpt><trkpt lat="43.4376497" lon="11.1474592"><ele>161.0</ele><time>2026-04-25T16:06:26.31Z</time></trkpt><trkpt lat="43.4374529" lon="11.1472739"><ele>158.66666666666666</ele><time>2026-04-25T16:06:27.298Z</time></trkpt><trkpt lat="43.4372535" lon="11.1471143"><ele>156.33333333333334</ele><time>2026-04-25T16:06:28.29Z</time></trkpt><trkpt lat="43.4370603" lon="11.1469828"><ele>154.0</ele><time>2026-04-25T16:06:29.321Z</time></trkpt><trkpt lat="43.4368759" lon="11.1468688"><ele>153.66666666666669</ele><time>2026-04-25T16:06:30.31Z</time></trkpt><trkpt lat="43.4367034" lon="11.1467598"><ele>153.33333333333334</ele><time>2026-04-25T16:06:31.314Z</time></trkpt><trkpt lat="43.4365356" lon="11.146662"><ele>153.0</ele><time>2026-04-25T16:06:32.297Z</time></trkpt><trkpt lat="43.4363734" lon="11.146571"><ele>150.0</ele><time>2026-04-25T16:06:33.287Z</time></trkpt><trkpt lat="43.436213" lon="11.1464832"><ele>147.0</ele><time>2026-04-25T16:06:34.302Z</time></trkpt><trkpt lat="43.4360641" lon="11.1463948"><ele>144.0</ele><time>2026-04-25T16:06:35.3Z</time></trkpt><trkpt lat="43.4359165" lon="11.1463079"><ele>144.0</ele><time>2026-04-25T16:06:36.297Z</time></trkpt><trkpt lat="43.4357655" lon="11.1462191"><ele>144.0</ele><time>2026-04-25T16:06:37.311Z</time></trkpt><trkpt lat="43.4356109" lon="11.1461242"><ele>144.0</ele><time>2026-04-25T16:06:38.303Z</time></trkpt><trkpt lat="43.4354662" lon="11.1460268"><ele>142.66666666666666</ele><time>2026-04-25T16:06:39.304Z</time></trkpt><trkpt lat="43.435324" lon="11.1459371"><ele>141.33333333333331</ele><time>2026-04-25T16:06:40.306Z</time></trkpt><trkpt lat="43.4351809" lon="11.1458464"><ele>140.0</ele><time>2026-04-25T16:06:41.295Z</time></trkpt><trkpt lat="43.4350308" lon="11.145742"><ele>136.0</ele><time>2026-04-25T16:06:42.321Z</time></trkpt><trkpt lat="43.4348664" lon="11.1456435"><ele>132.0</ele><time>2026-04-25T16:06:43.307Z</time></trkpt><trkpt lat="43.4347063" lon="11.1455384"><ele>128.0</ele><time>2026-04-25T16:06:44.307Z</time></trkpt><trkpt lat="43.4345411" lon="11.145449"><ele>128.0</ele><time>2026-04-25T16:06:45.282Z</time></trkpt><trkpt lat="43.4343804" lon="11.1453381"><ele>128.0</ele><time>2026-04-25T16:06:46.279Z</time></trkpt><trkpt lat="43.4342243" lon="11.1452306"><ele>128.0</ele><time>2026-04-25T16:06:47.311Z</time></trkpt><trkpt lat="43.4340762" lon="11.1451301"><ele>128.0</ele><time>2026-04-25T16:06:48.313Z</time></trkpt><trkpt lat="43.4339296" lon="11.1450358"><ele>128.0</ele><time>2026-04-25T16:06:49.309Z</time></trkpt><trkpt lat="43.4338058" lon="11.1449494"><ele>128.0</ele><time>2026-04-25T16:06:50.293Z</time></trkpt><trkpt lat="43.4337306" lon="11.1448995"><ele>128.0</ele><time>2026-04-25T16:06:51.309Z</time></trkpt><trkpt lat="43.4336839" lon="11.144835"><ele>129.66666666666666</ele><time>2026-04-25T16:06:53.312Z</time></trkpt><trkpt lat="43.4336493" lon="11.1447293"><ele>131.33333333333331</ele><time>2026-04-25T16:06:55.301Z</time></trkpt><trkpt lat="43.4336278" lon="11.1446423"><ele>133.0</ele><time>2026-04-25T16:06:56.312Z</time></trkpt><trkpt lat="43.4336108" lon="11.1445409"><ele>134.66666666666666</ele><time>2026-04-25T16:06:57.309Z</time></trkpt><trkpt lat="43.4336152" lon="11.1444324"><ele>136.33333333333334</ele><time>2026-04-25T16:06:58.321Z</time></trkpt><trkpt lat="43.4336323" lon="11.1443267"><ele>138.0</ele><time>2026-04-25T16:06:59.301Z</time></trkpt><trkpt lat="43.4336662" lon="11.1442355"><ele>138.0</ele><time>2026-04-25T16:07:00.314Z</time></trkpt><trkpt lat="43.4337112" lon="11.1441574"><ele>138.0</ele><time>2026-04-25T16:07:01.295Z</time></trkpt><trkpt lat="43.4337637" lon="11.1440909"><ele>138.0</ele><time>2026-04-25T16:07:02.31Z</time></trkpt><trkpt lat="43.4338349" lon="11.1440247"><ele>138.0</ele><time>2026-04-25T16:07:04.31Z</time></trkpt><trkpt lat="43.4339111" lon="11.1440332"><ele>138.0</ele><time>2026-04-25T16:07:06.282Z</time></trkpt><trkpt lat="43.4339799" lon="11.1439947"><ele>138.0</ele><time>2026-04-25T16:07:08.294Z</time></trkpt><trkpt lat="43.434008" lon="11.1438389"><ele>135.0</ele><time>2026-04-25T16:07:10.298Z</time></trkpt><trkpt lat="43.4340152" lon="11.1437492"><ele>132.0</ele><time>2026-04-25T16:07:11.317Z</time></trkpt><trkpt lat="43.4340307" lon="11.143614"><ele>129.0</ele><time>2026-04-25T16:07:12.302Z</time></trkpt><trkpt lat="43.4340461" lon="11.1434316"><ele>126.0</ele><time>2026-04-25T16:07:13.308Z</time></trkpt><trkpt lat="43.4340648" lon="11.1432289"><ele>123.0</ele><time>2026-04-25T16:07:14.282Z</time></trkpt><trkpt lat="43.4340651" lon="11.1430251"><ele>122.66666666666666</ele><time>2026-04-25T16:07:15.291Z</time></trkpt><trkpt lat="43.4340487" lon="11.14281"><ele>122.33333333333333</ele><time>2026-04-25T16:07:16.307Z</time></trkpt><trkpt lat="43.4340057" lon="11.1426146"><ele>122.0</ele><time>2026-04-25T16:07:17.304Z</time></trkpt><trkpt lat="43.4339428" lon="11.1424301"><ele>121.33333333333333</ele><time>2026-04-25T16:07:18.29Z</time></trkpt><trkpt lat="43.4338527" lon="11.1422601"><ele>120.66666666666666</ele><time>2026-04-25T16:07:19.301Z</time></trkpt><trkpt lat="43.4337428" lon="11.142089"><ele>120.0</ele><time>2026-04-25T16:07:20.309Z</time></trkpt><trkpt lat="43.4336289" lon="11.1419214"><ele>120.33333333333334</ele><time>2026-04-25T16:07:21.302Z</time></trkpt><trkpt lat="43.4335113" lon="11.1417564"><ele>120.66666666666667</ele><time>2026-04-25T16:07:22.308Z</time></trkpt><trkpt lat="43.433383" lon="11.1415752"><ele>121.0</ele><time>2026-04-25T16:07:23.328Z</time></trkpt><trkpt lat="43.4332622" lon="11.1413978"><ele>121.0</ele><time>2026-04-25T16:07:24.308Z</time></trkpt><trkpt lat="43.4331419" lon="11.1412237"><ele>121.0</ele><time>2026-04-25T16:07:25.312Z</time></trkpt><trkpt lat="43.4330314" lon="11.1410562"><ele>121.0</ele><time>2026-04-25T16:07:26.299Z</time></trkpt><trkpt lat="43.4329256" lon="11.1408914"><ele>120.0</ele><time>2026-04-25T16:07:27.313Z</time></trkpt><trkpt lat="43.4328624" lon="11.1407216"><ele>119.0</ele><time>2026-04-25T16:07:28.311Z</time></trkpt><trkpt lat="43.4328558" lon="11.1405637"><ele>118.0</ele><time>2026-04-25T16:07:29.306Z</time></trkpt><trkpt lat="43.4328908" lon="11.1403893"><ele>117.0</ele><time>2026-04-25T16:07:30.305Z</time></trkpt><trkpt lat="43.4329463" lon="11.1401973"><ele>118.75</ele><time>2026-04-25T16:07:31.309Z</time></trkpt><trkpt lat="43.4329973" lon="11.1400233"><ele>120.5</ele><time>2026-04-25T16:07:32.298Z</time></trkpt><trkpt lat="43.4330539" lon="11.1398626"><ele>122.25</ele><time>2026-04-25T16:07:33.297Z</time></trkpt><trkpt lat="43.4330579" lon="11.1397151"><ele>124.0</ele><time>2026-04-25T16:07:34.304Z</time></trkpt><trkpt lat="43.4330042" lon="11.1395724"><ele>124.0</ele><time>2026-04-25T16:07:35.327Z</time></trkpt><trkpt lat="43.4329127" lon="11.1394569"><ele>124.0</ele><time>2026-04-25T16:07:36.304Z</time></trkpt><trkpt lat="43.4327875" lon="11.1393445"><ele>124.0</ele><time>2026-04-25T16:07:37.297Z</time></trkpt><trkpt lat="43.4326455" lon="11.1392369"><ele>124.0</ele><time>2026-04-25T16:07:38.312Z</time></trkpt><trkpt lat="43.4324972" lon="11.1391058"><ele>123.66666666666667</ele><time>2026-04-25T16:07:39.301Z</time></trkpt><trkpt lat="43.4323472" lon="11.1389792"><ele>123.33333333333334</ele><time>2026-04-25T16:07:40.306Z</time></trkpt><trkpt lat="43.432201" lon="11.1388458"><ele>123.0</ele><time>2026-04-25T16:07:41.31Z</time></trkpt><trkpt lat="43.4320574" lon="11.1387224"><ele>123.0</ele><time>2026-04-25T16:07:42.323Z</time></trkpt><trkpt lat="43.4319303" lon="11.1386001"><ele>123.0</ele><time>2026-04-25T16:07:43.311Z</time></trkpt><trkpt lat="43.4318063" lon="11.1384679"><ele>123.0</ele><time>2026-04-25T16:07:44.303Z</time></trkpt><trkpt lat="43.4316975" lon="11.1383428"><ele>123.25</ele><time>2026-04-25T16:07:45.294Z</time></trkpt><trkpt lat="43.4316224" lon="11.1381769"><ele>123.5</ele><time>2026-04-25T16:07:46.303Z</time></trkpt><trkpt lat="43.4316054" lon="11.1379782"><ele>123.75</ele><time>2026-04-25T16:07:47.295Z</time></trkpt><trkpt lat="43.431606" lon="11.137777"><ele>124.0</ele><time>2026-04-25T16:07:48.301Z</time></trkpt><trkpt lat="43.43163" lon="11.1375682"><ele>123.0</ele><time>2026-04-25T16:07:49.288Z</time></trkpt><trkpt lat="43.4316632" lon="11.1373469"><ele>122.0</ele><time>2026-04-25T16:07:50.302Z</time></trkpt><trkpt lat="43.4316935" lon="11.137116"><ele>121.0</ele><time>2026-04-25T16:07:51.314Z</time></trkpt><trkpt lat="43.4317245" lon="11.1368902"><ele>121.0</ele><time>2026-04-25T16:07:52.298Z</time></trkpt><trkpt lat="43.431745" lon="11.1366623"><ele>121.0</ele><time>2026-04-25T16:07:53.306Z</time></trkpt><trkpt lat="43.4317712" lon="11.1364358"><ele>121.0</ele><time>2026-04-25T16:07:54.3Z</time></trkpt><trkpt lat="43.4317935" lon="11.1362095"><ele>120.66666666666667</ele><time>2026-04-25T16:07:55.296Z</time></trkpt><trkpt lat="43.4318067" lon="11.1359796"><ele>120.33333333333334</ele><time>2026-04-25T16:07:56.306Z</time></trkpt><trkpt lat="43.4318307" lon="11.1357504"><ele>120.0</ele><time>2026-04-25T16:07:57.302Z</time></trkpt><trkpt lat="43.4318544" lon="11.1355146"><ele>119.66666666666666</ele><time>2026-04-25T16:07:58.299Z</time></trkpt><trkpt lat="43.4318879" lon="11.1352859"><ele>119.33333333333333</ele><time>2026-04-25T16:07:59.305Z</time></trkpt><trkpt lat="43.4319206" lon="11.1350571"><ele>119.0</ele><time>2026-04-25T16:08:00.308Z</time></trkpt><trkpt lat="43.4319488" lon="11.1348337"><ele>119.0</ele><time>2026-04-25T16:08:01.3Z</time></trkpt><trkpt lat="43.4319713" lon="11.1346247"><ele>119.0</ele><time>2026-04-25T16:08:02.3Z</time></trkpt><trkpt lat="43.431986" lon="11.1344165"><ele>119.0</ele><time>2026-04-25T16:08:03.293Z</time></trkpt><trkpt lat="43.431988" lon="11.1342135"><ele>121.5</ele><time>2026-04-25T16:08:04.31Z</time></trkpt><trkpt lat="43.4319491" lon="11.1340191"><ele>124.0</ele><time>2026-04-25T16:08:05.291Z</time></trkpt><trkpt lat="43.4318752" lon="11.1338465"><ele>126.5</ele><time>2026-04-25T16:08:06.284Z</time></trkpt><trkpt lat="43.4317747" lon="11.133699"><ele>129.0</ele><time>2026-04-25T16:08:07.306Z</time></trkpt><trkpt lat="43.4316789" lon="11.1335786"><ele>129.0</ele><time>2026-04-25T16:08:08.309Z</time></trkpt><trkpt lat="43.4315901" lon="11.1334655"><ele>129.0</ele><time>2026-04-25T16:08:09.302Z</time></trkpt><trkpt lat="43.4315175" lon="11.1333646"><ele>129.0</ele><time>2026-04-25T16:08:10.311Z</time></trkpt><trkpt lat="43.4314587" lon="11.1332582"><ele>129.0</ele><time>2026-04-25T16:08:11.302Z</time></trkpt><trkpt lat="43.4314005" lon="11.1331276"><ele>129.0</ele><time>2026-04-25T16:08:12.298Z</time></trkpt><trkpt lat="43.4313605" lon="11.1329725"><ele>131.75</ele><time>2026-04-25T16:08:13.309Z</time></trkpt><trkpt lat="43.4313559" lon="11.132805"><ele>134.5</ele><time>2026-04-25T16:08:14.311Z</time></trkpt><trkpt lat="43.4313557" lon="11.1326359"><ele>137.25</ele><time>2026-04-25T16:08:15.313Z</time></trkpt><trkpt lat="43.4313645" lon="11.1324618"><ele>140.0</ele><time>2026-04-25T16:08:16.296Z</time></trkpt><trkpt lat="43.4313731" lon="11.1322896"><ele>140.25</ele><time>2026-04-25T16:08:17.298Z</time></trkpt><trkpt lat="43.4313884" lon="11.1321309"><ele>140.5</ele><time>2026-04-25T16:08:18.291Z</time></trkpt><trkpt lat="43.4313984" lon="11.1319663"><ele>140.75</ele><time>2026-04-25T16:08:19.303Z</time></trkpt><trkpt lat="43.4314145" lon="11.131805"><ele>141.0</ele><time>2026-04-25T16:08:20.3Z</time></trkpt><trkpt lat="43.4314344" lon="11.1316381"><ele>142.25</ele><time>2026-04-25T16:08:21.303Z</time></trkpt><trkpt lat="43.4314526" lon="11.1314582"><ele>143.5</ele><time>2026-04-25T16:08:22.303Z</time></trkpt><trkpt lat="43.4314568" lon="11.1312713"><ele>144.75</ele><time>2026-04-25T16:08:23.309Z</time></trkpt><trkpt lat="43.4314318" lon="11.1310798"><ele>146.0</ele><time>2026-04-25T16:08:24.304Z</time></trkpt><trkpt lat="43.4313709" lon="11.1309104"><ele>140.75</ele><time>2026-04-25T16:08:25.308Z</time></trkpt><trkpt lat="43.4313028" lon="11.1307342"><ele>135.5</ele><time>2026-04-25T16:08:26.306Z</time></trkpt><trkpt lat="43.4312225" lon="11.1305561"><ele>130.25</ele><time>2026-04-25T16:08:27.312Z</time></trkpt><trkpt lat="43.4311456" lon="11.130384"><ele>125.0</ele><time>2026-04-25T16:08:28.308Z</time></trkpt><trkpt lat="43.4310738" lon="11.1302073"><ele>125.0</ele><time>2026-04-25T16:08:29.307Z</time></trkpt><trkpt lat="43.431006" lon="11.130034"><ele>125.0</ele><time>2026-04-25T16:08:30.304Z</time></trkpt><trkpt lat="43.4309352" lon="11.1298576"><ele>125.0</ele><time>2026-04-25T16:08:31.304Z</time></trkpt><trkpt lat="43.4308615" lon="11.1296779"><ele>125.0</ele><time>2026-04-25T16:08:32.301Z</time></trkpt><trkpt lat="43.4307903" lon="11.1294884"><ele>127.33333333333333</ele><time>2026-04-25T16:08:33.314Z</time></trkpt><trkpt lat="43.4307187" lon="11.1292974"><ele>129.66666666666666</ele><time>2026-04-25T16:08:34.31Z</time></trkpt><trkpt lat="43.4306499" lon="11.1291104"><ele>132.0</ele><time>2026-04-25T16:08:35.297Z</time></trkpt><trkpt lat="43.430575" lon="11.1289227"><ele>132.33333333333334</ele><time>2026-04-25T16:08:36.302Z</time></trkpt><trkpt lat="43.4304996" lon="11.1287264"><ele>132.66666666666669</ele><time>2026-04-25T16:08:37.318Z</time></trkpt><trkpt lat="43.4304227" lon="11.1285219"><ele>133.0</ele><time>2026-04-25T16:08:38.305Z</time></trkpt><trkpt lat="43.430343" lon="11.1283171"><ele>133.0</ele><time>2026-04-25T16:08:39.322Z</time></trkpt><trkpt lat="43.4302637" lon="11.128129"><ele>133.0</ele><time>2026-04-25T16:08:40.31Z</time></trkpt><trkpt lat="43.4301835" lon="11.1279492"><ele>133.0</ele><time>2026-04-25T16:08:41.307Z</time></trkpt><trkpt lat="43.4301079" lon="11.127785"><ele>133.0</ele><time>2026-04-25T16:08:42.311Z</time></trkpt><trkpt lat="43.430029" lon="11.12764"><ele>133.0</ele><time>2026-04-25T16:08:43.305Z</time></trkpt><trkpt lat="43.4299481" lon="11.1274981"><ele>133.0</ele><time>2026-04-25T16:08:44.307Z</time></trkpt><trkpt lat="43.4298698" lon="11.1273784"><ele>133.0</ele><time>2026-04-25T16:08:45.302Z</time></trkpt><trkpt lat="43.4297887" lon="11.1272735"><ele>133.20000000000002</ele><time>2026-04-25T16:08:46.304Z</time></trkpt><trkpt lat="43.4297152" lon="11.1271931"><ele>133.4</ele><time>2026-04-25T16:08:47.308Z</time></trkpt><trkpt lat="43.4296423" lon="11.1271145"><ele>133.60000000000002</ele><time>2026-04-25T16:08:48.301Z</time></trkpt><trkpt lat="43.4295607" lon="11.1270282"><ele>133.8</ele><time>2026-04-25T16:08:49.305Z</time></trkpt><trkpt lat="43.4294838" lon="11.1269502"><ele>134.0</ele><time>2026-04-25T16:08:50.308Z</time></trkpt><trkpt lat="43.4294012" lon="11.1268698"><ele>134.2</ele><time>2026-04-25T16:08:51.311Z</time></trkpt><trkpt lat="43.4293199" lon="11.1268013"><ele>134.4</ele><time>2026-04-25T16:08:52.318Z</time></trkpt><trkpt lat="43.4292348" lon="11.1267494"><ele>134.6</ele><time>2026-04-25T16:08:53.314Z</time></trkpt><trkpt lat="43.4291528" lon="11.126698"><ele>134.8</ele><time>2026-04-25T16:08:54.305Z</time></trkpt><trkpt lat="43.4290583" lon="11.1266464"><ele>135.0</ele><time>2026-04-25T16:08:55.316Z</time></trkpt><trkpt lat="43.4289519" lon="11.126595"><ele>136.5</ele><time>2026-04-25T16:08:56.306Z</time></trkpt><trkpt lat="43.4288341" lon="11.1265607"><ele>138.0</ele><time>2026-04-25T16:08:57.298Z</time></trkpt><trkpt lat="43.4287189" lon="11.1265373"><ele>139.5</ele><time>2026-04-25T16:08:58.314Z</time></trkpt><trkpt lat="43.4286009" lon="11.1265155"><ele>141.0</ele><time>2026-04-25T16:08:59.309Z</time></trkpt><trkpt lat="43.428488" lon="11.1264927"><ele>141.0</ele><time>2026-04-25T16:09:00.306Z</time></trkpt><trkpt lat="43.4283757" lon="11.1264708"><ele>141.0</ele><time>2026-04-25T16:09:01.294Z</time></trkpt><trkpt lat="43.4282688" lon="11.1264533"><ele>141.0</ele><time>2026-04-25T16:09:02.31Z</time></trkpt><trkpt lat="43.428158" lon="11.1264329"><ele>141.0</ele><time>2026-04-25T16:09:03.293Z</time></trkpt><trkpt lat="43.4280463" lon="11.1264224"><ele>141.0</ele><time>2026-04-25T16:09:04.305Z</time></trkpt><trkpt lat="43.4279354" lon="11.1264044"><ele>140.8</ele><time>2026-04-25T16:09:05.308Z</time></trkpt><trkpt lat="43.4278262" lon="11.1263904"><ele>140.6</ele><time>2026-04-25T16:09:06.313Z</time></trkpt><trkpt lat="43.4277256" lon="11.1263698"><ele>140.4</ele><time>2026-04-25T16:09:07.306Z</time></trkpt><trkpt lat="43.4276251" lon="11.1263492"><ele>140.2</ele><time>2026-04-25T16:09:08.305Z</time></trkpt><trkpt lat="43.427528" lon="11.1263323"><ele>140.0</ele><time>2026-04-25T16:09:09.288Z</time></trkpt><trkpt lat="43.4274305" lon="11.1263123"><ele>140.0</ele><time>2026-04-25T16:09:10.301Z</time></trkpt><trkpt lat="43.4273321" lon="11.1262873"><ele>140.0</ele><time>2026-04-25T16:09:11.325Z</time></trkpt><trkpt lat="43.4272171" lon="11.1262672"><ele>140.0</ele><time>2026-04-25T16:09:12.31Z</time></trkpt><trkpt lat="43.4271036" lon="11.1262465"><ele>140.0</ele><time>2026-04-25T16:09:13.302Z</time></trkpt><trkpt lat="43.4269977" lon="11.1262316"><ele>140.0</ele><time>2026-04-25T16:09:14.309Z</time></trkpt><trkpt lat="43.4268776" lon="11.1262113"><ele>139.8</ele><time>2026-04-25T16:09:15.324Z</time></trkpt><trkpt lat="43.4267555" lon="11.1262015"><ele>139.6</ele><time>2026-04-25T16:09:16.304Z</time></trkpt><trkpt lat="43.4266433" lon="11.1261834"><ele>139.4</ele><time>2026-04-25T16:09:17.312Z</time></trkpt><trkpt lat="43.4265414" lon="11.1261711"><ele>139.2</ele><time>2026-04-25T16:09:18.29Z</time></trkpt><trkpt lat="43.4264386" lon="11.1261569"><ele>139.0</ele><time>2026-04-25T16:09:19.313Z</time></trkpt><trkpt lat="43.4263356" lon="11.1261427"><ele>139.2</ele><time>2026-04-25T16:09:20.306Z</time></trkpt><trkpt lat="43.4262311" lon="11.1261221"><ele>139.4</ele><time>2026-04-25T16:09:21.304Z</time></trkpt><trkpt lat="43.4261286" lon="11.1260954"><ele>139.6</ele><time>2026-04-25T16:09:22.292Z</time></trkpt><trkpt lat="43.4260323" lon="11.1260685"><ele>139.8</ele><time>2026-04-25T16:09:23.318Z</time></trkpt><trkpt lat="43.4259457" lon="11.1260508"><ele>140.0</ele><time>2026-04-25T16:09:24.324Z</time></trkpt><trkpt lat="43.425853" lon="11.1260378"><ele>140.0</ele><time>2026-04-25T16:09:25.308Z</time></trkpt><trkpt lat="43.4257643" lon="11.1260235"><ele>140.0</ele><time>2026-04-25T16:09:26.291Z</time></trkpt><trkpt lat="43.4256861" lon="11.1260087"><ele>140.0</ele><time>2026-04-25T16:09:27.315Z</time></trkpt><trkpt lat="43.4256134" lon="11.1259957"><ele>140.0</ele><time>2026-04-25T16:09:28.303Z</time></trkpt><trkpt lat="43.4255464" lon="11.1259789"><ele>140.0</ele><time>2026-04-25T16:09:29.317Z</time></trkpt><trkpt lat="43.425481" lon="11.1259632"><ele>140.0</ele><time>2026-04-25T16:09:30.31Z</time></trkpt><trkpt lat="43.4254159" lon="11.1259476"><ele>140.0</ele><time>2026-04-25T16:09:31.306Z</time></trkpt><trkpt lat="43.4253191" lon="11.1259353"><ele>140.33333333333331</ele><time>2026-04-25T16:09:33.309Z</time></trkpt><trkpt lat="43.4252364" lon="11.1259137"><ele>140.66666666666666</ele><time>2026-04-25T16:09:36.301Z</time></trkpt><trkpt lat="43.425165" lon="11.1258471"><ele>141.0</ele><time>2026-04-25T16:09:40.3Z</time></trkpt><trkpt lat="43.4251057" lon="11.1257989"><ele>141.33333333333334</ele><time>2026-04-25T16:09:41.318Z</time></trkpt><trkpt lat="43.4250456" lon="11.1257623"><ele>141.66666666666669</ele><time>2026-04-25T16:09:42.301Z</time></trkpt><trkpt lat="43.424929" lon="11.1258095"><ele>142.0</ele><time>2026-04-25T16:09:44.31Z</time></trkpt><trkpt lat="43.4248968" lon="11.1259035"><ele>142.0</ele><time>2026-04-25T16:09:46.301Z</time></trkpt><trkpt lat="43.424871" lon="11.1260355"><ele>142.0</ele><time>2026-04-25T16:09:48.313Z</time></trkpt><trkpt lat="43.4248409" lon="11.1261258"><ele>142.0</ele><time>2026-04-25T16:09:49.289Z</time></trkpt><trkpt lat="43.4248052" lon="11.1262126"><ele>142.0</ele><time>2026-04-25T16:09:50.3Z</time></trkpt><trkpt lat="43.4247686" lon="11.1262893"><ele>142.0</ele><time>2026-04-25T16:09:51.311Z</time></trkpt><trkpt lat="43.4247327" lon="11.1263731"><ele>142.0</ele><time>2026-04-25T16:09:52.295Z</time></trkpt><trkpt lat="43.4246857" lon="11.1264518"><ele>141.66666666666669</ele><time>2026-04-25T16:09:53.299Z</time></trkpt><trkpt lat="43.4246319" lon="11.1265333"><ele>141.33333333333334</ele><time>2026-04-25T16:09:54.304Z</time></trkpt><trkpt lat="43.4245818" lon="11.1266139"><ele>141.0</ele><time>2026-04-25T16:09:55.323Z</time></trkpt><trkpt lat="43.4245314" lon="11.1266941"><ele>140.66666666666666</ele><time>2026-04-25T16:09:56.308Z</time></trkpt><trkpt lat="43.4244828" lon="11.1267693"><ele>140.33333333333331</ele><time>2026-04-25T16:09:57.301Z</time></trkpt><trkpt lat="43.4244363" lon="11.1268316"><ele>140.0</ele><time>2026-04-25T16:09:58.316Z</time></trkpt><trkpt lat="43.4243649" lon="11.1269597"><ele>139.6</ele><time>2026-04-25T16:10:00.324Z</time></trkpt><trkpt lat="43.4242734" lon="11.1271057"><ele>139.2</ele><time>2026-04-25T16:10:02.308Z</time></trkpt><trkpt lat="43.4242201" lon="11.1271918"><ele>138.8</ele><time>2026-04-25T16:10:03.306Z</time></trkpt><trkpt lat="43.4241636" lon="11.1272651"><ele>138.4</ele><time>2026-04-25T16:10:04.307Z</time></trkpt><trkpt lat="43.4240375" lon="11.1273302"><ele>138.0</ele><time>2026-04-25T16:10:06.288Z</time></trkpt><trkpt lat="43.4239709" lon="11.1273492"><ele>138.0</ele><time>2026-04-25T16:10:07.3Z</time></trkpt><trkpt lat="43.4239089" lon="11.1273763"><ele>138.0</ele><time>2026-04-25T16:10:08.31Z</time></trkpt><trkpt lat="43.4238056" lon="11.1274183"><ele>138.0</ele><time>2026-04-25T16:10:10.322Z</time></trkpt><trkpt lat="43.4237116" lon="11.1274537"><ele>138.0</ele><time>2026-04-25T16:10:12.319Z</time></trkpt><trkpt lat="43.4236197" lon="11.1274781"><ele>138.0</ele><time>2026-04-25T16:10:14.309Z</time></trkpt><trkpt lat="43.423525" lon="11.1274772"><ele>138.5</ele><time>2026-04-25T16:10:16.319Z</time></trkpt><trkpt lat="43.4234196" lon="11.1274837"><ele>139.0</ele><time>2026-04-25T16:10:18.32Z</time></trkpt><trkpt lat="43.4233195" lon="11.1274913"><ele>139.5</ele><time>2026-04-25T16:10:20.313Z</time></trkpt><trkpt lat="43.4232308" lon="11.1274902"><ele>140.0</ele><time>2026-04-25T16:10:22.31Z</time></trkpt><trkpt lat="43.4231664" lon="11.1275115"><ele>140.5</ele><time>2026-04-25T16:10:29.302Z</time></trkpt><trkpt lat="43.423102" lon="11.1275244"><ele>141.0</ele><time>2026-04-25T16:10:33.308Z</time></trkpt><trkpt lat="43.4230242" lon="11.1275517"><ele>141.16666666666666</ele><time>2026-04-25T16:10:37.302Z</time></trkpt><trkpt lat="43.4229464" lon="11.1275653"><ele>141.33333333333334</ele><time>2026-04-25T16:10:40.303Z</time></trkpt><trkpt lat="43.422856" lon="11.1275717"><ele>141.5</ele><time>2026-04-25T16:10:43.289Z</time></trkpt><trkpt lat="43.4227825" lon="11.1275753"><ele>141.66666666666669</ele><time>2026-04-25T16:10:45.308Z</time></trkpt><trkpt lat="43.4227003" lon="11.1275884"><ele>141.83333333333334</ele><time>2026-04-25T16:10:47.309Z</time></trkpt><trkpt lat="43.4226226" lon="11.127587"><ele>142.0</ele><time>2026-04-25T16:10:49.286Z</time></trkpt><trkpt lat="43.422554" lon="11.1276059"><ele>142.0</ele><time>2026-04-25T16:10:57.311Z</time></trkpt><trkpt lat="43.4224641" lon="11.1276986"><ele>142.0</ele><time>2026-04-25T16:11:01.307Z</time></trkpt><trkpt lat="43.4223839" lon="11.1277852"><ele>142.0</ele><time>2026-04-25T16:11:03.296Z</time></trkpt><trkpt lat="43.4223329" lon="11.1278504"><ele>142.0</ele><time>2026-04-25T16:11:05.305Z</time></trkpt><trkpt lat="43.4222625" lon="11.1279199"><ele>142.0</ele><time>2026-04-25T16:11:08.299Z</time></trkpt><trkpt lat="43.4222154" lon="11.1279862"><ele>142.0</ele><time>2026-04-25T16:11:11.299Z</time></trkpt><trkpt lat="43.4221845" lon="11.128097"><ele>142.79999999999998</ele><time>2026-04-25T16:11:26.298Z</time></trkpt><trkpt lat="43.4221325" lon="11.1282208"><ele>143.6</ele><time>2026-04-25T16:11:28.306Z</time></trkpt><trkpt lat="43.422068" lon="11.1283228"><ele>144.39999999999998</ele><time>2026-04-25T16:11:30.309Z</time></trkpt><trkpt lat="43.4219722" lon="11.1284512"><ele>145.2</ele><time>2026-04-25T16:11:32.319Z</time></trkpt><trkpt lat="43.4219288" lon="11.1285181"><ele>146.0</ele><time>2026-04-25T16:11:33.309Z</time></trkpt><trkpt lat="43.4218523" lon="11.1286285"><ele>146.0</ele><time>2026-04-25T16:11:35.302Z</time></trkpt><trkpt lat="43.4217635" lon="11.1286749"><ele>146.0</ele><time>2026-04-25T16:11:37.314Z</time></trkpt><trkpt lat="43.4216715" lon="11.128695"><ele>146.0</ele><time>2026-04-25T16:11:39.294Z</time></trkpt><trkpt lat="43.4216072" lon="11.1286781"><ele>146.0</ele><time>2026-04-25T16:11:40.309Z</time></trkpt><trkpt lat="43.4215314" lon="11.128621"><ele>146.0</ele><time>2026-04-25T16:11:41.315Z</time></trkpt><trkpt lat="43.4214638" lon="11.1285334"><ele>146.0</ele><time>2026-04-25T16:11:42.294Z</time></trkpt><trkpt lat="43.42137" lon="11.128428"><ele>146.6</ele><time>2026-04-25T16:11:43.302Z</time></trkpt><trkpt lat="43.4212862" lon="11.1283365"><ele>147.2</ele><time>2026-04-25T16:11:44.304Z</time></trkpt><trkpt lat="43.4212149" lon="11.1282517"><ele>147.8</ele><time>2026-04-25T16:11:45.32Z</time></trkpt><trkpt lat="43.4211339" lon="11.1281876"><ele>148.4</ele><time>2026-04-25T16:11:46.308Z</time></trkpt><trkpt lat="43.4210676" lon="11.1281213"><ele>149.0</ele><time>2026-04-25T16:11:47.323Z</time></trkpt><trkpt lat="43.4209906" lon="11.1280707"><ele>149.0</ele><time>2026-04-25T16:11:48.297Z</time></trkpt><trkpt lat="43.4209189" lon="11.1280051"><ele>149.0</ele><time>2026-04-25T16:11:49.306Z</time></trkpt><trkpt lat="43.4208489" lon="11.1279275"><ele>149.0</ele><time>2026-04-25T16:11:50.313Z</time></trkpt><trkpt lat="43.4207913" lon="11.127868"><ele>149.0</ele><time>2026-04-25T16:11:51.298Z</time></trkpt><trkpt lat="43.4207264" lon="11.1278118"><ele>149.0</ele><time>2026-04-25T16:11:52.308Z</time></trkpt><trkpt lat="43.4206668" lon="11.1277588"><ele>149.0</ele><time>2026-04-25T16:11:53.309Z</time></trkpt><trkpt lat="43.4206074" lon="11.1277025"><ele>149.0</ele><time>2026-04-25T16:11:54.309Z</time></trkpt><trkpt lat="43.4205455" lon="11.1276385"><ele>149.0</ele><time>2026-04-25T16:11:55.312Z</time></trkpt><trkpt lat="43.4204854" lon="11.127575"><ele>149.0</ele><time>2026-04-25T16:11:56.319Z</time></trkpt><trkpt lat="43.4204222" lon="11.1275215"><ele>149.0</ele><time>2026-04-25T16:11:57.311Z</time></trkpt><trkpt lat="43.4203677" lon="11.1274694"><ele>149.0</ele><time>2026-04-25T16:11:58.322Z</time></trkpt><trkpt lat="43.4202667" lon="11.1273857"><ele>149.0</ele><time>2026-04-25T16:12:00.317Z</time></trkpt><trkpt lat="43.4201643" lon="11.1273064"><ele>149.5</ele><time>2026-04-25T16:12:02.281Z</time></trkpt><trkpt lat="43.4200743" lon="11.1272535"><ele>150.0</ele><time>2026-04-25T16:12:04.314Z</time></trkpt><trkpt lat="43.4199778" lon="11.1272479"><ele>150.5</ele><time>2026-04-25T16:12:07.306Z</time></trkpt><trkpt lat="43.4199022" lon="11.1273427"><ele>151.0</ele><time>2026-04-25T16:12:09.307Z</time></trkpt><trkpt lat="43.4198528" lon="11.1274013"><ele>151.5</ele><time>2026-04-25T16:12:10.315Z</time></trkpt><trkpt lat="43.4198" lon="11.1274554"><ele>152.0</ele><time>2026-04-25T16:12:11.313Z</time></trkpt><trkpt lat="43.4197545" lon="11.1275185"><ele>152.0</ele><time>2026-04-25T16:12:12.313Z</time></trkpt><trkpt lat="43.4197085" lon="11.1275928"><ele>152.0</ele><time>2026-04-25T16:12:13.295Z</time></trkpt><trkpt lat="43.4196471" lon="11.1276811"><ele>152.0</ele><time>2026-04-25T16:12:14.306Z</time></trkpt><trkpt lat="43.4195809" lon="11.1277629"><ele>152.0</ele><time>2026-04-25T16:12:15.317Z</time></trkpt><trkpt lat="43.419514" lon="11.127838"><ele>152.0</ele><time>2026-04-25T16:12:16.32Z</time></trkpt><trkpt lat="43.419448" lon="11.1279179"><ele>152.0</ele><time>2026-04-25T16:12:17.286Z</time></trkpt><trkpt lat="43.4193819" lon="11.1280057"><ele>152.2</ele><time>2026-04-25T16:12:18.305Z</time></trkpt><trkpt lat="43.4193159" lon="11.1280889"><ele>152.39999999999998</ele><time>2026-04-25T16:12:19.31Z</time></trkpt><trkpt lat="43.4192518" lon="11.1281818"><ele>152.60000000000002</ele><time>2026-04-25T16:12:20.296Z</time></trkpt><trkpt lat="43.4191829" lon="11.1282738"><ele>152.8</ele><time>2026-04-25T16:12:21.31Z</time></trkpt><trkpt lat="43.419111" lon="11.1283855"><ele>153.0</ele><time>2026-04-25T16:12:22.319Z</time></trkpt><trkpt lat="43.4190318" lon="11.1284984"><ele>153.5</ele><time>2026-04-25T16:12:23.302Z</time></trkpt><trkpt lat="43.4189538" lon="11.1286146"><ele>154.0</ele><time>2026-04-25T16:12:24.313Z</time></trkpt><trkpt lat="43.4188787" lon="11.1287238"><ele>154.5</ele><time>2026-04-25T16:12:25.308Z</time></trkpt><trkpt lat="43.418805" lon="11.1288418"><ele>155.0</ele><time>2026-04-25T16:12:26.308Z</time></trkpt><trkpt lat="43.4187315" lon="11.128959"><ele>156.0</ele><time>2026-04-25T16:12:27.308Z</time></trkpt><trkpt lat="43.418653" lon="11.1290677"><ele>157.0</ele><time>2026-04-25T16:12:28.312Z</time></trkpt><trkpt lat="43.4185685" lon="11.1291797"><ele>158.0</ele><time>2026-04-25T16:12:29.311Z</time></trkpt><trkpt lat="43.4184808" lon="11.1292845"><ele>159.0</ele><time>2026-04-25T16:12:30.308Z</time></trkpt><trkpt lat="43.4184039" lon="11.1293888"><ele>159.0</ele><time>2026-04-25T16:12:31.317Z</time></trkpt><trkpt lat="43.418321" lon="11.1294919"><ele>159.0</ele><time>2026-04-25T16:12:32.319Z</time></trkpt><trkpt lat="43.418237" lon="11.1296189"><ele>159.0</ele><time>2026-04-25T16:12:33.298Z</time></trkpt><trkpt lat="43.4181473" lon="11.1297488"><ele>159.0</ele><time>2026-04-25T16:12:34.301Z</time></trkpt><trkpt lat="43.4180465" lon="11.129857"><ele>161.75</ele><time>2026-04-25T16:12:35.303Z</time></trkpt><trkpt lat="43.417954" lon="11.1299646"><ele>164.5</ele><time>2026-04-25T16:12:36.321Z</time></trkpt><trkpt lat="43.4178657" lon="11.1300809"><ele>167.25</ele><time>2026-04-25T16:12:37.324Z</time></trkpt><trkpt lat="43.4177779" lon="11.1301954"><ele>170.0</ele><time>2026-04-25T16:12:38.321Z</time></trkpt><trkpt lat="43.4176867" lon="11.1303099"><ele>170.0</ele><time>2026-04-25T16:12:39.325Z</time></trkpt><trkpt lat="43.4176081" lon="11.1304268"><ele>170.0</ele><time>2026-04-25T16:12:40.309Z</time></trkpt><trkpt lat="43.4175372" lon="11.1305296"><ele>170.0</ele><time>2026-04-25T16:12:41.322Z</time></trkpt><trkpt lat="43.4174704" lon="11.1306249"><ele>170.0</ele><time>2026-04-25T16:12:42.306Z</time></trkpt><trkpt lat="43.4173996" lon="11.1307135"><ele>170.0</ele><time>2026-04-25T16:12:43.3Z</time></trkpt><trkpt lat="43.4173289" lon="11.1308173"><ele>170.75</ele><time>2026-04-25T16:12:44.295Z</time></trkpt><trkpt lat="43.4172479" lon="11.1309055"><ele>171.5</ele><time>2026-04-25T16:12:45.299Z</time></trkpt><trkpt lat="43.4171589" lon="11.1310019"><ele>172.25</ele><time>2026-04-25T16:12:46.3Z</time></trkpt><trkpt lat="43.4170523" lon="11.1310996"><ele>173.0</ele><time>2026-04-25T16:12:47.298Z</time></trkpt><trkpt lat="43.4169357" lon="11.1311989"><ele>173.0</ele><time>2026-04-25T16:12:48.3Z</time></trkpt><trkpt lat="43.4168131" lon="11.1312935"><ele>173.0</ele><time>2026-04-25T16:12:49.306Z</time></trkpt><trkpt lat="43.4166934" lon="11.1313942"><ele>173.0</ele><time>2026-04-25T16:12:50.291Z</time></trkpt><trkpt lat="43.416582" lon="11.1314921"><ele>173.0</ele><time>2026-04-25T16:12:51.308Z</time></trkpt><trkpt lat="43.4164749" lon="11.1315716"><ele>171.25</ele><time>2026-04-25T16:12:52.294Z</time></trkpt><trkpt lat="43.4163626" lon="11.1316526"><ele>169.5</ele><time>2026-04-25T16:12:53.294Z</time></trkpt><trkpt lat="43.416249" lon="11.1317147"><ele>167.75</ele><time>2026-04-25T16:12:54.296Z</time></trkpt><trkpt lat="43.4161417" lon="11.1317468"><ele>166.0</ele><time>2026-04-25T16:12:55.312Z</time></trkpt><trkpt lat="43.4160397" lon="11.1317613"><ele>165.83333333333334</ele><time>2026-04-25T16:12:56.289Z</time></trkpt><trkpt lat="43.4159432" lon="11.1317522"><ele>165.66666666666669</ele><time>2026-04-25T16:12:57.299Z</time></trkpt><trkpt lat="43.4158512" lon="11.1317146"><ele>165.5</ele><time>2026-04-25T16:12:58.313Z</time></trkpt><trkpt lat="43.415763" lon="11.1316764"><ele>165.33333333333334</ele><time>2026-04-25T16:12:59.314Z</time></trkpt><trkpt lat="43.415673" lon="11.1316775"><ele>165.16666666666666</ele><time>2026-04-25T16:13:00.299Z</time></trkpt><trkpt lat="43.4156058" lon="11.1317089"><ele>165.0</ele><time>2026-04-25T16:13:01.313Z</time></trkpt><trkpt lat="43.4155273" lon="11.1317923"><ele>165.0</ele><time>2026-04-25T16:13:02.287Z</time></trkpt><trkpt lat="43.415453" lon="11.1318703"><ele>165.0</ele><time>2026-04-25T16:13:03.297Z</time></trkpt><trkpt lat="43.4153393" lon="11.1319278"><ele>165.0</ele><time>2026-04-25T16:13:04.303Z</time></trkpt><trkpt lat="43.4152067" lon="11.1319541"><ele>165.0</ele><time>2026-04-25T16:13:05.305Z</time></trkpt><trkpt lat="43.4150645" lon="11.1319635"><ele>165.0</ele><time>2026-04-25T16:13:06.3Z</time></trkpt><trkpt lat="43.4149253" lon="11.1319836"><ele>165.0</ele><time>2026-04-25T16:13:07.318Z</time></trkpt><trkpt lat="43.4147933" lon="11.1320174"><ele>165.0</ele><time>2026-04-25T16:13:08.317Z</time></trkpt><trkpt lat="43.4146549" lon="11.1320581"><ele>165.0</ele><time>2026-04-25T16:13:09.311Z</time></trkpt><trkpt lat="43.4145187" lon="11.1320924"><ele>164.75</ele><time>2026-04-25T16:13:10.317Z</time></trkpt><trkpt lat="43.4143976" lon="11.1321146"><ele>164.5</ele><time>2026-04-25T16:13:11.308Z</time></trkpt><trkpt lat="43.4142849" lon="11.1321397"><ele>164.25</ele><time>2026-04-25T16:13:12.308Z</time></trkpt><trkpt lat="43.414172" lon="11.132164"><ele>164.0</ele><time>2026-04-25T16:13:13.313Z</time></trkpt><trkpt lat="43.4140655" lon="11.1321914"><ele>164.0</ele><time>2026-04-25T16:13:14.315Z</time></trkpt><trkpt lat="43.4139649" lon="11.1322081"><ele>164.0</ele><time>2026-04-25T16:13:15.304Z</time></trkpt><trkpt lat="43.4138755" lon="11.1322271"><ele>164.0</ele><time>2026-04-25T16:13:16.316Z</time></trkpt><trkpt lat="43.4137951" lon="11.1322467"><ele>164.0</ele><time>2026-04-25T16:13:17.308Z</time></trkpt><trkpt lat="43.4137143" lon="11.1322651"><ele>164.0</ele><time>2026-04-25T16:13:18.301Z</time></trkpt><trkpt lat="43.4136369" lon="11.1322866"><ele>164.0</ele><time>2026-04-25T16:13:19.308Z</time></trkpt><trkpt lat="43.4135556" lon="11.1323071"><ele>164.33333333333331</ele><time>2026-04-25T16:13:20.317Z</time></trkpt><trkpt lat="43.4134766" lon="11.1323265"><ele>164.66666666666666</ele><time>2026-04-25T16:13:21.305Z</time></trkpt><trkpt lat="43.4134034" lon="11.1323393"><ele>165.0</ele><time>2026-04-25T16:13:22.313Z</time></trkpt><trkpt lat="43.413329" lon="11.1323554"><ele>165.33333333333334</ele><time>2026-04-25T16:13:23.3Z</time></trkpt><trkpt lat="43.4132454" lon="11.1323628"><ele>165.66666666666669</ele><time>2026-04-25T16:13:24.314Z</time></trkpt><trkpt lat="43.4131638" lon="11.1323731"><ele>166.0</ele><time>2026-04-25T16:13:25.282Z</time></trkpt><trkpt lat="43.4130899" lon="11.1323869"><ele>165.8</ele><time>2026-04-25T16:13:26.316Z</time></trkpt><trkpt lat="43.4130254" lon="11.1324027"><ele>165.60000000000002</ele><time>2026-04-25T16:13:27.307Z</time></trkpt><trkpt lat="43.4129634" lon="11.1324183"><ele>165.4</ele><time>2026-04-25T16:13:28.323Z</time></trkpt><trkpt lat="43.4128597" lon="11.1324427"><ele>165.2</ele><time>2026-04-25T16:13:30.298Z</time></trkpt><trkpt lat="43.4127143" lon="11.1324736"><ele>165.0</ele><time>2026-04-25T16:13:32.311Z</time></trkpt><trkpt lat="43.4126384" lon="11.132485"><ele>165.33333333333334</ele><time>2026-04-25T16:13:33.318Z</time></trkpt><trkpt lat="43.412565" lon="11.1324918"><ele>165.66666666666666</ele><time>2026-04-25T16:13:34.311Z</time></trkpt><trkpt lat="43.4124868" lon="11.1325119"><ele>166.0</ele><time>2026-04-25T16:13:35.308Z</time></trkpt><trkpt lat="43.4124072" lon="11.1325251"><ele>166.33333333333331</ele><time>2026-04-25T16:13:36.293Z</time></trkpt><trkpt lat="43.4123307" lon="11.1325459"><ele>166.66666666666666</ele><time>2026-04-25T16:13:37.292Z</time></trkpt><trkpt lat="43.412248" lon="11.1325684"><ele>167.0</ele><time>2026-04-25T16:13:38.281Z</time></trkpt><trkpt lat="43.4121652" lon="11.1325893"><ele>167.0</ele><time>2026-04-25T16:13:39.277Z</time></trkpt><trkpt lat="43.4120728" lon="11.1326084"><ele>167.0</ele><time>2026-04-25T16:13:40.317Z</time></trkpt><trkpt lat="43.4119642" lon="11.1326249"><ele>167.0</ele><time>2026-04-25T16:13:41.305Z</time></trkpt><trkpt lat="43.4118606" lon="11.1326466"><ele>167.0</ele><time>2026-04-25T16:13:42.309Z</time></trkpt><trkpt lat="43.4117489" lon="11.1326756"><ele>167.0</ele><time>2026-04-25T16:13:43.306Z</time></trkpt><trkpt lat="43.4116284" lon="11.1327172"><ele>167.0</ele><time>2026-04-25T16:13:44.333Z</time></trkpt><trkpt lat="43.4115014" lon="11.1327424"><ele>167.0</ele><time>2026-04-25T16:13:45.313Z</time></trkpt><trkpt lat="43.4113817" lon="11.1327628"><ele>167.0</ele><time>2026-04-25T16:13:46.305Z</time></trkpt><trkpt lat="43.4112726" lon="11.132773"><ele>167.0</ele><time>2026-04-25T16:13:47.309Z</time></trkpt><trkpt lat="43.4111751" lon="11.1327924"><ele>167.39999999999998</ele><time>2026-04-25T16:13:48.308Z</time></trkpt><trkpt lat="43.411085" lon="11.1328009"><ele>167.79999999999998</ele><time>2026-04-25T16:13:49.297Z</time></trkpt><trkpt lat="43.4110063" lon="11.1327861"><ele>168.2</ele><time>2026-04-25T16:13:50.324Z</time></trkpt><trkpt lat="43.4109176" lon="11.1327715"><ele>168.6</ele><time>2026-04-25T16:13:51.306Z</time></trkpt><trkpt lat="43.4108249" lon="11.1327951"><ele>169.0</ele><time>2026-04-25T16:13:52.307Z</time></trkpt><trkpt lat="43.4107138" lon="11.1328494"><ele>169.0</ele><time>2026-04-25T16:13:53.302Z</time></trkpt><trkpt lat="43.4105987" lon="11.1329229"><ele>169.0</ele><time>2026-04-25T16:13:54.312Z</time></trkpt><trkpt lat="43.4104757" lon="11.1329641"><ele>169.0</ele><time>2026-04-25T16:13:55.304Z</time></trkpt><trkpt lat="43.4103697" lon="11.1329763"><ele>169.0</ele><time>2026-04-25T16:13:56.311Z</time></trkpt><trkpt lat="43.4102566" lon="11.132987"><ele>169.2</ele><time>2026-04-25T16:13:57.305Z</time></trkpt><trkpt lat="43.4101452" lon="11.1330086"><ele>169.39999999999998</ele><time>2026-04-25T16:13:58.296Z</time></trkpt><trkpt lat="43.4100332" lon="11.1330346"><ele>169.6</ele><time>2026-04-25T16:13:59.31Z</time></trkpt><trkpt lat="43.4099243" lon="11.1330637"><ele>169.8</ele><time>2026-04-25T16:14:00.309Z</time></trkpt><trkpt lat="43.4098204" lon="11.1330937"><ele>170.0</ele><time>2026-04-25T16:14:01.305Z</time></trkpt><trkpt lat="43.4097212" lon="11.1331211"><ele>170.4</ele><time>2026-04-25T16:14:02.299Z</time></trkpt><trkpt lat="43.4096185" lon="11.1331341"><ele>170.8</ele><time>2026-04-25T16:14:03.3Z</time></trkpt><trkpt lat="43.4095118" lon="11.1331472"><ele>171.2</ele><time>2026-04-25T16:14:04.302Z</time></trkpt><trkpt lat="43.4094044" lon="11.1331675"><ele>171.6</ele><time>2026-04-25T16:14:05.304Z</time></trkpt><trkpt lat="43.4093056" lon="11.1331832"><ele>172.0</ele><time>2026-04-25T16:14:06.306Z</time></trkpt><trkpt lat="43.4092109" lon="11.1331964"><ele>172.0</ele><time>2026-04-25T16:14:07.311Z</time></trkpt><trkpt lat="43.4091267" lon="11.1332067"><ele>172.0</ele><time>2026-04-25T16:14:08.31Z</time></trkpt><trkpt lat="43.4090517" lon="11.1332122"><ele>172.0</ele><time>2026-04-25T16:14:09.319Z</time></trkpt><trkpt lat="43.4089798" lon="11.1332249"><ele>172.0</ele><time>2026-04-25T16:14:10.309Z</time></trkpt><trkpt lat="43.408917" lon="11.1332313"><ele>172.0</ele><time>2026-04-25T16:14:11.308Z</time></trkpt><trkpt lat="43.4088475" lon="11.1332386"><ele>172.0</ele><time>2026-04-25T16:14:12.3Z</time></trkpt><trkpt lat="43.4087398" lon="11.1332553"><ele>170.5</ele><time>2026-04-25T16:14:14.281Z</time></trkpt><trkpt lat="43.4086549" lon="11.1332743"><ele>169.0</ele><time>2026-04-25T16:14:16.28Z</time></trkpt><trkpt lat="43.4085682" lon="11.1332853"><ele>167.5</ele><time>2026-04-25T16:14:18.286Z</time></trkpt><trkpt lat="43.408452" lon="11.1333004"><ele>166.0</ele><time>2026-04-25T16:14:20.313Z</time></trkpt><trkpt lat="43.4083766" lon="11.1333177"><ele>164.5</ele><time>2026-04-25T16:14:21.317Z</time></trkpt><trkpt lat="43.4082988" lon="11.1333323"><ele>163.0</ele><time>2026-04-25T16:14:22.316Z</time></trkpt><trkpt lat="43.4082302" lon="11.1333386"><ele>163.0</ele><time>2026-04-25T16:14:23.308Z</time></trkpt><trkpt lat="43.4081574" lon="11.1333501"><ele>163.0</ele><time>2026-04-25T16:14:24.326Z</time></trkpt><trkpt lat="43.4080865" lon="11.133346"><ele>163.0</ele><time>2026-04-25T16:14:25.321Z</time></trkpt><trkpt lat="43.4080057" lon="11.133348"><ele>163.0</ele><time>2026-04-25T16:14:26.301Z</time></trkpt><trkpt lat="43.4079278" lon="11.1333519"><ele>163.0</ele><time>2026-04-25T16:14:27.305Z</time></trkpt><trkpt lat="43.4078531" lon="11.1333501"><ele>163.0</ele><time>2026-04-25T16:14:28.313Z</time></trkpt><trkpt lat="43.4077777" lon="11.1333543"><ele>163.5</ele><time>2026-04-25T16:14:29.304Z</time></trkpt><trkpt lat="43.4076917" lon="11.1333581"><ele>164.0</ele><time>2026-04-25T16:14:30.306Z</time></trkpt><trkpt lat="43.4076088" lon="11.1333674"><ele>164.5</ele><time>2026-04-25T16:14:31.316Z</time></trkpt><trkpt lat="43.4075205" lon="11.1333903"><ele>165.0</ele><time>2026-04-25T16:14:32.308Z</time></trkpt><trkpt lat="43.4074302" lon="11.1334212"><ele>165.5</ele><time>2026-04-25T16:14:33.308Z</time></trkpt><trkpt lat="43.4073553" lon="11.1334509"><ele>166.0</ele><time>2026-04-25T16:14:34.305Z</time></trkpt><trkpt lat="43.4072892" lon="11.1334785"><ele>166.0</ele><time>2026-04-25T16:14:35.308Z</time></trkpt><trkpt lat="43.4072223" lon="11.1335013"><ele>166.0</ele><time>2026-04-25T16:14:36.307Z</time></trkpt><trkpt lat="43.40711" lon="11.1335414"><ele>166.0</ele><time>2026-04-25T16:14:38.304Z</time></trkpt><trkpt lat="43.4070263" lon="11.1335604"><ele>166.0</ele><time>2026-04-25T16:14:40.311Z</time></trkpt><trkpt lat="43.4069351" lon="11.1335888"><ele>166.0</ele><time>2026-04-25T16:14:42.283Z</time></trkpt><trkpt lat="43.4068707" lon="11.133607"><ele>166.0</ele><time>2026-04-25T16:14:43.326Z</time></trkpt><trkpt lat="43.4067992" lon="11.1336309"><ele>166.83333333333334</ele><time>2026-04-25T16:14:44.303Z</time></trkpt><trkpt lat="43.4067322" lon="11.1336616"><ele>167.66666666666669</ele><time>2026-04-25T16:14:45.314Z</time></trkpt><trkpt lat="43.4066556" lon="11.1336872"><ele>168.5</ele><time>2026-04-25T16:14:46.309Z</time></trkpt><trkpt lat="43.4065736" lon="11.1337181"><ele>169.33333333333334</ele><time>2026-04-25T16:14:47.297Z</time></trkpt><trkpt lat="43.4064841" lon="11.1337453"><ele>170.16666666666666</ele><time>2026-04-25T16:14:48.321Z</time></trkpt><trkpt lat="43.4063936" lon="11.1337754"><ele>171.0</ele><time>2026-04-25T16:14:49.317Z</time></trkpt><trkpt lat="43.4062925" lon="11.133808"><ele>173.5</ele><time>2026-04-25T16:14:50.317Z</time></trkpt><trkpt lat="43.4061744" lon="11.1338365"><ele>176.0</ele><time>2026-04-25T16:14:51.308Z</time></trkpt><trkpt lat="43.4060612" lon="11.1338549"><ele>178.5</ele><time>2026-04-25T16:14:52.31Z</time></trkpt><trkpt lat="43.4059463" lon="11.133875"><ele>181.0</ele><time>2026-04-25T16:14:53.306Z</time></trkpt><trkpt lat="43.4058263" lon="11.1338925"><ele>181.0</ele><time>2026-04-25T16:14:54.311Z</time></trkpt><trkpt lat="43.4057071" lon="11.1339115"><ele>181.0</ele><time>2026-04-25T16:14:55.314Z</time></trkpt><trkpt lat="43.4055954" lon="11.1339245"><ele>181.0</ele><time>2026-04-25T16:14:56.31Z</time></trkpt><trkpt lat="43.405492" lon="11.1339323"><ele>181.0</ele><time>2026-04-25T16:14:57.293Z</time></trkpt><trkpt lat="43.4053983" lon="11.1339287"><ele>181.0</ele><time>2026-04-25T16:14:58.308Z</time></trkpt><trkpt lat="43.4052918" lon="11.1339305"><ele>181.0</ele><time>2026-04-25T16:14:59.314Z</time></trkpt><trkpt lat="43.4051917" lon="11.1339446"><ele>181.0</ele><time>2026-04-25T16:15:00.306Z</time></trkpt><trkpt lat="43.4050905" lon="11.1339618"><ele>181.0</ele><time>2026-04-25T16:15:01.309Z</time></trkpt><trkpt lat="43.4049971" lon="11.1339712"><ele>181.0</ele><time>2026-04-25T16:15:02.309Z</time></trkpt><trkpt lat="43.404909" lon="11.1339827"><ele>181.0</ele><time>2026-04-25T16:15:03.327Z</time></trkpt><trkpt lat="43.4048197" lon="11.1339947"><ele>181.0</ele><time>2026-04-25T16:15:04.3Z</time></trkpt><trkpt lat="43.4047198" lon="11.1340151"><ele>181.0</ele><time>2026-04-25T16:15:05.312Z</time></trkpt><trkpt lat="43.4046226" lon="11.1340409"><ele>181.0</ele><time>2026-04-25T16:15:06.315Z</time></trkpt><trkpt lat="43.4045285" lon="11.1340681"><ele>181.0</ele><time>2026-04-25T16:15:07.317Z</time></trkpt><trkpt lat="43.4044448" lon="11.134095"><ele>181.0</ele><time>2026-04-25T16:15:08.314Z</time></trkpt><trkpt lat="43.404359" lon="11.1341163"><ele>179.66666666666669</ele><time>2026-04-25T16:15:09.308Z</time></trkpt><trkpt lat="43.4042765" lon="11.1341424"><ele>178.33333333333334</ele><time>2026-04-25T16:15:10.323Z</time></trkpt><trkpt lat="43.4041899" lon="11.1341657"><ele>177.0</ele><time>2026-04-25T16:15:11.309Z</time></trkpt><trkpt lat="43.4041019" lon="11.1341941"><ele>175.66666666666666</ele><time>2026-04-25T16:15:12.302Z</time></trkpt><trkpt lat="43.4040162" lon="11.1342227"><ele>174.33333333333331</ele><time>2026-04-25T16:15:13.313Z</time></trkpt><trkpt lat="43.4039353" lon="11.1342531"><ele>173.0</ele><time>2026-04-25T16:15:14.309Z</time></trkpt><trkpt lat="43.4038443" lon="11.134282"><ele>173.16666666666666</ele><time>2026-04-25T16:15:15.314Z</time></trkpt><trkpt lat="43.4037599" lon="11.1343073"><ele>173.33333333333331</ele><time>2026-04-25T16:15:16.307Z</time></trkpt><trkpt lat="43.4036787" lon="11.1343343"><ele>173.5</ele><time>2026-04-25T16:15:17.322Z</time></trkpt><trkpt lat="43.4036021" lon="11.1343696"><ele>173.66666666666666</ele><time>2026-04-25T16:15:18.308Z</time></trkpt><trkpt lat="43.4035272" lon="11.1343953"><ele>173.83333333333334</ele><time>2026-04-25T16:15:19.308Z</time></trkpt><trkpt lat="43.4034517" lon="11.1344315"><ele>174.0</ele><time>2026-04-25T16:15:20.322Z</time></trkpt><trkpt lat="43.4033747" lon="11.1344657"><ele>174.0</ele><time>2026-04-25T16:15:21.317Z</time></trkpt><trkpt lat="43.4032995" lon="11.1344918"><ele>174.0</ele><time>2026-04-25T16:15:22.317Z</time></trkpt><trkpt lat="43.403229" lon="11.1344997"><ele>174.0</ele><time>2026-04-25T16:15:23.316Z</time></trkpt><trkpt lat="43.4031586" lon="11.1345193"><ele>174.0</ele><time>2026-04-25T16:15:24.313Z</time></trkpt><trkpt lat="43.4030825" lon="11.1346512"><ele>174.0</ele><time>2026-04-25T16:15:26.311Z</time></trkpt><trkpt lat="43.4030998" lon="11.1347621"><ele>174.0</ele><time>2026-04-25T16:15:27.313Z</time></trkpt><trkpt lat="43.4031434" lon="11.1348917"><ele>174.25</ele><time>2026-04-25T16:15:28.314Z</time></trkpt><trkpt lat="43.4031754" lon="11.1350365"><ele>174.5</ele><time>2026-04-25T16:15:29.305Z</time></trkpt><trkpt lat="43.4031707" lon="11.135203"><ele>174.75</ele><time>2026-04-25T16:15:30.316Z</time></trkpt><trkpt lat="43.4031264" lon="11.135356"><ele>175.0</ele><time>2026-04-25T16:15:31.314Z</time></trkpt><trkpt lat="43.4030845" lon="11.1354829"><ele>175.0</ele><time>2026-04-25T16:15:32.311Z</time></trkpt><trkpt lat="43.4030936" lon="11.1356077"><ele>175.0</ele><time>2026-04-25T16:15:33.316Z</time></trkpt><trkpt lat="43.4031231" lon="11.1357158"><ele>175.0</ele><time>2026-04-25T16:15:34.314Z</time></trkpt><trkpt lat="43.4031902" lon="11.1358103"><ele>175.0</ele><time>2026-04-25T16:15:35.313Z</time></trkpt><trkpt lat="43.4033015" lon="11.1358949"><ele>175.0</ele><time>2026-04-25T16:15:36.303Z</time></trkpt><trkpt lat="43.4034567" lon="11.1359778"><ele>174.66666666666669</ele><time>2026-04-25T16:15:37.306Z</time></trkpt><trkpt lat="43.4036285" lon="11.1360678"><ele>174.33333333333334</ele><time>2026-04-25T16:15:38.314Z</time></trkpt><trkpt lat="43.4037874" lon="11.1361614"><ele>174.0</ele><time>2026-04-25T16:15:39.313Z</time></trkpt><trkpt lat="43.4039411" lon="11.1362618"><ele>173.33333333333334</ele><time>2026-04-25T16:15:40.321Z</time></trkpt><trkpt lat="43.4041045" lon="11.1363759"><ele>172.66666666666669</ele><time>2026-04-25T16:15:41.319Z</time></trkpt><trkpt lat="43.4042588" lon="11.1365084"><ele>172.0</ele><time>2026-04-25T16:15:42.315Z</time></trkpt><trkpt lat="43.4043967" lon="11.1366487"><ele>172.0</ele><time>2026-04-25T16:15:43.302Z</time></trkpt><trkpt lat="43.4045188" lon="11.1368151"><ele>172.0</ele><time>2026-04-25T16:15:44.32Z</time></trkpt><trkpt lat="43.4046282" lon="11.1369839"><ele>172.0</ele><time>2026-04-25T16:15:45.311Z</time></trkpt><trkpt lat="43.4047353" lon="11.1371642"><ele>171.66666666666669</ele><time>2026-04-25T16:15:46.308Z</time></trkpt><trkpt lat="43.4048468" lon="11.1373573"><ele>171.33333333333334</ele><time>2026-04-25T16:15:47.306Z</time></trkpt><trkpt lat="43.4049483" lon="11.137538"><ele>171.0</ele><time>2026-04-25T16:15:48.319Z</time></trkpt><trkpt lat="43.4050471" lon="11.1377054"><ele>171.0</ele><time>2026-04-25T16:15:49.308Z</time></trkpt><trkpt lat="43.4051394" lon="11.13785"><ele>171.0</ele><time>2026-04-25T16:15:50.313Z</time></trkpt><trkpt lat="43.4052285" lon="11.1379884"><ele>171.0</ele><time>2026-04-25T16:15:51.31Z</time></trkpt><trkpt lat="43.4053024" lon="11.1381278"><ele>171.0</ele><time>2026-04-25T16:15:52.305Z</time></trkpt><trkpt lat="43.4053687" lon="11.1382528"><ele>171.0</ele><time>2026-04-25T16:15:53.297Z</time></trkpt><trkpt lat="43.4054352" lon="11.1383773"><ele>171.0</ele><time>2026-04-25T16:15:54.321Z</time></trkpt><trkpt lat="43.4055013" lon="11.1384927"><ele>171.0</ele><time>2026-04-25T16:15:55.323Z</time></trkpt><trkpt lat="43.4055666" lon="11.1385957"><ele>171.0</ele><time>2026-04-25T16:15:56.323Z</time></trkpt><trkpt lat="43.4056318" lon="11.1387024"><ele>171.0</ele><time>2026-04-25T16:15:57.292Z</time></trkpt><trkpt lat="43.4056989" lon="11.1388134"><ele>170.5</ele><time>2026-04-25T16:15:58.309Z</time></trkpt><trkpt lat="43.4057851" lon="11.1389384"><ele>170.0</ele><time>2026-04-25T16:15:59.314Z</time></trkpt><trkpt lat="43.4058787" lon="11.1390943"><ele>169.5</ele><time>2026-04-25T16:16:00.33Z</time></trkpt><trkpt lat="43.4059798" lon="11.1392754"><ele>169.0</ele><time>2026-04-25T16:16:01.311Z</time></trkpt><trkpt lat="43.4061035" lon="11.139485"><ele>169.0</ele><time>2026-04-25T16:16:02.317Z</time></trkpt><trkpt lat="43.406225" lon="11.1396948"><ele>169.0</ele><time>2026-04-25T16:16:03.33Z</time></trkpt><trkpt lat="43.4063423" lon="11.1398922"><ele>169.0</ele><time>2026-04-25T16:16:04.325Z</time></trkpt><trkpt lat="43.4064444" lon="11.1400692"><ele>168.66666666666669</ele><time>2026-04-25T16:16:05.304Z</time></trkpt><trkpt lat="43.4065358" lon="11.1402572"><ele>168.33333333333334</ele><time>2026-04-25T16:16:06.309Z</time></trkpt><trkpt lat="43.4066166" lon="11.1404547"><ele>168.0</ele><time>2026-04-25T16:16:07.315Z</time></trkpt><trkpt lat="43.4066749" lon="11.1406754"><ele>168.33333333333334</ele><time>2026-04-25T16:16:08.309Z</time></trkpt><trkpt lat="43.4067289" lon="11.1409017"><ele>168.66666666666669</ele><time>2026-04-25T16:16:09.323Z</time></trkpt><trkpt lat="43.4067781" lon="11.1411207"><ele>169.0</ele><time>2026-04-25T16:16:10.317Z</time></trkpt><trkpt lat="43.4068273" lon="11.1413207"><ele>169.0</ele><time>2026-04-25T16:16:11.315Z</time></trkpt><trkpt lat="43.4068775" lon="11.1415072"><ele>169.0</ele><time>2026-04-25T16:16:12.32Z</time></trkpt><trkpt lat="43.4069268" lon="11.1416749"><ele>169.0</ele><time>2026-04-25T16:16:13.307Z</time></trkpt><trkpt lat="43.406961" lon="11.1418289"><ele>169.0</ele><time>2026-04-25T16:16:14.323Z</time></trkpt><trkpt lat="43.4069794" lon="11.1419683"><ele>169.6</ele><time>2026-04-25T16:16:15.307Z</time></trkpt><trkpt lat="43.406956" lon="11.1420913"><ele>170.2</ele><time>2026-04-25T16:16:16.323Z</time></trkpt><trkpt lat="43.4069015" lon="11.1421963"><ele>170.79999999999998</ele><time>2026-04-25T16:16:17.307Z</time></trkpt><trkpt lat="43.4068164" lon="11.1423072"><ele>171.39999999999998</ele><time>2026-04-25T16:16:18.299Z</time></trkpt><trkpt lat="43.406724" lon="11.142378"><ele>172.0</ele><time>2026-04-25T16:16:19.313Z</time></trkpt><trkpt lat="43.4066239" lon="11.1423934"><ele>172.0</ele><time>2026-04-25T16:16:20.297Z</time></trkpt><trkpt lat="43.4065171" lon="11.1423753"><ele>172.0</ele><time>2026-04-25T16:16:21.318Z</time></trkpt><trkpt lat="43.4064078" lon="11.1423224"><ele>172.0</ele><time>2026-04-25T16:16:22.296Z</time></trkpt><trkpt lat="43.406312" lon="11.1423049"><ele>172.0</ele><time>2026-04-25T16:16:23.298Z</time></trkpt><trkpt lat="43.4062011" lon="11.1423422"><ele>172.0</ele><time>2026-04-25T16:16:24.306Z</time></trkpt><trkpt lat="43.4061167" lon="11.1424127"><ele>171.8</ele><time>2026-04-25T16:16:25.305Z</time></trkpt><trkpt lat="43.406053" lon="11.1425204"><ele>171.6</ele><time>2026-04-25T16:16:26.303Z</time></trkpt><trkpt lat="43.4060169" lon="11.1426246"><ele>171.4</ele><time>2026-04-25T16:16:27.299Z</time></trkpt><trkpt lat="43.4059994" lon="11.1427596"><ele>171.20000000000002</ele><time>2026-04-25T16:16:29.305Z</time></trkpt><trkpt lat="43.4060224" lon="11.142897"><ele>171.0</ele><time>2026-04-25T16:16:31.312Z</time></trkpt><trkpt lat="43.4060592" lon="11.1430184"><ele>171.0</ele><time>2026-04-25T16:16:33.314Z</time></trkpt><trkpt lat="43.4061243" lon="11.1431116"><ele>171.0</ele><time>2026-04-25T16:16:35.309Z</time></trkpt><trkpt lat="43.4062393" lon="11.1432052"><ele>171.0</ele><time>2026-04-25T16:16:37.319Z</time></trkpt><trkpt lat="43.4063169" lon="11.1432421"><ele>171.0</ele><time>2026-04-25T16:16:38.312Z</time></trkpt><trkpt lat="43.4064012" lon="11.1432841"><ele>171.0</ele><time>2026-04-25T16:16:39.319Z</time></trkpt><trkpt lat="43.4064844" lon="11.1433271"><ele>171.4</ele><time>2026-04-25T16:16:40.308Z</time></trkpt><trkpt lat="43.4065512" lon="11.1433845"><ele>171.8</ele><time>2026-04-25T16:16:41.317Z</time></trkpt><trkpt lat="43.4066251" lon="11.1434482"><ele>172.20000000000002</ele><time>2026-04-25T16:16:42.313Z</time></trkpt><trkpt lat="43.4067125" lon="11.1435303"><ele>172.60000000000002</ele><time>2026-04-25T16:16:43.3Z</time></trkpt><trkpt lat="43.4068073" lon="11.143615"><ele>173.0</ele><time>2026-04-25T16:16:44.31Z</time></trkpt><trkpt lat="43.4069015" lon="11.1437122"><ele>173.0</ele><time>2026-04-25T16:16:45.31Z</time></trkpt><trkpt lat="43.4070109" lon="11.1438291"><ele>173.0</ele><time>2026-04-25T16:16:46.314Z</time></trkpt><trkpt lat="43.4071105" lon="11.1439344"><ele>173.0</ele><time>2026-04-25T16:16:47.306Z</time></trkpt><trkpt lat="43.4071991" lon="11.1440258"><ele>173.0</ele><time>2026-04-25T16:16:48.29Z</time></trkpt><trkpt lat="43.4072903" lon="11.1441132"><ele>173.75</ele><time>2026-04-25T16:16:49.315Z</time></trkpt><trkpt lat="43.4073848" lon="11.144203"><ele>174.5</ele><time>2026-04-25T16:16:50.302Z</time></trkpt><trkpt lat="43.4074795" lon="11.1443102"><ele>175.25</ele><time>2026-04-25T16:16:51.309Z</time></trkpt><trkpt lat="43.4075758" lon="11.144426"><ele>176.0</ele><time>2026-04-25T16:16:52.313Z</time></trkpt><trkpt lat="43.4076619" lon="11.1445419"><ele>176.0</ele><time>2026-04-25T16:16:53.318Z</time></trkpt><trkpt lat="43.407743" lon="11.1446547"><ele>176.0</ele><time>2026-04-25T16:16:54.311Z</time></trkpt><trkpt lat="43.4078224" lon="11.1447664"><ele>176.0</ele><time>2026-04-25T16:16:55.305Z</time></trkpt><trkpt lat="43.4078968" lon="11.1448802"><ele>176.0</ele><time>2026-04-25T16:16:56.318Z</time></trkpt><trkpt lat="43.4079639" lon="11.1449906"><ele>176.0</ele><time>2026-04-25T16:16:57.312Z</time></trkpt><trkpt lat="43.4080281" lon="11.1451075"><ele>177.0</ele><time>2026-04-25T16:16:58.306Z</time></trkpt><trkpt lat="43.4080861" lon="11.1452272"><ele>178.0</ele><time>2026-04-25T16:16:59.311Z</time></trkpt><trkpt lat="43.4081351" lon="11.1453488"><ele>179.0</ele><time>2026-04-25T16:17:00.312Z</time></trkpt><trkpt lat="43.408173" lon="11.1454601"><ele>180.0</ele><time>2026-04-25T16:17:01.314Z</time></trkpt><trkpt lat="43.4082061" lon="11.1455713"><ele>181.0</ele><time>2026-04-25T16:17:02.315Z</time></trkpt><trkpt lat="43.40825" lon="11.1457049"><ele>181.75</ele><time>2026-04-25T16:17:03.316Z</time></trkpt><trkpt lat="43.4082936" lon="11.1458641"><ele>182.5</ele><time>2026-04-25T16:17:04.318Z</time></trkpt><trkpt lat="43.4083226" lon="11.1460479"><ele>183.25</ele><time>2026-04-25T16:17:05.293Z</time></trkpt><trkpt lat="43.4083426" lon="11.1462454"><ele>184.0</ele><time>2026-04-25T16:17:06.325Z</time></trkpt><trkpt lat="43.4083601" lon="11.1464437"><ele>186.66666666666669</ele><time>2026-04-25T16:17:07.287Z</time></trkpt><trkpt lat="43.4083789" lon="11.1466467"><ele>189.33333333333334</ele><time>2026-04-25T16:17:08.296Z</time></trkpt><trkpt lat="43.4083953" lon="11.1468555"><ele>192.0</ele><time>2026-04-25T16:17:09.29Z</time></trkpt><trkpt lat="43.4083914" lon="11.1470928"><ele>192.0</ele><time>2026-04-25T16:17:10.308Z</time></trkpt><trkpt lat="43.4083828" lon="11.1473481"><ele>192.0</ele><time>2026-04-25T16:17:11.303Z</time></trkpt><trkpt lat="43.4083762" lon="11.1475904"><ele>192.0</ele><time>2026-04-25T16:17:12.305Z</time></trkpt><trkpt lat="43.4083748" lon="11.1478433"><ele>193.66666666666669</ele><time>2026-04-25T16:17:13.297Z</time></trkpt><trkpt lat="43.4083748" lon="11.1481106"><ele>195.33333333333334</ele><time>2026-04-25T16:17:14.313Z</time></trkpt><trkpt lat="43.4083788" lon="11.1483833"><ele>197.0</ele><time>2026-04-25T16:17:15.316Z</time></trkpt><trkpt lat="43.4083963" lon="11.1486523"><ele>198.66666666666669</ele><time>2026-04-25T16:17:16.307Z</time></trkpt><trkpt lat="43.4084337" lon="11.1489148"><ele>200.33333333333331</ele><time>2026-04-25T16:17:17.305Z</time></trkpt><trkpt lat="43.4084881" lon="11.1491645"><ele>202.0</ele><time>2026-04-25T16:17:18.328Z</time></trkpt><trkpt lat="43.4085486" lon="11.1493834"><ele>202.66666666666666</ele><time>2026-04-25T16:17:19.315Z</time></trkpt><trkpt lat="43.408607" lon="11.1495911"><ele>203.33333333333331</ele><time>2026-04-25T16:17:20.316Z</time></trkpt><trkpt lat="43.4086613" lon="11.1497936"><ele>204.0</ele><time>2026-04-25T16:17:21.324Z</time></trkpt><trkpt lat="43.4087179" lon="11.1499802"><ele>204.0</ele><time>2026-04-25T16:17:22.301Z</time></trkpt><trkpt lat="43.4087751" lon="11.1501445"><ele>204.0</ele><time>2026-04-25T16:17:23.298Z</time></trkpt><trkpt lat="43.4088485" lon="11.1503182"><ele>204.0</ele><time>2026-04-25T16:17:24.332Z</time></trkpt><trkpt lat="43.4089378" lon="11.1504956"><ele>204.0</ele><time>2026-04-25T16:17:25.299Z</time></trkpt><trkpt lat="43.4090419" lon="11.1506798"><ele>207.66666666666669</ele><time>2026-04-25T16:17:26.31Z</time></trkpt><trkpt lat="43.4091641" lon="11.1508779"><ele>211.33333333333334</ele><time>2026-04-25T16:17:27.305Z</time></trkpt><trkpt lat="43.4093038" lon="11.1510936"><ele>215.0</ele><time>2026-04-25T16:17:28.315Z</time></trkpt><trkpt lat="43.4094516" lon="11.1513143"><ele>215.0</ele><time>2026-04-25T16:17:29.305Z</time></trkpt><trkpt lat="43.4096065" lon="11.1515318"><ele>215.0</ele><time>2026-04-25T16:17:30.301Z</time></trkpt><trkpt lat="43.4097726" lon="11.1517382"><ele>215.0</ele><time>2026-04-25T16:17:31.279Z</time></trkpt><trkpt lat="43.4099391" lon="11.1519382"><ele>218.0</ele><time>2026-04-25T16:17:32.304Z</time></trkpt><trkpt lat="43.4100984" lon="11.1521414"><ele>221.0</ele><time>2026-04-25T16:17:33.308Z</time></trkpt><trkpt lat="43.4102554" lon="11.1523318"><ele>224.0</ele><time>2026-04-25T16:17:34.308Z</time></trkpt><trkpt lat="43.410409" lon="11.1525265"><ele>226.0</ele><time>2026-04-25T16:17:35.304Z</time></trkpt><trkpt lat="43.4105676" lon="11.152721"><ele>228.0</ele><time>2026-04-25T16:17:36.327Z</time></trkpt><trkpt lat="43.4107244" lon="11.1529112"><ele>230.0</ele><time>2026-04-25T16:17:37.329Z</time></trkpt><trkpt lat="43.4108735" lon="11.1530966"><ele>230.0</ele><time>2026-04-25T16:17:38.31Z</time></trkpt><trkpt lat="43.4110205" lon="11.1532752"><ele>230.0</ele><time>2026-04-25T16:17:39.286Z</time></trkpt><trkpt lat="43.4111626" lon="11.1534649"><ele>230.0</ele><time>2026-04-25T16:17:40.277Z</time></trkpt><trkpt lat="43.4113041" lon="11.1536552"><ele>230.33333333333334</ele><time>2026-04-25T16:17:41.306Z</time></trkpt><trkpt lat="43.4114419" lon="11.1538456"><ele>230.66666666666669</ele><time>2026-04-25T16:17:42.287Z</time></trkpt><trkpt lat="43.4115732" lon="11.1540576"><ele>231.0</ele><time>2026-04-25T16:17:43.317Z</time></trkpt><trkpt lat="43.4116925" lon="11.1542743"><ele>231.0</ele><time>2026-04-25T16:17:44.293Z</time></trkpt><trkpt lat="43.4117995" lon="11.1545147"><ele>231.0</ele><time>2026-04-25T16:17:45.304Z</time></trkpt><trkpt lat="43.4118939" lon="11.1547537"><ele>231.0</ele><time>2026-04-25T16:17:46.314Z</time></trkpt><trkpt lat="43.4119802" lon="11.1550105"><ele>231.0</ele><time>2026-04-25T16:17:47.317Z</time></trkpt><trkpt lat="43.412054" lon="11.1552754"><ele>231.0</ele><time>2026-04-25T16:17:48.304Z</time></trkpt><trkpt lat="43.4121141" lon="11.1555468"><ele>231.0</ele><time>2026-04-25T16:17:49.307Z</time></trkpt><trkpt lat="43.4121773" lon="11.1558307"><ele>230.66666666666669</ele><time>2026-04-25T16:17:50.304Z</time></trkpt><trkpt lat="43.4122405" lon="11.1561155"><ele>230.33333333333334</ele><time>2026-04-25T16:17:51.283Z</time></trkpt><trkpt lat="43.4123013" lon="11.1563937"><ele>230.0</ele><time>2026-04-25T16:17:52.271Z</time></trkpt><trkpt lat="43.4123773" lon="11.1566637"><ele>229.33333333333334</ele><time>2026-04-25T16:17:53.288Z</time></trkpt><trkpt lat="43.4124712" lon="11.1569144"><ele>228.66666666666669</ele><time>2026-04-25T16:17:54.287Z</time></trkpt><trkpt lat="43.4125678" lon="11.1571411"><ele>228.0</ele><time>2026-04-25T16:17:55.304Z</time></trkpt><trkpt lat="43.4126733" lon="11.1573537"><ele>227.66666666666669</ele><time>2026-04-25T16:17:56.304Z</time></trkpt><trkpt lat="43.4127781" lon="11.1575509"><ele>227.33333333333334</ele><time>2026-04-25T16:17:57.309Z</time></trkpt><trkpt lat="43.4128765" lon="11.1577373"><ele>227.0</ele><time>2026-04-25T16:17:58.308Z</time></trkpt><trkpt lat="43.4129647" lon="11.1579136"><ele>227.0</ele><time>2026-04-25T16:17:59.303Z</time></trkpt><trkpt lat="43.4130412" lon="11.1580594"><ele>227.0</ele><time>2026-04-25T16:18:00.335Z</time></trkpt><trkpt lat="43.41309" lon="11.1581737"><ele>227.0</ele><time>2026-04-25T16:18:01.318Z</time></trkpt><trkpt lat="43.4131078" lon="11.1582627"><ele>227.0</ele><time>2026-04-25T16:18:02.308Z</time></trkpt><trkpt lat="43.4131106" lon="11.1583865"><ele>227.0</ele><time>2026-04-25T16:18:04.298Z</time></trkpt><trkpt lat="43.4130847" lon="11.158562"><ele>226.8</ele><time>2026-04-25T16:18:06.304Z</time></trkpt><trkpt lat="43.4130759" lon="11.1586845"><ele>226.6</ele><time>2026-04-25T16:18:07.292Z</time></trkpt><trkpt lat="43.4130606" lon="11.1588229"><ele>226.40000000000003</ele><time>2026-04-25T16:18:08.314Z</time></trkpt><trkpt lat="43.4129998" lon="11.1589602"><ele>226.20000000000002</ele><time>2026-04-25T16:18:09.303Z</time></trkpt><trkpt lat="43.4129" lon="11.1590864"><ele>226.0</ele><time>2026-04-25T16:18:10.295Z</time></trkpt><trkpt lat="43.4127797" lon="11.1592162"><ele>226.66666666666666</ele><time>2026-04-25T16:18:11.305Z</time></trkpt><trkpt lat="43.4126567" lon="11.1593556"><ele>227.33333333333331</ele><time>2026-04-25T16:18:12.312Z</time></trkpt><trkpt lat="43.4125383" lon="11.1595138"><ele>228.0</ele><time>2026-04-25T16:18:13.32Z</time></trkpt><trkpt lat="43.4124187" lon="11.1596515"><ele>228.0</ele><time>2026-04-25T16:18:14.299Z</time></trkpt><trkpt lat="43.4123075" lon="11.1597787"><ele>228.0</ele><time>2026-04-25T16:18:15.324Z</time></trkpt><trkpt lat="43.412195" lon="11.1599154"><ele>228.0</ele><time>2026-04-25T16:18:16.317Z</time></trkpt><trkpt lat="43.412083" lon="11.1600507"><ele>228.0</ele><time>2026-04-25T16:18:17.318Z</time></trkpt><trkpt lat="43.4119647" lon="11.1601928"><ele>228.25</ele><time>2026-04-25T16:18:18.318Z</time></trkpt><trkpt lat="43.4118553" lon="11.1603426"><ele>228.5</ele><time>2026-04-25T16:18:19.314Z</time></trkpt><trkpt lat="43.4117587" lon="11.1604607"><ele>228.75</ele><time>2026-04-25T16:18:20.318Z</time></trkpt><trkpt lat="43.4116756" lon="11.1605708"><ele>229.0</ele><time>2026-04-25T16:18:21.31Z</time></trkpt><trkpt lat="43.4115859" lon="11.1606693"><ele>229.0</ele><time>2026-04-25T16:18:22.31Z</time></trkpt><trkpt lat="43.4114906" lon="11.1607826"><ele>229.0</ele><time>2026-04-25T16:18:23.303Z</time></trkpt><trkpt lat="43.4113956" lon="11.160905"><ele>229.0</ele><time>2026-04-25T16:18:24.32Z</time></trkpt><trkpt lat="43.4113012" lon="11.1610292"><ele>229.0</ele><time>2026-04-25T16:18:25.309Z</time></trkpt><trkpt lat="43.4112077" lon="11.1611521"><ele>229.0</ele><time>2026-04-25T16:18:26.312Z</time></trkpt><trkpt lat="43.411108" lon="11.1612874"><ele>229.0</ele><time>2026-04-25T16:18:27.305Z</time></trkpt><trkpt lat="43.4110058" lon="11.161431"><ele>229.0</ele><time>2026-04-25T16:18:28.289Z</time></trkpt><trkpt lat="43.4109047" lon="11.1615763"><ele>229.0</ele><time>2026-04-25T16:18:29.314Z</time></trkpt><trkpt lat="43.410801" lon="11.1617184"><ele>229.0</ele><time>2026-04-25T16:18:30.335Z</time></trkpt><trkpt lat="43.4106964" lon="11.1618552"><ele>229.0</ele><time>2026-04-25T16:18:31.317Z</time></trkpt><trkpt lat="43.4106" lon="11.1619856"><ele>229.0</ele><time>2026-04-25T16:18:32.316Z</time></trkpt><trkpt lat="43.4105031" lon="11.1621241"><ele>229.0</ele><time>2026-04-25T16:18:33.301Z</time></trkpt><trkpt lat="43.410419" lon="11.1622587"><ele>229.5</ele><time>2026-04-25T16:18:34.307Z</time></trkpt><trkpt lat="43.4103342" lon="11.1623788"><ele>230.0</ele><time>2026-04-25T16:18:35.312Z</time></trkpt><trkpt lat="43.4102565" lon="11.1624908"><ele>230.5</ele><time>2026-04-25T16:18:36.312Z</time></trkpt><trkpt lat="43.4101815" lon="11.1625924"><ele>231.0</ele><time>2026-04-25T16:18:37.325Z</time></trkpt><trkpt lat="43.4101051" lon="11.162708"><ele>231.0</ele><time>2026-04-25T16:18:38.3Z</time></trkpt><trkpt lat="43.4100132" lon="11.1628512"><ele>231.0</ele><time>2026-04-25T16:18:39.322Z</time></trkpt><trkpt lat="43.4099082" lon="11.1629997"><ele>231.0</ele><time>2026-04-25T16:18:40.328Z</time></trkpt><trkpt lat="43.4098076" lon="11.1631404"><ele>231.0</ele><time>2026-04-25T16:18:41.31Z</time></trkpt><trkpt lat="43.4097189" lon="11.1632746"><ele>232.25</ele><time>2026-04-25T16:18:42.296Z</time></trkpt><trkpt lat="43.4096308" lon="11.1634078"><ele>233.5</ele><time>2026-04-25T16:18:43.299Z</time></trkpt><trkpt lat="43.4095381" lon="11.1635482"><ele>234.75</ele><time>2026-04-25T16:18:44.308Z</time></trkpt><trkpt lat="43.4094498" lon="11.1636837"><ele>236.0</ele><time>2026-04-25T16:18:45.28Z</time></trkpt><trkpt lat="43.4093551" lon="11.1638184"><ele>236.0</ele><time>2026-04-25T16:18:46.277Z</time></trkpt><trkpt lat="43.4092613" lon="11.1639602"><ele>236.0</ele><time>2026-04-25T16:18:47.281Z</time></trkpt><trkpt lat="43.4091668" lon="11.1640987"><ele>236.0</ele><time>2026-04-25T16:18:48.299Z</time></trkpt><trkpt lat="43.409077" lon="11.164228"><ele>236.0</ele><time>2026-04-25T16:18:49.299Z</time></trkpt><trkpt lat="43.4089918" lon="11.1643537"><ele>236.25</ele><time>2026-04-25T16:18:50.289Z</time></trkpt><trkpt lat="43.4089087" lon="11.1644686"><ele>236.5</ele><time>2026-04-25T16:18:51.297Z</time></trkpt><trkpt lat="43.4088248" lon="11.1645891"><ele>236.75</ele><time>2026-04-25T16:18:52.289Z</time></trkpt><trkpt lat="43.4087314" lon="11.1647123"><ele>237.0</ele><time>2026-04-25T16:18:53.32Z</time></trkpt><trkpt lat="43.4086448" lon="11.1648315"><ele>236.5</ele><time>2026-04-25T16:18:54.306Z</time></trkpt><trkpt lat="43.4085653" lon="11.1649474"><ele>236.0</ele><time>2026-04-25T16:18:55.296Z</time></trkpt><trkpt lat="43.4084838" lon="11.1650606"><ele>235.5</ele><time>2026-04-25T16:18:56.299Z</time></trkpt><trkpt lat="43.4083959" lon="11.1651637"><ele>235.0</ele><time>2026-04-25T16:18:57.303Z</time></trkpt><trkpt lat="43.4083206" lon="11.1652682"><ele>234.99999999999997</ele><time>2026-04-25T16:18:58.324Z</time></trkpt><trkpt lat="43.4082444" lon="11.1653664"><ele>235.0</ele><time>2026-04-25T16:18:59.285Z</time></trkpt><trkpt lat="43.4081794" lon="11.1654552"><ele>235.0</ele><time>2026-04-25T16:19:00.309Z</time></trkpt><trkpt lat="43.4081171" lon="11.1655383"><ele>235.0</ele><time>2026-04-25T16:19:01.306Z</time></trkpt><trkpt lat="43.4080642" lon="11.1656121"><ele>234.99999999999997</ele><time>2026-04-25T16:19:02.303Z</time></trkpt><trkpt lat="43.4080142" lon="11.1656801"><ele>235.0</ele><time>2026-04-25T16:19:04.334Z</time></trkpt><trkpt lat="43.4079636" lon="11.1657522"><ele>234.5</ele><time>2026-04-25T16:19:06.313Z</time></trkpt><trkpt lat="43.407903" lon="11.1658399"><ele>234.0</ele><time>2026-04-25T16:19:07.312Z</time></trkpt><trkpt lat="43.4078251" lon="11.1659484"><ele>233.5</ele><time>2026-04-25T16:19:08.314Z</time></trkpt><trkpt lat="43.407727" lon="11.1660742"><ele>233.0</ele><time>2026-04-25T16:19:09.319Z</time></trkpt><trkpt lat="43.4076179" lon="11.1662267"><ele>233.0</ele><time>2026-04-25T16:19:10.303Z</time></trkpt><trkpt lat="43.4074933" lon="11.1663664"><ele>233.0</ele><time>2026-04-25T16:19:11.313Z</time></trkpt><trkpt lat="43.4073675" lon="11.1664942"><ele>233.0</ele><time>2026-04-25T16:19:12.313Z</time></trkpt><trkpt lat="43.4072529" lon="11.1666087"><ele>231.75</ele><time>2026-04-25T16:19:13.312Z</time></trkpt><trkpt lat="43.4071407" lon="11.166711"><ele>230.5</ele><time>2026-04-25T16:19:14.319Z</time></trkpt><trkpt lat="43.4070306" lon="11.1667832"><ele>229.25</ele><time>2026-04-25T16:19:15.322Z</time></trkpt><trkpt lat="43.4069111" lon="11.1668452"><ele>228.0</ele><time>2026-04-25T16:19:16.305Z</time></trkpt><trkpt lat="43.4068041" lon="11.1669089"><ele>228.0</ele><time>2026-04-25T16:19:17.331Z</time></trkpt><trkpt lat="43.4067078" lon="11.1670103"><ele>228.0</ele><time>2026-04-25T16:19:18.302Z</time></trkpt><trkpt lat="43.4066155" lon="11.1671793"><ele>228.0</ele><time>2026-04-25T16:19:19.312Z</time></trkpt><trkpt lat="43.406541" lon="11.1673766"><ele>228.0</ele><time>2026-04-25T16:19:20.308Z</time></trkpt><trkpt lat="43.4064245" lon="11.1675801"><ele>227.0</ele><time>2026-04-25T16:19:21.303Z</time></trkpt><trkpt lat="43.4062597" lon="11.1677661"><ele>226.0</ele><time>2026-04-25T16:19:22.303Z</time></trkpt><trkpt lat="43.4060685" lon="11.1679546"><ele>225.0</ele><time>2026-04-25T16:19:23.32Z</time></trkpt><trkpt lat="43.4058863" lon="11.168119"><ele>224.66666666666669</ele><time>2026-04-25T16:19:24.308Z</time></trkpt><trkpt lat="43.4057241" lon="11.1682868"><ele>224.33333333333334</ele><time>2026-04-25T16:19:25.311Z</time></trkpt><trkpt lat="43.4055782" lon="11.1684603"><ele>224.0</ele><time>2026-04-25T16:19:26.297Z</time></trkpt><trkpt lat="43.4054415" lon="11.1686271"><ele>224.33333333333334</ele><time>2026-04-25T16:19:27.301Z</time></trkpt><trkpt lat="43.4053106" lon="11.1687735"><ele>224.66666666666669</ele><time>2026-04-25T16:19:28.299Z</time></trkpt><trkpt lat="43.4051832" lon="11.168907"><ele>225.0</ele><time>2026-04-25T16:19:29.292Z</time></trkpt><trkpt lat="43.4050561" lon="11.1690355"><ele>225.0</ele><time>2026-04-25T16:19:30.311Z</time></trkpt><trkpt lat="43.4049359" lon="11.1691574"><ele>225.0</ele><time>2026-04-25T16:19:31.298Z</time></trkpt><trkpt lat="43.404819" lon="11.1692755"><ele>225.0</ele><time>2026-04-25T16:19:32.315Z</time></trkpt><trkpt lat="43.4046925" lon="11.1693865"><ele>225.0</ele><time>2026-04-25T16:19:33.288Z</time></trkpt><trkpt lat="43.4045567" lon="11.1695198"><ele>224.66666666666669</ele><time>2026-04-25T16:19:34.292Z</time></trkpt><trkpt lat="43.404404" lon="11.169658"><ele>224.33333333333334</ele><time>2026-04-25T16:19:35.316Z</time></trkpt><trkpt lat="43.4042368" lon="11.1697912"><ele>224.0</ele><time>2026-04-25T16:19:36.3Z</time></trkpt><trkpt lat="43.4040735" lon="11.1699254"><ele>224.0</ele><time>2026-04-25T16:19:37.317Z</time></trkpt><trkpt lat="43.4039198" lon="11.1700701"><ele>224.0</ele><time>2026-04-25T16:19:38.296Z</time></trkpt><trkpt lat="43.4037683" lon="11.1702288"><ele>224.0</ele><time>2026-04-25T16:19:39.288Z</time></trkpt><trkpt lat="43.403616" lon="11.1703878"><ele>223.33333333333334</ele><time>2026-04-25T16:19:40.305Z</time></trkpt><trkpt lat="43.4034689" lon="11.1705511"><ele>222.66666666666669</ele><time>2026-04-25T16:19:41.318Z</time></trkpt><trkpt lat="43.4033271" lon="11.1707228"><ele>222.0</ele><time>2026-04-25T16:19:42.312Z</time></trkpt><trkpt lat="43.4032137" lon="11.170912"><ele>221.66666666666669</ele><time>2026-04-25T16:19:43.315Z</time></trkpt><trkpt lat="43.4031117" lon="11.1711008"><ele>221.33333333333334</ele><time>2026-04-25T16:19:44.306Z</time></trkpt><trkpt lat="43.4030178" lon="11.1712861"><ele>221.0</ele><time>2026-04-25T16:19:45.304Z</time></trkpt><trkpt lat="43.4029289" lon="11.1714555"><ele>220.33333333333334</ele><time>2026-04-25T16:19:46.302Z</time></trkpt><trkpt lat="43.4028375" lon="11.1716185"><ele>219.66666666666669</ele><time>2026-04-25T16:19:47.289Z</time></trkpt><trkpt lat="43.4027493" lon="11.1718009"><ele>219.0</ele><time>2026-04-25T16:19:48.289Z</time></trkpt><trkpt lat="43.4026433" lon="11.1720092"><ele>219.0</ele><time>2026-04-25T16:19:49.299Z</time></trkpt><trkpt lat="43.4025138" lon="11.1722236"><ele>219.0</ele><time>2026-04-25T16:19:50.299Z</time></trkpt><trkpt lat="43.4023764" lon="11.1724522"><ele>219.0</ele><time>2026-04-25T16:19:51.302Z</time></trkpt><trkpt lat="43.4022371" lon="11.172702"><ele>219.0</ele><time>2026-04-25T16:19:52.308Z</time></trkpt><trkpt lat="43.4021051" lon="11.1729702"><ele>219.0</ele><time>2026-04-25T16:19:53.317Z</time></trkpt><trkpt lat="43.4019837" lon="11.1732484"><ele>218.66666666666669</ele><time>2026-04-25T16:19:54.308Z</time></trkpt><trkpt lat="43.4018871" lon="11.1735119"><ele>218.33333333333334</ele><time>2026-04-25T16:19:55.296Z</time></trkpt><trkpt lat="43.401803" lon="11.1737716"><ele>218.0</ele><time>2026-04-25T16:19:56.321Z</time></trkpt><trkpt lat="43.4017142" lon="11.1740132"><ele>217.66666666666669</ele><time>2026-04-25T16:19:57.306Z</time></trkpt><trkpt lat="43.4016038" lon="11.1742208"><ele>217.33333333333331</ele><time>2026-04-25T16:19:58.317Z</time></trkpt><trkpt lat="43.4014647" lon="11.1743955"><ele>217.0</ele><time>2026-04-25T16:19:59.302Z</time></trkpt><trkpt lat="43.4012855" lon="11.1745649"><ele>217.0</ele><time>2026-04-25T16:20:00.31Z</time></trkpt><trkpt lat="43.4011052" lon="11.1747286"><ele>217.0</ele><time>2026-04-25T16:20:01.313Z</time></trkpt><trkpt lat="43.4009236" lon="11.1749043"><ele>217.0</ele><time>2026-04-25T16:20:02.314Z</time></trkpt><trkpt lat="43.4007329" lon="11.1750959"><ele>217.0</ele><time>2026-04-25T16:20:03.319Z</time></trkpt><trkpt lat="43.4005364" lon="11.1752783"><ele>217.0</ele><time>2026-04-25T16:20:04.315Z</time></trkpt><trkpt lat="43.4003207" lon="11.1754767"><ele>217.0</ele><time>2026-04-25T16:20:05.317Z</time></trkpt><trkpt lat="43.4001106" lon="11.175672"><ele>217.0</ele><time>2026-04-25T16:20:06.318Z</time></trkpt><trkpt lat="43.399913" lon="11.1758641"><ele>217.0</ele><time>2026-04-25T16:20:07.297Z</time></trkpt><trkpt lat="43.3997224" lon="11.1760517"><ele>217.0</ele><time>2026-04-25T16:20:08.303Z</time></trkpt><trkpt lat="43.3995305" lon="11.1762341"><ele>217.5</ele><time>2026-04-25T16:20:09.312Z</time></trkpt><trkpt lat="43.3993363" lon="11.1764133"><ele>218.0</ele><time>2026-04-25T16:20:10.323Z</time></trkpt><trkpt lat="43.3991453" lon="11.1765969"><ele>218.0</ele><time>2026-04-25T16:20:11.318Z</time></trkpt><trkpt lat="43.3989523" lon="11.1767788"><ele>218.0</ele><time>2026-04-25T16:20:12.305Z</time></trkpt><trkpt lat="43.3987602" lon="11.176961"><ele>218.0</ele><time>2026-04-25T16:20:13.316Z</time></trkpt><trkpt lat="43.3985725" lon="11.1771477"><ele>218.0</ele><time>2026-04-25T16:20:14.314Z</time></trkpt><trkpt lat="43.3983857" lon="11.1773338"><ele>218.5</ele><time>2026-04-25T16:20:15.322Z</time></trkpt><trkpt lat="43.3981971" lon="11.1775281"><ele>219.0</ele><time>2026-04-25T16:20:16.303Z</time></trkpt><trkpt lat="43.3980073" lon="11.1777057"><ele>218.5</ele><time>2026-04-25T16:20:17.304Z</time></trkpt><trkpt lat="43.3978168" lon="11.1778842"><ele>218.0</ele><time>2026-04-25T16:20:18.31Z</time></trkpt><trkpt lat="43.3976278" lon="11.1780597"><ele>219.0</ele><time>2026-04-25T16:20:19.3Z</time></trkpt><trkpt lat="43.3974456" lon="11.178231"><ele>220.0</ele><time>2026-04-25T16:20:20.29Z</time></trkpt><trkpt lat="43.3972707" lon="11.1784001"><ele>221.0</ele><time>2026-04-25T16:20:21.297Z</time></trkpt><trkpt lat="43.3971057" lon="11.1785747"><ele>221.66666666666669</ele><time>2026-04-25T16:20:22.294Z</time></trkpt><trkpt lat="43.3969495" lon="11.1787611"><ele>222.33333333333331</ele><time>2026-04-25T16:20:23.319Z</time></trkpt><trkpt lat="43.3968104" lon="11.1789826"><ele>223.0</ele><time>2026-04-25T16:20:24.299Z</time></trkpt><trkpt lat="43.3966884" lon="11.1792409"><ele>223.0</ele><time>2026-04-25T16:20:25.299Z</time></trkpt><trkpt lat="43.39657" lon="11.179521"><ele>223.0</ele><time>2026-04-25T16:20:26.307Z</time></trkpt><trkpt lat="43.3964543" lon="11.1798081"><ele>222.0</ele><time>2026-04-25T16:20:27.3Z</time></trkpt><trkpt lat="43.3963335" lon="11.180088"><ele>221.0</ele><time>2026-04-25T16:20:28.302Z</time></trkpt><trkpt lat="43.3962149" lon="11.1803762"><ele>221.0</ele><time>2026-04-25T16:20:29.291Z</time></trkpt><trkpt lat="43.3960995" lon="11.1806659"><ele>221.0</ele><time>2026-04-25T16:20:30.308Z</time></trkpt><trkpt lat="43.3959839" lon="11.1809495"><ele>221.0</ele><time>2026-04-25T16:20:31.283Z</time></trkpt><trkpt lat="43.395871" lon="11.1812451"><ele>221.0</ele><time>2026-04-25T16:20:32.294Z</time></trkpt><trkpt lat="43.3957541" lon="11.1815323"><ele>221.0</ele><time>2026-04-25T16:20:33.292Z</time></trkpt><trkpt lat="43.3956427" lon="11.1818239"><ele>221.0</ele><time>2026-04-25T16:20:34.295Z</time></trkpt><trkpt lat="43.3955276" lon="11.1821108"><ele>222.0</ele><time>2026-04-25T16:20:35.301Z</time></trkpt><trkpt lat="43.3954142" lon="11.1823937"><ele>223.0</ele><time>2026-04-25T16:20:36.289Z</time></trkpt><trkpt lat="43.3953026" lon="11.1826785"><ele>223.0</ele><time>2026-04-25T16:20:37.305Z</time></trkpt><trkpt lat="43.3951941" lon="11.1829641"><ele>223.0</ele><time>2026-04-25T16:20:38.284Z</time></trkpt><trkpt lat="43.395082" lon="11.1832453"><ele>223.0</ele><time>2026-04-25T16:20:39.302Z</time></trkpt><trkpt lat="43.394974" lon="11.1835228"><ele>223.0</ele><time>2026-04-25T16:20:40.29Z</time></trkpt><trkpt lat="43.394868" lon="11.183797"><ele>223.33333333333331</ele><time>2026-04-25T16:20:41.286Z</time></trkpt><trkpt lat="43.3947685" lon="11.1840442"><ele>223.66666666666669</ele><time>2026-04-25T16:20:42.29Z</time></trkpt><trkpt lat="43.3946725" lon="11.1842858"><ele>224.0</ele><time>2026-04-25T16:20:43.295Z</time></trkpt><trkpt lat="43.3945851" lon="11.1845102"><ele>224.66666666666669</ele><time>2026-04-25T16:20:44.29Z</time></trkpt><trkpt lat="43.3945029" lon="11.1847216"><ele>225.33333333333331</ele><time>2026-04-25T16:20:45.292Z</time></trkpt><trkpt lat="43.3944272" lon="11.1849253"><ele>226.0</ele><time>2026-04-25T16:20:46.29Z</time></trkpt><trkpt lat="43.3943527" lon="11.1851069"><ele>226.33333333333331</ele><time>2026-04-25T16:20:47.309Z</time></trkpt><trkpt lat="43.3942729" lon="11.185289"><ele>226.66666666666669</ele><time>2026-04-25T16:20:48.317Z</time></trkpt><trkpt lat="43.3941913" lon="11.1854829"><ele>227.0</ele><time>2026-04-25T16:20:49.314Z</time></trkpt><trkpt lat="43.3941048" lon="11.1856942"><ele>226.33333333333334</ele><time>2026-04-25T16:20:50.296Z</time></trkpt><trkpt lat="43.3940155" lon="11.1859354"><ele>225.66666666666669</ele><time>2026-04-25T16:20:51.292Z</time></trkpt><trkpt lat="43.3939138" lon="11.1861771"><ele>225.0</ele><time>2026-04-25T16:20:52.322Z</time></trkpt><trkpt lat="43.3938135" lon="11.18642"><ele>222.0</ele><time>2026-04-25T16:20:53.316Z</time></trkpt><trkpt lat="43.3937088" lon="11.1866561"><ele>219.0</ele><time>2026-04-25T16:20:54.305Z</time></trkpt><trkpt lat="43.393613" lon="11.1868838"><ele>216.0</ele><time>2026-04-25T16:20:55.308Z</time></trkpt><trkpt lat="43.3935295" lon="11.1871163"><ele>216.0</ele><time>2026-04-25T16:20:56.327Z</time></trkpt><trkpt lat="43.3934665" lon="11.1873381"><ele>216.0</ele><time>2026-04-25T16:20:57.318Z</time></trkpt><trkpt lat="43.3934137" lon="11.1875659"><ele>216.0</ele><time>2026-04-25T16:20:58.312Z</time></trkpt><trkpt lat="43.3933686" lon="11.187785"><ele>215.0</ele><time>2026-04-25T16:20:59.306Z</time></trkpt><trkpt lat="43.3933219" lon="11.1879987"><ele>214.0</ele><time>2026-04-25T16:21:00.304Z</time></trkpt><trkpt lat="43.3932886" lon="11.1882101"><ele>213.0</ele><time>2026-04-25T16:21:01.315Z</time></trkpt><trkpt lat="43.393262" lon="11.1884311"><ele>212.33333333333331</ele><time>2026-04-25T16:21:02.312Z</time></trkpt><trkpt lat="43.3932487" lon="11.1886689"><ele>211.66666666666666</ele><time>2026-04-25T16:21:03.29Z</time></trkpt><trkpt lat="43.3932491" lon="11.1889127"><ele>211.0</ele><time>2026-04-25T16:21:04.319Z</time></trkpt><trkpt lat="43.3932511" lon="11.1891612"><ele>210.33333333333331</ele><time>2026-04-25T16:21:05.308Z</time></trkpt><trkpt lat="43.3932499" lon="11.1894137"><ele>209.66666666666669</ele><time>2026-04-25T16:21:06.313Z</time></trkpt><trkpt lat="43.3932492" lon="11.1896596"><ele>209.0</ele><time>2026-04-25T16:21:07.309Z</time></trkpt><trkpt lat="43.393241" lon="11.1898858"><ele>208.33333333333334</ele><time>2026-04-25T16:21:08.313Z</time></trkpt><trkpt lat="43.393237" lon="11.1901085"><ele>207.66666666666669</ele><time>2026-04-25T16:21:09.316Z</time></trkpt><trkpt lat="43.3932356" lon="11.1903224"><ele>207.0</ele><time>2026-04-25T16:21:10.323Z</time></trkpt><trkpt lat="43.3932296" lon="11.1905312"><ele>206.39999999999998</ele><time>2026-04-25T16:21:11.315Z</time></trkpt><trkpt lat="43.3932195" lon="11.1907067"><ele>205.79999999999998</ele><time>2026-04-25T16:21:12.319Z</time></trkpt><trkpt lat="43.3931911" lon="11.1908397"><ele>205.2</ele><time>2026-04-25T16:21:13.312Z</time></trkpt><trkpt lat="43.3931336" lon="11.190937"><ele>204.6</ele><time>2026-04-25T16:21:14.305Z</time></trkpt><trkpt lat="43.3930722" lon="11.1910317"><ele>204.0</ele><time>2026-04-25T16:21:15.308Z</time></trkpt><trkpt lat="43.3930265" lon="11.1911283"><ele>204.0</ele><time>2026-04-25T16:21:16.305Z</time></trkpt><trkpt lat="43.3930249" lon="11.1912392"><ele>204.0</ele><time>2026-04-25T16:21:17.286Z</time></trkpt><trkpt lat="43.393055" lon="11.1913687"><ele>204.0</ele><time>2026-04-25T16:21:18.297Z</time></trkpt><trkpt lat="43.3931221" lon="11.1915008"><ele>204.0</ele><time>2026-04-25T16:21:19.316Z</time></trkpt><trkpt lat="43.3931789" lon="11.1916605"><ele>204.0</ele><time>2026-04-25T16:21:20.313Z</time></trkpt><trkpt lat="43.3932138" lon="11.1918438"><ele>203.66666666666669</ele><time>2026-04-25T16:21:21.286Z</time></trkpt><trkpt lat="43.3931993" lon="11.1920487"><ele>203.33333333333334</ele><time>2026-04-25T16:21:22.298Z</time></trkpt><trkpt lat="43.3931928" lon="11.1922941"><ele>203.0</ele><time>2026-04-25T16:21:23.311Z</time></trkpt><trkpt lat="43.393186" lon="11.1925378"><ele>203.33333333333334</ele><time>2026-04-25T16:21:24.306Z</time></trkpt><trkpt lat="43.3931748" lon="11.1928089"><ele>203.66666666666669</ele><time>2026-04-25T16:21:25.293Z</time></trkpt><trkpt lat="43.393167" lon="11.1931218"><ele>204.0</ele><time>2026-04-25T16:21:26.312Z</time></trkpt><trkpt lat="43.3931634" lon="11.193457"><ele>204.0</ele><time>2026-04-25T16:21:27.31Z</time></trkpt><trkpt lat="43.3931603" lon="11.1937964"><ele>204.0</ele><time>2026-04-25T16:21:28.312Z</time></trkpt><trkpt lat="43.3931522" lon="11.1941259"><ele>203.0</ele><time>2026-04-25T16:21:29.298Z</time></trkpt><trkpt lat="43.3931414" lon="11.194447"><ele>202.0</ele><time>2026-04-25T16:21:30.299Z</time></trkpt><trkpt lat="43.3931374" lon="11.1947677"><ele>201.66666666666666</ele><time>2026-04-25T16:21:31.308Z</time></trkpt><trkpt lat="43.3931322" lon="11.1950798"><ele>201.33333333333331</ele><time>2026-04-25T16:21:32.307Z</time></trkpt><trkpt lat="43.393127" lon="11.1953797"><ele>201.0</ele><time>2026-04-25T16:21:33.293Z</time></trkpt><trkpt lat="43.3931206" lon="11.1956846"><ele>200.66666666666669</ele><time>2026-04-25T16:21:34.317Z</time></trkpt><trkpt lat="43.393117" lon="11.1959929"><ele>200.33333333333334</ele><time>2026-04-25T16:21:35.309Z</time></trkpt><trkpt lat="43.3931092" lon="11.1962976"><ele>200.0</ele><time>2026-04-25T16:21:36.311Z</time></trkpt><trkpt lat="43.3931035" lon="11.1965948"><ele>199.66666666666669</ele><time>2026-04-25T16:21:37.297Z</time></trkpt><trkpt lat="43.3930985" lon="11.1968954"><ele>199.33333333333331</ele><time>2026-04-25T16:21:38.313Z</time></trkpt><trkpt lat="43.3930957" lon="11.1971954"><ele>199.0</ele><time>2026-04-25T16:21:39.309Z</time></trkpt><trkpt lat="43.3930902" lon="11.1974952"><ele>198.66666666666666</ele><time>2026-04-25T16:21:40.308Z</time></trkpt><trkpt lat="43.393087" lon="11.1977943"><ele>198.33333333333331</ele><time>2026-04-25T16:21:41.309Z</time></trkpt><trkpt lat="43.3930798" lon="11.1980987"><ele>198.0</ele><time>2026-04-25T16:21:42.315Z</time></trkpt><trkpt lat="43.3930762" lon="11.1984068"><ele>198.0</ele><time>2026-04-25T16:21:43.319Z</time></trkpt><trkpt lat="43.3930673" lon="11.1987159"><ele>198.0</ele><time>2026-04-25T16:21:44.314Z</time></trkpt><trkpt lat="43.3930576" lon="11.199028"><ele>198.0</ele><time>2026-04-25T16:21:45.287Z</time></trkpt><trkpt lat="43.3930488" lon="11.1993386"><ele>198.0</ele><time>2026-04-25T16:21:46.313Z</time></trkpt><trkpt lat="43.3930421" lon="11.1996529"><ele>198.0</ele><time>2026-04-25T16:21:47.321Z</time></trkpt><trkpt lat="43.3930349" lon="11.199975"><ele>198.0</ele><time>2026-04-25T16:21:48.316Z</time></trkpt><trkpt lat="43.3930305" lon="11.2003006"><ele>198.0</ele><time>2026-04-25T16:21:49.321Z</time></trkpt><trkpt lat="43.393024" lon="11.2006251"><ele>198.0</ele><time>2026-04-25T16:21:50.306Z</time></trkpt><trkpt lat="43.3930188" lon="11.2009488"><ele>199.5</ele><time>2026-04-25T16:21:51.313Z</time></trkpt><trkpt lat="43.3930121" lon="11.2012735"><ele>201.0</ele><time>2026-04-25T16:21:52.294Z</time></trkpt><trkpt lat="43.3930062" lon="11.2015999"><ele>199.0</ele><time>2026-04-25T16:21:53.301Z</time></trkpt><trkpt lat="43.3929992" lon="11.2019297"><ele>197.0</ele><time>2026-04-25T16:21:54.324Z</time></trkpt><trkpt lat="43.3929913" lon="11.2022599"><ele>196.5</ele><time>2026-04-25T16:21:55.325Z</time></trkpt><trkpt lat="43.3929813" lon="11.2025957"><ele>196.0</ele><time>2026-04-25T16:21:56.317Z</time></trkpt><trkpt lat="43.3929776" lon="11.2029241"><ele>196.0</ele><time>2026-04-25T16:21:57.313Z</time></trkpt><trkpt lat="43.3929716" lon="11.2032514"><ele>196.0</ele><time>2026-04-25T16:21:58.297Z</time></trkpt><trkpt lat="43.392968" lon="11.2035744"><ele>196.0</ele><time>2026-04-25T16:21:59.304Z</time></trkpt><trkpt lat="43.3929624" lon="11.2038975"><ele>196.0</ele><time>2026-04-25T16:22:00.301Z</time></trkpt><trkpt lat="43.3929547" lon="11.2042149"><ele>196.5</ele><time>2026-04-25T16:22:01.31Z</time></trkpt><trkpt lat="43.3929436" lon="11.204534"><ele>197.0</ele><time>2026-04-25T16:22:02.318Z</time></trkpt><trkpt lat="43.3929328" lon="11.2048504"><ele>197.0</ele><time>2026-04-25T16:22:03.309Z</time></trkpt><trkpt lat="43.3929277" lon="11.2051669"><ele>197.0</ele><time>2026-04-25T16:22:04.311Z</time></trkpt><trkpt lat="43.3929324" lon="11.2054859"><ele>196.0</ele><time>2026-04-25T16:22:05.298Z</time></trkpt><trkpt lat="43.3929267" lon="11.2058084"><ele>195.0</ele><time>2026-04-25T16:22:06.32Z</time></trkpt><trkpt lat="43.3929222" lon="11.2061347"><ele>195.0</ele><time>2026-04-25T16:22:07.32Z</time></trkpt><trkpt lat="43.3929152" lon="11.2064553"><ele>195.0</ele><time>2026-04-25T16:22:08.306Z</time></trkpt><trkpt lat="43.3929089" lon="11.206776"><ele>195.0</ele><time>2026-04-25T16:22:09.315Z</time></trkpt><trkpt lat="43.3929019" lon="11.2071019"><ele>195.0</ele><time>2026-04-25T16:22:10.313Z</time></trkpt><trkpt lat="43.3928937" lon="11.2074329"><ele>194.0</ele><time>2026-04-25T16:22:11.322Z</time></trkpt><trkpt lat="43.3928843" lon="11.2077656"><ele>193.0</ele><time>2026-04-25T16:22:12.314Z</time></trkpt><trkpt lat="43.3928765" lon="11.208103"><ele>192.5</ele><time>2026-04-25T16:22:13.309Z</time></trkpt><trkpt lat="43.3928665" lon="11.2084438"><ele>192.0</ele><time>2026-04-25T16:22:14.304Z</time></trkpt><trkpt lat="43.3928597" lon="11.2087835"><ele>192.0</ele><time>2026-04-25T16:22:15.298Z</time></trkpt><trkpt lat="43.392854" lon="11.2091279"><ele>192.0</ele><time>2026-04-25T16:22:16.306Z</time></trkpt><trkpt lat="43.3928434" lon="11.2094678"><ele>192.0</ele><time>2026-04-25T16:22:17.307Z</time></trkpt><trkpt lat="43.3928364" lon="11.2098071"><ele>192.0</ele><time>2026-04-25T16:22:18.301Z</time></trkpt><trkpt lat="43.3928333" lon="11.2101513"><ele>192.0</ele><time>2026-04-25T16:22:19.305Z</time></trkpt><trkpt lat="43.3928272" lon="11.210502"><ele>192.0</ele><time>2026-04-25T16:22:20.317Z</time></trkpt><trkpt lat="43.3928192" lon="11.2108507"><ele>192.0</ele><time>2026-04-25T16:22:21.313Z</time></trkpt><trkpt lat="43.3928104" lon="11.2112041"><ele>192.0</ele><time>2026-04-25T16:22:22.314Z</time></trkpt><trkpt lat="43.3928043" lon="11.2115593"><ele>193.5</ele><time>2026-04-25T16:22:23.306Z</time></trkpt><trkpt lat="43.3927987" lon="11.211918"><ele>195.0</ele><time>2026-04-25T16:22:24.314Z</time></trkpt><trkpt lat="43.3927954" lon="11.2122767"><ele>194.0</ele><time>2026-04-25T16:22:25.315Z</time></trkpt><trkpt lat="43.3927888" lon="11.2126596"><ele>193.0</ele><time>2026-04-25T16:22:26.311Z</time></trkpt><trkpt lat="43.3927819" lon="11.2130593"><ele>191.5</ele><time>2026-04-25T16:22:27.324Z</time></trkpt><trkpt lat="43.3927696" lon="11.2134569"><ele>190.0</ele><time>2026-04-25T16:22:28.312Z</time></trkpt><trkpt lat="43.3927635" lon="11.2138312"><ele>190.5</ele><time>2026-04-25T16:22:29.31Z</time></trkpt><trkpt lat="43.3927551" lon="11.2141792"><ele>191.0</ele><time>2026-04-25T16:22:30.306Z</time></trkpt><trkpt lat="43.3927511" lon="11.2145257"><ele>191.0</ele><time>2026-04-25T16:22:31.324Z</time></trkpt><trkpt lat="43.392741" lon="11.2148689"><ele>191.0</ele><time>2026-04-25T16:22:32.315Z</time></trkpt><trkpt lat="43.3927342" lon="11.2152054"><ele>191.0</ele><time>2026-04-25T16:22:33.324Z</time></trkpt><trkpt lat="43.3927265" lon="11.2155324"><ele>191.0</ele><time>2026-04-25T16:22:34.317Z</time></trkpt><trkpt lat="43.3927156" lon="11.2158567"><ele>191.33333333333331</ele><time>2026-04-25T16:22:35.311Z</time></trkpt><trkpt lat="43.3927039" lon="11.216169"><ele>191.66666666666666</ele><time>2026-04-25T16:22:36.329Z</time></trkpt><trkpt lat="43.3926989" lon="11.2164627"><ele>192.0</ele><time>2026-04-25T16:22:37.305Z</time></trkpt><trkpt lat="43.3926995" lon="11.2167212"><ele>193.0</ele><time>2026-04-25T16:22:38.302Z</time></trkpt><trkpt lat="43.3927083" lon="11.2169475"><ele>194.0</ele><time>2026-04-25T16:22:39.312Z</time></trkpt><trkpt lat="43.3927393" lon="11.2171519"><ele>195.0</ele><time>2026-04-25T16:22:40.312Z</time></trkpt><trkpt lat="43.3928067" lon="11.2173344"><ele>195.75</ele><time>2026-04-25T16:22:41.301Z</time></trkpt><trkpt lat="43.3928991" lon="11.2175117"><ele>196.5</ele><time>2026-04-25T16:22:42.309Z</time></trkpt><trkpt lat="43.3929928" lon="11.2176481"><ele>197.25</ele><time>2026-04-25T16:22:43.306Z</time></trkpt><trkpt lat="43.3930693" lon="11.2177479"><ele>198.0</ele><time>2026-04-25T16:22:44.309Z</time></trkpt><trkpt lat="43.3931281" lon="11.2178438"><ele>198.0</ele><time>2026-04-25T16:22:45.306Z</time></trkpt><trkpt lat="43.3931641" lon="11.2179834"><ele>198.0</ele><time>2026-04-25T16:22:47.314Z</time></trkpt><trkpt lat="43.3931745" lon="11.2181107"><ele>198.0</ele><time>2026-04-25T16:22:49.316Z</time></trkpt><trkpt lat="43.3931716" lon="11.218203"><ele>198.0</ele><time>2026-04-25T16:22:50.314Z</time></trkpt><trkpt lat="43.3931767" lon="11.2183054"><ele>198.0</ele><time>2026-04-25T16:22:51.306Z</time></trkpt><trkpt lat="43.3931765" lon="11.2184058"><ele>198.0</ele><time>2026-04-25T16:22:52.289Z</time></trkpt><trkpt lat="43.3931571" lon="11.2185024"><ele>198.8</ele><time>2026-04-25T16:22:53.329Z</time></trkpt><trkpt lat="43.3931146" lon="11.2185855"><ele>199.60000000000002</ele><time>2026-04-25T16:22:54.307Z</time></trkpt><trkpt lat="43.393043" lon="11.2187104"><ele>200.39999999999998</ele><time>2026-04-25T16:22:56.281Z</time></trkpt><trkpt lat="43.3929496" lon="11.2188136"><ele>201.2</ele><time>2026-04-25T16:22:58.291Z</time></trkpt><trkpt lat="43.3928919" lon="11.2188842"><ele>202.0</ele><time>2026-04-25T16:23:00.276Z</time></trkpt><trkpt lat="43.3928113" lon="11.2189662"><ele>203.5</ele><time>2026-04-25T16:23:07.304Z</time></trkpt><trkpt lat="43.392749" lon="11.219041"><ele>205.0</ele><time>2026-04-25T16:23:08.296Z</time></trkpt><trkpt lat="43.3926357" lon="11.2191426"><ele>206.5</ele><time>2026-04-25T16:23:09.308Z</time></trkpt><trkpt lat="43.3925131" lon="11.2192433"><ele>208.0</ele><time>2026-04-25T16:23:10.32Z</time></trkpt><trkpt lat="43.3923589" lon="11.2193199"><ele>208.0</ele><time>2026-04-25T16:23:11.311Z</time></trkpt><trkpt lat="43.3921863" lon="11.2193579"><ele>208.0</ele><time>2026-04-25T16:23:12.307Z</time></trkpt><trkpt lat="43.3920116" lon="11.2193499"><ele>208.0</ele><time>2026-04-25T16:23:13.293Z</time></trkpt><trkpt lat="43.3918386" lon="11.2193507"><ele>210.33333333333331</ele><time>2026-04-25T16:23:14.322Z</time></trkpt><trkpt lat="43.3916685" lon="11.2194259"><ele>212.66666666666669</ele><time>2026-04-25T16:23:15.311Z</time></trkpt><trkpt lat="43.3915142" lon="11.2195552"><ele>215.0</ele><time>2026-04-25T16:23:16.31Z</time></trkpt><trkpt lat="43.3913559" lon="11.2196878"><ele>214.66666666666669</ele><time>2026-04-25T16:23:17.302Z</time></trkpt><trkpt lat="43.3911959" lon="11.2197913"><ele>214.33333333333331</ele><time>2026-04-25T16:23:18.303Z</time></trkpt><trkpt lat="43.3910271" lon="11.2198453"><ele>214.0</ele><time>2026-04-25T16:23:19.307Z</time></trkpt><trkpt lat="43.390849" lon="11.2198614"><ele>214.0</ele><time>2026-04-25T16:23:20.309Z</time></trkpt><trkpt lat="43.3906781" lon="11.2198632"><ele>214.0</ele><time>2026-04-25T16:23:21.315Z</time></trkpt><trkpt lat="43.3905082" lon="11.2198681"><ele>214.0</ele><time>2026-04-25T16:23:22.308Z</time></trkpt><trkpt lat="43.3903504" lon="11.219895"><ele>215.33333333333331</ele><time>2026-04-25T16:23:23.309Z</time></trkpt><trkpt lat="43.3901882" lon="11.2199461"><ele>216.66666666666669</ele><time>2026-04-25T16:23:24.301Z</time></trkpt><trkpt lat="43.3900211" lon="11.2200437"><ele>218.0</ele><time>2026-04-25T16:23:25.321Z</time></trkpt><trkpt lat="43.3898405" lon="11.220174"><ele>217.66666666666669</ele><time>2026-04-25T16:23:26.315Z</time></trkpt><trkpt lat="43.3896647" lon="11.2203068"><ele>217.33333333333331</ele><time>2026-04-25T16:23:27.302Z</time></trkpt><trkpt lat="43.3894868" lon="11.2204495"><ele>217.0</ele><time>2026-04-25T16:23:28.312Z</time></trkpt><trkpt lat="43.3893152" lon="11.2206012"><ele>218.33333333333331</ele><time>2026-04-25T16:23:29.291Z</time></trkpt><trkpt lat="43.3891432" lon="11.2207621"><ele>219.66666666666669</ele><time>2026-04-25T16:23:30.316Z</time></trkpt><trkpt lat="43.3889755" lon="11.2209336"><ele>221.0</ele><time>2026-04-25T16:23:31.314Z</time></trkpt><trkpt lat="43.3888042" lon="11.2211191"><ele>221.0</ele><time>2026-04-25T16:23:32.31Z</time></trkpt><trkpt lat="43.3886249" lon="11.221309"><ele>221.0</ele><time>2026-04-25T16:23:33.316Z</time></trkpt><trkpt lat="43.3884398" lon="11.2215039"><ele>224.0</ele><time>2026-04-25T16:23:34.303Z</time></trkpt><trkpt lat="43.3882505" lon="11.2217154"><ele>227.0</ele><time>2026-04-25T16:23:35.306Z</time></trkpt><trkpt lat="43.3880597" lon="11.2219358"><ele>228.0</ele><time>2026-04-25T16:23:36.342Z</time></trkpt><trkpt lat="43.3878852" lon="11.2221368"><ele>229.0</ele><time>2026-04-25T16:23:37.304Z</time></trkpt><trkpt lat="43.38771" lon="11.2223362"><ele>229.0</ele><time>2026-04-25T16:23:38.316Z</time></trkpt><trkpt lat="43.3875332" lon="11.2225551"><ele>229.0</ele><time>2026-04-25T16:23:39.322Z</time></trkpt><trkpt lat="43.3873435" lon="11.2227767"><ele>228.0</ele><time>2026-04-25T16:23:40.315Z</time></trkpt><trkpt lat="43.3871486" lon="11.2230207"><ele>227.0</ele><time>2026-04-25T16:23:41.316Z</time></trkpt><trkpt lat="43.3869598" lon="11.2232654"><ele>227.0</ele><time>2026-04-25T16:23:42.306Z</time></trkpt><trkpt lat="43.386769" lon="11.2235136"><ele>227.0</ele><time>2026-04-25T16:23:43.315Z</time></trkpt><trkpt lat="43.3865936" lon="11.223777"><ele>229.5</ele><time>2026-04-25T16:23:44.308Z</time></trkpt><trkpt lat="43.3864235" lon="11.224042"><ele>232.0</ele><time>2026-04-25T16:23:45.316Z</time></trkpt><trkpt lat="43.3862511" lon="11.224295"><ele>232.33333333333331</ele><time>2026-04-25T16:23:46.311Z</time></trkpt><trkpt lat="43.3861028" lon="11.224524"><ele>232.66666666666669</ele><time>2026-04-25T16:23:47.311Z</time></trkpt><trkpt lat="43.3859736" lon="11.224733"><ele>233.0</ele><time>2026-04-25T16:23:48.31Z</time></trkpt><trkpt lat="43.3858699" lon="11.2249513"><ele>234.33333333333334</ele><time>2026-04-25T16:23:49.309Z</time></trkpt><trkpt lat="43.3857951" lon="11.2252027"><ele>235.66666666666669</ele><time>2026-04-25T16:23:50.317Z</time></trkpt><trkpt lat="43.3857454" lon="11.2254784"><ele>237.0</ele><time>2026-04-25T16:23:51.298Z</time></trkpt><trkpt lat="43.3857046" lon="11.2257522"><ele>238.66666666666669</ele><time>2026-04-25T16:23:52.308Z</time></trkpt><trkpt lat="43.3856602" lon="11.2260211"><ele>240.33333333333334</ele><time>2026-04-25T16:23:53.313Z</time></trkpt><trkpt lat="43.385621" lon="11.2262793"><ele>242.0</ele><time>2026-04-25T16:23:54.317Z</time></trkpt><trkpt lat="43.38558" lon="11.2265365"><ele>241.66666666666669</ele><time>2026-04-25T16:23:55.32Z</time></trkpt><trkpt lat="43.3855343" lon="11.2267837"><ele>241.33333333333331</ele><time>2026-04-25T16:23:56.331Z</time></trkpt><trkpt lat="43.3854929" lon="11.227027"><ele>241.0</ele><time>2026-04-25T16:23:57.317Z</time></trkpt><trkpt lat="43.3854533" lon="11.2272539"><ele>240.33333333333331</ele><time>2026-04-25T16:23:58.321Z</time></trkpt><trkpt lat="43.3854112" lon="11.2274865"><ele>239.66666666666669</ele><time>2026-04-25T16:23:59.317Z</time></trkpt><trkpt lat="43.3853768" lon="11.2277272"><ele>239.0</ele><time>2026-04-25T16:24:00.31Z</time></trkpt><trkpt lat="43.3853409" lon="11.2279637"><ele>238.33333333333334</ele><time>2026-04-25T16:24:01.321Z</time></trkpt><trkpt lat="43.3853096" lon="11.2281973"><ele>237.66666666666669</ele><time>2026-04-25T16:24:02.313Z</time></trkpt><trkpt lat="43.3852777" lon="11.2284328"><ele>237.0</ele><time>2026-04-25T16:24:03.302Z</time></trkpt><trkpt lat="43.3852466" lon="11.2286653"><ele>237.0</ele><time>2026-04-25T16:24:04.304Z</time></trkpt><trkpt lat="43.3852142" lon="11.2288994"><ele>237.0</ele><time>2026-04-25T16:24:05.298Z</time></trkpt><trkpt lat="43.3851923" lon="11.2291304"><ele>237.0</ele><time>2026-04-25T16:24:06.316Z</time></trkpt><trkpt lat="43.3851752" lon="11.2293532"><ele>236.66666666666669</ele><time>2026-04-25T16:24:07.319Z</time></trkpt><trkpt lat="43.3851575" lon="11.2295776"><ele>236.33333333333334</ele><time>2026-04-25T16:24:08.307Z</time></trkpt><trkpt lat="43.3851425" lon="11.2298258"><ele>236.0</ele><time>2026-04-25T16:24:09.32Z</time></trkpt><trkpt lat="43.3851268" lon="11.2300881"><ele>236.0</ele><time>2026-04-25T16:24:10.314Z</time></trkpt><trkpt lat="43.3851013" lon="11.2303505"><ele>236.0</ele><time>2026-04-25T16:24:11.302Z</time></trkpt><trkpt lat="43.3850726" lon="11.2306049"><ele>236.0</ele><time>2026-04-25T16:24:12.296Z</time></trkpt><trkpt lat="43.3850417" lon="11.2308563"><ele>235.66666666666669</ele><time>2026-04-25T16:24:13.317Z</time></trkpt><trkpt lat="43.3850163" lon="11.23111"><ele>235.33333333333331</ele><time>2026-04-25T16:24:14.312Z</time></trkpt><trkpt lat="43.3849888" lon="11.2313751"><ele>235.0</ele><time>2026-04-25T16:24:15.315Z</time></trkpt><trkpt lat="43.3849774" lon="11.231642"><ele>234.33333333333331</ele><time>2026-04-25T16:24:16.293Z</time></trkpt><trkpt lat="43.384989" lon="11.2319248"><ele>233.66666666666669</ele><time>2026-04-25T16:24:17.309Z</time></trkpt><trkpt lat="43.3850193" lon="11.2322299"><ele>233.0</ele><time>2026-04-25T16:24:18.308Z</time></trkpt><trkpt lat="43.3850663" lon="11.2325501"><ele>230.5</ele><time>2026-04-25T16:24:19.295Z</time></trkpt><trkpt lat="43.3851371" lon="11.2328921"><ele>228.0</ele><time>2026-04-25T16:24:20.301Z</time></trkpt><trkpt lat="43.3852352" lon="11.2332551"><ele>226.0</ele><time>2026-04-25T16:24:21.314Z</time></trkpt><trkpt lat="43.3853618" lon="11.2336259"><ele>224.0</ele><time>2026-04-25T16:24:22.316Z</time></trkpt><trkpt lat="43.3854774" lon="11.2339739"><ele>222.0</ele><time>2026-04-25T16:24:23.328Z</time></trkpt><trkpt lat="43.3855763" lon="11.234313"><ele>220.0</ele><time>2026-04-25T16:24:24.304Z</time></trkpt><trkpt lat="43.3856779" lon="11.234634"><ele>220.5</ele><time>2026-04-25T16:24:25.307Z</time></trkpt><trkpt lat="43.385781" lon="11.234942"><ele>221.0</ele><time>2026-04-25T16:24:26.297Z</time></trkpt><trkpt lat="43.3858772" lon="11.2352249"><ele>221.0</ele><time>2026-04-25T16:24:27.305Z</time></trkpt><trkpt lat="43.3859607" lon="11.2355018"><ele>221.0</ele><time>2026-04-25T16:24:28.303Z</time></trkpt><trkpt lat="43.3860409" lon="11.2357602"><ele>221.0</ele><time>2026-04-25T16:24:29.291Z</time></trkpt><trkpt lat="43.3861151" lon="11.2359964"><ele>221.75</ele><time>2026-04-25T16:24:30.309Z</time></trkpt><trkpt lat="43.3861862" lon="11.236201"><ele>222.5</ele><time>2026-04-25T16:24:31.298Z</time></trkpt><trkpt lat="43.3862363" lon="11.2363901"><ele>223.25</ele><time>2026-04-25T16:24:32.312Z</time></trkpt><trkpt lat="43.386258" lon="11.2365771"><ele>224.0</ele><time>2026-04-25T16:24:33.313Z</time></trkpt><trkpt lat="43.3862145" lon="11.2367829"><ele>225.66666666666669</ele><time>2026-04-25T16:24:34.311Z</time></trkpt><trkpt lat="43.3860993" lon="11.2369796"><ele>227.33333333333331</ele><time>2026-04-25T16:24:35.316Z</time></trkpt><trkpt lat="43.3859526" lon="11.2371458"><ele>229.0</ele><time>2026-04-25T16:24:36.306Z</time></trkpt><trkpt lat="43.385773" lon="11.2373168"><ele>229.66666666666666</ele><time>2026-04-25T16:24:37.313Z</time></trkpt><trkpt lat="43.3855905" lon="11.2374876"><ele>230.33333333333331</ele><time>2026-04-25T16:24:38.306Z</time></trkpt><trkpt lat="43.3854098" lon="11.2376581"><ele>231.0</ele><time>2026-04-25T16:24:39.315Z</time></trkpt><trkpt lat="43.3852122" lon="11.2378353"><ele>234.5</ele><time>2026-04-25T16:24:40.289Z</time></trkpt><trkpt lat="43.3850004" lon="11.2380203"><ele>238.0</ele><time>2026-04-25T16:24:41.307Z</time></trkpt><trkpt lat="43.384783" lon="11.2382016"><ele>241.0</ele><time>2026-04-25T16:24:42.306Z</time></trkpt><trkpt lat="43.3845681" lon="11.2383891"><ele>244.0</ele><time>2026-04-25T16:24:43.284Z</time></trkpt><trkpt lat="43.384345" lon="11.23858"><ele>244.0</ele><time>2026-04-25T16:24:44.308Z</time></trkpt><trkpt lat="43.3841333" lon="11.2387735"><ele>244.0</ele><time>2026-04-25T16:24:45.285Z</time></trkpt><trkpt lat="43.383926" lon="11.2389531"><ele>242.66666666666666</ele><time>2026-04-25T16:24:46.301Z</time></trkpt><trkpt lat="43.3837366" lon="11.2391167"><ele>241.33333333333331</ele><time>2026-04-25T16:24:47.312Z</time></trkpt><trkpt lat="43.383561" lon="11.2392699"><ele>240.0</ele><time>2026-04-25T16:24:48.305Z</time></trkpt><trkpt lat="43.3833939" lon="11.2394297"><ele>240.0</ele><time>2026-04-25T16:24:49.296Z</time></trkpt><trkpt lat="43.3832391" lon="11.2395756"><ele>240.0</ele><time>2026-04-25T16:24:50.313Z</time></trkpt><trkpt lat="43.3830893" lon="11.2397183"><ele>240.0</ele><time>2026-04-25T16:24:51.308Z</time></trkpt><trkpt lat="43.3829628" lon="11.2399071"><ele>241.0</ele><time>2026-04-25T16:24:52.288Z</time></trkpt><trkpt lat="43.3828615" lon="11.240164"><ele>242.0</ele><time>2026-04-25T16:24:53.309Z</time></trkpt><trkpt lat="43.3827669" lon="11.2404391"><ele>243.0</ele><time>2026-04-25T16:24:54.309Z</time></trkpt><trkpt lat="43.3826678" lon="11.2407335"><ele>243.0</ele><time>2026-04-25T16:24:55.309Z</time></trkpt><trkpt lat="43.3825711" lon="11.2410353"><ele>243.0</ele><time>2026-04-25T16:24:56.286Z</time></trkpt><trkpt lat="43.3824823" lon="11.2413204"><ele>241.0</ele><time>2026-04-25T16:24:57.312Z</time></trkpt><trkpt lat="43.3823954" lon="11.2415919"><ele>239.0</ele><time>2026-04-25T16:24:58.305Z</time></trkpt><trkpt lat="43.382305" lon="11.2418476"><ele>237.0</ele><time>2026-04-25T16:24:59.304Z</time></trkpt><trkpt lat="43.3822232" lon="11.2421009"><ele>235.66666666666669</ele><time>2026-04-25T16:25:00.304Z</time></trkpt><trkpt lat="43.3821509" lon="11.2423408"><ele>234.33333333333334</ele><time>2026-04-25T16:25:01.311Z</time></trkpt><trkpt lat="43.3820761" lon="11.2425627"><ele>233.0</ele><time>2026-04-25T16:25:02.317Z</time></trkpt><trkpt lat="43.3820052" lon="11.242769"><ele>233.0</ele><time>2026-04-25T16:25:03.303Z</time></trkpt><trkpt lat="43.3819564" lon="11.2429476"><ele>233.0</ele><time>2026-04-25T16:25:04.316Z</time></trkpt><trkpt lat="43.3819505" lon="11.2431384"><ele>233.0</ele><time>2026-04-25T16:25:05.316Z</time></trkpt><trkpt lat="43.3819915" lon="11.2433247"><ele>233.0</ele><time>2026-04-25T16:25:06.313Z</time></trkpt><trkpt lat="43.3820659" lon="11.2435027"><ele>234.66666666666669</ele><time>2026-04-25T16:25:07.319Z</time></trkpt><trkpt lat="43.3821697" lon="11.2436651"><ele>236.33333333333331</ele><time>2026-04-25T16:25:08.296Z</time></trkpt><trkpt lat="43.38227" lon="11.2438321"><ele>238.0</ele><time>2026-04-25T16:25:09.304Z</time></trkpt><trkpt lat="43.3823623" lon="11.2440183"><ele>238.33333333333331</ele><time>2026-04-25T16:25:10.301Z</time></trkpt><trkpt lat="43.3824055" lon="11.2442345"><ele>238.66666666666669</ele><time>2026-04-25T16:25:11.315Z</time></trkpt><trkpt lat="43.382405" lon="11.2444575"><ele>239.0</ele><time>2026-04-25T16:25:12.307Z</time></trkpt><trkpt lat="43.3823673" lon="11.2446777"><ele>239.66666666666669</ele><time>2026-04-25T16:25:13.287Z</time></trkpt><trkpt lat="43.3822929" lon="11.2448818"><ele>240.33333333333331</ele><time>2026-04-25T16:25:14.295Z</time></trkpt><trkpt lat="43.3821846" lon="11.2450533"><ele>241.0</ele><time>2026-04-25T16:25:15.313Z</time></trkpt><trkpt lat="43.3820378" lon="11.2451632"><ele>241.0</ele><time>2026-04-25T16:25:16.306Z</time></trkpt><trkpt lat="43.3818505" lon="11.2452543"><ele>241.0</ele><time>2026-04-25T16:25:17.3Z</time></trkpt><trkpt lat="43.3816489" lon="11.2453234"><ele>241.0</ele><time>2026-04-25T16:25:18.305Z</time></trkpt><trkpt lat="43.3814502" lon="11.2454003"><ele>240.33333333333331</ele><time>2026-04-25T16:25:19.304Z</time></trkpt><trkpt lat="43.3812451" lon="11.2455104"><ele>239.66666666666669</ele><time>2026-04-25T16:25:20.316Z</time></trkpt><trkpt lat="43.3810591" lon="11.245646"><ele>239.0</ele><time>2026-04-25T16:25:21.289Z</time></trkpt><trkpt lat="43.3808853" lon="11.2458151"><ele>239.0</ele><time>2026-04-25T16:25:22.307Z</time></trkpt><trkpt lat="43.3807231" lon="11.2459854"><ele>239.0</ele><time>2026-04-25T16:25:23.318Z</time></trkpt><trkpt lat="43.3805482" lon="11.2461299"><ele>239.0</ele><time>2026-04-25T16:25:24.301Z</time></trkpt><trkpt lat="43.3803637" lon="11.2462403"><ele>241.33333333333334</ele><time>2026-04-25T16:25:25.31Z</time></trkpt><trkpt lat="43.3801657" lon="11.2463135"><ele>243.66666666666669</ele><time>2026-04-25T16:25:26.339Z</time></trkpt><trkpt lat="43.3799536" lon="11.2463464"><ele>246.0</ele><time>2026-04-25T16:25:27.316Z</time></trkpt><trkpt lat="43.3797315" lon="11.2463618"><ele>246.66666666666669</ele><time>2026-04-25T16:25:28.318Z</time></trkpt><trkpt lat="43.3795303" lon="11.2463897"><ele>247.33333333333334</ele><time>2026-04-25T16:25:29.309Z</time></trkpt><trkpt lat="43.3793358" lon="11.2464517"><ele>248.0</ele><time>2026-04-25T16:25:30.316Z</time></trkpt><trkpt lat="43.3791398" lon="11.2465649"><ele>244.66666666666669</ele><time>2026-04-25T16:25:31.318Z</time></trkpt><trkpt lat="43.3789546" lon="11.246741"><ele>241.33333333333331</ele><time>2026-04-25T16:25:32.307Z</time></trkpt><trkpt lat="43.37878" lon="11.246929"><ele>238.0</ele><time>2026-04-25T16:25:33.322Z</time></trkpt><trkpt lat="43.3786082" lon="11.2471275"><ele>242.5</ele><time>2026-04-25T16:25:34.309Z</time></trkpt><trkpt lat="43.378455" lon="11.2473579"><ele>247.0</ele><time>2026-04-25T16:25:35.293Z</time></trkpt><trkpt lat="43.3783151" lon="11.2476156"><ele>247.0</ele><time>2026-04-25T16:25:36.308Z</time></trkpt><trkpt lat="43.3782019" lon="11.2478927"><ele>247.0</ele><time>2026-04-25T16:25:37.305Z</time></trkpt><trkpt lat="43.3781029" lon="11.2481498"><ele>247.0</ele><time>2026-04-25T16:25:38.317Z</time></trkpt><trkpt lat="43.378003" lon="11.2483807"><ele>249.33333333333331</ele><time>2026-04-25T16:25:39.304Z</time></trkpt><trkpt lat="43.3779061" lon="11.2485986"><ele>251.66666666666669</ele><time>2026-04-25T16:25:40.312Z</time></trkpt><trkpt lat="43.3777862" lon="11.2487879"><ele>254.0</ele><time>2026-04-25T16:25:41.302Z</time></trkpt><trkpt lat="43.3776202" lon="11.2489334"><ele>254.0</ele><time>2026-04-25T16:25:42.306Z</time></trkpt><trkpt lat="43.3774186" lon="11.2490155"><ele>254.0</ele><time>2026-04-25T16:25:43.306Z</time></trkpt><trkpt lat="43.3772108" lon="11.2490456"><ele>254.0</ele><time>2026-04-25T16:25:44.312Z</time></trkpt><trkpt lat="43.3770158" lon="11.249087"><ele>254.0</ele><time>2026-04-25T16:25:45.314Z</time></trkpt><trkpt lat="43.3768333" lon="11.249127"><ele>254.0</ele><time>2026-04-25T16:25:46.296Z</time></trkpt><trkpt lat="43.3766792" lon="11.2492226"><ele>254.0</ele><time>2026-04-25T16:25:47.295Z</time></trkpt><trkpt lat="43.3765528" lon="11.2494245"><ele>254.0</ele><time>2026-04-25T16:25:48.312Z</time></trkpt><trkpt lat="43.376446" lon="11.2496862"><ele>254.0</ele><time>2026-04-25T16:25:49.314Z</time></trkpt><trkpt lat="43.3763253" lon="11.249947"><ele>254.0</ele><time>2026-04-25T16:25:50.3Z</time></trkpt><trkpt lat="43.3761989" lon="11.2502171"><ele>257.6666666666667</ele><time>2026-04-25T16:25:51.306Z</time></trkpt><trkpt lat="43.3760793" lon="11.2504754"><ele>261.3333333333333</ele><time>2026-04-25T16:25:52.294Z</time></trkpt><trkpt lat="43.3759682" lon="11.2507198"><ele>265.0</ele><time>2026-04-25T16:25:53.302Z</time></trkpt><trkpt lat="43.3758846" lon="11.2509804"><ele>265.0</ele><time>2026-04-25T16:25:54.317Z</time></trkpt><trkpt lat="43.3758089" lon="11.2512569"><ele>265.0</ele><time>2026-04-25T16:25:55.313Z</time></trkpt><trkpt lat="43.3757823" lon="11.2515444"><ele>265.0</ele><time>2026-04-25T16:25:56.314Z</time></trkpt><trkpt lat="43.3757739" lon="11.2518248"><ele>264.3333333333333</ele><time>2026-04-25T16:25:57.322Z</time></trkpt><trkpt lat="43.3757535" lon="11.2521001"><ele>263.6666666666667</ele><time>2026-04-25T16:25:58.306Z</time></trkpt><trkpt lat="43.3757022" lon="11.252377"><ele>263.0</ele><time>2026-04-25T16:25:59.305Z</time></trkpt><trkpt lat="43.3755876" lon="11.2526183"><ele>264.6666666666667</ele><time>2026-04-25T16:26:00.307Z</time></trkpt><trkpt lat="43.3754688" lon="11.2528322"><ele>266.3333333333333</ele><time>2026-04-25T16:26:01.3Z</time></trkpt><trkpt lat="43.3753594" lon="11.2530299"><ele>268.0</ele><time>2026-04-25T16:26:02.31Z</time></trkpt><trkpt lat="43.3752206" lon="11.253206"><ele>268.0</ele><time>2026-04-25T16:26:03.309Z</time></trkpt><trkpt lat="43.3750615" lon="11.2533461"><ele>268.0</ele><time>2026-04-25T16:26:04.305Z</time></trkpt><trkpt lat="43.374883" lon="11.2534677"><ele>268.0</ele><time>2026-04-25T16:26:05.297Z</time></trkpt><trkpt lat="43.3747012" lon="11.2536156"><ele>267.5</ele><time>2026-04-25T16:26:06.316Z</time></trkpt><trkpt lat="43.3745251" lon="11.2537927"><ele>267.0</ele><time>2026-04-25T16:26:07.309Z</time></trkpt><trkpt lat="43.3743508" lon="11.2540253"><ele>267.0</ele><time>2026-04-25T16:26:08.304Z</time></trkpt><trkpt lat="43.374171" lon="11.2542613"><ele>267.0</ele><time>2026-04-25T16:26:09.3Z</time></trkpt><trkpt lat="43.3739931" lon="11.2544806"><ele>266.6666666666667</ele><time>2026-04-25T16:26:10.286Z</time></trkpt><trkpt lat="43.373825" lon="11.2546918"><ele>266.33333333333337</ele><time>2026-04-25T16:26:11.32Z</time></trkpt><trkpt lat="43.3736636" lon="11.2548716"><ele>266.0</ele><time>2026-04-25T16:26:12.299Z</time></trkpt><trkpt lat="43.3734979" lon="11.2550279"><ele>266.0</ele><time>2026-04-25T16:26:13.289Z</time></trkpt><trkpt lat="43.3733352" lon="11.2551142"><ele>266.0</ele><time>2026-04-25T16:26:14.313Z</time></trkpt><trkpt lat="43.3731508" lon="11.255167"><ele>266.0</ele><time>2026-04-25T16:26:15.315Z</time></trkpt><trkpt lat="43.3729916" lon="11.2551725"><ele>267.0</ele><time>2026-04-25T16:26:16.301Z</time></trkpt><trkpt lat="43.3728048" lon="11.255089"><ele>268.0</ele><time>2026-04-25T16:26:17.302Z</time></trkpt><trkpt lat="43.3726077" lon="11.2549997"><ele>269.0</ele><time>2026-04-25T16:26:18.305Z</time></trkpt><trkpt lat="43.3723957" lon="11.2549483"><ele>270.0</ele><time>2026-04-25T16:26:19.309Z</time></trkpt><trkpt lat="43.3721574" lon="11.2549303"><ele>271.0</ele><time>2026-04-25T16:26:20.312Z</time></trkpt><trkpt lat="43.3719101" lon="11.2549126"><ele>271.0</ele><time>2026-04-25T16:26:21.316Z</time></trkpt><trkpt lat="43.3716577" lon="11.2548918"><ele>271.0</ele><time>2026-04-25T16:26:22.301Z</time></trkpt><trkpt lat="43.3714053" lon="11.2548686"><ele>275.0</ele><time>2026-04-25T16:26:23.312Z</time></trkpt><trkpt lat="43.3711512" lon="11.2548482"><ele>279.0</ele><time>2026-04-25T16:26:24.314Z</time></trkpt><trkpt lat="43.3709007" lon="11.2548251"><ele>279.0</ele><time>2026-04-25T16:26:25.305Z</time></trkpt><trkpt lat="43.3706459" lon="11.2547972"><ele>279.0</ele><time>2026-04-25T16:26:26.309Z</time></trkpt><trkpt lat="43.3704034" lon="11.2547727"><ele>276.5</ele><time>2026-04-25T16:26:27.316Z</time></trkpt><trkpt lat="43.370155" lon="11.2547244"><ele>274.0</ele><time>2026-04-25T16:26:28.307Z</time></trkpt><trkpt lat="43.3699124" lon="11.2546385"><ele>279.5</ele><time>2026-04-25T16:26:29.311Z</time></trkpt><trkpt lat="43.3696639" lon="11.2545208"><ele>285.0</ele><time>2026-04-25T16:26:30.31Z</time></trkpt><trkpt lat="43.3694118" lon="11.2543997"><ele>285.0</ele><time>2026-04-25T16:26:31.314Z</time></trkpt><trkpt lat="43.3691694" lon="11.2542902"><ele>285.0</ele><time>2026-04-25T16:26:32.289Z</time></trkpt><trkpt lat="43.3689387" lon="11.2542069"><ele>286.5</ele><time>2026-04-25T16:26:33.31Z</time></trkpt><trkpt lat="43.3687009" lon="11.2541643"><ele>288.0</ele><time>2026-04-25T16:26:34.307Z</time></trkpt><trkpt lat="43.3684683" lon="11.2541624"><ele>288.0</ele><time>2026-04-25T16:26:35.305Z</time></trkpt><trkpt lat="43.3682377" lon="11.2541978"><ele>288.0</ele><time>2026-04-25T16:26:36.305Z</time></trkpt><trkpt lat="43.368" lon="11.2542367"><ele>288.5</ele><time>2026-04-25T16:26:37.321Z</time></trkpt><trkpt lat="43.3677617" lon="11.2542798"><ele>289.0</ele><time>2026-04-25T16:26:38.313Z</time></trkpt><trkpt lat="43.3675353" lon="11.2543003"><ele>289.0</ele><time>2026-04-25T16:26:39.287Z</time></trkpt><trkpt lat="43.3673129" lon="11.2543096"><ele>289.0</ele><time>2026-04-25T16:26:40.295Z</time></trkpt><trkpt lat="43.3670879" lon="11.2542879"><ele>289.0</ele><time>2026-04-25T16:26:41.301Z</time></trkpt><trkpt lat="43.3668564" lon="11.2542536"><ele>289.66666666666663</ele><time>2026-04-25T16:26:42.31Z</time></trkpt><trkpt lat="43.3666316" lon="11.2542224"><ele>290.3333333333333</ele><time>2026-04-25T16:26:43.292Z</time></trkpt><trkpt lat="43.3664096" lon="11.2542002"><ele>291.0</ele><time>2026-04-25T16:26:44.314Z</time></trkpt><trkpt lat="43.3661917" lon="11.2541765"><ele>292.3333333333333</ele><time>2026-04-25T16:26:45.286Z</time></trkpt><trkpt lat="43.3659821" lon="11.2541503"><ele>293.66666666666663</ele><time>2026-04-25T16:26:46.302Z</time></trkpt><trkpt lat="43.3657903" lon="11.2541561"><ele>295.0</ele><time>2026-04-25T16:26:47.307Z</time></trkpt><trkpt lat="43.3655964" lon="11.254213"><ele>293.0</ele><time>2026-04-25T16:26:48.286Z</time></trkpt><trkpt lat="43.3654094" lon="11.254306"><ele>291.0</ele><time>2026-04-25T16:26:49.297Z</time></trkpt><trkpt lat="43.365231" lon="11.2544549"><ele>289.0</ele><time>2026-04-25T16:26:50.31Z</time></trkpt><trkpt lat="43.3650457" lon="11.254636"><ele>287.0</ele><time>2026-04-25T16:26:51.304Z</time></trkpt><trkpt lat="43.3648358" lon="11.2548326"><ele>285.0</ele><time>2026-04-25T16:26:52.286Z</time></trkpt><trkpt lat="43.3646275" lon="11.2550119"><ele>285.0</ele><time>2026-04-25T16:26:53.332Z</time></trkpt><trkpt lat="43.3644469" lon="11.2551724"><ele>285.0</ele><time>2026-04-25T16:26:54.313Z</time></trkpt><trkpt lat="43.3642898" lon="11.2553114"><ele>285.0</ele><time>2026-04-25T16:26:55.288Z</time></trkpt><trkpt lat="43.3641409" lon="11.2554346"><ele>285.0</ele><time>2026-04-25T16:26:56.309Z</time></trkpt><trkpt lat="43.3639855" lon="11.2555141"><ele>285.0</ele><time>2026-04-25T16:26:57.314Z</time></trkpt><trkpt lat="43.3638136" lon="11.2555459"><ele>285.0</ele><time>2026-04-25T16:26:58.288Z</time></trkpt><trkpt lat="43.3636234" lon="11.2555187"><ele>283.3333333333333</ele><time>2026-04-25T16:26:59.312Z</time></trkpt><trkpt lat="43.3634307" lon="11.2554611"><ele>281.66666666666663</ele><time>2026-04-25T16:27:00.315Z</time></trkpt><trkpt lat="43.3632451" lon="11.2554056"><ele>280.0</ele><time>2026-04-25T16:27:01.322Z</time></trkpt><trkpt lat="43.3630716" lon="11.2553574"><ele>279.0</ele><time>2026-04-25T16:27:02.324Z</time></trkpt><trkpt lat="43.3629158" lon="11.2553344"><ele>278.0</ele><time>2026-04-25T16:27:03.326Z</time></trkpt><trkpt lat="43.3627505" lon="11.255363"><ele>277.0</ele><time>2026-04-25T16:27:04.328Z</time></trkpt><trkpt lat="43.3626169" lon="11.2554461"><ele>277.0</ele><time>2026-04-25T16:27:05.316Z</time></trkpt><trkpt lat="43.3624683" lon="11.2555923"><ele>277.0</ele><time>2026-04-25T16:27:06.304Z</time></trkpt><trkpt lat="43.3623415" lon="11.2558156"><ele>277.0</ele><time>2026-04-25T16:27:07.317Z</time></trkpt><trkpt lat="43.3622147" lon="11.2560456"><ele>275.66666666666663</ele><time>2026-04-25T16:27:08.313Z</time></trkpt><trkpt lat="43.3621105" lon="11.2563018"><ele>274.3333333333333</ele><time>2026-04-25T16:27:09.32Z</time></trkpt><trkpt lat="43.362012" lon="11.2565521"><ele>273.0</ele><time>2026-04-25T16:27:10.314Z</time></trkpt><trkpt lat="43.361914" lon="11.2567903"><ele>273.0</ele><time>2026-04-25T16:27:11.315Z</time></trkpt><trkpt lat="43.3618214" lon="11.2570188"><ele>273.0</ele><time>2026-04-25T16:27:12.319Z</time></trkpt><trkpt lat="43.3617279" lon="11.2572415"><ele>273.0</ele><time>2026-04-25T16:27:13.322Z</time></trkpt><trkpt lat="43.3616249" lon="11.2574751"><ele>273.0</ele><time>2026-04-25T16:27:14.306Z</time></trkpt><trkpt lat="43.3614974" lon="11.257696"><ele>273.0</ele><time>2026-04-25T16:27:15.308Z</time></trkpt><trkpt lat="43.3613402" lon="11.2579065"><ele>273.0</ele><time>2026-04-25T16:27:16.312Z</time></trkpt><trkpt lat="43.3611661" lon="11.2581107"><ele>273.3333333333333</ele><time>2026-04-25T16:27:17.317Z</time></trkpt><trkpt lat="43.3609986" lon="11.2583087"><ele>273.66666666666663</ele><time>2026-04-25T16:27:18.307Z</time></trkpt><trkpt lat="43.3608311" lon="11.2585004"><ele>274.0</ele><time>2026-04-25T16:27:19.31Z</time></trkpt><trkpt lat="43.3606707" lon="11.258692"><ele>273.66666666666663</ele><time>2026-04-25T16:27:20.31Z</time></trkpt><trkpt lat="43.360504" lon="11.2588379"><ele>273.3333333333333</ele><time>2026-04-25T16:27:21.31Z</time></trkpt><trkpt lat="43.3603283" lon="11.2589431"><ele>273.0</ele><time>2026-04-25T16:27:22.321Z</time></trkpt><trkpt lat="43.3601441" lon="11.2589928"><ele>272.0</ele><time>2026-04-25T16:27:23.308Z</time></trkpt><trkpt lat="43.3599447" lon="11.259053"><ele>271.0</ele><time>2026-04-25T16:27:24.303Z</time></trkpt><trkpt lat="43.3597289" lon="11.259141"><ele>270.0</ele><time>2026-04-25T16:27:25.313Z</time></trkpt><trkpt lat="43.3595188" lon="11.2592607"><ele>270.0</ele><time>2026-04-25T16:27:26.315Z</time></trkpt><trkpt lat="43.3593072" lon="11.2594009"><ele>270.0</ele><time>2026-04-25T16:27:27.291Z</time></trkpt><trkpt lat="43.3591068" lon="11.2595669"><ele>270.0</ele><time>2026-04-25T16:27:28.322Z</time></trkpt><trkpt lat="43.3589274" lon="11.2597503"><ele>270.0</ele><time>2026-04-25T16:27:29.301Z</time></trkpt><trkpt lat="43.3587498" lon="11.2599295"><ele>270.0</ele><time>2026-04-25T16:27:30.32Z</time></trkpt><trkpt lat="43.3585735" lon="11.2601168"><ele>270.0</ele><time>2026-04-25T16:27:31.312Z</time></trkpt><trkpt lat="43.3584072" lon="11.2603095"><ele>270.0</ele><time>2026-04-25T16:27:32.314Z</time></trkpt><trkpt lat="43.3582503" lon="11.260528"><ele>270.0</ele><time>2026-04-25T16:27:33.324Z</time></trkpt><trkpt lat="43.3580986" lon="11.2607718"><ele>269.0</ele><time>2026-04-25T16:27:34.314Z</time></trkpt><trkpt lat="43.357945" lon="11.2610176"><ele>268.0</ele><time>2026-04-25T16:27:35.32Z</time></trkpt><trkpt lat="43.3577691" lon="11.2612608"><ele>269.5</ele><time>2026-04-25T16:27:36.316Z</time></trkpt><trkpt lat="43.3575684" lon="11.2614921"><ele>271.0</ele><time>2026-04-25T16:27:37.31Z</time></trkpt><trkpt lat="43.357368" lon="11.2617051"><ele>269.5</ele><time>2026-04-25T16:27:38.305Z</time></trkpt><trkpt lat="43.3571718" lon="11.2619041"><ele>268.0</ele><time>2026-04-25T16:27:39.312Z</time></trkpt><trkpt lat="43.3569778" lon="11.2620829"><ele>268.0</ele><time>2026-04-25T16:27:40.305Z</time></trkpt><trkpt lat="43.3567686" lon="11.2622369"><ele>268.0</ele><time>2026-04-25T16:27:41.304Z</time></trkpt><trkpt lat="43.3565486" lon="11.262345"><ele>270.0</ele><time>2026-04-25T16:27:42.314Z</time></trkpt><trkpt lat="43.3563122" lon="11.2624127"><ele>272.0</ele><time>2026-04-25T16:27:43.306Z</time></trkpt><trkpt lat="43.3560796" lon="11.2624518"><ele>272.0</ele><time>2026-04-25T16:27:44.313Z</time></trkpt><trkpt lat="43.3558436" lon="11.2624783"><ele>272.0</ele><time>2026-04-25T16:27:45.294Z</time></trkpt><trkpt lat="43.3556017" lon="11.262508"><ele>272.0</ele><time>2026-04-25T16:27:46.31Z</time></trkpt><trkpt lat="43.3553661" lon="11.2625465"><ele>272.0</ele><time>2026-04-25T16:27:47.311Z</time></trkpt><trkpt lat="43.3551337" lon="11.2626112"><ele>272.0</ele><time>2026-04-25T16:27:48.307Z</time></trkpt><trkpt lat="43.3549145" lon="11.2626809"><ele>272.0</ele><time>2026-04-25T16:27:49.308Z</time></trkpt><trkpt lat="43.354705" lon="11.2627719"><ele>272.0</ele><time>2026-04-25T16:27:50.283Z</time></trkpt><trkpt lat="43.3545001" lon="11.262877"><ele>270.5</ele><time>2026-04-25T16:27:51.302Z</time></trkpt><trkpt lat="43.3543004" lon="11.2630129"><ele>269.0</ele><time>2026-04-25T16:27:52.289Z</time></trkpt><trkpt lat="43.3541046" lon="11.2631712"><ele>269.6666666666667</ele><time>2026-04-25T16:27:53.311Z</time></trkpt><trkpt lat="43.353909" lon="11.2633191"><ele>270.3333333333333</ele><time>2026-04-25T16:27:54.301Z</time></trkpt><trkpt lat="43.3537214" lon="11.2634467"><ele>271.0</ele><time>2026-04-25T16:27:55.316Z</time></trkpt><trkpt lat="43.3535581" lon="11.2635876"><ele>271.0</ele><time>2026-04-25T16:27:56.309Z</time></trkpt><trkpt lat="43.3534176" lon="11.263783"><ele>271.0</ele><time>2026-04-25T16:27:57.3Z</time></trkpt><trkpt lat="43.3533058" lon="11.2640277"><ele>271.0</ele><time>2026-04-25T16:27:58.305Z</time></trkpt><trkpt lat="43.353195" lon="11.2642596"><ele>270.3333333333333</ele><time>2026-04-25T16:27:59.312Z</time></trkpt><trkpt lat="43.3530914" lon="11.2644681"><ele>269.6666666666667</ele><time>2026-04-25T16:28:00.308Z</time></trkpt><trkpt lat="43.3529896" lon="11.2646669"><ele>269.0</ele><time>2026-04-25T16:28:01.305Z</time></trkpt><trkpt lat="43.352907" lon="11.2648477"><ele>269.6666666666667</ele><time>2026-04-25T16:28:02.314Z</time></trkpt><trkpt lat="43.3528505" lon="11.2649954"><ele>270.33333333333337</ele><time>2026-04-25T16:28:03.309Z</time></trkpt><trkpt lat="43.3528004" lon="11.2651188"><ele>271.0</ele><time>2026-04-25T16:28:04.305Z</time></trkpt><trkpt lat="43.3527472" lon="11.2652009"><ele>271.6666666666667</ele><time>2026-04-25T16:28:05.306Z</time></trkpt><trkpt lat="43.3526891" lon="11.2652412"><ele>272.3333333333333</ele><time>2026-04-25T16:28:06.289Z</time></trkpt><trkpt lat="43.3526157" lon="11.2652381"><ele>273.0</ele><time>2026-04-25T16:28:07.306Z</time></trkpt><trkpt lat="43.3525442" lon="11.2652205"><ele>273.0</ele><time>2026-04-25T16:28:08.302Z</time></trkpt><trkpt lat="43.3524628" lon="11.2652121"><ele>273.0</ele><time>2026-04-25T16:28:10.303Z</time></trkpt><trkpt lat="43.3524" lon="11.2651988"><ele>273.0</ele><time>2026-04-25T16:28:13.31Z</time></trkpt><trkpt lat="43.3523369" lon="11.2651787"><ele>273.0</ele><time>2026-04-25T16:28:14.302Z</time></trkpt><trkpt lat="43.3522577" lon="11.2651775"><ele>273.0</ele><time>2026-04-25T16:28:15.295Z</time></trkpt><trkpt lat="43.3521571" lon="11.2651894"><ele>273.0</ele><time>2026-04-25T16:28:16.307Z</time></trkpt><trkpt lat="43.352046" lon="11.2651869"><ele>271.6666666666667</ele><time>2026-04-25T16:28:17.319Z</time></trkpt><trkpt lat="43.3519124" lon="11.2651765"><ele>270.33333333333337</ele><time>2026-04-25T16:28:18.305Z</time></trkpt><trkpt lat="43.3517535" lon="11.2651709"><ele>269.0</ele><time>2026-04-25T16:28:19.313Z</time></trkpt><trkpt lat="43.3515646" lon="11.2651634"><ele>268.6666666666667</ele><time>2026-04-25T16:28:20.325Z</time></trkpt><trkpt lat="43.3513529" lon="11.2651723"><ele>268.3333333333333</ele><time>2026-04-25T16:28:21.308Z</time></trkpt><trkpt lat="43.351132" lon="11.265195"><ele>268.0</ele><time>2026-04-25T16:28:22.308Z</time></trkpt><trkpt lat="43.3509017" lon="11.2652489"><ele>268.0</ele><time>2026-04-25T16:28:23.309Z</time></trkpt><trkpt lat="43.3506714" lon="11.2653237"><ele>268.0</ele><time>2026-04-25T16:28:24.31Z</time></trkpt><trkpt lat="43.3504384" lon="11.2654085"><ele>269.0</ele><time>2026-04-25T16:28:25.312Z</time></trkpt><trkpt lat="43.3502063" lon="11.2654851"><ele>270.0</ele><time>2026-04-25T16:28:26.313Z</time></trkpt><trkpt lat="43.3499786" lon="11.2655597"><ele>271.0</ele><time>2026-04-25T16:28:27.315Z</time></trkpt><trkpt lat="43.3497523" lon="11.2656302"><ele>272.0</ele><time>2026-04-25T16:28:28.303Z</time></trkpt><trkpt lat="43.3495373" lon="11.2656922"><ele>272.0</ele><time>2026-04-25T16:28:29.286Z</time></trkpt><trkpt lat="43.3493146" lon="11.2657462"><ele>272.0</ele><time>2026-04-25T16:28:30.306Z</time></trkpt><trkpt lat="43.3490967" lon="11.2657809"><ele>272.0</ele><time>2026-04-25T16:28:31.296Z</time></trkpt><trkpt lat="43.3488829" lon="11.2657841"><ele>271.6666666666667</ele><time>2026-04-25T16:28:32.31Z</time></trkpt><trkpt lat="43.3486696" lon="11.2657559"><ele>271.3333333333333</ele><time>2026-04-25T16:28:33.311Z</time></trkpt><trkpt lat="43.3484697" lon="11.2657343"><ele>271.0</ele><time>2026-04-25T16:28:34.311Z</time></trkpt><trkpt lat="43.3482759" lon="11.2657132"><ele>271.0</ele><time>2026-04-25T16:28:35.304Z</time></trkpt><trkpt lat="43.3480943" lon="11.2657231"><ele>271.0</ele><time>2026-04-25T16:28:36.296Z</time></trkpt><trkpt lat="43.3479186" lon="11.2657984"><ele>271.0</ele><time>2026-04-25T16:28:37.311Z</time></trkpt><trkpt lat="43.3477473" lon="11.2659235"><ele>271.0</ele><time>2026-04-25T16:28:38.292Z</time></trkpt><trkpt lat="43.3475888" lon="11.266115"><ele>271.0</ele><time>2026-04-25T16:28:39.289Z</time></trkpt><trkpt lat="43.347436" lon="11.266313"><ele>271.0</ele><time>2026-04-25T16:28:40.315Z</time></trkpt><trkpt lat="43.3472789" lon="11.2665284"><ele>271.0</ele><time>2026-04-25T16:28:41.3Z</time></trkpt><trkpt lat="43.3471257" lon="11.2667487"><ele>271.0</ele><time>2026-04-25T16:28:42.322Z</time></trkpt><trkpt lat="43.3469671" lon="11.2669683"><ele>271.0</ele><time>2026-04-25T16:28:43.31Z</time></trkpt><trkpt lat="43.3468103" lon="11.2671917"><ele>271.5</ele><time>2026-04-25T16:28:44.303Z</time></trkpt><trkpt lat="43.3466586" lon="11.2674421"><ele>272.0</ele><time>2026-04-25T16:28:45.293Z</time></trkpt><trkpt lat="43.3465114" lon="11.2676934"><ele>272.0</ele><time>2026-04-25T16:28:46.311Z</time></trkpt><trkpt lat="43.3463841" lon="11.2679423"><ele>272.0</ele><time>2026-04-25T16:28:47.323Z</time></trkpt><trkpt lat="43.3462731" lon="11.268176"><ele>272.0</ele><time>2026-04-25T16:28:48.319Z</time></trkpt><trkpt lat="43.3461616" lon="11.2683788"><ele>272.33333333333337</ele><time>2026-04-25T16:28:49.315Z</time></trkpt><trkpt lat="43.3460303" lon="11.2685471"><ele>272.6666666666667</ele><time>2026-04-25T16:28:50.311Z</time></trkpt><trkpt lat="43.3458673" lon="11.2686859"><ele>273.0</ele><time>2026-04-25T16:28:51.305Z</time></trkpt><trkpt lat="43.3457067" lon="11.2687596"><ele>273.0</ele><time>2026-04-25T16:28:52.286Z</time></trkpt><trkpt lat="43.3455224" lon="11.2687802"><ele>273.0</ele><time>2026-04-25T16:28:53.321Z</time></trkpt><trkpt lat="43.3453498" lon="11.2687947"><ele>273.0</ele><time>2026-04-25T16:28:54.315Z</time></trkpt><trkpt lat="43.3451938" lon="11.2687988"><ele>273.0</ele><time>2026-04-25T16:28:55.294Z</time></trkpt><trkpt lat="43.3450597" lon="11.2687766"><ele>273.0</ele><time>2026-04-25T16:28:56.29Z</time></trkpt><trkpt lat="43.3449361" lon="11.2687091"><ele>273.0</ele><time>2026-04-25T16:28:57.321Z</time></trkpt><trkpt lat="43.3448242" lon="11.2685775"><ele>273.0</ele><time>2026-04-25T16:28:58.292Z</time></trkpt><trkpt lat="43.3447449" lon="11.2684076"><ele>276.3333333333333</ele><time>2026-04-25T16:28:59.298Z</time></trkpt><trkpt lat="43.3446959" lon="11.2682104"><ele>279.66666666666663</ele><time>2026-04-25T16:29:00.301Z</time></trkpt><trkpt lat="43.3446631" lon="11.2679844"><ele>283.0</ele><time>2026-04-25T16:29:01.315Z</time></trkpt><trkpt lat="43.3446255" lon="11.2677305"><ele>283.0</ele><time>2026-04-25T16:29:02.307Z</time></trkpt><trkpt lat="43.3445667" lon="11.2674901"><ele>283.0</ele><time>2026-04-25T16:29:03.3Z</time></trkpt><trkpt lat="43.3444908" lon="11.2672719"><ele>283.0</ele><time>2026-04-25T16:29:04.307Z</time></trkpt><trkpt lat="43.344403" lon="11.2670653"><ele>280.66666666666663</ele><time>2026-04-25T16:29:05.289Z</time></trkpt><trkpt lat="43.3443051" lon="11.2668838"><ele>278.3333333333333</ele><time>2026-04-25T16:29:06.301Z</time></trkpt><trkpt lat="43.3441965" lon="11.266709"><ele>276.0</ele><time>2026-04-25T16:29:07.308Z</time></trkpt><trkpt lat="43.3441072" lon="11.2665486"><ele>275.6666666666667</ele><time>2026-04-25T16:29:08.316Z</time></trkpt><trkpt lat="43.3440148" lon="11.266389"><ele>275.33333333333337</ele><time>2026-04-25T16:29:09.304Z</time></trkpt><trkpt lat="43.343915" lon="11.2662351"><ele>275.0</ele><time>2026-04-25T16:29:10.313Z</time></trkpt><trkpt lat="43.3437944" lon="11.2661078"><ele>275.0</ele><time>2026-04-25T16:29:11.316Z</time></trkpt><trkpt lat="43.3436511" lon="11.2659842"><ele>275.0</ele><time>2026-04-25T16:29:12.289Z</time></trkpt><trkpt lat="43.3434812" lon="11.2658747"><ele>275.0</ele><time>2026-04-25T16:29:13.31Z</time></trkpt><trkpt lat="43.3432921" lon="11.2657717"><ele>275.0</ele><time>2026-04-25T16:29:14.32Z</time></trkpt><trkpt lat="43.3430883" lon="11.2656572"><ele>275.0</ele><time>2026-04-25T16:29:15.31Z</time></trkpt><trkpt lat="43.3428761" lon="11.2655149"><ele>272.5</ele><time>2026-04-25T16:29:16.305Z</time></trkpt><trkpt lat="43.3426585" lon="11.2653515"><ele>270.0</ele><time>2026-04-25T16:29:17.316Z</time></trkpt><trkpt lat="43.3424428" lon="11.2651905"><ele>270.0</ele><time>2026-04-25T16:29:18.297Z</time></trkpt><trkpt lat="43.3422289" lon="11.2650365"><ele>270.0</ele><time>2026-04-25T16:29:19.315Z</time></trkpt><trkpt lat="43.3420168" lon="11.2648763"><ele>270.0</ele><time>2026-04-25T16:29:20.313Z</time></trkpt><trkpt lat="43.3418115" lon="11.26474"><ele>270.0</ele><time>2026-04-25T16:29:21.313Z</time></trkpt><trkpt lat="43.3416147" lon="11.2646134"><ele>270.0</ele><time>2026-04-25T16:29:22.302Z</time></trkpt><trkpt lat="43.3414189" lon="11.2644871"><ele>270.0</ele><time>2026-04-25T16:29:23.288Z</time></trkpt><trkpt lat="43.3412315" lon="11.2643555"><ele>270.0</ele><time>2026-04-25T16:29:24.298Z</time></trkpt><trkpt lat="43.3410551" lon="11.264213"><ele>270.0</ele><time>2026-04-25T16:29:25.318Z</time></trkpt><trkpt lat="43.3408846" lon="11.2640324"><ele>269.0</ele><time>2026-04-25T16:29:26.298Z</time></trkpt><trkpt lat="43.3407167" lon="11.2638307"><ele>268.0</ele><time>2026-04-25T16:29:27.298Z</time></trkpt><trkpt lat="43.3405646" lon="11.2635839"><ele>267.5</ele><time>2026-04-25T16:29:28.298Z</time></trkpt><trkpt lat="43.3404118" lon="11.2633071"><ele>267.0</ele><time>2026-04-25T16:29:29.317Z</time></trkpt><trkpt lat="43.3402534" lon="11.2630122"><ele>266.0</ele><time>2026-04-25T16:29:30.314Z</time></trkpt><trkpt lat="43.3400841" lon="11.2627082"><ele>265.0</ele><time>2026-04-25T16:29:31.318Z</time></trkpt><trkpt lat="43.3399267" lon="11.2624076"><ele>264.0</ele><time>2026-04-25T16:29:32.309Z</time></trkpt><trkpt lat="43.3397731" lon="11.2621291"><ele>263.0</ele><time>2026-04-25T16:29:33.316Z</time></trkpt><trkpt lat="43.3396297" lon="11.2618702"><ele>263.0</ele><time>2026-04-25T16:29:34.299Z</time></trkpt><trkpt lat="43.3394759" lon="11.2616512"><ele>263.0</ele><time>2026-04-25T16:29:35.304Z</time></trkpt><trkpt lat="43.3393008" lon="11.2614834"><ele>263.0</ele><time>2026-04-25T16:29:36.316Z</time></trkpt><trkpt lat="43.3390844" lon="11.2613647"><ele>262.0</ele><time>2026-04-25T16:29:37.312Z</time></trkpt><trkpt lat="43.3388565" lon="11.2612753"><ele>261.0</ele><time>2026-04-25T16:29:38.311Z</time></trkpt><trkpt lat="43.3385999" lon="11.2611883"><ele>261.0</ele><time>2026-04-25T16:29:39.314Z</time></trkpt><trkpt lat="43.3383231" lon="11.261102"><ele>261.0</ele><time>2026-04-25T16:29:40.33Z</time></trkpt><trkpt lat="43.3380452" lon="11.2610308"><ele>261.0</ele><time>2026-04-25T16:29:41.319Z</time></trkpt><trkpt lat="43.3377874" lon="11.260968"><ele>261.0</ele><time>2026-04-25T16:29:42.304Z</time></trkpt><trkpt lat="43.3375438" lon="11.2609325"><ele>261.0</ele><time>2026-04-25T16:29:43.312Z</time></trkpt><trkpt lat="43.3373027" lon="11.2609226"><ele>261.0</ele><time>2026-04-25T16:29:44.305Z</time></trkpt><trkpt lat="43.3370481" lon="11.2609559"><ele>262.0</ele><time>2026-04-25T16:29:45.291Z</time></trkpt><trkpt lat="43.3367857" lon="11.2610238"><ele>263.0</ele><time>2026-04-25T16:29:46.307Z</time></trkpt><trkpt lat="43.3365414" lon="11.2610899"><ele>261.5</ele><time>2026-04-25T16:29:47.306Z</time></trkpt><trkpt lat="43.3363166" lon="11.2611541"><ele>260.0</ele><time>2026-04-25T16:29:48.307Z</time></trkpt><trkpt lat="43.3360926" lon="11.2612179"><ele>260.0</ele><time>2026-04-25T16:29:49.307Z</time></trkpt><trkpt lat="43.3358759" lon="11.2612759"><ele>260.0</ele><time>2026-04-25T16:29:50.311Z</time></trkpt><trkpt lat="43.3356715" lon="11.2613265"><ele>260.0</ele><time>2026-04-25T16:29:51.307Z</time></trkpt><trkpt lat="43.3354773" lon="11.2613682"><ele>259.6666666666667</ele><time>2026-04-25T16:29:52.282Z</time></trkpt><trkpt lat="43.3352993" lon="11.2613936"><ele>259.3333333333333</ele><time>2026-04-25T16:29:53.308Z</time></trkpt><trkpt lat="43.3351373" lon="11.2614021"><ele>259.0</ele><time>2026-04-25T16:29:54.31Z</time></trkpt><trkpt lat="43.3349772" lon="11.2613896"><ele>259.0</ele><time>2026-04-25T16:29:55.309Z</time></trkpt><trkpt lat="43.3348159" lon="11.2613365"><ele>259.0</ele><time>2026-04-25T16:29:56.305Z</time></trkpt><trkpt lat="43.3346547" lon="11.261229"><ele>259.0</ele><time>2026-04-25T16:29:57.315Z</time></trkpt><trkpt lat="43.3345145" lon="11.2610691"><ele>259.66666666666663</ele><time>2026-04-25T16:29:58.309Z</time></trkpt><trkpt lat="43.3343859" lon="11.260883"><ele>260.3333333333333</ele><time>2026-04-25T16:29:59.308Z</time></trkpt><trkpt lat="43.3342685" lon="11.2607173"><ele>261.0</ele><time>2026-04-25T16:30:00.313Z</time></trkpt><trkpt lat="43.3341466" lon="11.2605547"><ele>261.0</ele><time>2026-04-25T16:30:01.312Z</time></trkpt><trkpt lat="43.3340305" lon="11.2603956"><ele>261.0</ele><time>2026-04-25T16:30:02.292Z</time></trkpt><trkpt lat="43.3339205" lon="11.2602605"><ele>261.0</ele><time>2026-04-25T16:30:03.309Z</time></trkpt><trkpt lat="43.3338181" lon="11.2601363"><ele>261.0</ele><time>2026-04-25T16:30:04.317Z</time></trkpt><trkpt lat="43.3336979" lon="11.2600548"><ele>262.75</ele><time>2026-04-25T16:30:05.321Z</time></trkpt><trkpt lat="43.3335525" lon="11.260045"><ele>264.5</ele><time>2026-04-25T16:30:06.316Z</time></trkpt><trkpt lat="43.3334095" lon="11.260079"><ele>266.25</ele><time>2026-04-25T16:30:07.315Z</time></trkpt><trkpt lat="43.333271" lon="11.2601383"><ele>268.0</ele><time>2026-04-25T16:30:08.287Z</time></trkpt><trkpt lat="43.3331362" lon="11.2602217"><ele>265.0</ele><time>2026-04-25T16:30:09.312Z</time></trkpt><trkpt lat="43.333008" lon="11.2603071"><ele>262.0</ele><time>2026-04-25T16:30:10.316Z</time></trkpt><trkpt lat="43.3328913" lon="11.2604206"><ele>259.0</ele><time>2026-04-25T16:30:11.315Z</time></trkpt><trkpt lat="43.3327724" lon="11.2605894"><ele>261.0</ele><time>2026-04-25T16:30:12.315Z</time></trkpt><trkpt lat="43.3326843" lon="11.2607938"><ele>263.0</ele><time>2026-04-25T16:30:13.322Z</time></trkpt><trkpt lat="43.3326179" lon="11.2610197"><ele>265.0</ele><time>2026-04-25T16:30:14.32Z</time></trkpt><trkpt lat="43.332566" lon="11.2612409"><ele>266.3333333333333</ele><time>2026-04-25T16:30:15.309Z</time></trkpt><trkpt lat="43.3325161" lon="11.2614629"><ele>267.6666666666667</ele><time>2026-04-25T16:30:16.308Z</time></trkpt><trkpt lat="43.332453" lon="11.2616705"><ele>269.0</ele><time>2026-04-25T16:30:17.304Z</time></trkpt><trkpt lat="43.3323643" lon="11.2618414"><ele>269.0</ele><time>2026-04-25T16:30:18.309Z</time></trkpt><trkpt lat="43.3322684" lon="11.2619957"><ele>269.0</ele><time>2026-04-25T16:30:19.303Z</time></trkpt><trkpt lat="43.3321588" lon="11.262142"><ele>269.0</ele><time>2026-04-25T16:30:20.32Z</time></trkpt><trkpt lat="43.3320583" lon="11.2622828"><ele>269.0</ele><time>2026-04-25T16:30:21.316Z</time></trkpt><trkpt lat="43.3319488" lon="11.2624317"><ele>270.33333333333337</ele><time>2026-04-25T16:30:22.321Z</time></trkpt><trkpt lat="43.3318462" lon="11.262592"><ele>271.6666666666667</ele><time>2026-04-25T16:30:23.326Z</time></trkpt><trkpt lat="43.3317389" lon="11.2627407"><ele>273.0</ele><time>2026-04-25T16:30:24.282Z</time></trkpt><trkpt lat="43.3316319" lon="11.2628943"><ele>273.0</ele><time>2026-04-25T16:30:25.323Z</time></trkpt><trkpt lat="43.3315272" lon="11.2630454"><ele>273.0</ele><time>2026-04-25T16:30:26.307Z</time></trkpt><trkpt lat="43.3314176" lon="11.2631974"><ele>273.0</ele><time>2026-04-25T16:30:27.326Z</time></trkpt><trkpt lat="43.331308" lon="11.2633402"><ele>275.6666666666667</ele><time>2026-04-25T16:30:28.315Z</time></trkpt><trkpt lat="43.3312013" lon="11.2634884"><ele>278.33333333333337</ele><time>2026-04-25T16:30:29.335Z</time></trkpt><trkpt lat="43.3311022" lon="11.2636374"><ele>281.0</ele><time>2026-04-25T16:30:30.305Z</time></trkpt><trkpt lat="43.3310018" lon="11.263794"><ele>282.25</ele><time>2026-04-25T16:30:31.314Z</time></trkpt><trkpt lat="43.3308976" lon="11.2639472"><ele>283.5</ele><time>2026-04-25T16:30:32.296Z</time></trkpt><trkpt lat="43.3307904" lon="11.2640882"><ele>284.75</ele><time>2026-04-25T16:30:33.303Z</time></trkpt><trkpt lat="43.3306848" lon="11.2642279"><ele>286.0</ele><time>2026-04-25T16:30:34.312Z</time></trkpt><trkpt lat="43.330581" lon="11.264365"><ele>286.0</ele><time>2026-04-25T16:30:35.304Z</time></trkpt><trkpt lat="43.3304714" lon="11.2644964"><ele>286.0</ele><time>2026-04-25T16:30:36.312Z</time></trkpt><trkpt lat="43.330344" lon="11.2646021"><ele>286.0</ele><time>2026-04-25T16:30:37.294Z</time></trkpt><trkpt lat="43.3302016" lon="11.2646864"><ele>286.0</ele><time>2026-04-25T16:30:38.293Z</time></trkpt><trkpt lat="43.3300447" lon="11.2647401"><ele>286.0</ele><time>2026-04-25T16:30:39.324Z</time></trkpt><trkpt lat="43.3298777" lon="11.2647745"><ele>286.0</ele><time>2026-04-25T16:30:40.321Z</time></trkpt><trkpt lat="43.3297091" lon="11.2647831"><ele>286.0</ele><time>2026-04-25T16:30:41.31Z</time></trkpt><trkpt lat="43.3295517" lon="11.2647662"><ele>285.3333333333333</ele><time>2026-04-25T16:30:42.312Z</time></trkpt><trkpt lat="43.3293895" lon="11.2647506"><ele>284.6666666666667</ele><time>2026-04-25T16:30:43.307Z</time></trkpt><trkpt lat="43.3292412" lon="11.2647332"><ele>284.0</ele><time>2026-04-25T16:30:44.309Z</time></trkpt><trkpt lat="43.3290995" lon="11.2647214"><ele>284.0</ele><time>2026-04-25T16:30:45.309Z</time></trkpt><trkpt lat="43.3289438" lon="11.2647029"><ele>284.0</ele><time>2026-04-25T16:30:46.306Z</time></trkpt><trkpt lat="43.3287915" lon="11.2646923"><ele>284.0</ele><time>2026-04-25T16:30:47.318Z</time></trkpt><trkpt lat="43.3286499" lon="11.2646751"><ele>283.75</ele><time>2026-04-25T16:30:48.314Z</time></trkpt><trkpt lat="43.3285046" lon="11.2646662"><ele>283.5</ele><time>2026-04-25T16:30:49.311Z</time></trkpt><trkpt lat="43.3283595" lon="11.2646516"><ele>283.25</ele><time>2026-04-25T16:30:50.317Z</time></trkpt><trkpt lat="43.3282167" lon="11.2646387"><ele>283.0</ele><time>2026-04-25T16:30:51.32Z</time></trkpt><trkpt lat="43.3280777" lon="11.2646222"><ele>282.66666666666663</ele><time>2026-04-25T16:30:52.302Z</time></trkpt><trkpt lat="43.3279263" lon="11.2646107"><ele>282.3333333333333</ele><time>2026-04-25T16:30:53.301Z</time></trkpt><trkpt lat="43.3277747" lon="11.2645947"><ele>282.0</ele><time>2026-04-25T16:30:54.309Z</time></trkpt><trkpt lat="43.3276219" lon="11.2645761"><ele>282.0</ele><time>2026-04-25T16:30:55.31Z</time></trkpt><trkpt lat="43.3274707" lon="11.2645588"><ele>282.0</ele><time>2026-04-25T16:30:56.322Z</time></trkpt><trkpt lat="43.3273233" lon="11.2645416"><ele>282.0</ele><time>2026-04-25T16:30:57.299Z</time></trkpt><trkpt lat="43.3271762" lon="11.2645227"><ele>282.0</ele><time>2026-04-25T16:30:58.307Z</time></trkpt><trkpt lat="43.3270276" lon="11.2645372"><ele>281.0</ele><time>2026-04-25T16:30:59.315Z</time></trkpt><trkpt lat="43.3268805" lon="11.2645863"><ele>280.0</ele><time>2026-04-25T16:31:00.308Z</time></trkpt><trkpt lat="43.3267371" lon="11.2646581"><ele>279.0</ele><time>2026-04-25T16:31:01.304Z</time></trkpt><trkpt lat="43.3265999" lon="11.2647347"><ele>278.5</ele><time>2026-04-25T16:31:02.317Z</time></trkpt><trkpt lat="43.3264645" lon="11.2648119"><ele>278.0</ele><time>2026-04-25T16:31:03.309Z</time></trkpt><trkpt lat="43.3263284" lon="11.2648956"><ele>277.5</ele><time>2026-04-25T16:31:04.312Z</time></trkpt><trkpt lat="43.3261919" lon="11.2649749"><ele>277.0</ele><time>2026-04-25T16:31:05.318Z</time></trkpt><trkpt lat="43.3260587" lon="11.2650503"><ele>276.66666666666663</ele><time>2026-04-25T16:31:06.319Z</time></trkpt><trkpt lat="43.3259236" lon="11.2651143"><ele>276.3333333333333</ele><time>2026-04-25T16:31:07.31Z</time></trkpt><trkpt lat="43.3257716" lon="11.2651707"><ele>276.0</ele><time>2026-04-25T16:31:08.301Z</time></trkpt><trkpt lat="43.3256036" lon="11.2652097"><ele>274.6666666666667</ele><time>2026-04-25T16:31:09.31Z</time></trkpt><trkpt lat="43.3254195" lon="11.2652356"><ele>273.33333333333337</ele><time>2026-04-25T16:31:10.32Z</time></trkpt><trkpt lat="43.3252243" lon="11.2652523"><ele>272.0</ele><time>2026-04-25T16:31:11.322Z</time></trkpt><trkpt lat="43.3250173" lon="11.2652512"><ele>272.0</ele><time>2026-04-25T16:31:12.317Z</time></trkpt><trkpt lat="43.3248055" lon="11.2652467"><ele>272.0</ele><time>2026-04-25T16:31:13.305Z</time></trkpt><trkpt lat="43.3245909" lon="11.2652484"><ele>272.0</ele><time>2026-04-25T16:31:14.283Z</time></trkpt><trkpt lat="43.3243856" lon="11.2652692"><ele>272.33333333333337</ele><time>2026-04-25T16:31:15.313Z</time></trkpt><trkpt lat="43.3241901" lon="11.2653431"><ele>272.6666666666667</ele><time>2026-04-25T16:31:16.308Z</time></trkpt><trkpt lat="43.3240017" lon="11.2654731"><ele>273.0</ele><time>2026-04-25T16:31:17.323Z</time></trkpt><trkpt lat="43.323813" lon="11.265626"><ele>273.0</ele><time>2026-04-25T16:31:18.325Z</time></trkpt><trkpt lat="43.3236279" lon="11.2657821"><ele>273.0</ele><time>2026-04-25T16:31:19.319Z</time></trkpt><trkpt lat="43.3234403" lon="11.2659208"><ele>273.0</ele><time>2026-04-25T16:31:20.306Z</time></trkpt><trkpt lat="43.3232606" lon="11.2660532"><ele>273.0</ele><time>2026-04-25T16:31:21.316Z</time></trkpt><trkpt lat="43.3230738" lon="11.2661699"><ele>273.0</ele><time>2026-04-25T16:31:22.309Z</time></trkpt><trkpt lat="43.3228591" lon="11.2662809"><ele>273.0</ele><time>2026-04-25T16:31:23.318Z</time></trkpt><trkpt lat="43.3226326" lon="11.2663626"><ele>276.0</ele><time>2026-04-25T16:31:24.316Z</time></trkpt><trkpt lat="43.3223875" lon="11.2664405"><ele>279.0</ele><time>2026-04-25T16:31:25.295Z</time></trkpt><trkpt lat="43.3221364" lon="11.2665155"><ele>280.0</ele><time>2026-04-25T16:31:26.305Z</time></trkpt><trkpt lat="43.321899" lon="11.2665901"><ele>281.0</ele><time>2026-04-25T16:31:27.308Z</time></trkpt><trkpt lat="43.3216814" lon="11.2666569"><ele>281.0</ele><time>2026-04-25T16:31:28.311Z</time></trkpt><trkpt lat="43.3215057" lon="11.2667042"><ele>281.0</ele><time>2026-04-25T16:31:29.309Z</time></trkpt><trkpt lat="43.3213375" lon="11.2667703"><ele>281.0</ele><time>2026-04-25T16:31:30.321Z</time></trkpt><trkpt lat="43.3211779" lon="11.2668706"><ele>281.33333333333337</ele><time>2026-04-25T16:31:31.321Z</time></trkpt><trkpt lat="43.3210644" lon="11.2670234"><ele>281.6666666666667</ele><time>2026-04-25T16:31:32.308Z</time></trkpt><trkpt lat="43.3209616" lon="11.2672036"><ele>282.0</ele><time>2026-04-25T16:31:33.302Z</time></trkpt><trkpt lat="43.3208944" lon="11.2674411"><ele>282.0</ele><time>2026-04-25T16:31:34.311Z</time></trkpt><trkpt lat="43.3208435" lon="11.2676887"><ele>282.0</ele><time>2026-04-25T16:31:35.316Z</time></trkpt><trkpt lat="43.320796" lon="11.2679347"><ele>282.0</ele><time>2026-04-25T16:31:36.326Z</time></trkpt><trkpt lat="43.3207349" lon="11.2681612"><ele>282.6666666666667</ele><time>2026-04-25T16:31:37.307Z</time></trkpt><trkpt lat="43.3206548" lon="11.2683586"><ele>283.33333333333337</ele><time>2026-04-25T16:31:38.306Z</time></trkpt><trkpt lat="43.3205365" lon="11.2685355"><ele>284.0</ele><time>2026-04-25T16:31:39.317Z</time></trkpt><trkpt lat="43.3203824" lon="11.2687002"><ele>284.0</ele><time>2026-04-25T16:31:40.309Z</time></trkpt><trkpt lat="43.3201911" lon="11.2688282"><ele>284.0</ele><time>2026-04-25T16:31:41.312Z</time></trkpt><trkpt lat="43.3199927" lon="11.268963"><ele>284.0</ele><time>2026-04-25T16:31:42.322Z</time></trkpt><trkpt lat="43.3198059" lon="11.2691008"><ele>281.33333333333337</ele><time>2026-04-25T16:31:43.316Z</time></trkpt><trkpt lat="43.3196291" lon="11.2692536"><ele>278.6666666666667</ele><time>2026-04-25T16:31:44.3Z</time></trkpt><trkpt lat="43.3194619" lon="11.2694415"><ele>276.0</ele><time>2026-04-25T16:31:45.303Z</time></trkpt><trkpt lat="43.3193046" lon="11.2696536"><ele>275.6666666666667</ele><time>2026-04-25T16:31:46.286Z</time></trkpt><trkpt lat="43.3191449" lon="11.2698659"><ele>275.33333333333337</ele><time>2026-04-25T16:31:47.304Z</time></trkpt><trkpt lat="43.3189895" lon="11.2700874"><ele>275.0</ele><time>2026-04-25T16:31:48.322Z</time></trkpt><trkpt lat="43.3188361" lon="11.270312"><ele>277.0</ele><time>2026-04-25T16:31:49.302Z</time></trkpt><trkpt lat="43.3186712" lon="11.270531"><ele>279.0</ele><time>2026-04-25T16:31:50.307Z</time></trkpt><trkpt lat="43.3185066" lon="11.270749"><ele>275.0</ele><time>2026-04-25T16:31:51.283Z</time></trkpt><trkpt lat="43.3183382" lon="11.2709739"><ele>271.0</ele><time>2026-04-25T16:31:52.282Z</time></trkpt><trkpt lat="43.3181623" lon="11.2711843"><ele>271.3333333333333</ele><time>2026-04-25T16:31:53.309Z</time></trkpt><trkpt lat="43.3179875" lon="11.2713895"><ele>271.6666666666667</ele><time>2026-04-25T16:31:54.32Z</time></trkpt><trkpt lat="43.3178167" lon="11.2715738"><ele>272.0</ele><time>2026-04-25T16:31:55.306Z</time></trkpt><trkpt lat="43.3176618" lon="11.2717674"><ele>272.0</ele><time>2026-04-25T16:31:56.308Z</time></trkpt><trkpt lat="43.3175136" lon="11.2719743"><ele>272.0</ele><time>2026-04-25T16:31:57.301Z</time></trkpt><trkpt lat="43.3173874" lon="11.2722186"><ele>272.0</ele><time>2026-04-25T16:31:58.308Z</time></trkpt><trkpt lat="43.3172887" lon="11.2725008"><ele>271.33333333333337</ele><time>2026-04-25T16:31:59.31Z</time></trkpt><trkpt lat="43.3172302" lon="11.2728054"><ele>270.6666666666667</ele><time>2026-04-25T16:32:00.311Z</time></trkpt><trkpt lat="43.317182" lon="11.273088"><ele>270.0</ele><time>2026-04-25T16:32:01.303Z</time></trkpt><trkpt lat="43.3171369" lon="11.2733568"><ele>270.0</ele><time>2026-04-25T16:32:02.322Z</time></trkpt><trkpt lat="43.3171006" lon="11.2736166"><ele>270.0</ele><time>2026-04-25T16:32:03.307Z</time></trkpt><trkpt lat="43.3170446" lon="11.2738596"><ele>270.0</ele><time>2026-04-25T16:32:04.314Z</time></trkpt><trkpt lat="43.3169753" lon="11.274038"><ele>269.0</ele><time>2026-04-25T16:32:05.307Z</time></trkpt><trkpt lat="43.3168383" lon="11.274169"><ele>268.0</ele><time>2026-04-25T16:32:06.31Z</time></trkpt><trkpt lat="43.3166839" lon="11.2742657"><ele>267.0</ele><time>2026-04-25T16:32:07.313Z</time></trkpt><trkpt lat="43.3165187" lon="11.2742986"><ele>266.6666666666667</ele><time>2026-04-25T16:32:08.324Z</time></trkpt><trkpt lat="43.3163113" lon="11.2742947"><ele>266.33333333333337</ele><time>2026-04-25T16:32:09.305Z</time></trkpt><trkpt lat="43.3160957" lon="11.2742653"><ele>266.0</ele><time>2026-04-25T16:32:10.299Z</time></trkpt><trkpt lat="43.3158843" lon="11.2742235"><ele>266.0</ele><time>2026-04-25T16:32:11.312Z</time></trkpt><trkpt lat="43.3156728" lon="11.27419"><ele>266.0</ele><time>2026-04-25T16:32:12.307Z</time></trkpt><trkpt lat="43.3154669" lon="11.2741752"><ele>266.0</ele><time>2026-04-25T16:32:13.328Z</time></trkpt><trkpt lat="43.3152606" lon="11.274211"><ele>267.0</ele><time>2026-04-25T16:32:14.3Z</time></trkpt><trkpt lat="43.3150538" lon="11.2742794"><ele>268.0</ele><time>2026-04-25T16:32:15.318Z</time></trkpt><trkpt lat="43.3148347" lon="11.2743759"><ele>269.0</ele><time>2026-04-25T16:32:16.297Z</time></trkpt><trkpt lat="43.3146127" lon="11.2745034"><ele>273.5</ele><time>2026-04-25T16:32:17.321Z</time></trkpt><trkpt lat="43.3143793" lon="11.27463"><ele>278.0</ele><time>2026-04-25T16:32:18.31Z</time></trkpt><trkpt lat="43.3141378" lon="11.2747518"><ele>275.0</ele><time>2026-04-25T16:32:19.316Z</time></trkpt><trkpt lat="43.3138756" lon="11.2748783"><ele>272.0</ele><time>2026-04-25T16:32:20.316Z</time></trkpt><trkpt lat="43.3136046" lon="11.2750225"><ele>272.0</ele><time>2026-04-25T16:32:21.306Z</time></trkpt><trkpt lat="43.3133396" lon="11.2751502"><ele>272.0</ele><time>2026-04-25T16:32:22.304Z</time></trkpt><trkpt lat="43.3130957" lon="11.2752807"><ele>277.0</ele><time>2026-04-25T16:32:23.316Z</time></trkpt><trkpt lat="43.3128656" lon="11.2754025"><ele>282.0</ele><time>2026-04-25T16:32:24.319Z</time></trkpt><trkpt lat="43.3126366" lon="11.2755128"><ele>275.0</ele><time>2026-04-25T16:32:25.3Z</time></trkpt><trkpt lat="43.312406" lon="11.2756176"><ele>268.0</ele><time>2026-04-25T16:32:26.31Z</time></trkpt><trkpt lat="43.3121799" lon="11.2757209"><ele>267.5</ele><time>2026-04-25T16:32:27.308Z</time></trkpt><trkpt lat="43.3119425" lon="11.2758038"><ele>267.0</ele><time>2026-04-25T16:32:28.316Z</time></trkpt><trkpt lat="43.3116819" lon="11.2758822"><ele>267.0</ele><time>2026-04-25T16:32:29.33Z</time></trkpt><trkpt lat="43.3114087" lon="11.275936"><ele>267.0</ele><time>2026-04-25T16:32:30.313Z</time></trkpt><trkpt lat="43.3111096" lon="11.2759729"><ele>267.0</ele><time>2026-04-25T16:32:31.307Z</time></trkpt><trkpt lat="43.3108272" lon="11.2760124"><ele>267.0</ele><time>2026-04-25T16:32:32.312Z</time></trkpt><trkpt lat="43.3105479" lon="11.276056"><ele>269.5</ele><time>2026-04-25T16:32:33.309Z</time></trkpt><trkpt lat="43.3102851" lon="11.2761043"><ele>272.0</ele><time>2026-04-25T16:32:34.316Z</time></trkpt><trkpt lat="43.3100401" lon="11.2761488"><ele>272.0</ele><time>2026-04-25T16:32:35.3Z</time></trkpt><trkpt lat="43.3098025" lon="11.2761873"><ele>272.0</ele><time>2026-04-25T16:32:36.318Z</time></trkpt><trkpt lat="43.3095749" lon="11.276193"><ele>270.0</ele><time>2026-04-25T16:32:37.318Z</time></trkpt><trkpt lat="43.3093529" lon="11.2761686"><ele>268.0</ele><time>2026-04-25T16:32:38.312Z</time></trkpt><trkpt lat="43.3091414" lon="11.2760834"><ele>266.0</ele><time>2026-04-25T16:32:39.313Z</time></trkpt><trkpt lat="43.3089186" lon="11.2759852"><ele>262.5</ele><time>2026-04-25T16:32:40.312Z</time></trkpt><trkpt lat="43.3086931" lon="11.2758836"><ele>259.0</ele><time>2026-04-25T16:32:41.302Z</time></trkpt><trkpt lat="43.3084518" lon="11.2758235"><ele>259.0</ele><time>2026-04-25T16:32:42.31Z</time></trkpt><trkpt lat="43.3081987" lon="11.2758053"><ele>259.0</ele><time>2026-04-25T16:32:43.302Z</time></trkpt><trkpt lat="43.3079373" lon="11.2758546"><ele>255.5</ele><time>2026-04-25T16:32:44.288Z</time></trkpt><trkpt lat="43.3076689" lon="11.2759386"><ele>252.0</ele><time>2026-04-25T16:32:45.272Z</time></trkpt><trkpt lat="43.3074075" lon="11.2760248"><ele>251.0</ele><time>2026-04-25T16:32:46.302Z</time></trkpt><trkpt lat="43.3071517" lon="11.276111"><ele>250.0</ele><time>2026-04-25T16:32:47.306Z</time></trkpt><trkpt lat="43.306913" lon="11.2761875"><ele>250.0</ele><time>2026-04-25T16:32:48.31Z</time></trkpt><trkpt lat="43.3066911" lon="11.2762517"><ele>250.0</ele><time>2026-04-25T16:32:49.312Z</time></trkpt><trkpt lat="43.3064719" lon="11.2763019"><ele>250.0</ele><time>2026-04-25T16:32:50.306Z</time></trkpt><trkpt lat="43.3062658" lon="11.2763519"><ele>250.66666666666666</ele><time>2026-04-25T16:32:51.314Z</time></trkpt><trkpt lat="43.3060659" lon="11.2763937"><ele>251.33333333333331</ele><time>2026-04-25T16:32:52.288Z</time></trkpt><trkpt lat="43.3058839" lon="11.2764353"><ele>252.0</ele><time>2026-04-25T16:32:53.302Z</time></trkpt><trkpt lat="43.3057043" lon="11.2764565"><ele>250.66666666666669</ele><time>2026-04-25T16:32:54.31Z</time></trkpt><trkpt lat="43.3055351" lon="11.2764825"><ele>249.33333333333334</ele><time>2026-04-25T16:32:55.297Z</time></trkpt><trkpt lat="43.3053906" lon="11.2765067"><ele>248.0</ele><time>2026-04-25T16:32:56.297Z</time></trkpt><trkpt lat="43.3052557" lon="11.2765236"><ele>248.0</ele><time>2026-04-25T16:32:57.326Z</time></trkpt><trkpt lat="43.305123" lon="11.2765379"><ele>248.0</ele><time>2026-04-25T16:32:58.3Z</time></trkpt><trkpt lat="43.3049963" lon="11.276542"><ele>248.0</ele><time>2026-04-25T16:32:59.29Z</time></trkpt><trkpt lat="43.304852" lon="11.2765022"><ele>248.0</ele><time>2026-04-25T16:33:00.29Z</time></trkpt><trkpt lat="43.3046973" lon="11.2764163"><ele>249.0</ele><time>2026-04-25T16:33:01.321Z</time></trkpt><trkpt lat="43.3045382" lon="11.2762866"><ele>250.0</ele><time>2026-04-25T16:33:02.305Z</time></trkpt><trkpt lat="43.3043508" lon="11.2761248"><ele>251.0</ele><time>2026-04-25T16:33:03.298Z</time></trkpt><trkpt lat="43.304153" lon="11.2759412"><ele>251.0</ele><time>2026-04-25T16:33:04.297Z</time></trkpt><trkpt lat="43.303955" lon="11.2757823"><ele>251.0</ele><time>2026-04-25T16:33:05.312Z</time></trkpt><trkpt lat="43.3037468" lon="11.2756692"><ele>249.5</ele><time>2026-04-25T16:33:06.299Z</time></trkpt><trkpt lat="43.3035274" lon="11.27559"><ele>248.0</ele><time>2026-04-25T16:33:07.306Z</time></trkpt><trkpt lat="43.30329" lon="11.2755536"><ele>247.0</ele><time>2026-04-25T16:33:08.297Z</time></trkpt><trkpt lat="43.3030447" lon="11.2755533"><ele>246.0</ele><time>2026-04-25T16:33:09.301Z</time></trkpt><trkpt lat="43.3027867" lon="11.2755684"><ele>246.0</ele><time>2026-04-25T16:33:10.301Z</time></trkpt><trkpt lat="43.3025158" lon="11.2755816"><ele>246.0</ele><time>2026-04-25T16:33:11.297Z</time></trkpt><trkpt lat="43.3022702" lon="11.2755744"><ele>245.0</ele><time>2026-04-25T16:33:12.306Z</time></trkpt><trkpt lat="43.302043" lon="11.2755314"><ele>244.0</ele><time>2026-04-25T16:33:13.313Z</time></trkpt><trkpt lat="43.3018278" lon="11.2754397"><ele>244.0</ele><time>2026-04-25T16:33:14.313Z</time></trkpt><trkpt lat="43.3016166" lon="11.2753301"><ele>244.0</ele><time>2026-04-25T16:33:15.309Z</time></trkpt><trkpt lat="43.3014043" lon="11.2752208"><ele>241.0</ele><time>2026-04-25T16:33:16.3Z</time></trkpt><trkpt lat="43.3011859" lon="11.2751199"><ele>238.0</ele><time>2026-04-25T16:33:17.297Z</time></trkpt><trkpt lat="43.30096" lon="11.2750204"><ele>238.0</ele><time>2026-04-25T16:33:18.308Z</time></trkpt><trkpt lat="43.3007514" lon="11.2749548"><ele>238.0</ele><time>2026-04-25T16:33:19.298Z</time></trkpt><trkpt lat="43.3005465" lon="11.2749428"><ele>238.0</ele><time>2026-04-25T16:33:20.293Z</time></trkpt><trkpt lat="43.3003518" lon="11.2749875"><ele>236.0</ele><time>2026-04-25T16:33:21.305Z</time></trkpt><trkpt lat="43.3001711" lon="11.275105"><ele>234.0</ele><time>2026-04-25T16:33:22.317Z</time></trkpt><trkpt lat="43.3000019" lon="11.2752704"><ele>232.0</ele><time>2026-04-25T16:33:23.297Z</time></trkpt><trkpt lat="43.2998478" lon="11.2754577"><ele>231.33333333333331</ele><time>2026-04-25T16:33:24.307Z</time></trkpt><trkpt lat="43.2996829" lon="11.2756237"><ele>230.66666666666669</ele><time>2026-04-25T16:33:25.308Z</time></trkpt><trkpt lat="43.2994982" lon="11.2757376"><ele>230.0</ele><time>2026-04-25T16:33:26.314Z</time></trkpt><trkpt lat="43.2992913" lon="11.2758346"><ele>230.0</ele><time>2026-04-25T16:33:27.318Z</time></trkpt><trkpt lat="43.2990596" lon="11.2759173"><ele>230.0</ele><time>2026-04-25T16:33:28.326Z</time></trkpt><trkpt lat="43.2988231" lon="11.2759857"><ele>228.5</ele><time>2026-04-25T16:33:29.324Z</time></trkpt><trkpt lat="43.2985882" lon="11.2760461"><ele>227.0</ele><time>2026-04-25T16:33:30.32Z</time></trkpt><trkpt lat="43.2983771" lon="11.2761054"><ele>227.0</ele><time>2026-04-25T16:33:31.311Z</time></trkpt><trkpt lat="43.2981647" lon="11.2761557"><ele>227.0</ele><time>2026-04-25T16:33:32.307Z</time></trkpt><trkpt lat="43.2979597" lon="11.276194"><ele>227.0</ele><time>2026-04-25T16:33:33.303Z</time></trkpt><trkpt lat="43.2977609" lon="11.2762074"><ele>226.33333333333334</ele><time>2026-04-25T16:33:34.307Z</time></trkpt><trkpt lat="43.2975744" lon="11.2761989"><ele>225.66666666666669</ele><time>2026-04-25T16:33:35.314Z</time></trkpt><trkpt lat="43.2974079" lon="11.276165"><ele>225.0</ele><time>2026-04-25T16:33:36.309Z</time></trkpt><trkpt lat="43.2972527" lon="11.2761026"><ele>225.0</ele><time>2026-04-25T16:33:37.306Z</time></trkpt><trkpt lat="43.2971054" lon="11.2760097"><ele>225.0</ele><time>2026-04-25T16:33:38.326Z</time></trkpt><trkpt lat="43.2969695" lon="11.2759039"><ele>225.0</ele><time>2026-04-25T16:33:39.303Z</time></trkpt><trkpt lat="43.2968426" lon="11.2758036"><ele>225.0</ele><time>2026-04-25T16:33:40.323Z</time></trkpt><trkpt lat="43.2967097" lon="11.2757102"><ele>225.0</ele><time>2026-04-25T16:33:41.314Z</time></trkpt><trkpt lat="43.296559" lon="11.2756073"><ele>225.0</ele><time>2026-04-25T16:33:42.318Z</time></trkpt><trkpt lat="43.2964009" lon="11.2755029"><ele>224.66666666666669</ele><time>2026-04-25T16:33:43.319Z</time></trkpt><trkpt lat="43.2962399" lon="11.2753941"><ele>224.33333333333334</ele><time>2026-04-25T16:33:44.311Z</time></trkpt><trkpt lat="43.2960805" lon="11.2752803"><ele>224.0</ele><time>2026-04-25T16:33:45.311Z</time></trkpt><trkpt lat="43.2959304" lon="11.2751752"><ele>224.0</ele><time>2026-04-25T16:33:46.321Z</time></trkpt><trkpt lat="43.2957813" lon="11.2750735"><ele>224.0</ele><time>2026-04-25T16:33:47.309Z</time></trkpt><trkpt lat="43.2956358" lon="11.2749704"><ele>224.0</ele><time>2026-04-25T16:33:48.321Z</time></trkpt><trkpt lat="43.2954921" lon="11.2748796"><ele>224.33333333333334</ele><time>2026-04-25T16:33:49.305Z</time></trkpt><trkpt lat="43.2953444" lon="11.2748118"><ele>224.66666666666669</ele><time>2026-04-25T16:33:50.319Z</time></trkpt><trkpt lat="43.2951872" lon="11.2747729"><ele>225.0</ele><time>2026-04-25T16:33:51.319Z</time></trkpt><trkpt lat="43.2950065" lon="11.274774"><ele>225.0</ele><time>2026-04-25T16:33:52.283Z</time></trkpt><trkpt lat="43.2948433" lon="11.2747869"><ele>225.0</ele><time>2026-04-25T16:33:53.309Z</time></trkpt><trkpt lat="43.2946863" lon="11.2748044"><ele>225.0</ele><time>2026-04-25T16:33:54.297Z</time></trkpt><trkpt lat="43.2945176" lon="11.2748363"><ele>225.0</ele><time>2026-04-25T16:33:55.304Z</time></trkpt><trkpt lat="43.2943292" lon="11.2748676"><ele>225.0</ele><time>2026-04-25T16:33:56.297Z</time></trkpt><trkpt lat="43.294126" lon="11.2748985"><ele>225.0</ele><time>2026-04-25T16:33:57.314Z</time></trkpt><trkpt lat="43.2939157" lon="11.2749253"><ele>223.66666666666669</ele><time>2026-04-25T16:33:58.306Z</time></trkpt><trkpt lat="43.2936994" lon="11.274938"><ele>222.33333333333334</ele><time>2026-04-25T16:33:59.313Z</time></trkpt><trkpt lat="43.2934761" lon="11.274946"><ele>221.0</ele><time>2026-04-25T16:34:00.309Z</time></trkpt><trkpt lat="43.2932518" lon="11.2749499"><ele>219.0</ele><time>2026-04-25T16:34:01.306Z</time></trkpt><trkpt lat="43.2930124" lon="11.2749141"><ele>217.0</ele><time>2026-04-25T16:34:02.296Z</time></trkpt><trkpt lat="43.2927575" lon="11.2748524"><ele>217.0</ele><time>2026-04-25T16:34:03.303Z</time></trkpt><trkpt lat="43.2924987" lon="11.2747887"><ele>217.0</ele><time>2026-04-25T16:34:04.32Z</time></trkpt><trkpt lat="43.2922137" lon="11.274725"><ele>217.5</ele><time>2026-04-25T16:34:05.281Z</time></trkpt><trkpt lat="43.2919274" lon="11.2746566"><ele>218.0</ele><time>2026-04-25T16:34:06.309Z</time></trkpt><trkpt lat="43.2916436" lon="11.2746027"><ele>219.0</ele><time>2026-04-25T16:34:07.314Z</time></trkpt><trkpt lat="43.2913853" lon="11.2745437"><ele>220.0</ele><time>2026-04-25T16:34:08.308Z</time></trkpt><trkpt lat="43.2911546" lon="11.2744814"><ele>220.0</ele><time>2026-04-25T16:34:09.293Z</time></trkpt><trkpt lat="43.2909714" lon="11.2744458"><ele>220.0</ele><time>2026-04-25T16:34:10.317Z</time></trkpt><trkpt lat="43.2908207" lon="11.2744156"><ele>220.0</ele><time>2026-04-25T16:34:11.316Z</time></trkpt><trkpt lat="43.2907063" lon="11.2743931"><ele>220.0</ele><time>2026-04-25T16:34:12.309Z</time></trkpt><trkpt lat="43.2906093" lon="11.2743678"><ele>220.0</ele><time>2026-04-25T16:34:13.325Z</time></trkpt><trkpt lat="43.2905475" lon="11.2743488"><ele>220.0</ele><time>2026-04-25T16:34:14.307Z</time></trkpt><trkpt lat="43.2904822" lon="11.2743556"><ele>220.0</ele><time>2026-04-25T16:34:24.3Z</time></trkpt><trkpt lat="43.2904568" lon="11.2745151"><ele>220.0</ele><time>2026-04-25T16:34:26.303Z</time></trkpt><trkpt lat="43.2904713" lon="11.2746632"><ele>221.66666666666666</ele><time>2026-04-25T16:34:27.296Z</time></trkpt><trkpt lat="43.2904889" lon="11.2748461"><ele>223.33333333333331</ele><time>2026-04-25T16:34:28.285Z</time></trkpt><trkpt lat="43.2905057" lon="11.27506"><ele>225.0</ele><time>2026-04-25T16:34:29.279Z</time></trkpt><trkpt lat="43.2905211" lon="11.275309"><ele>225.0</ele><time>2026-04-25T16:34:30.287Z</time></trkpt><trkpt lat="43.2905385" lon="11.2755716"><ele>225.0</ele><time>2026-04-25T16:34:31.3Z</time></trkpt><trkpt lat="43.2905531" lon="11.2758596"><ele>225.0</ele><time>2026-04-25T16:34:32.311Z</time></trkpt><trkpt lat="43.2905518" lon="11.276156"><ele>227.5</ele><time>2026-04-25T16:34:33.305Z</time></trkpt><trkpt lat="43.2905293" lon="11.276481"><ele>230.0</ele><time>2026-04-25T16:34:34.304Z</time></trkpt><trkpt lat="43.2904989" lon="11.2768038"><ele>230.0</ele><time>2026-04-25T16:34:35.292Z</time></trkpt><trkpt lat="43.2904647" lon="11.2771188"><ele>230.0</ele><time>2026-04-25T16:34:36.319Z</time></trkpt><trkpt lat="43.2904307" lon="11.2774171"><ele>229.33333333333334</ele><time>2026-04-25T16:34:37.315Z</time></trkpt><trkpt lat="43.2903937" lon="11.2776899"><ele>228.66666666666669</ele><time>2026-04-25T16:34:38.299Z</time></trkpt><trkpt lat="43.2903748" lon="11.277949"><ele>228.0</ele><time>2026-04-25T16:34:39.31Z</time></trkpt><trkpt lat="43.2903966" lon="11.2781962"><ele>227.0</ele><time>2026-04-25T16:34:40.294Z</time></trkpt><trkpt lat="43.290466" lon="11.2784142"><ele>226.0</ele><time>2026-04-25T16:34:41.308Z</time></trkpt><trkpt lat="43.2905744" lon="11.2786218"><ele>225.0</ele><time>2026-04-25T16:34:42.309Z</time></trkpt><trkpt lat="43.2906743" lon="11.2788333"><ele>224.0</ele><time>2026-04-25T16:34:43.306Z</time></trkpt><trkpt lat="43.2907259" lon="11.2790786"><ele>223.0</ele><time>2026-04-25T16:34:44.319Z</time></trkpt><trkpt lat="43.2907612" lon="11.2793494"><ele>222.0</ele><time>2026-04-25T16:34:45.339Z</time></trkpt><trkpt lat="43.2907818" lon="11.2796273"><ele>222.66666666666669</ele><time>2026-04-25T16:34:46.308Z</time></trkpt><trkpt lat="43.2907854" lon="11.2798988"><ele>223.33333333333334</ele><time>2026-04-25T16:34:47.307Z</time></trkpt><trkpt lat="43.2907937" lon="11.2801378"><ele>224.0</ele><time>2026-04-25T16:34:48.304Z</time></trkpt><trkpt lat="43.2907808" lon="11.2803663"><ele>224.0</ele><time>2026-04-25T16:34:49.302Z</time></trkpt><trkpt lat="43.2907381" lon="11.2805919"><ele>224.0</ele><time>2026-04-25T16:34:50.301Z</time></trkpt><trkpt lat="43.2906329" lon="11.2807775"><ele>224.0</ele><time>2026-04-25T16:34:51.314Z</time></trkpt><trkpt lat="43.2904975" lon="11.280928"><ele>225.33333333333334</ele><time>2026-04-25T16:34:52.297Z</time></trkpt><trkpt lat="43.2903296" lon="11.281034"><ele>226.66666666666669</ele><time>2026-04-25T16:34:53.311Z</time></trkpt><trkpt lat="43.2901608" lon="11.2810959"><ele>228.0</ele><time>2026-04-25T16:34:54.319Z</time></trkpt><trkpt lat="43.2900056" lon="11.2811634"><ele>228.0</ele><time>2026-04-25T16:34:55.313Z</time></trkpt><trkpt lat="43.2898744" lon="11.2812807"><ele>228.0</ele><time>2026-04-25T16:34:56.306Z</time></trkpt><trkpt lat="43.2897898" lon="11.2814735"><ele>228.0</ele><time>2026-04-25T16:34:57.31Z</time></trkpt><trkpt lat="43.2897377" lon="11.2816725"><ele>229.66666666666669</ele><time>2026-04-25T16:34:58.304Z</time></trkpt><trkpt lat="43.2897666" lon="11.2819299"><ele>231.33333333333334</ele><time>2026-04-25T16:34:59.302Z</time></trkpt><trkpt lat="43.2898692" lon="11.2821585"><ele>233.0</ele><time>2026-04-25T16:35:00.313Z</time></trkpt><trkpt lat="43.2899774" lon="11.282411"><ele>233.5</ele><time>2026-04-25T16:35:01.317Z</time></trkpt><trkpt lat="43.2900953" lon="11.282685"><ele>234.0</ele><time>2026-04-25T16:35:02.305Z</time></trkpt><trkpt lat="43.2902159" lon="11.2829607"><ele>236.0</ele><time>2026-04-25T16:35:03.323Z</time></trkpt><trkpt lat="43.2903422" lon="11.283232"><ele>238.0</ele><time>2026-04-25T16:35:04.303Z</time></trkpt><trkpt lat="43.2904656" lon="11.2835001"><ele>238.0</ele><time>2026-04-25T16:35:05.313Z</time></trkpt><trkpt lat="43.2905878" lon="11.2837627"><ele>238.0</ele><time>2026-04-25T16:35:06.317Z</time></trkpt><trkpt lat="43.2907048" lon="11.2840059"><ele>238.0</ele><time>2026-04-25T16:35:07.304Z</time></trkpt><trkpt lat="43.2908023" lon="11.2842368"><ele>240.0</ele><time>2026-04-25T16:35:08.311Z</time></trkpt><trkpt lat="43.2908605" lon="11.2844863"><ele>242.0</ele><time>2026-04-25T16:35:09.306Z</time></trkpt><trkpt lat="43.2909017" lon="11.284753"><ele>244.0</ele><time>2026-04-25T16:35:10.301Z</time></trkpt><trkpt lat="43.2909213" lon="11.2850374"><ele>245.33333333333331</ele><time>2026-04-25T16:35:11.322Z</time></trkpt><trkpt lat="43.2909328" lon="11.2853141"><ele>246.66666666666669</ele><time>2026-04-25T16:35:12.327Z</time></trkpt><trkpt lat="43.2909537" lon="11.2855717"><ele>248.0</ele><time>2026-04-25T16:35:13.317Z</time></trkpt><trkpt lat="43.2909893" lon="11.2858135"><ele>249.66666666666669</ele><time>2026-04-25T16:35:14.32Z</time></trkpt><trkpt lat="43.2910531" lon="11.2860494"><ele>251.33333333333331</ele><time>2026-04-25T16:35:15.308Z</time></trkpt><trkpt lat="43.2911583" lon="11.2862459"><ele>253.0</ele><time>2026-04-25T16:35:16.301Z</time></trkpt><trkpt lat="43.2912817" lon="11.2864053"><ele>253.33333333333331</ele><time>2026-04-25T16:35:17.309Z</time></trkpt><trkpt lat="43.2914298" lon="11.2865004"><ele>253.66666666666669</ele><time>2026-04-25T16:35:18.309Z</time></trkpt><trkpt lat="43.2916045" lon="11.2865601"><ele>254.0</ele><time>2026-04-25T16:35:19.302Z</time></trkpt><trkpt lat="43.2917814" lon="11.2865614"><ele>254.0</ele><time>2026-04-25T16:35:20.309Z</time></trkpt><trkpt lat="43.291967" lon="11.2865694"><ele>254.0</ele><time>2026-04-25T16:35:21.307Z</time></trkpt><trkpt lat="43.2921615" lon="11.286562"><ele>254.0</ele><time>2026-04-25T16:35:22.309Z</time></trkpt><trkpt lat="43.2923464" lon="11.2865511"><ele>256.33333333333337</ele><time>2026-04-25T16:35:23.322Z</time></trkpt><trkpt lat="43.2925091" lon="11.2865464"><ele>258.6666666666667</ele><time>2026-04-25T16:35:24.309Z</time></trkpt><trkpt lat="43.2926532" lon="11.2865734"><ele>261.0</ele><time>2026-04-25T16:35:25.327Z</time></trkpt><trkpt lat="43.292786" lon="11.2866459"><ele>261.0</ele><time>2026-04-25T16:35:26.311Z</time></trkpt><trkpt lat="43.2928992" lon="11.2867893"><ele>261.0</ele><time>2026-04-25T16:35:27.316Z</time></trkpt><trkpt lat="43.2929898" lon="11.2869691"><ele>261.0</ele><time>2026-04-25T16:35:28.297Z</time></trkpt><trkpt lat="43.2930587" lon="11.2871824"><ele>263.6666666666667</ele><time>2026-04-25T16:35:29.328Z</time></trkpt><trkpt lat="43.2931393" lon="11.287393"><ele>266.33333333333337</ele><time>2026-04-25T16:35:30.299Z</time></trkpt><trkpt lat="43.2932108" lon="11.2876267"><ele>269.0</ele><time>2026-04-25T16:35:31.292Z</time></trkpt><trkpt lat="43.2932824" lon="11.2878514"><ele>269.0</ele><time>2026-04-25T16:35:32.312Z</time></trkpt><trkpt lat="43.2933436" lon="11.2880761"><ele>269.0</ele><time>2026-04-25T16:35:33.283Z</time></trkpt><trkpt lat="43.2933949" lon="11.288288"><ele>269.0</ele><time>2026-04-25T16:35:34.293Z</time></trkpt><trkpt lat="43.2934231" lon="11.2884937"><ele>268.33333333333337</ele><time>2026-04-25T16:35:35.305Z</time></trkpt><trkpt lat="43.2934166" lon="11.2886814"><ele>267.6666666666667</ele><time>2026-04-25T16:35:36.295Z</time></trkpt><trkpt lat="43.2933324" lon="11.2888578"><ele>267.0</ele><time>2026-04-25T16:35:37.295Z</time></trkpt><trkpt lat="43.2931793" lon="11.2890126"><ele>264.3333333333333</ele><time>2026-04-25T16:35:38.308Z</time></trkpt><trkpt lat="43.293021" lon="11.2891512"><ele>261.66666666666663</ele><time>2026-04-25T16:35:39.306Z</time></trkpt><trkpt lat="43.2928811" lon="11.2892678"><ele>259.0</ele><time>2026-04-25T16:35:40.303Z</time></trkpt><trkpt lat="43.2927615" lon="11.2893918"><ele>259.0</ele><time>2026-04-25T16:35:41.306Z</time></trkpt><trkpt lat="43.2926874" lon="11.2895438"><ele>259.0</ele><time>2026-04-25T16:35:42.318Z</time></trkpt><trkpt lat="43.2926775" lon="11.2897373"><ele>259.0</ele><time>2026-04-25T16:35:43.306Z</time></trkpt><trkpt lat="43.2926772" lon="11.289967"><ele>259.0</ele><time>2026-04-25T16:35:44.304Z</time></trkpt><trkpt lat="43.2926903" lon="11.290223"><ele>260.0</ele><time>2026-04-25T16:35:45.29Z</time></trkpt><trkpt lat="43.2927068" lon="11.2904834"><ele>261.0</ele><time>2026-04-25T16:35:46.315Z</time></trkpt><trkpt lat="43.2927151" lon="11.2907557"><ele>262.0</ele><time>2026-04-25T16:35:47.303Z</time></trkpt><trkpt lat="43.2926883" lon="11.290994"><ele>262.66666666666663</ele><time>2026-04-25T16:35:48.307Z</time></trkpt><trkpt lat="43.2926519" lon="11.2912099"><ele>263.3333333333333</ele><time>2026-04-25T16:35:49.316Z</time></trkpt><trkpt lat="43.2926364" lon="11.2914192"><ele>264.0</ele><time>2026-04-25T16:35:50.312Z</time></trkpt><trkpt lat="43.2926474" lon="11.2916338"><ele>266.0</ele><time>2026-04-25T16:35:51.311Z</time></trkpt><trkpt lat="43.2927166" lon="11.2918578"><ele>268.0</ele><time>2026-04-25T16:35:52.298Z</time></trkpt><trkpt lat="43.2928033" lon="11.2921166"><ele>270.0</ele><time>2026-04-25T16:35:53.313Z</time></trkpt><trkpt lat="43.292897" lon="11.2924083"><ele>270.6666666666667</ele><time>2026-04-25T16:35:54.312Z</time></trkpt><trkpt lat="43.2929919" lon="11.292687"><ele>271.33333333333337</ele><time>2026-04-25T16:35:55.308Z</time></trkpt><trkpt lat="43.2930875" lon="11.2929417"><ele>272.0</ele><time>2026-04-25T16:35:56.294Z</time></trkpt><trkpt lat="43.2931824" lon="11.2931867"><ele>272.0</ele><time>2026-04-25T16:35:57.308Z</time></trkpt><trkpt lat="43.2932521" lon="11.2934172"><ele>272.0</ele><time>2026-04-25T16:35:58.318Z</time></trkpt><trkpt lat="43.2932827" lon="11.2936556"><ele>272.0</ele><time>2026-04-25T16:35:59.319Z</time></trkpt><trkpt lat="43.2932822" lon="11.2938902"><ele>272.6666666666667</ele><time>2026-04-25T16:36:00.314Z</time></trkpt><trkpt lat="43.2932795" lon="11.2941237"><ele>273.3333333333333</ele><time>2026-04-25T16:36:01.297Z</time></trkpt><trkpt lat="43.2932594" lon="11.2943283"><ele>274.0</ele><time>2026-04-25T16:36:02.309Z</time></trkpt><trkpt lat="43.2932269" lon="11.2945211"><ele>274.0</ele><time>2026-04-25T16:36:03.315Z</time></trkpt><trkpt lat="43.2931657" lon="11.2947244"><ele>274.0</ele><time>2026-04-25T16:36:04.319Z</time></trkpt><trkpt lat="43.2931058" lon="11.294939"><ele>274.0</ele><time>2026-04-25T16:36:05.319Z</time></trkpt><trkpt lat="43.2930306" lon="11.2951578"><ele>274.0</ele><time>2026-04-25T16:36:06.305Z</time></trkpt><trkpt lat="43.2929469" lon="11.2953843"><ele>274.0</ele><time>2026-04-25T16:36:07.307Z</time></trkpt><trkpt lat="43.2928636" lon="11.2956152"><ele>274.0</ele><time>2026-04-25T16:36:08.309Z</time></trkpt><trkpt lat="43.2927951" lon="11.2958493"><ele>272.3333333333333</ele><time>2026-04-25T16:36:09.314Z</time></trkpt><trkpt lat="43.2927328" lon="11.2960768"><ele>270.6666666666667</ele><time>2026-04-25T16:36:10.308Z</time></trkpt><trkpt lat="43.2926745" lon="11.2962644"><ele>269.0</ele><time>2026-04-25T16:36:11.29Z</time></trkpt><trkpt lat="43.292623" lon="11.2964497"><ele>269.0</ele><time>2026-04-25T16:36:12.309Z</time></trkpt><trkpt lat="43.2925809" lon="11.2966266"><ele>269.0</ele><time>2026-04-25T16:36:13.312Z</time></trkpt><trkpt lat="43.2925424" lon="11.2967996"><ele>269.0</ele><time>2026-04-25T16:36:14.33Z</time></trkpt><trkpt lat="43.2925059" lon="11.2969739"><ele>269.0</ele><time>2026-04-25T16:36:15.298Z</time></trkpt><trkpt lat="43.2924896" lon="11.297178"><ele>269.5</ele><time>2026-04-25T16:36:16.294Z</time></trkpt><trkpt lat="43.2924694" lon="11.297366"><ele>270.0</ele><time>2026-04-25T16:36:17.291Z</time></trkpt><trkpt lat="43.2924697" lon="11.2975258"><ele>270.5</ele><time>2026-04-25T16:36:18.311Z</time></trkpt><trkpt lat="43.2924644" lon="11.2976971"><ele>271.0</ele><time>2026-04-25T16:36:19.304Z</time></trkpt><trkpt lat="43.2924736" lon="11.2978658"><ele>271.0</ele><time>2026-04-25T16:36:20.308Z</time></trkpt><trkpt lat="43.2924848" lon="11.2980366"><ele>271.0</ele><time>2026-04-25T16:36:21.307Z</time></trkpt><trkpt lat="43.2924904" lon="11.2982151"><ele>271.0</ele><time>2026-04-25T16:36:22.296Z</time></trkpt><trkpt lat="43.292492" lon="11.2984088"><ele>271.0</ele><time>2026-04-25T16:36:23.31Z</time></trkpt><trkpt lat="43.2924829" lon="11.2986031"><ele>270.75</ele><time>2026-04-25T16:36:24.327Z</time></trkpt><trkpt lat="43.2924717" lon="11.2988056"><ele>270.5</ele><time>2026-04-25T16:36:25.298Z</time></trkpt><trkpt lat="43.2924524" lon="11.2990123"><ele>270.25</ele><time>2026-04-25T16:36:26.289Z</time></trkpt><trkpt lat="43.2924228" lon="11.2992014"><ele>270.0</ele><time>2026-04-25T16:36:27.294Z</time></trkpt><trkpt lat="43.2923997" lon="11.2993922"><ele>270.0</ele><time>2026-04-25T16:36:28.308Z</time></trkpt><trkpt lat="43.2923775" lon="11.2995749"><ele>270.0</ele><time>2026-04-25T16:36:29.317Z</time></trkpt><trkpt lat="43.2923552" lon="11.2997454"><ele>270.0</ele><time>2026-04-25T16:36:30.325Z</time></trkpt><trkpt lat="43.2923381" lon="11.2999098"><ele>270.0</ele><time>2026-04-25T16:36:31.286Z</time></trkpt><trkpt lat="43.2923157" lon="11.3000816"><ele>270.0</ele><time>2026-04-25T16:36:32.307Z</time></trkpt><trkpt lat="43.2922915" lon="11.3002432"><ele>270.0</ele><time>2026-04-25T16:36:33.301Z</time></trkpt><trkpt lat="43.2922684" lon="11.3003985"><ele>270.0</ele><time>2026-04-25T16:36:34.308Z</time></trkpt><trkpt lat="43.2922434" lon="11.3005523"><ele>270.0</ele><time>2026-04-25T16:36:35.31Z</time></trkpt><trkpt lat="43.2922167" lon="11.3007145"><ele>267.25</ele><time>2026-04-25T16:36:36.309Z</time></trkpt><trkpt lat="43.2921875" lon="11.3008778"><ele>264.5</ele><time>2026-04-25T16:36:37.303Z</time></trkpt><trkpt lat="43.2921549" lon="11.3010295"><ele>261.75</ele><time>2026-04-25T16:36:38.305Z</time></trkpt><trkpt lat="43.292136" lon="11.3011751"><ele>259.0</ele><time>2026-04-25T16:36:39.312Z</time></trkpt><trkpt lat="43.2921193" lon="11.3013223"><ele>260.0</ele><time>2026-04-25T16:36:40.327Z</time></trkpt><trkpt lat="43.2920983" lon="11.30145"><ele>261.0</ele><time>2026-04-25T16:36:41.305Z</time></trkpt><trkpt lat="43.2920785" lon="11.3015747"><ele>262.0</ele><time>2026-04-25T16:36:42.3Z</time></trkpt><trkpt lat="43.2920629" lon="11.3016939"><ele>263.0</ele><time>2026-04-25T16:36:43.307Z</time></trkpt><trkpt lat="43.2920435" lon="11.3018148"><ele>264.0</ele><time>2026-04-25T16:36:44.309Z</time></trkpt><trkpt lat="43.2920263" lon="11.3019321"><ele>264.0</ele><time>2026-04-25T16:36:45.281Z</time></trkpt><trkpt lat="43.2920146" lon="11.3020543"><ele>264.0</ele><time>2026-04-25T16:36:46.286Z</time></trkpt><trkpt lat="43.292005" lon="11.3021798"><ele>264.0</ele><time>2026-04-25T16:36:47.3Z</time></trkpt><trkpt lat="43.2919989" lon="11.3023053"><ele>264.0</ele><time>2026-04-25T16:36:48.314Z</time></trkpt><trkpt lat="43.2919949" lon="11.3024363"><ele>264.0</ele><time>2026-04-25T16:36:49.304Z</time></trkpt><trkpt lat="43.2919983" lon="11.3025661"><ele>264.5</ele><time>2026-04-25T16:36:50.298Z</time></trkpt><trkpt lat="43.2919923" lon="11.302679"><ele>265.0</ele><time>2026-04-25T16:36:51.32Z</time></trkpt><trkpt lat="43.2919912" lon="11.3027948"><ele>265.5</ele><time>2026-04-25T16:36:52.287Z</time></trkpt><trkpt lat="43.2919969" lon="11.3029004"><ele>266.0</ele><time>2026-04-25T16:36:53.32Z</time></trkpt><trkpt lat="43.2919991" lon="11.3030031"><ele>266.5</ele><time>2026-04-25T16:36:54.289Z</time></trkpt><trkpt lat="43.2920014" lon="11.303125"><ele>267.0</ele><time>2026-04-25T16:36:55.307Z</time></trkpt><trkpt lat="43.2920049" lon="11.30327"><ele>268.0</ele><time>2026-04-25T16:36:56.3Z</time></trkpt><trkpt lat="43.2920087" lon="11.3034352"><ele>269.0</ele><time>2026-04-25T16:36:57.297Z</time></trkpt><trkpt lat="43.2920004" lon="11.3035814"><ele>270.0</ele><time>2026-04-25T16:36:58.304Z</time></trkpt><trkpt lat="43.2919943" lon="11.303713"><ele>271.0</ele><time>2026-04-25T16:36:59.306Z</time></trkpt><trkpt lat="43.2919839" lon="11.3038245"><ele>272.0</ele><time>2026-04-25T16:37:00.31Z</time></trkpt><trkpt lat="43.2919705" lon="11.3039263"><ele>272.0</ele><time>2026-04-25T16:37:01.315Z</time></trkpt><trkpt lat="43.2919587" lon="11.3040131"><ele>272.0</ele><time>2026-04-25T16:37:02.301Z</time></trkpt><trkpt lat="43.291923" lon="11.3041484"><ele>272.0</ele><time>2026-04-25T16:37:04.307Z</time></trkpt><trkpt lat="43.291858" lon="11.3042145"><ele>272.0</ele><time>2026-04-25T16:37:06.316Z</time></trkpt><trkpt lat="43.2917388" lon="11.3041209"><ele>272.0</ele><time>2026-04-25T16:37:08.31Z</time></trkpt><trkpt lat="43.2916401" lon="11.3040191"><ele>272.0</ele><time>2026-04-25T16:37:09.314Z</time></trkpt><trkpt lat="43.2915404" lon="11.3039251"><ele>272.0</ele><time>2026-04-25T16:37:10.299Z</time></trkpt><trkpt lat="43.2914307" lon="11.303854"><ele>272.0</ele><time>2026-04-25T16:37:11.326Z</time></trkpt><trkpt lat="43.2913126" lon="11.3038047"><ele>272.0</ele><time>2026-04-25T16:37:12.3Z</time></trkpt><trkpt lat="43.2911855" lon="11.303776"><ele>272.5</ele><time>2026-04-25T16:37:13.305Z</time></trkpt><trkpt lat="43.2910365" lon="11.3037728"><ele>273.0</ele><time>2026-04-25T16:37:14.284Z</time></trkpt><trkpt lat="43.290888" lon="11.3038098"><ele>273.5</ele><time>2026-04-25T16:37:15.302Z</time></trkpt><trkpt lat="43.2907656" lon="11.3038346"><ele>274.0</ele><time>2026-04-25T16:37:16.315Z</time></trkpt><trkpt lat="43.2906294" lon="11.303866"><ele>273.0</ele><time>2026-04-25T16:37:17.321Z</time></trkpt><trkpt lat="43.2905027" lon="11.3038858"><ele>272.0</ele><time>2026-04-25T16:37:18.316Z</time></trkpt><trkpt lat="43.2903839" lon="11.3039071"><ele>271.0</ele><time>2026-04-25T16:37:19.324Z</time></trkpt><trkpt lat="43.2902597" lon="11.303921"><ele>270.0</ele><time>2026-04-25T16:37:20.316Z</time></trkpt><trkpt lat="43.2901309" lon="11.3039188"><ele>270.0</ele><time>2026-04-25T16:37:21.325Z</time></trkpt><trkpt lat="43.2899932" lon="11.3039231"><ele>270.0</ele><time>2026-04-25T16:37:22.309Z</time></trkpt><trkpt lat="43.2898527" lon="11.3038927"><ele>270.0</ele><time>2026-04-25T16:37:23.312Z</time></trkpt><trkpt lat="43.2897222" lon="11.3038197"><ele>270.0</ele><time>2026-04-25T16:37:24.322Z</time></trkpt><trkpt lat="43.2895908" lon="11.3037219"><ele>269.25</ele><time>2026-04-25T16:37:25.277Z</time></trkpt><trkpt lat="43.2894574" lon="11.3036179"><ele>268.5</ele><time>2026-04-25T16:37:26.29Z</time></trkpt><trkpt lat="43.2893265" lon="11.3035224"><ele>267.75</ele><time>2026-04-25T16:37:27.326Z</time></trkpt><trkpt lat="43.289198" lon="11.303455"><ele>267.0</ele><time>2026-04-25T16:37:28.319Z</time></trkpt><trkpt lat="43.2890573" lon="11.3033923"><ele>265.0</ele><time>2026-04-25T16:37:29.31Z</time></trkpt><trkpt lat="43.2889148" lon="11.3033569"><ele>263.0</ele><time>2026-04-25T16:37:30.328Z</time></trkpt><trkpt lat="43.2887747" lon="11.3033433"><ele>261.0</ele><time>2026-04-25T16:37:31.287Z</time></trkpt><trkpt lat="43.2886307" lon="11.3033524"><ele>259.0</ele><time>2026-04-25T16:37:32.302Z</time></trkpt><trkpt lat="43.2884818" lon="11.3033818"><ele>259.0</ele><time>2026-04-25T16:37:33.32Z</time></trkpt><trkpt lat="43.2883311" lon="11.3034251"><ele>259.0</ele><time>2026-04-25T16:37:34.306Z</time></trkpt><trkpt lat="43.2881787" lon="11.3034834"><ele>259.0</ele><time>2026-04-25T16:37:35.326Z</time></trkpt><trkpt lat="43.2880343" lon="11.3035409"><ele>258.5</ele><time>2026-04-25T16:37:36.304Z</time></trkpt><trkpt lat="43.2878962" lon="11.3036132"><ele>258.0</ele><time>2026-04-25T16:37:37.327Z</time></trkpt><trkpt lat="43.2877549" lon="11.3036903"><ele>257.5</ele><time>2026-04-25T16:37:38.282Z</time></trkpt><trkpt lat="43.2876235" lon="11.3037733"><ele>257.0</ele><time>2026-04-25T16:37:39.285Z</time></trkpt><trkpt lat="43.2875085" lon="11.3038666"><ele>258.0</ele><time>2026-04-25T16:37:40.299Z</time></trkpt><trkpt lat="43.287404" lon="11.303994"><ele>259.0</ele><time>2026-04-25T16:37:41.304Z</time></trkpt><trkpt lat="43.2873021" lon="11.3041365"><ele>260.0</ele><time>2026-04-25T16:37:42.311Z</time></trkpt><trkpt lat="43.2872119" lon="11.3042903"><ele>261.0</ele><time>2026-04-25T16:37:43.321Z</time></trkpt><trkpt lat="43.2871212" lon="11.3044426"><ele>261.75</ele><time>2026-04-25T16:37:44.306Z</time></trkpt><trkpt lat="43.2870301" lon="11.3045686"><ele>262.5</ele><time>2026-04-25T16:37:45.301Z</time></trkpt><trkpt lat="43.2869303" lon="11.3046567"><ele>263.25</ele><time>2026-04-25T16:37:46.306Z</time></trkpt><trkpt lat="43.2868206" lon="11.3047192"><ele>264.0</ele><time>2026-04-25T16:37:47.312Z</time></trkpt><trkpt lat="43.2866825" lon="11.304735"><ele>264.0</ele><time>2026-04-25T16:37:48.313Z</time></trkpt><trkpt lat="43.2865193" lon="11.3047081"><ele>264.0</ele><time>2026-04-25T16:37:49.343Z</time></trkpt><trkpt lat="43.2863406" lon="11.3046462"><ele>264.0</ele><time>2026-04-25T16:37:50.305Z</time></trkpt><trkpt lat="43.2861405" lon="11.3045498"><ele>258.5</ele><time>2026-04-25T16:37:51.313Z</time></trkpt><trkpt lat="43.2859072" lon="11.3044419"><ele>253.0</ele><time>2026-04-25T16:37:52.289Z</time></trkpt><trkpt lat="43.2856677" lon="11.3043088"><ele>251.5</ele><time>2026-04-25T16:37:53.292Z</time></trkpt><trkpt lat="43.2854253" lon="11.3041746"><ele>250.0</ele><time>2026-04-25T16:37:54.296Z</time></trkpt><trkpt lat="43.2851888" lon="11.3040285"><ele>247.5</ele><time>2026-04-25T16:37:55.303Z</time></trkpt><trkpt lat="43.2849644" lon="11.3038962"><ele>245.0</ele><time>2026-04-25T16:37:56.307Z</time></trkpt><trkpt lat="43.2847668" lon="11.30379"><ele>247.33333333333334</ele><time>2026-04-25T16:37:57.299Z</time></trkpt><trkpt lat="43.2845576" lon="11.3037002"><ele>249.66666666666669</ele><time>2026-04-25T16:37:58.3Z</time></trkpt><trkpt lat="43.2843514" lon="11.3036495"><ele>252.0</ele><time>2026-04-25T16:37:59.315Z</time></trkpt><trkpt lat="43.2841382" lon="11.303622"><ele>255.33333333333331</ele><time>2026-04-25T16:38:00.308Z</time></trkpt><trkpt lat="43.2839189" lon="11.3036097"><ele>258.66666666666663</ele><time>2026-04-25T16:38:01.296Z</time></trkpt><trkpt lat="43.2837044" lon="11.3036125"><ele>262.0</ele><time>2026-04-25T16:38:02.304Z</time></trkpt><trkpt lat="43.2835008" lon="11.3036114"><ele>262.0</ele><time>2026-04-25T16:38:03.311Z</time></trkpt><trkpt lat="43.2833135" lon="11.3036063"><ele>262.0</ele><time>2026-04-25T16:38:04.298Z</time></trkpt><trkpt lat="43.2831357" lon="11.303589"><ele>262.0</ele><time>2026-04-25T16:38:05.313Z</time></trkpt><trkpt lat="43.2829753" lon="11.303575"><ele>261.4</ele><time>2026-04-25T16:38:06.311Z</time></trkpt><trkpt lat="43.2828282" lon="11.3035526"><ele>260.79999999999995</ele><time>2026-04-25T16:38:07.298Z</time></trkpt><trkpt lat="43.282702" lon="11.3035288"><ele>260.2</ele><time>2026-04-25T16:38:08.278Z</time></trkpt><trkpt lat="43.2825965" lon="11.3035083"><ele>259.59999999999997</ele><time>2026-04-25T16:38:09.301Z</time></trkpt><trkpt lat="43.2825366" lon="11.3034785"><ele>259.0</ele><time>2026-04-25T16:38:10.301Z</time></trkpt><trkpt lat="43.2824166" lon="11.3034726"><ele>259.0</ele><time>2026-04-25T16:38:12.305Z</time></trkpt><trkpt lat="43.282347" lon="11.3035132"><ele>259.0</ele><time>2026-04-25T16:38:13.296Z</time></trkpt><trkpt lat="43.2822803" lon="11.3035868"><ele>259.0</ele><time>2026-04-25T16:38:14.301Z</time></trkpt><trkpt lat="43.282228" lon="11.3037068"><ele>259.0</ele><time>2026-04-25T16:38:15.317Z</time></trkpt><trkpt lat="43.2821808" lon="11.3038752"><ele>259.0</ele><time>2026-04-25T16:38:16.303Z</time></trkpt><trkpt lat="43.2821203" lon="11.3040374"><ele>257.0</ele><time>2026-04-25T16:38:17.312Z</time></trkpt><trkpt lat="43.2820651" lon="11.3041876"><ele>255.0</ele><time>2026-04-25T16:38:18.297Z</time></trkpt><trkpt lat="43.2820022" lon="11.3043312"><ele>253.0</ele><time>2026-04-25T16:38:19.301Z</time></trkpt><trkpt lat="43.2819365" lon="11.3044481"><ele>251.0</ele><time>2026-04-25T16:38:20.302Z</time></trkpt><trkpt lat="43.2818744" lon="11.304571"><ele>251.0</ele><time>2026-04-25T16:38:21.318Z</time></trkpt><trkpt lat="43.2818109" lon="11.3046919"><ele>251.00000000000003</ele><time>2026-04-25T16:38:22.299Z</time></trkpt><trkpt lat="43.2817534" lon="11.3048064"><ele>251.00000000000003</ele><time>2026-04-25T16:38:23.305Z</time></trkpt><trkpt lat="43.2816953" lon="11.3049171"><ele>251.0</ele><time>2026-04-25T16:38:24.32Z</time></trkpt><trkpt lat="43.2816522" lon="11.3050433"><ele>251.0</ele><time>2026-04-25T16:38:25.312Z</time></trkpt><trkpt lat="43.2816018" lon="11.3051597"><ele>250.66666666666669</ele><time>2026-04-25T16:38:26.32Z</time></trkpt><trkpt lat="43.281547" lon="11.3052276"><ele>250.33333333333334</ele><time>2026-04-25T16:38:27.314Z</time></trkpt><trkpt lat="43.2814785" lon="11.3052543"><ele>250.0</ele><time>2026-04-25T16:38:28.309Z</time></trkpt><trkpt lat="43.2814167" lon="11.3052368"><ele>249.66666666666669</ele><time>2026-04-25T16:38:29.308Z</time></trkpt><trkpt lat="43.2813411" lon="11.3051242"><ele>249.33333333333334</ele><time>2026-04-25T16:38:31.295Z</time></trkpt><trkpt lat="43.2812996" lon="11.3050176"><ele>249.0</ele><time>2026-04-25T16:38:32.296Z</time></trkpt><trkpt lat="43.2812579" lon="11.3049041"><ele>248.39999999999998</ele><time>2026-04-25T16:38:33.3Z</time></trkpt><trkpt lat="43.28121" lon="11.3047911"><ele>247.79999999999998</ele><time>2026-04-25T16:38:34.299Z</time></trkpt><trkpt lat="43.2811543" lon="11.3046833"><ele>247.20000000000002</ele><time>2026-04-25T16:38:35.314Z</time></trkpt><trkpt lat="43.2811048" lon="11.304568"><ele>246.60000000000002</ele><time>2026-04-25T16:38:36.317Z</time></trkpt><trkpt lat="43.2810587" lon="11.3044608"><ele>246.0</ele><time>2026-04-25T16:38:37.313Z</time></trkpt><trkpt lat="43.281015" lon="11.3043573"><ele>246.0</ele><time>2026-04-25T16:38:38.303Z</time></trkpt><trkpt lat="43.2809691" lon="11.3042595"><ele>246.0</ele><time>2026-04-25T16:38:39.302Z</time></trkpt><trkpt lat="43.2809266" lon="11.3041645"><ele>246.0</ele><time>2026-04-25T16:38:40.291Z</time></trkpt><trkpt lat="43.2808823" lon="11.3040643"><ele>246.0</ele><time>2026-04-25T16:38:41.285Z</time></trkpt><trkpt lat="43.280838" lon="11.3039726"><ele>246.0</ele><time>2026-04-25T16:38:42.307Z</time></trkpt><trkpt lat="43.2807971" lon="11.3038673"><ele>246.0</ele><time>2026-04-25T16:38:43.314Z</time></trkpt><trkpt lat="43.2807453" lon="11.3037596"><ele>245.5</ele><time>2026-04-25T16:38:44.304Z</time></trkpt><trkpt lat="43.2806893" lon="11.3036611"><ele>245.0</ele><time>2026-04-25T16:38:45.295Z</time></trkpt><trkpt lat="43.2806439" lon="11.3035712"><ele>244.5</ele><time>2026-04-25T16:38:46.301Z</time></trkpt><trkpt lat="43.2806024" lon="11.3035034"><ele>244.0</ele><time>2026-04-25T16:38:47.301Z</time></trkpt><trkpt lat="43.2805081" lon="11.3035393"><ele>243.5</ele><time>2026-04-25T16:38:49.313Z</time></trkpt><trkpt lat="43.2804723" lon="11.3036761"><ele>243.0</ele><time>2026-04-25T16:38:51.311Z</time></trkpt><trkpt lat="43.2803701" lon="11.3036972"><ele>243.0</ele><time>2026-04-25T16:38:53.32Z</time></trkpt><trkpt lat="43.2802633" lon="11.3036388"><ele>243.0</ele><time>2026-04-25T16:38:55.3Z</time></trkpt><trkpt lat="43.280183" lon="11.3035912"><ele>243.0</ele><time>2026-04-25T16:38:57.308Z</time></trkpt><trkpt lat="43.2801141" lon="11.3035298"><ele>243.0</ele><time>2026-04-25T16:38:59.298Z</time></trkpt><trkpt lat="43.280046" lon="11.3034789"><ele>243.0</ele><time>2026-04-25T16:39:01.297Z</time></trkpt><trkpt lat="43.2800274" lon="11.303395"><ele>243.0</ele><time>2026-04-25T16:42:20.3Z</time></trkpt><trkpt lat="43.2800199" lon="11.3033054"><ele>243.0</ele><time>2026-04-25T16:42:28.299Z</time></trkpt><trkpt lat="43.2800569" lon="11.3033842"><ele>243.0</ele><time>2026-04-25T16:43:13.306Z</time></trkpt><trkpt lat="43.2800749" lon="11.303292"><ele>243.0</ele><time>2026-04-25T16:43:34.706Z</time></trkpt><trkpt lat="43.2800292" lon="11.3032072"><ele>243.0</ele><time>2026-04-25T16:44:18.541Z</time></trkpt></trkseg></trk></gpx>